<?xml version="1.0" encoding="UTF-8" standalone="no" ?>
<gpx xmlns="http://www.topografix.com/GPX/1/1" xmlns:xsi="http://www.w3.org/2001/XMLSchema-instance" xsi:schemaLocation="http://www.topografix.com/GPX/1/1 http://www.topografix.com/GPX/1/1/gpx.xsd" version="1.1" creator="VisuGPX - https://www.visugpx.com">
  <metadata>
    <name>GTHL 2021 - etape 2</name>
  </metadata>
  <trk>
    <name><![CDATA[GTHL 2021]]></name>
    <extensions>
      <line xmlns="http://www.topografix.com/GPX/gpx_style/0/2">
        <color>FF0000</color>
        <width>4</width>
      </line>
    </extensions>
    <trkseg>
      <trkpt lat="45.36949" lon="4.1968">
        <ele>430</ele>
        <time>2021-04-26T09:04:19Z</time>
      </trkpt>
      <trkpt lat="45.3695" lon="4.19686">
        <ele>430</ele>
        <time>2021-04-26T09:04:20Z</time>
      </trkpt>
      <trkpt lat="45.36951" lon="4.19692">
        <ele>430</ele>
        <time>2021-04-26T09:04:21Z</time>
      </trkpt>
      <trkpt lat="45.36951" lon="4.19698">
        <ele>430</ele>
        <time>2021-04-26T09:04:22Z</time>
      </trkpt>
      <trkpt lat="45.36952" lon="4.19704">
        <ele>430</ele>
        <time>2021-04-26T09:04:23Z</time>
      </trkpt>
      <trkpt lat="45.36953" lon="4.1971">
        <ele>430</ele>
        <time>2021-04-26T09:04:24Z</time>
      </trkpt>
      <trkpt lat="45.36954" lon="4.19716">
        <ele>430</ele>
        <time>2021-04-26T09:04:25Z</time>
      </trkpt>
      <trkpt lat="45.36955" lon="4.19722">
        <ele>430</ele>
        <time>2021-04-26T09:04:26Z</time>
      </trkpt>
      <trkpt lat="45.36955" lon="4.19728">
        <ele>430</ele>
        <time>2021-04-26T09:04:27Z</time>
      </trkpt>
      <trkpt lat="45.36956" lon="4.19733">
        <ele>430</ele>
        <time>2021-04-26T09:04:28Z</time>
      </trkpt>
      <trkpt lat="45.36957" lon="4.19738">
        <ele>431</ele>
        <time>2021-04-26T09:04:29Z</time>
      </trkpt>
      <trkpt lat="45.36958" lon="4.19743">
        <ele>431</ele>
        <time>2021-04-26T09:04:30Z</time>
      </trkpt>
      <trkpt lat="45.36958" lon="4.19749">
        <ele>431</ele>
        <time>2021-04-26T09:04:31Z</time>
      </trkpt>
      <trkpt lat="45.36959" lon="4.19755">
        <ele>431</ele>
        <time>2021-04-26T09:04:32Z</time>
      </trkpt>
      <trkpt lat="45.3696" lon="4.1976">
        <ele>431</ele>
        <time>2021-04-26T09:04:33Z</time>
      </trkpt>
      <trkpt lat="45.3696" lon="4.19765">
        <ele>431</ele>
        <time>2021-04-26T09:04:34Z</time>
      </trkpt>
      <trkpt lat="45.36961" lon="4.19769">
        <ele>431</ele>
        <time>2021-04-26T09:04:35Z</time>
      </trkpt>
      <trkpt lat="45.3696" lon="4.19773">
        <ele>431</ele>
        <time>2021-04-26T09:04:36Z</time>
      </trkpt>
      <trkpt lat="45.3696" lon="4.19776">
        <ele>431</ele>
        <time>2021-04-26T09:04:37Z</time>
      </trkpt>
      <trkpt lat="45.36961" lon="4.19779">
        <ele>431</ele>
        <time>2021-04-26T09:04:38Z</time>
      </trkpt>
      <trkpt lat="45.36962" lon="4.19782">
        <ele>431</ele>
        <time>2021-04-26T09:04:39Z</time>
      </trkpt>
      <trkpt lat="45.36962" lon="4.19784">
        <ele>431</ele>
        <time>2021-04-26T09:04:40Z</time>
      </trkpt>
      <trkpt lat="45.36963" lon="4.19787">
        <ele>431</ele>
        <time>2021-04-26T09:04:41Z</time>
      </trkpt>
      <trkpt lat="45.36965" lon="4.19791">
        <ele>431</ele>
        <time>2021-04-26T09:04:43Z</time>
      </trkpt>
      <trkpt lat="45.36965" lon="4.19794">
        <ele>432</ele>
        <time>2021-04-26T09:04:44Z</time>
      </trkpt>
      <trkpt lat="45.36965" lon="4.19797">
        <ele>432</ele>
        <time>2021-04-26T09:04:45Z</time>
      </trkpt>
      <trkpt lat="45.36965" lon="4.198">
        <ele>432</ele>
        <time>2021-04-26T09:04:46Z</time>
      </trkpt>
      <trkpt lat="45.36963" lon="4.19802">
        <ele>432</ele>
        <time>2021-04-26T09:04:47Z</time>
      </trkpt>
      <trkpt lat="45.3696" lon="4.19802">
        <ele>432</ele>
        <time>2021-04-26T09:04:48Z</time>
      </trkpt>
      <trkpt lat="45.36958" lon="4.19803">
        <ele>432</ele>
        <time>2021-04-26T09:04:49Z</time>
      </trkpt>
      <trkpt lat="45.36956" lon="4.19803">
        <ele>433</ele>
        <time>2021-04-26T09:04:50Z</time>
      </trkpt>
      <trkpt lat="45.36953" lon="4.19804">
        <ele>433</ele>
        <time>2021-04-26T09:04:51Z</time>
      </trkpt>
      <trkpt lat="45.36951" lon="4.19805">
        <ele>433</ele>
        <time>2021-04-26T09:04:52Z</time>
      </trkpt>
      <trkpt lat="45.36948" lon="4.19806">
        <ele>433</ele>
        <time>2021-04-26T09:04:53Z</time>
      </trkpt>
      <trkpt lat="45.36946" lon="4.19807">
        <ele>433</ele>
        <time>2021-04-26T09:04:54Z</time>
      </trkpt>
      <trkpt lat="45.36944" lon="4.19809">
        <ele>433</ele>
        <time>2021-04-26T09:04:55Z</time>
      </trkpt>
      <trkpt lat="45.36941" lon="4.1981">
        <ele>433</ele>
        <time>2021-04-26T09:04:56Z</time>
      </trkpt>
      <trkpt lat="45.36939" lon="4.19811">
        <ele>434</ele>
        <time>2021-04-26T09:04:57Z</time>
      </trkpt>
      <trkpt lat="45.36937" lon="4.19813">
        <ele>434</ele>
        <time>2021-04-26T09:04:58Z</time>
      </trkpt>
      <trkpt lat="45.36935" lon="4.19815">
        <ele>434</ele>
        <time>2021-04-26T09:04:59Z</time>
      </trkpt>
      <trkpt lat="45.36933" lon="4.19816">
        <ele>434</ele>
        <time>2021-04-26T09:05:00Z</time>
      </trkpt>
      <trkpt lat="45.36931" lon="4.19818">
        <ele>434</ele>
        <time>2021-04-26T09:05:01Z</time>
      </trkpt>
      <trkpt lat="45.36928" lon="4.19819">
        <ele>434</ele>
        <time>2021-04-26T09:05:02Z</time>
      </trkpt>
      <trkpt lat="45.36926" lon="4.19821">
        <ele>435</ele>
        <time>2021-04-26T09:05:03Z</time>
      </trkpt>
      <trkpt lat="45.36924" lon="4.19822">
        <ele>435</ele>
        <time>2021-04-26T09:05:04Z</time>
      </trkpt>
      <trkpt lat="45.36922" lon="4.19823">
        <ele>435</ele>
        <time>2021-04-26T09:05:05Z</time>
      </trkpt>
      <trkpt lat="45.36919" lon="4.19823">
        <ele>435</ele>
        <time>2021-04-26T09:05:06Z</time>
      </trkpt>
      <trkpt lat="45.36913" lon="4.19822">
        <ele>435</ele>
        <time>2021-04-26T09:05:07Z</time>
      </trkpt>
      <trkpt lat="45.36911" lon="4.19824">
        <ele>435</ele>
        <time>2021-04-26T09:05:09Z</time>
      </trkpt>
      <trkpt lat="45.36909" lon="4.19825">
        <ele>435</ele>
        <time>2021-04-26T09:05:10Z</time>
      </trkpt>
      <trkpt lat="45.36907" lon="4.19826">
        <ele>435</ele>
        <time>2021-04-26T09:05:11Z</time>
      </trkpt>
      <trkpt lat="45.36905" lon="4.19826">
        <ele>436</ele>
        <time>2021-04-26T09:05:12Z</time>
      </trkpt>
      <trkpt lat="45.36903" lon="4.19827">
        <ele>436</ele>
        <time>2021-04-26T09:05:13Z</time>
      </trkpt>
      <trkpt lat="45.36901" lon="4.19828">
        <ele>436</ele>
        <time>2021-04-26T09:05:14Z</time>
      </trkpt>
      <trkpt lat="45.36898" lon="4.1983">
        <ele>436</ele>
        <time>2021-04-26T09:05:15Z</time>
      </trkpt>
      <trkpt lat="45.36896" lon="4.19831">
        <ele>436</ele>
        <time>2021-04-26T09:05:16Z</time>
      </trkpt>
      <trkpt lat="45.36894" lon="4.19833">
        <ele>437</ele>
        <time>2021-04-26T09:05:17Z</time>
      </trkpt>
      <trkpt lat="45.36892" lon="4.19835">
        <ele>437</ele>
        <time>2021-04-26T09:05:18Z</time>
      </trkpt>
      <trkpt lat="45.3689" lon="4.19836">
        <ele>437</ele>
        <time>2021-04-26T09:05:19Z</time>
      </trkpt>
      <trkpt lat="45.36888" lon="4.19837">
        <ele>437</ele>
        <time>2021-04-26T09:05:20Z</time>
      </trkpt>
      <trkpt lat="45.36886" lon="4.19838">
        <ele>438</ele>
        <time>2021-04-26T09:05:21Z</time>
      </trkpt>
      <trkpt lat="45.36883" lon="4.19838">
        <ele>438</ele>
        <time>2021-04-26T09:05:22Z</time>
      </trkpt>
      <trkpt lat="45.36881" lon="4.19838">
        <ele>438</ele>
        <time>2021-04-26T09:05:23Z</time>
      </trkpt>
      <trkpt lat="45.36878" lon="4.19837">
        <ele>438</ele>
        <time>2021-04-26T09:05:24Z</time>
      </trkpt>
      <trkpt lat="45.36876" lon="4.19838">
        <ele>439</ele>
        <time>2021-04-26T09:05:25Z</time>
      </trkpt>
      <trkpt lat="45.36873" lon="4.19838">
        <ele>439</ele>
        <time>2021-04-26T09:05:26Z</time>
      </trkpt>
      <trkpt lat="45.36871" lon="4.19838">
        <ele>439</ele>
        <time>2021-04-26T09:05:27Z</time>
      </trkpt>
      <trkpt lat="45.36869" lon="4.19839">
        <ele>439</ele>
        <time>2021-04-26T09:05:28Z</time>
      </trkpt>
      <trkpt lat="45.36867" lon="4.19839">
        <ele>439</ele>
        <time>2021-04-26T09:05:29Z</time>
      </trkpt>
      <trkpt lat="45.36865" lon="4.1984">
        <ele>440</ele>
        <time>2021-04-26T09:05:30Z</time>
      </trkpt>
      <trkpt lat="45.36863" lon="4.19841">
        <ele>440</ele>
        <time>2021-04-26T09:05:31Z</time>
      </trkpt>
      <trkpt lat="45.36861" lon="4.19842">
        <ele>440</ele>
        <time>2021-04-26T09:05:32Z</time>
      </trkpt>
      <trkpt lat="45.36858" lon="4.19843">
        <ele>441</ele>
        <time>2021-04-26T09:05:33Z</time>
      </trkpt>
      <trkpt lat="45.36856" lon="4.19843">
        <ele>441</ele>
        <time>2021-04-26T09:05:34Z</time>
      </trkpt>
      <trkpt lat="45.36853" lon="4.19844">
        <ele>441</ele>
        <time>2021-04-26T09:05:35Z</time>
      </trkpt>
      <trkpt lat="45.36849" lon="4.19844">
        <ele>441</ele>
        <time>2021-04-26T09:05:36Z</time>
      </trkpt>
      <trkpt lat="45.36846" lon="4.19844">
        <ele>441</ele>
        <time>2021-04-26T09:05:37Z</time>
      </trkpt>
      <trkpt lat="45.36842" lon="4.19844">
        <ele>441</ele>
        <time>2021-04-26T09:05:38Z</time>
      </trkpt>
      <trkpt lat="45.36838" lon="4.19845">
        <ele>441</ele>
        <time>2021-04-26T09:05:39Z</time>
      </trkpt>
      <trkpt lat="45.36835" lon="4.19846">
        <ele>441</ele>
        <time>2021-04-26T09:05:40Z</time>
      </trkpt>
      <trkpt lat="45.36831" lon="4.19847">
        <ele>441</ele>
        <time>2021-04-26T09:05:41Z</time>
      </trkpt>
      <trkpt lat="45.3682" lon="4.19852">
        <ele>441</ele>
        <time>2021-04-26T09:05:44Z</time>
      </trkpt>
      <trkpt lat="45.3681" lon="4.19857">
        <ele>442</ele>
        <time>2021-04-26T09:05:47Z</time>
      </trkpt>
      <trkpt lat="45.36801" lon="4.19861">
        <ele>442</ele>
        <time>2021-04-26T09:05:50Z</time>
      </trkpt>
      <trkpt lat="45.36798" lon="4.19862">
        <ele>442</ele>
        <time>2021-04-26T09:05:51Z</time>
      </trkpt>
      <trkpt lat="45.36795" lon="4.19863">
        <ele>442</ele>
        <time>2021-04-26T09:05:52Z</time>
      </trkpt>
      <trkpt lat="45.36792" lon="4.19864">
        <ele>442</ele>
        <time>2021-04-26T09:05:53Z</time>
      </trkpt>
      <trkpt lat="45.36789" lon="4.19865">
        <ele>442</ele>
        <time>2021-04-26T09:05:54Z</time>
      </trkpt>
      <trkpt lat="45.36786" lon="4.19866">
        <ele>442</ele>
        <time>2021-04-26T09:05:55Z</time>
      </trkpt>
      <trkpt lat="45.36784" lon="4.19867">
        <ele>442</ele>
        <time>2021-04-26T09:05:56Z</time>
      </trkpt>
      <trkpt lat="45.36781" lon="4.19869">
        <ele>442</ele>
        <time>2021-04-26T09:05:57Z</time>
      </trkpt>
      <trkpt lat="45.36778" lon="4.1987">
        <ele>442</ele>
        <time>2021-04-26T09:05:58Z</time>
      </trkpt>
      <trkpt lat="45.36776" lon="4.19873">
        <ele>442</ele>
        <time>2021-04-26T09:05:59Z</time>
      </trkpt>
      <trkpt lat="45.36775" lon="4.19876">
        <ele>442</ele>
        <time>2021-04-26T09:06:00Z</time>
      </trkpt>
      <trkpt lat="45.36775" lon="4.1988">
        <ele>442</ele>
        <time>2021-04-26T09:06:01Z</time>
      </trkpt>
      <trkpt lat="45.36776" lon="4.19883">
        <ele>442</ele>
        <time>2021-04-26T09:06:02Z</time>
      </trkpt>
      <trkpt lat="45.36776" lon="4.19886">
        <ele>442</ele>
        <time>2021-04-26T09:06:03Z</time>
      </trkpt>
      <trkpt lat="45.36777" lon="4.19889">
        <ele>443</ele>
        <time>2021-04-26T09:06:04Z</time>
      </trkpt>
      <trkpt lat="45.36779" lon="4.19892">
        <ele>443</ele>
        <time>2021-04-26T09:06:05Z</time>
      </trkpt>
      <trkpt lat="45.3678" lon="4.19894">
        <ele>444</ele>
        <time>2021-04-26T09:06:06Z</time>
      </trkpt>
      <trkpt lat="45.36782" lon="4.19897">
        <ele>445</ele>
        <time>2021-04-26T09:06:08Z</time>
      </trkpt>
      <trkpt lat="45.36785" lon="4.199">
        <ele>446</ele>
        <time>2021-04-26T09:06:10Z</time>
      </trkpt>
      <trkpt lat="45.36786" lon="4.19903">
        <ele>447</ele>
        <time>2021-04-26T09:06:11Z</time>
      </trkpt>
      <trkpt lat="45.36788" lon="4.19906">
        <ele>447</ele>
        <time>2021-04-26T09:06:12Z</time>
      </trkpt>
      <trkpt lat="45.36789" lon="4.19908">
        <ele>447</ele>
        <time>2021-04-26T09:06:13Z</time>
      </trkpt>
      <trkpt lat="45.3679" lon="4.19911">
        <ele>447</ele>
        <time>2021-04-26T09:06:14Z</time>
      </trkpt>
      <trkpt lat="45.36791" lon="4.19915">
        <ele>448</ele>
        <time>2021-04-26T09:06:16Z</time>
      </trkpt>
      <trkpt lat="45.36791" lon="4.19918">
        <ele>449</ele>
        <time>2021-04-26T09:06:28Z</time>
      </trkpt>
      <trkpt lat="45.36787" lon="4.19919">
        <ele>449</ele>
        <time>2021-04-26T09:06:29Z</time>
      </trkpt>
      <trkpt lat="45.36783" lon="4.1992">
        <ele>449</ele>
        <time>2021-04-26T09:06:30Z</time>
      </trkpt>
      <trkpt lat="45.36781" lon="4.1992">
        <ele>449</ele>
        <time>2021-04-26T09:06:32Z</time>
      </trkpt>
      <trkpt lat="45.36778" lon="4.19921">
        <ele>449</ele>
        <time>2021-04-26T09:06:33Z</time>
      </trkpt>
      <trkpt lat="45.36776" lon="4.19921">
        <ele>449</ele>
        <time>2021-04-26T09:06:34Z</time>
      </trkpt>
      <trkpt lat="45.36774" lon="4.19921">
        <ele>449</ele>
        <time>2021-04-26T09:06:35Z</time>
      </trkpt>
      <trkpt lat="45.36771" lon="4.19921">
        <ele>449</ele>
        <time>2021-04-26T09:06:36Z</time>
      </trkpt>
      <trkpt lat="45.3677" lon="4.19922">
        <ele>449</ele>
        <time>2021-04-26T09:06:37Z</time>
      </trkpt>
      <trkpt lat="45.36766" lon="4.19922">
        <ele>450</ele>
        <time>2021-04-26T09:06:39Z</time>
      </trkpt>
      <trkpt lat="45.36765" lon="4.19922">
        <ele>450</ele>
        <time>2021-04-26T09:06:40Z</time>
      </trkpt>
      <trkpt lat="45.36761" lon="4.19922">
        <ele>450</ele>
        <time>2021-04-26T09:06:42Z</time>
      </trkpt>
      <trkpt lat="45.36759" lon="4.19921">
        <ele>450</ele>
        <time>2021-04-26T09:06:43Z</time>
      </trkpt>
      <trkpt lat="45.36757" lon="4.19921">
        <ele>451</ele>
        <time>2021-04-26T09:06:44Z</time>
      </trkpt>
      <trkpt lat="45.36754" lon="4.19921">
        <ele>451</ele>
        <time>2021-04-26T09:06:45Z</time>
      </trkpt>
      <trkpt lat="45.36752" lon="4.19921">
        <ele>451</ele>
        <time>2021-04-26T09:06:46Z</time>
      </trkpt>
      <trkpt lat="45.3675" lon="4.19921">
        <ele>451</ele>
        <time>2021-04-26T09:06:47Z</time>
      </trkpt>
      <trkpt lat="45.36747" lon="4.19921">
        <ele>452</ele>
        <time>2021-04-26T09:06:48Z</time>
      </trkpt>
      <trkpt lat="45.36744" lon="4.19921">
        <ele>452</ele>
        <time>2021-04-26T09:06:49Z</time>
      </trkpt>
      <trkpt lat="45.3674" lon="4.19922">
        <ele>452</ele>
        <time>2021-04-26T09:06:50Z</time>
      </trkpt>
      <trkpt lat="45.36736" lon="4.19923">
        <ele>453</ele>
        <time>2021-04-26T09:06:51Z</time>
      </trkpt>
      <trkpt lat="45.36732" lon="4.19924">
        <ele>453</ele>
        <time>2021-04-26T09:06:52Z</time>
      </trkpt>
      <trkpt lat="45.36729" lon="4.19925">
        <ele>453</ele>
        <time>2021-04-26T09:06:53Z</time>
      </trkpt>
      <trkpt lat="45.36725" lon="4.19926">
        <ele>453</ele>
        <time>2021-04-26T09:06:54Z</time>
      </trkpt>
      <trkpt lat="45.36721" lon="4.19927">
        <ele>454</ele>
        <time>2021-04-26T09:06:55Z</time>
      </trkpt>
      <trkpt lat="45.36718" lon="4.19929">
        <ele>455</ele>
        <time>2021-04-26T09:06:56Z</time>
      </trkpt>
      <trkpt lat="45.36714" lon="4.1993">
        <ele>455</ele>
        <time>2021-04-26T09:06:57Z</time>
      </trkpt>
      <trkpt lat="45.36711" lon="4.19933">
        <ele>456</ele>
        <time>2021-04-26T09:06:58Z</time>
      </trkpt>
      <trkpt lat="45.36708" lon="4.19935">
        <ele>456</ele>
        <time>2021-04-26T09:06:59Z</time>
      </trkpt>
      <trkpt lat="45.36705" lon="4.19937">
        <ele>456</ele>
        <time>2021-04-26T09:07:00Z</time>
      </trkpt>
      <trkpt lat="45.36702" lon="4.19938">
        <ele>457</ele>
        <time>2021-04-26T09:07:01Z</time>
      </trkpt>
      <trkpt lat="45.36699" lon="4.1994">
        <ele>457</ele>
        <time>2021-04-26T09:07:02Z</time>
      </trkpt>
      <trkpt lat="45.36694" lon="4.19941">
        <ele>457</ele>
        <time>2021-04-26T09:07:03Z</time>
      </trkpt>
      <trkpt lat="45.3669" lon="4.19943">
        <ele>458</ele>
        <time>2021-04-26T09:07:04Z</time>
      </trkpt>
      <trkpt lat="45.36679" lon="4.19949">
        <ele>458</ele>
        <time>2021-04-26T09:07:07Z</time>
      </trkpt>
      <trkpt lat="45.36676" lon="4.1995">
        <ele>459</ele>
        <time>2021-04-26T09:07:08Z</time>
      </trkpt>
      <trkpt lat="45.36671" lon="4.1995">
        <ele>459</ele>
        <time>2021-04-26T09:07:09Z</time>
      </trkpt>
      <trkpt lat="45.36667" lon="4.19951">
        <ele>459</ele>
        <time>2021-04-26T09:07:10Z</time>
      </trkpt>
      <trkpt lat="45.36663" lon="4.19952">
        <ele>459</ele>
        <time>2021-04-26T09:07:11Z</time>
      </trkpt>
      <trkpt lat="45.36659" lon="4.19953">
        <ele>460</ele>
        <time>2021-04-26T09:07:12Z</time>
      </trkpt>
      <trkpt lat="45.36655" lon="4.19954">
        <ele>460</ele>
        <time>2021-04-26T09:07:13Z</time>
      </trkpt>
      <trkpt lat="45.36651" lon="4.19955">
        <ele>460</ele>
        <time>2021-04-26T09:07:14Z</time>
      </trkpt>
      <trkpt lat="45.36647" lon="4.19956">
        <ele>460</ele>
        <time>2021-04-26T09:07:15Z</time>
      </trkpt>
      <trkpt lat="45.36643" lon="4.19957">
        <ele>460</ele>
        <time>2021-04-26T09:07:16Z</time>
      </trkpt>
      <trkpt lat="45.3664" lon="4.19958">
        <ele>459</ele>
        <time>2021-04-26T09:07:17Z</time>
      </trkpt>
      <trkpt lat="45.36636" lon="4.19958">
        <ele>459</ele>
        <time>2021-04-26T09:07:18Z</time>
      </trkpt>
      <trkpt lat="45.36633" lon="4.19959">
        <ele>459</ele>
        <time>2021-04-26T09:07:19Z</time>
      </trkpt>
      <trkpt lat="45.3663" lon="4.19959">
        <ele>459</ele>
        <time>2021-04-26T09:07:20Z</time>
      </trkpt>
      <trkpt lat="45.36627" lon="4.19959">
        <ele>459</ele>
        <time>2021-04-26T09:07:21Z</time>
      </trkpt>
      <trkpt lat="45.36625" lon="4.19959">
        <ele>458</ele>
        <time>2021-04-26T09:07:22Z</time>
      </trkpt>
      <trkpt lat="45.36623" lon="4.19959">
        <ele>458</ele>
        <time>2021-04-26T09:07:23Z</time>
      </trkpt>
      <trkpt lat="45.36621" lon="4.19959">
        <ele>458</ele>
        <time>2021-04-26T09:07:25Z</time>
      </trkpt>
      <trkpt lat="45.36618" lon="4.19959">
        <ele>458</ele>
        <time>2021-04-26T09:07:27Z</time>
      </trkpt>
      <trkpt lat="45.36616" lon="4.19958">
        <ele>457</ele>
        <time>2021-04-26T09:07:28Z</time>
      </trkpt>
      <trkpt lat="45.36614" lon="4.19956">
        <ele>457</ele>
        <time>2021-04-26T09:07:29Z</time>
      </trkpt>
      <trkpt lat="45.36612" lon="4.19954">
        <ele>457</ele>
        <time>2021-04-26T09:07:30Z</time>
      </trkpt>
      <trkpt lat="45.36609" lon="4.19952">
        <ele>457</ele>
        <time>2021-04-26T09:07:31Z</time>
      </trkpt>
      <trkpt lat="45.36607" lon="4.1995">
        <ele>457</ele>
        <time>2021-04-26T09:07:32Z</time>
      </trkpt>
      <trkpt lat="45.36604" lon="4.19948">
        <ele>457</ele>
        <time>2021-04-26T09:07:33Z</time>
      </trkpt>
      <trkpt lat="45.36602" lon="4.19946">
        <ele>456</ele>
        <time>2021-04-26T09:07:34Z</time>
      </trkpt>
      <trkpt lat="45.36599" lon="4.19944">
        <ele>456</ele>
        <time>2021-04-26T09:07:35Z</time>
      </trkpt>
      <trkpt lat="45.36597" lon="4.19942">
        <ele>456</ele>
        <time>2021-04-26T09:07:36Z</time>
      </trkpt>
      <trkpt lat="45.36594" lon="4.19941">
        <ele>456</ele>
        <time>2021-04-26T09:07:37Z</time>
      </trkpt>
      <trkpt lat="45.36591" lon="4.1994">
        <ele>456</ele>
        <time>2021-04-26T09:07:38Z</time>
      </trkpt>
      <trkpt lat="45.36588" lon="4.1994">
        <ele>456</ele>
        <time>2021-04-26T09:07:39Z</time>
      </trkpt>
      <trkpt lat="45.36585" lon="4.1994">
        <ele>456</ele>
        <time>2021-04-26T09:07:40Z</time>
      </trkpt>
      <trkpt lat="45.36583" lon="4.19942">
        <ele>456</ele>
        <time>2021-04-26T09:07:41Z</time>
      </trkpt>
      <trkpt lat="45.36581" lon="4.19945">
        <ele>456</ele>
        <time>2021-04-26T09:07:42Z</time>
      </trkpt>
      <trkpt lat="45.36579" lon="4.19948">
        <ele>456</ele>
        <time>2021-04-26T09:07:43Z</time>
      </trkpt>
      <trkpt lat="45.36577" lon="4.19952">
        <ele>456</ele>
        <time>2021-04-26T09:07:44Z</time>
      </trkpt>
      <trkpt lat="45.36575" lon="4.19955">
        <ele>457</ele>
        <time>2021-04-26T09:07:45Z</time>
      </trkpt>
      <trkpt lat="45.36573" lon="4.19958">
        <ele>457</ele>
        <time>2021-04-26T09:07:46Z</time>
      </trkpt>
      <trkpt lat="45.36571" lon="4.19962">
        <ele>457</ele>
        <time>2021-04-26T09:07:47Z</time>
      </trkpt>
      <trkpt lat="45.36569" lon="4.19965">
        <ele>457</ele>
        <time>2021-04-26T09:07:48Z</time>
      </trkpt>
      <trkpt lat="45.36568" lon="4.19968">
        <ele>457</ele>
        <time>2021-04-26T09:07:49Z</time>
      </trkpt>
      <trkpt lat="45.36565" lon="4.19971">
        <ele>457</ele>
        <time>2021-04-26T09:07:50Z</time>
      </trkpt>
      <trkpt lat="45.36563" lon="4.19974">
        <ele>457</ele>
        <time>2021-04-26T09:07:51Z</time>
      </trkpt>
      <trkpt lat="45.36561" lon="4.19976">
        <ele>457</ele>
        <time>2021-04-26T09:07:52Z</time>
      </trkpt>
      <trkpt lat="45.36558" lon="4.19978">
        <ele>457</ele>
        <time>2021-04-26T09:07:53Z</time>
      </trkpt>
      <trkpt lat="45.36556" lon="4.1998">
        <ele>457</ele>
        <time>2021-04-26T09:07:54Z</time>
      </trkpt>
      <trkpt lat="45.36554" lon="4.19983">
        <ele>456</ele>
        <time>2021-04-26T09:07:55Z</time>
      </trkpt>
      <trkpt lat="45.36552" lon="4.19987">
        <ele>456</ele>
        <time>2021-04-26T09:07:56Z</time>
      </trkpt>
      <trkpt lat="45.3655" lon="4.19991">
        <ele>457</ele>
        <time>2021-04-26T09:07:57Z</time>
      </trkpt>
      <trkpt lat="45.36549" lon="4.19995">
        <ele>457</ele>
        <time>2021-04-26T09:07:58Z</time>
      </trkpt>
      <trkpt lat="45.36545" lon="4.20003">
        <ele>456</ele>
        <time>2021-04-26T09:07:59Z</time>
      </trkpt>
      <trkpt lat="45.36544" lon="4.20007">
        <ele>457</ele>
        <time>2021-04-26T09:08:01Z</time>
      </trkpt>
      <trkpt lat="45.36542" lon="4.20011">
        <ele>457</ele>
        <time>2021-04-26T09:08:02Z</time>
      </trkpt>
      <trkpt lat="45.36541" lon="4.20015">
        <ele>457</ele>
        <time>2021-04-26T09:08:03Z</time>
      </trkpt>
      <trkpt lat="45.3654" lon="4.20019">
        <ele>457</ele>
        <time>2021-04-26T09:08:04Z</time>
      </trkpt>
      <trkpt lat="45.36539" lon="4.20022">
        <ele>457</ele>
        <time>2021-04-26T09:08:05Z</time>
      </trkpt>
      <trkpt lat="45.36538" lon="4.20025">
        <ele>457</ele>
        <time>2021-04-26T09:08:06Z</time>
      </trkpt>
      <trkpt lat="45.36538" lon="4.20029">
        <ele>457</ele>
        <time>2021-04-26T09:08:07Z</time>
      </trkpt>
      <trkpt lat="45.36537" lon="4.20035">
        <ele>457</ele>
        <time>2021-04-26T09:08:08Z</time>
      </trkpt>
      <trkpt lat="45.36535" lon="4.20039">
        <ele>457</ele>
        <time>2021-04-26T09:08:10Z</time>
      </trkpt>
      <trkpt lat="45.36533" lon="4.20041">
        <ele>457</ele>
        <time>2021-04-26T09:08:11Z</time>
      </trkpt>
      <trkpt lat="45.3653" lon="4.20043">
        <ele>457</ele>
        <time>2021-04-26T09:08:12Z</time>
      </trkpt>
      <trkpt lat="45.36527" lon="4.20044">
        <ele>457</ele>
        <time>2021-04-26T09:08:13Z</time>
      </trkpt>
      <trkpt lat="45.36524" lon="4.20046">
        <ele>457</ele>
        <time>2021-04-26T09:08:14Z</time>
      </trkpt>
      <trkpt lat="45.36521" lon="4.20047">
        <ele>457</ele>
        <time>2021-04-26T09:08:15Z</time>
      </trkpt>
      <trkpt lat="45.36518" lon="4.20049">
        <ele>457</ele>
        <time>2021-04-26T09:08:16Z</time>
      </trkpt>
      <trkpt lat="45.36515" lon="4.2005">
        <ele>457</ele>
        <time>2021-04-26T09:08:17Z</time>
      </trkpt>
      <trkpt lat="45.36512" lon="4.20052">
        <ele>457</ele>
        <time>2021-04-26T09:08:18Z</time>
      </trkpt>
      <trkpt lat="45.36509" lon="4.20053">
        <ele>457</ele>
        <time>2021-04-26T09:08:19Z</time>
      </trkpt>
      <trkpt lat="45.36506" lon="4.20055">
        <ele>457</ele>
        <time>2021-04-26T09:08:20Z</time>
      </trkpt>
      <trkpt lat="45.36503" lon="4.20057">
        <ele>457</ele>
        <time>2021-04-26T09:08:21Z</time>
      </trkpt>
      <trkpt lat="45.365" lon="4.20058">
        <ele>457</ele>
        <time>2021-04-26T09:08:22Z</time>
      </trkpt>
      <trkpt lat="45.36497" lon="4.20059">
        <ele>457</ele>
        <time>2021-04-26T09:08:23Z</time>
      </trkpt>
      <trkpt lat="45.36494" lon="4.20061">
        <ele>457</ele>
        <time>2021-04-26T09:08:24Z</time>
      </trkpt>
      <trkpt lat="45.36491" lon="4.20063">
        <ele>457</ele>
        <time>2021-04-26T09:08:25Z</time>
      </trkpt>
      <trkpt lat="45.36488" lon="4.20065">
        <ele>457</ele>
        <time>2021-04-26T09:08:26Z</time>
      </trkpt>
      <trkpt lat="45.36485" lon="4.20067">
        <ele>457</ele>
        <time>2021-04-26T09:08:27Z</time>
      </trkpt>
      <trkpt lat="45.36482" lon="4.20069">
        <ele>457</ele>
        <time>2021-04-26T09:08:28Z</time>
      </trkpt>
      <trkpt lat="45.36478" lon="4.20071">
        <ele>457</ele>
        <time>2021-04-26T09:08:29Z</time>
      </trkpt>
      <trkpt lat="45.36475" lon="4.20073">
        <ele>457</ele>
        <time>2021-04-26T09:08:30Z</time>
      </trkpt>
      <trkpt lat="45.36471" lon="4.20075">
        <ele>457</ele>
        <time>2021-04-26T09:08:31Z</time>
      </trkpt>
      <trkpt lat="45.36468" lon="4.20077">
        <ele>457</ele>
        <time>2021-04-26T09:08:32Z</time>
      </trkpt>
      <trkpt lat="45.36464" lon="4.20079">
        <ele>457</ele>
        <time>2021-04-26T09:08:33Z</time>
      </trkpt>
      <trkpt lat="45.36461" lon="4.20081">
        <ele>457</ele>
        <time>2021-04-26T09:08:34Z</time>
      </trkpt>
      <trkpt lat="45.36457" lon="4.20083">
        <ele>458</ele>
        <time>2021-04-26T09:08:35Z</time>
      </trkpt>
      <trkpt lat="45.36454" lon="4.20085">
        <ele>458</ele>
        <time>2021-04-26T09:08:36Z</time>
      </trkpt>
      <trkpt lat="45.3645" lon="4.20087">
        <ele>458</ele>
        <time>2021-04-26T09:08:37Z</time>
      </trkpt>
      <trkpt lat="45.36447" lon="4.20089">
        <ele>458</ele>
        <time>2021-04-26T09:08:38Z</time>
      </trkpt>
      <trkpt lat="45.36443" lon="4.20091">
        <ele>458</ele>
        <time>2021-04-26T09:08:39Z</time>
      </trkpt>
      <trkpt lat="45.3644" lon="4.20092">
        <ele>458</ele>
        <time>2021-04-26T09:08:40Z</time>
      </trkpt>
      <trkpt lat="45.36437" lon="4.20094">
        <ele>458</ele>
        <time>2021-04-26T09:08:41Z</time>
      </trkpt>
      <trkpt lat="45.36433" lon="4.20096">
        <ele>458</ele>
        <time>2021-04-26T09:08:42Z</time>
      </trkpt>
      <trkpt lat="45.3643" lon="4.20098">
        <ele>459</ele>
        <time>2021-04-26T09:08:43Z</time>
      </trkpt>
      <trkpt lat="45.36428" lon="4.20099">
        <ele>459</ele>
        <time>2021-04-26T09:08:44Z</time>
      </trkpt>
      <trkpt lat="45.36425" lon="4.201">
        <ele>459</ele>
        <time>2021-04-26T09:08:45Z</time>
      </trkpt>
      <trkpt lat="45.36423" lon="4.20101">
        <ele>459</ele>
        <time>2021-04-26T09:08:46Z</time>
      </trkpt>
      <trkpt lat="45.3642" lon="4.20102">
        <ele>459</ele>
        <time>2021-04-26T09:08:48Z</time>
      </trkpt>
      <trkpt lat="45.36418" lon="4.20104">
        <ele>460</ele>
        <time>2021-04-26T09:08:50Z</time>
      </trkpt>
      <trkpt lat="45.36416" lon="4.20105">
        <ele>460</ele>
        <time>2021-04-26T09:08:51Z</time>
      </trkpt>
      <trkpt lat="45.36414" lon="4.20106">
        <ele>460</ele>
        <time>2021-04-26T09:08:52Z</time>
      </trkpt>
      <trkpt lat="45.36411" lon="4.20108">
        <ele>460</ele>
        <time>2021-04-26T09:08:53Z</time>
      </trkpt>
      <trkpt lat="45.36408" lon="4.2011">
        <ele>460</ele>
        <time>2021-04-26T09:08:54Z</time>
      </trkpt>
      <trkpt lat="45.36406" lon="4.20112">
        <ele>460</ele>
        <time>2021-04-26T09:08:55Z</time>
      </trkpt>
      <trkpt lat="45.36403" lon="4.20114">
        <ele>460</ele>
        <time>2021-04-26T09:08:56Z</time>
      </trkpt>
      <trkpt lat="45.36399" lon="4.20116">
        <ele>460</ele>
        <time>2021-04-26T09:08:57Z</time>
      </trkpt>
      <trkpt lat="45.36396" lon="4.20118">
        <ele>460</ele>
        <time>2021-04-26T09:08:58Z</time>
      </trkpt>
      <trkpt lat="45.36392" lon="4.2012">
        <ele>460</ele>
        <time>2021-04-26T09:08:59Z</time>
      </trkpt>
      <trkpt lat="45.36389" lon="4.20122">
        <ele>460</ele>
        <time>2021-04-26T09:09:00Z</time>
      </trkpt>
      <trkpt lat="45.36385" lon="4.20124">
        <ele>460</ele>
        <time>2021-04-26T09:09:01Z</time>
      </trkpt>
      <trkpt lat="45.36382" lon="4.20125">
        <ele>460</ele>
        <time>2021-04-26T09:09:02Z</time>
      </trkpt>
      <trkpt lat="45.36378" lon="4.20127">
        <ele>461</ele>
        <time>2021-04-26T09:09:03Z</time>
      </trkpt>
      <trkpt lat="45.36375" lon="4.20129">
        <ele>461</ele>
        <time>2021-04-26T09:09:04Z</time>
      </trkpt>
      <trkpt lat="45.36371" lon="4.20131">
        <ele>461</ele>
        <time>2021-04-26T09:09:05Z</time>
      </trkpt>
      <trkpt lat="45.36368" lon="4.20132">
        <ele>461</ele>
        <time>2021-04-26T09:09:06Z</time>
      </trkpt>
      <trkpt lat="45.36364" lon="4.20133">
        <ele>461</ele>
        <time>2021-04-26T09:09:07Z</time>
      </trkpt>
      <trkpt lat="45.3636" lon="4.20133">
        <ele>461</ele>
        <time>2021-04-26T09:09:08Z</time>
      </trkpt>
      <trkpt lat="45.36356" lon="4.20134">
        <ele>461</ele>
        <time>2021-04-26T09:09:09Z</time>
      </trkpt>
      <trkpt lat="45.36352" lon="4.20135">
        <ele>462</ele>
        <time>2021-04-26T09:09:10Z</time>
      </trkpt>
      <trkpt lat="45.36348" lon="4.20136">
        <ele>462</ele>
        <time>2021-04-26T09:09:11Z</time>
      </trkpt>
      <trkpt lat="45.36344" lon="4.20137">
        <ele>462</ele>
        <time>2021-04-26T09:09:12Z</time>
      </trkpt>
      <trkpt lat="45.3634" lon="4.20138">
        <ele>462</ele>
        <time>2021-04-26T09:09:13Z</time>
      </trkpt>
      <trkpt lat="45.36336" lon="4.20138">
        <ele>462</ele>
        <time>2021-04-26T09:09:14Z</time>
      </trkpt>
      <trkpt lat="45.36332" lon="4.20139">
        <ele>462</ele>
        <time>2021-04-26T09:09:15Z</time>
      </trkpt>
      <trkpt lat="45.36328" lon="4.2014">
        <ele>463</ele>
        <time>2021-04-26T09:09:16Z</time>
      </trkpt>
      <trkpt lat="45.36324" lon="4.20141">
        <ele>463</ele>
        <time>2021-04-26T09:09:17Z</time>
      </trkpt>
      <trkpt lat="45.3632" lon="4.20142">
        <ele>464</ele>
        <time>2021-04-26T09:09:18Z</time>
      </trkpt>
      <trkpt lat="45.36316" lon="4.20143">
        <ele>464</ele>
        <time>2021-04-26T09:09:19Z</time>
      </trkpt>
      <trkpt lat="45.36312" lon="4.20144">
        <ele>464</ele>
        <time>2021-04-26T09:09:20Z</time>
      </trkpt>
      <trkpt lat="45.36308" lon="4.20144">
        <ele>464</ele>
        <time>2021-04-26T09:09:21Z</time>
      </trkpt>
      <trkpt lat="45.36305" lon="4.20145">
        <ele>465</ele>
        <time>2021-04-26T09:09:22Z</time>
      </trkpt>
      <trkpt lat="45.36301" lon="4.20146">
        <ele>465</ele>
        <time>2021-04-26T09:09:23Z</time>
      </trkpt>
      <trkpt lat="45.36297" lon="4.20146">
        <ele>465</ele>
        <time>2021-04-26T09:09:24Z</time>
      </trkpt>
      <trkpt lat="45.36294" lon="4.20147">
        <ele>465</ele>
        <time>2021-04-26T09:09:25Z</time>
      </trkpt>
      <trkpt lat="45.3629" lon="4.20148">
        <ele>466</ele>
        <time>2021-04-26T09:09:26Z</time>
      </trkpt>
      <trkpt lat="45.36287" lon="4.20149">
        <ele>466</ele>
        <time>2021-04-26T09:09:27Z</time>
      </trkpt>
      <trkpt lat="45.36283" lon="4.2015">
        <ele>466</ele>
        <time>2021-04-26T09:09:28Z</time>
      </trkpt>
      <trkpt lat="45.36279" lon="4.20151">
        <ele>466</ele>
        <time>2021-04-26T09:09:29Z</time>
      </trkpt>
      <trkpt lat="45.36276" lon="4.20151">
        <ele>467</ele>
        <time>2021-04-26T09:09:30Z</time>
      </trkpt>
      <trkpt lat="45.36272" lon="4.20152">
        <ele>467</ele>
        <time>2021-04-26T09:09:31Z</time>
      </trkpt>
      <trkpt lat="45.36269" lon="4.20153">
        <ele>467</ele>
        <time>2021-04-26T09:09:32Z</time>
      </trkpt>
      <trkpt lat="45.36266" lon="4.20153">
        <ele>468</ele>
        <time>2021-04-26T09:09:33Z</time>
      </trkpt>
      <trkpt lat="45.36262" lon="4.20154">
        <ele>468</ele>
        <time>2021-04-26T09:09:34Z</time>
      </trkpt>
      <trkpt lat="45.36259" lon="4.20154">
        <ele>468</ele>
        <time>2021-04-26T09:09:35Z</time>
      </trkpt>
      <trkpt lat="45.36256" lon="4.20154">
        <ele>468</ele>
        <time>2021-04-26T09:09:36Z</time>
      </trkpt>
      <trkpt lat="45.36253" lon="4.20153">
        <ele>468</ele>
        <time>2021-04-26T09:09:37Z</time>
      </trkpt>
      <trkpt lat="45.36251" lon="4.20153">
        <ele>468</ele>
        <time>2021-04-26T09:09:38Z</time>
      </trkpt>
      <trkpt lat="45.36248" lon="4.20154">
        <ele>469</ele>
        <time>2021-04-26T09:09:39Z</time>
      </trkpt>
      <trkpt lat="45.36245" lon="4.20156">
        <ele>469</ele>
        <time>2021-04-26T09:09:40Z</time>
      </trkpt>
      <trkpt lat="45.36243" lon="4.20158">
        <ele>469</ele>
        <time>2021-04-26T09:09:41Z</time>
      </trkpt>
      <trkpt lat="45.36241" lon="4.20161">
        <ele>469</ele>
        <time>2021-04-26T09:09:42Z</time>
      </trkpt>
      <trkpt lat="45.36239" lon="4.20165">
        <ele>470</ele>
        <time>2021-04-26T09:09:43Z</time>
      </trkpt>
      <trkpt lat="45.36237" lon="4.20168">
        <ele>470</ele>
        <time>2021-04-26T09:09:44Z</time>
      </trkpt>
      <trkpt lat="45.36234" lon="4.2017">
        <ele>470</ele>
        <time>2021-04-26T09:09:45Z</time>
      </trkpt>
      <trkpt lat="45.36232" lon="4.20172">
        <ele>470</ele>
        <time>2021-04-26T09:09:46Z</time>
      </trkpt>
      <trkpt lat="45.36229" lon="4.20174">
        <ele>470</ele>
        <time>2021-04-26T09:09:47Z</time>
      </trkpt>
      <trkpt lat="45.36227" lon="4.20174">
        <ele>471</ele>
        <time>2021-04-26T09:09:48Z</time>
      </trkpt>
      <trkpt lat="45.36224" lon="4.20174">
        <ele>471</ele>
        <time>2021-04-26T09:09:49Z</time>
      </trkpt>
      <trkpt lat="45.36222" lon="4.20174">
        <ele>471</ele>
        <time>2021-04-26T09:09:50Z</time>
      </trkpt>
      <trkpt lat="45.36219" lon="4.20174">
        <ele>472</ele>
        <time>2021-04-26T09:09:51Z</time>
      </trkpt>
      <trkpt lat="45.36216" lon="4.20173">
        <ele>472</ele>
        <time>2021-04-26T09:09:52Z</time>
      </trkpt>
      <trkpt lat="45.36214" lon="4.20173">
        <ele>472</ele>
        <time>2021-04-26T09:09:53Z</time>
      </trkpt>
      <trkpt lat="45.36211" lon="4.20172">
        <ele>473</ele>
        <time>2021-04-26T09:09:54Z</time>
      </trkpt>
      <trkpt lat="45.36209" lon="4.20171">
        <ele>473</ele>
        <time>2021-04-26T09:09:55Z</time>
      </trkpt>
      <trkpt lat="45.36206" lon="4.2017">
        <ele>473</ele>
        <time>2021-04-26T09:09:56Z</time>
      </trkpt>
      <trkpt lat="45.36204" lon="4.20168">
        <ele>473</ele>
        <time>2021-04-26T09:09:57Z</time>
      </trkpt>
      <trkpt lat="45.36201" lon="4.20167">
        <ele>474</ele>
        <time>2021-04-26T09:09:58Z</time>
      </trkpt>
      <trkpt lat="45.36199" lon="4.20166">
        <ele>474</ele>
        <time>2021-04-26T09:09:59Z</time>
      </trkpt>
      <trkpt lat="45.36196" lon="4.20165">
        <ele>475</ele>
        <time>2021-04-26T09:10:00Z</time>
      </trkpt>
      <trkpt lat="45.36193" lon="4.20164">
        <ele>475</ele>
        <time>2021-04-26T09:10:01Z</time>
      </trkpt>
      <trkpt lat="45.36191" lon="4.20163">
        <ele>475</ele>
        <time>2021-04-26T09:10:02Z</time>
      </trkpt>
      <trkpt lat="45.36188" lon="4.20162">
        <ele>476</ele>
        <time>2021-04-26T09:10:03Z</time>
      </trkpt>
      <trkpt lat="45.36186" lon="4.2016">
        <ele>476</ele>
        <time>2021-04-26T09:10:04Z</time>
      </trkpt>
      <trkpt lat="45.36184" lon="4.20159">
        <ele>477</ele>
        <time>2021-04-26T09:10:05Z</time>
      </trkpt>
      <trkpt lat="45.36182" lon="4.20158">
        <ele>477</ele>
        <time>2021-04-26T09:10:06Z</time>
      </trkpt>
      <trkpt lat="45.36179" lon="4.20158">
        <ele>478</ele>
        <time>2021-04-26T09:10:07Z</time>
      </trkpt>
      <trkpt lat="45.36177" lon="4.20159">
        <ele>478</ele>
        <time>2021-04-26T09:10:08Z</time>
      </trkpt>
      <trkpt lat="45.36174" lon="4.2016">
        <ele>478</ele>
        <time>2021-04-26T09:10:09Z</time>
      </trkpt>
      <trkpt lat="45.36172" lon="4.20162">
        <ele>479</ele>
        <time>2021-04-26T09:10:10Z</time>
      </trkpt>
      <trkpt lat="45.3617" lon="4.20164">
        <ele>479</ele>
        <time>2021-04-26T09:10:11Z</time>
      </trkpt>
      <trkpt lat="45.36168" lon="4.20164">
        <ele>480</ele>
        <time>2021-04-26T09:10:12Z</time>
      </trkpt>
      <trkpt lat="45.36165" lon="4.20164">
        <ele>480</ele>
        <time>2021-04-26T09:10:13Z</time>
      </trkpt>
      <trkpt lat="45.36162" lon="4.20162">
        <ele>481</ele>
        <time>2021-04-26T09:10:14Z</time>
      </trkpt>
      <trkpt lat="45.3616" lon="4.20159">
        <ele>481</ele>
        <time>2021-04-26T09:10:15Z</time>
      </trkpt>
      <trkpt lat="45.36159" lon="4.20156">
        <ele>481</ele>
        <time>2021-04-26T09:10:16Z</time>
      </trkpt>
      <trkpt lat="45.36157" lon="4.20153">
        <ele>482</ele>
        <time>2021-04-26T09:10:17Z</time>
      </trkpt>
      <trkpt lat="45.36155" lon="4.2015">
        <ele>482</ele>
        <time>2021-04-26T09:10:18Z</time>
      </trkpt>
      <trkpt lat="45.36154" lon="4.20146">
        <ele>482</ele>
        <time>2021-04-26T09:10:19Z</time>
      </trkpt>
      <trkpt lat="45.36152" lon="4.20143">
        <ele>482</ele>
        <time>2021-04-26T09:10:20Z</time>
      </trkpt>
      <trkpt lat="45.36151" lon="4.20139">
        <ele>482</ele>
        <time>2021-04-26T09:10:21Z</time>
      </trkpt>
      <trkpt lat="45.36149" lon="4.20136">
        <ele>483</ele>
        <time>2021-04-26T09:10:22Z</time>
      </trkpt>
      <trkpt lat="45.36148" lon="4.20134">
        <ele>483</ele>
        <time>2021-04-26T09:10:23Z</time>
      </trkpt>
      <trkpt lat="45.36146" lon="4.2013">
        <ele>484</ele>
        <time>2021-04-26T09:10:25Z</time>
      </trkpt>
      <trkpt lat="45.36144" lon="4.20127">
        <ele>484</ele>
        <time>2021-04-26T09:10:26Z</time>
      </trkpt>
      <trkpt lat="45.36141" lon="4.20124">
        <ele>484</ele>
        <time>2021-04-26T09:10:27Z</time>
      </trkpt>
      <trkpt lat="45.36139" lon="4.20122">
        <ele>485</ele>
        <time>2021-04-26T09:10:28Z</time>
      </trkpt>
      <trkpt lat="45.36136" lon="4.20119">
        <ele>485</ele>
        <time>2021-04-26T09:10:29Z</time>
      </trkpt>
      <trkpt lat="45.36133" lon="4.20116">
        <ele>485</ele>
        <time>2021-04-26T09:10:30Z</time>
      </trkpt>
      <trkpt lat="45.3613" lon="4.20114">
        <ele>486</ele>
        <time>2021-04-26T09:10:31Z</time>
      </trkpt>
      <trkpt lat="45.36127" lon="4.20112">
        <ele>486</ele>
        <time>2021-04-26T09:10:32Z</time>
      </trkpt>
      <trkpt lat="45.36124" lon="4.2011">
        <ele>486</ele>
        <time>2021-04-26T09:10:33Z</time>
      </trkpt>
      <trkpt lat="45.36121" lon="4.20108">
        <ele>487</ele>
        <time>2021-04-26T09:10:34Z</time>
      </trkpt>
      <trkpt lat="45.36118" lon="4.20106">
        <ele>487</ele>
        <time>2021-04-26T09:10:35Z</time>
      </trkpt>
      <trkpt lat="45.36114" lon="4.20104">
        <ele>487</ele>
        <time>2021-04-26T09:10:36Z</time>
      </trkpt>
      <trkpt lat="45.36111" lon="4.20102">
        <ele>487</ele>
        <time>2021-04-26T09:10:37Z</time>
      </trkpt>
      <trkpt lat="45.36108" lon="4.20101">
        <ele>487</ele>
        <time>2021-04-26T09:10:38Z</time>
      </trkpt>
      <trkpt lat="45.36105" lon="4.20099">
        <ele>488</ele>
        <time>2021-04-26T09:10:39Z</time>
      </trkpt>
      <trkpt lat="45.36102" lon="4.20097">
        <ele>488</ele>
        <time>2021-04-26T09:10:40Z</time>
      </trkpt>
      <trkpt lat="45.361" lon="4.20095">
        <ele>488</ele>
        <time>2021-04-26T09:10:41Z</time>
      </trkpt>
      <trkpt lat="45.36097" lon="4.20094">
        <ele>489</ele>
        <time>2021-04-26T09:10:42Z</time>
      </trkpt>
      <trkpt lat="45.36094" lon="4.20092">
        <ele>489</ele>
        <time>2021-04-26T09:10:43Z</time>
      </trkpt>
      <trkpt lat="45.3609" lon="4.20091">
        <ele>489</ele>
        <time>2021-04-26T09:10:44Z</time>
      </trkpt>
      <trkpt lat="45.36087" lon="4.20089">
        <ele>489</ele>
        <time>2021-04-26T09:10:45Z</time>
      </trkpt>
      <trkpt lat="45.36084" lon="4.20088">
        <ele>489</ele>
        <time>2021-04-26T09:10:46Z</time>
      </trkpt>
      <trkpt lat="45.36081" lon="4.20086">
        <ele>490</ele>
        <time>2021-04-26T09:10:47Z</time>
      </trkpt>
      <trkpt lat="45.36078" lon="4.20084">
        <ele>490</ele>
        <time>2021-04-26T09:10:48Z</time>
      </trkpt>
      <trkpt lat="45.36075" lon="4.20083">
        <ele>490</ele>
        <time>2021-04-26T09:10:49Z</time>
      </trkpt>
      <trkpt lat="45.36072" lon="4.20081">
        <ele>491</ele>
        <time>2021-04-26T09:10:50Z</time>
      </trkpt>
      <trkpt lat="45.36068" lon="4.2008">
        <ele>491</ele>
        <time>2021-04-26T09:10:51Z</time>
      </trkpt>
      <trkpt lat="45.36065" lon="4.20078">
        <ele>491</ele>
        <time>2021-04-26T09:10:52Z</time>
      </trkpt>
      <trkpt lat="45.36062" lon="4.20076">
        <ele>491</ele>
        <time>2021-04-26T09:10:53Z</time>
      </trkpt>
      <trkpt lat="45.36059" lon="4.20075">
        <ele>492</ele>
        <time>2021-04-26T09:10:54Z</time>
      </trkpt>
      <trkpt lat="45.36056" lon="4.20074">
        <ele>492</ele>
        <time>2021-04-26T09:10:55Z</time>
      </trkpt>
      <trkpt lat="45.36052" lon="4.20072">
        <ele>493</ele>
        <time>2021-04-26T09:10:56Z</time>
      </trkpt>
      <trkpt lat="45.36049" lon="4.20071">
        <ele>493</ele>
        <time>2021-04-26T09:10:57Z</time>
      </trkpt>
      <trkpt lat="45.36046" lon="4.20069">
        <ele>494</ele>
        <time>2021-04-26T09:10:58Z</time>
      </trkpt>
      <trkpt lat="45.36043" lon="4.20068">
        <ele>494</ele>
        <time>2021-04-26T09:10:59Z</time>
      </trkpt>
      <trkpt lat="45.3604" lon="4.20066">
        <ele>494</ele>
        <time>2021-04-26T09:11:00Z</time>
      </trkpt>
      <trkpt lat="45.36037" lon="4.20065">
        <ele>494</ele>
        <time>2021-04-26T09:11:01Z</time>
      </trkpt>
      <trkpt lat="45.36035" lon="4.20064">
        <ele>494</ele>
        <time>2021-04-26T09:11:02Z</time>
      </trkpt>
      <trkpt lat="45.36032" lon="4.20063">
        <ele>495</ele>
        <time>2021-04-26T09:11:03Z</time>
      </trkpt>
      <trkpt lat="45.36029" lon="4.20062">
        <ele>495</ele>
        <time>2021-04-26T09:11:04Z</time>
      </trkpt>
      <trkpt lat="45.36027" lon="4.20061">
        <ele>495</ele>
        <time>2021-04-26T09:11:05Z</time>
      </trkpt>
      <trkpt lat="45.36024" lon="4.2006">
        <ele>496</ele>
        <time>2021-04-26T09:11:06Z</time>
      </trkpt>
      <trkpt lat="45.36021" lon="4.20059">
        <ele>496</ele>
        <time>2021-04-26T09:11:07Z</time>
      </trkpt>
      <trkpt lat="45.36018" lon="4.20059">
        <ele>496</ele>
        <time>2021-04-26T09:11:08Z</time>
      </trkpt>
      <trkpt lat="45.36016" lon="4.20057">
        <ele>496</ele>
        <time>2021-04-26T09:11:09Z</time>
      </trkpt>
      <trkpt lat="45.36013" lon="4.20055">
        <ele>497</ele>
        <time>2021-04-26T09:11:10Z</time>
      </trkpt>
      <trkpt lat="45.3601" lon="4.20054">
        <ele>498</ele>
        <time>2021-04-26T09:11:11Z</time>
      </trkpt>
      <trkpt lat="45.36007" lon="4.20052">
        <ele>498</ele>
        <time>2021-04-26T09:11:12Z</time>
      </trkpt>
      <trkpt lat="45.36004" lon="4.2005">
        <ele>498</ele>
        <time>2021-04-26T09:11:13Z</time>
      </trkpt>
      <trkpt lat="45.36001" lon="4.20049">
        <ele>499</ele>
        <time>2021-04-26T09:11:14Z</time>
      </trkpt>
      <trkpt lat="45.35999" lon="4.20048">
        <ele>499</ele>
        <time>2021-04-26T09:11:15Z</time>
      </trkpt>
      <trkpt lat="45.35996" lon="4.20046">
        <ele>499</ele>
        <time>2021-04-26T09:11:16Z</time>
      </trkpt>
      <trkpt lat="45.35993" lon="4.20045">
        <ele>500</ele>
        <time>2021-04-26T09:11:17Z</time>
      </trkpt>
      <trkpt lat="45.3599" lon="4.20045">
        <ele>500</ele>
        <time>2021-04-26T09:11:18Z</time>
      </trkpt>
      <trkpt lat="45.35987" lon="4.20044">
        <ele>500</ele>
        <time>2021-04-26T09:11:19Z</time>
      </trkpt>
      <trkpt lat="45.35984" lon="4.20043">
        <ele>501</ele>
        <time>2021-04-26T09:11:20Z</time>
      </trkpt>
      <trkpt lat="45.35981" lon="4.20041">
        <ele>501</ele>
        <time>2021-04-26T09:11:21Z</time>
      </trkpt>
      <trkpt lat="45.35979" lon="4.2004">
        <ele>501</ele>
        <time>2021-04-26T09:11:22Z</time>
      </trkpt>
      <trkpt lat="45.35977" lon="4.20039">
        <ele>502</ele>
        <time>2021-04-26T09:11:23Z</time>
      </trkpt>
      <trkpt lat="45.35975" lon="4.20038">
        <ele>502</ele>
        <time>2021-04-26T09:11:24Z</time>
      </trkpt>
      <trkpt lat="45.35972" lon="4.20035">
        <ele>503</ele>
        <time>2021-04-26T09:11:26Z</time>
      </trkpt>
      <trkpt lat="45.3597" lon="4.20034">
        <ele>503</ele>
        <time>2021-04-26T09:11:27Z</time>
      </trkpt>
      <trkpt lat="45.35968" lon="4.20033">
        <ele>503</ele>
        <time>2021-04-26T09:11:28Z</time>
      </trkpt>
      <trkpt lat="45.35965" lon="4.20033">
        <ele>504</ele>
        <time>2021-04-26T09:11:29Z</time>
      </trkpt>
      <trkpt lat="45.35963" lon="4.20033">
        <ele>504</ele>
        <time>2021-04-26T09:11:30Z</time>
      </trkpt>
      <trkpt lat="45.35961" lon="4.20032">
        <ele>504</ele>
        <time>2021-04-26T09:11:31Z</time>
      </trkpt>
      <trkpt lat="45.35958" lon="4.20032">
        <ele>504</ele>
        <time>2021-04-26T09:11:32Z</time>
      </trkpt>
      <trkpt lat="45.35954" lon="4.20032">
        <ele>505</ele>
        <time>2021-04-26T09:11:33Z</time>
      </trkpt>
      <trkpt lat="45.35951" lon="4.20032">
        <ele>505</ele>
        <time>2021-04-26T09:11:34Z</time>
      </trkpt>
      <trkpt lat="45.35948" lon="4.20032">
        <ele>505</ele>
        <time>2021-04-26T09:11:35Z</time>
      </trkpt>
      <trkpt lat="45.35945" lon="4.20031">
        <ele>505</ele>
        <time>2021-04-26T09:11:36Z</time>
      </trkpt>
      <trkpt lat="45.35942" lon="4.20031">
        <ele>505</ele>
        <time>2021-04-26T09:11:37Z</time>
      </trkpt>
      <trkpt lat="45.35939" lon="4.2003">
        <ele>505</ele>
        <time>2021-04-26T09:11:38Z</time>
      </trkpt>
      <trkpt lat="45.35935" lon="4.2003">
        <ele>505</ele>
        <time>2021-04-26T09:11:39Z</time>
      </trkpt>
      <trkpt lat="45.35932" lon="4.20029">
        <ele>505</ele>
        <time>2021-04-26T09:11:40Z</time>
      </trkpt>
      <trkpt lat="45.35929" lon="4.20028">
        <ele>505</ele>
        <time>2021-04-26T09:11:41Z</time>
      </trkpt>
      <trkpt lat="45.3592" lon="4.20025">
        <ele>505</ele>
        <time>2021-04-26T09:11:44Z</time>
      </trkpt>
      <trkpt lat="45.35911" lon="4.20025">
        <ele>505</ele>
        <time>2021-04-26T09:11:47Z</time>
      </trkpt>
      <trkpt lat="45.35917" lon="4.20036">
        <ele>510</ele>
        <time>2021-04-26T09:11:55Z</time>
      </trkpt>
      <trkpt lat="45.3592" lon="4.20039">
        <ele>510</ele>
        <time>2021-04-26T09:11:56Z</time>
      </trkpt>
      <trkpt lat="45.35922" lon="4.20041">
        <ele>511</ele>
        <time>2021-04-26T09:11:57Z</time>
      </trkpt>
      <trkpt lat="45.35926" lon="4.20046">
        <ele>512</ele>
        <time>2021-04-26T09:11:59Z</time>
      </trkpt>
      <trkpt lat="45.35929" lon="4.20048">
        <ele>513</ele>
        <time>2021-04-26T09:12:00Z</time>
      </trkpt>
      <trkpt lat="45.35937" lon="4.20055">
        <ele>514</ele>
        <time>2021-04-26T09:12:03Z</time>
      </trkpt>
      <trkpt lat="45.35942" lon="4.20058">
        <ele>515</ele>
        <time>2021-04-26T09:12:05Z</time>
      </trkpt>
      <trkpt lat="45.35944" lon="4.2006">
        <ele>515</ele>
        <time>2021-04-26T09:12:06Z</time>
      </trkpt>
      <trkpt lat="45.35948" lon="4.20064">
        <ele>516</ele>
        <time>2021-04-26T09:12:07Z</time>
      </trkpt>
      <trkpt lat="45.3595" lon="4.20065">
        <ele>517</ele>
        <time>2021-04-26T09:12:09Z</time>
      </trkpt>
      <trkpt lat="45.35952" lon="4.20066">
        <ele>517</ele>
        <time>2021-04-26T09:12:10Z</time>
      </trkpt>
      <trkpt lat="45.35954" lon="4.20068">
        <ele>519</ele>
        <time>2021-04-26T09:12:12Z</time>
      </trkpt>
      <trkpt lat="45.35953" lon="4.20071">
        <ele>525</ele>
        <time>2021-04-26T09:13:20Z</time>
      </trkpt>
      <trkpt lat="45.35954" lon="4.20079">
        <ele>527</ele>
        <time>2021-04-26T09:14:42Z</time>
      </trkpt>
      <trkpt lat="45.35958" lon="4.20083">
        <ele>527</ele>
        <time>2021-04-26T09:14:43Z</time>
      </trkpt>
      <trkpt lat="45.35961" lon="4.20084">
        <ele>528</ele>
        <time>2021-04-26T09:14:44Z</time>
      </trkpt>
      <trkpt lat="45.35963" lon="4.20085">
        <ele>528</ele>
        <time>2021-04-26T09:14:46Z</time>
      </trkpt>
      <trkpt lat="45.35966" lon="4.20087">
        <ele>528</ele>
        <time>2021-04-26T09:14:47Z</time>
      </trkpt>
      <trkpt lat="45.35969" lon="4.20091">
        <ele>528</ele>
        <time>2021-04-26T09:14:48Z</time>
      </trkpt>
      <trkpt lat="45.35972" lon="4.20095">
        <ele>528</ele>
        <time>2021-04-26T09:14:49Z</time>
      </trkpt>
      <trkpt lat="45.35975" lon="4.20099">
        <ele>528</ele>
        <time>2021-04-26T09:14:50Z</time>
      </trkpt>
      <trkpt lat="45.35978" lon="4.20103">
        <ele>529</ele>
        <time>2021-04-26T09:14:51Z</time>
      </trkpt>
      <trkpt lat="45.3598" lon="4.20106">
        <ele>529</ele>
        <time>2021-04-26T09:14:52Z</time>
      </trkpt>
      <trkpt lat="45.35983" lon="4.2011">
        <ele>529</ele>
        <time>2021-04-26T09:14:53Z</time>
      </trkpt>
      <trkpt lat="45.35986" lon="4.20114">
        <ele>529</ele>
        <time>2021-04-26T09:14:54Z</time>
      </trkpt>
      <trkpt lat="45.35988" lon="4.20117">
        <ele>529</ele>
        <time>2021-04-26T09:14:55Z</time>
      </trkpt>
      <trkpt lat="45.3599" lon="4.20121">
        <ele>529</ele>
        <time>2021-04-26T09:14:56Z</time>
      </trkpt>
      <trkpt lat="45.35992" lon="4.20124">
        <ele>529</ele>
        <time>2021-04-26T09:14:57Z</time>
      </trkpt>
      <trkpt lat="45.35995" lon="4.20128">
        <ele>529</ele>
        <time>2021-04-26T09:14:58Z</time>
      </trkpt>
      <trkpt lat="45.36" lon="4.20135">
        <ele>529</ele>
        <time>2021-04-26T09:14:59Z</time>
      </trkpt>
      <trkpt lat="45.36002" lon="4.20138">
        <ele>529</ele>
        <time>2021-04-26T09:15:01Z</time>
      </trkpt>
      <trkpt lat="45.36003" lon="4.20141">
        <ele>530</ele>
        <time>2021-04-26T09:15:02Z</time>
      </trkpt>
      <trkpt lat="45.36005" lon="4.20145">
        <ele>530</ele>
        <time>2021-04-26T09:15:03Z</time>
      </trkpt>
      <trkpt lat="45.36008" lon="4.20152">
        <ele>531</ele>
        <time>2021-04-26T09:15:04Z</time>
      </trkpt>
      <trkpt lat="45.3601" lon="4.20156">
        <ele>531</ele>
        <time>2021-04-26T09:15:06Z</time>
      </trkpt>
      <trkpt lat="45.36012" lon="4.20159">
        <ele>532</ele>
        <time>2021-04-26T09:15:07Z</time>
      </trkpt>
      <trkpt lat="45.36014" lon="4.20162">
        <ele>532</ele>
        <time>2021-04-26T09:15:08Z</time>
      </trkpt>
      <trkpt lat="45.36016" lon="4.20165">
        <ele>532</ele>
        <time>2021-04-26T09:15:09Z</time>
      </trkpt>
      <trkpt lat="45.36018" lon="4.20169">
        <ele>532</ele>
        <time>2021-04-26T09:15:10Z</time>
      </trkpt>
      <trkpt lat="45.3602" lon="4.20173">
        <ele>533</ele>
        <time>2021-04-26T09:15:11Z</time>
      </trkpt>
      <trkpt lat="45.36022" lon="4.20177">
        <ele>533</ele>
        <time>2021-04-26T09:15:12Z</time>
      </trkpt>
      <trkpt lat="45.36023" lon="4.20181">
        <ele>534</ele>
        <time>2021-04-26T09:15:13Z</time>
      </trkpt>
      <trkpt lat="45.36025" lon="4.2019">
        <ele>534</ele>
        <time>2021-04-26T09:15:14Z</time>
      </trkpt>
      <trkpt lat="45.36025" lon="4.20194">
        <ele>535</ele>
        <time>2021-04-26T09:15:16Z</time>
      </trkpt>
      <trkpt lat="45.36026" lon="4.20198">
        <ele>535</ele>
        <time>2021-04-26T09:15:17Z</time>
      </trkpt>
      <trkpt lat="45.36026" lon="4.20203">
        <ele>535</ele>
        <time>2021-04-26T09:15:18Z</time>
      </trkpt>
      <trkpt lat="45.36027" lon="4.20207">
        <ele>536</ele>
        <time>2021-04-26T09:15:19Z</time>
      </trkpt>
      <trkpt lat="45.36026" lon="4.20211">
        <ele>536</ele>
        <time>2021-04-26T09:15:20Z</time>
      </trkpt>
      <trkpt lat="45.36025" lon="4.20216">
        <ele>536</ele>
        <time>2021-04-26T09:15:21Z</time>
      </trkpt>
      <trkpt lat="45.36024" lon="4.2022">
        <ele>537</ele>
        <time>2021-04-26T09:15:22Z</time>
      </trkpt>
      <trkpt lat="45.36022" lon="4.20224">
        <ele>537</ele>
        <time>2021-04-26T09:15:23Z</time>
      </trkpt>
      <trkpt lat="45.3602" lon="4.20228">
        <ele>537</ele>
        <time>2021-04-26T09:15:24Z</time>
      </trkpt>
      <trkpt lat="45.36017" lon="4.20231">
        <ele>537</ele>
        <time>2021-04-26T09:15:25Z</time>
      </trkpt>
      <trkpt lat="45.36014" lon="4.20233">
        <ele>538</ele>
        <time>2021-04-26T09:15:26Z</time>
      </trkpt>
      <trkpt lat="45.36011" lon="4.20235">
        <ele>538</ele>
        <time>2021-04-26T09:15:27Z</time>
      </trkpt>
      <trkpt lat="45.36008" lon="4.20238">
        <ele>539</ele>
        <time>2021-04-26T09:15:28Z</time>
      </trkpt>
      <trkpt lat="45.36005" lon="4.2024">
        <ele>539</ele>
        <time>2021-04-26T09:15:29Z</time>
      </trkpt>
      <trkpt lat="45.36003" lon="4.20243">
        <ele>539</ele>
        <time>2021-04-26T09:15:30Z</time>
      </trkpt>
      <trkpt lat="45.36" lon="4.20245">
        <ele>540</ele>
        <time>2021-04-26T09:15:31Z</time>
      </trkpt>
      <trkpt lat="45.35998" lon="4.20248">
        <ele>540</ele>
        <time>2021-04-26T09:15:32Z</time>
      </trkpt>
      <trkpt lat="45.35995" lon="4.20251">
        <ele>540</ele>
        <time>2021-04-26T09:15:33Z</time>
      </trkpt>
      <trkpt lat="45.35992" lon="4.20253">
        <ele>540</ele>
        <time>2021-04-26T09:15:34Z</time>
      </trkpt>
      <trkpt lat="45.3599" lon="4.20256">
        <ele>541</ele>
        <time>2021-04-26T09:15:35Z</time>
      </trkpt>
      <trkpt lat="45.35988" lon="4.20258">
        <ele>541</ele>
        <time>2021-04-26T09:15:36Z</time>
      </trkpt>
      <trkpt lat="45.35985" lon="4.20261">
        <ele>541</ele>
        <time>2021-04-26T09:15:37Z</time>
      </trkpt>
      <trkpt lat="45.35983" lon="4.20263">
        <ele>541</ele>
        <time>2021-04-26T09:15:38Z</time>
      </trkpt>
      <trkpt lat="45.3598" lon="4.20266">
        <ele>541</ele>
        <time>2021-04-26T09:15:39Z</time>
      </trkpt>
      <trkpt lat="45.35978" lon="4.20269">
        <ele>542</ele>
        <time>2021-04-26T09:15:40Z</time>
      </trkpt>
      <trkpt lat="45.35975" lon="4.20271">
        <ele>542</ele>
        <time>2021-04-26T09:15:41Z</time>
      </trkpt>
      <trkpt lat="45.35972" lon="4.20274">
        <ele>542</ele>
        <time>2021-04-26T09:15:42Z</time>
      </trkpt>
      <trkpt lat="45.3597" lon="4.20276">
        <ele>543</ele>
        <time>2021-04-26T09:15:43Z</time>
      </trkpt>
      <trkpt lat="45.35967" lon="4.20279">
        <ele>543</ele>
        <time>2021-04-26T09:15:44Z</time>
      </trkpt>
      <trkpt lat="45.35965" lon="4.20282">
        <ele>544</ele>
        <time>2021-04-26T09:15:45Z</time>
      </trkpt>
      <trkpt lat="45.35962" lon="4.20284">
        <ele>544</ele>
        <time>2021-04-26T09:15:46Z</time>
      </trkpt>
      <trkpt lat="45.3596" lon="4.20286">
        <ele>544</ele>
        <time>2021-04-26T09:15:47Z</time>
      </trkpt>
      <trkpt lat="45.35957" lon="4.20288">
        <ele>544</ele>
        <time>2021-04-26T09:15:48Z</time>
      </trkpt>
      <trkpt lat="45.35955" lon="4.20291">
        <ele>545</ele>
        <time>2021-04-26T09:15:49Z</time>
      </trkpt>
      <trkpt lat="45.35952" lon="4.20293">
        <ele>545</ele>
        <time>2021-04-26T09:15:50Z</time>
      </trkpt>
      <trkpt lat="45.3595" lon="4.20296">
        <ele>545</ele>
        <time>2021-04-26T09:15:51Z</time>
      </trkpt>
      <trkpt lat="45.35947" lon="4.20298">
        <ele>545</ele>
        <time>2021-04-26T09:15:52Z</time>
      </trkpt>
      <trkpt lat="45.35945" lon="4.203">
        <ele>546</ele>
        <time>2021-04-26T09:15:53Z</time>
      </trkpt>
      <trkpt lat="45.35942" lon="4.20303">
        <ele>546</ele>
        <time>2021-04-26T09:15:54Z</time>
      </trkpt>
      <trkpt lat="45.3594" lon="4.20304">
        <ele>546</ele>
        <time>2021-04-26T09:15:55Z</time>
      </trkpt>
      <trkpt lat="45.35937" lon="4.20306">
        <ele>547</ele>
        <time>2021-04-26T09:15:56Z</time>
      </trkpt>
      <trkpt lat="45.35934" lon="4.20308">
        <ele>547</ele>
        <time>2021-04-26T09:15:57Z</time>
      </trkpt>
      <trkpt lat="45.35931" lon="4.2031">
        <ele>547</ele>
        <time>2021-04-26T09:15:58Z</time>
      </trkpt>
      <trkpt lat="45.35926" lon="4.20314">
        <ele>548</ele>
        <time>2021-04-26T09:15:59Z</time>
      </trkpt>
      <trkpt lat="45.35923" lon="4.20315">
        <ele>548</ele>
        <time>2021-04-26T09:16:01Z</time>
      </trkpt>
      <trkpt lat="45.3592" lon="4.20317">
        <ele>549</ele>
        <time>2021-04-26T09:16:02Z</time>
      </trkpt>
      <trkpt lat="45.35917" lon="4.20318">
        <ele>549</ele>
        <time>2021-04-26T09:16:03Z</time>
      </trkpt>
      <trkpt lat="45.35915" lon="4.2032">
        <ele>549</ele>
        <time>2021-04-26T09:16:04Z</time>
      </trkpt>
      <trkpt lat="45.35912" lon="4.20322">
        <ele>549</ele>
        <time>2021-04-26T09:16:05Z</time>
      </trkpt>
      <trkpt lat="45.3591" lon="4.20323">
        <ele>549</ele>
        <time>2021-04-26T09:16:06Z</time>
      </trkpt>
      <trkpt lat="45.35902" lon="4.20331">
        <ele>550</ele>
        <time>2021-04-26T09:16:09Z</time>
      </trkpt>
      <trkpt lat="45.35893" lon="4.20336">
        <ele>551</ele>
        <time>2021-04-26T09:16:12Z</time>
      </trkpt>
      <trkpt lat="45.35884" lon="4.20341">
        <ele>551</ele>
        <time>2021-04-26T09:16:15Z</time>
      </trkpt>
      <trkpt lat="45.35872" lon="4.20349">
        <ele>554</ele>
        <time>2021-04-26T09:16:19Z</time>
      </trkpt>
      <trkpt lat="45.35864" lon="4.20356">
        <ele>555</ele>
        <time>2021-04-26T09:16:22Z</time>
      </trkpt>
      <trkpt lat="45.35859" lon="4.20368">
        <ele>556</ele>
        <time>2021-04-26T09:16:25Z</time>
      </trkpt>
      <trkpt lat="45.35856" lon="4.20382">
        <ele>558</ele>
        <time>2021-04-26T09:16:30Z</time>
      </trkpt>
      <trkpt lat="45.35851" lon="4.20395">
        <ele>558</ele>
        <time>2021-04-26T09:16:33Z</time>
      </trkpt>
      <trkpt lat="45.35846" lon="4.20406">
        <ele>558</ele>
        <time>2021-04-26T09:16:36Z</time>
      </trkpt>
      <trkpt lat="45.3584" lon="4.20419">
        <ele>563</ele>
        <time>2021-04-26T09:16:40Z</time>
      </trkpt>
      <trkpt lat="45.35835" lon="4.20434">
        <ele>564</ele>
        <time>2021-04-26T09:16:44Z</time>
      </trkpt>
      <trkpt lat="45.35833" lon="4.20447">
        <ele>564</ele>
        <time>2021-04-26T09:16:47Z</time>
      </trkpt>
      <trkpt lat="45.35833" lon="4.20463">
        <ele>568</ele>
        <time>2021-04-26T09:16:51Z</time>
      </trkpt>
      <trkpt lat="45.35829" lon="4.20476">
        <ele>569</ele>
        <time>2021-04-26T09:16:54Z</time>
      </trkpt>
      <trkpt lat="45.35824" lon="4.20488">
        <ele>570</ele>
        <time>2021-04-26T09:16:57Z</time>
      </trkpt>
      <trkpt lat="45.35821" lon="4.20502">
        <ele>572</ele>
        <time>2021-04-26T09:17:01Z</time>
      </trkpt>
      <trkpt lat="45.35818" lon="4.20515">
        <ele>572</ele>
        <time>2021-04-26T09:17:04Z</time>
      </trkpt>
      <trkpt lat="45.35814" lon="4.2053">
        <ele>575</ele>
        <time>2021-04-26T09:17:08Z</time>
      </trkpt>
      <trkpt lat="45.35808" lon="4.2054">
        <ele>576</ele>
        <time>2021-04-26T09:17:10Z</time>
      </trkpt>
      <trkpt lat="45.35798" lon="4.20549">
        <ele>577</ele>
        <time>2021-04-26T09:17:13Z</time>
      </trkpt>
      <trkpt lat="45.35795" lon="4.20553">
        <ele>577</ele>
        <time>2021-04-26T09:17:14Z</time>
      </trkpt>
      <trkpt lat="45.35792" lon="4.20557">
        <ele>577</ele>
        <time>2021-04-26T09:17:15Z</time>
      </trkpt>
      <trkpt lat="45.3579" lon="4.2056">
        <ele>578</ele>
        <time>2021-04-26T09:17:16Z</time>
      </trkpt>
      <trkpt lat="45.35787" lon="4.20563">
        <ele>578</ele>
        <time>2021-04-26T09:17:17Z</time>
      </trkpt>
      <trkpt lat="45.35784" lon="4.20565">
        <ele>578</ele>
        <time>2021-04-26T09:17:18Z</time>
      </trkpt>
      <trkpt lat="45.35782" lon="4.20567">
        <ele>579</ele>
        <time>2021-04-26T09:17:19Z</time>
      </trkpt>
      <trkpt lat="45.3578" lon="4.20568">
        <ele>580</ele>
        <time>2021-04-26T09:17:20Z</time>
      </trkpt>
      <trkpt lat="45.35777" lon="4.2057">
        <ele>580</ele>
        <time>2021-04-26T09:17:21Z</time>
      </trkpt>
      <trkpt lat="45.35774" lon="4.20572">
        <ele>580</ele>
        <time>2021-04-26T09:17:22Z</time>
      </trkpt>
      <trkpt lat="45.35771" lon="4.20574">
        <ele>581</ele>
        <time>2021-04-26T09:17:23Z</time>
      </trkpt>
      <trkpt lat="45.35769" lon="4.20575">
        <ele>581</ele>
        <time>2021-04-26T09:17:24Z</time>
      </trkpt>
      <trkpt lat="45.35766" lon="4.20576">
        <ele>581</ele>
        <time>2021-04-26T09:17:25Z</time>
      </trkpt>
      <trkpt lat="45.35764" lon="4.20577">
        <ele>582</ele>
        <time>2021-04-26T09:17:26Z</time>
      </trkpt>
      <trkpt lat="45.35754" lon="4.20584">
        <ele>583</ele>
        <time>2021-04-26T09:17:29Z</time>
      </trkpt>
      <trkpt lat="45.35751" lon="4.20586">
        <ele>583</ele>
        <time>2021-04-26T09:17:30Z</time>
      </trkpt>
      <trkpt lat="45.35748" lon="4.20589">
        <ele>583</ele>
        <time>2021-04-26T09:17:31Z</time>
      </trkpt>
      <trkpt lat="45.35746" lon="4.20592">
        <ele>584</ele>
        <time>2021-04-26T09:17:32Z</time>
      </trkpt>
      <trkpt lat="45.35743" lon="4.20595">
        <ele>584</ele>
        <time>2021-04-26T09:17:33Z</time>
      </trkpt>
      <trkpt lat="45.35741" lon="4.20598">
        <ele>584</ele>
        <time>2021-04-26T09:17:34Z</time>
      </trkpt>
      <trkpt lat="45.35738" lon="4.20601">
        <ele>585</ele>
        <time>2021-04-26T09:17:35Z</time>
      </trkpt>
      <trkpt lat="45.35736" lon="4.20604">
        <ele>585</ele>
        <time>2021-04-26T09:17:36Z</time>
      </trkpt>
      <trkpt lat="45.35734" lon="4.20607">
        <ele>585</ele>
        <time>2021-04-26T09:17:37Z</time>
      </trkpt>
      <trkpt lat="45.35731" lon="4.2061">
        <ele>586</ele>
        <time>2021-04-26T09:17:38Z</time>
      </trkpt>
      <trkpt lat="45.35729" lon="4.20614">
        <ele>586</ele>
        <time>2021-04-26T09:17:39Z</time>
      </trkpt>
      <trkpt lat="45.35727" lon="4.20618">
        <ele>587</ele>
        <time>2021-04-26T09:17:40Z</time>
      </trkpt>
      <trkpt lat="45.35725" lon="4.20622">
        <ele>587</ele>
        <time>2021-04-26T09:17:41Z</time>
      </trkpt>
      <trkpt lat="45.35723" lon="4.20625">
        <ele>587</ele>
        <time>2021-04-26T09:17:42Z</time>
      </trkpt>
      <trkpt lat="45.35722" lon="4.20629">
        <ele>588</ele>
        <time>2021-04-26T09:17:43Z</time>
      </trkpt>
      <trkpt lat="45.3572" lon="4.20633">
        <ele>588</ele>
        <time>2021-04-26T09:17:44Z</time>
      </trkpt>
      <trkpt lat="45.35719" lon="4.20637">
        <ele>588</ele>
        <time>2021-04-26T09:17:45Z</time>
      </trkpt>
      <trkpt lat="45.35718" lon="4.20641">
        <ele>588</ele>
        <time>2021-04-26T09:17:46Z</time>
      </trkpt>
      <trkpt lat="45.35717" lon="4.20645">
        <ele>588</ele>
        <time>2021-04-26T09:17:47Z</time>
      </trkpt>
      <trkpt lat="45.35715" lon="4.20649">
        <ele>589</ele>
        <time>2021-04-26T09:17:48Z</time>
      </trkpt>
      <trkpt lat="45.35714" lon="4.20653">
        <ele>589</ele>
        <time>2021-04-26T09:17:49Z</time>
      </trkpt>
      <trkpt lat="45.35713" lon="4.20657">
        <ele>589</ele>
        <time>2021-04-26T09:17:50Z</time>
      </trkpt>
      <trkpt lat="45.35712" lon="4.20662">
        <ele>590</ele>
        <time>2021-04-26T09:17:51Z</time>
      </trkpt>
      <trkpt lat="45.3571" lon="4.20666">
        <ele>590</ele>
        <time>2021-04-26T09:17:52Z</time>
      </trkpt>
      <trkpt lat="45.35709" lon="4.2067">
        <ele>590</ele>
        <time>2021-04-26T09:17:53Z</time>
      </trkpt>
      <trkpt lat="45.35708" lon="4.20674">
        <ele>591</ele>
        <time>2021-04-26T09:17:54Z</time>
      </trkpt>
      <trkpt lat="45.35707" lon="4.20679">
        <ele>591</ele>
        <time>2021-04-26T09:17:55Z</time>
      </trkpt>
      <trkpt lat="45.35705" lon="4.20683">
        <ele>591</ele>
        <time>2021-04-26T09:17:56Z</time>
      </trkpt>
      <trkpt lat="45.35704" lon="4.20688">
        <ele>591</ele>
        <time>2021-04-26T09:17:57Z</time>
      </trkpt>
      <trkpt lat="45.35702" lon="4.20692">
        <ele>592</ele>
        <time>2021-04-26T09:17:58Z</time>
      </trkpt>
      <trkpt lat="45.35698" lon="4.207">
        <ele>592</ele>
        <time>2021-04-26T09:17:59Z</time>
      </trkpt>
      <trkpt lat="45.35697" lon="4.20704">
        <ele>593</ele>
        <time>2021-04-26T09:18:01Z</time>
      </trkpt>
      <trkpt lat="45.35695" lon="4.20709">
        <ele>593</ele>
        <time>2021-04-26T09:18:02Z</time>
      </trkpt>
      <trkpt lat="45.35694" lon="4.20713">
        <ele>594</ele>
        <time>2021-04-26T09:18:03Z</time>
      </trkpt>
      <trkpt lat="45.35693" lon="4.20718">
        <ele>594</ele>
        <time>2021-04-26T09:18:04Z</time>
      </trkpt>
      <trkpt lat="45.35691" lon="4.20722">
        <ele>594</ele>
        <time>2021-04-26T09:18:05Z</time>
      </trkpt>
      <trkpt lat="45.35689" lon="4.20727">
        <ele>594</ele>
        <time>2021-04-26T09:18:06Z</time>
      </trkpt>
      <trkpt lat="45.35688" lon="4.20732">
        <ele>595</ele>
        <time>2021-04-26T09:18:07Z</time>
      </trkpt>
      <trkpt lat="45.35686" lon="4.20737">
        <ele>595</ele>
        <time>2021-04-26T09:18:08Z</time>
      </trkpt>
      <trkpt lat="45.35684" lon="4.20743">
        <ele>595</ele>
        <time>2021-04-26T09:18:09Z</time>
      </trkpt>
      <trkpt lat="45.35682" lon="4.20749">
        <ele>595</ele>
        <time>2021-04-26T09:18:10Z</time>
      </trkpt>
      <trkpt lat="45.3568" lon="4.20754">
        <ele>595</ele>
        <time>2021-04-26T09:18:11Z</time>
      </trkpt>
      <trkpt lat="45.35678" lon="4.2076">
        <ele>595</ele>
        <time>2021-04-26T09:18:12Z</time>
      </trkpt>
      <trkpt lat="45.35677" lon="4.20766">
        <ele>595</ele>
        <time>2021-04-26T09:18:13Z</time>
      </trkpt>
      <trkpt lat="45.35676" lon="4.20772">
        <ele>596</ele>
        <time>2021-04-26T09:18:14Z</time>
      </trkpt>
      <trkpt lat="45.35674" lon="4.20778">
        <ele>596</ele>
        <time>2021-04-26T09:18:15Z</time>
      </trkpt>
      <trkpt lat="45.35673" lon="4.20784">
        <ele>596</ele>
        <time>2021-04-26T09:18:16Z</time>
      </trkpt>
      <trkpt lat="45.35671" lon="4.2079">
        <ele>596</ele>
        <time>2021-04-26T09:18:17Z</time>
      </trkpt>
      <trkpt lat="45.3567" lon="4.20796">
        <ele>597</ele>
        <time>2021-04-26T09:18:18Z</time>
      </trkpt>
      <trkpt lat="45.35668" lon="4.20802">
        <ele>597</ele>
        <time>2021-04-26T09:18:19Z</time>
      </trkpt>
      <trkpt lat="45.35667" lon="4.20808">
        <ele>597</ele>
        <time>2021-04-26T09:18:20Z</time>
      </trkpt>
      <trkpt lat="45.35667" lon="4.20815">
        <ele>597</ele>
        <time>2021-04-26T09:18:21Z</time>
      </trkpt>
      <trkpt lat="45.35666" lon="4.20821">
        <ele>598</ele>
        <time>2021-04-26T09:18:22Z</time>
      </trkpt>
      <trkpt lat="45.35667" lon="4.20828">
        <ele>598</ele>
        <time>2021-04-26T09:18:23Z</time>
      </trkpt>
      <trkpt lat="45.35667" lon="4.20834">
        <ele>598</ele>
        <time>2021-04-26T09:18:24Z</time>
      </trkpt>
      <trkpt lat="45.35668" lon="4.2084">
        <ele>599</ele>
        <time>2021-04-26T09:18:25Z</time>
      </trkpt>
      <trkpt lat="45.35669" lon="4.20846">
        <ele>599</ele>
        <time>2021-04-26T09:18:26Z</time>
      </trkpt>
      <trkpt lat="45.35669" lon="4.20851">
        <ele>599</ele>
        <time>2021-04-26T09:18:27Z</time>
      </trkpt>
      <trkpt lat="45.3567" lon="4.20857">
        <ele>599</ele>
        <time>2021-04-26T09:18:28Z</time>
      </trkpt>
      <trkpt lat="45.35671" lon="4.20863">
        <ele>600</ele>
        <time>2021-04-26T09:18:29Z</time>
      </trkpt>
      <trkpt lat="45.35672" lon="4.20868">
        <ele>600</ele>
        <time>2021-04-26T09:18:30Z</time>
      </trkpt>
      <trkpt lat="45.35672" lon="4.20874">
        <ele>600</ele>
        <time>2021-04-26T09:18:31Z</time>
      </trkpt>
      <trkpt lat="45.35673" lon="4.2088">
        <ele>600</ele>
        <time>2021-04-26T09:18:32Z</time>
      </trkpt>
      <trkpt lat="45.35674" lon="4.20886">
        <ele>601</ele>
        <time>2021-04-26T09:18:33Z</time>
      </trkpt>
      <trkpt lat="45.35674" lon="4.20892">
        <ele>601</ele>
        <time>2021-04-26T09:18:34Z</time>
      </trkpt>
      <trkpt lat="45.35675" lon="4.20898">
        <ele>601</ele>
        <time>2021-04-26T09:18:35Z</time>
      </trkpt>
      <trkpt lat="45.35675" lon="4.20904">
        <ele>601</ele>
        <time>2021-04-26T09:18:36Z</time>
      </trkpt>
      <trkpt lat="45.35675" lon="4.2091">
        <ele>602</ele>
        <time>2021-04-26T09:18:37Z</time>
      </trkpt>
      <trkpt lat="45.35675" lon="4.20917">
        <ele>602</ele>
        <time>2021-04-26T09:18:38Z</time>
      </trkpt>
      <trkpt lat="45.35674" lon="4.20923">
        <ele>603</ele>
        <time>2021-04-26T09:18:39Z</time>
      </trkpt>
      <trkpt lat="45.35673" lon="4.20929">
        <ele>603</ele>
        <time>2021-04-26T09:18:40Z</time>
      </trkpt>
      <trkpt lat="45.3567" lon="4.20941">
        <ele>604</ele>
        <time>2021-04-26T09:18:41Z</time>
      </trkpt>
      <trkpt lat="45.35668" lon="4.20947">
        <ele>604</ele>
        <time>2021-04-26T09:18:43Z</time>
      </trkpt>
      <trkpt lat="45.35666" lon="4.20952">
        <ele>605</ele>
        <time>2021-04-26T09:18:44Z</time>
      </trkpt>
      <trkpt lat="45.35664" lon="4.20957">
        <ele>605</ele>
        <time>2021-04-26T09:18:45Z</time>
      </trkpt>
      <trkpt lat="45.35661" lon="4.20963">
        <ele>605</ele>
        <time>2021-04-26T09:18:46Z</time>
      </trkpt>
      <trkpt lat="45.35658" lon="4.20967">
        <ele>605</ele>
        <time>2021-04-26T09:18:47Z</time>
      </trkpt>
      <trkpt lat="45.35655" lon="4.20972">
        <ele>605</ele>
        <time>2021-04-26T09:18:48Z</time>
      </trkpt>
      <trkpt lat="45.35652" lon="4.20976">
        <ele>605</ele>
        <time>2021-04-26T09:18:49Z</time>
      </trkpt>
      <trkpt lat="45.35648" lon="4.2098">
        <ele>606</ele>
        <time>2021-04-26T09:18:50Z</time>
      </trkpt>
      <trkpt lat="45.35645" lon="4.20984">
        <ele>606</ele>
        <time>2021-04-26T09:18:51Z</time>
      </trkpt>
      <trkpt lat="45.35641" lon="4.20988">
        <ele>606</ele>
        <time>2021-04-26T09:18:52Z</time>
      </trkpt>
      <trkpt lat="45.35638" lon="4.20991">
        <ele>606</ele>
        <time>2021-04-26T09:18:53Z</time>
      </trkpt>
      <trkpt lat="45.35635" lon="4.20995">
        <ele>606</ele>
        <time>2021-04-26T09:18:54Z</time>
      </trkpt>
      <trkpt lat="45.35631" lon="4.20998">
        <ele>606</ele>
        <time>2021-04-26T09:18:55Z</time>
      </trkpt>
      <trkpt lat="45.35628" lon="4.21001">
        <ele>607</ele>
        <time>2021-04-26T09:18:56Z</time>
      </trkpt>
      <trkpt lat="45.35624" lon="4.21004">
        <ele>607</ele>
        <time>2021-04-26T09:18:57Z</time>
      </trkpt>
      <trkpt lat="45.3562" lon="4.21006">
        <ele>607</ele>
        <time>2021-04-26T09:18:58Z</time>
      </trkpt>
      <trkpt lat="45.35616" lon="4.21009">
        <ele>608</ele>
        <time>2021-04-26T09:18:59Z</time>
      </trkpt>
      <trkpt lat="45.35612" lon="4.21011">
        <ele>608</ele>
        <time>2021-04-26T09:19:00Z</time>
      </trkpt>
      <trkpt lat="45.35608" lon="4.21014">
        <ele>608</ele>
        <time>2021-04-26T09:19:01Z</time>
      </trkpt>
      <trkpt lat="45.35604" lon="4.21017">
        <ele>608</ele>
        <time>2021-04-26T09:19:02Z</time>
      </trkpt>
      <trkpt lat="45.356" lon="4.2102">
        <ele>609</ele>
        <time>2021-04-26T09:19:03Z</time>
      </trkpt>
      <trkpt lat="45.35597" lon="4.21023">
        <ele>609</ele>
        <time>2021-04-26T09:19:04Z</time>
      </trkpt>
      <trkpt lat="45.35594" lon="4.21027">
        <ele>609</ele>
        <time>2021-04-26T09:19:05Z</time>
      </trkpt>
      <trkpt lat="45.3559" lon="4.21031">
        <ele>610</ele>
        <time>2021-04-26T09:19:06Z</time>
      </trkpt>
      <trkpt lat="45.35587" lon="4.21035">
        <ele>610</ele>
        <time>2021-04-26T09:19:07Z</time>
      </trkpt>
      <trkpt lat="45.35584" lon="4.21039">
        <ele>610</ele>
        <time>2021-04-26T09:19:08Z</time>
      </trkpt>
      <trkpt lat="45.3558" lon="4.21043">
        <ele>610</ele>
        <time>2021-04-26T09:19:09Z</time>
      </trkpt>
      <trkpt lat="45.35577" lon="4.21046">
        <ele>611</ele>
        <time>2021-04-26T09:19:10Z</time>
      </trkpt>
      <trkpt lat="45.35573" lon="4.2105">
        <ele>611</ele>
        <time>2021-04-26T09:19:11Z</time>
      </trkpt>
      <trkpt lat="45.35569" lon="4.21055">
        <ele>612</ele>
        <time>2021-04-26T09:19:12Z</time>
      </trkpt>
      <trkpt lat="45.35566" lon="4.2106">
        <ele>612</ele>
        <time>2021-04-26T09:19:13Z</time>
      </trkpt>
      <trkpt lat="45.35564" lon="4.21065">
        <ele>612</ele>
        <time>2021-04-26T09:19:14Z</time>
      </trkpt>
      <trkpt lat="45.35562" lon="4.21071">
        <ele>613</ele>
        <time>2021-04-26T09:19:15Z</time>
      </trkpt>
      <trkpt lat="45.35561" lon="4.21078">
        <ele>613</ele>
        <time>2021-04-26T09:19:16Z</time>
      </trkpt>
      <trkpt lat="45.3556" lon="4.21084">
        <ele>613</ele>
        <time>2021-04-26T09:19:17Z</time>
      </trkpt>
      <trkpt lat="45.3556" lon="4.21091">
        <ele>613</ele>
        <time>2021-04-26T09:19:18Z</time>
      </trkpt>
      <trkpt lat="45.35559" lon="4.21097">
        <ele>613</ele>
        <time>2021-04-26T09:19:19Z</time>
      </trkpt>
      <trkpt lat="45.3556" lon="4.21104">
        <ele>613</ele>
        <time>2021-04-26T09:19:20Z</time>
      </trkpt>
      <trkpt lat="45.3556" lon="4.21111">
        <ele>614</ele>
        <time>2021-04-26T09:19:21Z</time>
      </trkpt>
      <trkpt lat="45.3556" lon="4.21119">
        <ele>614</ele>
        <time>2021-04-26T09:19:22Z</time>
      </trkpt>
      <trkpt lat="45.3556" lon="4.21126">
        <ele>614</ele>
        <time>2021-04-26T09:19:23Z</time>
      </trkpt>
      <trkpt lat="45.3556" lon="4.21133">
        <ele>614</ele>
        <time>2021-04-26T09:19:24Z</time>
      </trkpt>
      <trkpt lat="45.3556" lon="4.2114">
        <ele>614</ele>
        <time>2021-04-26T09:19:25Z</time>
      </trkpt>
      <trkpt lat="45.3556" lon="4.21147">
        <ele>614</ele>
        <time>2021-04-26T09:19:26Z</time>
      </trkpt>
      <trkpt lat="45.35559" lon="4.21154">
        <ele>614</ele>
        <time>2021-04-26T09:19:27Z</time>
      </trkpt>
      <trkpt lat="45.35558" lon="4.21159">
        <ele>614</ele>
        <time>2021-04-26T09:19:28Z</time>
      </trkpt>
      <trkpt lat="45.35557" lon="4.21165">
        <ele>614</ele>
        <time>2021-04-26T09:19:29Z</time>
      </trkpt>
      <trkpt lat="45.35555" lon="4.2117">
        <ele>614</ele>
        <time>2021-04-26T09:19:30Z</time>
      </trkpt>
      <trkpt lat="45.35554" lon="4.21176">
        <ele>615</ele>
        <time>2021-04-26T09:19:31Z</time>
      </trkpt>
      <trkpt lat="45.35552" lon="4.21181">
        <ele>615</ele>
        <time>2021-04-26T09:19:32Z</time>
      </trkpt>
      <trkpt lat="45.3555" lon="4.21187">
        <ele>615</ele>
        <time>2021-04-26T09:19:33Z</time>
      </trkpt>
      <trkpt lat="45.35548" lon="4.21192">
        <ele>615</ele>
        <time>2021-04-26T09:19:34Z</time>
      </trkpt>
      <trkpt lat="45.35545" lon="4.21198">
        <ele>616</ele>
        <time>2021-04-26T09:19:35Z</time>
      </trkpt>
      <trkpt lat="45.35543" lon="4.21203">
        <ele>616</ele>
        <time>2021-04-26T09:19:36Z</time>
      </trkpt>
      <trkpt lat="45.3554" lon="4.21207">
        <ele>616</ele>
        <time>2021-04-26T09:19:37Z</time>
      </trkpt>
      <trkpt lat="45.35537" lon="4.21212">
        <ele>616</ele>
        <time>2021-04-26T09:19:38Z</time>
      </trkpt>
      <trkpt lat="45.35535" lon="4.21216">
        <ele>616</ele>
        <time>2021-04-26T09:19:39Z</time>
      </trkpt>
      <trkpt lat="45.35532" lon="4.21221">
        <ele>617</ele>
        <time>2021-04-26T09:19:40Z</time>
      </trkpt>
      <trkpt lat="45.35529" lon="4.21225">
        <ele>617</ele>
        <time>2021-04-26T09:19:41Z</time>
      </trkpt>
      <trkpt lat="45.35527" lon="4.21231">
        <ele>617</ele>
        <time>2021-04-26T09:19:42Z</time>
      </trkpt>
      <trkpt lat="45.35525" lon="4.21236">
        <ele>617</ele>
        <time>2021-04-26T09:19:43Z</time>
      </trkpt>
      <trkpt lat="45.35523" lon="4.21242">
        <ele>617</ele>
        <time>2021-04-26T09:19:44Z</time>
      </trkpt>
      <trkpt lat="45.35521" lon="4.21247">
        <ele>617</ele>
        <time>2021-04-26T09:19:45Z</time>
      </trkpt>
      <trkpt lat="45.35518" lon="4.21251">
        <ele>617</ele>
        <time>2021-04-26T09:19:46Z</time>
      </trkpt>
      <trkpt lat="45.35514" lon="4.21255">
        <ele>618</ele>
        <time>2021-04-26T09:19:47Z</time>
      </trkpt>
      <trkpt lat="45.35511" lon="4.21259">
        <ele>618</ele>
        <time>2021-04-26T09:19:48Z</time>
      </trkpt>
      <trkpt lat="45.35507" lon="4.21263">
        <ele>618</ele>
        <time>2021-04-26T09:19:49Z</time>
      </trkpt>
      <trkpt lat="45.35504" lon="4.21266">
        <ele>619</ele>
        <time>2021-04-26T09:19:50Z</time>
      </trkpt>
      <trkpt lat="45.355" lon="4.2127">
        <ele>619</ele>
        <time>2021-04-26T09:19:51Z</time>
      </trkpt>
      <trkpt lat="45.35497" lon="4.21275">
        <ele>619</ele>
        <time>2021-04-26T09:19:52Z</time>
      </trkpt>
      <trkpt lat="45.35494" lon="4.2128">
        <ele>620</ele>
        <time>2021-04-26T09:19:53Z</time>
      </trkpt>
      <trkpt lat="45.35491" lon="4.21284">
        <ele>620</ele>
        <time>2021-04-26T09:19:54Z</time>
      </trkpt>
      <trkpt lat="45.35488" lon="4.21288">
        <ele>620</ele>
        <time>2021-04-26T09:19:55Z</time>
      </trkpt>
      <trkpt lat="45.35485" lon="4.21292">
        <ele>620</ele>
        <time>2021-04-26T09:19:56Z</time>
      </trkpt>
      <trkpt lat="45.35481" lon="4.21296">
        <ele>621</ele>
        <time>2021-04-26T09:19:57Z</time>
      </trkpt>
      <trkpt lat="45.35478" lon="4.213">
        <ele>621</ele>
        <time>2021-04-26T09:19:58Z</time>
      </trkpt>
      <trkpt lat="45.35475" lon="4.21304">
        <ele>621</ele>
        <time>2021-04-26T09:19:59Z</time>
      </trkpt>
      <trkpt lat="45.35472" lon="4.21308">
        <ele>621</ele>
        <time>2021-04-26T09:20:00Z</time>
      </trkpt>
      <trkpt lat="45.35469" lon="4.21312">
        <ele>621</ele>
        <time>2021-04-26T09:20:01Z</time>
      </trkpt>
      <trkpt lat="45.35465" lon="4.21315">
        <ele>622</ele>
        <time>2021-04-26T09:20:02Z</time>
      </trkpt>
      <trkpt lat="45.35462" lon="4.21319">
        <ele>622</ele>
        <time>2021-04-26T09:20:03Z</time>
      </trkpt>
      <trkpt lat="45.35458" lon="4.21322">
        <ele>622</ele>
        <time>2021-04-26T09:20:04Z</time>
      </trkpt>
      <trkpt lat="45.35454" lon="4.21325">
        <ele>622</ele>
        <time>2021-04-26T09:20:05Z</time>
      </trkpt>
      <trkpt lat="45.35451" lon="4.21328">
        <ele>622</ele>
        <time>2021-04-26T09:20:06Z</time>
      </trkpt>
      <trkpt lat="45.35447" lon="4.21331">
        <ele>623</ele>
        <time>2021-04-26T09:20:07Z</time>
      </trkpt>
      <trkpt lat="45.35443" lon="4.21335">
        <ele>623</ele>
        <time>2021-04-26T09:20:08Z</time>
      </trkpt>
      <trkpt lat="45.3544" lon="4.21338">
        <ele>623</ele>
        <time>2021-04-26T09:20:09Z</time>
      </trkpt>
      <trkpt lat="45.35436" lon="4.21341">
        <ele>623</ele>
        <time>2021-04-26T09:20:10Z</time>
      </trkpt>
      <trkpt lat="45.35432" lon="4.21344">
        <ele>623</ele>
        <time>2021-04-26T09:20:11Z</time>
      </trkpt>
      <trkpt lat="45.35428" lon="4.21346">
        <ele>624</ele>
        <time>2021-04-26T09:20:12Z</time>
      </trkpt>
      <trkpt lat="45.35423" lon="4.21348">
        <ele>624</ele>
        <time>2021-04-26T09:20:13Z</time>
      </trkpt>
      <trkpt lat="45.35419" lon="4.2135">
        <ele>624</ele>
        <time>2021-04-26T09:20:14Z</time>
      </trkpt>
      <trkpt lat="45.35414" lon="4.21351">
        <ele>624</ele>
        <time>2021-04-26T09:20:15Z</time>
      </trkpt>
      <trkpt lat="45.3541" lon="4.21352">
        <ele>625</ele>
        <time>2021-04-26T09:20:16Z</time>
      </trkpt>
      <trkpt lat="45.35405" lon="4.21354">
        <ele>625</ele>
        <time>2021-04-26T09:20:17Z</time>
      </trkpt>
      <trkpt lat="45.35401" lon="4.21355">
        <ele>625</ele>
        <time>2021-04-26T09:20:18Z</time>
      </trkpt>
      <trkpt lat="45.35397" lon="4.21356">
        <ele>625</ele>
        <time>2021-04-26T09:20:19Z</time>
      </trkpt>
      <trkpt lat="45.35392" lon="4.21357">
        <ele>626</ele>
        <time>2021-04-26T09:20:20Z</time>
      </trkpt>
      <trkpt lat="45.35388" lon="4.21358">
        <ele>626</ele>
        <time>2021-04-26T09:20:21Z</time>
      </trkpt>
      <trkpt lat="45.35385" lon="4.21358">
        <ele>626</ele>
        <time>2021-04-26T09:20:22Z</time>
      </trkpt>
      <trkpt lat="45.35381" lon="4.21359">
        <ele>627</ele>
        <time>2021-04-26T09:20:23Z</time>
      </trkpt>
      <trkpt lat="45.35377" lon="4.2136">
        <ele>627</ele>
        <time>2021-04-26T09:20:24Z</time>
      </trkpt>
      <trkpt lat="45.35374" lon="4.2136">
        <ele>627</ele>
        <time>2021-04-26T09:20:25Z</time>
      </trkpt>
      <trkpt lat="45.3537" lon="4.21361">
        <ele>627</ele>
        <time>2021-04-26T09:20:26Z</time>
      </trkpt>
      <trkpt lat="45.35366" lon="4.21361">
        <ele>627</ele>
        <time>2021-04-26T09:20:27Z</time>
      </trkpt>
      <trkpt lat="45.35362" lon="4.21362">
        <ele>627</ele>
        <time>2021-04-26T09:20:28Z</time>
      </trkpt>
      <trkpt lat="45.35358" lon="4.21362">
        <ele>627</ele>
        <time>2021-04-26T09:20:29Z</time>
      </trkpt>
      <trkpt lat="45.35353" lon="4.21363">
        <ele>628</ele>
        <time>2021-04-26T09:20:30Z</time>
      </trkpt>
      <trkpt lat="45.35348" lon="4.21365">
        <ele>628</ele>
        <time>2021-04-26T09:20:31Z</time>
      </trkpt>
      <trkpt lat="45.35344" lon="4.21366">
        <ele>628</ele>
        <time>2021-04-26T09:20:32Z</time>
      </trkpt>
      <trkpt lat="45.35339" lon="4.21367">
        <ele>628</ele>
        <time>2021-04-26T09:20:33Z</time>
      </trkpt>
      <trkpt lat="45.35334" lon="4.21368">
        <ele>628</ele>
        <time>2021-04-26T09:20:34Z</time>
      </trkpt>
      <trkpt lat="45.35331" lon="4.21369">
        <ele>629</ele>
        <time>2021-04-26T09:20:35Z</time>
      </trkpt>
      <trkpt lat="45.35328" lon="4.21369">
        <ele>630</ele>
        <time>2021-04-26T09:20:36Z</time>
      </trkpt>
      <trkpt lat="45.35326" lon="4.2137">
        <ele>631</ele>
        <time>2021-04-26T09:20:37Z</time>
      </trkpt>
      <trkpt lat="45.35326" lon="4.21374">
        <ele>632</ele>
        <time>2021-04-26T09:20:40Z</time>
      </trkpt>
      <trkpt lat="45.35327" lon="4.21375">
        <ele>632</ele>
        <time>2021-04-26T09:20:41Z</time>
      </trkpt>
      <trkpt lat="45.3533" lon="4.21376">
        <ele>632</ele>
        <time>2021-04-26T09:20:42Z</time>
      </trkpt>
      <trkpt lat="45.35333" lon="4.21377">
        <ele>632</ele>
        <time>2021-04-26T09:20:43Z</time>
      </trkpt>
      <trkpt lat="45.35336" lon="4.21379">
        <ele>633</ele>
        <time>2021-04-26T09:20:44Z</time>
      </trkpt>
      <trkpt lat="45.35339" lon="4.21382">
        <ele>633</ele>
        <time>2021-04-26T09:20:45Z</time>
      </trkpt>
      <trkpt lat="45.35342" lon="4.21385">
        <ele>634</ele>
        <time>2021-04-26T09:20:46Z</time>
      </trkpt>
      <trkpt lat="45.35345" lon="4.21388">
        <ele>634</ele>
        <time>2021-04-26T09:20:47Z</time>
      </trkpt>
      <trkpt lat="45.35348" lon="4.21391">
        <ele>634</ele>
        <time>2021-04-26T09:20:48Z</time>
      </trkpt>
      <trkpt lat="45.35351" lon="4.21394">
        <ele>634</ele>
        <time>2021-04-26T09:20:49Z</time>
      </trkpt>
      <trkpt lat="45.35354" lon="4.21397">
        <ele>634</ele>
        <time>2021-04-26T09:20:50Z</time>
      </trkpt>
      <trkpt lat="45.35358" lon="4.214">
        <ele>634</ele>
        <time>2021-04-26T09:20:51Z</time>
      </trkpt>
      <trkpt lat="45.35361" lon="4.21404">
        <ele>635</ele>
        <time>2021-04-26T09:20:52Z</time>
      </trkpt>
      <trkpt lat="45.35363" lon="4.21408">
        <ele>635</ele>
        <time>2021-04-26T09:20:53Z</time>
      </trkpt>
      <trkpt lat="45.35366" lon="4.21412">
        <ele>635</ele>
        <time>2021-04-26T09:20:54Z</time>
      </trkpt>
      <trkpt lat="45.35368" lon="4.21416">
        <ele>636</ele>
        <time>2021-04-26T09:20:55Z</time>
      </trkpt>
      <trkpt lat="45.35371" lon="4.2142">
        <ele>636</ele>
        <time>2021-04-26T09:20:56Z</time>
      </trkpt>
      <trkpt lat="45.35373" lon="4.21425">
        <ele>636</ele>
        <time>2021-04-26T09:20:57Z</time>
      </trkpt>
      <trkpt lat="45.35376" lon="4.21429">
        <ele>637</ele>
        <time>2021-04-26T09:20:58Z</time>
      </trkpt>
      <trkpt lat="45.35378" lon="4.21434">
        <ele>637</ele>
        <time>2021-04-26T09:20:59Z</time>
      </trkpt>
      <trkpt lat="45.35381" lon="4.21438">
        <ele>637</ele>
        <time>2021-04-26T09:21:00Z</time>
      </trkpt>
      <trkpt lat="45.35384" lon="4.21443">
        <ele>637</ele>
        <time>2021-04-26T09:21:01Z</time>
      </trkpt>
      <trkpt lat="45.35387" lon="4.21447">
        <ele>637</ele>
        <time>2021-04-26T09:21:02Z</time>
      </trkpt>
      <trkpt lat="45.3539" lon="4.21452">
        <ele>638</ele>
        <time>2021-04-26T09:21:03Z</time>
      </trkpt>
      <trkpt lat="45.35394" lon="4.21457">
        <ele>638</ele>
        <time>2021-04-26T09:21:04Z</time>
      </trkpt>
      <trkpt lat="45.35397" lon="4.21462">
        <ele>638</ele>
        <time>2021-04-26T09:21:05Z</time>
      </trkpt>
      <trkpt lat="45.354" lon="4.21467">
        <ele>638</ele>
        <time>2021-04-26T09:21:06Z</time>
      </trkpt>
      <trkpt lat="45.35403" lon="4.21473">
        <ele>638</ele>
        <time>2021-04-26T09:21:07Z</time>
      </trkpt>
      <trkpt lat="45.35406" lon="4.2148">
        <ele>638</ele>
        <time>2021-04-26T09:21:08Z</time>
      </trkpt>
      <trkpt lat="45.35408" lon="4.21486">
        <ele>638</ele>
        <time>2021-04-26T09:21:09Z</time>
      </trkpt>
      <trkpt lat="45.35409" lon="4.21493">
        <ele>638</ele>
        <time>2021-04-26T09:21:10Z</time>
      </trkpt>
      <trkpt lat="45.3541" lon="4.21499">
        <ele>638</ele>
        <time>2021-04-26T09:21:11Z</time>
      </trkpt>
      <trkpt lat="45.35411" lon="4.21505">
        <ele>638</ele>
        <time>2021-04-26T09:21:12Z</time>
      </trkpt>
      <trkpt lat="45.35412" lon="4.2151">
        <ele>638</ele>
        <time>2021-04-26T09:21:13Z</time>
      </trkpt>
      <trkpt lat="45.35414" lon="4.21516">
        <ele>638</ele>
        <time>2021-04-26T09:21:14Z</time>
      </trkpt>
      <trkpt lat="45.35415" lon="4.21523">
        <ele>638</ele>
        <time>2021-04-26T09:21:15Z</time>
      </trkpt>
      <trkpt lat="45.35416" lon="4.2153">
        <ele>638</ele>
        <time>2021-04-26T09:21:16Z</time>
      </trkpt>
      <trkpt lat="45.35418" lon="4.21538">
        <ele>638</ele>
        <time>2021-04-26T09:21:17Z</time>
      </trkpt>
      <trkpt lat="45.3542" lon="4.21543">
        <ele>638</ele>
        <time>2021-04-26T09:21:18Z</time>
      </trkpt>
      <trkpt lat="45.35422" lon="4.21546">
        <ele>638</ele>
        <time>2021-04-26T09:21:19Z</time>
      </trkpt>
      <trkpt lat="45.35423" lon="4.2155">
        <ele>638</ele>
        <time>2021-04-26T09:21:21Z</time>
      </trkpt>
      <trkpt lat="45.35424" lon="4.21553">
        <ele>638</ele>
        <time>2021-04-26T09:21:22Z</time>
      </trkpt>
      <trkpt lat="45.35425" lon="4.21555">
        <ele>638</ele>
        <time>2021-04-26T09:21:23Z</time>
      </trkpt>
      <trkpt lat="45.35427" lon="4.21559">
        <ele>638</ele>
        <time>2021-04-26T09:21:24Z</time>
      </trkpt>
      <trkpt lat="45.35428" lon="4.21562">
        <ele>639</ele>
        <time>2021-04-26T09:21:25Z</time>
      </trkpt>
      <trkpt lat="45.35429" lon="4.21566">
        <ele>639</ele>
        <time>2021-04-26T09:21:26Z</time>
      </trkpt>
      <trkpt lat="45.35429" lon="4.21571">
        <ele>639</ele>
        <time>2021-04-26T09:21:27Z</time>
      </trkpt>
      <trkpt lat="45.35429" lon="4.21576">
        <ele>639</ele>
        <time>2021-04-26T09:21:28Z</time>
      </trkpt>
      <trkpt lat="45.3543" lon="4.2158">
        <ele>639</ele>
        <time>2021-04-26T09:21:29Z</time>
      </trkpt>
      <trkpt lat="45.35431" lon="4.21584">
        <ele>639</ele>
        <time>2021-04-26T09:21:30Z</time>
      </trkpt>
      <trkpt lat="45.35432" lon="4.21588">
        <ele>639</ele>
        <time>2021-04-26T09:21:31Z</time>
      </trkpt>
      <trkpt lat="45.35433" lon="4.21591">
        <ele>639</ele>
        <time>2021-04-26T09:21:32Z</time>
      </trkpt>
      <trkpt lat="45.35435" lon="4.21595">
        <ele>640</ele>
        <time>2021-04-26T09:21:33Z</time>
      </trkpt>
      <trkpt lat="45.35436" lon="4.21598">
        <ele>640</ele>
        <time>2021-04-26T09:21:34Z</time>
      </trkpt>
      <trkpt lat="45.35438" lon="4.21602">
        <ele>640</ele>
        <time>2021-04-26T09:21:35Z</time>
      </trkpt>
      <trkpt lat="45.35438" lon="4.21606">
        <ele>641</ele>
        <time>2021-04-26T09:21:36Z</time>
      </trkpt>
      <trkpt lat="45.35439" lon="4.2161">
        <ele>641</ele>
        <time>2021-04-26T09:21:37Z</time>
      </trkpt>
      <trkpt lat="45.3544" lon="4.21614">
        <ele>641</ele>
        <time>2021-04-26T09:21:38Z</time>
      </trkpt>
      <trkpt lat="45.35443" lon="4.21623">
        <ele>641</ele>
        <time>2021-04-26T09:21:40Z</time>
      </trkpt>
      <trkpt lat="45.35445" lon="4.21627">
        <ele>642</ele>
        <time>2021-04-26T09:21:41Z</time>
      </trkpt>
      <trkpt lat="45.35446" lon="4.21632">
        <ele>642</ele>
        <time>2021-04-26T09:21:42Z</time>
      </trkpt>
      <trkpt lat="45.35447" lon="4.21636">
        <ele>642</ele>
        <time>2021-04-26T09:21:43Z</time>
      </trkpt>
      <trkpt lat="45.35449" lon="4.21641">
        <ele>642</ele>
        <time>2021-04-26T09:21:44Z</time>
      </trkpt>
      <trkpt lat="45.3545" lon="4.21646">
        <ele>643</ele>
        <time>2021-04-26T09:21:45Z</time>
      </trkpt>
      <trkpt lat="45.35452" lon="4.21651">
        <ele>643</ele>
        <time>2021-04-26T09:21:46Z</time>
      </trkpt>
      <trkpt lat="45.35453" lon="4.21656">
        <ele>643</ele>
        <time>2021-04-26T09:21:47Z</time>
      </trkpt>
      <trkpt lat="45.35454" lon="4.2166">
        <ele>644</ele>
        <time>2021-04-26T09:21:48Z</time>
      </trkpt>
      <trkpt lat="45.35456" lon="4.21673">
        <ele>645</ele>
        <time>2021-04-26T09:21:51Z</time>
      </trkpt>
      <trkpt lat="45.35459" lon="4.21691">
        <ele>646</ele>
        <time>2021-04-26T09:21:55Z</time>
      </trkpt>
      <trkpt lat="45.35464" lon="4.21705">
        <ele>647</ele>
        <time>2021-04-26T09:21:58Z</time>
      </trkpt>
      <trkpt lat="45.35469" lon="4.21721">
        <ele>647</ele>
        <time>2021-04-26T09:22:01Z</time>
      </trkpt>
      <trkpt lat="45.35472" lon="4.21738">
        <ele>648</ele>
        <time>2021-04-26T09:22:04Z</time>
      </trkpt>
      <trkpt lat="45.35476" lon="4.21754">
        <ele>649</ele>
        <time>2021-04-26T09:22:07Z</time>
      </trkpt>
      <trkpt lat="45.35477" lon="4.21759">
        <ele>649</ele>
        <time>2021-04-26T09:22:08Z</time>
      </trkpt>
      <trkpt lat="45.35478" lon="4.21764">
        <ele>649</ele>
        <time>2021-04-26T09:22:09Z</time>
      </trkpt>
      <trkpt lat="45.35478" lon="4.21769">
        <ele>650</ele>
        <time>2021-04-26T09:22:10Z</time>
      </trkpt>
      <trkpt lat="45.35478" lon="4.21773">
        <ele>650</ele>
        <time>2021-04-26T09:22:11Z</time>
      </trkpt>
      <trkpt lat="45.35477" lon="4.21776">
        <ele>650</ele>
        <time>2021-04-26T09:22:12Z</time>
      </trkpt>
      <trkpt lat="45.35478" lon="4.21793">
        <ele>651</ele>
        <time>2021-04-26T09:22:15Z</time>
      </trkpt>
      <trkpt lat="45.35479" lon="4.21801">
        <ele>651</ele>
        <time>2021-04-26T09:22:16Z</time>
      </trkpt>
      <trkpt lat="45.3548" lon="4.21808">
        <ele>651</ele>
        <time>2021-04-26T09:22:17Z</time>
      </trkpt>
      <trkpt lat="45.35481" lon="4.21815">
        <ele>651</ele>
        <time>2021-04-26T09:22:18Z</time>
      </trkpt>
      <trkpt lat="45.35482" lon="4.21822">
        <ele>652</ele>
        <time>2021-04-26T09:22:19Z</time>
      </trkpt>
      <trkpt lat="45.35483" lon="4.21828">
        <ele>653</ele>
        <time>2021-04-26T09:22:20Z</time>
      </trkpt>
      <trkpt lat="45.35484" lon="4.21834">
        <ele>653</ele>
        <time>2021-04-26T09:22:21Z</time>
      </trkpt>
      <trkpt lat="45.35485" lon="4.2184">
        <ele>653</ele>
        <time>2021-04-26T09:22:22Z</time>
      </trkpt>
      <trkpt lat="45.35487" lon="4.21846">
        <ele>653</ele>
        <time>2021-04-26T09:22:23Z</time>
      </trkpt>
      <trkpt lat="45.35487" lon="4.21853">
        <ele>654</ele>
        <time>2021-04-26T09:22:24Z</time>
      </trkpt>
      <trkpt lat="45.35488" lon="4.21859">
        <ele>654</ele>
        <time>2021-04-26T09:22:25Z</time>
      </trkpt>
      <trkpt lat="45.35489" lon="4.21865">
        <ele>654</ele>
        <time>2021-04-26T09:22:26Z</time>
      </trkpt>
      <trkpt lat="45.3549" lon="4.21872">
        <ele>655</ele>
        <time>2021-04-26T09:22:27Z</time>
      </trkpt>
      <trkpt lat="45.35491" lon="4.21878">
        <ele>655</ele>
        <time>2021-04-26T09:22:28Z</time>
      </trkpt>
      <trkpt lat="45.35492" lon="4.21884">
        <ele>655</ele>
        <time>2021-04-26T09:22:29Z</time>
      </trkpt>
      <trkpt lat="45.35492" lon="4.2189">
        <ele>656</ele>
        <time>2021-04-26T09:22:30Z</time>
      </trkpt>
      <trkpt lat="45.35493" lon="4.21897">
        <ele>656</ele>
        <time>2021-04-26T09:22:31Z</time>
      </trkpt>
      <trkpt lat="45.35494" lon="4.21903">
        <ele>656</ele>
        <time>2021-04-26T09:22:32Z</time>
      </trkpt>
      <trkpt lat="45.35495" lon="4.21909">
        <ele>656</ele>
        <time>2021-04-26T09:22:33Z</time>
      </trkpt>
      <trkpt lat="45.35497" lon="4.21915">
        <ele>656</ele>
        <time>2021-04-26T09:22:34Z</time>
      </trkpt>
      <trkpt lat="45.35498" lon="4.21921">
        <ele>656</ele>
        <time>2021-04-26T09:22:35Z</time>
      </trkpt>
      <trkpt lat="45.35499" lon="4.21926">
        <ele>657</ele>
        <time>2021-04-26T09:22:36Z</time>
      </trkpt>
      <trkpt lat="45.355" lon="4.21932">
        <ele>657</ele>
        <time>2021-04-26T09:22:37Z</time>
      </trkpt>
      <trkpt lat="45.355" lon="4.21936">
        <ele>658</ele>
        <time>2021-04-26T09:22:38Z</time>
      </trkpt>
      <trkpt lat="45.35501" lon="4.21942">
        <ele>659</ele>
        <time>2021-04-26T09:22:39Z</time>
      </trkpt>
      <trkpt lat="45.35501" lon="4.21947">
        <ele>659</ele>
        <time>2021-04-26T09:22:40Z</time>
      </trkpt>
      <trkpt lat="45.35501" lon="4.21952">
        <ele>659</ele>
        <time>2021-04-26T09:22:41Z</time>
      </trkpt>
      <trkpt lat="45.35501" lon="4.21958">
        <ele>660</ele>
        <time>2021-04-26T09:22:42Z</time>
      </trkpt>
      <trkpt lat="45.35501" lon="4.21964">
        <ele>660</ele>
        <time>2021-04-26T09:22:43Z</time>
      </trkpt>
      <trkpt lat="45.355" lon="4.2197">
        <ele>660</ele>
        <time>2021-04-26T09:22:44Z</time>
      </trkpt>
      <trkpt lat="45.35499" lon="4.21976">
        <ele>660</ele>
        <time>2021-04-26T09:22:45Z</time>
      </trkpt>
      <trkpt lat="45.35497" lon="4.21981">
        <ele>660</ele>
        <time>2021-04-26T09:22:46Z</time>
      </trkpt>
      <trkpt lat="45.35497" lon="4.21987">
        <ele>660</ele>
        <time>2021-04-26T09:22:47Z</time>
      </trkpt>
      <trkpt lat="45.35496" lon="4.21993">
        <ele>661</ele>
        <time>2021-04-26T09:22:48Z</time>
      </trkpt>
      <trkpt lat="45.35495" lon="4.21999">
        <ele>661</ele>
        <time>2021-04-26T09:22:49Z</time>
      </trkpt>
      <trkpt lat="45.35495" lon="4.22005">
        <ele>661</ele>
        <time>2021-04-26T09:22:50Z</time>
      </trkpt>
      <trkpt lat="45.35495" lon="4.22011">
        <ele>661</ele>
        <time>2021-04-26T09:22:51Z</time>
      </trkpt>
      <trkpt lat="45.35496" lon="4.22016">
        <ele>661</ele>
        <time>2021-04-26T09:22:52Z</time>
      </trkpt>
      <trkpt lat="45.35497" lon="4.22022">
        <ele>661</ele>
        <time>2021-04-26T09:22:53Z</time>
      </trkpt>
      <trkpt lat="45.35498" lon="4.22028">
        <ele>661</ele>
        <time>2021-04-26T09:22:54Z</time>
      </trkpt>
      <trkpt lat="45.355" lon="4.22035">
        <ele>661</ele>
        <time>2021-04-26T09:22:55Z</time>
      </trkpt>
      <trkpt lat="45.35501" lon="4.22041">
        <ele>661</ele>
        <time>2021-04-26T09:22:56Z</time>
      </trkpt>
      <trkpt lat="45.35501" lon="4.22047">
        <ele>662</ele>
        <time>2021-04-26T09:22:57Z</time>
      </trkpt>
      <trkpt lat="45.35501" lon="4.22051">
        <ele>662</ele>
        <time>2021-04-26T09:22:58Z</time>
      </trkpt>
      <trkpt lat="45.35501" lon="4.22055">
        <ele>662</ele>
        <time>2021-04-26T09:22:59Z</time>
      </trkpt>
      <trkpt lat="45.35502" lon="4.22058">
        <ele>662</ele>
        <time>2021-04-26T09:23:01Z</time>
      </trkpt>
      <trkpt lat="45.35502" lon="4.22062">
        <ele>663</ele>
        <time>2021-04-26T09:23:02Z</time>
      </trkpt>
      <trkpt lat="45.35503" lon="4.22067">
        <ele>663</ele>
        <time>2021-04-26T09:23:03Z</time>
      </trkpt>
      <trkpt lat="45.35504" lon="4.22073">
        <ele>663</ele>
        <time>2021-04-26T09:23:04Z</time>
      </trkpt>
      <trkpt lat="45.35505" lon="4.22079">
        <ele>663</ele>
        <time>2021-04-26T09:23:05Z</time>
      </trkpt>
      <trkpt lat="45.35506" lon="4.22085">
        <ele>663</ele>
        <time>2021-04-26T09:23:06Z</time>
      </trkpt>
      <trkpt lat="45.35507" lon="4.2209">
        <ele>664</ele>
        <time>2021-04-26T09:23:07Z</time>
      </trkpt>
      <trkpt lat="45.35508" lon="4.22096">
        <ele>664</ele>
        <time>2021-04-26T09:23:08Z</time>
      </trkpt>
      <trkpt lat="45.3551" lon="4.22102">
        <ele>664</ele>
        <time>2021-04-26T09:23:09Z</time>
      </trkpt>
      <trkpt lat="45.35511" lon="4.22107">
        <ele>664</ele>
        <time>2021-04-26T09:23:10Z</time>
      </trkpt>
      <trkpt lat="45.35513" lon="4.22113">
        <ele>664</ele>
        <time>2021-04-26T09:23:11Z</time>
      </trkpt>
      <trkpt lat="45.35514" lon="4.22118">
        <ele>664</ele>
        <time>2021-04-26T09:23:12Z</time>
      </trkpt>
      <trkpt lat="45.35516" lon="4.22123">
        <ele>664</ele>
        <time>2021-04-26T09:23:13Z</time>
      </trkpt>
      <trkpt lat="45.35517" lon="4.22128">
        <ele>665</ele>
        <time>2021-04-26T09:23:14Z</time>
      </trkpt>
      <trkpt lat="45.35518" lon="4.22134">
        <ele>665</ele>
        <time>2021-04-26T09:23:15Z</time>
      </trkpt>
      <trkpt lat="45.3552" lon="4.22139">
        <ele>665</ele>
        <time>2021-04-26T09:23:16Z</time>
      </trkpt>
      <trkpt lat="45.35522" lon="4.22144">
        <ele>665</ele>
        <time>2021-04-26T09:23:17Z</time>
      </trkpt>
      <trkpt lat="45.35523" lon="4.2215">
        <ele>665</ele>
        <time>2021-04-26T09:23:18Z</time>
      </trkpt>
      <trkpt lat="45.35525" lon="4.22155">
        <ele>665</ele>
        <time>2021-04-26T09:23:19Z</time>
      </trkpt>
      <trkpt lat="45.35526" lon="4.2216">
        <ele>665</ele>
        <time>2021-04-26T09:23:20Z</time>
      </trkpt>
      <trkpt lat="45.35528" lon="4.22166">
        <ele>666</ele>
        <time>2021-04-26T09:23:21Z</time>
      </trkpt>
      <trkpt lat="45.35531" lon="4.22172">
        <ele>666</ele>
        <time>2021-04-26T09:23:22Z</time>
      </trkpt>
      <trkpt lat="45.35532" lon="4.22178">
        <ele>666</ele>
        <time>2021-04-26T09:23:23Z</time>
      </trkpt>
      <trkpt lat="45.35534" lon="4.22183">
        <ele>666</ele>
        <time>2021-04-26T09:23:24Z</time>
      </trkpt>
      <trkpt lat="45.35536" lon="4.22189">
        <ele>666</ele>
        <time>2021-04-26T09:23:25Z</time>
      </trkpt>
      <trkpt lat="45.35538" lon="4.22195">
        <ele>666</ele>
        <time>2021-04-26T09:23:26Z</time>
      </trkpt>
      <trkpt lat="45.3554" lon="4.22201">
        <ele>667</ele>
        <time>2021-04-26T09:23:27Z</time>
      </trkpt>
      <trkpt lat="45.35542" lon="4.22207">
        <ele>667</ele>
        <time>2021-04-26T09:23:28Z</time>
      </trkpt>
      <trkpt lat="45.35543" lon="4.22214">
        <ele>667</ele>
        <time>2021-04-26T09:23:29Z</time>
      </trkpt>
      <trkpt lat="45.35545" lon="4.2222">
        <ele>667</ele>
        <time>2021-04-26T09:23:30Z</time>
      </trkpt>
      <trkpt lat="45.35546" lon="4.22225">
        <ele>667</ele>
        <time>2021-04-26T09:23:31Z</time>
      </trkpt>
      <trkpt lat="45.35546" lon="4.2223">
        <ele>668</ele>
        <time>2021-04-26T09:23:32Z</time>
      </trkpt>
      <trkpt lat="45.35547" lon="4.22236">
        <ele>669</ele>
        <time>2021-04-26T09:23:33Z</time>
      </trkpt>
      <trkpt lat="45.35547" lon="4.2224">
        <ele>669</ele>
        <time>2021-04-26T09:23:34Z</time>
      </trkpt>
      <trkpt lat="45.35547" lon="4.22245">
        <ele>670</ele>
        <time>2021-04-26T09:23:35Z</time>
      </trkpt>
      <trkpt lat="45.35547" lon="4.22249">
        <ele>670</ele>
        <time>2021-04-26T09:23:36Z</time>
      </trkpt>
      <trkpt lat="45.35547" lon="4.22253">
        <ele>670</ele>
        <time>2021-04-26T09:23:37Z</time>
      </trkpt>
      <trkpt lat="45.35546" lon="4.22256">
        <ele>670</ele>
        <time>2021-04-26T09:23:38Z</time>
      </trkpt>
      <trkpt lat="45.35546" lon="4.22259">
        <ele>671</ele>
        <time>2021-04-26T09:23:40Z</time>
      </trkpt>
      <trkpt lat="45.35546" lon="4.2226">
        <ele>672</ele>
        <time>2021-04-26T09:23:44Z</time>
      </trkpt>
      <trkpt lat="45.35543" lon="4.22264">
        <ele>673</ele>
        <time>2021-04-26T09:26:44Z</time>
      </trkpt>
      <trkpt lat="45.35543" lon="4.22267">
        <ele>673</ele>
        <time>2021-04-26T09:26:45Z</time>
      </trkpt>
      <trkpt lat="45.35541" lon="4.2227">
        <ele>674</ele>
        <time>2021-04-26T09:26:46Z</time>
      </trkpt>
      <trkpt lat="45.3554" lon="4.22273">
        <ele>674</ele>
        <time>2021-04-26T09:26:48Z</time>
      </trkpt>
      <trkpt lat="45.35538" lon="4.22277">
        <ele>674</ele>
        <time>2021-04-26T09:26:49Z</time>
      </trkpt>
      <trkpt lat="45.35536" lon="4.2228">
        <ele>674</ele>
        <time>2021-04-26T09:26:50Z</time>
      </trkpt>
      <trkpt lat="45.35533" lon="4.22284">
        <ele>674</ele>
        <time>2021-04-26T09:26:51Z</time>
      </trkpt>
      <trkpt lat="45.3553" lon="4.22287">
        <ele>674</ele>
        <time>2021-04-26T09:26:52Z</time>
      </trkpt>
      <trkpt lat="45.35528" lon="4.2229">
        <ele>674</ele>
        <time>2021-04-26T09:26:53Z</time>
      </trkpt>
      <trkpt lat="45.35525" lon="4.22294">
        <ele>674</ele>
        <time>2021-04-26T09:26:54Z</time>
      </trkpt>
      <trkpt lat="45.35522" lon="4.22297">
        <ele>674</ele>
        <time>2021-04-26T09:26:55Z</time>
      </trkpt>
      <trkpt lat="45.35518" lon="4.223">
        <ele>674</ele>
        <time>2021-04-26T09:26:56Z</time>
      </trkpt>
      <trkpt lat="45.35514" lon="4.22302">
        <ele>674</ele>
        <time>2021-04-26T09:26:57Z</time>
      </trkpt>
      <trkpt lat="45.3551" lon="4.22304">
        <ele>674</ele>
        <time>2021-04-26T09:26:58Z</time>
      </trkpt>
      <trkpt lat="45.35506" lon="4.22304">
        <ele>674</ele>
        <time>2021-04-26T09:26:59Z</time>
      </trkpt>
      <trkpt lat="45.35501" lon="4.22305">
        <ele>674</ele>
        <time>2021-04-26T09:27:00Z</time>
      </trkpt>
      <trkpt lat="45.35497" lon="4.22305">
        <ele>674</ele>
        <time>2021-04-26T09:27:01Z</time>
      </trkpt>
      <trkpt lat="45.35493" lon="4.22305">
        <ele>674</ele>
        <time>2021-04-26T09:27:02Z</time>
      </trkpt>
      <trkpt lat="45.35489" lon="4.22304">
        <ele>674</ele>
        <time>2021-04-26T09:27:03Z</time>
      </trkpt>
      <trkpt lat="45.35485" lon="4.22304">
        <ele>674</ele>
        <time>2021-04-26T09:27:04Z</time>
      </trkpt>
      <trkpt lat="45.35481" lon="4.22303">
        <ele>674</ele>
        <time>2021-04-26T09:27:05Z</time>
      </trkpt>
      <trkpt lat="45.35478" lon="4.22303">
        <ele>674</ele>
        <time>2021-04-26T09:27:06Z</time>
      </trkpt>
      <trkpt lat="45.35475" lon="4.22302">
        <ele>674</ele>
        <time>2021-04-26T09:27:07Z</time>
      </trkpt>
      <trkpt lat="45.35472" lon="4.22302">
        <ele>674</ele>
        <time>2021-04-26T09:27:08Z</time>
      </trkpt>
      <trkpt lat="45.35469" lon="4.22301">
        <ele>674</ele>
        <time>2021-04-26T09:27:09Z</time>
      </trkpt>
      <trkpt lat="45.35466" lon="4.22301">
        <ele>675</ele>
        <time>2021-04-26T09:27:10Z</time>
      </trkpt>
      <trkpt lat="45.35462" lon="4.223">
        <ele>675</ele>
        <time>2021-04-26T09:27:11Z</time>
      </trkpt>
      <trkpt lat="45.35458" lon="4.223">
        <ele>675</ele>
        <time>2021-04-26T09:27:12Z</time>
      </trkpt>
      <trkpt lat="45.35454" lon="4.223">
        <ele>675</ele>
        <time>2021-04-26T09:27:13Z</time>
      </trkpt>
      <trkpt lat="45.3545" lon="4.22299">
        <ele>675</ele>
        <time>2021-04-26T09:27:14Z</time>
      </trkpt>
      <trkpt lat="45.35446" lon="4.22299">
        <ele>675</ele>
        <time>2021-04-26T09:27:15Z</time>
      </trkpt>
      <trkpt lat="45.35442" lon="4.22298">
        <ele>676</ele>
        <time>2021-04-26T09:27:16Z</time>
      </trkpt>
      <trkpt lat="45.35433" lon="4.22298">
        <ele>676</ele>
        <time>2021-04-26T09:27:17Z</time>
      </trkpt>
      <trkpt lat="45.35429" lon="4.22298">
        <ele>676</ele>
        <time>2021-04-26T09:27:19Z</time>
      </trkpt>
      <trkpt lat="45.35424" lon="4.22297">
        <ele>677</ele>
        <time>2021-04-26T09:27:20Z</time>
      </trkpt>
      <trkpt lat="45.3542" lon="4.22297">
        <ele>677</ele>
        <time>2021-04-26T09:27:21Z</time>
      </trkpt>
      <trkpt lat="45.35415" lon="4.22297">
        <ele>677</ele>
        <time>2021-04-26T09:27:22Z</time>
      </trkpt>
      <trkpt lat="45.35411" lon="4.22297">
        <ele>678</ele>
        <time>2021-04-26T09:27:23Z</time>
      </trkpt>
      <trkpt lat="45.35407" lon="4.22297">
        <ele>678</ele>
        <time>2021-04-26T09:27:24Z</time>
      </trkpt>
      <trkpt lat="45.35402" lon="4.22297">
        <ele>678</ele>
        <time>2021-04-26T09:27:25Z</time>
      </trkpt>
      <trkpt lat="45.35398" lon="4.22297">
        <ele>679</ele>
        <time>2021-04-26T09:27:26Z</time>
      </trkpt>
      <trkpt lat="45.35393" lon="4.22298">
        <ele>679</ele>
        <time>2021-04-26T09:27:27Z</time>
      </trkpt>
      <trkpt lat="45.35389" lon="4.22299">
        <ele>679</ele>
        <time>2021-04-26T09:27:28Z</time>
      </trkpt>
      <trkpt lat="45.35384" lon="4.22299">
        <ele>680</ele>
        <time>2021-04-26T09:27:29Z</time>
      </trkpt>
      <trkpt lat="45.3538" lon="4.223">
        <ele>680</ele>
        <time>2021-04-26T09:27:30Z</time>
      </trkpt>
      <trkpt lat="45.35376" lon="4.223">
        <ele>680</ele>
        <time>2021-04-26T09:27:31Z</time>
      </trkpt>
      <trkpt lat="45.35371" lon="4.223">
        <ele>681</ele>
        <time>2021-04-26T09:27:32Z</time>
      </trkpt>
      <trkpt lat="45.35367" lon="4.22301">
        <ele>681</ele>
        <time>2021-04-26T09:27:33Z</time>
      </trkpt>
      <trkpt lat="45.35363" lon="4.22301">
        <ele>682</ele>
        <time>2021-04-26T09:27:34Z</time>
      </trkpt>
      <trkpt lat="45.35359" lon="4.22302">
        <ele>682</ele>
        <time>2021-04-26T09:27:35Z</time>
      </trkpt>
      <trkpt lat="45.35354" lon="4.22302">
        <ele>682</ele>
        <time>2021-04-26T09:27:36Z</time>
      </trkpt>
      <trkpt lat="45.3535" lon="4.22303">
        <ele>683</ele>
        <time>2021-04-26T09:27:37Z</time>
      </trkpt>
      <trkpt lat="45.35346" lon="4.22303">
        <ele>683</ele>
        <time>2021-04-26T09:27:38Z</time>
      </trkpt>
      <trkpt lat="45.35341" lon="4.22304">
        <ele>683</ele>
        <time>2021-04-26T09:27:39Z</time>
      </trkpt>
      <trkpt lat="45.35337" lon="4.22304">
        <ele>684</ele>
        <time>2021-04-26T09:27:40Z</time>
      </trkpt>
      <trkpt lat="45.35333" lon="4.22304">
        <ele>684</ele>
        <time>2021-04-26T09:27:41Z</time>
      </trkpt>
      <trkpt lat="45.35329" lon="4.22304">
        <ele>684</ele>
        <time>2021-04-26T09:27:42Z</time>
      </trkpt>
      <trkpt lat="45.35324" lon="4.22305">
        <ele>685</ele>
        <time>2021-04-26T09:27:43Z</time>
      </trkpt>
      <trkpt lat="45.3532" lon="4.22305">
        <ele>685</ele>
        <time>2021-04-26T09:27:44Z</time>
      </trkpt>
      <trkpt lat="45.35316" lon="4.22305">
        <ele>685</ele>
        <time>2021-04-26T09:27:45Z</time>
      </trkpt>
      <trkpt lat="45.35312" lon="4.22305">
        <ele>685</ele>
        <time>2021-04-26T09:27:46Z</time>
      </trkpt>
      <trkpt lat="45.35308" lon="4.22305">
        <ele>685</ele>
        <time>2021-04-26T09:27:47Z</time>
      </trkpt>
      <trkpt lat="45.35303" lon="4.22305">
        <ele>686</ele>
        <time>2021-04-26T09:27:48Z</time>
      </trkpt>
      <trkpt lat="45.35299" lon="4.22304">
        <ele>686</ele>
        <time>2021-04-26T09:27:49Z</time>
      </trkpt>
      <trkpt lat="45.35295" lon="4.22304">
        <ele>686</ele>
        <time>2021-04-26T09:27:50Z</time>
      </trkpt>
      <trkpt lat="45.3529" lon="4.22304">
        <ele>687</ele>
        <time>2021-04-26T09:27:51Z</time>
      </trkpt>
      <trkpt lat="45.35286" lon="4.22304">
        <ele>687</ele>
        <time>2021-04-26T09:27:52Z</time>
      </trkpt>
      <trkpt lat="45.35282" lon="4.22303">
        <ele>687</ele>
        <time>2021-04-26T09:27:53Z</time>
      </trkpt>
      <trkpt lat="45.35278" lon="4.22303">
        <ele>687</ele>
        <time>2021-04-26T09:27:54Z</time>
      </trkpt>
      <trkpt lat="45.35273" lon="4.22302">
        <ele>688</ele>
        <time>2021-04-26T09:27:55Z</time>
      </trkpt>
      <trkpt lat="45.35269" lon="4.22302">
        <ele>688</ele>
        <time>2021-04-26T09:27:56Z</time>
      </trkpt>
      <trkpt lat="45.35264" lon="4.22302">
        <ele>688</ele>
        <time>2021-04-26T09:27:57Z</time>
      </trkpt>
      <trkpt lat="45.3526" lon="4.22302">
        <ele>688</ele>
        <time>2021-04-26T09:27:58Z</time>
      </trkpt>
      <trkpt lat="45.35256" lon="4.22302">
        <ele>688</ele>
        <time>2021-04-26T09:27:59Z</time>
      </trkpt>
      <trkpt lat="45.35252" lon="4.22302">
        <ele>688</ele>
        <time>2021-04-26T09:28:00Z</time>
      </trkpt>
      <trkpt lat="45.35247" lon="4.22301">
        <ele>689</ele>
        <time>2021-04-26T09:28:01Z</time>
      </trkpt>
      <trkpt lat="45.35243" lon="4.22301">
        <ele>689</ele>
        <time>2021-04-26T09:28:02Z</time>
      </trkpt>
      <trkpt lat="45.35239" lon="4.22301">
        <ele>689</ele>
        <time>2021-04-26T09:28:03Z</time>
      </trkpt>
      <trkpt lat="45.35235" lon="4.223">
        <ele>689</ele>
        <time>2021-04-26T09:28:04Z</time>
      </trkpt>
      <trkpt lat="45.3523" lon="4.22299">
        <ele>689</ele>
        <time>2021-04-26T09:28:05Z</time>
      </trkpt>
      <trkpt lat="45.35226" lon="4.22299">
        <ele>690</ele>
        <time>2021-04-26T09:28:06Z</time>
      </trkpt>
      <trkpt lat="45.35221" lon="4.22298">
        <ele>690</ele>
        <time>2021-04-26T09:28:07Z</time>
      </trkpt>
      <trkpt lat="45.35217" lon="4.22298">
        <ele>690</ele>
        <time>2021-04-26T09:28:08Z</time>
      </trkpt>
      <trkpt lat="45.35212" lon="4.22298">
        <ele>690</ele>
        <time>2021-04-26T09:28:09Z</time>
      </trkpt>
      <trkpt lat="45.35207" lon="4.22299">
        <ele>690</ele>
        <time>2021-04-26T09:28:10Z</time>
      </trkpt>
      <trkpt lat="45.35202" lon="4.223">
        <ele>691</ele>
        <time>2021-04-26T09:28:11Z</time>
      </trkpt>
      <trkpt lat="45.35197" lon="4.223">
        <ele>691</ele>
        <time>2021-04-26T09:28:12Z</time>
      </trkpt>
      <trkpt lat="45.35192" lon="4.223">
        <ele>691</ele>
        <time>2021-04-26T09:28:13Z</time>
      </trkpt>
      <trkpt lat="45.35188" lon="4.22301">
        <ele>691</ele>
        <time>2021-04-26T09:28:14Z</time>
      </trkpt>
      <trkpt lat="45.35183" lon="4.22301">
        <ele>692</ele>
        <time>2021-04-26T09:28:15Z</time>
      </trkpt>
      <trkpt lat="45.35178" lon="4.22301">
        <ele>692</ele>
        <time>2021-04-26T09:28:16Z</time>
      </trkpt>
      <trkpt lat="45.35173" lon="4.223">
        <ele>692</ele>
        <time>2021-04-26T09:28:17Z</time>
      </trkpt>
      <trkpt lat="45.35168" lon="4.22299">
        <ele>692</ele>
        <time>2021-04-26T09:28:18Z</time>
      </trkpt>
      <trkpt lat="45.35163" lon="4.22298">
        <ele>692</ele>
        <time>2021-04-26T09:28:19Z</time>
      </trkpt>
      <trkpt lat="45.35158" lon="4.22297">
        <ele>692</ele>
        <time>2021-04-26T09:28:20Z</time>
      </trkpt>
      <trkpt lat="45.35153" lon="4.22295">
        <ele>692</ele>
        <time>2021-04-26T09:28:21Z</time>
      </trkpt>
      <trkpt lat="45.35147" lon="4.22293">
        <ele>692</ele>
        <time>2021-04-26T09:28:22Z</time>
      </trkpt>
      <trkpt lat="45.35142" lon="4.22291">
        <ele>692</ele>
        <time>2021-04-26T09:28:23Z</time>
      </trkpt>
      <trkpt lat="45.35137" lon="4.22289">
        <ele>692</ele>
        <time>2021-04-26T09:28:24Z</time>
      </trkpt>
      <trkpt lat="45.35132" lon="4.22286">
        <ele>692</ele>
        <time>2021-04-26T09:28:25Z</time>
      </trkpt>
      <trkpt lat="45.35127" lon="4.22284">
        <ele>692</ele>
        <time>2021-04-26T09:28:26Z</time>
      </trkpt>
      <trkpt lat="45.35122" lon="4.22282">
        <ele>692</ele>
        <time>2021-04-26T09:28:27Z</time>
      </trkpt>
      <trkpt lat="45.35116" lon="4.2228">
        <ele>692</ele>
        <time>2021-04-26T09:28:28Z</time>
      </trkpt>
      <trkpt lat="45.35111" lon="4.22277">
        <ele>692</ele>
        <time>2021-04-26T09:28:29Z</time>
      </trkpt>
      <trkpt lat="45.35105" lon="4.22275">
        <ele>692</ele>
        <time>2021-04-26T09:28:30Z</time>
      </trkpt>
      <trkpt lat="45.351" lon="4.22273">
        <ele>692</ele>
        <time>2021-04-26T09:28:31Z</time>
      </trkpt>
      <trkpt lat="45.35095" lon="4.22271">
        <ele>692</ele>
        <time>2021-04-26T09:28:32Z</time>
      </trkpt>
      <trkpt lat="45.35089" lon="4.22269">
        <ele>692</ele>
        <time>2021-04-26T09:28:33Z</time>
      </trkpt>
      <trkpt lat="45.35084" lon="4.22267">
        <ele>692</ele>
        <time>2021-04-26T09:28:34Z</time>
      </trkpt>
      <trkpt lat="45.35078" lon="4.22265">
        <ele>692</ele>
        <time>2021-04-26T09:28:35Z</time>
      </trkpt>
      <trkpt lat="45.35073" lon="4.22263">
        <ele>692</ele>
        <time>2021-04-26T09:28:36Z</time>
      </trkpt>
      <trkpt lat="45.35067" lon="4.22261">
        <ele>692</ele>
        <time>2021-04-26T09:28:37Z</time>
      </trkpt>
      <trkpt lat="45.35062" lon="4.2226">
        <ele>692</ele>
        <time>2021-04-26T09:28:38Z</time>
      </trkpt>
      <trkpt lat="45.35057" lon="4.22258">
        <ele>692</ele>
        <time>2021-04-26T09:28:39Z</time>
      </trkpt>
      <trkpt lat="45.35051" lon="4.22256">
        <ele>692</ele>
        <time>2021-04-26T09:28:40Z</time>
      </trkpt>
      <trkpt lat="45.35046" lon="4.22255">
        <ele>692</ele>
        <time>2021-04-26T09:28:41Z</time>
      </trkpt>
      <trkpt lat="45.3504" lon="4.22253">
        <ele>692</ele>
        <time>2021-04-26T09:28:42Z</time>
      </trkpt>
      <trkpt lat="45.35034" lon="4.22251">
        <ele>692</ele>
        <time>2021-04-26T09:28:43Z</time>
      </trkpt>
      <trkpt lat="45.35028" lon="4.22249">
        <ele>692</ele>
        <time>2021-04-26T09:28:44Z</time>
      </trkpt>
      <trkpt lat="45.35022" lon="4.22247">
        <ele>691</ele>
        <time>2021-04-26T09:28:45Z</time>
      </trkpt>
      <trkpt lat="45.35015" lon="4.22245">
        <ele>692</ele>
        <time>2021-04-26T09:28:46Z</time>
      </trkpt>
      <trkpt lat="45.35009" lon="4.22242">
        <ele>692</ele>
        <time>2021-04-26T09:28:47Z</time>
      </trkpt>
      <trkpt lat="45.35003" lon="4.2224">
        <ele>691</ele>
        <time>2021-04-26T09:28:48Z</time>
      </trkpt>
      <trkpt lat="45.34998" lon="4.22239">
        <ele>691</ele>
        <time>2021-04-26T09:28:49Z</time>
      </trkpt>
      <trkpt lat="45.34992" lon="4.22238">
        <ele>691</ele>
        <time>2021-04-26T09:28:50Z</time>
      </trkpt>
      <trkpt lat="45.34987" lon="4.22237">
        <ele>691</ele>
        <time>2021-04-26T09:28:51Z</time>
      </trkpt>
      <trkpt lat="45.34983" lon="4.22236">
        <ele>691</ele>
        <time>2021-04-26T09:28:52Z</time>
      </trkpt>
      <trkpt lat="45.34979" lon="4.22235">
        <ele>691</ele>
        <time>2021-04-26T09:28:53Z</time>
      </trkpt>
      <trkpt lat="45.34975" lon="4.22235">
        <ele>691</ele>
        <time>2021-04-26T09:28:54Z</time>
      </trkpt>
      <trkpt lat="45.34972" lon="4.22234">
        <ele>691</ele>
        <time>2021-04-26T09:28:55Z</time>
      </trkpt>
      <trkpt lat="45.3497" lon="4.22233">
        <ele>691</ele>
        <time>2021-04-26T09:28:56Z</time>
      </trkpt>
      <trkpt lat="45.34968" lon="4.22232">
        <ele>691</ele>
        <time>2021-04-26T09:28:57Z</time>
      </trkpt>
      <trkpt lat="45.34965" lon="4.2223">
        <ele>691</ele>
        <time>2021-04-26T09:28:58Z</time>
      </trkpt>
      <trkpt lat="45.34959" lon="4.22226">
        <ele>691</ele>
        <time>2021-04-26T09:28:59Z</time>
      </trkpt>
      <trkpt lat="45.34955" lon="4.22224">
        <ele>691</ele>
        <time>2021-04-26T09:29:01Z</time>
      </trkpt>
      <trkpt lat="45.3495" lon="4.22223">
        <ele>690</ele>
        <time>2021-04-26T09:29:02Z</time>
      </trkpt>
      <trkpt lat="45.34944" lon="4.22224">
        <ele>690</ele>
        <time>2021-04-26T09:29:03Z</time>
      </trkpt>
      <trkpt lat="45.34938" lon="4.22225">
        <ele>690</ele>
        <time>2021-04-26T09:29:04Z</time>
      </trkpt>
      <trkpt lat="45.34932" lon="4.22228">
        <ele>690</ele>
        <time>2021-04-26T09:29:05Z</time>
      </trkpt>
      <trkpt lat="45.34926" lon="4.2223">
        <ele>689</ele>
        <time>2021-04-26T09:29:06Z</time>
      </trkpt>
      <trkpt lat="45.3492" lon="4.22233">
        <ele>689</ele>
        <time>2021-04-26T09:29:07Z</time>
      </trkpt>
      <trkpt lat="45.34914" lon="4.22235">
        <ele>689</ele>
        <time>2021-04-26T09:29:08Z</time>
      </trkpt>
      <trkpt lat="45.34908" lon="4.22238">
        <ele>688</ele>
        <time>2021-04-26T09:29:09Z</time>
      </trkpt>
      <trkpt lat="45.34902" lon="4.22242">
        <ele>688</ele>
        <time>2021-04-26T09:29:10Z</time>
      </trkpt>
      <trkpt lat="45.34896" lon="4.22246">
        <ele>687</ele>
        <time>2021-04-26T09:29:11Z</time>
      </trkpt>
      <trkpt lat="45.34889" lon="4.2225">
        <ele>687</ele>
        <time>2021-04-26T09:29:12Z</time>
      </trkpt>
      <trkpt lat="45.34882" lon="4.22254">
        <ele>687</ele>
        <time>2021-04-26T09:29:13Z</time>
      </trkpt>
      <trkpt lat="45.34874" lon="4.22258">
        <ele>686</ele>
        <time>2021-04-26T09:29:14Z</time>
      </trkpt>
      <trkpt lat="45.34867" lon="4.22262">
        <ele>686</ele>
        <time>2021-04-26T09:29:15Z</time>
      </trkpt>
      <trkpt lat="45.34859" lon="4.22265">
        <ele>686</ele>
        <time>2021-04-26T09:29:16Z</time>
      </trkpt>
      <trkpt lat="45.34852" lon="4.22267">
        <ele>685</ele>
        <time>2021-04-26T09:29:17Z</time>
      </trkpt>
      <trkpt lat="45.34845" lon="4.22269">
        <ele>685</ele>
        <time>2021-04-26T09:29:18Z</time>
      </trkpt>
      <trkpt lat="45.34839" lon="4.2227">
        <ele>685</ele>
        <time>2021-04-26T09:29:19Z</time>
      </trkpt>
      <trkpt lat="45.34833" lon="4.22271">
        <ele>685</ele>
        <time>2021-04-26T09:29:20Z</time>
      </trkpt>
      <trkpt lat="45.34827" lon="4.22272">
        <ele>685</ele>
        <time>2021-04-26T09:29:21Z</time>
      </trkpt>
      <trkpt lat="45.34822" lon="4.22273">
        <ele>684</ele>
        <time>2021-04-26T09:29:22Z</time>
      </trkpt>
      <trkpt lat="45.34817" lon="4.22274">
        <ele>684</ele>
        <time>2021-04-26T09:29:23Z</time>
      </trkpt>
      <trkpt lat="45.34811" lon="4.22275">
        <ele>684</ele>
        <time>2021-04-26T09:29:24Z</time>
      </trkpt>
      <trkpt lat="45.34806" lon="4.22276">
        <ele>684</ele>
        <time>2021-04-26T09:29:25Z</time>
      </trkpt>
      <trkpt lat="45.34801" lon="4.22277">
        <ele>685</ele>
        <time>2021-04-26T09:29:26Z</time>
      </trkpt>
      <trkpt lat="45.34795" lon="4.22278">
        <ele>684</ele>
        <time>2021-04-26T09:29:27Z</time>
      </trkpt>
      <trkpt lat="45.3479" lon="4.22279">
        <ele>684</ele>
        <time>2021-04-26T09:29:28Z</time>
      </trkpt>
      <trkpt lat="45.34785" lon="4.2228">
        <ele>685</ele>
        <time>2021-04-26T09:29:29Z</time>
      </trkpt>
      <trkpt lat="45.34779" lon="4.22281">
        <ele>685</ele>
        <time>2021-04-26T09:29:30Z</time>
      </trkpt>
      <trkpt lat="45.34774" lon="4.22283">
        <ele>685</ele>
        <time>2021-04-26T09:29:31Z</time>
      </trkpt>
      <trkpt lat="45.34769" lon="4.22284">
        <ele>685</ele>
        <time>2021-04-26T09:29:32Z</time>
      </trkpt>
      <trkpt lat="45.34764" lon="4.22285">
        <ele>686</ele>
        <time>2021-04-26T09:29:33Z</time>
      </trkpt>
      <trkpt lat="45.34759" lon="4.22287">
        <ele>686</ele>
        <time>2021-04-26T09:29:34Z</time>
      </trkpt>
      <trkpt lat="45.34754" lon="4.22288">
        <ele>686</ele>
        <time>2021-04-26T09:29:35Z</time>
      </trkpt>
      <trkpt lat="45.34749" lon="4.22289">
        <ele>687</ele>
        <time>2021-04-26T09:29:36Z</time>
      </trkpt>
      <trkpt lat="45.34745" lon="4.22291">
        <ele>687</ele>
        <time>2021-04-26T09:29:37Z</time>
      </trkpt>
      <trkpt lat="45.34736" lon="4.22293">
        <ele>687</ele>
        <time>2021-04-26T09:29:38Z</time>
      </trkpt>
      <trkpt lat="45.34731" lon="4.22295">
        <ele>688</ele>
        <time>2021-04-26T09:29:40Z</time>
      </trkpt>
      <trkpt lat="45.34727" lon="4.22296">
        <ele>688</ele>
        <time>2021-04-26T09:29:41Z</time>
      </trkpt>
      <trkpt lat="45.34722" lon="4.22297">
        <ele>688</ele>
        <time>2021-04-26T09:29:42Z</time>
      </trkpt>
      <trkpt lat="45.34717" lon="4.22298">
        <ele>689</ele>
        <time>2021-04-26T09:29:43Z</time>
      </trkpt>
      <trkpt lat="45.34713" lon="4.223">
        <ele>689</ele>
        <time>2021-04-26T09:29:44Z</time>
      </trkpt>
      <trkpt lat="45.34708" lon="4.22301">
        <ele>689</ele>
        <time>2021-04-26T09:29:45Z</time>
      </trkpt>
      <trkpt lat="45.34704" lon="4.22303">
        <ele>690</ele>
        <time>2021-04-26T09:29:46Z</time>
      </trkpt>
      <trkpt lat="45.34699" lon="4.22304">
        <ele>690</ele>
        <time>2021-04-26T09:29:47Z</time>
      </trkpt>
      <trkpt lat="45.34694" lon="4.22305">
        <ele>690</ele>
        <time>2021-04-26T09:29:48Z</time>
      </trkpt>
      <trkpt lat="45.3469" lon="4.22306">
        <ele>691</ele>
        <time>2021-04-26T09:29:49Z</time>
      </trkpt>
      <trkpt lat="45.34685" lon="4.22307">
        <ele>691</ele>
        <time>2021-04-26T09:29:50Z</time>
      </trkpt>
      <trkpt lat="45.3468" lon="4.22308">
        <ele>691</ele>
        <time>2021-04-26T09:29:51Z</time>
      </trkpt>
      <trkpt lat="45.34675" lon="4.22309">
        <ele>691</ele>
        <time>2021-04-26T09:29:52Z</time>
      </trkpt>
      <trkpt lat="45.34671" lon="4.2231">
        <ele>691</ele>
        <time>2021-04-26T09:29:53Z</time>
      </trkpt>
      <trkpt lat="45.34666" lon="4.22311">
        <ele>692</ele>
        <time>2021-04-26T09:29:54Z</time>
      </trkpt>
      <trkpt lat="45.34661" lon="4.22312">
        <ele>693</ele>
        <time>2021-04-26T09:29:55Z</time>
      </trkpt>
      <trkpt lat="45.34656" lon="4.22314">
        <ele>693</ele>
        <time>2021-04-26T09:29:56Z</time>
      </trkpt>
      <trkpt lat="45.34652" lon="4.22315">
        <ele>693</ele>
        <time>2021-04-26T09:29:57Z</time>
      </trkpt>
      <trkpt lat="45.34647" lon="4.22316">
        <ele>694</ele>
        <time>2021-04-26T09:29:58Z</time>
      </trkpt>
      <trkpt lat="45.34638" lon="4.22319">
        <ele>694</ele>
        <time>2021-04-26T09:29:59Z</time>
      </trkpt>
      <trkpt lat="45.34633" lon="4.2232">
        <ele>695</ele>
        <time>2021-04-26T09:30:01Z</time>
      </trkpt>
      <trkpt lat="45.34629" lon="4.22321">
        <ele>696</ele>
        <time>2021-04-26T09:30:02Z</time>
      </trkpt>
      <trkpt lat="45.34624" lon="4.22322">
        <ele>696</ele>
        <time>2021-04-26T09:30:03Z</time>
      </trkpt>
      <trkpt lat="45.34619" lon="4.22324">
        <ele>696</ele>
        <time>2021-04-26T09:30:04Z</time>
      </trkpt>
      <trkpt lat="45.34614" lon="4.22325">
        <ele>696</ele>
        <time>2021-04-26T09:30:05Z</time>
      </trkpt>
      <trkpt lat="45.3461" lon="4.22326">
        <ele>697</ele>
        <time>2021-04-26T09:30:06Z</time>
      </trkpt>
      <trkpt lat="45.34605" lon="4.22327">
        <ele>697</ele>
        <time>2021-04-26T09:30:07Z</time>
      </trkpt>
      <trkpt lat="45.346" lon="4.22329">
        <ele>697</ele>
        <time>2021-04-26T09:30:08Z</time>
      </trkpt>
      <trkpt lat="45.34595" lon="4.2233">
        <ele>698</ele>
        <time>2021-04-26T09:30:09Z</time>
      </trkpt>
      <trkpt lat="45.3459" lon="4.22332">
        <ele>698</ele>
        <time>2021-04-26T09:30:10Z</time>
      </trkpt>
      <trkpt lat="45.34585" lon="4.22334">
        <ele>699</ele>
        <time>2021-04-26T09:30:11Z</time>
      </trkpt>
      <trkpt lat="45.3458" lon="4.22335">
        <ele>699</ele>
        <time>2021-04-26T09:30:12Z</time>
      </trkpt>
      <trkpt lat="45.34575" lon="4.22337">
        <ele>699</ele>
        <time>2021-04-26T09:30:13Z</time>
      </trkpt>
      <trkpt lat="45.3457" lon="4.22339">
        <ele>700</ele>
        <time>2021-04-26T09:30:14Z</time>
      </trkpt>
      <trkpt lat="45.34565" lon="4.22341">
        <ele>700</ele>
        <time>2021-04-26T09:30:15Z</time>
      </trkpt>
      <trkpt lat="45.3456" lon="4.22343">
        <ele>700</ele>
        <time>2021-04-26T09:30:16Z</time>
      </trkpt>
      <trkpt lat="45.34555" lon="4.22345">
        <ele>700</ele>
        <time>2021-04-26T09:30:17Z</time>
      </trkpt>
      <trkpt lat="45.3455" lon="4.22346">
        <ele>700</ele>
        <time>2021-04-26T09:30:18Z</time>
      </trkpt>
      <trkpt lat="45.34545" lon="4.22348">
        <ele>701</ele>
        <time>2021-04-26T09:30:19Z</time>
      </trkpt>
      <trkpt lat="45.3454" lon="4.2235">
        <ele>701</ele>
        <time>2021-04-26T09:30:20Z</time>
      </trkpt>
      <trkpt lat="45.34535" lon="4.22352">
        <ele>701</ele>
        <time>2021-04-26T09:30:21Z</time>
      </trkpt>
      <trkpt lat="45.3453" lon="4.22353">
        <ele>701</ele>
        <time>2021-04-26T09:30:22Z</time>
      </trkpt>
      <trkpt lat="45.34525" lon="4.22355">
        <ele>701</ele>
        <time>2021-04-26T09:30:23Z</time>
      </trkpt>
      <trkpt lat="45.3452" lon="4.22357">
        <ele>702</ele>
        <time>2021-04-26T09:30:24Z</time>
      </trkpt>
      <trkpt lat="45.34515" lon="4.22358">
        <ele>702</ele>
        <time>2021-04-26T09:30:25Z</time>
      </trkpt>
      <trkpt lat="45.3451" lon="4.2236">
        <ele>703</ele>
        <time>2021-04-26T09:30:26Z</time>
      </trkpt>
      <trkpt lat="45.34505" lon="4.22362">
        <ele>703</ele>
        <time>2021-04-26T09:30:27Z</time>
      </trkpt>
      <trkpt lat="45.345" lon="4.22364">
        <ele>703</ele>
        <time>2021-04-26T09:30:28Z</time>
      </trkpt>
      <trkpt lat="45.34495" lon="4.22365">
        <ele>703</ele>
        <time>2021-04-26T09:30:29Z</time>
      </trkpt>
      <trkpt lat="45.3449" lon="4.22367">
        <ele>704</ele>
        <time>2021-04-26T09:30:30Z</time>
      </trkpt>
      <trkpt lat="45.34484" lon="4.22369">
        <ele>704</ele>
        <time>2021-04-26T09:30:31Z</time>
      </trkpt>
      <trkpt lat="45.34479" lon="4.22371">
        <ele>704</ele>
        <time>2021-04-26T09:30:32Z</time>
      </trkpt>
      <trkpt lat="45.34474" lon="4.22373">
        <ele>705</ele>
        <time>2021-04-26T09:30:33Z</time>
      </trkpt>
      <trkpt lat="45.34469" lon="4.22375">
        <ele>705</ele>
        <time>2021-04-26T09:30:34Z</time>
      </trkpt>
      <trkpt lat="45.34464" lon="4.22377">
        <ele>705</ele>
        <time>2021-04-26T09:30:35Z</time>
      </trkpt>
      <trkpt lat="45.34458" lon="4.22379">
        <ele>706</ele>
        <time>2021-04-26T09:30:36Z</time>
      </trkpt>
      <trkpt lat="45.34453" lon="4.22381">
        <ele>706</ele>
        <time>2021-04-26T09:30:37Z</time>
      </trkpt>
      <trkpt lat="45.34448" lon="4.22383">
        <ele>706</ele>
        <time>2021-04-26T09:30:38Z</time>
      </trkpt>
      <trkpt lat="45.34443" lon="4.22384">
        <ele>707</ele>
        <time>2021-04-26T09:30:39Z</time>
      </trkpt>
      <trkpt lat="45.34438" lon="4.22386">
        <ele>707</ele>
        <time>2021-04-26T09:30:40Z</time>
      </trkpt>
      <trkpt lat="45.34433" lon="4.22388">
        <ele>707</ele>
        <time>2021-04-26T09:30:41Z</time>
      </trkpt>
      <trkpt lat="45.34428" lon="4.2239">
        <ele>707</ele>
        <time>2021-04-26T09:30:42Z</time>
      </trkpt>
      <trkpt lat="45.34423" lon="4.22392">
        <ele>708</ele>
        <time>2021-04-26T09:30:43Z</time>
      </trkpt>
      <trkpt lat="45.34418" lon="4.22394">
        <ele>709</ele>
        <time>2021-04-26T09:30:44Z</time>
      </trkpt>
      <trkpt lat="45.34412" lon="4.22396">
        <ele>709</ele>
        <time>2021-04-26T09:30:45Z</time>
      </trkpt>
      <trkpt lat="45.34407" lon="4.22398">
        <ele>709</ele>
        <time>2021-04-26T09:30:46Z</time>
      </trkpt>
      <trkpt lat="45.34402" lon="4.224">
        <ele>710</ele>
        <time>2021-04-26T09:30:47Z</time>
      </trkpt>
      <trkpt lat="45.34397" lon="4.22402">
        <ele>710</ele>
        <time>2021-04-26T09:30:48Z</time>
      </trkpt>
      <trkpt lat="45.34392" lon="4.22404">
        <ele>711</ele>
        <time>2021-04-26T09:30:49Z</time>
      </trkpt>
      <trkpt lat="45.34387" lon="4.22406">
        <ele>711</ele>
        <time>2021-04-26T09:30:50Z</time>
      </trkpt>
      <trkpt lat="45.34382" lon="4.22408">
        <ele>711</ele>
        <time>2021-04-26T09:30:51Z</time>
      </trkpt>
      <trkpt lat="45.34377" lon="4.2241">
        <ele>712</ele>
        <time>2021-04-26T09:30:52Z</time>
      </trkpt>
      <trkpt lat="45.34372" lon="4.22412">
        <ele>712</ele>
        <time>2021-04-26T09:30:53Z</time>
      </trkpt>
      <trkpt lat="45.34367" lon="4.22414">
        <ele>712</ele>
        <time>2021-04-26T09:30:54Z</time>
      </trkpt>
      <trkpt lat="45.34363" lon="4.22416">
        <ele>713</ele>
        <time>2021-04-26T09:30:55Z</time>
      </trkpt>
      <trkpt lat="45.34358" lon="4.22418">
        <ele>713</ele>
        <time>2021-04-26T09:30:56Z</time>
      </trkpt>
      <trkpt lat="45.34353" lon="4.2242">
        <ele>713</ele>
        <time>2021-04-26T09:30:57Z</time>
      </trkpt>
      <trkpt lat="45.34348" lon="4.22422">
        <ele>714</ele>
        <time>2021-04-26T09:30:58Z</time>
      </trkpt>
      <trkpt lat="45.34342" lon="4.22424">
        <ele>714</ele>
        <time>2021-04-26T09:30:59Z</time>
      </trkpt>
      <trkpt lat="45.34337" lon="4.22426">
        <ele>714</ele>
        <time>2021-04-26T09:31:00Z</time>
      </trkpt>
      <trkpt lat="45.34332" lon="4.22427">
        <ele>714</ele>
        <time>2021-04-26T09:31:01Z</time>
      </trkpt>
      <trkpt lat="45.34327" lon="4.22428">
        <ele>715</ele>
        <time>2021-04-26T09:31:02Z</time>
      </trkpt>
      <trkpt lat="45.34321" lon="4.22429">
        <ele>715</ele>
        <time>2021-04-26T09:31:03Z</time>
      </trkpt>
      <trkpt lat="45.34316" lon="4.22429">
        <ele>716</ele>
        <time>2021-04-26T09:31:04Z</time>
      </trkpt>
      <trkpt lat="45.34311" lon="4.2243">
        <ele>716</ele>
        <time>2021-04-26T09:31:05Z</time>
      </trkpt>
      <trkpt lat="45.34306" lon="4.2243">
        <ele>716</ele>
        <time>2021-04-26T09:31:06Z</time>
      </trkpt>
      <trkpt lat="45.34301" lon="4.22431">
        <ele>717</ele>
        <time>2021-04-26T09:31:07Z</time>
      </trkpt>
      <trkpt lat="45.34296" lon="4.22432">
        <ele>717</ele>
        <time>2021-04-26T09:31:08Z</time>
      </trkpt>
      <trkpt lat="45.3429" lon="4.22433">
        <ele>717</ele>
        <time>2021-04-26T09:31:09Z</time>
      </trkpt>
      <trkpt lat="45.34285" lon="4.22433">
        <ele>717</ele>
        <time>2021-04-26T09:31:10Z</time>
      </trkpt>
      <trkpt lat="45.3428" lon="4.22434">
        <ele>718</ele>
        <time>2021-04-26T09:31:11Z</time>
      </trkpt>
      <trkpt lat="45.34275" lon="4.22434">
        <ele>718</ele>
        <time>2021-04-26T09:31:12Z</time>
      </trkpt>
      <trkpt lat="45.3427" lon="4.22435">
        <ele>719</ele>
        <time>2021-04-26T09:31:13Z</time>
      </trkpt>
      <trkpt lat="45.34265" lon="4.22436">
        <ele>719</ele>
        <time>2021-04-26T09:31:14Z</time>
      </trkpt>
      <trkpt lat="45.3426" lon="4.22436">
        <ele>719</ele>
        <time>2021-04-26T09:31:15Z</time>
      </trkpt>
      <trkpt lat="45.34256" lon="4.22436">
        <ele>720</ele>
        <time>2021-04-26T09:31:16Z</time>
      </trkpt>
      <trkpt lat="45.34251" lon="4.22436">
        <ele>720</ele>
        <time>2021-04-26T09:31:17Z</time>
      </trkpt>
      <trkpt lat="45.34246" lon="4.22436">
        <ele>720</ele>
        <time>2021-04-26T09:31:18Z</time>
      </trkpt>
      <trkpt lat="45.34242" lon="4.22436">
        <ele>721</ele>
        <time>2021-04-26T09:31:19Z</time>
      </trkpt>
      <trkpt lat="45.34238" lon="4.22436">
        <ele>721</ele>
        <time>2021-04-26T09:31:20Z</time>
      </trkpt>
      <trkpt lat="45.34234" lon="4.22436">
        <ele>721</ele>
        <time>2021-04-26T09:31:21Z</time>
      </trkpt>
      <trkpt lat="45.3423" lon="4.22436">
        <ele>722</ele>
        <time>2021-04-26T09:31:22Z</time>
      </trkpt>
      <trkpt lat="45.34226" lon="4.22436">
        <ele>722</ele>
        <time>2021-04-26T09:31:23Z</time>
      </trkpt>
      <trkpt lat="45.34222" lon="4.22436">
        <ele>722</ele>
        <time>2021-04-26T09:31:24Z</time>
      </trkpt>
      <trkpt lat="45.34219" lon="4.22436">
        <ele>722</ele>
        <time>2021-04-26T09:31:25Z</time>
      </trkpt>
      <trkpt lat="45.34217" lon="4.22436">
        <ele>723</ele>
        <time>2021-04-26T09:31:26Z</time>
      </trkpt>
      <trkpt lat="45.34215" lon="4.22436">
        <ele>723</ele>
        <time>2021-04-26T09:31:27Z</time>
      </trkpt>
      <trkpt lat="45.34214" lon="4.22441">
        <ele>723</ele>
        <time>2021-04-26T09:31:29Z</time>
      </trkpt>
      <trkpt lat="45.34214" lon="4.22444">
        <ele>723</ele>
        <time>2021-04-26T09:31:30Z</time>
      </trkpt>
      <trkpt lat="45.34215" lon="4.22448">
        <ele>723</ele>
        <time>2021-04-26T09:31:31Z</time>
      </trkpt>
      <trkpt lat="45.34217" lon="4.22452">
        <ele>722</ele>
        <time>2021-04-26T09:31:32Z</time>
      </trkpt>
      <trkpt lat="45.34218" lon="4.22457">
        <ele>722</ele>
        <time>2021-04-26T09:31:33Z</time>
      </trkpt>
      <trkpt lat="45.3422" lon="4.22462">
        <ele>722</ele>
        <time>2021-04-26T09:31:34Z</time>
      </trkpt>
      <trkpt lat="45.34222" lon="4.22468">
        <ele>722</ele>
        <time>2021-04-26T09:31:35Z</time>
      </trkpt>
      <trkpt lat="45.34225" lon="4.22474">
        <ele>722</ele>
        <time>2021-04-26T09:31:36Z</time>
      </trkpt>
      <trkpt lat="45.34228" lon="4.2248">
        <ele>722</ele>
        <time>2021-04-26T09:31:37Z</time>
      </trkpt>
      <trkpt lat="45.34231" lon="4.22486">
        <ele>721</ele>
        <time>2021-04-26T09:31:38Z</time>
      </trkpt>
      <trkpt lat="45.34234" lon="4.22492">
        <ele>721</ele>
        <time>2021-04-26T09:31:39Z</time>
      </trkpt>
      <trkpt lat="45.34238" lon="4.22498">
        <ele>721</ele>
        <time>2021-04-26T09:31:40Z</time>
      </trkpt>
      <trkpt lat="45.34242" lon="4.22505">
        <ele>721</ele>
        <time>2021-04-26T09:31:41Z</time>
      </trkpt>
      <trkpt lat="45.34246" lon="4.22511">
        <ele>721</ele>
        <time>2021-04-26T09:31:42Z</time>
      </trkpt>
      <trkpt lat="45.34251" lon="4.22518">
        <ele>720</ele>
        <time>2021-04-26T09:31:43Z</time>
      </trkpt>
      <trkpt lat="45.34255" lon="4.22525">
        <ele>720</ele>
        <time>2021-04-26T09:31:44Z</time>
      </trkpt>
      <trkpt lat="45.34259" lon="4.22532">
        <ele>720</ele>
        <time>2021-04-26T09:31:45Z</time>
      </trkpt>
      <trkpt lat="45.34263" lon="4.2254">
        <ele>720</ele>
        <time>2021-04-26T09:31:46Z</time>
      </trkpt>
      <trkpt lat="45.34266" lon="4.22547">
        <ele>720</ele>
        <time>2021-04-26T09:31:47Z</time>
      </trkpt>
      <trkpt lat="45.34269" lon="4.22555">
        <ele>720</ele>
        <time>2021-04-26T09:31:48Z</time>
      </trkpt>
      <trkpt lat="45.34271" lon="4.22563">
        <ele>720</ele>
        <time>2021-04-26T09:31:49Z</time>
      </trkpt>
      <trkpt lat="45.34273" lon="4.22571">
        <ele>720</ele>
        <time>2021-04-26T09:31:50Z</time>
      </trkpt>
      <trkpt lat="45.34275" lon="4.22579">
        <ele>719</ele>
        <time>2021-04-26T09:31:51Z</time>
      </trkpt>
      <trkpt lat="45.34277" lon="4.22588">
        <ele>719</ele>
        <time>2021-04-26T09:31:52Z</time>
      </trkpt>
      <trkpt lat="45.34278" lon="4.22597">
        <ele>719</ele>
        <time>2021-04-26T09:31:53Z</time>
      </trkpt>
      <trkpt lat="45.3428" lon="4.22605">
        <ele>718</ele>
        <time>2021-04-26T09:31:54Z</time>
      </trkpt>
      <trkpt lat="45.34281" lon="4.22614">
        <ele>718</ele>
        <time>2021-04-26T09:31:55Z</time>
      </trkpt>
      <trkpt lat="45.34282" lon="4.22622">
        <ele>718</ele>
        <time>2021-04-26T09:31:56Z</time>
      </trkpt>
      <trkpt lat="45.34284" lon="4.22629">
        <ele>717</ele>
        <time>2021-04-26T09:31:57Z</time>
      </trkpt>
      <trkpt lat="45.34285" lon="4.22637">
        <ele>717</ele>
        <time>2021-04-26T09:31:58Z</time>
      </trkpt>
      <trkpt lat="45.34286" lon="4.22644">
        <ele>717</ele>
        <time>2021-04-26T09:31:59Z</time>
      </trkpt>
      <trkpt lat="45.34288" lon="4.22652">
        <ele>717</ele>
        <time>2021-04-26T09:32:00Z</time>
      </trkpt>
      <trkpt lat="45.34291" lon="4.22659">
        <ele>717</ele>
        <time>2021-04-26T09:32:01Z</time>
      </trkpt>
      <trkpt lat="45.34294" lon="4.22665">
        <ele>717</ele>
        <time>2021-04-26T09:32:02Z</time>
      </trkpt>
      <trkpt lat="45.34297" lon="4.22671">
        <ele>717</ele>
        <time>2021-04-26T09:32:03Z</time>
      </trkpt>
      <trkpt lat="45.34301" lon="4.22675">
        <ele>717</ele>
        <time>2021-04-26T09:32:04Z</time>
      </trkpt>
      <trkpt lat="45.34305" lon="4.2268">
        <ele>717</ele>
        <time>2021-04-26T09:32:05Z</time>
      </trkpt>
      <trkpt lat="45.3431" lon="4.22683">
        <ele>717</ele>
        <time>2021-04-26T09:32:06Z</time>
      </trkpt>
      <trkpt lat="45.34315" lon="4.22685">
        <ele>717</ele>
        <time>2021-04-26T09:32:07Z</time>
      </trkpt>
      <trkpt lat="45.34319" lon="4.22688">
        <ele>717</ele>
        <time>2021-04-26T09:32:08Z</time>
      </trkpt>
      <trkpt lat="45.34323" lon="4.22692">
        <ele>717</ele>
        <time>2021-04-26T09:32:09Z</time>
      </trkpt>
      <trkpt lat="45.34328" lon="4.22696">
        <ele>717</ele>
        <time>2021-04-26T09:32:10Z</time>
      </trkpt>
      <trkpt lat="45.34333" lon="4.22701">
        <ele>717</ele>
        <time>2021-04-26T09:32:11Z</time>
      </trkpt>
      <trkpt lat="45.34337" lon="4.22705">
        <ele>717</ele>
        <time>2021-04-26T09:32:12Z</time>
      </trkpt>
      <trkpt lat="45.34341" lon="4.2271">
        <ele>717</ele>
        <time>2021-04-26T09:32:13Z</time>
      </trkpt>
      <trkpt lat="45.34345" lon="4.22715">
        <ele>717</ele>
        <time>2021-04-26T09:32:14Z</time>
      </trkpt>
      <trkpt lat="45.3435" lon="4.2272">
        <ele>717</ele>
        <time>2021-04-26T09:32:15Z</time>
      </trkpt>
      <trkpt lat="45.34354" lon="4.22724">
        <ele>717</ele>
        <time>2021-04-26T09:32:16Z</time>
      </trkpt>
      <trkpt lat="45.34359" lon="4.22728">
        <ele>717</ele>
        <time>2021-04-26T09:32:17Z</time>
      </trkpt>
      <trkpt lat="45.34363" lon="4.22732">
        <ele>717</ele>
        <time>2021-04-26T09:32:18Z</time>
      </trkpt>
      <trkpt lat="45.34367" lon="4.22735">
        <ele>717</ele>
        <time>2021-04-26T09:32:19Z</time>
      </trkpt>
      <trkpt lat="45.34372" lon="4.22739">
        <ele>717</ele>
        <time>2021-04-26T09:32:20Z</time>
      </trkpt>
      <trkpt lat="45.34376" lon="4.22742">
        <ele>717</ele>
        <time>2021-04-26T09:32:21Z</time>
      </trkpt>
      <trkpt lat="45.34381" lon="4.22746">
        <ele>718</ele>
        <time>2021-04-26T09:32:22Z</time>
      </trkpt>
      <trkpt lat="45.34385" lon="4.2275">
        <ele>718</ele>
        <time>2021-04-26T09:32:23Z</time>
      </trkpt>
      <trkpt lat="45.34389" lon="4.22754">
        <ele>718</ele>
        <time>2021-04-26T09:32:24Z</time>
      </trkpt>
      <trkpt lat="45.34393" lon="4.22758">
        <ele>718</ele>
        <time>2021-04-26T09:32:25Z</time>
      </trkpt>
      <trkpt lat="45.34396" lon="4.22763">
        <ele>718</ele>
        <time>2021-04-26T09:32:26Z</time>
      </trkpt>
      <trkpt lat="45.344" lon="4.22767">
        <ele>719</ele>
        <time>2021-04-26T09:32:27Z</time>
      </trkpt>
      <trkpt lat="45.34404" lon="4.22773">
        <ele>719</ele>
        <time>2021-04-26T09:32:28Z</time>
      </trkpt>
      <trkpt lat="45.34408" lon="4.22778">
        <ele>720</ele>
        <time>2021-04-26T09:32:29Z</time>
      </trkpt>
      <trkpt lat="45.34411" lon="4.22783">
        <ele>720</ele>
        <time>2021-04-26T09:32:30Z</time>
      </trkpt>
      <trkpt lat="45.34414" lon="4.22789">
        <ele>720</ele>
        <time>2021-04-26T09:32:31Z</time>
      </trkpt>
      <trkpt lat="45.34417" lon="4.22795">
        <ele>720</ele>
        <time>2021-04-26T09:32:32Z</time>
      </trkpt>
      <trkpt lat="45.3442" lon="4.228">
        <ele>720</ele>
        <time>2021-04-26T09:32:33Z</time>
      </trkpt>
      <trkpt lat="45.34422" lon="4.22805">
        <ele>721</ele>
        <time>2021-04-26T09:32:34Z</time>
      </trkpt>
      <trkpt lat="45.34424" lon="4.2281">
        <ele>721</ele>
        <time>2021-04-26T09:32:35Z</time>
      </trkpt>
      <trkpt lat="45.34425" lon="4.22815">
        <ele>721</ele>
        <time>2021-04-26T09:32:36Z</time>
      </trkpt>
      <trkpt lat="45.34426" lon="4.22821">
        <ele>721</ele>
        <time>2021-04-26T09:32:37Z</time>
      </trkpt>
      <trkpt lat="45.34426" lon="4.22827">
        <ele>721</ele>
        <time>2021-04-26T09:32:38Z</time>
      </trkpt>
      <trkpt lat="45.34427" lon="4.22833">
        <ele>721</ele>
        <time>2021-04-26T09:32:39Z</time>
      </trkpt>
      <trkpt lat="45.34427" lon="4.2284">
        <ele>722</ele>
        <time>2021-04-26T09:32:40Z</time>
      </trkpt>
      <trkpt lat="45.34427" lon="4.22846">
        <ele>722</ele>
        <time>2021-04-26T09:32:41Z</time>
      </trkpt>
      <trkpt lat="45.34427" lon="4.22853">
        <ele>722</ele>
        <time>2021-04-26T09:32:42Z</time>
      </trkpt>
      <trkpt lat="45.34426" lon="4.22861">
        <ele>722</ele>
        <time>2021-04-26T09:32:43Z</time>
      </trkpt>
      <trkpt lat="45.34425" lon="4.22868">
        <ele>722</ele>
        <time>2021-04-26T09:32:44Z</time>
      </trkpt>
      <trkpt lat="45.34423" lon="4.22875">
        <ele>722</ele>
        <time>2021-04-26T09:32:45Z</time>
      </trkpt>
      <trkpt lat="45.34421" lon="4.22881">
        <ele>722</ele>
        <time>2021-04-26T09:32:46Z</time>
      </trkpt>
      <trkpt lat="45.34418" lon="4.22888">
        <ele>722</ele>
        <time>2021-04-26T09:32:47Z</time>
      </trkpt>
      <trkpt lat="45.34416" lon="4.22895">
        <ele>722</ele>
        <time>2021-04-26T09:32:48Z</time>
      </trkpt>
      <trkpt lat="45.34414" lon="4.22903">
        <ele>722</ele>
        <time>2021-04-26T09:32:49Z</time>
      </trkpt>
      <trkpt lat="45.34413" lon="4.22911">
        <ele>722</ele>
        <time>2021-04-26T09:32:50Z</time>
      </trkpt>
      <trkpt lat="45.34412" lon="4.2292">
        <ele>722</ele>
        <time>2021-04-26T09:32:51Z</time>
      </trkpt>
      <trkpt lat="45.34412" lon="4.22928">
        <ele>722</ele>
        <time>2021-04-26T09:32:52Z</time>
      </trkpt>
      <trkpt lat="45.34411" lon="4.22936">
        <ele>722</ele>
        <time>2021-04-26T09:32:53Z</time>
      </trkpt>
      <trkpt lat="45.34411" lon="4.22944">
        <ele>722</ele>
        <time>2021-04-26T09:32:54Z</time>
      </trkpt>
      <trkpt lat="45.34411" lon="4.22951">
        <ele>722</ele>
        <time>2021-04-26T09:32:55Z</time>
      </trkpt>
      <trkpt lat="45.34411" lon="4.22959">
        <ele>722</ele>
        <time>2021-04-26T09:32:56Z</time>
      </trkpt>
      <trkpt lat="45.34412" lon="4.22966">
        <ele>722</ele>
        <time>2021-04-26T09:32:57Z</time>
      </trkpt>
      <trkpt lat="45.34413" lon="4.22973">
        <ele>723</ele>
        <time>2021-04-26T09:32:58Z</time>
      </trkpt>
      <trkpt lat="45.34414" lon="4.2298">
        <ele>723</ele>
        <time>2021-04-26T09:32:59Z</time>
      </trkpt>
      <trkpt lat="45.34414" lon="4.22987">
        <ele>723</ele>
        <time>2021-04-26T09:33:00Z</time>
      </trkpt>
      <trkpt lat="45.34415" lon="4.22994">
        <ele>723</ele>
        <time>2021-04-26T09:33:01Z</time>
      </trkpt>
      <trkpt lat="45.34417" lon="4.23002">
        <ele>723</ele>
        <time>2021-04-26T09:33:02Z</time>
      </trkpt>
      <trkpt lat="45.34418" lon="4.23009">
        <ele>723</ele>
        <time>2021-04-26T09:33:03Z</time>
      </trkpt>
      <trkpt lat="45.34419" lon="4.23017">
        <ele>723</ele>
        <time>2021-04-26T09:33:04Z</time>
      </trkpt>
      <trkpt lat="45.34421" lon="4.23025">
        <ele>723</ele>
        <time>2021-04-26T09:33:05Z</time>
      </trkpt>
      <trkpt lat="45.34423" lon="4.23033">
        <ele>723</ele>
        <time>2021-04-26T09:33:06Z</time>
      </trkpt>
      <trkpt lat="45.34424" lon="4.23041">
        <ele>723</ele>
        <time>2021-04-26T09:33:07Z</time>
      </trkpt>
      <trkpt lat="45.34426" lon="4.23049">
        <ele>723</ele>
        <time>2021-04-26T09:33:08Z</time>
      </trkpt>
      <trkpt lat="45.34428" lon="4.23058">
        <ele>723</ele>
        <time>2021-04-26T09:33:09Z</time>
      </trkpt>
      <trkpt lat="45.34429" lon="4.23066">
        <ele>722</ele>
        <time>2021-04-26T09:33:10Z</time>
      </trkpt>
      <trkpt lat="45.34429" lon="4.23074">
        <ele>722</ele>
        <time>2021-04-26T09:33:11Z</time>
      </trkpt>
      <trkpt lat="45.34429" lon="4.23082">
        <ele>722</ele>
        <time>2021-04-26T09:33:12Z</time>
      </trkpt>
      <trkpt lat="45.34429" lon="4.2309">
        <ele>722</ele>
        <time>2021-04-26T09:33:13Z</time>
      </trkpt>
      <trkpt lat="45.34429" lon="4.23098">
        <ele>722</ele>
        <time>2021-04-26T09:33:14Z</time>
      </trkpt>
      <trkpt lat="45.3443" lon="4.23105">
        <ele>722</ele>
        <time>2021-04-26T09:33:15Z</time>
      </trkpt>
      <trkpt lat="45.34431" lon="4.23112">
        <ele>722</ele>
        <time>2021-04-26T09:33:16Z</time>
      </trkpt>
      <trkpt lat="45.34432" lon="4.2312">
        <ele>722</ele>
        <time>2021-04-26T09:33:17Z</time>
      </trkpt>
      <trkpt lat="45.34432" lon="4.23128">
        <ele>722</ele>
        <time>2021-04-26T09:33:18Z</time>
      </trkpt>
      <trkpt lat="45.34432" lon="4.23136">
        <ele>721</ele>
        <time>2021-04-26T09:33:19Z</time>
      </trkpt>
      <trkpt lat="45.34432" lon="4.23144">
        <ele>721</ele>
        <time>2021-04-26T09:33:20Z</time>
      </trkpt>
      <trkpt lat="45.34431" lon="4.23151">
        <ele>721</ele>
        <time>2021-04-26T09:33:21Z</time>
      </trkpt>
      <trkpt lat="45.34432" lon="4.23158">
        <ele>721</ele>
        <time>2021-04-26T09:33:22Z</time>
      </trkpt>
      <trkpt lat="45.34432" lon="4.23165">
        <ele>721</ele>
        <time>2021-04-26T09:33:23Z</time>
      </trkpt>
      <trkpt lat="45.34432" lon="4.23173">
        <ele>721</ele>
        <time>2021-04-26T09:33:24Z</time>
      </trkpt>
      <trkpt lat="45.34433" lon="4.23179">
        <ele>721</ele>
        <time>2021-04-26T09:33:25Z</time>
      </trkpt>
      <trkpt lat="45.34433" lon="4.23186">
        <ele>721</ele>
        <time>2021-04-26T09:33:26Z</time>
      </trkpt>
      <trkpt lat="45.34433" lon="4.23193">
        <ele>721</ele>
        <time>2021-04-26T09:33:27Z</time>
      </trkpt>
      <trkpt lat="45.34434" lon="4.23199">
        <ele>721</ele>
        <time>2021-04-26T09:33:28Z</time>
      </trkpt>
      <trkpt lat="45.34434" lon="4.23205">
        <ele>721</ele>
        <time>2021-04-26T09:33:29Z</time>
      </trkpt>
      <trkpt lat="45.34434" lon="4.2321">
        <ele>721</ele>
        <time>2021-04-26T09:33:30Z</time>
      </trkpt>
      <trkpt lat="45.34434" lon="4.23216">
        <ele>721</ele>
        <time>2021-04-26T09:33:31Z</time>
      </trkpt>
      <trkpt lat="45.34434" lon="4.23222">
        <ele>721</ele>
        <time>2021-04-26T09:33:32Z</time>
      </trkpt>
      <trkpt lat="45.34434" lon="4.23228">
        <ele>721</ele>
        <time>2021-04-26T09:33:33Z</time>
      </trkpt>
      <trkpt lat="45.34434" lon="4.23233">
        <ele>721</ele>
        <time>2021-04-26T09:33:34Z</time>
      </trkpt>
      <trkpt lat="45.34435" lon="4.2324">
        <ele>721</ele>
        <time>2021-04-26T09:33:35Z</time>
      </trkpt>
      <trkpt lat="45.34435" lon="4.23252">
        <ele>721</ele>
        <time>2021-04-26T09:33:36Z</time>
      </trkpt>
      <trkpt lat="45.34436" lon="4.23259">
        <ele>721</ele>
        <time>2021-04-26T09:33:38Z</time>
      </trkpt>
      <trkpt lat="45.34437" lon="4.23266">
        <ele>721</ele>
        <time>2021-04-26T09:33:39Z</time>
      </trkpt>
      <trkpt lat="45.34439" lon="4.23273">
        <ele>721</ele>
        <time>2021-04-26T09:33:40Z</time>
      </trkpt>
      <trkpt lat="45.3444" lon="4.2328">
        <ele>720</ele>
        <time>2021-04-26T09:33:41Z</time>
      </trkpt>
      <trkpt lat="45.34442" lon="4.23288">
        <ele>720</ele>
        <time>2021-04-26T09:33:42Z</time>
      </trkpt>
      <trkpt lat="45.34444" lon="4.23296">
        <ele>720</ele>
        <time>2021-04-26T09:33:43Z</time>
      </trkpt>
      <trkpt lat="45.34446" lon="4.23303">
        <ele>720</ele>
        <time>2021-04-26T09:33:44Z</time>
      </trkpt>
      <trkpt lat="45.34448" lon="4.23311">
        <ele>720</ele>
        <time>2021-04-26T09:33:45Z</time>
      </trkpt>
      <trkpt lat="45.34451" lon="4.23319">
        <ele>720</ele>
        <time>2021-04-26T09:33:46Z</time>
      </trkpt>
      <trkpt lat="45.34452" lon="4.23327">
        <ele>720</ele>
        <time>2021-04-26T09:33:47Z</time>
      </trkpt>
      <trkpt lat="45.34454" lon="4.23335">
        <ele>720</ele>
        <time>2021-04-26T09:33:48Z</time>
      </trkpt>
      <trkpt lat="45.34455" lon="4.23342">
        <ele>720</ele>
        <time>2021-04-26T09:33:49Z</time>
      </trkpt>
      <trkpt lat="45.34456" lon="4.23349">
        <ele>720</ele>
        <time>2021-04-26T09:33:50Z</time>
      </trkpt>
      <trkpt lat="45.34457" lon="4.23356">
        <ele>720</ele>
        <time>2021-04-26T09:33:51Z</time>
      </trkpt>
      <trkpt lat="45.34457" lon="4.23362">
        <ele>720</ele>
        <time>2021-04-26T09:33:52Z</time>
      </trkpt>
      <trkpt lat="45.34457" lon="4.23368">
        <ele>720</ele>
        <time>2021-04-26T09:33:53Z</time>
      </trkpt>
      <trkpt lat="45.34457" lon="4.23374">
        <ele>720</ele>
        <time>2021-04-26T09:33:54Z</time>
      </trkpt>
      <trkpt lat="45.34457" lon="4.2338">
        <ele>721</ele>
        <time>2021-04-26T09:33:55Z</time>
      </trkpt>
      <trkpt lat="45.34457" lon="4.23385">
        <ele>721</ele>
        <time>2021-04-26T09:33:56Z</time>
      </trkpt>
      <trkpt lat="45.34457" lon="4.23391">
        <ele>722</ele>
        <time>2021-04-26T09:33:57Z</time>
      </trkpt>
      <trkpt lat="45.34457" lon="4.23396">
        <ele>722</ele>
        <time>2021-04-26T09:33:58Z</time>
      </trkpt>
      <trkpt lat="45.34457" lon="4.23401">
        <ele>722</ele>
        <time>2021-04-26T09:33:59Z</time>
      </trkpt>
      <trkpt lat="45.34457" lon="4.23405">
        <ele>722</ele>
        <time>2021-04-26T09:34:00Z</time>
      </trkpt>
      <trkpt lat="45.34456" lon="4.23407">
        <ele>722</ele>
        <time>2021-04-26T09:34:01Z</time>
      </trkpt>
      <trkpt lat="45.34456" lon="4.23412">
        <ele>723</ele>
        <time>2021-04-26T09:34:03Z</time>
      </trkpt>
      <trkpt lat="45.34459" lon="4.23416">
        <ele>723</ele>
        <time>2021-04-26T09:34:05Z</time>
      </trkpt>
      <trkpt lat="45.34461" lon="4.23418">
        <ele>724</ele>
        <time>2021-04-26T09:34:06Z</time>
      </trkpt>
      <trkpt lat="45.34463" lon="4.23419">
        <ele>724</ele>
        <time>2021-04-26T09:34:07Z</time>
      </trkpt>
      <trkpt lat="45.34466" lon="4.23421">
        <ele>724</ele>
        <time>2021-04-26T09:34:08Z</time>
      </trkpt>
      <trkpt lat="45.34469" lon="4.23423">
        <ele>724</ele>
        <time>2021-04-26T09:34:09Z</time>
      </trkpt>
      <trkpt lat="45.34471" lon="4.23425">
        <ele>724</ele>
        <time>2021-04-26T09:34:10Z</time>
      </trkpt>
      <trkpt lat="45.34474" lon="4.23427">
        <ele>724</ele>
        <time>2021-04-26T09:34:11Z</time>
      </trkpt>
      <trkpt lat="45.34476" lon="4.23431">
        <ele>725</ele>
        <time>2021-04-26T09:34:12Z</time>
      </trkpt>
      <trkpt lat="45.34478" lon="4.23435">
        <ele>725</ele>
        <time>2021-04-26T09:34:13Z</time>
      </trkpt>
      <trkpt lat="45.34479" lon="4.2344">
        <ele>725</ele>
        <time>2021-04-26T09:34:14Z</time>
      </trkpt>
      <trkpt lat="45.34481" lon="4.23445">
        <ele>726</ele>
        <time>2021-04-26T09:34:15Z</time>
      </trkpt>
      <trkpt lat="45.34482" lon="4.2345">
        <ele>726</ele>
        <time>2021-04-26T09:34:16Z</time>
      </trkpt>
      <trkpt lat="45.34482" lon="4.23455">
        <ele>726</ele>
        <time>2021-04-26T09:34:17Z</time>
      </trkpt>
      <trkpt lat="45.34482" lon="4.2346">
        <ele>726</ele>
        <time>2021-04-26T09:34:18Z</time>
      </trkpt>
      <trkpt lat="45.34482" lon="4.23463">
        <ele>726</ele>
        <time>2021-04-26T09:34:19Z</time>
      </trkpt>
      <trkpt lat="45.34483" lon="4.23467">
        <ele>726</ele>
        <time>2021-04-26T09:34:20Z</time>
      </trkpt>
      <trkpt lat="45.34484" lon="4.23469">
        <ele>726</ele>
        <time>2021-04-26T09:34:21Z</time>
      </trkpt>
      <trkpt lat="45.34485" lon="4.23473">
        <ele>727</ele>
        <time>2021-04-26T09:34:22Z</time>
      </trkpt>
      <trkpt lat="45.34486" lon="4.23476">
        <ele>727</ele>
        <time>2021-04-26T09:34:23Z</time>
      </trkpt>
      <trkpt lat="45.34487" lon="4.2348">
        <ele>727</ele>
        <time>2021-04-26T09:34:24Z</time>
      </trkpt>
      <trkpt lat="45.34487" lon="4.23484">
        <ele>727</ele>
        <time>2021-04-26T09:34:25Z</time>
      </trkpt>
      <trkpt lat="45.34488" lon="4.23487">
        <ele>727</ele>
        <time>2021-04-26T09:34:26Z</time>
      </trkpt>
      <trkpt lat="45.34488" lon="4.2349">
        <ele>727</ele>
        <time>2021-04-26T09:34:27Z</time>
      </trkpt>
      <trkpt lat="45.34488" lon="4.23493">
        <ele>727</ele>
        <time>2021-04-26T09:34:28Z</time>
      </trkpt>
      <trkpt lat="45.34487" lon="4.23496">
        <ele>727</ele>
        <time>2021-04-26T09:34:29Z</time>
      </trkpt>
      <trkpt lat="45.34485" lon="4.23498">
        <ele>727</ele>
        <time>2021-04-26T09:34:30Z</time>
      </trkpt>
      <trkpt lat="45.34484" lon="4.235">
        <ele>727</ele>
        <time>2021-04-26T09:34:31Z</time>
      </trkpt>
      <trkpt lat="45.34483" lon="4.23503">
        <ele>727</ele>
        <time>2021-04-26T09:34:32Z</time>
      </trkpt>
      <trkpt lat="45.34481" lon="4.23505">
        <ele>727</ele>
        <time>2021-04-26T09:34:33Z</time>
      </trkpt>
      <trkpt lat="45.3448" lon="4.23507">
        <ele>727</ele>
        <time>2021-04-26T09:34:34Z</time>
      </trkpt>
      <trkpt lat="45.34478" lon="4.2351">
        <ele>727</ele>
        <time>2021-04-26T09:34:35Z</time>
      </trkpt>
      <trkpt lat="45.34476" lon="4.23513">
        <ele>727</ele>
        <time>2021-04-26T09:34:36Z</time>
      </trkpt>
      <trkpt lat="45.34475" lon="4.23515">
        <ele>727</ele>
        <time>2021-04-26T09:34:37Z</time>
      </trkpt>
      <trkpt lat="45.34473" lon="4.23518">
        <ele>727</ele>
        <time>2021-04-26T09:34:38Z</time>
      </trkpt>
      <trkpt lat="45.34471" lon="4.23521">
        <ele>727</ele>
        <time>2021-04-26T09:34:39Z</time>
      </trkpt>
      <trkpt lat="45.3447" lon="4.23524">
        <ele>726</ele>
        <time>2021-04-26T09:34:40Z</time>
      </trkpt>
      <trkpt lat="45.34468" lon="4.23527">
        <ele>726</ele>
        <time>2021-04-26T09:34:41Z</time>
      </trkpt>
      <trkpt lat="45.34466" lon="4.23531">
        <ele>726</ele>
        <time>2021-04-26T09:34:42Z</time>
      </trkpt>
      <trkpt lat="45.34465" lon="4.23535">
        <ele>726</ele>
        <time>2021-04-26T09:34:43Z</time>
      </trkpt>
      <trkpt lat="45.34463" lon="4.2354">
        <ele>725</ele>
        <time>2021-04-26T09:34:44Z</time>
      </trkpt>
      <trkpt lat="45.34462" lon="4.23545">
        <ele>725</ele>
        <time>2021-04-26T09:34:45Z</time>
      </trkpt>
      <trkpt lat="45.3446" lon="4.23551">
        <ele>725</ele>
        <time>2021-04-26T09:34:46Z</time>
      </trkpt>
      <trkpt lat="45.34459" lon="4.23557">
        <ele>725</ele>
        <time>2021-04-26T09:34:47Z</time>
      </trkpt>
      <trkpt lat="45.34457" lon="4.23562">
        <ele>725</ele>
        <time>2021-04-26T09:34:48Z</time>
      </trkpt>
      <trkpt lat="45.34455" lon="4.23568">
        <ele>724</ele>
        <time>2021-04-26T09:34:49Z</time>
      </trkpt>
      <trkpt lat="45.34453" lon="4.23573">
        <ele>724</ele>
        <time>2021-04-26T09:34:50Z</time>
      </trkpt>
      <trkpt lat="45.3445" lon="4.23579">
        <ele>724</ele>
        <time>2021-04-26T09:34:51Z</time>
      </trkpt>
      <trkpt lat="45.34448" lon="4.23584">
        <ele>724</ele>
        <time>2021-04-26T09:34:52Z</time>
      </trkpt>
      <trkpt lat="45.34445" lon="4.2359">
        <ele>723</ele>
        <time>2021-04-26T09:34:53Z</time>
      </trkpt>
      <trkpt lat="45.34443" lon="4.23596">
        <ele>722</ele>
        <time>2021-04-26T09:34:54Z</time>
      </trkpt>
      <trkpt lat="45.3444" lon="4.23601">
        <ele>722</ele>
        <time>2021-04-26T09:34:55Z</time>
      </trkpt>
      <trkpt lat="45.34438" lon="4.23607">
        <ele>721</ele>
        <time>2021-04-26T09:34:56Z</time>
      </trkpt>
      <trkpt lat="45.34435" lon="4.23613">
        <ele>721</ele>
        <time>2021-04-26T09:34:57Z</time>
      </trkpt>
      <trkpt lat="45.34431" lon="4.2362">
        <ele>721</ele>
        <time>2021-04-26T09:34:58Z</time>
      </trkpt>
      <trkpt lat="45.34424" lon="4.23631">
        <ele>720</ele>
        <time>2021-04-26T09:34:59Z</time>
      </trkpt>
      <trkpt lat="45.3442" lon="4.23637">
        <ele>718</ele>
        <time>2021-04-26T09:35:01Z</time>
      </trkpt>
      <trkpt lat="45.34417" lon="4.23643">
        <ele>718</ele>
        <time>2021-04-26T09:35:02Z</time>
      </trkpt>
      <trkpt lat="45.34413" lon="4.2365">
        <ele>717</ele>
        <time>2021-04-26T09:35:03Z</time>
      </trkpt>
      <trkpt lat="45.3441" lon="4.23657">
        <ele>717</ele>
        <time>2021-04-26T09:35:04Z</time>
      </trkpt>
      <trkpt lat="45.34406" lon="4.23665">
        <ele>716</ele>
        <time>2021-04-26T09:35:05Z</time>
      </trkpt>
      <trkpt lat="45.34402" lon="4.23672">
        <ele>715</ele>
        <time>2021-04-26T09:35:06Z</time>
      </trkpt>
      <trkpt lat="45.34398" lon="4.23679">
        <ele>714</ele>
        <time>2021-04-26T09:35:07Z</time>
      </trkpt>
      <trkpt lat="45.34394" lon="4.23686">
        <ele>714</ele>
        <time>2021-04-26T09:35:08Z</time>
      </trkpt>
      <trkpt lat="45.34391" lon="4.23692">
        <ele>713</ele>
        <time>2021-04-26T09:35:09Z</time>
      </trkpt>
      <trkpt lat="45.34387" lon="4.23697">
        <ele>713</ele>
        <time>2021-04-26T09:35:10Z</time>
      </trkpt>
      <trkpt lat="45.34384" lon="4.23703">
        <ele>712</ele>
        <time>2021-04-26T09:35:11Z</time>
      </trkpt>
      <trkpt lat="45.34382" lon="4.23708">
        <ele>712</ele>
        <time>2021-04-26T09:35:12Z</time>
      </trkpt>
      <trkpt lat="45.34379" lon="4.23714">
        <ele>711</ele>
        <time>2021-04-26T09:35:13Z</time>
      </trkpt>
      <trkpt lat="45.34377" lon="4.23719">
        <ele>710</ele>
        <time>2021-04-26T09:35:14Z</time>
      </trkpt>
      <trkpt lat="45.34375" lon="4.23723">
        <ele>710</ele>
        <time>2021-04-26T09:35:15Z</time>
      </trkpt>
      <trkpt lat="45.34373" lon="4.23727">
        <ele>710</ele>
        <time>2021-04-26T09:35:16Z</time>
      </trkpt>
      <trkpt lat="45.34372" lon="4.23729">
        <ele>710</ele>
        <time>2021-04-26T09:35:17Z</time>
      </trkpt>
      <trkpt lat="45.34371" lon="4.23731">
        <ele>709</ele>
        <time>2021-04-26T09:35:18Z</time>
      </trkpt>
      <trkpt lat="45.3437" lon="4.23733">
        <ele>709</ele>
        <time>2021-04-26T09:35:19Z</time>
      </trkpt>
      <trkpt lat="45.34369" lon="4.23737">
        <ele>709</ele>
        <time>2021-04-26T09:35:20Z</time>
      </trkpt>
      <trkpt lat="45.34368" lon="4.23741">
        <ele>708</ele>
        <time>2021-04-26T09:35:21Z</time>
      </trkpt>
      <trkpt lat="45.34368" lon="4.23746">
        <ele>708</ele>
        <time>2021-04-26T09:35:22Z</time>
      </trkpt>
      <trkpt lat="45.34368" lon="4.23752">
        <ele>707</ele>
        <time>2021-04-26T09:35:23Z</time>
      </trkpt>
      <trkpt lat="45.34367" lon="4.23759">
        <ele>707</ele>
        <time>2021-04-26T09:35:24Z</time>
      </trkpt>
      <trkpt lat="45.34367" lon="4.23767">
        <ele>707</ele>
        <time>2021-04-26T09:35:25Z</time>
      </trkpt>
      <trkpt lat="45.34367" lon="4.23778">
        <ele>704</ele>
        <time>2021-04-26T09:35:26Z</time>
      </trkpt>
      <trkpt lat="45.34365" lon="4.23789">
        <ele>703</ele>
        <time>2021-04-26T09:35:27Z</time>
      </trkpt>
      <trkpt lat="45.34365" lon="4.23801">
        <ele>703</ele>
        <time>2021-04-26T09:35:28Z</time>
      </trkpt>
      <trkpt lat="45.34364" lon="4.23814">
        <ele>702</ele>
        <time>2021-04-26T09:35:29Z</time>
      </trkpt>
      <trkpt lat="45.34364" lon="4.23826">
        <ele>702</ele>
        <time>2021-04-26T09:35:30Z</time>
      </trkpt>
      <trkpt lat="45.34362" lon="4.23837">
        <ele>702</ele>
        <time>2021-04-26T09:35:31Z</time>
      </trkpt>
      <trkpt lat="45.34359" lon="4.23845">
        <ele>702</ele>
        <time>2021-04-26T09:35:32Z</time>
      </trkpt>
      <trkpt lat="45.34354" lon="4.23852">
        <ele>702</ele>
        <time>2021-04-26T09:35:33Z</time>
      </trkpt>
      <trkpt lat="45.34348" lon="4.23857">
        <ele>701</ele>
        <time>2021-04-26T09:35:34Z</time>
      </trkpt>
      <trkpt lat="45.34341" lon="4.23863">
        <ele>701</ele>
        <time>2021-04-26T09:35:35Z</time>
      </trkpt>
      <trkpt lat="45.34334" lon="4.23868">
        <ele>701</ele>
        <time>2021-04-26T09:35:36Z</time>
      </trkpt>
      <trkpt lat="45.34328" lon="4.23873">
        <ele>701</ele>
        <time>2021-04-26T09:35:37Z</time>
      </trkpt>
      <trkpt lat="45.34322" lon="4.23876">
        <ele>701</ele>
        <time>2021-04-26T09:35:38Z</time>
      </trkpt>
      <trkpt lat="45.34316" lon="4.23877">
        <ele>700</ele>
        <time>2021-04-26T09:35:39Z</time>
      </trkpt>
      <trkpt lat="45.34311" lon="4.23878">
        <ele>699</ele>
        <time>2021-04-26T09:35:40Z</time>
      </trkpt>
      <trkpt lat="45.34306" lon="4.23879">
        <ele>699</ele>
        <time>2021-04-26T09:35:41Z</time>
      </trkpt>
      <trkpt lat="45.34302" lon="4.23883">
        <ele>699</ele>
        <time>2021-04-26T09:35:42Z</time>
      </trkpt>
      <trkpt lat="45.34301" lon="4.2389">
        <ele>698</ele>
        <time>2021-04-26T09:35:43Z</time>
      </trkpt>
      <trkpt lat="45.34301" lon="4.23905">
        <ele>697</ele>
        <time>2021-04-26T09:35:45Z</time>
      </trkpt>
      <trkpt lat="45.34307" lon="4.23921">
        <ele>697</ele>
        <time>2021-04-26T09:35:47Z</time>
      </trkpt>
      <trkpt lat="45.34318" lon="4.23939">
        <ele>695</ele>
        <time>2021-04-26T09:35:49Z</time>
      </trkpt>
      <trkpt lat="45.34326" lon="4.23957">
        <ele>694</ele>
        <time>2021-04-26T09:35:51Z</time>
      </trkpt>
      <trkpt lat="45.34332" lon="4.23978">
        <ele>694</ele>
        <time>2021-04-26T09:35:53Z</time>
      </trkpt>
      <trkpt lat="45.34332" lon="4.23991">
        <ele>692</ele>
        <time>2021-04-26T09:35:54Z</time>
      </trkpt>
      <trkpt lat="45.34328" lon="4.24014">
        <ele>690</ele>
        <time>2021-04-26T09:35:56Z</time>
      </trkpt>
      <trkpt lat="45.34326" lon="4.24029">
        <ele>688</ele>
        <time>2021-04-26T09:35:57Z</time>
      </trkpt>
      <trkpt lat="45.34327" lon="4.24043">
        <ele>685</ele>
        <time>2021-04-26T09:35:58Z</time>
      </trkpt>
      <trkpt lat="45.34326" lon="4.24056">
        <ele>683</ele>
        <time>2021-04-26T09:35:59Z</time>
      </trkpt>
      <trkpt lat="45.34324" lon="4.24059">
        <ele>680</ele>
        <time>2021-04-26T09:36:07Z</time>
      </trkpt>
      <trkpt lat="45.34327" lon="4.24065">
        <ele>673</ele>
        <time>2021-04-26T09:36:21Z</time>
      </trkpt>
      <trkpt lat="45.34327" lon="4.24069">
        <ele>671</ele>
        <time>2021-04-26T09:36:22Z</time>
      </trkpt>
      <trkpt lat="45.34328" lon="4.24073">
        <ele>671</ele>
        <time>2021-04-26T09:36:23Z</time>
      </trkpt>
      <trkpt lat="45.34329" lon="4.24087">
        <ele>669</ele>
        <time>2021-04-26T09:36:26Z</time>
      </trkpt>
      <trkpt lat="45.3433" lon="4.24091">
        <ele>668</ele>
        <time>2021-04-26T09:36:27Z</time>
      </trkpt>
      <trkpt lat="45.34334" lon="4.24109">
        <ele>667</ele>
        <time>2021-04-26T09:36:30Z</time>
      </trkpt>
      <trkpt lat="45.34335" lon="4.24128">
        <ele>667</ele>
        <time>2021-04-26T09:36:32Z</time>
      </trkpt>
      <trkpt lat="45.34336" lon="4.2415">
        <ele>665</ele>
        <time>2021-04-26T09:36:34Z</time>
      </trkpt>
      <trkpt lat="45.3433" lon="4.24166">
        <ele>663</ele>
        <time>2021-04-26T09:36:36Z</time>
      </trkpt>
      <trkpt lat="45.34325" lon="4.24183">
        <ele>661</ele>
        <time>2021-04-26T09:36:38Z</time>
      </trkpt>
      <trkpt lat="45.34323" lon="4.24207">
        <ele>661</ele>
        <time>2021-04-26T09:36:40Z</time>
      </trkpt>
      <trkpt lat="45.34324" lon="4.24231">
        <ele>656</ele>
        <time>2021-04-26T09:36:42Z</time>
      </trkpt>
      <trkpt lat="45.34323" lon="4.24245">
        <ele>654</ele>
        <time>2021-04-26T09:36:43Z</time>
      </trkpt>
      <trkpt lat="45.34322" lon="4.24258">
        <ele>653</ele>
        <time>2021-04-26T09:36:44Z</time>
      </trkpt>
      <trkpt lat="45.3432" lon="4.24271">
        <ele>653</ele>
        <time>2021-04-26T09:36:45Z</time>
      </trkpt>
      <trkpt lat="45.34315" lon="4.24291">
        <ele>650</ele>
        <time>2021-04-26T09:36:47Z</time>
      </trkpt>
      <trkpt lat="45.34307" lon="4.24309">
        <ele>648</ele>
        <time>2021-04-26T09:36:49Z</time>
      </trkpt>
      <trkpt lat="45.34297" lon="4.24324">
        <ele>647</ele>
        <time>2021-04-26T09:36:51Z</time>
      </trkpt>
      <trkpt lat="45.34288" lon="4.24337">
        <ele>647</ele>
        <time>2021-04-26T09:36:53Z</time>
      </trkpt>
      <trkpt lat="45.34279" lon="4.24349">
        <ele>645</ele>
        <time>2021-04-26T09:36:54Z</time>
      </trkpt>
      <trkpt lat="45.34272" lon="4.24363">
        <ele>643</ele>
        <time>2021-04-26T09:36:57Z</time>
      </trkpt>
      <trkpt lat="45.34273" lon="4.24377">
        <ele>643</ele>
        <time>2021-04-26T09:36:59Z</time>
      </trkpt>
      <trkpt lat="45.34283" lon="4.24388">
        <ele>643</ele>
        <time>2021-04-26T09:37:01Z</time>
      </trkpt>
      <trkpt lat="45.3429" lon="4.24401">
        <ele>637</ele>
        <time>2021-04-26T09:37:03Z</time>
      </trkpt>
      <trkpt lat="45.34288" lon="4.24421">
        <ele>636</ele>
        <time>2021-04-26T09:37:06Z</time>
      </trkpt>
      <trkpt lat="45.3428" lon="4.24434">
        <ele>635</ele>
        <time>2021-04-26T09:37:08Z</time>
      </trkpt>
      <trkpt lat="45.34268" lon="4.2444">
        <ele>635</ele>
        <time>2021-04-26T09:37:10Z</time>
      </trkpt>
      <trkpt lat="45.34261" lon="4.2444">
        <ele>633</ele>
        <time>2021-04-26T09:37:11Z</time>
      </trkpt>
      <trkpt lat="45.34254" lon="4.24438">
        <ele>633</ele>
        <time>2021-04-26T09:37:12Z</time>
      </trkpt>
      <trkpt lat="45.34247" lon="4.24434">
        <ele>632</ele>
        <time>2021-04-26T09:37:13Z</time>
      </trkpt>
      <trkpt lat="45.34242" lon="4.2443">
        <ele>632</ele>
        <time>2021-04-26T09:37:14Z</time>
      </trkpt>
      <trkpt lat="45.34236" lon="4.24425">
        <ele>631</ele>
        <time>2021-04-26T09:37:15Z</time>
      </trkpt>
      <trkpt lat="45.34231" lon="4.24421">
        <ele>631</ele>
        <time>2021-04-26T09:37:16Z</time>
      </trkpt>
      <trkpt lat="45.34225" lon="4.24418">
        <ele>630</ele>
        <time>2021-04-26T09:37:17Z</time>
      </trkpt>
      <trkpt lat="45.34219" lon="4.24416">
        <ele>630</ele>
        <time>2021-04-26T09:37:18Z</time>
      </trkpt>
      <trkpt lat="45.34214" lon="4.24413">
        <ele>629</ele>
        <time>2021-04-26T09:37:19Z</time>
      </trkpt>
      <trkpt lat="45.34209" lon="4.2441">
        <ele>629</ele>
        <time>2021-04-26T09:37:20Z</time>
      </trkpt>
      <trkpt lat="45.34205" lon="4.24405">
        <ele>628</ele>
        <time>2021-04-26T09:37:21Z</time>
      </trkpt>
      <trkpt lat="45.342" lon="4.244">
        <ele>628</ele>
        <time>2021-04-26T09:37:22Z</time>
      </trkpt>
      <trkpt lat="45.34196" lon="4.24395">
        <ele>627</ele>
        <time>2021-04-26T09:37:23Z</time>
      </trkpt>
      <trkpt lat="45.34193" lon="4.24391">
        <ele>626</ele>
        <time>2021-04-26T09:37:24Z</time>
      </trkpt>
      <trkpt lat="45.3419" lon="4.24387">
        <ele>625</ele>
        <time>2021-04-26T09:37:25Z</time>
      </trkpt>
      <trkpt lat="45.34187" lon="4.24384">
        <ele>625</ele>
        <time>2021-04-26T09:37:26Z</time>
      </trkpt>
      <trkpt lat="45.34183" lon="4.24381">
        <ele>623</ele>
        <time>2021-04-26T09:37:27Z</time>
      </trkpt>
      <trkpt lat="45.34181" lon="4.24378">
        <ele>622</ele>
        <time>2021-04-26T09:37:28Z</time>
      </trkpt>
      <trkpt lat="45.34178" lon="4.24374">
        <ele>622</ele>
        <time>2021-04-26T09:37:29Z</time>
      </trkpt>
      <trkpt lat="45.34176" lon="4.2437">
        <ele>621</ele>
        <time>2021-04-26T09:37:30Z</time>
      </trkpt>
      <trkpt lat="45.34174" lon="4.24365">
        <ele>621</ele>
        <time>2021-04-26T09:37:31Z</time>
      </trkpt>
      <trkpt lat="45.34175" lon="4.24359">
        <ele>620</ele>
        <time>2021-04-26T09:37:32Z</time>
      </trkpt>
      <trkpt lat="45.34176" lon="4.24352">
        <ele>620</ele>
        <time>2021-04-26T09:37:33Z</time>
      </trkpt>
      <trkpt lat="45.34177" lon="4.24346">
        <ele>619</ele>
        <time>2021-04-26T09:37:34Z</time>
      </trkpt>
      <trkpt lat="45.34178" lon="4.2434">
        <ele>618</ele>
        <time>2021-04-26T09:37:35Z</time>
      </trkpt>
      <trkpt lat="45.3418" lon="4.24335">
        <ele>617</ele>
        <time>2021-04-26T09:37:36Z</time>
      </trkpt>
      <trkpt lat="45.34181" lon="4.24329">
        <ele>617</ele>
        <time>2021-04-26T09:37:37Z</time>
      </trkpt>
      <trkpt lat="45.34183" lon="4.24324">
        <ele>617</ele>
        <time>2021-04-26T09:37:38Z</time>
      </trkpt>
      <trkpt lat="45.34185" lon="4.24319">
        <ele>614</ele>
        <time>2021-04-26T09:37:39Z</time>
      </trkpt>
      <trkpt lat="45.34187" lon="4.24313">
        <ele>613</ele>
        <time>2021-04-26T09:37:40Z</time>
      </trkpt>
      <trkpt lat="45.34189" lon="4.24308">
        <ele>612</ele>
        <time>2021-04-26T09:37:41Z</time>
      </trkpt>
      <trkpt lat="45.34192" lon="4.24302">
        <ele>611</ele>
        <time>2021-04-26T09:37:42Z</time>
      </trkpt>
      <trkpt lat="45.34194" lon="4.24297">
        <ele>610</ele>
        <time>2021-04-26T09:37:43Z</time>
      </trkpt>
      <trkpt lat="45.34195" lon="4.24292">
        <ele>610</ele>
        <time>2021-04-26T09:37:44Z</time>
      </trkpt>
      <trkpt lat="45.34196" lon="4.24287">
        <ele>609</ele>
        <time>2021-04-26T09:37:45Z</time>
      </trkpt>
      <trkpt lat="45.34198" lon="4.24282">
        <ele>609</ele>
        <time>2021-04-26T09:37:46Z</time>
      </trkpt>
      <trkpt lat="45.342" lon="4.24277">
        <ele>609</ele>
        <time>2021-04-26T09:37:47Z</time>
      </trkpt>
      <trkpt lat="45.34201" lon="4.24272">
        <ele>608</ele>
        <time>2021-04-26T09:37:48Z</time>
      </trkpt>
      <trkpt lat="45.34203" lon="4.24267">
        <ele>608</ele>
        <time>2021-04-26T09:37:49Z</time>
      </trkpt>
      <trkpt lat="45.34204" lon="4.24262">
        <ele>608</ele>
        <time>2021-04-26T09:37:50Z</time>
      </trkpt>
      <trkpt lat="45.34206" lon="4.24257">
        <ele>607</ele>
        <time>2021-04-26T09:37:51Z</time>
      </trkpt>
      <trkpt lat="45.34207" lon="4.24252">
        <ele>607</ele>
        <time>2021-04-26T09:37:52Z</time>
      </trkpt>
      <trkpt lat="45.34208" lon="4.24247">
        <ele>607</ele>
        <time>2021-04-26T09:37:53Z</time>
      </trkpt>
      <trkpt lat="45.34209" lon="4.24241">
        <ele>606</ele>
        <time>2021-04-26T09:37:54Z</time>
      </trkpt>
      <trkpt lat="45.34209" lon="4.24236">
        <ele>606</ele>
        <time>2021-04-26T09:37:55Z</time>
      </trkpt>
      <trkpt lat="45.3421" lon="4.24231">
        <ele>606</ele>
        <time>2021-04-26T09:37:56Z</time>
      </trkpt>
      <trkpt lat="45.3421" lon="4.24226">
        <ele>605</ele>
        <time>2021-04-26T09:37:57Z</time>
      </trkpt>
      <trkpt lat="45.3421" lon="4.2422">
        <ele>605</ele>
        <time>2021-04-26T09:37:58Z</time>
      </trkpt>
      <trkpt lat="45.3421" lon="4.24216">
        <ele>605</ele>
        <time>2021-04-26T09:37:59Z</time>
      </trkpt>
      <trkpt lat="45.3421" lon="4.24211">
        <ele>605</ele>
        <time>2021-04-26T09:38:00Z</time>
      </trkpt>
      <trkpt lat="45.3421" lon="4.24206">
        <ele>604</ele>
        <time>2021-04-26T09:38:01Z</time>
      </trkpt>
      <trkpt lat="45.34209" lon="4.24202">
        <ele>604</ele>
        <time>2021-04-26T09:38:02Z</time>
      </trkpt>
      <trkpt lat="45.34209" lon="4.24197">
        <ele>604</ele>
        <time>2021-04-26T09:38:03Z</time>
      </trkpt>
      <trkpt lat="45.34209" lon="4.24193">
        <ele>604</ele>
        <time>2021-04-26T09:38:04Z</time>
      </trkpt>
      <trkpt lat="45.34209" lon="4.24189">
        <ele>603</ele>
        <time>2021-04-26T09:38:05Z</time>
      </trkpt>
      <trkpt lat="45.34208" lon="4.24185">
        <ele>602</ele>
        <time>2021-04-26T09:38:06Z</time>
      </trkpt>
      <trkpt lat="45.34207" lon="4.2418">
        <ele>602</ele>
        <time>2021-04-26T09:38:07Z</time>
      </trkpt>
      <trkpt lat="45.34207" lon="4.24176">
        <ele>602</ele>
        <time>2021-04-26T09:38:08Z</time>
      </trkpt>
      <trkpt lat="45.34206" lon="4.24172">
        <ele>601</ele>
        <time>2021-04-26T09:38:09Z</time>
      </trkpt>
      <trkpt lat="45.34206" lon="4.24168">
        <ele>601</ele>
        <time>2021-04-26T09:38:10Z</time>
      </trkpt>
      <trkpt lat="45.34204" lon="4.24164">
        <ele>601</ele>
        <time>2021-04-26T09:38:11Z</time>
      </trkpt>
      <trkpt lat="45.34203" lon="4.2416">
        <ele>601</ele>
        <time>2021-04-26T09:38:12Z</time>
      </trkpt>
      <trkpt lat="45.34201" lon="4.24156">
        <ele>600</ele>
        <time>2021-04-26T09:38:13Z</time>
      </trkpt>
      <trkpt lat="45.342" lon="4.24152">
        <ele>600</ele>
        <time>2021-04-26T09:38:14Z</time>
      </trkpt>
      <trkpt lat="45.34199" lon="4.24148">
        <ele>600</ele>
        <time>2021-04-26T09:38:15Z</time>
      </trkpt>
      <trkpt lat="45.34198" lon="4.24144">
        <ele>600</ele>
        <time>2021-04-26T09:38:16Z</time>
      </trkpt>
      <trkpt lat="45.34197" lon="4.24141">
        <ele>600</ele>
        <time>2021-04-26T09:38:17Z</time>
      </trkpt>
      <trkpt lat="45.34195" lon="4.24137">
        <ele>600</ele>
        <time>2021-04-26T09:38:18Z</time>
      </trkpt>
      <trkpt lat="45.3419" lon="4.24124">
        <ele>600</ele>
        <time>2021-04-26T09:38:22Z</time>
      </trkpt>
      <trkpt lat="45.34188" lon="4.24122">
        <ele>599</ele>
        <time>2021-04-26T09:38:23Z</time>
      </trkpt>
      <trkpt lat="45.34186" lon="4.24119">
        <ele>599</ele>
        <time>2021-04-26T09:38:24Z</time>
      </trkpt>
      <trkpt lat="45.3418" lon="4.24115">
        <ele>600</ele>
        <time>2021-04-26T09:38:26Z</time>
      </trkpt>
      <trkpt lat="45.34178" lon="4.24113">
        <ele>600</ele>
        <time>2021-04-26T09:38:27Z</time>
      </trkpt>
      <trkpt lat="45.34175" lon="4.24111">
        <ele>600</ele>
        <time>2021-04-26T09:38:28Z</time>
      </trkpt>
      <trkpt lat="45.34171" lon="4.2411">
        <ele>600</ele>
        <time>2021-04-26T09:38:29Z</time>
      </trkpt>
      <trkpt lat="45.34168" lon="4.24108">
        <ele>600</ele>
        <time>2021-04-26T09:38:30Z</time>
      </trkpt>
      <trkpt lat="45.34165" lon="4.24107">
        <ele>600</ele>
        <time>2021-04-26T09:38:31Z</time>
      </trkpt>
      <trkpt lat="45.34161" lon="4.24106">
        <ele>601</ele>
        <time>2021-04-26T09:38:32Z</time>
      </trkpt>
      <trkpt lat="45.34158" lon="4.24105">
        <ele>601</ele>
        <time>2021-04-26T09:38:33Z</time>
      </trkpt>
      <trkpt lat="45.34154" lon="4.24104">
        <ele>601</ele>
        <time>2021-04-26T09:38:34Z</time>
      </trkpt>
      <trkpt lat="45.3415" lon="4.24104">
        <ele>601</ele>
        <time>2021-04-26T09:38:35Z</time>
      </trkpt>
      <trkpt lat="45.34147" lon="4.24104">
        <ele>602</ele>
        <time>2021-04-26T09:38:36Z</time>
      </trkpt>
      <trkpt lat="45.34143" lon="4.24105">
        <ele>602</ele>
        <time>2021-04-26T09:38:37Z</time>
      </trkpt>
      <trkpt lat="45.3414" lon="4.24106">
        <ele>602</ele>
        <time>2021-04-26T09:38:38Z</time>
      </trkpt>
      <trkpt lat="45.34137" lon="4.24107">
        <ele>602</ele>
        <time>2021-04-26T09:38:39Z</time>
      </trkpt>
      <trkpt lat="45.34134" lon="4.24108">
        <ele>602</ele>
        <time>2021-04-26T09:38:40Z</time>
      </trkpt>
      <trkpt lat="45.34131" lon="4.24109">
        <ele>602</ele>
        <time>2021-04-26T09:38:41Z</time>
      </trkpt>
      <trkpt lat="45.34128" lon="4.2411">
        <ele>602</ele>
        <time>2021-04-26T09:38:42Z</time>
      </trkpt>
      <trkpt lat="45.34124" lon="4.24111">
        <ele>602</ele>
        <time>2021-04-26T09:38:43Z</time>
      </trkpt>
      <trkpt lat="45.34121" lon="4.24113">
        <ele>602</ele>
        <time>2021-04-26T09:38:44Z</time>
      </trkpt>
      <trkpt lat="45.34118" lon="4.24117">
        <ele>602</ele>
        <time>2021-04-26T09:38:45Z</time>
      </trkpt>
      <trkpt lat="45.34115" lon="4.2412">
        <ele>603</ele>
        <time>2021-04-26T09:38:46Z</time>
      </trkpt>
      <trkpt lat="45.34112" lon="4.24123">
        <ele>603</ele>
        <time>2021-04-26T09:38:47Z</time>
      </trkpt>
      <trkpt lat="45.34109" lon="4.24126">
        <ele>603</ele>
        <time>2021-04-26T09:38:48Z</time>
      </trkpt>
      <trkpt lat="45.34105" lon="4.24129">
        <ele>603</ele>
        <time>2021-04-26T09:38:49Z</time>
      </trkpt>
      <trkpt lat="45.34102" lon="4.24132">
        <ele>603</ele>
        <time>2021-04-26T09:38:50Z</time>
      </trkpt>
      <trkpt lat="45.34099" lon="4.24135">
        <ele>603</ele>
        <time>2021-04-26T09:38:51Z</time>
      </trkpt>
      <trkpt lat="45.34096" lon="4.24138">
        <ele>603</ele>
        <time>2021-04-26T09:38:52Z</time>
      </trkpt>
      <trkpt lat="45.34092" lon="4.24141">
        <ele>603</ele>
        <time>2021-04-26T09:38:53Z</time>
      </trkpt>
      <trkpt lat="45.34089" lon="4.24144">
        <ele>602</ele>
        <time>2021-04-26T09:38:54Z</time>
      </trkpt>
      <trkpt lat="45.34086" lon="4.24148">
        <ele>602</ele>
        <time>2021-04-26T09:38:55Z</time>
      </trkpt>
      <trkpt lat="45.34083" lon="4.24151">
        <ele>602</ele>
        <time>2021-04-26T09:38:56Z</time>
      </trkpt>
      <trkpt lat="45.3408" lon="4.24155">
        <ele>602</ele>
        <time>2021-04-26T09:38:57Z</time>
      </trkpt>
      <trkpt lat="45.34077" lon="4.24158">
        <ele>602</ele>
        <time>2021-04-26T09:38:58Z</time>
      </trkpt>
      <trkpt lat="45.34073" lon="4.24161">
        <ele>602</ele>
        <time>2021-04-26T09:38:59Z</time>
      </trkpt>
      <trkpt lat="45.3407" lon="4.24165">
        <ele>602</ele>
        <time>2021-04-26T09:39:00Z</time>
      </trkpt>
      <trkpt lat="45.34067" lon="4.24168">
        <ele>602</ele>
        <time>2021-04-26T09:39:01Z</time>
      </trkpt>
      <trkpt lat="45.34065" lon="4.24172">
        <ele>602</ele>
        <time>2021-04-26T09:39:02Z</time>
      </trkpt>
      <trkpt lat="45.34062" lon="4.24177">
        <ele>602</ele>
        <time>2021-04-26T09:39:03Z</time>
      </trkpt>
      <trkpt lat="45.34059" lon="4.24181">
        <ele>602</ele>
        <time>2021-04-26T09:39:04Z</time>
      </trkpt>
      <trkpt lat="45.34057" lon="4.24185">
        <ele>602</ele>
        <time>2021-04-26T09:39:05Z</time>
      </trkpt>
      <trkpt lat="45.34054" lon="4.24189">
        <ele>602</ele>
        <time>2021-04-26T09:39:06Z</time>
      </trkpt>
      <trkpt lat="45.34052" lon="4.24194">
        <ele>602</ele>
        <time>2021-04-26T09:39:07Z</time>
      </trkpt>
      <trkpt lat="45.3405" lon="4.24198">
        <ele>602</ele>
        <time>2021-04-26T09:39:08Z</time>
      </trkpt>
      <trkpt lat="45.34048" lon="4.24203">
        <ele>602</ele>
        <time>2021-04-26T09:39:09Z</time>
      </trkpt>
      <trkpt lat="45.34047" lon="4.24208">
        <ele>601</ele>
        <time>2021-04-26T09:39:10Z</time>
      </trkpt>
      <trkpt lat="45.34046" lon="4.24213">
        <ele>601</ele>
        <time>2021-04-26T09:39:11Z</time>
      </trkpt>
      <trkpt lat="45.34044" lon="4.24218">
        <ele>601</ele>
        <time>2021-04-26T09:39:12Z</time>
      </trkpt>
      <trkpt lat="45.34043" lon="4.24222">
        <ele>601</ele>
        <time>2021-04-26T09:39:13Z</time>
      </trkpt>
      <trkpt lat="45.34041" lon="4.24227">
        <ele>601</ele>
        <time>2021-04-26T09:39:14Z</time>
      </trkpt>
      <trkpt lat="45.3404" lon="4.24232">
        <ele>601</ele>
        <time>2021-04-26T09:39:15Z</time>
      </trkpt>
      <trkpt lat="45.34038" lon="4.24237">
        <ele>600</ele>
        <time>2021-04-26T09:39:16Z</time>
      </trkpt>
      <trkpt lat="45.34037" lon="4.24242">
        <ele>600</ele>
        <time>2021-04-26T09:39:17Z</time>
      </trkpt>
      <trkpt lat="45.34036" lon="4.24247">
        <ele>600</ele>
        <time>2021-04-26T09:39:18Z</time>
      </trkpt>
      <trkpt lat="45.34035" lon="4.24252">
        <ele>600</ele>
        <time>2021-04-26T09:39:19Z</time>
      </trkpt>
      <trkpt lat="45.34031" lon="4.24266">
        <ele>599</ele>
        <time>2021-04-26T09:39:22Z</time>
      </trkpt>
      <trkpt lat="45.34028" lon="4.24276">
        <ele>599</ele>
        <time>2021-04-26T09:39:24Z</time>
      </trkpt>
      <trkpt lat="45.34027" lon="4.2428">
        <ele>599</ele>
        <time>2021-04-26T09:39:25Z</time>
      </trkpt>
      <trkpt lat="45.34026" lon="4.24285">
        <ele>598</ele>
        <time>2021-04-26T09:39:26Z</time>
      </trkpt>
      <trkpt lat="45.34026" lon="4.24289">
        <ele>598</ele>
        <time>2021-04-26T09:39:27Z</time>
      </trkpt>
      <trkpt lat="45.34025" lon="4.24293">
        <ele>598</ele>
        <time>2021-04-26T09:39:28Z</time>
      </trkpt>
      <trkpt lat="45.34024" lon="4.24297">
        <ele>598</ele>
        <time>2021-04-26T09:39:29Z</time>
      </trkpt>
      <trkpt lat="45.34023" lon="4.243">
        <ele>597</ele>
        <time>2021-04-26T09:39:30Z</time>
      </trkpt>
      <trkpt lat="45.34022" lon="4.24302">
        <ele>597</ele>
        <time>2021-04-26T09:39:31Z</time>
      </trkpt>
      <trkpt lat="45.3402" lon="4.24304">
        <ele>597</ele>
        <time>2021-04-26T09:39:32Z</time>
      </trkpt>
      <trkpt lat="45.34017" lon="4.24305">
        <ele>597</ele>
        <time>2021-04-26T09:39:33Z</time>
      </trkpt>
      <trkpt lat="45.34015" lon="4.24305">
        <ele>597</ele>
        <time>2021-04-26T09:39:34Z</time>
      </trkpt>
      <trkpt lat="45.34012" lon="4.24306">
        <ele>597</ele>
        <time>2021-04-26T09:39:35Z</time>
      </trkpt>
      <trkpt lat="45.34009" lon="4.24307">
        <ele>597</ele>
        <time>2021-04-26T09:39:36Z</time>
      </trkpt>
      <trkpt lat="45.34006" lon="4.24308">
        <ele>597</ele>
        <time>2021-04-26T09:39:37Z</time>
      </trkpt>
      <trkpt lat="45.34002" lon="4.24309">
        <ele>598</ele>
        <time>2021-04-26T09:39:38Z</time>
      </trkpt>
      <trkpt lat="45.34" lon="4.24309">
        <ele>598</ele>
        <time>2021-04-26T09:39:39Z</time>
      </trkpt>
      <trkpt lat="45.33997" lon="4.24309">
        <ele>598</ele>
        <time>2021-04-26T09:39:40Z</time>
      </trkpt>
      <trkpt lat="45.33994" lon="4.2431">
        <ele>598</ele>
        <time>2021-04-26T09:39:41Z</time>
      </trkpt>
      <trkpt lat="45.3399" lon="4.24311">
        <ele>599</ele>
        <time>2021-04-26T09:39:42Z</time>
      </trkpt>
      <trkpt lat="45.33988" lon="4.24313">
        <ele>599</ele>
        <time>2021-04-26T09:39:43Z</time>
      </trkpt>
      <trkpt lat="45.33986" lon="4.24315">
        <ele>600</ele>
        <time>2021-04-26T09:39:44Z</time>
      </trkpt>
      <trkpt lat="45.33984" lon="4.24318">
        <ele>600</ele>
        <time>2021-04-26T09:39:45Z</time>
      </trkpt>
      <trkpt lat="45.33982" lon="4.24322">
        <ele>600</ele>
        <time>2021-04-26T09:39:46Z</time>
      </trkpt>
      <trkpt lat="45.33981" lon="4.24326">
        <ele>600</ele>
        <time>2021-04-26T09:39:47Z</time>
      </trkpt>
      <trkpt lat="45.3398" lon="4.2433">
        <ele>600</ele>
        <time>2021-04-26T09:39:48Z</time>
      </trkpt>
      <trkpt lat="45.33979" lon="4.24334">
        <ele>600</ele>
        <time>2021-04-26T09:39:49Z</time>
      </trkpt>
      <trkpt lat="45.33978" lon="4.24338">
        <ele>600</ele>
        <time>2021-04-26T09:39:50Z</time>
      </trkpt>
      <trkpt lat="45.33977" lon="4.24342">
        <ele>601</ele>
        <time>2021-04-26T09:39:51Z</time>
      </trkpt>
      <trkpt lat="45.33976" lon="4.24346">
        <ele>601</ele>
        <time>2021-04-26T09:39:52Z</time>
      </trkpt>
      <trkpt lat="45.33975" lon="4.24351">
        <ele>601</ele>
        <time>2021-04-26T09:39:53Z</time>
      </trkpt>
      <trkpt lat="45.33974" lon="4.24356">
        <ele>601</ele>
        <time>2021-04-26T09:39:54Z</time>
      </trkpt>
      <trkpt lat="45.33973" lon="4.24361">
        <ele>601</ele>
        <time>2021-04-26T09:39:55Z</time>
      </trkpt>
      <trkpt lat="45.33971" lon="4.24366">
        <ele>601</ele>
        <time>2021-04-26T09:39:56Z</time>
      </trkpt>
      <trkpt lat="45.33969" lon="4.24371">
        <ele>601</ele>
        <time>2021-04-26T09:39:57Z</time>
      </trkpt>
      <trkpt lat="45.33967" lon="4.24376">
        <ele>602</ele>
        <time>2021-04-26T09:39:58Z</time>
      </trkpt>
      <trkpt lat="45.33963" lon="4.24385">
        <ele>602</ele>
        <time>2021-04-26T09:39:59Z</time>
      </trkpt>
      <trkpt lat="45.33962" lon="4.24391">
        <ele>602</ele>
        <time>2021-04-26T09:40:01Z</time>
      </trkpt>
      <trkpt lat="45.3396" lon="4.24396">
        <ele>602</ele>
        <time>2021-04-26T09:40:02Z</time>
      </trkpt>
      <trkpt lat="45.33959" lon="4.24405">
        <ele>602</ele>
        <time>2021-04-26T09:40:04Z</time>
      </trkpt>
      <trkpt lat="45.33957" lon="4.2441">
        <ele>603</ele>
        <time>2021-04-26T09:40:05Z</time>
      </trkpt>
      <trkpt lat="45.33955" lon="4.24415">
        <ele>603</ele>
        <time>2021-04-26T09:40:06Z</time>
      </trkpt>
      <trkpt lat="45.33954" lon="4.24419">
        <ele>603</ele>
        <time>2021-04-26T09:40:07Z</time>
      </trkpt>
      <trkpt lat="45.33953" lon="4.24424">
        <ele>603</ele>
        <time>2021-04-26T09:40:08Z</time>
      </trkpt>
      <trkpt lat="45.33952" lon="4.24429">
        <ele>603</ele>
        <time>2021-04-26T09:40:09Z</time>
      </trkpt>
      <trkpt lat="45.33951" lon="4.24434">
        <ele>604</ele>
        <time>2021-04-26T09:40:10Z</time>
      </trkpt>
      <trkpt lat="45.33948" lon="4.24439">
        <ele>604</ele>
        <time>2021-04-26T09:40:11Z</time>
      </trkpt>
      <trkpt lat="45.33945" lon="4.24444">
        <ele>604</ele>
        <time>2021-04-26T09:40:12Z</time>
      </trkpt>
      <trkpt lat="45.33943" lon="4.24449">
        <ele>604</ele>
        <time>2021-04-26T09:40:13Z</time>
      </trkpt>
      <trkpt lat="45.3394" lon="4.24453">
        <ele>604</ele>
        <time>2021-04-26T09:40:14Z</time>
      </trkpt>
      <trkpt lat="45.33937" lon="4.24458">
        <ele>604</ele>
        <time>2021-04-26T09:40:15Z</time>
      </trkpt>
      <trkpt lat="45.33932" lon="4.24462">
        <ele>604</ele>
        <time>2021-04-26T09:40:16Z</time>
      </trkpt>
      <trkpt lat="45.33928" lon="4.24467">
        <ele>604</ele>
        <time>2021-04-26T09:40:17Z</time>
      </trkpt>
      <trkpt lat="45.33924" lon="4.24471">
        <ele>604</ele>
        <time>2021-04-26T09:40:18Z</time>
      </trkpt>
      <trkpt lat="45.3392" lon="4.24475">
        <ele>604</ele>
        <time>2021-04-26T09:40:19Z</time>
      </trkpt>
      <trkpt lat="45.33916" lon="4.24478">
        <ele>604</ele>
        <time>2021-04-26T09:40:20Z</time>
      </trkpt>
      <trkpt lat="45.33912" lon="4.24482">
        <ele>604</ele>
        <time>2021-04-26T09:40:21Z</time>
      </trkpt>
      <trkpt lat="45.33907" lon="4.24485">
        <ele>604</ele>
        <time>2021-04-26T09:40:22Z</time>
      </trkpt>
      <trkpt lat="45.33903" lon="4.24487">
        <ele>604</ele>
        <time>2021-04-26T09:40:23Z</time>
      </trkpt>
      <trkpt lat="45.33898" lon="4.2449">
        <ele>604</ele>
        <time>2021-04-26T09:40:24Z</time>
      </trkpt>
      <trkpt lat="45.33894" lon="4.24491">
        <ele>604</ele>
        <time>2021-04-26T09:40:25Z</time>
      </trkpt>
      <trkpt lat="45.3389" lon="4.24493">
        <ele>604</ele>
        <time>2021-04-26T09:40:26Z</time>
      </trkpt>
      <trkpt lat="45.33886" lon="4.24494">
        <ele>604</ele>
        <time>2021-04-26T09:40:27Z</time>
      </trkpt>
      <trkpt lat="45.33882" lon="4.24495">
        <ele>604</ele>
        <time>2021-04-26T09:40:28Z</time>
      </trkpt>
      <trkpt lat="45.33878" lon="4.24496">
        <ele>603</ele>
        <time>2021-04-26T09:40:29Z</time>
      </trkpt>
      <trkpt lat="45.33874" lon="4.24497">
        <ele>603</ele>
        <time>2021-04-26T09:40:30Z</time>
      </trkpt>
      <trkpt lat="45.3387" lon="4.24498">
        <ele>603</ele>
        <time>2021-04-26T09:40:31Z</time>
      </trkpt>
      <trkpt lat="45.33867" lon="4.24499">
        <ele>603</ele>
        <time>2021-04-26T09:40:32Z</time>
      </trkpt>
      <trkpt lat="45.33863" lon="4.24501">
        <ele>603</ele>
        <time>2021-04-26T09:40:33Z</time>
      </trkpt>
      <trkpt lat="45.33859" lon="4.24502">
        <ele>603</ele>
        <time>2021-04-26T09:40:34Z</time>
      </trkpt>
      <trkpt lat="45.33854" lon="4.24503">
        <ele>603</ele>
        <time>2021-04-26T09:40:35Z</time>
      </trkpt>
      <trkpt lat="45.3385" lon="4.24504">
        <ele>603</ele>
        <time>2021-04-26T09:40:36Z</time>
      </trkpt>
      <trkpt lat="45.33847" lon="4.24505">
        <ele>603</ele>
        <time>2021-04-26T09:40:37Z</time>
      </trkpt>
      <trkpt lat="45.33843" lon="4.24507">
        <ele>603</ele>
        <time>2021-04-26T09:40:38Z</time>
      </trkpt>
      <trkpt lat="45.33839" lon="4.24508">
        <ele>603</ele>
        <time>2021-04-26T09:40:39Z</time>
      </trkpt>
      <trkpt lat="45.33836" lon="4.24508">
        <ele>603</ele>
        <time>2021-04-26T09:40:40Z</time>
      </trkpt>
      <trkpt lat="45.33832" lon="4.24509">
        <ele>603</ele>
        <time>2021-04-26T09:40:41Z</time>
      </trkpt>
      <trkpt lat="45.33829" lon="4.2451">
        <ele>603</ele>
        <time>2021-04-26T09:40:42Z</time>
      </trkpt>
      <trkpt lat="45.33825" lon="4.24511">
        <ele>603</ele>
        <time>2021-04-26T09:40:43Z</time>
      </trkpt>
      <trkpt lat="45.33822" lon="4.24511">
        <ele>603</ele>
        <time>2021-04-26T09:40:44Z</time>
      </trkpt>
      <trkpt lat="45.33819" lon="4.2451">
        <ele>603</ele>
        <time>2021-04-26T09:40:45Z</time>
      </trkpt>
      <trkpt lat="45.33816" lon="4.2451">
        <ele>603</ele>
        <time>2021-04-26T09:40:46Z</time>
      </trkpt>
      <trkpt lat="45.33813" lon="4.24508">
        <ele>603</ele>
        <time>2021-04-26T09:40:47Z</time>
      </trkpt>
      <trkpt lat="45.3381" lon="4.24505">
        <ele>603</ele>
        <time>2021-04-26T09:40:48Z</time>
      </trkpt>
      <trkpt lat="45.33807" lon="4.24502">
        <ele>603</ele>
        <time>2021-04-26T09:40:49Z</time>
      </trkpt>
      <trkpt lat="45.33804" lon="4.24498">
        <ele>603</ele>
        <time>2021-04-26T09:40:50Z</time>
      </trkpt>
      <trkpt lat="45.338" lon="4.24494">
        <ele>603</ele>
        <time>2021-04-26T09:40:51Z</time>
      </trkpt>
      <trkpt lat="45.33798" lon="4.2449">
        <ele>603</ele>
        <time>2021-04-26T09:40:52Z</time>
      </trkpt>
      <trkpt lat="45.33795" lon="4.24486">
        <ele>603</ele>
        <time>2021-04-26T09:40:53Z</time>
      </trkpt>
      <trkpt lat="45.33792" lon="4.24483">
        <ele>603</ele>
        <time>2021-04-26T09:40:54Z</time>
      </trkpt>
      <trkpt lat="45.33789" lon="4.2448">
        <ele>603</ele>
        <time>2021-04-26T09:40:55Z</time>
      </trkpt>
      <trkpt lat="45.33786" lon="4.24476">
        <ele>603</ele>
        <time>2021-04-26T09:40:56Z</time>
      </trkpt>
      <trkpt lat="45.33783" lon="4.24473">
        <ele>603</ele>
        <time>2021-04-26T09:40:57Z</time>
      </trkpt>
      <trkpt lat="45.3378" lon="4.2447">
        <ele>603</ele>
        <time>2021-04-26T09:40:58Z</time>
      </trkpt>
      <trkpt lat="45.33778" lon="4.24467">
        <ele>603</ele>
        <time>2021-04-26T09:40:59Z</time>
      </trkpt>
      <trkpt lat="45.33776" lon="4.24464">
        <ele>603</ele>
        <time>2021-04-26T09:41:00Z</time>
      </trkpt>
      <trkpt lat="45.33775" lon="4.24462">
        <ele>603</ele>
        <time>2021-04-26T09:41:01Z</time>
      </trkpt>
      <trkpt lat="45.33774" lon="4.24458">
        <ele>603</ele>
        <time>2021-04-26T09:41:03Z</time>
      </trkpt>
      <trkpt lat="45.33773" lon="4.24455">
        <ele>603</ele>
        <time>2021-04-26T09:41:05Z</time>
      </trkpt>
      <trkpt lat="45.33771" lon="4.24455">
        <ele>603</ele>
        <time>2021-04-26T09:41:08Z</time>
      </trkpt>
      <trkpt lat="45.33769" lon="4.24454">
        <ele>602</ele>
        <time>2021-04-26T09:42:08Z</time>
      </trkpt>
      <trkpt lat="45.33764" lon="4.24459">
        <ele>602</ele>
        <time>2021-04-26T09:42:09Z</time>
      </trkpt>
      <trkpt lat="45.3376" lon="4.24462">
        <ele>602</ele>
        <time>2021-04-26T09:42:10Z</time>
      </trkpt>
      <trkpt lat="45.33757" lon="4.24465">
        <ele>602</ele>
        <time>2021-04-26T09:42:12Z</time>
      </trkpt>
      <trkpt lat="45.33753" lon="4.24468">
        <ele>602</ele>
        <time>2021-04-26T09:42:13Z</time>
      </trkpt>
      <trkpt lat="45.33748" lon="4.24471">
        <ele>602</ele>
        <time>2021-04-26T09:42:14Z</time>
      </trkpt>
      <trkpt lat="45.33743" lon="4.24474">
        <ele>602</ele>
        <time>2021-04-26T09:42:15Z</time>
      </trkpt>
      <trkpt lat="45.33738" lon="4.24476">
        <ele>602</ele>
        <time>2021-04-26T09:42:16Z</time>
      </trkpt>
      <trkpt lat="45.33733" lon="4.24478">
        <ele>602</ele>
        <time>2021-04-26T09:42:17Z</time>
      </trkpt>
      <trkpt lat="45.33728" lon="4.2448">
        <ele>602</ele>
        <time>2021-04-26T09:42:18Z</time>
      </trkpt>
      <trkpt lat="45.33725" lon="4.24482">
        <ele>602</ele>
        <time>2021-04-26T09:42:19Z</time>
      </trkpt>
      <trkpt lat="45.33721" lon="4.24484">
        <ele>602</ele>
        <time>2021-04-26T09:42:20Z</time>
      </trkpt>
      <trkpt lat="45.3371" lon="4.24489">
        <ele>602</ele>
        <time>2021-04-26T09:42:23Z</time>
      </trkpt>
      <trkpt lat="45.33706" lon="4.24491">
        <ele>601</ele>
        <time>2021-04-26T09:42:24Z</time>
      </trkpt>
      <trkpt lat="45.33702" lon="4.24493">
        <ele>601</ele>
        <time>2021-04-26T09:42:25Z</time>
      </trkpt>
      <trkpt lat="45.33698" lon="4.24495">
        <ele>601</ele>
        <time>2021-04-26T09:42:26Z</time>
      </trkpt>
      <trkpt lat="45.33694" lon="4.24496">
        <ele>601</ele>
        <time>2021-04-26T09:42:27Z</time>
      </trkpt>
      <trkpt lat="45.3369" lon="4.24498">
        <ele>601</ele>
        <time>2021-04-26T09:42:28Z</time>
      </trkpt>
      <trkpt lat="45.33686" lon="4.245">
        <ele>601</ele>
        <time>2021-04-26T09:42:29Z</time>
      </trkpt>
      <trkpt lat="45.33682" lon="4.24502">
        <ele>601</ele>
        <time>2021-04-26T09:42:30Z</time>
      </trkpt>
      <trkpt lat="45.33679" lon="4.24503">
        <ele>601</ele>
        <time>2021-04-26T09:42:31Z</time>
      </trkpt>
      <trkpt lat="45.33675" lon="4.24504">
        <ele>601</ele>
        <time>2021-04-26T09:42:32Z</time>
      </trkpt>
      <trkpt lat="45.33671" lon="4.24505">
        <ele>601</ele>
        <time>2021-04-26T09:42:33Z</time>
      </trkpt>
      <trkpt lat="45.33667" lon="4.24506">
        <ele>601</ele>
        <time>2021-04-26T09:42:34Z</time>
      </trkpt>
      <trkpt lat="45.33663" lon="4.24507">
        <ele>601</ele>
        <time>2021-04-26T09:42:35Z</time>
      </trkpt>
      <trkpt lat="45.33659" lon="4.24508">
        <ele>601</ele>
        <time>2021-04-26T09:42:36Z</time>
      </trkpt>
      <trkpt lat="45.33655" lon="4.2451">
        <ele>602</ele>
        <time>2021-04-26T09:42:37Z</time>
      </trkpt>
      <trkpt lat="45.33652" lon="4.24511">
        <ele>602</ele>
        <time>2021-04-26T09:42:38Z</time>
      </trkpt>
      <trkpt lat="45.33648" lon="4.24513">
        <ele>602</ele>
        <time>2021-04-26T09:42:39Z</time>
      </trkpt>
      <trkpt lat="45.33646" lon="4.24515">
        <ele>602</ele>
        <time>2021-04-26T09:42:40Z</time>
      </trkpt>
      <trkpt lat="45.33641" lon="4.24519">
        <ele>603</ele>
        <time>2021-04-26T09:42:41Z</time>
      </trkpt>
      <trkpt lat="45.3364" lon="4.24521">
        <ele>603</ele>
        <time>2021-04-26T09:42:43Z</time>
      </trkpt>
      <trkpt lat="45.33639" lon="4.24525">
        <ele>603</ele>
        <time>2021-04-26T09:42:45Z</time>
      </trkpt>
      <trkpt lat="45.33638" lon="4.24527">
        <ele>603</ele>
        <time>2021-04-26T09:42:49Z</time>
      </trkpt>
      <trkpt lat="45.3364" lon="4.24528">
        <ele>602</ele>
        <time>2021-04-26T09:42:54Z</time>
      </trkpt>
      <trkpt lat="45.33642" lon="4.24527">
        <ele>602</ele>
        <time>2021-04-26T09:42:57Z</time>
      </trkpt>
      <trkpt lat="45.33643" lon="4.24526">
        <ele>602</ele>
        <time>2021-04-26T09:43:02Z</time>
      </trkpt>
      <trkpt lat="45.33646" lon="4.24537">
        <ele>602</ele>
        <time>2021-04-26T09:43:18Z</time>
      </trkpt>
      <trkpt lat="45.33647" lon="4.24539">
        <ele>602</ele>
        <time>2021-04-26T09:43:20Z</time>
      </trkpt>
      <trkpt lat="45.33649" lon="4.24541">
        <ele>602</ele>
        <time>2021-04-26T09:43:24Z</time>
      </trkpt>
      <trkpt lat="45.33651" lon="4.24543">
        <ele>602</ele>
        <time>2021-04-26T09:43:26Z</time>
      </trkpt>
      <trkpt lat="45.33652" lon="4.24545">
        <ele>602</ele>
        <time>2021-04-26T09:43:28Z</time>
      </trkpt>
      <trkpt lat="45.33653" lon="4.24548">
        <ele>602</ele>
        <time>2021-04-26T09:43:31Z</time>
      </trkpt>
      <trkpt lat="45.33654" lon="4.2455">
        <ele>602</ele>
        <time>2021-04-26T09:43:34Z</time>
      </trkpt>
      <trkpt lat="45.33651" lon="4.24554">
        <ele>606</ele>
        <time>2021-04-26T09:47:42Z</time>
      </trkpt>
      <trkpt lat="45.33648" lon="4.24555">
        <ele>607</ele>
        <time>2021-04-26T09:47:43Z</time>
      </trkpt>
      <trkpt lat="45.33654" lon="4.24564">
        <ele>608</ele>
        <time>2021-04-26T09:51:18Z</time>
      </trkpt>
      <trkpt lat="45.33656" lon="4.24562">
        <ele>608</ele>
        <time>2021-04-26T09:51:19Z</time>
      </trkpt>
      <trkpt lat="45.33656" lon="4.24559">
        <ele>608</ele>
        <time>2021-04-26T09:51:24Z</time>
      </trkpt>
      <trkpt lat="45.33656" lon="4.24559">
        <ele>608</ele>
        <time>2021-04-26T09:51:26Z</time>
      </trkpt>
      <trkpt lat="45.33657" lon="4.24566">
        <ele>608</ele>
        <time>2021-04-26T09:51:30Z</time>
      </trkpt>
      <trkpt lat="45.33658" lon="4.24568">
        <ele>608</ele>
        <time>2021-04-26T09:51:31Z</time>
      </trkpt>
      <trkpt lat="45.33659" lon="4.24571">
        <ele>608</ele>
        <time>2021-04-26T09:51:32Z</time>
      </trkpt>
      <trkpt lat="45.33661" lon="4.24574">
        <ele>608</ele>
        <time>2021-04-26T09:51:34Z</time>
      </trkpt>
      <trkpt lat="45.33661" lon="4.24579">
        <ele>608</ele>
        <time>2021-04-26T09:51:36Z</time>
      </trkpt>
      <trkpt lat="45.33661" lon="4.24584">
        <ele>608</ele>
        <time>2021-04-26T09:51:38Z</time>
      </trkpt>
      <trkpt lat="45.33663" lon="4.24585">
        <ele>607</ele>
        <time>2021-04-26T09:51:39Z</time>
      </trkpt>
      <trkpt lat="45.33665" lon="4.24588">
        <ele>607</ele>
        <time>2021-04-26T09:51:40Z</time>
      </trkpt>
      <trkpt lat="45.33664" lon="4.2459">
        <ele>607</ele>
        <time>2021-04-26T09:51:41Z</time>
      </trkpt>
      <trkpt lat="45.33662" lon="4.24593">
        <ele>607</ele>
        <time>2021-04-26T09:51:43Z</time>
      </trkpt>
      <trkpt lat="45.3366" lon="4.24597">
        <ele>607</ele>
        <time>2021-04-26T09:51:45Z</time>
      </trkpt>
      <trkpt lat="45.3366" lon="4.24601">
        <ele>607</ele>
        <time>2021-04-26T09:51:47Z</time>
      </trkpt>
      <trkpt lat="45.33661" lon="4.24604">
        <ele>607</ele>
        <time>2021-04-26T09:51:49Z</time>
      </trkpt>
      <trkpt lat="45.33663" lon="4.24608">
        <ele>607</ele>
        <time>2021-04-26T09:51:51Z</time>
      </trkpt>
      <trkpt lat="45.33664" lon="4.2461">
        <ele>607</ele>
        <time>2021-04-26T09:51:52Z</time>
      </trkpt>
      <trkpt lat="45.33666" lon="4.24612">
        <ele>607</ele>
        <time>2021-04-26T09:51:53Z</time>
      </trkpt>
      <trkpt lat="45.33667" lon="4.24615">
        <ele>607</ele>
        <time>2021-04-26T09:51:54Z</time>
      </trkpt>
      <trkpt lat="45.33669" lon="4.24617">
        <ele>607</ele>
        <time>2021-04-26T09:51:55Z</time>
      </trkpt>
      <trkpt lat="45.3367" lon="4.2462">
        <ele>607</ele>
        <time>2021-04-26T09:51:56Z</time>
      </trkpt>
      <trkpt lat="45.33671" lon="4.24622">
        <ele>608</ele>
        <time>2021-04-26T09:51:57Z</time>
      </trkpt>
      <trkpt lat="45.33673" lon="4.24625">
        <ele>608</ele>
        <time>2021-04-26T09:51:58Z</time>
      </trkpt>
      <trkpt lat="45.33673" lon="4.24628">
        <ele>608</ele>
        <time>2021-04-26T09:51:59Z</time>
      </trkpt>
      <trkpt lat="45.33674" lon="4.2463">
        <ele>608</ele>
        <time>2021-04-26T09:52:00Z</time>
      </trkpt>
      <trkpt lat="45.33674" lon="4.24634">
        <ele>608</ele>
        <time>2021-04-26T09:52:02Z</time>
      </trkpt>
      <trkpt lat="45.33674" lon="4.24638">
        <ele>609</ele>
        <time>2021-04-26T09:52:03Z</time>
      </trkpt>
      <trkpt lat="45.33677" lon="4.24642">
        <ele>609</ele>
        <time>2021-04-26T09:52:06Z</time>
      </trkpt>
      <trkpt lat="45.33678" lon="4.24644">
        <ele>609</ele>
        <time>2021-04-26T09:52:07Z</time>
      </trkpt>
      <trkpt lat="45.33678" lon="4.24647">
        <ele>609</ele>
        <time>2021-04-26T09:52:08Z</time>
      </trkpt>
      <trkpt lat="45.33679" lon="4.2465">
        <ele>609</ele>
        <time>2021-04-26T09:52:09Z</time>
      </trkpt>
      <trkpt lat="45.33679" lon="4.24653">
        <ele>609</ele>
        <time>2021-04-26T09:52:10Z</time>
      </trkpt>
      <trkpt lat="45.33679" lon="4.24658">
        <ele>609</ele>
        <time>2021-04-26T09:52:12Z</time>
      </trkpt>
      <trkpt lat="45.33679" lon="4.24661">
        <ele>610</ele>
        <time>2021-04-26T09:52:13Z</time>
      </trkpt>
      <trkpt lat="45.33679" lon="4.24664">
        <ele>610</ele>
        <time>2021-04-26T09:52:14Z</time>
      </trkpt>
      <trkpt lat="45.3368" lon="4.24668">
        <ele>610</ele>
        <time>2021-04-26T09:52:15Z</time>
      </trkpt>
      <trkpt lat="45.3368" lon="4.24671">
        <ele>610</ele>
        <time>2021-04-26T09:52:16Z</time>
      </trkpt>
      <trkpt lat="45.3368" lon="4.24674">
        <ele>610</ele>
        <time>2021-04-26T09:52:17Z</time>
      </trkpt>
      <trkpt lat="45.33679" lon="4.24678">
        <ele>610</ele>
        <time>2021-04-26T09:52:18Z</time>
      </trkpt>
      <trkpt lat="45.33678" lon="4.24681">
        <ele>610</ele>
        <time>2021-04-26T09:52:19Z</time>
      </trkpt>
      <trkpt lat="45.33677" lon="4.24684">
        <ele>610</ele>
        <time>2021-04-26T09:52:20Z</time>
      </trkpt>
      <trkpt lat="45.33675" lon="4.24686">
        <ele>610</ele>
        <time>2021-04-26T09:52:21Z</time>
      </trkpt>
      <trkpt lat="45.33673" lon="4.24686">
        <ele>610</ele>
        <time>2021-04-26T09:52:22Z</time>
      </trkpt>
      <trkpt lat="45.3367" lon="4.24686">
        <ele>610</ele>
        <time>2021-04-26T09:52:23Z</time>
      </trkpt>
      <trkpt lat="45.33667" lon="4.24686">
        <ele>610</ele>
        <time>2021-04-26T09:52:24Z</time>
      </trkpt>
      <trkpt lat="45.33665" lon="4.24685">
        <ele>611</ele>
        <time>2021-04-26T09:52:25Z</time>
      </trkpt>
      <trkpt lat="45.33663" lon="4.24685">
        <ele>611</ele>
        <time>2021-04-26T09:52:26Z</time>
      </trkpt>
      <trkpt lat="45.3366" lon="4.24684">
        <ele>611</ele>
        <time>2021-04-26T09:52:27Z</time>
      </trkpt>
      <trkpt lat="45.33657" lon="4.24683">
        <ele>611</ele>
        <time>2021-04-26T09:52:28Z</time>
      </trkpt>
      <trkpt lat="45.33654" lon="4.24682">
        <ele>611</ele>
        <time>2021-04-26T09:52:29Z</time>
      </trkpt>
      <trkpt lat="45.33651" lon="4.24682">
        <ele>611</ele>
        <time>2021-04-26T09:52:30Z</time>
      </trkpt>
      <trkpt lat="45.33648" lon="4.24681">
        <ele>611</ele>
        <time>2021-04-26T09:52:31Z</time>
      </trkpt>
      <trkpt lat="45.33645" lon="4.24681">
        <ele>611</ele>
        <time>2021-04-26T09:52:32Z</time>
      </trkpt>
      <trkpt lat="45.3364" lon="4.2468">
        <ele>611</ele>
        <time>2021-04-26T09:52:33Z</time>
      </trkpt>
      <trkpt lat="45.33637" lon="4.24679">
        <ele>611</ele>
        <time>2021-04-26T09:52:35Z</time>
      </trkpt>
      <trkpt lat="45.33635" lon="4.24678">
        <ele>611</ele>
        <time>2021-04-26T09:52:36Z</time>
      </trkpt>
      <trkpt lat="45.33632" lon="4.24676">
        <ele>612</ele>
        <time>2021-04-26T09:52:37Z</time>
      </trkpt>
      <trkpt lat="45.33629" lon="4.24675">
        <ele>612</ele>
        <time>2021-04-26T09:52:38Z</time>
      </trkpt>
      <trkpt lat="45.33626" lon="4.24675">
        <ele>612</ele>
        <time>2021-04-26T09:52:39Z</time>
      </trkpt>
      <trkpt lat="45.33624" lon="4.24674">
        <ele>612</ele>
        <time>2021-04-26T09:52:40Z</time>
      </trkpt>
      <trkpt lat="45.33622" lon="4.24674">
        <ele>613</ele>
        <time>2021-04-26T09:52:41Z</time>
      </trkpt>
      <trkpt lat="45.33619" lon="4.24674">
        <ele>613</ele>
        <time>2021-04-26T09:52:43Z</time>
      </trkpt>
      <trkpt lat="45.33616" lon="4.24673">
        <ele>613</ele>
        <time>2021-04-26T09:52:45Z</time>
      </trkpt>
      <trkpt lat="45.33613" lon="4.24674">
        <ele>614</ele>
        <time>2021-04-26T09:52:47Z</time>
      </trkpt>
      <trkpt lat="45.3361" lon="4.24675">
        <ele>614</ele>
        <time>2021-04-26T09:52:49Z</time>
      </trkpt>
      <trkpt lat="45.33607" lon="4.24674">
        <ele>615</ele>
        <time>2021-04-26T09:52:51Z</time>
      </trkpt>
      <trkpt lat="45.33604" lon="4.24675">
        <ele>615</ele>
        <time>2021-04-26T09:52:53Z</time>
      </trkpt>
      <trkpt lat="45.33601" lon="4.24676">
        <ele>615</ele>
        <time>2021-04-26T09:52:55Z</time>
      </trkpt>
      <trkpt lat="45.33598" lon="4.24677">
        <ele>615</ele>
        <time>2021-04-26T09:52:57Z</time>
      </trkpt>
      <trkpt lat="45.33594" lon="4.24678">
        <ele>616</ele>
        <time>2021-04-26T09:52:59Z</time>
      </trkpt>
      <trkpt lat="45.33592" lon="4.24679">
        <ele>616</ele>
        <time>2021-04-26T09:53:01Z</time>
      </trkpt>
      <trkpt lat="45.3359" lon="4.2468">
        <ele>616</ele>
        <time>2021-04-26T09:53:06Z</time>
      </trkpt>
      <trkpt lat="45.3359" lon="4.2468">
        <ele>617</ele>
        <time>2021-04-26T09:53:10Z</time>
      </trkpt>
      <trkpt lat="45.33585" lon="4.24681">
        <ele>616</ele>
        <time>2021-04-26T09:53:18Z</time>
      </trkpt>
      <trkpt lat="45.33582" lon="4.24682">
        <ele>616</ele>
        <time>2021-04-26T09:53:20Z</time>
      </trkpt>
      <trkpt lat="45.33579" lon="4.24681">
        <ele>617</ele>
        <time>2021-04-26T09:53:23Z</time>
      </trkpt>
      <trkpt lat="45.33577" lon="4.24688">
        <ele>618</ele>
        <time>2021-04-26T09:56:08Z</time>
      </trkpt>
      <trkpt lat="45.33576" lon="4.2469">
        <ele>618</ele>
        <time>2021-04-26T09:56:10Z</time>
      </trkpt>
      <trkpt lat="45.33576" lon="4.24693">
        <ele>618</ele>
        <time>2021-04-26T09:56:16Z</time>
      </trkpt>
      <trkpt lat="45.33578" lon="4.24702">
        <ele>619</ele>
        <time>2021-04-26T09:56:23Z</time>
      </trkpt>
      <trkpt lat="45.33579" lon="4.24706">
        <ele>619</ele>
        <time>2021-04-26T09:56:24Z</time>
      </trkpt>
      <trkpt lat="45.3358" lon="4.2471">
        <ele>620</ele>
        <time>2021-04-26T09:56:25Z</time>
      </trkpt>
      <trkpt lat="45.33581" lon="4.24713">
        <ele>620</ele>
        <time>2021-04-26T09:56:26Z</time>
      </trkpt>
      <trkpt lat="45.33582" lon="4.24717">
        <ele>620</ele>
        <time>2021-04-26T09:56:27Z</time>
      </trkpt>
      <trkpt lat="45.33583" lon="4.2472">
        <ele>620</ele>
        <time>2021-04-26T09:56:28Z</time>
      </trkpt>
      <trkpt lat="45.33584" lon="4.24723">
        <ele>621</ele>
        <time>2021-04-26T09:56:29Z</time>
      </trkpt>
      <trkpt lat="45.33585" lon="4.24726">
        <ele>621</ele>
        <time>2021-04-26T09:56:30Z</time>
      </trkpt>
      <trkpt lat="45.33585" lon="4.24729">
        <ele>621</ele>
        <time>2021-04-26T09:56:31Z</time>
      </trkpt>
      <trkpt lat="45.33587" lon="4.24732">
        <ele>621</ele>
        <time>2021-04-26T09:56:32Z</time>
      </trkpt>
      <trkpt lat="45.33587" lon="4.24735">
        <ele>621</ele>
        <time>2021-04-26T09:56:33Z</time>
      </trkpt>
      <trkpt lat="45.33588" lon="4.24738">
        <ele>621</ele>
        <time>2021-04-26T09:56:34Z</time>
      </trkpt>
      <trkpt lat="45.33589" lon="4.24742">
        <ele>621</ele>
        <time>2021-04-26T09:56:35Z</time>
      </trkpt>
      <trkpt lat="45.3359" lon="4.24745">
        <ele>622</ele>
        <time>2021-04-26T09:56:36Z</time>
      </trkpt>
      <trkpt lat="45.33591" lon="4.24749">
        <ele>622</ele>
        <time>2021-04-26T09:56:37Z</time>
      </trkpt>
      <trkpt lat="45.33592" lon="4.24752">
        <ele>622</ele>
        <time>2021-04-26T09:56:38Z</time>
      </trkpt>
      <trkpt lat="45.33594" lon="4.24755">
        <ele>622</ele>
        <time>2021-04-26T09:56:39Z</time>
      </trkpt>
      <trkpt lat="45.33595" lon="4.24759">
        <ele>622</ele>
        <time>2021-04-26T09:56:40Z</time>
      </trkpt>
      <trkpt lat="45.33596" lon="4.24762">
        <ele>622</ele>
        <time>2021-04-26T09:56:41Z</time>
      </trkpt>
      <trkpt lat="45.33597" lon="4.24766">
        <ele>622</ele>
        <time>2021-04-26T09:56:42Z</time>
      </trkpt>
      <trkpt lat="45.33598" lon="4.2477">
        <ele>622</ele>
        <time>2021-04-26T09:56:43Z</time>
      </trkpt>
      <trkpt lat="45.336" lon="4.24774">
        <ele>622</ele>
        <time>2021-04-26T09:56:44Z</time>
      </trkpt>
      <trkpt lat="45.33601" lon="4.24778">
        <ele>623</ele>
        <time>2021-04-26T09:56:45Z</time>
      </trkpt>
      <trkpt lat="45.33602" lon="4.24782">
        <ele>623</ele>
        <time>2021-04-26T09:56:46Z</time>
      </trkpt>
      <trkpt lat="45.33604" lon="4.24786">
        <ele>623</ele>
        <time>2021-04-26T09:56:47Z</time>
      </trkpt>
      <trkpt lat="45.33604" lon="4.24791">
        <ele>623</ele>
        <time>2021-04-26T09:56:48Z</time>
      </trkpt>
      <trkpt lat="45.33605" lon="4.24794">
        <ele>624</ele>
        <time>2021-04-26T09:56:49Z</time>
      </trkpt>
      <trkpt lat="45.33606" lon="4.24798">
        <ele>624</ele>
        <time>2021-04-26T09:56:50Z</time>
      </trkpt>
      <trkpt lat="45.33608" lon="4.24801">
        <ele>624</ele>
        <time>2021-04-26T09:56:51Z</time>
      </trkpt>
      <trkpt lat="45.33609" lon="4.24805">
        <ele>624</ele>
        <time>2021-04-26T09:56:52Z</time>
      </trkpt>
      <trkpt lat="45.3361" lon="4.24808">
        <ele>625</ele>
        <time>2021-04-26T09:56:53Z</time>
      </trkpt>
      <trkpt lat="45.33611" lon="4.24812">
        <ele>625</ele>
        <time>2021-04-26T09:56:54Z</time>
      </trkpt>
      <trkpt lat="45.33612" lon="4.24816">
        <ele>625</ele>
        <time>2021-04-26T09:56:55Z</time>
      </trkpt>
      <trkpt lat="45.33613" lon="4.24819">
        <ele>626</ele>
        <time>2021-04-26T09:56:56Z</time>
      </trkpt>
      <trkpt lat="45.33614" lon="4.24823">
        <ele>626</ele>
        <time>2021-04-26T09:56:57Z</time>
      </trkpt>
      <trkpt lat="45.33615" lon="4.24826">
        <ele>626</ele>
        <time>2021-04-26T09:56:58Z</time>
      </trkpt>
      <trkpt lat="45.33617" lon="4.2483">
        <ele>626</ele>
        <time>2021-04-26T09:56:59Z</time>
      </trkpt>
      <trkpt lat="45.33618" lon="4.24833">
        <ele>626</ele>
        <time>2021-04-26T09:57:00Z</time>
      </trkpt>
      <trkpt lat="45.33619" lon="4.24837">
        <ele>627</ele>
        <time>2021-04-26T09:57:01Z</time>
      </trkpt>
      <trkpt lat="45.33621" lon="4.2484">
        <ele>627</ele>
        <time>2021-04-26T09:57:02Z</time>
      </trkpt>
      <trkpt lat="45.33622" lon="4.24844">
        <ele>627</ele>
        <time>2021-04-26T09:57:03Z</time>
      </trkpt>
      <trkpt lat="45.33623" lon="4.24847">
        <ele>627</ele>
        <time>2021-04-26T09:57:04Z</time>
      </trkpt>
      <trkpt lat="45.33624" lon="4.24851">
        <ele>627</ele>
        <time>2021-04-26T09:57:05Z</time>
      </trkpt>
      <trkpt lat="45.33625" lon="4.24854">
        <ele>628</ele>
        <time>2021-04-26T09:57:06Z</time>
      </trkpt>
      <trkpt lat="45.33626" lon="4.24857">
        <ele>628</ele>
        <time>2021-04-26T09:57:07Z</time>
      </trkpt>
      <trkpt lat="45.33627" lon="4.24861">
        <ele>628</ele>
        <time>2021-04-26T09:57:08Z</time>
      </trkpt>
      <trkpt lat="45.33628" lon="4.24864">
        <ele>628</ele>
        <time>2021-04-26T09:57:09Z</time>
      </trkpt>
      <trkpt lat="45.33628" lon="4.24868">
        <ele>629</ele>
        <time>2021-04-26T09:57:10Z</time>
      </trkpt>
      <trkpt lat="45.33628" lon="4.24871">
        <ele>629</ele>
        <time>2021-04-26T09:57:11Z</time>
      </trkpt>
      <trkpt lat="45.33628" lon="4.24874">
        <ele>629</ele>
        <time>2021-04-26T09:57:13Z</time>
      </trkpt>
      <trkpt lat="45.33625" lon="4.24875">
        <ele>629</ele>
        <time>2021-04-26T09:57:15Z</time>
      </trkpt>
      <trkpt lat="45.33622" lon="4.24874">
        <ele>629</ele>
        <time>2021-04-26T09:57:17Z</time>
      </trkpt>
      <trkpt lat="45.33618" lon="4.2487">
        <ele>629</ele>
        <time>2021-04-26T09:57:18Z</time>
      </trkpt>
      <trkpt lat="45.33615" lon="4.24869">
        <ele>630</ele>
        <time>2021-04-26T09:57:20Z</time>
      </trkpt>
      <trkpt lat="45.33613" lon="4.24867">
        <ele>630</ele>
        <time>2021-04-26T09:57:21Z</time>
      </trkpt>
      <trkpt lat="45.33611" lon="4.24865">
        <ele>630</ele>
        <time>2021-04-26T09:57:22Z</time>
      </trkpt>
      <trkpt lat="45.33609" lon="4.24862">
        <ele>630</ele>
        <time>2021-04-26T09:57:23Z</time>
      </trkpt>
      <trkpt lat="45.33607" lon="4.24859">
        <ele>630</ele>
        <time>2021-04-26T09:57:24Z</time>
      </trkpt>
      <trkpt lat="45.33604" lon="4.24855">
        <ele>630</ele>
        <time>2021-04-26T09:57:25Z</time>
      </trkpt>
      <trkpt lat="45.33602" lon="4.2485">
        <ele>630</ele>
        <time>2021-04-26T09:57:26Z</time>
      </trkpt>
      <trkpt lat="45.33599" lon="4.24845">
        <ele>630</ele>
        <time>2021-04-26T09:57:27Z</time>
      </trkpt>
      <trkpt lat="45.33596" lon="4.24839">
        <ele>630</ele>
        <time>2021-04-26T09:57:28Z</time>
      </trkpt>
      <trkpt lat="45.33593" lon="4.24833">
        <ele>630</ele>
        <time>2021-04-26T09:57:29Z</time>
      </trkpt>
      <trkpt lat="45.33589" lon="4.24826">
        <ele>630</ele>
        <time>2021-04-26T09:57:30Z</time>
      </trkpt>
      <trkpt lat="45.33586" lon="4.2482">
        <ele>630</ele>
        <time>2021-04-26T09:57:31Z</time>
      </trkpt>
      <trkpt lat="45.33582" lon="4.24814">
        <ele>630</ele>
        <time>2021-04-26T09:57:32Z</time>
      </trkpt>
      <trkpt lat="45.33578" lon="4.24807">
        <ele>629</ele>
        <time>2021-04-26T09:57:33Z</time>
      </trkpt>
      <trkpt lat="45.33574" lon="4.248">
        <ele>629</ele>
        <time>2021-04-26T09:57:34Z</time>
      </trkpt>
      <trkpt lat="45.3357" lon="4.24793">
        <ele>629</ele>
        <time>2021-04-26T09:57:35Z</time>
      </trkpt>
      <trkpt lat="45.33566" lon="4.24785">
        <ele>629</ele>
        <time>2021-04-26T09:57:36Z</time>
      </trkpt>
      <trkpt lat="45.33562" lon="4.24778">
        <ele>629</ele>
        <time>2021-04-26T09:57:37Z</time>
      </trkpt>
      <trkpt lat="45.33558" lon="4.24771">
        <ele>629</ele>
        <time>2021-04-26T09:57:38Z</time>
      </trkpt>
      <trkpt lat="45.33555" lon="4.24764">
        <ele>629</ele>
        <time>2021-04-26T09:57:39Z</time>
      </trkpt>
      <trkpt lat="45.33551" lon="4.24758">
        <ele>629</ele>
        <time>2021-04-26T09:57:40Z</time>
      </trkpt>
      <trkpt lat="45.33547" lon="4.24753">
        <ele>629</ele>
        <time>2021-04-26T09:57:41Z</time>
      </trkpt>
      <trkpt lat="45.33543" lon="4.24747">
        <ele>629</ele>
        <time>2021-04-26T09:57:42Z</time>
      </trkpt>
      <trkpt lat="45.33538" lon="4.24742">
        <ele>629</ele>
        <time>2021-04-26T09:57:43Z</time>
      </trkpt>
      <trkpt lat="45.33534" lon="4.24737">
        <ele>629</ele>
        <time>2021-04-26T09:57:44Z</time>
      </trkpt>
      <trkpt lat="45.3353" lon="4.24732">
        <ele>629</ele>
        <time>2021-04-26T09:57:45Z</time>
      </trkpt>
      <trkpt lat="45.33526" lon="4.24727">
        <ele>629</ele>
        <time>2021-04-26T09:57:46Z</time>
      </trkpt>
      <trkpt lat="45.33523" lon="4.24722">
        <ele>629</ele>
        <time>2021-04-26T09:57:47Z</time>
      </trkpt>
      <trkpt lat="45.3352" lon="4.24719">
        <ele>629</ele>
        <time>2021-04-26T09:57:48Z</time>
      </trkpt>
      <trkpt lat="45.33517" lon="4.24716">
        <ele>629</ele>
        <time>2021-04-26T09:57:49Z</time>
      </trkpt>
      <trkpt lat="45.33514" lon="4.24713">
        <ele>629</ele>
        <time>2021-04-26T09:57:50Z</time>
      </trkpt>
      <trkpt lat="45.3351" lon="4.2471">
        <ele>628</ele>
        <time>2021-04-26T09:57:51Z</time>
      </trkpt>
      <trkpt lat="45.33506" lon="4.24708">
        <ele>628</ele>
        <time>2021-04-26T09:57:52Z</time>
      </trkpt>
      <trkpt lat="45.33503" lon="4.24705">
        <ele>628</ele>
        <time>2021-04-26T09:57:53Z</time>
      </trkpt>
      <trkpt lat="45.33499" lon="4.24702">
        <ele>628</ele>
        <time>2021-04-26T09:57:54Z</time>
      </trkpt>
      <trkpt lat="45.33495" lon="4.24699">
        <ele>627</ele>
        <time>2021-04-26T09:57:55Z</time>
      </trkpt>
      <trkpt lat="45.3349" lon="4.24696">
        <ele>627</ele>
        <time>2021-04-26T09:57:56Z</time>
      </trkpt>
      <trkpt lat="45.33486" lon="4.24694">
        <ele>626</ele>
        <time>2021-04-26T09:57:57Z</time>
      </trkpt>
      <trkpt lat="45.33482" lon="4.24693">
        <ele>626</ele>
        <time>2021-04-26T09:57:58Z</time>
      </trkpt>
      <trkpt lat="45.33477" lon="4.24692">
        <ele>626</ele>
        <time>2021-04-26T09:57:59Z</time>
      </trkpt>
      <trkpt lat="45.33472" lon="4.2469">
        <ele>626</ele>
        <time>2021-04-26T09:58:00Z</time>
      </trkpt>
      <trkpt lat="45.33468" lon="4.2469">
        <ele>625</ele>
        <time>2021-04-26T09:58:01Z</time>
      </trkpt>
      <trkpt lat="45.33463" lon="4.24689">
        <ele>625</ele>
        <time>2021-04-26T09:58:02Z</time>
      </trkpt>
      <trkpt lat="45.33458" lon="4.2469">
        <ele>625</ele>
        <time>2021-04-26T09:58:03Z</time>
      </trkpt>
      <trkpt lat="45.33453" lon="4.24691">
        <ele>625</ele>
        <time>2021-04-26T09:58:04Z</time>
      </trkpt>
      <trkpt lat="45.3345" lon="4.24696">
        <ele>625</ele>
        <time>2021-04-26T09:58:05Z</time>
      </trkpt>
      <trkpt lat="45.33448" lon="4.24703">
        <ele>625</ele>
        <time>2021-04-26T09:58:06Z</time>
      </trkpt>
      <trkpt lat="45.33445" lon="4.24709">
        <ele>625</ele>
        <time>2021-04-26T09:58:07Z</time>
      </trkpt>
      <trkpt lat="45.33443" lon="4.24715">
        <ele>625</ele>
        <time>2021-04-26T09:58:08Z</time>
      </trkpt>
      <trkpt lat="45.33439" lon="4.2472">
        <ele>625</ele>
        <time>2021-04-26T09:58:09Z</time>
      </trkpt>
      <trkpt lat="45.33435" lon="4.24725">
        <ele>625</ele>
        <time>2021-04-26T09:58:10Z</time>
      </trkpt>
      <trkpt lat="45.33431" lon="4.24729">
        <ele>625</ele>
        <time>2021-04-26T09:58:11Z</time>
      </trkpt>
      <trkpt lat="45.33427" lon="4.24733">
        <ele>625</ele>
        <time>2021-04-26T09:58:12Z</time>
      </trkpt>
      <trkpt lat="45.33423" lon="4.24737">
        <ele>625</ele>
        <time>2021-04-26T09:58:13Z</time>
      </trkpt>
      <trkpt lat="45.3342" lon="4.24741">
        <ele>625</ele>
        <time>2021-04-26T09:58:14Z</time>
      </trkpt>
      <trkpt lat="45.33415" lon="4.24746">
        <ele>625</ele>
        <time>2021-04-26T09:58:15Z</time>
      </trkpt>
      <trkpt lat="45.33407" lon="4.24754">
        <ele>625</ele>
        <time>2021-04-26T09:58:17Z</time>
      </trkpt>
      <trkpt lat="45.33403" lon="4.24757">
        <ele>625</ele>
        <time>2021-04-26T09:58:18Z</time>
      </trkpt>
      <trkpt lat="45.334" lon="4.24759">
        <ele>625</ele>
        <time>2021-04-26T09:58:19Z</time>
      </trkpt>
      <trkpt lat="45.33397" lon="4.24762">
        <ele>625</ele>
        <time>2021-04-26T09:58:20Z</time>
      </trkpt>
      <trkpt lat="45.33394" lon="4.24764">
        <ele>625</ele>
        <time>2021-04-26T09:58:21Z</time>
      </trkpt>
      <trkpt lat="45.3339" lon="4.24766">
        <ele>625</ele>
        <time>2021-04-26T09:58:22Z</time>
      </trkpt>
      <trkpt lat="45.33387" lon="4.24767">
        <ele>625</ele>
        <time>2021-04-26T09:58:23Z</time>
      </trkpt>
      <trkpt lat="45.33383" lon="4.24773">
        <ele>626</ele>
        <time>2021-04-26T09:58:25Z</time>
      </trkpt>
      <trkpt lat="45.33379" lon="4.24776">
        <ele>626</ele>
        <time>2021-04-26T09:58:26Z</time>
      </trkpt>
      <trkpt lat="45.33369" lon="4.24781">
        <ele>626</ele>
        <time>2021-04-26T09:58:28Z</time>
      </trkpt>
      <trkpt lat="45.33363" lon="4.24784">
        <ele>626</ele>
        <time>2021-04-26T09:58:29Z</time>
      </trkpt>
      <trkpt lat="45.33358" lon="4.24785">
        <ele>626</ele>
        <time>2021-04-26T09:58:30Z</time>
      </trkpt>
      <trkpt lat="45.33355" lon="4.24787">
        <ele>626</ele>
        <time>2021-04-26T09:58:31Z</time>
      </trkpt>
      <trkpt lat="45.33352" lon="4.24789">
        <ele>626</ele>
        <time>2021-04-26T09:58:32Z</time>
      </trkpt>
      <trkpt lat="45.33348" lon="4.2479">
        <ele>627</ele>
        <time>2021-04-26T09:58:33Z</time>
      </trkpt>
      <trkpt lat="45.33337" lon="4.24794">
        <ele>627</ele>
        <time>2021-04-26T09:58:35Z</time>
      </trkpt>
      <trkpt lat="45.33328" lon="4.24799">
        <ele>627</ele>
        <time>2021-04-26T09:58:37Z</time>
      </trkpt>
      <trkpt lat="45.33318" lon="4.24807">
        <ele>627</ele>
        <time>2021-04-26T09:58:40Z</time>
      </trkpt>
      <trkpt lat="45.33305" lon="4.24812">
        <ele>628</ele>
        <time>2021-04-26T09:58:43Z</time>
      </trkpt>
      <trkpt lat="45.33296" lon="4.24813">
        <ele>629</ele>
        <time>2021-04-26T09:58:46Z</time>
      </trkpt>
      <trkpt lat="45.33286" lon="4.24816">
        <ele>629</ele>
        <time>2021-04-26T09:58:49Z</time>
      </trkpt>
      <trkpt lat="45.33275" lon="4.24822">
        <ele>629</ele>
        <time>2021-04-26T09:58:53Z</time>
      </trkpt>
      <trkpt lat="45.33263" lon="4.24829">
        <ele>629</ele>
        <time>2021-04-26T09:58:56Z</time>
      </trkpt>
      <trkpt lat="45.33253" lon="4.24837">
        <ele>629</ele>
        <time>2021-04-26T09:58:58Z</time>
      </trkpt>
      <trkpt lat="45.33241" lon="4.24845">
        <ele>630</ele>
        <time>2021-04-26T09:58:59Z</time>
      </trkpt>
      <trkpt lat="45.33231" lon="4.24852">
        <ele>630</ele>
        <time>2021-04-26T09:59:02Z</time>
      </trkpt>
      <trkpt lat="45.33222" lon="4.24855">
        <ele>631</ele>
        <time>2021-04-26T09:59:04Z</time>
      </trkpt>
      <trkpt lat="45.33212" lon="4.2486">
        <ele>631</ele>
        <time>2021-04-26T09:59:07Z</time>
      </trkpt>
      <trkpt lat="45.332" lon="4.24865">
        <ele>632</ele>
        <time>2021-04-26T09:59:10Z</time>
      </trkpt>
      <trkpt lat="45.33189" lon="4.24872">
        <ele>632</ele>
        <time>2021-04-26T09:59:13Z</time>
      </trkpt>
      <trkpt lat="45.33178" lon="4.24878">
        <ele>631</ele>
        <time>2021-04-26T09:59:16Z</time>
      </trkpt>
      <trkpt lat="45.33167" lon="4.24884">
        <ele>631</ele>
        <time>2021-04-26T09:59:19Z</time>
      </trkpt>
      <trkpt lat="45.33164" lon="4.24886">
        <ele>632</ele>
        <time>2021-04-26T09:59:20Z</time>
      </trkpt>
      <trkpt lat="45.33161" lon="4.24888">
        <ele>632</ele>
        <time>2021-04-26T09:59:21Z</time>
      </trkpt>
      <trkpt lat="45.33157" lon="4.2489">
        <ele>632</ele>
        <time>2021-04-26T09:59:22Z</time>
      </trkpt>
      <trkpt lat="45.33154" lon="4.24892">
        <ele>632</ele>
        <time>2021-04-26T09:59:23Z</time>
      </trkpt>
      <trkpt lat="45.3315" lon="4.24894">
        <ele>633</ele>
        <time>2021-04-26T09:59:24Z</time>
      </trkpt>
      <trkpt lat="45.33145" lon="4.24897">
        <ele>633</ele>
        <time>2021-04-26T09:59:26Z</time>
      </trkpt>
      <trkpt lat="45.33142" lon="4.24899">
        <ele>633</ele>
        <time>2021-04-26T09:59:27Z</time>
      </trkpt>
      <trkpt lat="45.33139" lon="4.249">
        <ele>633</ele>
        <time>2021-04-26T09:59:28Z</time>
      </trkpt>
      <trkpt lat="45.33136" lon="4.24902">
        <ele>633</ele>
        <time>2021-04-26T09:59:29Z</time>
      </trkpt>
      <trkpt lat="45.33133" lon="4.24903">
        <ele>633</ele>
        <time>2021-04-26T09:59:30Z</time>
      </trkpt>
      <trkpt lat="45.3313" lon="4.24905">
        <ele>633</ele>
        <time>2021-04-26T09:59:31Z</time>
      </trkpt>
      <trkpt lat="45.33128" lon="4.24907">
        <ele>633</ele>
        <time>2021-04-26T09:59:32Z</time>
      </trkpt>
      <trkpt lat="45.33122" lon="4.24911">
        <ele>633</ele>
        <time>2021-04-26T09:59:33Z</time>
      </trkpt>
      <trkpt lat="45.33119" lon="4.24913">
        <ele>633</ele>
        <time>2021-04-26T09:59:35Z</time>
      </trkpt>
      <trkpt lat="45.33115" lon="4.24915">
        <ele>634</ele>
        <time>2021-04-26T09:59:36Z</time>
      </trkpt>
      <trkpt lat="45.33113" lon="4.24917">
        <ele>634</ele>
        <time>2021-04-26T09:59:37Z</time>
      </trkpt>
      <trkpt lat="45.3311" lon="4.24919">
        <ele>634</ele>
        <time>2021-04-26T09:59:38Z</time>
      </trkpt>
      <trkpt lat="45.33108" lon="4.24922">
        <ele>634</ele>
        <time>2021-04-26T09:59:39Z</time>
      </trkpt>
      <trkpt lat="45.33106" lon="4.24926">
        <ele>634</ele>
        <time>2021-04-26T09:59:40Z</time>
      </trkpt>
      <trkpt lat="45.33104" lon="4.2493">
        <ele>634</ele>
        <time>2021-04-26T09:59:41Z</time>
      </trkpt>
      <trkpt lat="45.33103" lon="4.24935">
        <ele>634</ele>
        <time>2021-04-26T09:59:42Z</time>
      </trkpt>
      <trkpt lat="45.33102" lon="4.24939">
        <ele>634</ele>
        <time>2021-04-26T09:59:43Z</time>
      </trkpt>
      <trkpt lat="45.33102" lon="4.24946">
        <ele>633.9</ele>
      </trkpt>
      <trkpt lat="45.33112" lon="4.24948">
        <ele>638</ele>
        <time>2021-04-26T10:00:04Z</time>
      </trkpt>
      <trkpt lat="45.33114" lon="4.24948">
        <ele>638</ele>
        <time>2021-04-26T10:00:05Z</time>
      </trkpt>
      <trkpt lat="45.33116" lon="4.24948">
        <ele>638</ele>
        <time>2021-04-26T10:00:06Z</time>
      </trkpt>
      <trkpt lat="45.33119" lon="4.24948">
        <ele>638</ele>
        <time>2021-04-26T10:00:07Z</time>
      </trkpt>
      <trkpt lat="45.33121" lon="4.24948">
        <ele>638</ele>
        <time>2021-04-26T10:00:08Z</time>
      </trkpt>
      <trkpt lat="45.33123" lon="4.24949">
        <ele>639</ele>
        <time>2021-04-26T10:00:09Z</time>
      </trkpt>
      <trkpt lat="45.33125" lon="4.24949">
        <ele>639</ele>
        <time>2021-04-26T10:00:10Z</time>
      </trkpt>
      <trkpt lat="45.33127" lon="4.24949">
        <ele>639</ele>
        <time>2021-04-26T10:00:11Z</time>
      </trkpt>
      <trkpt lat="45.3313" lon="4.24949">
        <ele>639</ele>
        <time>2021-04-26T10:00:13Z</time>
      </trkpt>
      <trkpt lat="45.33133" lon="4.24952">
        <ele>639</ele>
        <time>2021-04-26T10:00:15Z</time>
      </trkpt>
      <trkpt lat="45.33134" lon="4.24956">
        <ele>639</ele>
        <time>2021-04-26T10:00:17Z</time>
      </trkpt>
      <trkpt lat="45.33136" lon="4.24959">
        <ele>640</ele>
        <time>2021-04-26T10:00:19Z</time>
      </trkpt>
      <trkpt lat="45.33138" lon="4.2496">
        <ele>640</ele>
        <time>2021-04-26T10:00:20Z</time>
      </trkpt>
      <trkpt lat="45.33139" lon="4.24962">
        <ele>641</ele>
        <time>2021-04-26T10:00:21Z</time>
      </trkpt>
      <trkpt lat="45.33141" lon="4.24964">
        <ele>641</ele>
        <time>2021-04-26T10:00:22Z</time>
      </trkpt>
      <trkpt lat="45.33143" lon="4.24965">
        <ele>641</ele>
        <time>2021-04-26T10:00:23Z</time>
      </trkpt>
      <trkpt lat="45.33144" lon="4.24968">
        <ele>641</ele>
        <time>2021-04-26T10:00:24Z</time>
      </trkpt>
      <trkpt lat="45.33145" lon="4.2497">
        <ele>641</ele>
        <time>2021-04-26T10:00:25Z</time>
      </trkpt>
      <trkpt lat="45.33146" lon="4.24971">
        <ele>641</ele>
        <time>2021-04-26T10:00:26Z</time>
      </trkpt>
      <trkpt lat="45.33149" lon="4.24975">
        <ele>642</ele>
        <time>2021-04-26T10:00:28Z</time>
      </trkpt>
      <trkpt lat="45.33152" lon="4.24976">
        <ele>642</ele>
        <time>2021-04-26T10:00:30Z</time>
      </trkpt>
      <trkpt lat="45.33154" lon="4.24977">
        <ele>642</ele>
        <time>2021-04-26T10:00:31Z</time>
      </trkpt>
      <trkpt lat="45.33156" lon="4.24977">
        <ele>643</ele>
        <time>2021-04-26T10:00:32Z</time>
      </trkpt>
      <trkpt lat="45.33158" lon="4.24977">
        <ele>643</ele>
        <time>2021-04-26T10:00:33Z</time>
      </trkpt>
      <trkpt lat="45.3316" lon="4.24977">
        <ele>644</ele>
        <time>2021-04-26T10:00:34Z</time>
      </trkpt>
      <trkpt lat="45.33163" lon="4.24977">
        <ele>644</ele>
        <time>2021-04-26T10:00:35Z</time>
      </trkpt>
      <trkpt lat="45.33165" lon="4.24976">
        <ele>644</ele>
        <time>2021-04-26T10:00:36Z</time>
      </trkpt>
      <trkpt lat="45.33167" lon="4.24975">
        <ele>644</ele>
        <time>2021-04-26T10:00:37Z</time>
      </trkpt>
      <trkpt lat="45.33169" lon="4.24974">
        <ele>645</ele>
        <time>2021-04-26T10:00:38Z</time>
      </trkpt>
      <trkpt lat="45.33173" lon="4.24974">
        <ele>646</ele>
        <time>2021-04-26T10:00:40Z</time>
      </trkpt>
      <trkpt lat="45.33174" lon="4.24975">
        <ele>646</ele>
        <time>2021-04-26T10:00:41Z</time>
      </trkpt>
      <trkpt lat="45.33175" lon="4.24978">
        <ele>647</ele>
        <time>2021-04-26T10:00:42Z</time>
      </trkpt>
      <trkpt lat="45.33176" lon="4.2498">
        <ele>647</ele>
        <time>2021-04-26T10:00:43Z</time>
      </trkpt>
      <trkpt lat="45.33177" lon="4.24983">
        <ele>648</ele>
        <time>2021-04-26T10:00:44Z</time>
      </trkpt>
      <trkpt lat="45.33178" lon="4.24986">
        <ele>648</ele>
        <time>2021-04-26T10:00:45Z</time>
      </trkpt>
      <trkpt lat="45.33179" lon="4.24988">
        <ele>648</ele>
        <time>2021-04-26T10:00:46Z</time>
      </trkpt>
      <trkpt lat="45.3318" lon="4.24991">
        <ele>649</ele>
        <time>2021-04-26T10:00:47Z</time>
      </trkpt>
      <trkpt lat="45.33181" lon="4.24993">
        <ele>649</ele>
        <time>2021-04-26T10:00:48Z</time>
      </trkpt>
      <trkpt lat="45.33183" lon="4.24996">
        <ele>650</ele>
        <time>2021-04-26T10:00:49Z</time>
      </trkpt>
      <trkpt lat="45.33184" lon="4.24998">
        <ele>650</ele>
        <time>2021-04-26T10:00:50Z</time>
      </trkpt>
      <trkpt lat="45.33184" lon="4.25001">
        <ele>650</ele>
        <time>2021-04-26T10:00:51Z</time>
      </trkpt>
      <trkpt lat="45.33186" lon="4.25003">
        <ele>651</ele>
        <time>2021-04-26T10:00:52Z</time>
      </trkpt>
      <trkpt lat="45.33187" lon="4.25006">
        <ele>651</ele>
        <time>2021-04-26T10:00:53Z</time>
      </trkpt>
      <trkpt lat="45.33188" lon="4.25008">
        <ele>651</ele>
        <time>2021-04-26T10:00:54Z</time>
      </trkpt>
      <trkpt lat="45.3319" lon="4.25011">
        <ele>651</ele>
        <time>2021-04-26T10:00:55Z</time>
      </trkpt>
      <trkpt lat="45.33191" lon="4.25013">
        <ele>652</ele>
        <time>2021-04-26T10:00:56Z</time>
      </trkpt>
      <trkpt lat="45.33193" lon="4.25016">
        <ele>652</ele>
        <time>2021-04-26T10:00:57Z</time>
      </trkpt>
      <trkpt lat="45.33194" lon="4.25018">
        <ele>652</ele>
        <time>2021-04-26T10:00:58Z</time>
      </trkpt>
      <trkpt lat="45.33195" lon="4.25021">
        <ele>653</ele>
        <time>2021-04-26T10:00:59Z</time>
      </trkpt>
      <trkpt lat="45.33196" lon="4.25023">
        <ele>653</ele>
        <time>2021-04-26T10:01:00Z</time>
      </trkpt>
      <trkpt lat="45.33198" lon="4.25026">
        <ele>653</ele>
        <time>2021-04-26T10:01:01Z</time>
      </trkpt>
      <trkpt lat="45.332" lon="4.25029">
        <ele>654</ele>
        <time>2021-04-26T10:01:02Z</time>
      </trkpt>
      <trkpt lat="45.33203" lon="4.25031">
        <ele>654</ele>
        <time>2021-04-26T10:01:03Z</time>
      </trkpt>
      <trkpt lat="45.33205" lon="4.25033">
        <ele>655</ele>
        <time>2021-04-26T10:01:04Z</time>
      </trkpt>
      <trkpt lat="45.33208" lon="4.25036">
        <ele>655</ele>
        <time>2021-04-26T10:01:05Z</time>
      </trkpt>
      <trkpt lat="45.33211" lon="4.25038">
        <ele>655</ele>
        <time>2021-04-26T10:01:06Z</time>
      </trkpt>
      <trkpt lat="45.33214" lon="4.2504">
        <ele>655</ele>
        <time>2021-04-26T10:01:07Z</time>
      </trkpt>
      <trkpt lat="45.33217" lon="4.25042">
        <ele>656</ele>
        <time>2021-04-26T10:01:08Z</time>
      </trkpt>
      <trkpt lat="45.3322" lon="4.25044">
        <ele>656</ele>
        <time>2021-04-26T10:01:09Z</time>
      </trkpt>
      <trkpt lat="45.33224" lon="4.25048">
        <ele>656</ele>
        <time>2021-04-26T10:01:10Z</time>
      </trkpt>
      <trkpt lat="45.3323" lon="4.25055">
        <ele>657</ele>
        <time>2021-04-26T10:01:12Z</time>
      </trkpt>
      <trkpt lat="45.33232" lon="4.25058">
        <ele>657</ele>
        <time>2021-04-26T10:01:13Z</time>
      </trkpt>
      <trkpt lat="45.33232" lon="4.25061">
        <ele>657</ele>
        <time>2021-04-26T10:01:14Z</time>
      </trkpt>
      <trkpt lat="45.33234" lon="4.25065">
        <ele>658</ele>
        <time>2021-04-26T10:01:15Z</time>
      </trkpt>
      <trkpt lat="45.33235" lon="4.25068">
        <ele>658</ele>
        <time>2021-04-26T10:01:16Z</time>
      </trkpt>
      <trkpt lat="45.33236" lon="4.25071">
        <ele>658</ele>
        <time>2021-04-26T10:01:17Z</time>
      </trkpt>
      <trkpt lat="45.33237" lon="4.25075">
        <ele>659</ele>
        <time>2021-04-26T10:01:18Z</time>
      </trkpt>
      <trkpt lat="45.33237" lon="4.25079">
        <ele>659</ele>
        <time>2021-04-26T10:01:19Z</time>
      </trkpt>
      <trkpt lat="45.33238" lon="4.25082">
        <ele>660</ele>
        <time>2021-04-26T10:01:20Z</time>
      </trkpt>
      <trkpt lat="45.33238" lon="4.25085">
        <ele>660</ele>
        <time>2021-04-26T10:01:21Z</time>
      </trkpt>
      <trkpt lat="45.33238" lon="4.25089">
        <ele>661</ele>
        <time>2021-04-26T10:01:22Z</time>
      </trkpt>
      <trkpt lat="45.33239" lon="4.25093">
        <ele>661</ele>
        <time>2021-04-26T10:01:23Z</time>
      </trkpt>
      <trkpt lat="45.33239" lon="4.25096">
        <ele>661</ele>
        <time>2021-04-26T10:01:24Z</time>
      </trkpt>
      <trkpt lat="45.33239" lon="4.251">
        <ele>662</ele>
        <time>2021-04-26T10:01:25Z</time>
      </trkpt>
      <trkpt lat="45.33239" lon="4.25104">
        <ele>662</ele>
        <time>2021-04-26T10:01:26Z</time>
      </trkpt>
      <trkpt lat="45.33239" lon="4.25107">
        <ele>662</ele>
        <time>2021-04-26T10:01:27Z</time>
      </trkpt>
      <trkpt lat="45.3324" lon="4.25111">
        <ele>662</ele>
        <time>2021-04-26T10:01:28Z</time>
      </trkpt>
      <trkpt lat="45.3324" lon="4.25114">
        <ele>663</ele>
        <time>2021-04-26T10:01:29Z</time>
      </trkpt>
      <trkpt lat="45.3324" lon="4.25117">
        <ele>664</ele>
        <time>2021-04-26T10:01:30Z</time>
      </trkpt>
      <trkpt lat="45.3324" lon="4.2512">
        <ele>664</ele>
        <time>2021-04-26T10:01:31Z</time>
      </trkpt>
      <trkpt lat="45.3324" lon="4.25124">
        <ele>664</ele>
        <time>2021-04-26T10:01:32Z</time>
      </trkpt>
      <trkpt lat="45.3324" lon="4.25128">
        <ele>665</ele>
        <time>2021-04-26T10:01:33Z</time>
      </trkpt>
      <trkpt lat="45.3324" lon="4.25132">
        <ele>665</ele>
        <time>2021-04-26T10:01:34Z</time>
      </trkpt>
      <trkpt lat="45.3324" lon="4.25136">
        <ele>665</ele>
        <time>2021-04-26T10:01:35Z</time>
      </trkpt>
      <trkpt lat="45.3324" lon="4.2514">
        <ele>665</ele>
        <time>2021-04-26T10:01:36Z</time>
      </trkpt>
      <trkpt lat="45.3324" lon="4.25143">
        <ele>666</ele>
        <time>2021-04-26T10:01:37Z</time>
      </trkpt>
      <trkpt lat="45.3324" lon="4.25147">
        <ele>667</ele>
        <time>2021-04-26T10:01:38Z</time>
      </trkpt>
      <trkpt lat="45.3324" lon="4.2515">
        <ele>667</ele>
        <time>2021-04-26T10:01:39Z</time>
      </trkpt>
      <trkpt lat="45.3324" lon="4.25157">
        <ele>667</ele>
        <time>2021-04-26T10:01:40Z</time>
      </trkpt>
      <trkpt lat="45.33239" lon="4.2516">
        <ele>668</ele>
        <time>2021-04-26T10:01:42Z</time>
      </trkpt>
      <trkpt lat="45.33239" lon="4.25163">
        <ele>668</ele>
        <time>2021-04-26T10:01:43Z</time>
      </trkpt>
      <trkpt lat="45.33239" lon="4.25166">
        <ele>669</ele>
        <time>2021-04-26T10:01:44Z</time>
      </trkpt>
      <trkpt lat="45.33239" lon="4.25169">
        <ele>669</ele>
        <time>2021-04-26T10:01:45Z</time>
      </trkpt>
      <trkpt lat="45.33238" lon="4.25172">
        <ele>669</ele>
        <time>2021-04-26T10:01:46Z</time>
      </trkpt>
      <trkpt lat="45.33238" lon="4.25176">
        <ele>669</ele>
        <time>2021-04-26T10:01:47Z</time>
      </trkpt>
      <trkpt lat="45.33238" lon="4.25179">
        <ele>670</ele>
        <time>2021-04-26T10:01:48Z</time>
      </trkpt>
      <trkpt lat="45.33237" lon="4.25182">
        <ele>670</ele>
        <time>2021-04-26T10:01:49Z</time>
      </trkpt>
      <trkpt lat="45.33236" lon="4.25185">
        <ele>670</ele>
        <time>2021-04-26T10:01:50Z</time>
      </trkpt>
      <trkpt lat="45.33235" lon="4.25188">
        <ele>671</ele>
        <time>2021-04-26T10:01:51Z</time>
      </trkpt>
      <trkpt lat="45.33235" lon="4.25192">
        <ele>671</ele>
        <time>2021-04-26T10:01:52Z</time>
      </trkpt>
      <trkpt lat="45.33234" lon="4.25195">
        <ele>671</ele>
        <time>2021-04-26T10:01:53Z</time>
      </trkpt>
      <trkpt lat="45.33234" lon="4.25199">
        <ele>671</ele>
        <time>2021-04-26T10:01:54Z</time>
      </trkpt>
      <trkpt lat="45.33234" lon="4.25202">
        <ele>672</ele>
        <time>2021-04-26T10:01:55Z</time>
      </trkpt>
      <trkpt lat="45.33234" lon="4.25206">
        <ele>672</ele>
        <time>2021-04-26T10:01:56Z</time>
      </trkpt>
      <trkpt lat="45.33234" lon="4.2521">
        <ele>672</ele>
        <time>2021-04-26T10:01:57Z</time>
      </trkpt>
      <trkpt lat="45.33234" lon="4.25213">
        <ele>673</ele>
        <time>2021-04-26T10:01:58Z</time>
      </trkpt>
      <trkpt lat="45.33234" lon="4.25217">
        <ele>673</ele>
        <time>2021-04-26T10:01:59Z</time>
      </trkpt>
      <trkpt lat="45.33235" lon="4.2522">
        <ele>673</ele>
        <time>2021-04-26T10:02:00Z</time>
      </trkpt>
      <trkpt lat="45.33236" lon="4.25223">
        <ele>674</ele>
        <time>2021-04-26T10:02:01Z</time>
      </trkpt>
      <trkpt lat="45.33236" lon="4.25227">
        <ele>674</ele>
        <time>2021-04-26T10:02:02Z</time>
      </trkpt>
      <trkpt lat="45.33236" lon="4.2523">
        <ele>675</ele>
        <time>2021-04-26T10:02:03Z</time>
      </trkpt>
      <trkpt lat="45.33237" lon="4.25234">
        <ele>675</ele>
        <time>2021-04-26T10:02:04Z</time>
      </trkpt>
      <trkpt lat="45.33238" lon="4.25237">
        <ele>675</ele>
        <time>2021-04-26T10:02:05Z</time>
      </trkpt>
      <trkpt lat="45.33238" lon="4.2524">
        <ele>675</ele>
        <time>2021-04-26T10:02:06Z</time>
      </trkpt>
      <trkpt lat="45.33239" lon="4.25243">
        <ele>676</ele>
        <time>2021-04-26T10:02:07Z</time>
      </trkpt>
      <trkpt lat="45.3324" lon="4.25247">
        <ele>676</ele>
        <time>2021-04-26T10:02:08Z</time>
      </trkpt>
      <trkpt lat="45.33241" lon="4.25249">
        <ele>677</ele>
        <time>2021-04-26T10:02:09Z</time>
      </trkpt>
      <trkpt lat="45.33242" lon="4.25251">
        <ele>677</ele>
        <time>2021-04-26T10:02:10Z</time>
      </trkpt>
      <trkpt lat="45.33243" lon="4.25254">
        <ele>677</ele>
        <time>2021-04-26T10:02:11Z</time>
      </trkpt>
      <trkpt lat="45.33244" lon="4.25257">
        <ele>677</ele>
        <time>2021-04-26T10:02:12Z</time>
      </trkpt>
      <trkpt lat="45.33245" lon="4.25259">
        <ele>677</ele>
        <time>2021-04-26T10:02:13Z</time>
      </trkpt>
      <trkpt lat="45.33246" lon="4.25262">
        <ele>678</ele>
        <time>2021-04-26T10:02:14Z</time>
      </trkpt>
      <trkpt lat="45.33248" lon="4.25264">
        <ele>678</ele>
        <time>2021-04-26T10:02:15Z</time>
      </trkpt>
      <trkpt lat="45.33249" lon="4.25267">
        <ele>678</ele>
        <time>2021-04-26T10:02:16Z</time>
      </trkpt>
      <trkpt lat="45.33251" lon="4.2527">
        <ele>679</ele>
        <time>2021-04-26T10:02:17Z</time>
      </trkpt>
      <trkpt lat="45.33252" lon="4.25272">
        <ele>679</ele>
        <time>2021-04-26T10:02:18Z</time>
      </trkpt>
      <trkpt lat="45.33253" lon="4.25275">
        <ele>679</ele>
        <time>2021-04-26T10:02:19Z</time>
      </trkpt>
      <trkpt lat="45.33254" lon="4.25278">
        <ele>680</ele>
        <time>2021-04-26T10:02:20Z</time>
      </trkpt>
      <trkpt lat="45.33255" lon="4.25284">
        <ele>681</ele>
        <time>2021-04-26T10:02:22Z</time>
      </trkpt>
      <trkpt lat="45.33255" lon="4.25287">
        <ele>682</ele>
        <time>2021-04-26T10:02:23Z</time>
      </trkpt>
      <trkpt lat="45.33255" lon="4.2529">
        <ele>682</ele>
        <time>2021-04-26T10:02:24Z</time>
      </trkpt>
      <trkpt lat="45.33255" lon="4.25293">
        <ele>682</ele>
        <time>2021-04-26T10:02:25Z</time>
      </trkpt>
      <trkpt lat="45.33254" lon="4.25296">
        <ele>683</ele>
        <time>2021-04-26T10:02:26Z</time>
      </trkpt>
      <trkpt lat="45.33254" lon="4.25299">
        <ele>683</ele>
        <time>2021-04-26T10:02:27Z</time>
      </trkpt>
      <trkpt lat="45.33253" lon="4.25302">
        <ele>684</ele>
        <time>2021-04-26T10:02:28Z</time>
      </trkpt>
      <trkpt lat="45.33252" lon="4.25306">
        <ele>684</ele>
        <time>2021-04-26T10:02:29Z</time>
      </trkpt>
      <trkpt lat="45.33252" lon="4.25309">
        <ele>685</ele>
        <time>2021-04-26T10:02:30Z</time>
      </trkpt>
      <trkpt lat="45.33252" lon="4.25312">
        <ele>686</ele>
        <time>2021-04-26T10:02:31Z</time>
      </trkpt>
      <trkpt lat="45.33251" lon="4.25315">
        <ele>686</ele>
        <time>2021-04-26T10:02:32Z</time>
      </trkpt>
      <trkpt lat="45.33251" lon="4.25318">
        <ele>687</ele>
        <time>2021-04-26T10:02:33Z</time>
      </trkpt>
      <trkpt lat="45.33251" lon="4.25321">
        <ele>687</ele>
        <time>2021-04-26T10:02:34Z</time>
      </trkpt>
      <trkpt lat="45.33251" lon="4.25324">
        <ele>687</ele>
        <time>2021-04-26T10:02:35Z</time>
      </trkpt>
      <trkpt lat="45.33252" lon="4.25327">
        <ele>688</ele>
        <time>2021-04-26T10:02:36Z</time>
      </trkpt>
      <trkpt lat="45.33252" lon="4.2533">
        <ele>688</ele>
        <time>2021-04-26T10:02:37Z</time>
      </trkpt>
      <trkpt lat="45.33252" lon="4.25333">
        <ele>689</ele>
        <time>2021-04-26T10:02:38Z</time>
      </trkpt>
      <trkpt lat="45.33253" lon="4.25336">
        <ele>689</ele>
        <time>2021-04-26T10:02:39Z</time>
      </trkpt>
      <trkpt lat="45.33253" lon="4.2534">
        <ele>690</ele>
        <time>2021-04-26T10:02:40Z</time>
      </trkpt>
      <trkpt lat="45.33253" lon="4.25344">
        <ele>690</ele>
        <time>2021-04-26T10:02:41Z</time>
      </trkpt>
      <trkpt lat="45.33253" lon="4.25348">
        <ele>691</ele>
        <time>2021-04-26T10:02:42Z</time>
      </trkpt>
      <trkpt lat="45.33253" lon="4.25352">
        <ele>691</ele>
        <time>2021-04-26T10:02:43Z</time>
      </trkpt>
      <trkpt lat="45.33254" lon="4.25356">
        <ele>691</ele>
        <time>2021-04-26T10:02:44Z</time>
      </trkpt>
      <trkpt lat="45.33254" lon="4.25359">
        <ele>692</ele>
        <time>2021-04-26T10:02:45Z</time>
      </trkpt>
      <trkpt lat="45.33255" lon="4.25363">
        <ele>693</ele>
        <time>2021-04-26T10:02:46Z</time>
      </trkpt>
      <trkpt lat="45.33255" lon="4.25366">
        <ele>693</ele>
        <time>2021-04-26T10:02:47Z</time>
      </trkpt>
      <trkpt lat="45.33256" lon="4.2537">
        <ele>694</ele>
        <time>2021-04-26T10:02:48Z</time>
      </trkpt>
      <trkpt lat="45.33256" lon="4.25374">
        <ele>694</ele>
        <time>2021-04-26T10:02:49Z</time>
      </trkpt>
      <trkpt lat="45.33256" lon="4.25377">
        <ele>694</ele>
        <time>2021-04-26T10:02:50Z</time>
      </trkpt>
      <trkpt lat="45.33256" lon="4.25381">
        <ele>695</ele>
        <time>2021-04-26T10:02:51Z</time>
      </trkpt>
      <trkpt lat="45.33256" lon="4.25385">
        <ele>696</ele>
        <time>2021-04-26T10:02:52Z</time>
      </trkpt>
      <trkpt lat="45.33256" lon="4.25389">
        <ele>696</ele>
        <time>2021-04-26T10:02:53Z</time>
      </trkpt>
      <trkpt lat="45.33256" lon="4.25392">
        <ele>697</ele>
        <time>2021-04-26T10:02:54Z</time>
      </trkpt>
      <trkpt lat="45.33256" lon="4.25395">
        <ele>697</ele>
        <time>2021-04-26T10:02:55Z</time>
      </trkpt>
      <trkpt lat="45.33257" lon="4.25398">
        <ele>698</ele>
        <time>2021-04-26T10:02:56Z</time>
      </trkpt>
      <trkpt lat="45.33257" lon="4.25401">
        <ele>698</ele>
        <time>2021-04-26T10:02:57Z</time>
      </trkpt>
      <trkpt lat="45.33257" lon="4.25404">
        <ele>698</ele>
        <time>2021-04-26T10:02:58Z</time>
      </trkpt>
      <trkpt lat="45.33257" lon="4.25407">
        <ele>699</ele>
        <time>2021-04-26T10:02:59Z</time>
      </trkpt>
      <trkpt lat="45.33253" lon="4.2542">
        <ele>699</ele>
        <time>2021-04-26T10:03:03Z</time>
      </trkpt>
      <trkpt lat="45.3325" lon="4.25434">
        <ele>703</ele>
        <time>2021-04-26T10:03:08Z</time>
      </trkpt>
      <trkpt lat="45.33248" lon="4.25447">
        <ele>704</ele>
        <time>2021-04-26T10:03:11Z</time>
      </trkpt>
      <trkpt lat="45.33248" lon="4.25451">
        <ele>705</ele>
        <time>2021-04-26T10:03:12Z</time>
      </trkpt>
      <trkpt lat="45.33248" lon="4.25453">
        <ele>706</ele>
        <time>2021-04-26T10:03:13Z</time>
      </trkpt>
      <trkpt lat="45.33249" lon="4.25462">
        <ele>707</ele>
        <time>2021-04-26T10:03:16Z</time>
      </trkpt>
      <trkpt lat="45.33249" lon="4.25465">
        <ele>708</ele>
        <time>2021-04-26T10:03:17Z</time>
      </trkpt>
      <trkpt lat="45.33247" lon="4.25478">
        <ele>708</ele>
        <time>2021-04-26T10:03:22Z</time>
      </trkpt>
      <trkpt lat="45.33247" lon="4.25493">
        <ele>708</ele>
        <time>2021-04-26T10:03:26Z</time>
      </trkpt>
      <trkpt lat="45.33245" lon="4.25509">
        <ele>716</ele>
        <time>2021-04-26T10:03:30Z</time>
      </trkpt>
      <trkpt lat="45.33245" lon="4.25522">
        <ele>718</ele>
        <time>2021-04-26T10:03:33Z</time>
      </trkpt>
      <trkpt lat="45.33246" lon="4.25536">
        <ele>719</ele>
        <time>2021-04-26T10:03:36Z</time>
      </trkpt>
      <trkpt lat="45.33245" lon="4.2555">
        <ele>721</ele>
        <time>2021-04-26T10:03:39Z</time>
      </trkpt>
      <trkpt lat="45.33246" lon="4.25565">
        <ele>722</ele>
        <time>2021-04-26T10:03:42Z</time>
      </trkpt>
      <trkpt lat="45.33246" lon="4.25569">
        <ele>722</ele>
        <time>2021-04-26T10:03:43Z</time>
      </trkpt>
      <trkpt lat="45.33246" lon="4.25573">
        <ele>722</ele>
        <time>2021-04-26T10:03:44Z</time>
      </trkpt>
      <trkpt lat="45.33246" lon="4.25577">
        <ele>723</ele>
        <time>2021-04-26T10:03:45Z</time>
      </trkpt>
      <trkpt lat="45.33247" lon="4.25581">
        <ele>723</ele>
        <time>2021-04-26T10:03:46Z</time>
      </trkpt>
      <trkpt lat="45.33246" lon="4.25588">
        <ele>724</ele>
        <time>2021-04-26T10:03:48Z</time>
      </trkpt>
      <trkpt lat="45.33246" lon="4.25592">
        <ele>724</ele>
        <time>2021-04-26T10:03:49Z</time>
      </trkpt>
      <trkpt lat="45.33246" lon="4.25596">
        <ele>724</ele>
        <time>2021-04-26T10:03:50Z</time>
      </trkpt>
      <trkpt lat="45.33246" lon="4.25599">
        <ele>724</ele>
        <time>2021-04-26T10:03:51Z</time>
      </trkpt>
      <trkpt lat="45.33247" lon="4.25605">
        <ele>724</ele>
        <time>2021-04-26T10:03:53Z</time>
      </trkpt>
      <trkpt lat="45.33251" lon="4.25615">
        <ele>725</ele>
        <time>2021-04-26T10:03:55Z</time>
      </trkpt>
      <trkpt lat="45.33252" lon="4.25618">
        <ele>725</ele>
        <time>2021-04-26T10:03:57Z</time>
      </trkpt>
      <trkpt lat="45.33253" lon="4.25622">
        <ele>725</ele>
        <time>2021-04-26T10:03:59Z</time>
      </trkpt>
      <trkpt lat="45.33249" lon="4.25636">
        <ele>727</ele>
        <time>2021-04-26T10:04:03Z</time>
      </trkpt>
      <trkpt lat="45.33242" lon="4.25647">
        <ele>729</ele>
        <time>2021-04-26T10:04:06Z</time>
      </trkpt>
      <trkpt lat="45.3324" lon="4.2565">
        <ele>729</ele>
        <time>2021-04-26T10:04:07Z</time>
      </trkpt>
      <trkpt lat="45.33234" lon="4.25658">
        <ele>731</ele>
        <time>2021-04-26T10:04:09Z</time>
      </trkpt>
      <trkpt lat="45.33231" lon="4.25662">
        <ele>731</ele>
        <time>2021-04-26T10:04:10Z</time>
      </trkpt>
      <trkpt lat="45.33229" lon="4.25666">
        <ele>732</ele>
        <time>2021-04-26T10:04:11Z</time>
      </trkpt>
      <trkpt lat="45.33227" lon="4.25669">
        <ele>733</ele>
        <time>2021-04-26T10:04:12Z</time>
      </trkpt>
      <trkpt lat="45.33224" lon="4.25671">
        <ele>733</ele>
        <time>2021-04-26T10:04:13Z</time>
      </trkpt>
      <trkpt lat="45.33222" lon="4.25675">
        <ele>733</ele>
        <time>2021-04-26T10:04:14Z</time>
      </trkpt>
      <trkpt lat="45.3322" lon="4.25678">
        <ele>734</ele>
        <time>2021-04-26T10:04:15Z</time>
      </trkpt>
      <trkpt lat="45.33215" lon="4.25689">
        <ele>736</ele>
        <time>2021-04-26T10:04:18Z</time>
      </trkpt>
      <trkpt lat="45.33209" lon="4.25702">
        <ele>738</ele>
        <time>2021-04-26T10:04:22Z</time>
      </trkpt>
      <trkpt lat="45.33204" lon="4.25713">
        <ele>740</ele>
        <time>2021-04-26T10:04:25Z</time>
      </trkpt>
      <trkpt lat="45.33203" lon="4.25722">
        <ele>741</ele>
        <time>2021-04-26T10:04:27Z</time>
      </trkpt>
      <trkpt lat="45.33199" lon="4.25738">
        <ele>741</ele>
        <time>2021-04-26T10:04:30Z</time>
      </trkpt>
      <trkpt lat="45.33198" lon="4.25752">
        <ele>744</ele>
        <time>2021-04-26T10:04:33Z</time>
      </trkpt>
      <trkpt lat="45.33192" lon="4.25767">
        <ele>745</ele>
        <time>2021-04-26T10:04:37Z</time>
      </trkpt>
      <trkpt lat="45.33189" lon="4.2577">
        <ele>745</ele>
        <time>2021-04-26T10:04:38Z</time>
      </trkpt>
      <trkpt lat="45.33187" lon="4.25774">
        <ele>746</ele>
        <time>2021-04-26T10:04:39Z</time>
      </trkpt>
      <trkpt lat="45.33184" lon="4.25778">
        <ele>746</ele>
        <time>2021-04-26T10:04:40Z</time>
      </trkpt>
      <trkpt lat="45.33182" lon="4.25782">
        <ele>747</ele>
        <time>2021-04-26T10:04:41Z</time>
      </trkpt>
      <trkpt lat="45.3318" lon="4.25787">
        <ele>747</ele>
        <time>2021-04-26T10:04:42Z</time>
      </trkpt>
      <trkpt lat="45.33178" lon="4.25792">
        <ele>748</ele>
        <time>2021-04-26T10:04:43Z</time>
      </trkpt>
      <trkpt lat="45.33176" lon="4.25798">
        <ele>748</ele>
        <time>2021-04-26T10:04:44Z</time>
      </trkpt>
      <trkpt lat="45.33175" lon="4.25803">
        <ele>749</ele>
        <time>2021-04-26T10:04:45Z</time>
      </trkpt>
      <trkpt lat="45.33175" lon="4.25808">
        <ele>749</ele>
        <time>2021-04-26T10:04:46Z</time>
      </trkpt>
      <trkpt lat="45.33175" lon="4.25814">
        <ele>749</ele>
        <time>2021-04-26T10:04:47Z</time>
      </trkpt>
      <trkpt lat="45.33175" lon="4.2582">
        <ele>750</ele>
        <time>2021-04-26T10:04:48Z</time>
      </trkpt>
      <trkpt lat="45.33176" lon="4.25825">
        <ele>750</ele>
        <time>2021-04-26T10:04:49Z</time>
      </trkpt>
      <trkpt lat="45.33176" lon="4.25831">
        <ele>750</ele>
        <time>2021-04-26T10:04:50Z</time>
      </trkpt>
      <trkpt lat="45.33177" lon="4.25837">
        <ele>751</ele>
        <time>2021-04-26T10:04:51Z</time>
      </trkpt>
      <trkpt lat="45.33177" lon="4.25842">
        <ele>751</ele>
        <time>2021-04-26T10:04:52Z</time>
      </trkpt>
      <trkpt lat="45.33178" lon="4.25848">
        <ele>751</ele>
        <time>2021-04-26T10:04:53Z</time>
      </trkpt>
      <trkpt lat="45.33178" lon="4.25853">
        <ele>751</ele>
        <time>2021-04-26T10:04:54Z</time>
      </trkpt>
      <trkpt lat="45.33179" lon="4.25859">
        <ele>752</ele>
        <time>2021-04-26T10:04:55Z</time>
      </trkpt>
      <trkpt lat="45.33179" lon="4.25864">
        <ele>752</ele>
        <time>2021-04-26T10:04:56Z</time>
      </trkpt>
      <trkpt lat="45.33178" lon="4.25869">
        <ele>752</ele>
        <time>2021-04-26T10:04:57Z</time>
      </trkpt>
      <trkpt lat="45.33177" lon="4.25875">
        <ele>752</ele>
        <time>2021-04-26T10:04:58Z</time>
      </trkpt>
      <trkpt lat="45.33175" lon="4.25879">
        <ele>752</ele>
        <time>2021-04-26T10:04:59Z</time>
      </trkpt>
      <trkpt lat="45.33173" lon="4.25884">
        <ele>752</ele>
        <time>2021-04-26T10:05:00Z</time>
      </trkpt>
      <trkpt lat="45.33171" lon="4.25888">
        <ele>753</ele>
        <time>2021-04-26T10:05:01Z</time>
      </trkpt>
      <trkpt lat="45.33168" lon="4.25892">
        <ele>753</ele>
        <time>2021-04-26T10:05:02Z</time>
      </trkpt>
      <trkpt lat="45.33166" lon="4.25896">
        <ele>753</ele>
        <time>2021-04-26T10:05:03Z</time>
      </trkpt>
      <trkpt lat="45.33164" lon="4.259">
        <ele>753</ele>
        <time>2021-04-26T10:05:04Z</time>
      </trkpt>
      <trkpt lat="45.33161" lon="4.25904">
        <ele>753</ele>
        <time>2021-04-26T10:05:05Z</time>
      </trkpt>
      <trkpt lat="45.33158" lon="4.25908">
        <ele>753</ele>
        <time>2021-04-26T10:05:06Z</time>
      </trkpt>
      <trkpt lat="45.33156" lon="4.25912">
        <ele>754</ele>
        <time>2021-04-26T10:05:07Z</time>
      </trkpt>
      <trkpt lat="45.33153" lon="4.25916">
        <ele>754</ele>
        <time>2021-04-26T10:05:08Z</time>
      </trkpt>
      <trkpt lat="45.3315" lon="4.2592">
        <ele>754</ele>
        <time>2021-04-26T10:05:09Z</time>
      </trkpt>
      <trkpt lat="45.33148" lon="4.25925">
        <ele>754</ele>
        <time>2021-04-26T10:05:10Z</time>
      </trkpt>
      <trkpt lat="45.33145" lon="4.2593">
        <ele>754</ele>
        <time>2021-04-26T10:05:11Z</time>
      </trkpt>
      <trkpt lat="45.33143" lon="4.25934">
        <ele>754</ele>
        <time>2021-04-26T10:05:12Z</time>
      </trkpt>
      <trkpt lat="45.3314" lon="4.25939">
        <ele>755</ele>
        <time>2021-04-26T10:05:13Z</time>
      </trkpt>
      <trkpt lat="45.33137" lon="4.25944">
        <ele>755</ele>
        <time>2021-04-26T10:05:14Z</time>
      </trkpt>
      <trkpt lat="45.33134" lon="4.25949">
        <ele>755</ele>
        <time>2021-04-26T10:05:15Z</time>
      </trkpt>
      <trkpt lat="45.33131" lon="4.25954">
        <ele>755</ele>
        <time>2021-04-26T10:05:16Z</time>
      </trkpt>
      <trkpt lat="45.33129" lon="4.25959">
        <ele>755</ele>
        <time>2021-04-26T10:05:17Z</time>
      </trkpt>
      <trkpt lat="45.33127" lon="4.25964">
        <ele>755</ele>
        <time>2021-04-26T10:05:18Z</time>
      </trkpt>
      <trkpt lat="45.33125" lon="4.25969">
        <ele>755</ele>
        <time>2021-04-26T10:05:19Z</time>
      </trkpt>
      <trkpt lat="45.33123" lon="4.25974">
        <ele>756</ele>
        <time>2021-04-26T10:05:20Z</time>
      </trkpt>
      <trkpt lat="45.33121" lon="4.25979">
        <ele>756</ele>
        <time>2021-04-26T10:05:21Z</time>
      </trkpt>
      <trkpt lat="45.33119" lon="4.25985">
        <ele>756</ele>
        <time>2021-04-26T10:05:22Z</time>
      </trkpt>
      <trkpt lat="45.33117" lon="4.25992">
        <ele>756</ele>
        <time>2021-04-26T10:05:23Z</time>
      </trkpt>
      <trkpt lat="45.33114" lon="4.25999">
        <ele>756</ele>
        <time>2021-04-26T10:05:24Z</time>
      </trkpt>
      <trkpt lat="45.33112" lon="4.26006">
        <ele>756</ele>
        <time>2021-04-26T10:05:25Z</time>
      </trkpt>
      <trkpt lat="45.33109" lon="4.26013">
        <ele>756</ele>
        <time>2021-04-26T10:05:26Z</time>
      </trkpt>
      <trkpt lat="45.33107" lon="4.26019">
        <ele>755</ele>
        <time>2021-04-26T10:05:27Z</time>
      </trkpt>
      <trkpt lat="45.33104" lon="4.26026">
        <ele>755</ele>
        <time>2021-04-26T10:05:28Z</time>
      </trkpt>
      <trkpt lat="45.33101" lon="4.26033">
        <ele>755</ele>
        <time>2021-04-26T10:05:29Z</time>
      </trkpt>
      <trkpt lat="45.33098" lon="4.26039">
        <ele>755</ele>
        <time>2021-04-26T10:05:30Z</time>
      </trkpt>
      <trkpt lat="45.33095" lon="4.26046">
        <ele>755</ele>
        <time>2021-04-26T10:05:31Z</time>
      </trkpt>
      <trkpt lat="45.33092" lon="4.26052">
        <ele>755</ele>
        <time>2021-04-26T10:05:32Z</time>
      </trkpt>
      <trkpt lat="45.33089" lon="4.26059">
        <ele>754</ele>
        <time>2021-04-26T10:05:33Z</time>
      </trkpt>
      <trkpt lat="45.33085" lon="4.26065">
        <ele>754</ele>
        <time>2021-04-26T10:05:34Z</time>
      </trkpt>
      <trkpt lat="45.33082" lon="4.26071">
        <ele>754</ele>
        <time>2021-04-26T10:05:35Z</time>
      </trkpt>
      <trkpt lat="45.33079" lon="4.26077">
        <ele>754</ele>
        <time>2021-04-26T10:05:36Z</time>
      </trkpt>
      <trkpt lat="45.33076" lon="4.26083">
        <ele>754</ele>
        <time>2021-04-26T10:05:37Z</time>
      </trkpt>
      <trkpt lat="45.33073" lon="4.26089">
        <ele>753</ele>
        <time>2021-04-26T10:05:38Z</time>
      </trkpt>
      <trkpt lat="45.33069" lon="4.26095">
        <ele>753</ele>
        <time>2021-04-26T10:05:39Z</time>
      </trkpt>
      <trkpt lat="45.33066" lon="4.26101">
        <ele>753</ele>
        <time>2021-04-26T10:05:40Z</time>
      </trkpt>
      <trkpt lat="45.33063" lon="4.26108">
        <ele>753</ele>
        <time>2021-04-26T10:05:41Z</time>
      </trkpt>
      <trkpt lat="45.33061" lon="4.26115">
        <ele>753</ele>
        <time>2021-04-26T10:05:42Z</time>
      </trkpt>
      <trkpt lat="45.33058" lon="4.26123">
        <ele>753</ele>
        <time>2021-04-26T10:05:43Z</time>
      </trkpt>
      <trkpt lat="45.33056" lon="4.2613">
        <ele>752</ele>
        <time>2021-04-26T10:05:44Z</time>
      </trkpt>
      <trkpt lat="45.33055" lon="4.26138">
        <ele>752</ele>
        <time>2021-04-26T10:05:45Z</time>
      </trkpt>
      <trkpt lat="45.33054" lon="4.26145">
        <ele>752</ele>
        <time>2021-04-26T10:05:46Z</time>
      </trkpt>
      <trkpt lat="45.33054" lon="4.26152">
        <ele>752</ele>
        <time>2021-04-26T10:05:47Z</time>
      </trkpt>
      <trkpt lat="45.33053" lon="4.26159">
        <ele>752</ele>
        <time>2021-04-26T10:05:48Z</time>
      </trkpt>
      <trkpt lat="45.33053" lon="4.26167">
        <ele>752</ele>
        <time>2021-04-26T10:05:49Z</time>
      </trkpt>
      <trkpt lat="45.33054" lon="4.26174">
        <ele>752</ele>
        <time>2021-04-26T10:05:50Z</time>
      </trkpt>
      <trkpt lat="45.33055" lon="4.26182">
        <ele>752</ele>
        <time>2021-04-26T10:05:51Z</time>
      </trkpt>
      <trkpt lat="45.33058" lon="4.2619">
        <ele>752</ele>
        <time>2021-04-26T10:05:52Z</time>
      </trkpt>
      <trkpt lat="45.33062" lon="4.26197">
        <ele>752</ele>
        <time>2021-04-26T10:05:53Z</time>
      </trkpt>
      <trkpt lat="45.33066" lon="4.26202">
        <ele>752</ele>
        <time>2021-04-26T10:05:54Z</time>
      </trkpt>
      <trkpt lat="45.3307" lon="4.26204">
        <ele>752</ele>
        <time>2021-04-26T10:05:55Z</time>
      </trkpt>
      <trkpt lat="45.33074" lon="4.26206">
        <ele>752</ele>
        <time>2021-04-26T10:05:56Z</time>
      </trkpt>
      <trkpt lat="45.33079" lon="4.26206">
        <ele>752</ele>
        <time>2021-04-26T10:05:57Z</time>
      </trkpt>
      <trkpt lat="45.33084" lon="4.26205">
        <ele>752</ele>
        <time>2021-04-26T10:05:58Z</time>
      </trkpt>
      <trkpt lat="45.33089" lon="4.26205">
        <ele>752</ele>
        <time>2021-04-26T10:05:59Z</time>
      </trkpt>
      <trkpt lat="45.33093" lon="4.26206">
        <ele>753</ele>
        <time>2021-04-26T10:06:00Z</time>
      </trkpt>
      <trkpt lat="45.33096" lon="4.26206">
        <ele>753</ele>
        <time>2021-04-26T10:06:01Z</time>
      </trkpt>
      <trkpt lat="45.331" lon="4.26208">
        <ele>753</ele>
        <time>2021-04-26T10:06:02Z</time>
      </trkpt>
      <trkpt lat="45.33103" lon="4.26209">
        <ele>753</ele>
        <time>2021-04-26T10:06:03Z</time>
      </trkpt>
      <trkpt lat="45.33106" lon="4.2621">
        <ele>753</ele>
        <time>2021-04-26T10:06:04Z</time>
      </trkpt>
      <trkpt lat="45.3311" lon="4.26212">
        <ele>753</ele>
        <time>2021-04-26T10:06:05Z</time>
      </trkpt>
      <trkpt lat="45.33112" lon="4.26215">
        <ele>754</ele>
        <time>2021-04-26T10:06:06Z</time>
      </trkpt>
      <trkpt lat="45.33115" lon="4.26219">
        <ele>754</ele>
        <time>2021-04-26T10:06:07Z</time>
      </trkpt>
      <trkpt lat="45.33117" lon="4.26223">
        <ele>754</ele>
        <time>2021-04-26T10:06:08Z</time>
      </trkpt>
      <trkpt lat="45.33119" lon="4.26227">
        <ele>754</ele>
        <time>2021-04-26T10:06:09Z</time>
      </trkpt>
      <trkpt lat="45.3312" lon="4.26232">
        <ele>754</ele>
        <time>2021-04-26T10:06:10Z</time>
      </trkpt>
      <trkpt lat="45.33122" lon="4.26236">
        <ele>754</ele>
        <time>2021-04-26T10:06:11Z</time>
      </trkpt>
      <trkpt lat="45.33123" lon="4.26239">
        <ele>755</ele>
        <time>2021-04-26T10:06:12Z</time>
      </trkpt>
      <trkpt lat="45.33128" lon="4.26248">
        <ele>755</ele>
        <time>2021-04-26T10:06:14Z</time>
      </trkpt>
      <trkpt lat="45.3313" lon="4.26253">
        <ele>755</ele>
        <time>2021-04-26T10:06:15Z</time>
      </trkpt>
      <trkpt lat="45.33132" lon="4.26257">
        <ele>755</ele>
        <time>2021-04-26T10:06:16Z</time>
      </trkpt>
      <trkpt lat="45.33133" lon="4.26261">
        <ele>756</ele>
        <time>2021-04-26T10:06:17Z</time>
      </trkpt>
      <trkpt lat="45.33134" lon="4.26266">
        <ele>756</ele>
        <time>2021-04-26T10:06:18Z</time>
      </trkpt>
      <trkpt lat="45.33135" lon="4.26271">
        <ele>757</ele>
        <time>2021-04-26T10:06:19Z</time>
      </trkpt>
      <trkpt lat="45.33136" lon="4.26276">
        <ele>757</ele>
        <time>2021-04-26T10:06:20Z</time>
      </trkpt>
      <trkpt lat="45.33137" lon="4.26281">
        <ele>757</ele>
        <time>2021-04-26T10:06:21Z</time>
      </trkpt>
      <trkpt lat="45.33138" lon="4.26286">
        <ele>757</ele>
        <time>2021-04-26T10:06:22Z</time>
      </trkpt>
      <trkpt lat="45.33139" lon="4.26291">
        <ele>757</ele>
        <time>2021-04-26T10:06:23Z</time>
      </trkpt>
      <trkpt lat="45.33139" lon="4.26297">
        <ele>757</ele>
        <time>2021-04-26T10:06:24Z</time>
      </trkpt>
      <trkpt lat="45.3314" lon="4.26303">
        <ele>757</ele>
        <time>2021-04-26T10:06:25Z</time>
      </trkpt>
      <trkpt lat="45.33141" lon="4.26309">
        <ele>757</ele>
        <time>2021-04-26T10:06:26Z</time>
      </trkpt>
      <trkpt lat="45.33141" lon="4.26315">
        <ele>757</ele>
        <time>2021-04-26T10:06:27Z</time>
      </trkpt>
      <trkpt lat="45.33142" lon="4.26321">
        <ele>758</ele>
        <time>2021-04-26T10:06:28Z</time>
      </trkpt>
      <trkpt lat="45.33143" lon="4.26326">
        <ele>758</ele>
        <time>2021-04-26T10:06:29Z</time>
      </trkpt>
      <trkpt lat="45.33144" lon="4.26332">
        <ele>758</ele>
        <time>2021-04-26T10:06:30Z</time>
      </trkpt>
      <trkpt lat="45.33146" lon="4.26337">
        <ele>758</ele>
        <time>2021-04-26T10:06:31Z</time>
      </trkpt>
      <trkpt lat="45.33146" lon="4.26342">
        <ele>758</ele>
        <time>2021-04-26T10:06:32Z</time>
      </trkpt>
      <trkpt lat="45.33147" lon="4.26347">
        <ele>759</ele>
        <time>2021-04-26T10:06:33Z</time>
      </trkpt>
      <trkpt lat="45.33148" lon="4.26351">
        <ele>759</ele>
        <time>2021-04-26T10:06:34Z</time>
      </trkpt>
      <trkpt lat="45.33148" lon="4.26356">
        <ele>759</ele>
        <time>2021-04-26T10:06:35Z</time>
      </trkpt>
      <trkpt lat="45.33149" lon="4.2636">
        <ele>759</ele>
        <time>2021-04-26T10:06:36Z</time>
      </trkpt>
      <trkpt lat="45.33149" lon="4.26365">
        <ele>759</ele>
        <time>2021-04-26T10:06:37Z</time>
      </trkpt>
      <trkpt lat="45.3315" lon="4.26375">
        <ele>760</ele>
        <time>2021-04-26T10:06:39Z</time>
      </trkpt>
      <trkpt lat="45.3315" lon="4.2638">
        <ele>760</ele>
        <time>2021-04-26T10:06:40Z</time>
      </trkpt>
      <trkpt lat="45.33151" lon="4.26386">
        <ele>760</ele>
        <time>2021-04-26T10:06:41Z</time>
      </trkpt>
      <trkpt lat="45.33151" lon="4.26392">
        <ele>760</ele>
        <time>2021-04-26T10:06:42Z</time>
      </trkpt>
      <trkpt lat="45.33152" lon="4.26396">
        <ele>760</ele>
        <time>2021-04-26T10:06:43Z</time>
      </trkpt>
      <trkpt lat="45.33152" lon="4.26401">
        <ele>760</ele>
        <time>2021-04-26T10:06:44Z</time>
      </trkpt>
      <trkpt lat="45.33152" lon="4.26405">
        <ele>760</ele>
        <time>2021-04-26T10:06:45Z</time>
      </trkpt>
      <trkpt lat="45.33153" lon="4.2641">
        <ele>760</ele>
        <time>2021-04-26T10:06:46Z</time>
      </trkpt>
      <trkpt lat="45.33153" lon="4.26415">
        <ele>761</ele>
        <time>2021-04-26T10:06:47Z</time>
      </trkpt>
      <trkpt lat="45.33154" lon="4.2642">
        <ele>761</ele>
        <time>2021-04-26T10:06:48Z</time>
      </trkpt>
      <trkpt lat="45.33153" lon="4.26425">
        <ele>761</ele>
        <time>2021-04-26T10:06:49Z</time>
      </trkpt>
      <trkpt lat="45.33153" lon="4.26429">
        <ele>761</ele>
        <time>2021-04-26T10:06:50Z</time>
      </trkpt>
      <trkpt lat="45.33153" lon="4.26434">
        <ele>761</ele>
        <time>2021-04-26T10:06:51Z</time>
      </trkpt>
      <trkpt lat="45.33154" lon="4.26439">
        <ele>762</ele>
        <time>2021-04-26T10:06:52Z</time>
      </trkpt>
      <trkpt lat="45.33154" lon="4.26444">
        <ele>762</ele>
        <time>2021-04-26T10:06:53Z</time>
      </trkpt>
      <trkpt lat="45.33154" lon="4.26449">
        <ele>762</ele>
        <time>2021-04-26T10:06:54Z</time>
      </trkpt>
      <trkpt lat="45.33155" lon="4.26453">
        <ele>762</ele>
        <time>2021-04-26T10:06:55Z</time>
      </trkpt>
      <trkpt lat="45.33156" lon="4.26458">
        <ele>763</ele>
        <time>2021-04-26T10:06:56Z</time>
      </trkpt>
      <trkpt lat="45.33157" lon="4.26463">
        <ele>763</ele>
        <time>2021-04-26T10:06:57Z</time>
      </trkpt>
      <trkpt lat="45.33158" lon="4.26467">
        <ele>763</ele>
        <time>2021-04-26T10:06:58Z</time>
      </trkpt>
      <trkpt lat="45.33159" lon="4.26471">
        <ele>764</ele>
        <time>2021-04-26T10:06:59Z</time>
      </trkpt>
      <trkpt lat="45.3316" lon="4.26475">
        <ele>764</ele>
        <time>2021-04-26T10:07:00Z</time>
      </trkpt>
      <trkpt lat="45.33162" lon="4.26478">
        <ele>764</ele>
        <time>2021-04-26T10:07:01Z</time>
      </trkpt>
      <trkpt lat="45.33164" lon="4.26482">
        <ele>765</ele>
        <time>2021-04-26T10:07:02Z</time>
      </trkpt>
      <trkpt lat="45.33166" lon="4.26486">
        <ele>765</ele>
        <time>2021-04-26T10:07:03Z</time>
      </trkpt>
      <trkpt lat="45.33169" lon="4.2649">
        <ele>765</ele>
        <time>2021-04-26T10:07:04Z</time>
      </trkpt>
      <trkpt lat="45.33173" lon="4.26494">
        <ele>766</ele>
        <time>2021-04-26T10:07:05Z</time>
      </trkpt>
      <trkpt lat="45.33177" lon="4.26497">
        <ele>766</ele>
        <time>2021-04-26T10:07:06Z</time>
      </trkpt>
      <trkpt lat="45.33181" lon="4.265">
        <ele>766</ele>
        <time>2021-04-26T10:07:07Z</time>
      </trkpt>
      <trkpt lat="45.33185" lon="4.26502">
        <ele>766</ele>
        <time>2021-04-26T10:07:08Z</time>
      </trkpt>
      <trkpt lat="45.33188" lon="4.26504">
        <ele>766</ele>
        <time>2021-04-26T10:07:09Z</time>
      </trkpt>
      <trkpt lat="45.33191" lon="4.26507">
        <ele>767</ele>
        <time>2021-04-26T10:07:10Z</time>
      </trkpt>
      <trkpt lat="45.33194" lon="4.26509">
        <ele>767</ele>
        <time>2021-04-26T10:07:11Z</time>
      </trkpt>
      <trkpt lat="45.33198" lon="4.26511">
        <ele>767</ele>
        <time>2021-04-26T10:07:12Z</time>
      </trkpt>
      <trkpt lat="45.33201" lon="4.26513">
        <ele>768</ele>
        <time>2021-04-26T10:07:13Z</time>
      </trkpt>
      <trkpt lat="45.33205" lon="4.26515">
        <ele>768</ele>
        <time>2021-04-26T10:07:14Z</time>
      </trkpt>
      <trkpt lat="45.33209" lon="4.26518">
        <ele>768</ele>
        <time>2021-04-26T10:07:15Z</time>
      </trkpt>
      <trkpt lat="45.33213" lon="4.2652">
        <ele>768</ele>
        <time>2021-04-26T10:07:16Z</time>
      </trkpt>
      <trkpt lat="45.33217" lon="4.26522">
        <ele>769</ele>
        <time>2021-04-26T10:07:17Z</time>
      </trkpt>
      <trkpt lat="45.3322" lon="4.26525">
        <ele>769</ele>
        <time>2021-04-26T10:07:18Z</time>
      </trkpt>
      <trkpt lat="45.33224" lon="4.26527">
        <ele>769</ele>
        <time>2021-04-26T10:07:19Z</time>
      </trkpt>
      <trkpt lat="45.33228" lon="4.26529">
        <ele>770</ele>
        <time>2021-04-26T10:07:20Z</time>
      </trkpt>
      <trkpt lat="45.33231" lon="4.26532">
        <ele>770</ele>
        <time>2021-04-26T10:07:21Z</time>
      </trkpt>
      <trkpt lat="45.33235" lon="4.26534">
        <ele>770</ele>
        <time>2021-04-26T10:07:22Z</time>
      </trkpt>
      <trkpt lat="45.33239" lon="4.26537">
        <ele>770</ele>
        <time>2021-04-26T10:07:23Z</time>
      </trkpt>
      <trkpt lat="45.33243" lon="4.26539">
        <ele>770</ele>
        <time>2021-04-26T10:07:24Z</time>
      </trkpt>
      <trkpt lat="45.33247" lon="4.26542">
        <ele>771</ele>
        <time>2021-04-26T10:07:25Z</time>
      </trkpt>
      <trkpt lat="45.33251" lon="4.26545">
        <ele>771</ele>
        <time>2021-04-26T10:07:26Z</time>
      </trkpt>
      <trkpt lat="45.33255" lon="4.26547">
        <ele>771</ele>
        <time>2021-04-26T10:07:27Z</time>
      </trkpt>
      <trkpt lat="45.33258" lon="4.2655">
        <ele>771</ele>
        <time>2021-04-26T10:07:28Z</time>
      </trkpt>
      <trkpt lat="45.33262" lon="4.26552">
        <ele>771</ele>
        <time>2021-04-26T10:07:29Z</time>
      </trkpt>
      <trkpt lat="45.33266" lon="4.26555">
        <ele>771</ele>
        <time>2021-04-26T10:07:30Z</time>
      </trkpt>
      <trkpt lat="45.33269" lon="4.26558">
        <ele>772</ele>
        <time>2021-04-26T10:07:31Z</time>
      </trkpt>
      <trkpt lat="45.33273" lon="4.2656">
        <ele>772</ele>
        <time>2021-04-26T10:07:32Z</time>
      </trkpt>
      <trkpt lat="45.33277" lon="4.26561">
        <ele>772</ele>
        <time>2021-04-26T10:07:33Z</time>
      </trkpt>
      <trkpt lat="45.33281" lon="4.26563">
        <ele>772</ele>
        <time>2021-04-26T10:07:34Z</time>
      </trkpt>
      <trkpt lat="45.33285" lon="4.26564">
        <ele>772</ele>
        <time>2021-04-26T10:07:35Z</time>
      </trkpt>
      <trkpt lat="45.3329" lon="4.26565">
        <ele>772</ele>
        <time>2021-04-26T10:07:36Z</time>
      </trkpt>
      <trkpt lat="45.33294" lon="4.26565">
        <ele>772</ele>
        <time>2021-04-26T10:07:37Z</time>
      </trkpt>
      <trkpt lat="45.33298" lon="4.26566">
        <ele>772</ele>
        <time>2021-04-26T10:07:38Z</time>
      </trkpt>
      <trkpt lat="45.33301" lon="4.26566">
        <ele>773</ele>
        <time>2021-04-26T10:07:39Z</time>
      </trkpt>
      <trkpt lat="45.33305" lon="4.26567">
        <ele>773</ele>
        <time>2021-04-26T10:07:40Z</time>
      </trkpt>
      <trkpt lat="45.33308" lon="4.26567">
        <ele>773</ele>
        <time>2021-04-26T10:07:41Z</time>
      </trkpt>
      <trkpt lat="45.33312" lon="4.26567">
        <ele>773</ele>
        <time>2021-04-26T10:07:42Z</time>
      </trkpt>
      <trkpt lat="45.33316" lon="4.26567">
        <ele>774</ele>
        <time>2021-04-26T10:07:43Z</time>
      </trkpt>
      <trkpt lat="45.33321" lon="4.26567">
        <ele>774</ele>
        <time>2021-04-26T10:07:44Z</time>
      </trkpt>
      <trkpt lat="45.33325" lon="4.26568">
        <ele>774</ele>
        <time>2021-04-26T10:07:45Z</time>
      </trkpt>
      <trkpt lat="45.33329" lon="4.26569">
        <ele>774</ele>
        <time>2021-04-26T10:07:46Z</time>
      </trkpt>
      <trkpt lat="45.33334" lon="4.2657">
        <ele>775</ele>
        <time>2021-04-26T10:07:47Z</time>
      </trkpt>
      <trkpt lat="45.33338" lon="4.26572">
        <ele>775</ele>
        <time>2021-04-26T10:07:48Z</time>
      </trkpt>
      <trkpt lat="45.33343" lon="4.26573">
        <ele>775</ele>
        <time>2021-04-26T10:07:49Z</time>
      </trkpt>
      <trkpt lat="45.33347" lon="4.26574">
        <ele>775</ele>
        <time>2021-04-26T10:07:50Z</time>
      </trkpt>
      <trkpt lat="45.33351" lon="4.26575">
        <ele>776</ele>
        <time>2021-04-26T10:07:51Z</time>
      </trkpt>
      <trkpt lat="45.33354" lon="4.26577">
        <ele>776</ele>
        <time>2021-04-26T10:07:52Z</time>
      </trkpt>
      <trkpt lat="45.33358" lon="4.26578">
        <ele>776</ele>
        <time>2021-04-26T10:07:53Z</time>
      </trkpt>
      <trkpt lat="45.33362" lon="4.26579">
        <ele>776</ele>
        <time>2021-04-26T10:07:54Z</time>
      </trkpt>
      <trkpt lat="45.33366" lon="4.2658">
        <ele>776</ele>
        <time>2021-04-26T10:07:55Z</time>
      </trkpt>
      <trkpt lat="45.33369" lon="4.26581">
        <ele>776</ele>
        <time>2021-04-26T10:07:56Z</time>
      </trkpt>
      <trkpt lat="45.33373" lon="4.26582">
        <ele>776</ele>
        <time>2021-04-26T10:07:57Z</time>
      </trkpt>
      <trkpt lat="45.33377" lon="4.26584">
        <ele>776</ele>
        <time>2021-04-26T10:07:58Z</time>
      </trkpt>
      <trkpt lat="45.33384" lon="4.26585">
        <ele>776</ele>
        <time>2021-04-26T10:07:59Z</time>
      </trkpt>
      <trkpt lat="45.33391" lon="4.26589">
        <ele>777</ele>
        <time>2021-04-26T10:08:01Z</time>
      </trkpt>
      <trkpt lat="45.33394" lon="4.26591">
        <ele>777</ele>
        <time>2021-04-26T10:08:03Z</time>
      </trkpt>
      <trkpt lat="45.33397" lon="4.26592">
        <ele>778</ele>
        <time>2021-04-26T10:08:04Z</time>
      </trkpt>
      <trkpt lat="45.33401" lon="4.26593">
        <ele>778</ele>
        <time>2021-04-26T10:08:05Z</time>
      </trkpt>
      <trkpt lat="45.33404" lon="4.26595">
        <ele>778</ele>
        <time>2021-04-26T10:08:06Z</time>
      </trkpt>
      <trkpt lat="45.33407" lon="4.26596">
        <ele>778</ele>
        <time>2021-04-26T10:08:07Z</time>
      </trkpt>
      <trkpt lat="45.33409" lon="4.26597">
        <ele>779</ele>
        <time>2021-04-26T10:08:08Z</time>
      </trkpt>
      <trkpt lat="45.33412" lon="4.26599">
        <ele>779</ele>
        <time>2021-04-26T10:08:09Z</time>
      </trkpt>
      <trkpt lat="45.33415" lon="4.266">
        <ele>780</ele>
        <time>2021-04-26T10:08:10Z</time>
      </trkpt>
      <trkpt lat="45.33417" lon="4.26601">
        <ele>780</ele>
        <time>2021-04-26T10:08:11Z</time>
      </trkpt>
      <trkpt lat="45.3342" lon="4.26602">
        <ele>780</ele>
        <time>2021-04-26T10:08:12Z</time>
      </trkpt>
      <trkpt lat="45.33423" lon="4.26603">
        <ele>780</ele>
        <time>2021-04-26T10:08:13Z</time>
      </trkpt>
      <trkpt lat="45.33426" lon="4.26604">
        <ele>780</ele>
        <time>2021-04-26T10:08:14Z</time>
      </trkpt>
      <trkpt lat="45.33428" lon="4.26605">
        <ele>781</ele>
        <time>2021-04-26T10:08:15Z</time>
      </trkpt>
      <trkpt lat="45.3343" lon="4.26605">
        <ele>781</ele>
        <time>2021-04-26T10:08:16Z</time>
      </trkpt>
      <trkpt lat="45.33433" lon="4.26605">
        <ele>782</ele>
        <time>2021-04-26T10:08:17Z</time>
      </trkpt>
      <trkpt lat="45.33435" lon="4.26606">
        <ele>782</ele>
        <time>2021-04-26T10:08:18Z</time>
      </trkpt>
      <trkpt lat="45.33437" lon="4.26606">
        <ele>783</ele>
        <time>2021-04-26T10:08:19Z</time>
      </trkpt>
      <trkpt lat="45.3344" lon="4.26605">
        <ele>783</ele>
        <time>2021-04-26T10:08:20Z</time>
      </trkpt>
      <trkpt lat="45.33446" lon="4.26606">
        <ele>784</ele>
        <time>2021-04-26T10:08:22Z</time>
      </trkpt>
      <trkpt lat="45.33449" lon="4.26605">
        <ele>785</ele>
        <time>2021-04-26T10:08:23Z</time>
      </trkpt>
      <trkpt lat="45.33452" lon="4.26604">
        <ele>785</ele>
        <time>2021-04-26T10:08:24Z</time>
      </trkpt>
      <trkpt lat="45.33455" lon="4.26604">
        <ele>786</ele>
        <time>2021-04-26T10:08:25Z</time>
      </trkpt>
      <trkpt lat="45.33458" lon="4.26604">
        <ele>786</ele>
        <time>2021-04-26T10:08:26Z</time>
      </trkpt>
      <trkpt lat="45.33469" lon="4.26605">
        <ele>789</ele>
        <time>2021-04-26T10:08:30Z</time>
      </trkpt>
      <trkpt lat="45.33476" lon="4.26607">
        <ele>789</ele>
        <time>2021-04-26T10:08:32Z</time>
      </trkpt>
      <trkpt lat="45.33478" lon="4.26608">
        <ele>790</ele>
        <time>2021-04-26T10:08:33Z</time>
      </trkpt>
      <trkpt lat="45.3348" lon="4.2661">
        <ele>791</ele>
        <time>2021-04-26T10:08:35Z</time>
      </trkpt>
      <trkpt lat="45.33482" lon="4.26611">
        <ele>791</ele>
        <time>2021-04-26T10:08:36Z</time>
      </trkpt>
      <trkpt lat="45.33483" lon="4.26613">
        <ele>791</ele>
        <time>2021-04-26T10:08:37Z</time>
      </trkpt>
      <trkpt lat="45.33485" lon="4.26616">
        <ele>792</ele>
        <time>2021-04-26T10:08:39Z</time>
      </trkpt>
      <trkpt lat="45.33486" lon="4.26619">
        <ele>792</ele>
        <time>2021-04-26T10:08:41Z</time>
      </trkpt>
      <trkpt lat="45.33486" lon="4.26623">
        <ele>792</ele>
        <time>2021-04-26T10:08:43Z</time>
      </trkpt>
      <trkpt lat="45.33486" lon="4.26625">
        <ele>792</ele>
        <time>2021-04-26T10:08:49Z</time>
      </trkpt>
      <trkpt lat="45.33485" lon="4.26635">
        <ele>792</ele>
        <time>2021-04-26T10:10:07Z</time>
      </trkpt>
      <trkpt lat="45.33484" lon="4.26639">
        <ele>793</ele>
        <time>2021-04-26T10:10:08Z</time>
      </trkpt>
      <trkpt lat="45.33483" lon="4.26644">
        <ele>793</ele>
        <time>2021-04-26T10:10:09Z</time>
      </trkpt>
      <trkpt lat="45.33482" lon="4.26649">
        <ele>793</ele>
        <time>2021-04-26T10:10:10Z</time>
      </trkpt>
      <trkpt lat="45.33482" lon="4.26654">
        <ele>794</ele>
        <time>2021-04-26T10:10:11Z</time>
      </trkpt>
      <trkpt lat="45.33481" lon="4.26659">
        <ele>794</ele>
        <time>2021-04-26T10:10:12Z</time>
      </trkpt>
      <trkpt lat="45.33481" lon="4.26664">
        <ele>794</ele>
        <time>2021-04-26T10:10:13Z</time>
      </trkpt>
      <trkpt lat="45.3348" lon="4.2667">
        <ele>794</ele>
        <time>2021-04-26T10:10:14Z</time>
      </trkpt>
      <trkpt lat="45.3348" lon="4.26675">
        <ele>794</ele>
        <time>2021-04-26T10:10:15Z</time>
      </trkpt>
      <trkpt lat="45.33479" lon="4.26681">
        <ele>794</ele>
        <time>2021-04-26T10:10:16Z</time>
      </trkpt>
      <trkpt lat="45.33478" lon="4.26687">
        <ele>794</ele>
        <time>2021-04-26T10:10:17Z</time>
      </trkpt>
      <trkpt lat="45.33478" lon="4.26693">
        <ele>794</ele>
        <time>2021-04-26T10:10:18Z</time>
      </trkpt>
      <trkpt lat="45.33477" lon="4.26699">
        <ele>794</ele>
        <time>2021-04-26T10:10:19Z</time>
      </trkpt>
      <trkpt lat="45.33476" lon="4.26705">
        <ele>794</ele>
        <time>2021-04-26T10:10:20Z</time>
      </trkpt>
      <trkpt lat="45.33476" lon="4.26712">
        <ele>794</ele>
        <time>2021-04-26T10:10:21Z</time>
      </trkpt>
      <trkpt lat="45.33474" lon="4.26719">
        <ele>794</ele>
        <time>2021-04-26T10:10:22Z</time>
      </trkpt>
      <trkpt lat="45.33473" lon="4.26727">
        <ele>794</ele>
        <time>2021-04-26T10:10:23Z</time>
      </trkpt>
      <trkpt lat="45.33473" lon="4.26734">
        <ele>794</ele>
        <time>2021-04-26T10:10:24Z</time>
      </trkpt>
      <trkpt lat="45.33472" lon="4.26741">
        <ele>794</ele>
        <time>2021-04-26T10:10:25Z</time>
      </trkpt>
      <trkpt lat="45.33471" lon="4.26748">
        <ele>794</ele>
        <time>2021-04-26T10:10:26Z</time>
      </trkpt>
      <trkpt lat="45.3347" lon="4.26755">
        <ele>794</ele>
        <time>2021-04-26T10:10:27Z</time>
      </trkpt>
      <trkpt lat="45.33469" lon="4.26761">
        <ele>794</ele>
        <time>2021-04-26T10:10:28Z</time>
      </trkpt>
      <trkpt lat="45.33469" lon="4.26768">
        <ele>794</ele>
        <time>2021-04-26T10:10:29Z</time>
      </trkpt>
      <trkpt lat="45.33468" lon="4.26774">
        <ele>794</ele>
        <time>2021-04-26T10:10:30Z</time>
      </trkpt>
      <trkpt lat="45.33467" lon="4.26781">
        <ele>794</ele>
        <time>2021-04-26T10:10:31Z</time>
      </trkpt>
      <trkpt lat="45.33466" lon="4.26787">
        <ele>794</ele>
        <time>2021-04-26T10:10:32Z</time>
      </trkpt>
      <trkpt lat="45.33465" lon="4.26793">
        <ele>794</ele>
        <time>2021-04-26T10:10:33Z</time>
      </trkpt>
      <trkpt lat="45.33464" lon="4.26799">
        <ele>794</ele>
        <time>2021-04-26T10:10:34Z</time>
      </trkpt>
      <trkpt lat="45.33463" lon="4.26806">
        <ele>794</ele>
        <time>2021-04-26T10:10:35Z</time>
      </trkpt>
      <trkpt lat="45.33461" lon="4.26812">
        <ele>794</ele>
        <time>2021-04-26T10:10:36Z</time>
      </trkpt>
      <trkpt lat="45.33459" lon="4.26817">
        <ele>794</ele>
        <time>2021-04-26T10:10:37Z</time>
      </trkpt>
      <trkpt lat="45.33458" lon="4.26821">
        <ele>794</ele>
        <time>2021-04-26T10:10:38Z</time>
      </trkpt>
      <trkpt lat="45.33456" lon="4.26826">
        <ele>795</ele>
        <time>2021-04-26T10:10:39Z</time>
      </trkpt>
      <trkpt lat="45.33455" lon="4.26832">
        <ele>795</ele>
        <time>2021-04-26T10:10:40Z</time>
      </trkpt>
      <trkpt lat="45.33454" lon="4.26838">
        <ele>795</ele>
        <time>2021-04-26T10:10:41Z</time>
      </trkpt>
      <trkpt lat="45.33453" lon="4.26843">
        <ele>795</ele>
        <time>2021-04-26T10:10:42Z</time>
      </trkpt>
      <trkpt lat="45.33453" lon="4.26849">
        <ele>795</ele>
        <time>2021-04-26T10:10:43Z</time>
      </trkpt>
      <trkpt lat="45.33453" lon="4.26854">
        <ele>795</ele>
        <time>2021-04-26T10:10:44Z</time>
      </trkpt>
      <trkpt lat="45.33453" lon="4.2686">
        <ele>795</ele>
        <time>2021-04-26T10:10:45Z</time>
      </trkpt>
      <trkpt lat="45.33453" lon="4.26866">
        <ele>796</ele>
        <time>2021-04-26T10:10:46Z</time>
      </trkpt>
      <trkpt lat="45.33454" lon="4.26871">
        <ele>796</ele>
        <time>2021-04-26T10:10:47Z</time>
      </trkpt>
      <trkpt lat="45.33455" lon="4.26889">
        <ele>796</ele>
        <time>2021-04-26T10:10:50Z</time>
      </trkpt>
      <trkpt lat="45.33453" lon="4.26906">
        <ele>797</ele>
        <time>2021-04-26T10:10:53Z</time>
      </trkpt>
      <trkpt lat="45.33453" lon="4.26923">
        <ele>798</ele>
        <time>2021-04-26T10:10:56Z</time>
      </trkpt>
      <trkpt lat="45.33456" lon="4.26941">
        <ele>798</ele>
        <time>2021-04-26T10:10:59Z</time>
      </trkpt>
      <trkpt lat="45.33456" lon="4.26948">
        <ele>798</ele>
        <time>2021-04-26T10:11:00Z</time>
      </trkpt>
      <trkpt lat="45.3346" lon="4.26964">
        <ele>798</ele>
        <time>2021-04-26T10:11:03Z</time>
      </trkpt>
      <trkpt lat="45.33463" lon="4.26981">
        <ele>799</ele>
        <time>2021-04-26T10:11:06Z</time>
      </trkpt>
      <trkpt lat="45.33467" lon="4.26998">
        <ele>800</ele>
        <time>2021-04-26T10:11:09Z</time>
      </trkpt>
      <trkpt lat="45.3347" lon="4.27013">
        <ele>800</ele>
        <time>2021-04-26T10:11:11Z</time>
      </trkpt>
      <trkpt lat="45.33472" lon="4.27026">
        <ele>800</ele>
        <time>2021-04-26T10:11:13Z</time>
      </trkpt>
      <trkpt lat="45.33474" lon="4.27039">
        <ele>801</ele>
        <time>2021-04-26T10:11:15Z</time>
      </trkpt>
      <trkpt lat="45.33479" lon="4.27053">
        <ele>800</ele>
        <time>2021-04-26T10:11:17Z</time>
      </trkpt>
      <trkpt lat="45.33482" lon="4.27059">
        <ele>800</ele>
        <time>2021-04-26T10:11:18Z</time>
      </trkpt>
      <trkpt lat="45.33485" lon="4.27066">
        <ele>800</ele>
        <time>2021-04-26T10:11:19Z</time>
      </trkpt>
      <trkpt lat="45.33487" lon="4.27073">
        <ele>800</ele>
        <time>2021-04-26T10:11:20Z</time>
      </trkpt>
      <trkpt lat="45.33489" lon="4.2708">
        <ele>800</ele>
        <time>2021-04-26T10:11:21Z</time>
      </trkpt>
      <trkpt lat="45.33491" lon="4.27087">
        <ele>800</ele>
        <time>2021-04-26T10:11:22Z</time>
      </trkpt>
      <trkpt lat="45.33493" lon="4.27094">
        <ele>799</ele>
        <time>2021-04-26T10:11:23Z</time>
      </trkpt>
      <trkpt lat="45.33494" lon="4.27101">
        <ele>799</ele>
        <time>2021-04-26T10:11:24Z</time>
      </trkpt>
      <trkpt lat="45.33496" lon="4.27108">
        <ele>799</ele>
        <time>2021-04-26T10:11:25Z</time>
      </trkpt>
      <trkpt lat="45.33499" lon="4.27122">
        <ele>799</ele>
        <time>2021-04-26T10:11:26Z</time>
      </trkpt>
      <trkpt lat="45.335" lon="4.27129">
        <ele>799</ele>
        <time>2021-04-26T10:11:28Z</time>
      </trkpt>
      <trkpt lat="45.33502" lon="4.27135">
        <ele>799</ele>
        <time>2021-04-26T10:11:29Z</time>
      </trkpt>
      <trkpt lat="45.33504" lon="4.27142">
        <ele>799</ele>
        <time>2021-04-26T10:11:30Z</time>
      </trkpt>
      <trkpt lat="45.33506" lon="4.27148">
        <ele>799</ele>
        <time>2021-04-26T10:11:31Z</time>
      </trkpt>
      <trkpt lat="45.33507" lon="4.27154">
        <ele>799</ele>
        <time>2021-04-26T10:11:32Z</time>
      </trkpt>
      <trkpt lat="45.33509" lon="4.2716">
        <ele>799</ele>
        <time>2021-04-26T10:11:33Z</time>
      </trkpt>
      <trkpt lat="45.3351" lon="4.27166">
        <ele>799</ele>
        <time>2021-04-26T10:11:34Z</time>
      </trkpt>
      <trkpt lat="45.33512" lon="4.27172">
        <ele>799</ele>
        <time>2021-04-26T10:11:35Z</time>
      </trkpt>
      <trkpt lat="45.33513" lon="4.27178">
        <ele>799</ele>
        <time>2021-04-26T10:11:36Z</time>
      </trkpt>
      <trkpt lat="45.33514" lon="4.27185">
        <ele>799</ele>
        <time>2021-04-26T10:11:37Z</time>
      </trkpt>
      <trkpt lat="45.33515" lon="4.27191">
        <ele>799</ele>
        <time>2021-04-26T10:11:38Z</time>
      </trkpt>
      <trkpt lat="45.33515" lon="4.27198">
        <ele>799</ele>
        <time>2021-04-26T10:11:39Z</time>
      </trkpt>
      <trkpt lat="45.33516" lon="4.27204">
        <ele>799</ele>
        <time>2021-04-26T10:11:40Z</time>
      </trkpt>
      <trkpt lat="45.33516" lon="4.27211">
        <ele>799</ele>
        <time>2021-04-26T10:11:41Z</time>
      </trkpt>
      <trkpt lat="45.33517" lon="4.27217">
        <ele>799</ele>
        <time>2021-04-26T10:11:42Z</time>
      </trkpt>
      <trkpt lat="45.33517" lon="4.27224">
        <ele>800</ele>
        <time>2021-04-26T10:11:43Z</time>
      </trkpt>
      <trkpt lat="45.33518" lon="4.27231">
        <ele>800</ele>
        <time>2021-04-26T10:11:44Z</time>
      </trkpt>
      <trkpt lat="45.33519" lon="4.27237">
        <ele>800</ele>
        <time>2021-04-26T10:11:45Z</time>
      </trkpt>
      <trkpt lat="45.3352" lon="4.27243">
        <ele>800</ele>
        <time>2021-04-26T10:11:46Z</time>
      </trkpt>
      <trkpt lat="45.33521" lon="4.2725">
        <ele>800</ele>
        <time>2021-04-26T10:11:47Z</time>
      </trkpt>
      <trkpt lat="45.33522" lon="4.27256">
        <ele>800</ele>
        <time>2021-04-26T10:11:48Z</time>
      </trkpt>
      <trkpt lat="45.33522" lon="4.27262">
        <ele>800</ele>
        <time>2021-04-26T10:11:49Z</time>
      </trkpt>
      <trkpt lat="45.33523" lon="4.27268">
        <ele>800</ele>
        <time>2021-04-26T10:11:50Z</time>
      </trkpt>
      <trkpt lat="45.33524" lon="4.27274">
        <ele>801</ele>
        <time>2021-04-26T10:11:51Z</time>
      </trkpt>
      <trkpt lat="45.33524" lon="4.2728">
        <ele>801</ele>
        <time>2021-04-26T10:11:52Z</time>
      </trkpt>
      <trkpt lat="45.33525" lon="4.27286">
        <ele>801</ele>
        <time>2021-04-26T10:11:53Z</time>
      </trkpt>
      <trkpt lat="45.33526" lon="4.27292">
        <ele>801</ele>
        <time>2021-04-26T10:11:54Z</time>
      </trkpt>
      <trkpt lat="45.33526" lon="4.27298">
        <ele>801</ele>
        <time>2021-04-26T10:11:55Z</time>
      </trkpt>
      <trkpt lat="45.33527" lon="4.27304">
        <ele>801</ele>
        <time>2021-04-26T10:11:56Z</time>
      </trkpt>
      <trkpt lat="45.33528" lon="4.2731">
        <ele>802</ele>
        <time>2021-04-26T10:11:57Z</time>
      </trkpt>
      <trkpt lat="45.33528" lon="4.27317">
        <ele>802</ele>
        <time>2021-04-26T10:11:58Z</time>
      </trkpt>
      <trkpt lat="45.33529" lon="4.27323">
        <ele>802</ele>
        <time>2021-04-26T10:11:59Z</time>
      </trkpt>
      <trkpt lat="45.3353" lon="4.27329">
        <ele>802</ele>
        <time>2021-04-26T10:12:00Z</time>
      </trkpt>
      <trkpt lat="45.3353" lon="4.27335">
        <ele>802</ele>
        <time>2021-04-26T10:12:01Z</time>
      </trkpt>
      <trkpt lat="45.3353" lon="4.27341">
        <ele>802</ele>
        <time>2021-04-26T10:12:02Z</time>
      </trkpt>
      <trkpt lat="45.33531" lon="4.27347">
        <ele>802</ele>
        <time>2021-04-26T10:12:03Z</time>
      </trkpt>
      <trkpt lat="45.33532" lon="4.27352">
        <ele>803</ele>
        <time>2021-04-26T10:12:04Z</time>
      </trkpt>
      <trkpt lat="45.33532" lon="4.27358">
        <ele>803</ele>
        <time>2021-04-26T10:12:05Z</time>
      </trkpt>
      <trkpt lat="45.33533" lon="4.27363">
        <ele>803</ele>
        <time>2021-04-26T10:12:06Z</time>
      </trkpt>
      <trkpt lat="45.33534" lon="4.27368">
        <ele>803</ele>
        <time>2021-04-26T10:12:07Z</time>
      </trkpt>
      <trkpt lat="45.33535" lon="4.27374">
        <ele>803</ele>
        <time>2021-04-26T10:12:08Z</time>
      </trkpt>
      <trkpt lat="45.33536" lon="4.27379">
        <ele>803</ele>
        <time>2021-04-26T10:12:09Z</time>
      </trkpt>
      <trkpt lat="45.33536" lon="4.27385">
        <ele>803</ele>
        <time>2021-04-26T10:12:10Z</time>
      </trkpt>
      <trkpt lat="45.33537" lon="4.27391">
        <ele>804</ele>
        <time>2021-04-26T10:12:11Z</time>
      </trkpt>
      <trkpt lat="45.33537" lon="4.27396">
        <ele>804</ele>
        <time>2021-04-26T10:12:12Z</time>
      </trkpt>
      <trkpt lat="45.33538" lon="4.27402">
        <ele>804</ele>
        <time>2021-04-26T10:12:13Z</time>
      </trkpt>
      <trkpt lat="45.33539" lon="4.27407">
        <ele>804</ele>
        <time>2021-04-26T10:12:14Z</time>
      </trkpt>
      <trkpt lat="45.33539" lon="4.27413">
        <ele>804</ele>
        <time>2021-04-26T10:12:15Z</time>
      </trkpt>
      <trkpt lat="45.3354" lon="4.27418">
        <ele>804</ele>
        <time>2021-04-26T10:12:16Z</time>
      </trkpt>
      <trkpt lat="45.3354" lon="4.27424">
        <ele>804</ele>
        <time>2021-04-26T10:12:17Z</time>
      </trkpt>
      <trkpt lat="45.3354" lon="4.27429">
        <ele>804</ele>
        <time>2021-04-26T10:12:18Z</time>
      </trkpt>
      <trkpt lat="45.33538" lon="4.27434">
        <ele>804</ele>
        <time>2021-04-26T10:12:19Z</time>
      </trkpt>
      <trkpt lat="45.33535" lon="4.27438">
        <ele>804</ele>
        <time>2021-04-26T10:12:20Z</time>
      </trkpt>
      <trkpt lat="45.33531" lon="4.27439">
        <ele>804</ele>
        <time>2021-04-26T10:12:21Z</time>
      </trkpt>
      <trkpt lat="45.33527" lon="4.2744">
        <ele>804</ele>
        <time>2021-04-26T10:12:22Z</time>
      </trkpt>
      <trkpt lat="45.33522" lon="4.2744">
        <ele>804</ele>
        <time>2021-04-26T10:12:23Z</time>
      </trkpt>
      <trkpt lat="45.33516" lon="4.27441">
        <ele>804</ele>
        <time>2021-04-26T10:12:24Z</time>
      </trkpt>
      <trkpt lat="45.3351" lon="4.27442">
        <ele>804</ele>
        <time>2021-04-26T10:12:25Z</time>
      </trkpt>
      <trkpt lat="45.33505" lon="4.27443">
        <ele>804</ele>
        <time>2021-04-26T10:12:26Z</time>
      </trkpt>
      <trkpt lat="45.335" lon="4.27444">
        <ele>804</ele>
        <time>2021-04-26T10:12:27Z</time>
      </trkpt>
      <trkpt lat="45.33495" lon="4.27445">
        <ele>804</ele>
        <time>2021-04-26T10:12:28Z</time>
      </trkpt>
      <trkpt lat="45.3349" lon="4.27446">
        <ele>804</ele>
        <time>2021-04-26T10:12:29Z</time>
      </trkpt>
      <trkpt lat="45.33485" lon="4.27447">
        <ele>804</ele>
        <time>2021-04-26T10:12:30Z</time>
      </trkpt>
      <trkpt lat="45.3348" lon="4.27448">
        <ele>804</ele>
        <time>2021-04-26T10:12:31Z</time>
      </trkpt>
      <trkpt lat="45.33475" lon="4.27448">
        <ele>804</ele>
        <time>2021-04-26T10:12:32Z</time>
      </trkpt>
      <trkpt lat="45.3347" lon="4.27449">
        <ele>804</ele>
        <time>2021-04-26T10:12:33Z</time>
      </trkpt>
      <trkpt lat="45.33465" lon="4.27449">
        <ele>804</ele>
        <time>2021-04-26T10:12:34Z</time>
      </trkpt>
      <trkpt lat="45.3346" lon="4.2745">
        <ele>804</ele>
        <time>2021-04-26T10:12:35Z</time>
      </trkpt>
      <trkpt lat="45.33454" lon="4.27452">
        <ele>804</ele>
        <time>2021-04-26T10:12:36Z</time>
      </trkpt>
      <trkpt lat="45.33449" lon="4.27453">
        <ele>804</ele>
        <time>2021-04-26T10:12:37Z</time>
      </trkpt>
      <trkpt lat="45.33444" lon="4.27455">
        <ele>804</ele>
        <time>2021-04-26T10:12:38Z</time>
      </trkpt>
      <trkpt lat="45.33439" lon="4.27456">
        <ele>804</ele>
        <time>2021-04-26T10:12:39Z</time>
      </trkpt>
      <trkpt lat="45.33434" lon="4.27458">
        <ele>804</ele>
        <time>2021-04-26T10:12:40Z</time>
      </trkpt>
      <trkpt lat="45.33429" lon="4.2746">
        <ele>804</ele>
        <time>2021-04-26T10:12:41Z</time>
      </trkpt>
      <trkpt lat="45.33424" lon="4.27461">
        <ele>804</ele>
        <time>2021-04-26T10:12:42Z</time>
      </trkpt>
      <trkpt lat="45.3342" lon="4.27463">
        <ele>804</ele>
        <time>2021-04-26T10:12:43Z</time>
      </trkpt>
      <trkpt lat="45.33415" lon="4.27464">
        <ele>803</ele>
        <time>2021-04-26T10:12:44Z</time>
      </trkpt>
      <trkpt lat="45.3341" lon="4.27466">
        <ele>803</ele>
        <time>2021-04-26T10:12:45Z</time>
      </trkpt>
      <trkpt lat="45.33405" lon="4.27468">
        <ele>803</ele>
        <time>2021-04-26T10:12:46Z</time>
      </trkpt>
      <trkpt lat="45.334" lon="4.2747">
        <ele>803</ele>
        <time>2021-04-26T10:12:47Z</time>
      </trkpt>
      <trkpt lat="45.33396" lon="4.27471">
        <ele>803</ele>
        <time>2021-04-26T10:12:48Z</time>
      </trkpt>
      <trkpt lat="45.33391" lon="4.27472">
        <ele>803</ele>
        <time>2021-04-26T10:12:49Z</time>
      </trkpt>
      <trkpt lat="45.33386" lon="4.27474">
        <ele>803</ele>
        <time>2021-04-26T10:12:50Z</time>
      </trkpt>
      <trkpt lat="45.33381" lon="4.27475">
        <ele>803</ele>
        <time>2021-04-26T10:12:51Z</time>
      </trkpt>
      <trkpt lat="45.33376" lon="4.27477">
        <ele>803</ele>
        <time>2021-04-26T10:12:52Z</time>
      </trkpt>
      <trkpt lat="45.33371" lon="4.27478">
        <ele>803</ele>
        <time>2021-04-26T10:12:53Z</time>
      </trkpt>
      <trkpt lat="45.33366" lon="4.27479">
        <ele>803</ele>
        <time>2021-04-26T10:12:54Z</time>
      </trkpt>
      <trkpt lat="45.33362" lon="4.27481">
        <ele>803</ele>
        <time>2021-04-26T10:12:55Z</time>
      </trkpt>
      <trkpt lat="45.33357" lon="4.27483">
        <ele>803</ele>
        <time>2021-04-26T10:12:56Z</time>
      </trkpt>
      <trkpt lat="45.33352" lon="4.27485">
        <ele>803</ele>
        <time>2021-04-26T10:12:57Z</time>
      </trkpt>
      <trkpt lat="45.33347" lon="4.27487">
        <ele>803</ele>
        <time>2021-04-26T10:12:58Z</time>
      </trkpt>
      <trkpt lat="45.33342" lon="4.2749">
        <ele>803</ele>
        <time>2021-04-26T10:12:59Z</time>
      </trkpt>
      <trkpt lat="45.33337" lon="4.27493">
        <ele>803</ele>
        <time>2021-04-26T10:13:00Z</time>
      </trkpt>
      <trkpt lat="45.33332" lon="4.27495">
        <ele>803</ele>
        <time>2021-04-26T10:13:01Z</time>
      </trkpt>
      <trkpt lat="45.33327" lon="4.27499">
        <ele>803</ele>
        <time>2021-04-26T10:13:02Z</time>
      </trkpt>
      <trkpt lat="45.33322" lon="4.27502">
        <ele>803</ele>
        <time>2021-04-26T10:13:03Z</time>
      </trkpt>
      <trkpt lat="45.33317" lon="4.27506">
        <ele>803</ele>
        <time>2021-04-26T10:13:04Z</time>
      </trkpt>
      <trkpt lat="45.33313" lon="4.27509">
        <ele>803</ele>
        <time>2021-04-26T10:13:05Z</time>
      </trkpt>
      <trkpt lat="45.33308" lon="4.27513">
        <ele>803</ele>
        <time>2021-04-26T10:13:06Z</time>
      </trkpt>
      <trkpt lat="45.33304" lon="4.27516">
        <ele>803</ele>
        <time>2021-04-26T10:13:07Z</time>
      </trkpt>
      <trkpt lat="45.33299" lon="4.2752">
        <ele>803</ele>
        <time>2021-04-26T10:13:08Z</time>
      </trkpt>
      <trkpt lat="45.33295" lon="4.27524">
        <ele>803</ele>
        <time>2021-04-26T10:13:09Z</time>
      </trkpt>
      <trkpt lat="45.3329" lon="4.27527">
        <ele>803</ele>
        <time>2021-04-26T10:13:10Z</time>
      </trkpt>
      <trkpt lat="45.33285" lon="4.27531">
        <ele>803</ele>
        <time>2021-04-26T10:13:11Z</time>
      </trkpt>
      <trkpt lat="45.33281" lon="4.27534">
        <ele>803</ele>
        <time>2021-04-26T10:13:12Z</time>
      </trkpt>
      <trkpt lat="45.33276" lon="4.27537">
        <ele>803</ele>
        <time>2021-04-26T10:13:13Z</time>
      </trkpt>
      <trkpt lat="45.33271" lon="4.27541">
        <ele>803</ele>
        <time>2021-04-26T10:13:14Z</time>
      </trkpt>
      <trkpt lat="45.33266" lon="4.27544">
        <ele>803</ele>
        <time>2021-04-26T10:13:15Z</time>
      </trkpt>
      <trkpt lat="45.33261" lon="4.27547">
        <ele>803</ele>
        <time>2021-04-26T10:13:16Z</time>
      </trkpt>
      <trkpt lat="45.33256" lon="4.27549">
        <ele>803</ele>
        <time>2021-04-26T10:13:17Z</time>
      </trkpt>
      <trkpt lat="45.33251" lon="4.27552">
        <ele>803</ele>
        <time>2021-04-26T10:13:18Z</time>
      </trkpt>
      <trkpt lat="45.33246" lon="4.27554">
        <ele>803</ele>
        <time>2021-04-26T10:13:19Z</time>
      </trkpt>
      <trkpt lat="45.33241" lon="4.27556">
        <ele>803</ele>
        <time>2021-04-26T10:13:20Z</time>
      </trkpt>
      <trkpt lat="45.33236" lon="4.27558">
        <ele>803</ele>
        <time>2021-04-26T10:13:21Z</time>
      </trkpt>
      <trkpt lat="45.33231" lon="4.2756">
        <ele>803</ele>
        <time>2021-04-26T10:13:22Z</time>
      </trkpt>
      <trkpt lat="45.33227" lon="4.27562">
        <ele>803</ele>
        <time>2021-04-26T10:13:23Z</time>
      </trkpt>
      <trkpt lat="45.33222" lon="4.27564">
        <ele>803</ele>
        <time>2021-04-26T10:13:24Z</time>
      </trkpt>
      <trkpt lat="45.33212" lon="4.27569">
        <ele>803</ele>
        <time>2021-04-26T10:13:25Z</time>
      </trkpt>
      <trkpt lat="45.33207" lon="4.27571">
        <ele>803</ele>
        <time>2021-04-26T10:13:27Z</time>
      </trkpt>
      <trkpt lat="45.33202" lon="4.27574">
        <ele>803</ele>
        <time>2021-04-26T10:13:28Z</time>
      </trkpt>
      <trkpt lat="45.33197" lon="4.27576">
        <ele>803</ele>
        <time>2021-04-26T10:13:29Z</time>
      </trkpt>
      <trkpt lat="45.33192" lon="4.27579">
        <ele>803</ele>
        <time>2021-04-26T10:13:30Z</time>
      </trkpt>
      <trkpt lat="45.33188" lon="4.27583">
        <ele>803</ele>
        <time>2021-04-26T10:13:31Z</time>
      </trkpt>
      <trkpt lat="45.33183" lon="4.27586">
        <ele>803</ele>
        <time>2021-04-26T10:13:32Z</time>
      </trkpt>
      <trkpt lat="45.33179" lon="4.2759">
        <ele>803</ele>
        <time>2021-04-26T10:13:33Z</time>
      </trkpt>
      <trkpt lat="45.33174" lon="4.27593">
        <ele>802</ele>
        <time>2021-04-26T10:13:34Z</time>
      </trkpt>
      <trkpt lat="45.33169" lon="4.27597">
        <ele>802</ele>
        <time>2021-04-26T10:13:35Z</time>
      </trkpt>
      <trkpt lat="45.33164" lon="4.27601">
        <ele>802</ele>
        <time>2021-04-26T10:13:36Z</time>
      </trkpt>
      <trkpt lat="45.33159" lon="4.27604">
        <ele>802</ele>
        <time>2021-04-26T10:13:37Z</time>
      </trkpt>
      <trkpt lat="45.33153" lon="4.27608">
        <ele>801</ele>
        <time>2021-04-26T10:13:38Z</time>
      </trkpt>
      <trkpt lat="45.33148" lon="4.27613">
        <ele>801</ele>
        <time>2021-04-26T10:13:39Z</time>
      </trkpt>
      <trkpt lat="45.33142" lon="4.27618">
        <ele>801</ele>
        <time>2021-04-26T10:13:40Z</time>
      </trkpt>
      <trkpt lat="45.33137" lon="4.27623">
        <ele>800</ele>
        <time>2021-04-26T10:13:41Z</time>
      </trkpt>
      <trkpt lat="45.3313" lon="4.27628">
        <ele>800</ele>
        <time>2021-04-26T10:13:42Z</time>
      </trkpt>
      <trkpt lat="45.33124" lon="4.27634">
        <ele>800</ele>
        <time>2021-04-26T10:13:43Z</time>
      </trkpt>
      <trkpt lat="45.33117" lon="4.2764">
        <ele>800</ele>
        <time>2021-04-26T10:13:44Z</time>
      </trkpt>
      <trkpt lat="45.33111" lon="4.27648">
        <ele>799</ele>
        <time>2021-04-26T10:13:45Z</time>
      </trkpt>
      <trkpt lat="45.33104" lon="4.27658">
        <ele>798</ele>
        <time>2021-04-26T10:13:46Z</time>
      </trkpt>
      <trkpt lat="45.33098" lon="4.27669">
        <ele>797</ele>
        <time>2021-04-26T10:13:47Z</time>
      </trkpt>
      <trkpt lat="45.33092" lon="4.2768">
        <ele>797</ele>
        <time>2021-04-26T10:13:48Z</time>
      </trkpt>
      <trkpt lat="45.33086" lon="4.27692">
        <ele>797</ele>
        <time>2021-04-26T10:13:49Z</time>
      </trkpt>
      <trkpt lat="45.33079" lon="4.27704">
        <ele>796</ele>
        <time>2021-04-26T10:13:50Z</time>
      </trkpt>
      <trkpt lat="45.33071" lon="4.27716">
        <ele>795</ele>
        <time>2021-04-26T10:13:51Z</time>
      </trkpt>
      <trkpt lat="45.33063" lon="4.27726">
        <ele>795</ele>
        <time>2021-04-26T10:13:52Z</time>
      </trkpt>
      <trkpt lat="45.33055" lon="4.27736">
        <ele>795</ele>
        <time>2021-04-26T10:13:53Z</time>
      </trkpt>
      <trkpt lat="45.33046" lon="4.27745">
        <ele>795</ele>
        <time>2021-04-26T10:13:54Z</time>
      </trkpt>
      <trkpt lat="45.33038" lon="4.27754">
        <ele>794</ele>
        <time>2021-04-26T10:13:55Z</time>
      </trkpt>
      <trkpt lat="45.33029" lon="4.27763">
        <ele>793</ele>
        <time>2021-04-26T10:13:56Z</time>
      </trkpt>
      <trkpt lat="45.33021" lon="4.27772">
        <ele>793</ele>
        <time>2021-04-26T10:13:57Z</time>
      </trkpt>
      <trkpt lat="45.33013" lon="4.27779">
        <ele>792</ele>
        <time>2021-04-26T10:13:58Z</time>
      </trkpt>
      <trkpt lat="45.33005" lon="4.27787">
        <ele>792</ele>
        <time>2021-04-26T10:13:59Z</time>
      </trkpt>
      <trkpt lat="45.32997" lon="4.27795">
        <ele>790</ele>
        <time>2021-04-26T10:14:00Z</time>
      </trkpt>
      <trkpt lat="45.32989" lon="4.27803">
        <ele>788</ele>
        <time>2021-04-26T10:14:01Z</time>
      </trkpt>
      <trkpt lat="45.32981" lon="4.27812">
        <ele>788</ele>
        <time>2021-04-26T10:14:02Z</time>
      </trkpt>
      <trkpt lat="45.32974" lon="4.2782">
        <ele>787</ele>
        <time>2021-04-26T10:14:03Z</time>
      </trkpt>
      <trkpt lat="45.32967" lon="4.27828">
        <ele>787</ele>
        <time>2021-04-26T10:14:04Z</time>
      </trkpt>
      <trkpt lat="45.3296" lon="4.27836">
        <ele>786</ele>
        <time>2021-04-26T10:14:05Z</time>
      </trkpt>
      <trkpt lat="45.32952" lon="4.27844">
        <ele>785</ele>
        <time>2021-04-26T10:14:06Z</time>
      </trkpt>
      <trkpt lat="45.32945" lon="4.27852">
        <ele>784</ele>
        <time>2021-04-26T10:14:07Z</time>
      </trkpt>
      <trkpt lat="45.32937" lon="4.27861">
        <ele>783</ele>
        <time>2021-04-26T10:14:08Z</time>
      </trkpt>
      <trkpt lat="45.32929" lon="4.27869">
        <ele>783</ele>
        <time>2021-04-26T10:14:09Z</time>
      </trkpt>
      <trkpt lat="45.32921" lon="4.27878">
        <ele>781</ele>
        <time>2021-04-26T10:14:10Z</time>
      </trkpt>
      <trkpt lat="45.32914" lon="4.27887">
        <ele>781</ele>
        <time>2021-04-26T10:14:11Z</time>
      </trkpt>
      <trkpt lat="45.32907" lon="4.27896">
        <ele>780</ele>
        <time>2021-04-26T10:14:12Z</time>
      </trkpt>
      <trkpt lat="45.32901" lon="4.27906">
        <ele>779</ele>
        <time>2021-04-26T10:14:13Z</time>
      </trkpt>
      <trkpt lat="45.32895" lon="4.27917">
        <ele>779</ele>
        <time>2021-04-26T10:14:14Z</time>
      </trkpt>
      <trkpt lat="45.32891" lon="4.27929">
        <ele>779</ele>
        <time>2021-04-26T10:14:15Z</time>
      </trkpt>
      <trkpt lat="45.32887" lon="4.27941">
        <ele>778</ele>
        <time>2021-04-26T10:14:16Z</time>
      </trkpt>
      <trkpt lat="45.32884" lon="4.27954">
        <ele>778</ele>
        <time>2021-04-26T10:14:17Z</time>
      </trkpt>
      <trkpt lat="45.32881" lon="4.27966">
        <ele>778</ele>
        <time>2021-04-26T10:14:18Z</time>
      </trkpt>
      <trkpt lat="45.32877" lon="4.27977">
        <ele>778</ele>
        <time>2021-04-26T10:14:19Z</time>
      </trkpt>
      <trkpt lat="45.32874" lon="4.27989">
        <ele>778</ele>
        <time>2021-04-26T10:14:20Z</time>
      </trkpt>
      <trkpt lat="45.32871" lon="4.27999">
        <ele>777</ele>
        <time>2021-04-26T10:14:21Z</time>
      </trkpt>
      <trkpt lat="45.32868" lon="4.28024">
        <ele>776</ele>
        <time>2021-04-26T10:14:23Z</time>
      </trkpt>
      <trkpt lat="45.32869" lon="4.28037">
        <ele>775</ele>
        <time>2021-04-26T10:14:24Z</time>
      </trkpt>
      <trkpt lat="45.3287" lon="4.28051">
        <ele>775</ele>
        <time>2021-04-26T10:14:25Z</time>
      </trkpt>
      <trkpt lat="45.32866" lon="4.28076">
        <ele>775</ele>
        <time>2021-04-26T10:14:27Z</time>
      </trkpt>
      <trkpt lat="45.32862" lon="4.28088">
        <ele>774</ele>
        <time>2021-04-26T10:14:28Z</time>
      </trkpt>
      <trkpt lat="45.32859" lon="4.281">
        <ele>773</ele>
        <time>2021-04-26T10:14:29Z</time>
      </trkpt>
      <trkpt lat="45.32855" lon="4.28112">
        <ele>772</ele>
        <time>2021-04-26T10:14:30Z</time>
      </trkpt>
      <trkpt lat="45.3285" lon="4.28124">
        <ele>772</ele>
        <time>2021-04-26T10:14:31Z</time>
      </trkpt>
      <trkpt lat="45.32845" lon="4.28136">
        <ele>771</ele>
        <time>2021-04-26T10:14:32Z</time>
      </trkpt>
      <trkpt lat="45.32838" lon="4.28149">
        <ele>771</ele>
        <time>2021-04-26T10:14:33Z</time>
      </trkpt>
      <trkpt lat="45.32832" lon="4.28159">
        <ele>770</ele>
        <time>2021-04-26T10:14:34Z</time>
      </trkpt>
      <trkpt lat="45.32824" lon="4.28168">
        <ele>769</ele>
        <time>2021-04-26T10:14:35Z</time>
      </trkpt>
      <trkpt lat="45.32816" lon="4.28175">
        <ele>769</ele>
        <time>2021-04-26T10:14:36Z</time>
      </trkpt>
      <trkpt lat="45.32806" lon="4.28179">
        <ele>767</ele>
        <time>2021-04-26T10:14:37Z</time>
      </trkpt>
      <trkpt lat="45.32797" lon="4.28184">
        <ele>766</ele>
        <time>2021-04-26T10:14:38Z</time>
      </trkpt>
      <trkpt lat="45.32787" lon="4.28188">
        <ele>764</ele>
        <time>2021-04-26T10:14:39Z</time>
      </trkpt>
      <trkpt lat="45.32773" lon="4.28192">
        <ele>761</ele>
        <time>2021-04-26T10:14:41Z</time>
      </trkpt>
      <trkpt lat="45.32768" lon="4.28191">
        <ele>761</ele>
        <time>2021-04-26T10:14:42Z</time>
      </trkpt>
      <trkpt lat="45.32763" lon="4.28188">
        <ele>759</ele>
        <time>2021-04-26T10:14:43Z</time>
      </trkpt>
      <trkpt lat="45.32759" lon="4.28186">
        <ele>758</ele>
        <time>2021-04-26T10:14:44Z</time>
      </trkpt>
      <trkpt lat="45.32754" lon="4.28184">
        <ele>757</ele>
        <time>2021-04-26T10:14:45Z</time>
      </trkpt>
      <trkpt lat="45.32749" lon="4.28184">
        <ele>757</ele>
        <time>2021-04-26T10:14:46Z</time>
      </trkpt>
      <trkpt lat="45.32744" lon="4.28183">
        <ele>756</ele>
        <time>2021-04-26T10:14:47Z</time>
      </trkpt>
      <trkpt lat="45.32739" lon="4.28183">
        <ele>756</ele>
        <time>2021-04-26T10:14:48Z</time>
      </trkpt>
      <trkpt lat="45.32734" lon="4.28184">
        <ele>755</ele>
        <time>2021-04-26T10:14:49Z</time>
      </trkpt>
      <trkpt lat="45.32728" lon="4.28185">
        <ele>755</ele>
        <time>2021-04-26T10:14:50Z</time>
      </trkpt>
      <trkpt lat="45.32723" lon="4.28186">
        <ele>754</ele>
        <time>2021-04-26T10:14:51Z</time>
      </trkpt>
      <trkpt lat="45.32718" lon="4.28188">
        <ele>754</ele>
        <time>2021-04-26T10:14:52Z</time>
      </trkpt>
      <trkpt lat="45.32713" lon="4.2819">
        <ele>753</ele>
        <time>2021-04-26T10:14:53Z</time>
      </trkpt>
      <trkpt lat="45.32707" lon="4.28192">
        <ele>753</ele>
        <time>2021-04-26T10:14:54Z</time>
      </trkpt>
      <trkpt lat="45.32702" lon="4.28194">
        <ele>753</ele>
        <time>2021-04-26T10:14:55Z</time>
      </trkpt>
      <trkpt lat="45.32698" lon="4.28196">
        <ele>752</ele>
        <time>2021-04-26T10:14:56Z</time>
      </trkpt>
      <trkpt lat="45.32693" lon="4.28197">
        <ele>752</ele>
        <time>2021-04-26T10:14:57Z</time>
      </trkpt>
      <trkpt lat="45.32689" lon="4.28199">
        <ele>751</ele>
        <time>2021-04-26T10:14:58Z</time>
      </trkpt>
      <trkpt lat="45.32682" lon="4.28202">
        <ele>751</ele>
        <time>2021-04-26T10:14:59Z</time>
      </trkpt>
      <trkpt lat="45.32678" lon="4.28203">
        <ele>750</ele>
        <time>2021-04-26T10:15:01Z</time>
      </trkpt>
      <trkpt lat="45.32675" lon="4.28205">
        <ele>750</ele>
        <time>2021-04-26T10:15:02Z</time>
      </trkpt>
      <trkpt lat="45.32671" lon="4.28205">
        <ele>750</ele>
        <time>2021-04-26T10:15:03Z</time>
      </trkpt>
      <trkpt lat="45.32668" lon="4.28206">
        <ele>750</ele>
        <time>2021-04-26T10:15:04Z</time>
      </trkpt>
      <trkpt lat="45.32664" lon="4.28206">
        <ele>750</ele>
        <time>2021-04-26T10:15:05Z</time>
      </trkpt>
      <trkpt lat="45.32661" lon="4.28207">
        <ele>750</ele>
        <time>2021-04-26T10:15:06Z</time>
      </trkpt>
      <trkpt lat="45.32657" lon="4.28207">
        <ele>750</ele>
        <time>2021-04-26T10:15:07Z</time>
      </trkpt>
      <trkpt lat="45.32654" lon="4.28208">
        <ele>750</ele>
        <time>2021-04-26T10:15:08Z</time>
      </trkpt>
      <trkpt lat="45.3265" lon="4.28208">
        <ele>750</ele>
        <time>2021-04-26T10:15:09Z</time>
      </trkpt>
      <trkpt lat="45.32647" lon="4.28208">
        <ele>750</ele>
        <time>2021-04-26T10:15:10Z</time>
      </trkpt>
      <trkpt lat="45.32643" lon="4.28208">
        <ele>750</ele>
        <time>2021-04-26T10:15:11Z</time>
      </trkpt>
      <trkpt lat="45.3264" lon="4.28208">
        <ele>751</ele>
        <time>2021-04-26T10:15:12Z</time>
      </trkpt>
      <trkpt lat="45.32636" lon="4.28208">
        <ele>751</ele>
        <time>2021-04-26T10:15:13Z</time>
      </trkpt>
      <trkpt lat="45.32633" lon="4.28208">
        <ele>751</ele>
        <time>2021-04-26T10:15:14Z</time>
      </trkpt>
      <trkpt lat="45.3263" lon="4.28207">
        <ele>751</ele>
        <time>2021-04-26T10:15:15Z</time>
      </trkpt>
      <trkpt lat="45.32626" lon="4.28207">
        <ele>751</ele>
        <time>2021-04-26T10:15:16Z</time>
      </trkpt>
      <trkpt lat="45.32623" lon="4.28206">
        <ele>751</ele>
        <time>2021-04-26T10:15:17Z</time>
      </trkpt>
      <trkpt lat="45.32619" lon="4.28203">
        <ele>752</ele>
        <time>2021-04-26T10:15:18Z</time>
      </trkpt>
      <trkpt lat="45.32617" lon="4.282">
        <ele>752</ele>
        <time>2021-04-26T10:15:19Z</time>
      </trkpt>
      <trkpt lat="45.32615" lon="4.28195">
        <ele>752</ele>
        <time>2021-04-26T10:15:20Z</time>
      </trkpt>
      <trkpt lat="45.32614" lon="4.2819">
        <ele>752</ele>
        <time>2021-04-26T10:15:21Z</time>
      </trkpt>
      <trkpt lat="45.32613" lon="4.28186">
        <ele>752</ele>
        <time>2021-04-26T10:15:22Z</time>
      </trkpt>
      <trkpt lat="45.32612" lon="4.28181">
        <ele>752</ele>
        <time>2021-04-26T10:15:23Z</time>
      </trkpt>
      <trkpt lat="45.32611" lon="4.28177">
        <ele>753</ele>
        <time>2021-04-26T10:15:24Z</time>
      </trkpt>
      <trkpt lat="45.3261" lon="4.28169">
        <ele>753</ele>
        <time>2021-04-26T10:15:25Z</time>
      </trkpt>
      <trkpt lat="45.32609" lon="4.28164">
        <ele>753</ele>
        <time>2021-04-26T10:15:27Z</time>
      </trkpt>
      <trkpt lat="45.32609" lon="4.2816">
        <ele>754</ele>
        <time>2021-04-26T10:15:28Z</time>
      </trkpt>
      <trkpt lat="45.32609" lon="4.28157">
        <ele>754</ele>
        <time>2021-04-26T10:15:29Z</time>
      </trkpt>
      <trkpt lat="45.32609" lon="4.28153">
        <ele>754</ele>
        <time>2021-04-26T10:15:30Z</time>
      </trkpt>
      <trkpt lat="45.32609" lon="4.28149">
        <ele>755</ele>
        <time>2021-04-26T10:15:31Z</time>
      </trkpt>
      <trkpt lat="45.32608" lon="4.28146">
        <ele>755</ele>
        <time>2021-04-26T10:15:32Z</time>
      </trkpt>
      <trkpt lat="45.32607" lon="4.28142">
        <ele>755</ele>
        <time>2021-04-26T10:15:33Z</time>
      </trkpt>
      <trkpt lat="45.32607" lon="4.28138">
        <ele>755</ele>
        <time>2021-04-26T10:15:34Z</time>
      </trkpt>
      <trkpt lat="45.32606" lon="4.28135">
        <ele>756</ele>
        <time>2021-04-26T10:15:35Z</time>
      </trkpt>
      <trkpt lat="45.32606" lon="4.28131">
        <ele>756</ele>
        <time>2021-04-26T10:15:36Z</time>
      </trkpt>
      <trkpt lat="45.32604" lon="4.28128">
        <ele>756</ele>
        <time>2021-04-26T10:15:37Z</time>
      </trkpt>
      <trkpt lat="45.32603" lon="4.28124">
        <ele>756</ele>
        <time>2021-04-26T10:15:38Z</time>
      </trkpt>
      <trkpt lat="45.32601" lon="4.28121">
        <ele>756</ele>
        <time>2021-04-26T10:15:39Z</time>
      </trkpt>
      <trkpt lat="45.32601" lon="4.28117">
        <ele>757</ele>
        <time>2021-04-26T10:15:40Z</time>
      </trkpt>
      <trkpt lat="45.326" lon="4.28112">
        <ele>757</ele>
        <time>2021-04-26T10:15:41Z</time>
      </trkpt>
      <trkpt lat="45.32599" lon="4.28108">
        <ele>757</ele>
        <time>2021-04-26T10:15:42Z</time>
      </trkpt>
      <trkpt lat="45.32598" lon="4.28104">
        <ele>757</ele>
        <time>2021-04-26T10:15:43Z</time>
      </trkpt>
      <trkpt lat="45.32597" lon="4.28099">
        <ele>757</ele>
        <time>2021-04-26T10:15:44Z</time>
      </trkpt>
      <trkpt lat="45.32595" lon="4.28094">
        <ele>757</ele>
        <time>2021-04-26T10:15:45Z</time>
      </trkpt>
      <trkpt lat="45.32594" lon="4.2809">
        <ele>757</ele>
        <time>2021-04-26T10:15:46Z</time>
      </trkpt>
      <trkpt lat="45.32592" lon="4.28086">
        <ele>757</ele>
        <time>2021-04-26T10:15:47Z</time>
      </trkpt>
      <trkpt lat="45.32589" lon="4.28082">
        <ele>757</ele>
        <time>2021-04-26T10:15:48Z</time>
      </trkpt>
      <trkpt lat="45.32586" lon="4.28079">
        <ele>757</ele>
        <time>2021-04-26T10:15:49Z</time>
      </trkpt>
      <trkpt lat="45.32584" lon="4.28075">
        <ele>757</ele>
        <time>2021-04-26T10:15:50Z</time>
      </trkpt>
      <trkpt lat="45.32581" lon="4.28072">
        <ele>757</ele>
        <time>2021-04-26T10:15:51Z</time>
      </trkpt>
      <trkpt lat="45.32578" lon="4.28069">
        <ele>757</ele>
        <time>2021-04-26T10:15:52Z</time>
      </trkpt>
      <trkpt lat="45.32576" lon="4.28067">
        <ele>757</ele>
        <time>2021-04-26T10:15:53Z</time>
      </trkpt>
      <trkpt lat="45.32574" lon="4.28065">
        <ele>757</ele>
        <time>2021-04-26T10:15:54Z</time>
      </trkpt>
      <trkpt lat="45.32572" lon="4.28061">
        <ele>757</ele>
        <time>2021-04-26T10:15:56Z</time>
      </trkpt>
      <trkpt lat="45.32569" lon="4.28059">
        <ele>756</ele>
        <time>2021-04-26T10:15:58Z</time>
      </trkpt>
      <trkpt lat="45.32567" lon="4.28056">
        <ele>756</ele>
        <time>2021-04-26T10:15:59Z</time>
      </trkpt>
      <trkpt lat="45.32566" lon="4.28058">
        <ele>756</ele>
        <time>2021-04-26T10:16:03Z</time>
      </trkpt>
      <trkpt lat="45.3257" lon="4.28061">
        <ele>756</ele>
        <time>2021-04-26T10:16:05Z</time>
      </trkpt>
      <trkpt lat="45.32572" lon="4.28063">
        <ele>756</ele>
        <time>2021-04-26T10:16:06Z</time>
      </trkpt>
      <trkpt lat="45.32575" lon="4.28065">
        <ele>756</ele>
        <time>2021-04-26T10:16:07Z</time>
      </trkpt>
      <trkpt lat="45.32577" lon="4.28067">
        <ele>756</ele>
        <time>2021-04-26T10:16:08Z</time>
      </trkpt>
      <trkpt lat="45.32579" lon="4.28069">
        <ele>756</ele>
        <time>2021-04-26T10:16:09Z</time>
      </trkpt>
      <trkpt lat="45.3258" lon="4.2807">
        <ele>756</ele>
        <time>2021-04-26T10:16:10Z</time>
      </trkpt>
      <trkpt lat="45.32583" lon="4.28073">
        <ele>756</ele>
        <time>2021-04-26T10:16:12Z</time>
      </trkpt>
      <trkpt lat="45.32584" lon="4.2807">
        <ele>756</ele>
        <time>2021-04-26T10:16:15Z</time>
      </trkpt>
      <trkpt lat="45.32582" lon="4.28069">
        <ele>757</ele>
        <time>2021-04-26T10:16:18Z</time>
      </trkpt>
      <trkpt lat="45.3258" lon="4.28068">
        <ele>757</ele>
        <time>2021-04-26T10:16:20Z</time>
      </trkpt>
      <trkpt lat="45.32578" lon="4.28065">
        <ele>757</ele>
        <time>2021-04-26T10:16:22Z</time>
      </trkpt>
      <trkpt lat="45.32576" lon="4.28064">
        <ele>757</ele>
        <time>2021-04-26T10:16:24Z</time>
      </trkpt>
      <trkpt lat="45.32573" lon="4.28061">
        <ele>757</ele>
        <time>2021-04-26T10:16:26Z</time>
      </trkpt>
      <trkpt lat="45.32571" lon="4.28059">
        <ele>757</ele>
        <time>2021-04-26T10:16:27Z</time>
      </trkpt>
      <trkpt lat="45.32568" lon="4.28057">
        <ele>757</ele>
        <time>2021-04-26T10:16:28Z</time>
      </trkpt>
      <trkpt lat="45.32565" lon="4.28055">
        <ele>757</ele>
        <time>2021-04-26T10:16:29Z</time>
      </trkpt>
      <trkpt lat="45.32562" lon="4.28053">
        <ele>757</ele>
        <time>2021-04-26T10:16:30Z</time>
      </trkpt>
      <trkpt lat="45.32559" lon="4.28051">
        <ele>757</ele>
        <time>2021-04-26T10:16:31Z</time>
      </trkpt>
      <trkpt lat="45.32556" lon="4.28049">
        <ele>757</ele>
        <time>2021-04-26T10:16:32Z</time>
      </trkpt>
      <trkpt lat="45.32552" lon="4.28046">
        <ele>757</ele>
        <time>2021-04-26T10:16:33Z</time>
      </trkpt>
      <trkpt lat="45.32548" lon="4.28042">
        <ele>757</ele>
        <time>2021-04-26T10:16:34Z</time>
      </trkpt>
      <trkpt lat="45.32543" lon="4.28037">
        <ele>756</ele>
        <time>2021-04-26T10:16:35Z</time>
      </trkpt>
      <trkpt lat="45.32538" lon="4.28031">
        <ele>756</ele>
        <time>2021-04-26T10:16:36Z</time>
      </trkpt>
      <trkpt lat="45.32533" lon="4.28023">
        <ele>755</ele>
        <time>2021-04-26T10:16:37Z</time>
      </trkpt>
      <trkpt lat="45.32529" lon="4.28012">
        <ele>755</ele>
        <time>2021-04-26T10:16:38Z</time>
      </trkpt>
      <trkpt lat="45.32526" lon="4.28001">
        <ele>754</ele>
        <time>2021-04-26T10:16:39Z</time>
      </trkpt>
      <trkpt lat="45.32524" lon="4.2799">
        <ele>754</ele>
        <time>2021-04-26T10:16:40Z</time>
      </trkpt>
      <trkpt lat="45.32522" lon="4.27979">
        <ele>753</ele>
        <time>2021-04-26T10:16:41Z</time>
      </trkpt>
      <trkpt lat="45.32521" lon="4.27968">
        <ele>753</ele>
        <time>2021-04-26T10:16:42Z</time>
      </trkpt>
      <trkpt lat="45.32519" lon="4.27957">
        <ele>753</ele>
        <time>2021-04-26T10:16:43Z</time>
      </trkpt>
      <trkpt lat="45.32518" lon="4.27948">
        <ele>752</ele>
        <time>2021-04-26T10:16:44Z</time>
      </trkpt>
      <trkpt lat="45.32517" lon="4.27939">
        <ele>752</ele>
        <time>2021-04-26T10:16:45Z</time>
      </trkpt>
      <trkpt lat="45.32517" lon="4.27931">
        <ele>752</ele>
        <time>2021-04-26T10:16:46Z</time>
      </trkpt>
      <trkpt lat="45.32517" lon="4.27923">
        <ele>751</ele>
        <time>2021-04-26T10:16:47Z</time>
      </trkpt>
      <trkpt lat="45.32517" lon="4.27916">
        <ele>751</ele>
        <time>2021-04-26T10:16:48Z</time>
      </trkpt>
      <trkpt lat="45.32517" lon="4.27909">
        <ele>751</ele>
        <time>2021-04-26T10:16:49Z</time>
      </trkpt>
      <trkpt lat="45.32518" lon="4.27903">
        <ele>751</ele>
        <time>2021-04-26T10:16:50Z</time>
      </trkpt>
      <trkpt lat="45.32519" lon="4.27896">
        <ele>751</ele>
        <time>2021-04-26T10:16:51Z</time>
      </trkpt>
      <trkpt lat="45.32521" lon="4.27888">
        <ele>751</ele>
        <time>2021-04-26T10:16:52Z</time>
      </trkpt>
      <trkpt lat="45.32522" lon="4.2788">
        <ele>751</ele>
        <time>2021-04-26T10:16:53Z</time>
      </trkpt>
      <trkpt lat="45.32524" lon="4.27873">
        <ele>751</ele>
        <time>2021-04-26T10:16:54Z</time>
      </trkpt>
      <trkpt lat="45.32526" lon="4.27866">
        <ele>751</ele>
        <time>2021-04-26T10:16:55Z</time>
      </trkpt>
      <trkpt lat="45.32528" lon="4.27859">
        <ele>751</ele>
        <time>2021-04-26T10:16:56Z</time>
      </trkpt>
      <trkpt lat="45.3253" lon="4.27852">
        <ele>751</ele>
        <time>2021-04-26T10:16:57Z</time>
      </trkpt>
      <trkpt lat="45.32533" lon="4.27845">
        <ele>751</ele>
        <time>2021-04-26T10:16:58Z</time>
      </trkpt>
      <trkpt lat="45.32536" lon="4.27839">
        <ele>751</ele>
        <time>2021-04-26T10:16:59Z</time>
      </trkpt>
      <trkpt lat="45.32538" lon="4.27833">
        <ele>751</ele>
        <time>2021-04-26T10:17:00Z</time>
      </trkpt>
      <trkpt lat="45.32541" lon="4.27828">
        <ele>751</ele>
        <time>2021-04-26T10:17:01Z</time>
      </trkpt>
      <trkpt lat="45.32544" lon="4.27822">
        <ele>751</ele>
        <time>2021-04-26T10:17:02Z</time>
      </trkpt>
      <trkpt lat="45.32547" lon="4.27817">
        <ele>751</ele>
        <time>2021-04-26T10:17:03Z</time>
      </trkpt>
      <trkpt lat="45.32549" lon="4.27811">
        <ele>751</ele>
        <time>2021-04-26T10:17:04Z</time>
      </trkpt>
      <trkpt lat="45.32551" lon="4.27805">
        <ele>751</ele>
        <time>2021-04-26T10:17:05Z</time>
      </trkpt>
      <trkpt lat="45.32552" lon="4.27798">
        <ele>752</ele>
        <time>2021-04-26T10:17:06Z</time>
      </trkpt>
      <trkpt lat="45.32552" lon="4.27792">
        <ele>752</ele>
        <time>2021-04-26T10:17:07Z</time>
      </trkpt>
      <trkpt lat="45.32551" lon="4.27785">
        <ele>752</ele>
        <time>2021-04-26T10:17:08Z</time>
      </trkpt>
      <trkpt lat="45.32549" lon="4.2778">
        <ele>752</ele>
        <time>2021-04-26T10:17:09Z</time>
      </trkpt>
      <trkpt lat="45.32547" lon="4.27774">
        <ele>752</ele>
        <time>2021-04-26T10:17:10Z</time>
      </trkpt>
      <trkpt lat="45.32545" lon="4.27768">
        <ele>752</ele>
        <time>2021-04-26T10:17:11Z</time>
      </trkpt>
      <trkpt lat="45.32544" lon="4.27763">
        <ele>752</ele>
        <time>2021-04-26T10:17:12Z</time>
      </trkpt>
      <trkpt lat="45.32542" lon="4.27757">
        <ele>752</ele>
        <time>2021-04-26T10:17:13Z</time>
      </trkpt>
      <trkpt lat="45.3254" lon="4.27751">
        <ele>752</ele>
        <time>2021-04-26T10:17:14Z</time>
      </trkpt>
      <trkpt lat="45.32538" lon="4.27745">
        <ele>752</ele>
        <time>2021-04-26T10:17:15Z</time>
      </trkpt>
      <trkpt lat="45.32535" lon="4.2774">
        <ele>752</ele>
        <time>2021-04-26T10:17:16Z</time>
      </trkpt>
      <trkpt lat="45.32533" lon="4.27735">
        <ele>752</ele>
        <time>2021-04-26T10:17:17Z</time>
      </trkpt>
      <trkpt lat="45.3253" lon="4.27729">
        <ele>752</ele>
        <time>2021-04-26T10:17:18Z</time>
      </trkpt>
      <trkpt lat="45.32528" lon="4.27723">
        <ele>753</ele>
        <time>2021-04-26T10:17:19Z</time>
      </trkpt>
      <trkpt lat="45.32525" lon="4.27717">
        <ele>753</ele>
        <time>2021-04-26T10:17:20Z</time>
      </trkpt>
      <trkpt lat="45.32523" lon="4.27711">
        <ele>753</ele>
        <time>2021-04-26T10:17:21Z</time>
      </trkpt>
      <trkpt lat="45.3252" lon="4.27706">
        <ele>753</ele>
        <time>2021-04-26T10:17:22Z</time>
      </trkpt>
      <trkpt lat="45.32517" lon="4.277">
        <ele>754</ele>
        <time>2021-04-26T10:17:23Z</time>
      </trkpt>
      <trkpt lat="45.32514" lon="4.27695">
        <ele>754</ele>
        <time>2021-04-26T10:17:24Z</time>
      </trkpt>
      <trkpt lat="45.32512" lon="4.27689">
        <ele>754</ele>
        <time>2021-04-26T10:17:25Z</time>
      </trkpt>
      <trkpt lat="45.32509" lon="4.27683">
        <ele>754</ele>
        <time>2021-04-26T10:17:26Z</time>
      </trkpt>
      <trkpt lat="45.32507" lon="4.27676">
        <ele>754</ele>
        <time>2021-04-26T10:17:27Z</time>
      </trkpt>
      <trkpt lat="45.32505" lon="4.2767">
        <ele>755</ele>
        <time>2021-04-26T10:17:28Z</time>
      </trkpt>
      <trkpt lat="45.32503" lon="4.27664">
        <ele>755</ele>
        <time>2021-04-26T10:17:29Z</time>
      </trkpt>
      <trkpt lat="45.32501" lon="4.27658">
        <ele>755</ele>
        <time>2021-04-26T10:17:30Z</time>
      </trkpt>
      <trkpt lat="45.32496" lon="4.27647">
        <ele>755</ele>
        <time>2021-04-26T10:17:31Z</time>
      </trkpt>
      <trkpt lat="45.32494" lon="4.27643">
        <ele>755</ele>
        <time>2021-04-26T10:17:33Z</time>
      </trkpt>
      <trkpt lat="45.32492" lon="4.27638">
        <ele>756</ele>
        <time>2021-04-26T10:17:34Z</time>
      </trkpt>
      <trkpt lat="45.32487" lon="4.27624">
        <ele>756</ele>
        <time>2021-04-26T10:17:37Z</time>
      </trkpt>
      <trkpt lat="45.32484" lon="4.27619">
        <ele>756</ele>
        <time>2021-04-26T10:17:38Z</time>
      </trkpt>
      <trkpt lat="45.32482" lon="4.27614">
        <ele>756</ele>
        <time>2021-04-26T10:17:39Z</time>
      </trkpt>
      <trkpt lat="45.3248" lon="4.27609">
        <ele>757</ele>
        <time>2021-04-26T10:17:40Z</time>
      </trkpt>
      <trkpt lat="45.32475" lon="4.276">
        <ele>757</ele>
        <time>2021-04-26T10:17:42Z</time>
      </trkpt>
      <trkpt lat="45.32467" lon="4.27591">
        <ele>757</ele>
        <time>2021-04-26T10:17:44Z</time>
      </trkpt>
      <trkpt lat="45.32461" lon="4.27588">
        <ele>757</ele>
        <time>2021-04-26T10:17:45Z</time>
      </trkpt>
      <trkpt lat="45.32451" lon="4.27579">
        <ele>757</ele>
        <time>2021-04-26T10:17:47Z</time>
      </trkpt>
      <trkpt lat="45.32445" lon="4.27573">
        <ele>757</ele>
        <time>2021-04-26T10:17:48Z</time>
      </trkpt>
      <trkpt lat="45.32441" lon="4.27568">
        <ele>757</ele>
        <time>2021-04-26T10:17:49Z</time>
      </trkpt>
      <trkpt lat="45.32439" lon="4.27563">
        <ele>757</ele>
        <time>2021-04-26T10:17:50Z</time>
      </trkpt>
      <trkpt lat="45.32438" lon="4.27558">
        <ele>757</ele>
        <time>2021-04-26T10:17:51Z</time>
      </trkpt>
      <trkpt lat="45.32442" lon="4.27543">
        <ele>757</ele>
        <time>2021-04-26T10:17:54Z</time>
      </trkpt>
      <trkpt lat="45.32444" lon="4.27538">
        <ele>759</ele>
        <time>2021-04-26T10:17:55Z</time>
      </trkpt>
      <trkpt lat="45.32446" lon="4.27533">
        <ele>759</ele>
        <time>2021-04-26T10:17:56Z</time>
      </trkpt>
      <trkpt lat="45.32448" lon="4.27527">
        <ele>760</ele>
        <time>2021-04-26T10:17:57Z</time>
      </trkpt>
      <trkpt lat="45.3245" lon="4.27522">
        <ele>760</ele>
        <time>2021-04-26T10:17:58Z</time>
      </trkpt>
      <trkpt lat="45.32451" lon="4.27517">
        <ele>760</ele>
        <time>2021-04-26T10:17:59Z</time>
      </trkpt>
      <trkpt lat="45.32452" lon="4.27512">
        <ele>760</ele>
        <time>2021-04-26T10:18:00Z</time>
      </trkpt>
      <trkpt lat="45.32453" lon="4.27507">
        <ele>761</ele>
        <time>2021-04-26T10:18:01Z</time>
      </trkpt>
      <trkpt lat="45.32455" lon="4.27503">
        <ele>761</ele>
        <time>2021-04-26T10:18:02Z</time>
      </trkpt>
      <trkpt lat="45.32457" lon="4.27498">
        <ele>761</ele>
        <time>2021-04-26T10:18:03Z</time>
      </trkpt>
      <trkpt lat="45.3246" lon="4.27494">
        <ele>761</ele>
        <time>2021-04-26T10:18:04Z</time>
      </trkpt>
      <trkpt lat="45.32465" lon="4.27486">
        <ele>761</ele>
        <time>2021-04-26T10:18:06Z</time>
      </trkpt>
      <trkpt lat="45.32467" lon="4.27482">
        <ele>761</ele>
        <time>2021-04-26T10:18:07Z</time>
      </trkpt>
      <trkpt lat="45.32468" lon="4.27478">
        <ele>764</ele>
        <time>2021-04-26T10:18:11Z</time>
      </trkpt>
      <trkpt lat="45.32465" lon="4.27479">
        <ele>765</ele>
        <time>2021-04-26T10:18:13Z</time>
      </trkpt>
      <trkpt lat="45.32462" lon="4.2748">
        <ele>766</ele>
        <time>2021-04-26T10:18:16Z</time>
      </trkpt>
      <trkpt lat="45.32459" lon="4.27481">
        <ele>767</ele>
        <time>2021-04-26T10:18:18Z</time>
      </trkpt>
      <trkpt lat="45.32456" lon="4.27482">
        <ele>768</ele>
        <time>2021-04-26T10:18:20Z</time>
      </trkpt>
      <trkpt lat="45.32453" lon="4.27483">
        <ele>769</ele>
        <time>2021-04-26T10:18:22Z</time>
      </trkpt>
      <trkpt lat="45.32451" lon="4.27483">
        <ele>770</ele>
        <time>2021-04-26T10:18:23Z</time>
      </trkpt>
      <trkpt lat="45.32449" lon="4.27483">
        <ele>770</ele>
        <time>2021-04-26T10:18:24Z</time>
      </trkpt>
      <trkpt lat="45.32447" lon="4.2748">
        <ele>771</ele>
        <time>2021-04-26T10:18:26Z</time>
      </trkpt>
      <trkpt lat="45.32446" lon="4.27477">
        <ele>771</ele>
        <time>2021-04-26T10:18:28Z</time>
      </trkpt>
      <trkpt lat="45.32445" lon="4.27474">
        <ele>772</ele>
        <time>2021-04-26T10:18:30Z</time>
      </trkpt>
      <trkpt lat="45.32443" lon="4.2747">
        <ele>772</ele>
        <time>2021-04-26T10:18:32Z</time>
      </trkpt>
      <trkpt lat="45.32443" lon="4.27457">
        <ele>776</ele>
        <time>2021-04-26T10:18:38Z</time>
      </trkpt>
      <trkpt lat="45.32443" lon="4.27454">
        <ele>776</ele>
        <time>2021-04-26T10:18:39Z</time>
      </trkpt>
      <trkpt lat="45.32443" lon="4.27451">
        <ele>776</ele>
        <time>2021-04-26T10:18:40Z</time>
      </trkpt>
      <trkpt lat="45.32438" lon="4.27438">
        <ele>776</ele>
        <time>2021-04-26T10:18:44Z</time>
      </trkpt>
      <trkpt lat="45.3243" lon="4.2743">
        <ele>778</ele>
        <time>2021-04-26T10:18:48Z</time>
      </trkpt>
      <trkpt lat="45.32424" lon="4.27416">
        <ele>780</ele>
        <time>2021-04-26T10:18:53Z</time>
      </trkpt>
      <trkpt lat="45.32417" lon="4.27403">
        <ele>782</ele>
        <time>2021-04-26T10:18:57Z</time>
      </trkpt>
      <trkpt lat="45.32413" lon="4.27392">
        <ele>783</ele>
        <time>2021-04-26T10:19:02Z</time>
      </trkpt>
      <trkpt lat="45.3241" lon="4.27378">
        <ele>783</ele>
        <time>2021-04-26T10:19:06Z</time>
      </trkpt>
      <trkpt lat="45.32406" lon="4.27365">
        <ele>785</ele>
        <time>2021-04-26T10:19:09Z</time>
      </trkpt>
      <trkpt lat="45.32402" lon="4.27352">
        <ele>785</ele>
        <time>2021-04-26T10:19:13Z</time>
      </trkpt>
      <trkpt lat="45.32402" lon="4.27338">
        <ele>786</ele>
        <time>2021-04-26T10:19:17Z</time>
      </trkpt>
      <trkpt lat="45.324" lon="4.27324">
        <ele>790</ele>
        <time>2021-04-26T10:19:23Z</time>
      </trkpt>
      <trkpt lat="45.32398" lon="4.2731">
        <ele>790</ele>
        <time>2021-04-26T10:19:27Z</time>
      </trkpt>
      <trkpt lat="45.32399" lon="4.27296">
        <ele>792</ele>
        <time>2021-04-26T10:19:31Z</time>
      </trkpt>
      <trkpt lat="45.32396" lon="4.27282">
        <ele>792</ele>
        <time>2021-04-26T10:19:37Z</time>
      </trkpt>
      <trkpt lat="45.32394" lon="4.27281">
        <ele>795</ele>
        <time>2021-04-26T10:19:38Z</time>
      </trkpt>
      <trkpt lat="45.32391" lon="4.27278">
        <ele>795</ele>
        <time>2021-04-26T10:19:39Z</time>
      </trkpt>
      <trkpt lat="45.32389" lon="4.27276">
        <ele>796</ele>
        <time>2021-04-26T10:19:40Z</time>
      </trkpt>
      <trkpt lat="45.32387" lon="4.27274">
        <ele>797</ele>
        <time>2021-04-26T10:19:41Z</time>
      </trkpt>
      <trkpt lat="45.32384" lon="4.27272">
        <ele>797</ele>
        <time>2021-04-26T10:19:42Z</time>
      </trkpt>
      <trkpt lat="45.32382" lon="4.27271">
        <ele>797</ele>
        <time>2021-04-26T10:19:43Z</time>
      </trkpt>
      <trkpt lat="45.32379" lon="4.27269">
        <ele>798</ele>
        <time>2021-04-26T10:19:44Z</time>
      </trkpt>
      <trkpt lat="45.32376" lon="4.27268">
        <ele>798</ele>
        <time>2021-04-26T10:19:45Z</time>
      </trkpt>
      <trkpt lat="45.32374" lon="4.27267">
        <ele>798</ele>
        <time>2021-04-26T10:19:46Z</time>
      </trkpt>
      <trkpt lat="45.32371" lon="4.27266">
        <ele>799</ele>
        <time>2021-04-26T10:19:47Z</time>
      </trkpt>
      <trkpt lat="45.32369" lon="4.27265">
        <ele>799</ele>
        <time>2021-04-26T10:19:48Z</time>
      </trkpt>
      <trkpt lat="45.32368" lon="4.27264">
        <ele>799</ele>
        <time>2021-04-26T10:19:49Z</time>
      </trkpt>
      <trkpt lat="45.32365" lon="4.27263">
        <ele>800</ele>
        <time>2021-04-26T10:19:50Z</time>
      </trkpt>
      <trkpt lat="45.32363" lon="4.27262">
        <ele>800</ele>
        <time>2021-04-26T10:19:51Z</time>
      </trkpt>
      <trkpt lat="45.32359" lon="4.27261">
        <ele>801</ele>
        <time>2021-04-26T10:19:53Z</time>
      </trkpt>
      <trkpt lat="45.32358" lon="4.2726">
        <ele>801</ele>
        <time>2021-04-26T10:19:54Z</time>
      </trkpt>
      <trkpt lat="45.32354" lon="4.27259">
        <ele>801</ele>
        <time>2021-04-26T10:19:55Z</time>
      </trkpt>
      <trkpt lat="45.32351" lon="4.27259">
        <ele>801</ele>
        <time>2021-04-26T10:19:56Z</time>
      </trkpt>
      <trkpt lat="45.32349" lon="4.27258">
        <ele>802</ele>
        <time>2021-04-26T10:19:57Z</time>
      </trkpt>
      <trkpt lat="45.32346" lon="4.27257">
        <ele>803</ele>
        <time>2021-04-26T10:19:58Z</time>
      </trkpt>
      <trkpt lat="45.32343" lon="4.27256">
        <ele>803</ele>
        <time>2021-04-26T10:19:59Z</time>
      </trkpt>
      <trkpt lat="45.32341" lon="4.27255">
        <ele>803</ele>
        <time>2021-04-26T10:20:00Z</time>
      </trkpt>
      <trkpt lat="45.32336" lon="4.27253">
        <ele>804</ele>
        <time>2021-04-26T10:20:01Z</time>
      </trkpt>
      <trkpt lat="45.32334" lon="4.27253">
        <ele>804</ele>
        <time>2021-04-26T10:20:03Z</time>
      </trkpt>
      <trkpt lat="45.32331" lon="4.27253">
        <ele>805</ele>
        <time>2021-04-26T10:20:04Z</time>
      </trkpt>
      <trkpt lat="45.32328" lon="4.27253">
        <ele>805</ele>
        <time>2021-04-26T10:20:05Z</time>
      </trkpt>
      <trkpt lat="45.32326" lon="4.27252">
        <ele>805</ele>
        <time>2021-04-26T10:20:06Z</time>
      </trkpt>
      <trkpt lat="45.32323" lon="4.2725">
        <ele>806</ele>
        <time>2021-04-26T10:20:07Z</time>
      </trkpt>
      <trkpt lat="45.32319" lon="4.27248">
        <ele>806</ele>
        <time>2021-04-26T10:20:08Z</time>
      </trkpt>
      <trkpt lat="45.32316" lon="4.27245">
        <ele>806</ele>
        <time>2021-04-26T10:20:09Z</time>
      </trkpt>
      <trkpt lat="45.32313" lon="4.27242">
        <ele>806</ele>
        <time>2021-04-26T10:20:10Z</time>
      </trkpt>
      <trkpt lat="45.32309" lon="4.27239">
        <ele>807</ele>
        <time>2021-04-26T10:20:11Z</time>
      </trkpt>
      <trkpt lat="45.32306" lon="4.27236">
        <ele>807</ele>
        <time>2021-04-26T10:20:12Z</time>
      </trkpt>
      <trkpt lat="45.32303" lon="4.27232">
        <ele>807</ele>
        <time>2021-04-26T10:20:13Z</time>
      </trkpt>
      <trkpt lat="45.323" lon="4.27228">
        <ele>807</ele>
        <time>2021-04-26T10:20:14Z</time>
      </trkpt>
      <trkpt lat="45.32297" lon="4.27223">
        <ele>807</ele>
        <time>2021-04-26T10:20:15Z</time>
      </trkpt>
      <trkpt lat="45.32293" lon="4.27219">
        <ele>807</ele>
        <time>2021-04-26T10:20:16Z</time>
      </trkpt>
      <trkpt lat="45.3229" lon="4.27215">
        <ele>807</ele>
        <time>2021-04-26T10:20:17Z</time>
      </trkpt>
      <trkpt lat="45.32286" lon="4.27211">
        <ele>807</ele>
        <time>2021-04-26T10:20:18Z</time>
      </trkpt>
      <trkpt lat="45.32282" lon="4.27208">
        <ele>807</ele>
        <time>2021-04-26T10:20:19Z</time>
      </trkpt>
      <trkpt lat="45.32278" lon="4.27205">
        <ele>807</ele>
        <time>2021-04-26T10:20:20Z</time>
      </trkpt>
      <trkpt lat="45.32273" lon="4.27203">
        <ele>807</ele>
        <time>2021-04-26T10:20:21Z</time>
      </trkpt>
      <trkpt lat="45.32268" lon="4.27202">
        <ele>807</ele>
        <time>2021-04-26T10:20:22Z</time>
      </trkpt>
      <trkpt lat="45.32264" lon="4.27201">
        <ele>807</ele>
        <time>2021-04-26T10:20:23Z</time>
      </trkpt>
      <trkpt lat="45.3226" lon="4.272">
        <ele>807</ele>
        <time>2021-04-26T10:20:24Z</time>
      </trkpt>
      <trkpt lat="45.32255" lon="4.27199">
        <ele>807</ele>
        <time>2021-04-26T10:20:25Z</time>
      </trkpt>
      <trkpt lat="45.32251" lon="4.27198">
        <ele>807</ele>
        <time>2021-04-26T10:20:26Z</time>
      </trkpt>
      <trkpt lat="45.32246" lon="4.27197">
        <ele>807</ele>
        <time>2021-04-26T10:20:27Z</time>
      </trkpt>
      <trkpt lat="45.32242" lon="4.27196">
        <ele>807</ele>
        <time>2021-04-26T10:20:28Z</time>
      </trkpt>
      <trkpt lat="45.32238" lon="4.27195">
        <ele>807</ele>
        <time>2021-04-26T10:20:29Z</time>
      </trkpt>
      <trkpt lat="45.32233" lon="4.27194">
        <ele>807</ele>
        <time>2021-04-26T10:20:30Z</time>
      </trkpt>
      <trkpt lat="45.32229" lon="4.27194">
        <ele>807</ele>
        <time>2021-04-26T10:20:31Z</time>
      </trkpt>
      <trkpt lat="45.32224" lon="4.27193">
        <ele>807</ele>
        <time>2021-04-26T10:20:32Z</time>
      </trkpt>
      <trkpt lat="45.3222" lon="4.27193">
        <ele>808</ele>
        <time>2021-04-26T10:20:33Z</time>
      </trkpt>
      <trkpt lat="45.32216" lon="4.27192">
        <ele>808</ele>
        <time>2021-04-26T10:20:34Z</time>
      </trkpt>
      <trkpt lat="45.32212" lon="4.27192">
        <ele>808</ele>
        <time>2021-04-26T10:20:35Z</time>
      </trkpt>
      <trkpt lat="45.32207" lon="4.27191">
        <ele>808</ele>
        <time>2021-04-26T10:20:36Z</time>
      </trkpt>
      <trkpt lat="45.32203" lon="4.27191">
        <ele>808</ele>
        <time>2021-04-26T10:20:37Z</time>
      </trkpt>
      <trkpt lat="45.32199" lon="4.2719">
        <ele>808</ele>
        <time>2021-04-26T10:20:38Z</time>
      </trkpt>
      <trkpt lat="45.32195" lon="4.27189">
        <ele>808</ele>
        <time>2021-04-26T10:20:39Z</time>
      </trkpt>
      <trkpt lat="45.32191" lon="4.27188">
        <ele>808</ele>
        <time>2021-04-26T10:20:40Z</time>
      </trkpt>
      <trkpt lat="45.32187" lon="4.27188">
        <ele>808</ele>
        <time>2021-04-26T10:20:41Z</time>
      </trkpt>
      <trkpt lat="45.32183" lon="4.27187">
        <ele>809</ele>
        <time>2021-04-26T10:20:42Z</time>
      </trkpt>
      <trkpt lat="45.3218" lon="4.27186">
        <ele>809</ele>
        <time>2021-04-26T10:20:43Z</time>
      </trkpt>
      <trkpt lat="45.32176" lon="4.27185">
        <ele>809</ele>
        <time>2021-04-26T10:20:44Z</time>
      </trkpt>
      <trkpt lat="45.32172" lon="4.27184">
        <ele>809</ele>
        <time>2021-04-26T10:20:45Z</time>
      </trkpt>
      <trkpt lat="45.32169" lon="4.27183">
        <ele>809</ele>
        <time>2021-04-26T10:20:46Z</time>
      </trkpt>
      <trkpt lat="45.32165" lon="4.27183">
        <ele>809</ele>
        <time>2021-04-26T10:20:47Z</time>
      </trkpt>
      <trkpt lat="45.32161" lon="4.27182">
        <ele>809</ele>
        <time>2021-04-26T10:20:48Z</time>
      </trkpt>
      <trkpt lat="45.32158" lon="4.27181">
        <ele>810</ele>
        <time>2021-04-26T10:20:49Z</time>
      </trkpt>
      <trkpt lat="45.32154" lon="4.2718">
        <ele>810</ele>
        <time>2021-04-26T10:20:50Z</time>
      </trkpt>
      <trkpt lat="45.3215" lon="4.2718">
        <ele>810</ele>
        <time>2021-04-26T10:20:51Z</time>
      </trkpt>
      <trkpt lat="45.32146" lon="4.27179">
        <ele>810</ele>
        <time>2021-04-26T10:20:52Z</time>
      </trkpt>
      <trkpt lat="45.32142" lon="4.27179">
        <ele>810</ele>
        <time>2021-04-26T10:20:53Z</time>
      </trkpt>
      <trkpt lat="45.32138" lon="4.27179">
        <ele>810</ele>
        <time>2021-04-26T10:20:54Z</time>
      </trkpt>
      <trkpt lat="45.32134" lon="4.2718">
        <ele>810</ele>
        <time>2021-04-26T10:20:55Z</time>
      </trkpt>
      <trkpt lat="45.3213" lon="4.27181">
        <ele>810</ele>
        <time>2021-04-26T10:20:56Z</time>
      </trkpt>
      <trkpt lat="45.32126" lon="4.27182">
        <ele>810</ele>
        <time>2021-04-26T10:20:57Z</time>
      </trkpt>
      <trkpt lat="45.32122" lon="4.27183">
        <ele>810</ele>
        <time>2021-04-26T10:20:58Z</time>
      </trkpt>
      <trkpt lat="45.32118" lon="4.27184">
        <ele>811</ele>
        <time>2021-04-26T10:20:59Z</time>
      </trkpt>
      <trkpt lat="45.32114" lon="4.27185">
        <ele>811</ele>
        <time>2021-04-26T10:21:00Z</time>
      </trkpt>
      <trkpt lat="45.3211" lon="4.27186">
        <ele>811</ele>
        <time>2021-04-26T10:21:01Z</time>
      </trkpt>
      <trkpt lat="45.32107" lon="4.27186">
        <ele>811</ele>
        <time>2021-04-26T10:21:02Z</time>
      </trkpt>
      <trkpt lat="45.32104" lon="4.27187">
        <ele>811</ele>
        <time>2021-04-26T10:21:03Z</time>
      </trkpt>
      <trkpt lat="45.32101" lon="4.27187">
        <ele>811</ele>
        <time>2021-04-26T10:21:04Z</time>
      </trkpt>
      <trkpt lat="45.32098" lon="4.27187">
        <ele>811</ele>
        <time>2021-04-26T10:21:05Z</time>
      </trkpt>
      <trkpt lat="45.32094" lon="4.27187">
        <ele>811</ele>
        <time>2021-04-26T10:21:06Z</time>
      </trkpt>
      <trkpt lat="45.3209" lon="4.27188">
        <ele>811</ele>
        <time>2021-04-26T10:21:07Z</time>
      </trkpt>
      <trkpt lat="45.32086" lon="4.27188">
        <ele>811</ele>
        <time>2021-04-26T10:21:08Z</time>
      </trkpt>
      <trkpt lat="45.32083" lon="4.27189">
        <ele>811</ele>
        <time>2021-04-26T10:21:09Z</time>
      </trkpt>
      <trkpt lat="45.32079" lon="4.27189">
        <ele>811</ele>
        <time>2021-04-26T10:21:10Z</time>
      </trkpt>
      <trkpt lat="45.32076" lon="4.27189">
        <ele>811</ele>
        <time>2021-04-26T10:21:11Z</time>
      </trkpt>
      <trkpt lat="45.32072" lon="4.2719">
        <ele>811</ele>
        <time>2021-04-26T10:21:12Z</time>
      </trkpt>
      <trkpt lat="45.32068" lon="4.27191">
        <ele>811</ele>
        <time>2021-04-26T10:21:13Z</time>
      </trkpt>
      <trkpt lat="45.32065" lon="4.27191">
        <ele>812</ele>
        <time>2021-04-26T10:21:14Z</time>
      </trkpt>
      <trkpt lat="45.32061" lon="4.27192">
        <ele>812</ele>
        <time>2021-04-26T10:21:15Z</time>
      </trkpt>
      <trkpt lat="45.32057" lon="4.27193">
        <ele>812</ele>
        <time>2021-04-26T10:21:16Z</time>
      </trkpt>
      <trkpt lat="45.32054" lon="4.27193">
        <ele>812</ele>
        <time>2021-04-26T10:21:17Z</time>
      </trkpt>
      <trkpt lat="45.32051" lon="4.27194">
        <ele>812</ele>
        <time>2021-04-26T10:21:18Z</time>
      </trkpt>
      <trkpt lat="45.32048" lon="4.27194">
        <ele>812</ele>
        <time>2021-04-26T10:21:19Z</time>
      </trkpt>
      <trkpt lat="45.32044" lon="4.27195">
        <ele>812</ele>
        <time>2021-04-26T10:21:20Z</time>
      </trkpt>
      <trkpt lat="45.32041" lon="4.27195">
        <ele>812</ele>
        <time>2021-04-26T10:21:21Z</time>
      </trkpt>
      <trkpt lat="45.32037" lon="4.27195">
        <ele>812</ele>
        <time>2021-04-26T10:21:22Z</time>
      </trkpt>
      <trkpt lat="45.32034" lon="4.27195">
        <ele>812</ele>
        <time>2021-04-26T10:21:23Z</time>
      </trkpt>
      <trkpt lat="45.3203" lon="4.27195">
        <ele>812</ele>
        <time>2021-04-26T10:21:24Z</time>
      </trkpt>
      <trkpt lat="45.32026" lon="4.27195">
        <ele>812</ele>
        <time>2021-04-26T10:21:25Z</time>
      </trkpt>
      <trkpt lat="45.32023" lon="4.27195">
        <ele>813</ele>
        <time>2021-04-26T10:21:26Z</time>
      </trkpt>
      <trkpt lat="45.3202" lon="4.27195">
        <ele>813</ele>
        <time>2021-04-26T10:21:27Z</time>
      </trkpt>
      <trkpt lat="45.32016" lon="4.27195">
        <ele>813</ele>
        <time>2021-04-26T10:21:28Z</time>
      </trkpt>
      <trkpt lat="45.32013" lon="4.27195">
        <ele>813</ele>
        <time>2021-04-26T10:21:29Z</time>
      </trkpt>
      <trkpt lat="45.3201" lon="4.27195">
        <ele>813</ele>
        <time>2021-04-26T10:21:30Z</time>
      </trkpt>
      <trkpt lat="45.32006" lon="4.27194">
        <ele>813</ele>
        <time>2021-04-26T10:21:31Z</time>
      </trkpt>
      <trkpt lat="45.32003" lon="4.27194">
        <ele>813</ele>
        <time>2021-04-26T10:21:32Z</time>
      </trkpt>
      <trkpt lat="45.31999" lon="4.27194">
        <ele>813</ele>
        <time>2021-04-26T10:21:33Z</time>
      </trkpt>
      <trkpt lat="45.31996" lon="4.27194">
        <ele>813</ele>
        <time>2021-04-26T10:21:34Z</time>
      </trkpt>
      <trkpt lat="45.31992" lon="4.27194">
        <ele>813</ele>
        <time>2021-04-26T10:21:35Z</time>
      </trkpt>
      <trkpt lat="45.31989" lon="4.27193">
        <ele>814</ele>
        <time>2021-04-26T10:21:36Z</time>
      </trkpt>
      <trkpt lat="45.31985" lon="4.27193">
        <ele>814</ele>
        <time>2021-04-26T10:21:37Z</time>
      </trkpt>
      <trkpt lat="45.31981" lon="4.27193">
        <ele>814</ele>
        <time>2021-04-26T10:21:38Z</time>
      </trkpt>
      <trkpt lat="45.31978" lon="4.27192">
        <ele>815</ele>
        <time>2021-04-26T10:21:39Z</time>
      </trkpt>
      <trkpt lat="45.31975" lon="4.27191">
        <ele>815</ele>
        <time>2021-04-26T10:21:40Z</time>
      </trkpt>
      <trkpt lat="45.31971" lon="4.27189">
        <ele>815</ele>
        <time>2021-04-26T10:21:41Z</time>
      </trkpt>
      <trkpt lat="45.31968" lon="4.27187">
        <ele>815</ele>
        <time>2021-04-26T10:21:42Z</time>
      </trkpt>
      <trkpt lat="45.31965" lon="4.27183">
        <ele>815</ele>
        <time>2021-04-26T10:21:43Z</time>
      </trkpt>
      <trkpt lat="45.31962" lon="4.27179">
        <ele>815</ele>
        <time>2021-04-26T10:21:44Z</time>
      </trkpt>
      <trkpt lat="45.31959" lon="4.27175">
        <ele>815</ele>
        <time>2021-04-26T10:21:45Z</time>
      </trkpt>
      <trkpt lat="45.31957" lon="4.27171">
        <ele>815</ele>
        <time>2021-04-26T10:21:46Z</time>
      </trkpt>
      <trkpt lat="45.31956" lon="4.27166">
        <ele>815</ele>
        <time>2021-04-26T10:21:47Z</time>
      </trkpt>
      <trkpt lat="45.31954" lon="4.27161">
        <ele>815</ele>
        <time>2021-04-26T10:21:48Z</time>
      </trkpt>
      <trkpt lat="45.31953" lon="4.27157">
        <ele>815</ele>
        <time>2021-04-26T10:21:49Z</time>
      </trkpt>
      <trkpt lat="45.31953" lon="4.27152">
        <ele>815</ele>
        <time>2021-04-26T10:21:50Z</time>
      </trkpt>
      <trkpt lat="45.31952" lon="4.27147">
        <ele>815</ele>
        <time>2021-04-26T10:21:51Z</time>
      </trkpt>
      <trkpt lat="45.31952" lon="4.27141">
        <ele>815</ele>
        <time>2021-04-26T10:21:52Z</time>
      </trkpt>
      <trkpt lat="45.31951" lon="4.27137">
        <ele>815</ele>
        <time>2021-04-26T10:21:53Z</time>
      </trkpt>
      <trkpt lat="45.3195" lon="4.27132">
        <ele>815</ele>
        <time>2021-04-26T10:21:54Z</time>
      </trkpt>
      <trkpt lat="45.31949" lon="4.27127">
        <ele>815</ele>
        <time>2021-04-26T10:21:55Z</time>
      </trkpt>
      <trkpt lat="45.31947" lon="4.27123">
        <ele>815</ele>
        <time>2021-04-26T10:21:56Z</time>
      </trkpt>
      <trkpt lat="45.31946" lon="4.2712">
        <ele>815</ele>
        <time>2021-04-26T10:21:57Z</time>
      </trkpt>
      <trkpt lat="45.31945" lon="4.27118">
        <ele>815</ele>
        <time>2021-04-26T10:21:59Z</time>
      </trkpt>
      <trkpt lat="45.31942" lon="4.27114">
        <ele>816</ele>
        <time>2021-04-26T10:22:11Z</time>
      </trkpt>
      <trkpt lat="45.3194" lon="4.27112">
        <ele>816</ele>
        <time>2021-04-26T10:22:12Z</time>
      </trkpt>
      <trkpt lat="45.3194" lon="4.27109">
        <ele>816</ele>
        <time>2021-04-26T10:22:13Z</time>
      </trkpt>
      <trkpt lat="45.31942" lon="4.27107">
        <ele>816</ele>
        <time>2021-04-26T10:22:14Z</time>
      </trkpt>
      <trkpt lat="45.31945" lon="4.27107">
        <ele>816</ele>
        <time>2021-04-26T10:22:15Z</time>
      </trkpt>
      <trkpt lat="45.31948" lon="4.27109">
        <ele>816</ele>
        <time>2021-04-26T10:22:16Z</time>
      </trkpt>
      <trkpt lat="45.31953" lon="4.2711">
        <ele>816</ele>
        <time>2021-04-26T10:22:17Z</time>
      </trkpt>
      <trkpt lat="45.31957" lon="4.27112">
        <ele>816</ele>
        <time>2021-04-26T10:22:18Z</time>
      </trkpt>
      <trkpt lat="45.31962" lon="4.27113">
        <ele>816</ele>
        <time>2021-04-26T10:22:19Z</time>
      </trkpt>
      <trkpt lat="45.31966" lon="4.27115">
        <ele>816</ele>
        <time>2021-04-26T10:22:20Z</time>
      </trkpt>
      <trkpt lat="45.31971" lon="4.27116">
        <ele>816</ele>
        <time>2021-04-26T10:22:21Z</time>
      </trkpt>
      <trkpt lat="45.31975" lon="4.27117">
        <ele>816</ele>
        <time>2021-04-26T10:22:22Z</time>
      </trkpt>
      <trkpt lat="45.31979" lon="4.27118">
        <ele>816</ele>
        <time>2021-04-26T10:22:23Z</time>
      </trkpt>
      <trkpt lat="45.31984" lon="4.27117">
        <ele>816</ele>
        <time>2021-04-26T10:22:24Z</time>
      </trkpt>
      <trkpt lat="45.31988" lon="4.27116">
        <ele>816</ele>
        <time>2021-04-26T10:22:25Z</time>
      </trkpt>
      <trkpt lat="45.31992" lon="4.27115">
        <ele>816</ele>
        <time>2021-04-26T10:22:26Z</time>
      </trkpt>
      <trkpt lat="45.31995" lon="4.27113">
        <ele>816</ele>
        <time>2021-04-26T10:22:27Z</time>
      </trkpt>
      <trkpt lat="45.31999" lon="4.27111">
        <ele>816</ele>
        <time>2021-04-26T10:22:28Z</time>
      </trkpt>
      <trkpt lat="45.32002" lon="4.27109">
        <ele>816</ele>
        <time>2021-04-26T10:22:29Z</time>
      </trkpt>
      <trkpt lat="45.32006" lon="4.27106">
        <ele>816</ele>
        <time>2021-04-26T10:22:30Z</time>
      </trkpt>
      <trkpt lat="45.32008" lon="4.27104">
        <ele>816</ele>
        <time>2021-04-26T10:22:31Z</time>
      </trkpt>
      <trkpt lat="45.32012" lon="4.27101">
        <ele>815</ele>
        <time>2021-04-26T10:22:32Z</time>
      </trkpt>
      <trkpt lat="45.32015" lon="4.27098">
        <ele>815</ele>
        <time>2021-04-26T10:22:33Z</time>
      </trkpt>
      <trkpt lat="45.32018" lon="4.27095">
        <ele>815</ele>
        <time>2021-04-26T10:22:34Z</time>
      </trkpt>
      <trkpt lat="45.32022" lon="4.27094">
        <ele>815</ele>
        <time>2021-04-26T10:22:35Z</time>
      </trkpt>
      <trkpt lat="45.32024" lon="4.27093">
        <ele>815</ele>
        <time>2021-04-26T10:22:36Z</time>
      </trkpt>
      <trkpt lat="45.32026" lon="4.27092">
        <ele>815</ele>
        <time>2021-04-26T10:22:37Z</time>
      </trkpt>
      <trkpt lat="45.32034" lon="4.27086">
        <ele>815</ele>
        <time>2021-04-26T10:23:12Z</time>
      </trkpt>
      <trkpt lat="45.32037" lon="4.27085">
        <ele>815</ele>
        <time>2021-04-26T10:23:13Z</time>
      </trkpt>
      <trkpt lat="45.32042" lon="4.27084">
        <ele>815</ele>
        <time>2021-04-26T10:23:14Z</time>
      </trkpt>
      <trkpt lat="45.32046" lon="4.27082">
        <ele>815</ele>
        <time>2021-04-26T10:23:15Z</time>
      </trkpt>
      <trkpt lat="45.3205" lon="4.27079">
        <ele>815</ele>
        <time>2021-04-26T10:23:16Z</time>
      </trkpt>
      <trkpt lat="45.32054" lon="4.27076">
        <ele>814</ele>
        <time>2021-04-26T10:23:17Z</time>
      </trkpt>
      <trkpt lat="45.32058" lon="4.27072">
        <ele>814</ele>
        <time>2021-04-26T10:23:18Z</time>
      </trkpt>
      <trkpt lat="45.32061" lon="4.27067">
        <ele>814</ele>
        <time>2021-04-26T10:23:19Z</time>
      </trkpt>
      <trkpt lat="45.32063" lon="4.2706">
        <ele>814</ele>
        <time>2021-04-26T10:23:20Z</time>
      </trkpt>
      <trkpt lat="45.32065" lon="4.27053">
        <ele>814</ele>
        <time>2021-04-26T10:23:21Z</time>
      </trkpt>
      <trkpt lat="45.32066" lon="4.27046">
        <ele>814</ele>
        <time>2021-04-26T10:23:22Z</time>
      </trkpt>
      <trkpt lat="45.32068" lon="4.27038">
        <ele>814</ele>
        <time>2021-04-26T10:23:23Z</time>
      </trkpt>
      <trkpt lat="45.32069" lon="4.2703">
        <ele>814</ele>
        <time>2021-04-26T10:23:24Z</time>
      </trkpt>
      <trkpt lat="45.3207" lon="4.27021">
        <ele>813</ele>
        <time>2021-04-26T10:23:25Z</time>
      </trkpt>
      <trkpt lat="45.32071" lon="4.27013">
        <ele>813</ele>
        <time>2021-04-26T10:23:26Z</time>
      </trkpt>
      <trkpt lat="45.32072" lon="4.27003">
        <ele>813</ele>
        <time>2021-04-26T10:23:27Z</time>
      </trkpt>
      <trkpt lat="45.32073" lon="4.26994">
        <ele>812</ele>
        <time>2021-04-26T10:23:28Z</time>
      </trkpt>
      <trkpt lat="45.32075" lon="4.26984">
        <ele>812</ele>
        <time>2021-04-26T10:23:29Z</time>
      </trkpt>
      <trkpt lat="45.32076" lon="4.26974">
        <ele>812</ele>
        <time>2021-04-26T10:23:30Z</time>
      </trkpt>
      <trkpt lat="45.32078" lon="4.26964">
        <ele>812</ele>
        <time>2021-04-26T10:23:31Z</time>
      </trkpt>
      <trkpt lat="45.3208" lon="4.26954">
        <ele>811</ele>
        <time>2021-04-26T10:23:32Z</time>
      </trkpt>
      <trkpt lat="45.32082" lon="4.26945">
        <ele>811</ele>
        <time>2021-04-26T10:23:33Z</time>
      </trkpt>
      <trkpt lat="45.32085" lon="4.26935">
        <ele>811</ele>
        <time>2021-04-26T10:23:34Z</time>
      </trkpt>
      <trkpt lat="45.32088" lon="4.26926">
        <ele>810</ele>
        <time>2021-04-26T10:23:35Z</time>
      </trkpt>
      <trkpt lat="45.32092" lon="4.26917">
        <ele>810</ele>
        <time>2021-04-26T10:23:36Z</time>
      </trkpt>
      <trkpt lat="45.32095" lon="4.26908">
        <ele>810</ele>
        <time>2021-04-26T10:23:37Z</time>
      </trkpt>
      <trkpt lat="45.32099" lon="4.26899">
        <ele>809</ele>
        <time>2021-04-26T10:23:38Z</time>
      </trkpt>
      <trkpt lat="45.32102" lon="4.2689">
        <ele>809</ele>
        <time>2021-04-26T10:23:39Z</time>
      </trkpt>
      <trkpt lat="45.32105" lon="4.26881">
        <ele>809</ele>
        <time>2021-04-26T10:23:40Z</time>
      </trkpt>
      <trkpt lat="45.32108" lon="4.26872">
        <ele>809</ele>
        <time>2021-04-26T10:23:41Z</time>
      </trkpt>
      <trkpt lat="45.32111" lon="4.26863">
        <ele>808</ele>
        <time>2021-04-26T10:23:42Z</time>
      </trkpt>
      <trkpt lat="45.32114" lon="4.26855">
        <ele>808</ele>
        <time>2021-04-26T10:23:43Z</time>
      </trkpt>
      <trkpt lat="45.32117" lon="4.26848">
        <ele>808</ele>
        <time>2021-04-26T10:23:44Z</time>
      </trkpt>
      <trkpt lat="45.32122" lon="4.26844">
        <ele>808</ele>
        <time>2021-04-26T10:23:45Z</time>
      </trkpt>
      <trkpt lat="45.32128" lon="4.26844">
        <ele>807</ele>
        <time>2021-04-26T10:23:46Z</time>
      </trkpt>
      <trkpt lat="45.32134" lon="4.26845">
        <ele>807</ele>
        <time>2021-04-26T10:23:47Z</time>
      </trkpt>
      <trkpt lat="45.3214" lon="4.26847">
        <ele>807</ele>
        <time>2021-04-26T10:23:48Z</time>
      </trkpt>
      <trkpt lat="45.32145" lon="4.2685">
        <ele>807</ele>
        <time>2021-04-26T10:23:49Z</time>
      </trkpt>
      <trkpt lat="45.32151" lon="4.26852">
        <ele>807</ele>
        <time>2021-04-26T10:23:50Z</time>
      </trkpt>
      <trkpt lat="45.32157" lon="4.26853">
        <ele>806</ele>
        <time>2021-04-26T10:23:51Z</time>
      </trkpt>
      <trkpt lat="45.32162" lon="4.26855">
        <ele>806</ele>
        <time>2021-04-26T10:23:52Z</time>
      </trkpt>
      <trkpt lat="45.32168" lon="4.26856">
        <ele>806</ele>
        <time>2021-04-26T10:23:53Z</time>
      </trkpt>
      <trkpt lat="45.32173" lon="4.26856">
        <ele>806</ele>
        <time>2021-04-26T10:23:54Z</time>
      </trkpt>
      <trkpt lat="45.32178" lon="4.26855">
        <ele>806</ele>
        <time>2021-04-26T10:23:55Z</time>
      </trkpt>
      <trkpt lat="45.32183" lon="4.26852">
        <ele>806</ele>
        <time>2021-04-26T10:23:56Z</time>
      </trkpt>
      <trkpt lat="45.32188" lon="4.26849">
        <ele>806</ele>
        <time>2021-04-26T10:23:57Z</time>
      </trkpt>
      <trkpt lat="45.32192" lon="4.26845">
        <ele>806</ele>
        <time>2021-04-26T10:23:58Z</time>
      </trkpt>
      <trkpt lat="45.32196" lon="4.26842">
        <ele>806</ele>
        <time>2021-04-26T10:23:59Z</time>
      </trkpt>
      <trkpt lat="45.32201" lon="4.26838">
        <ele>805</ele>
        <time>2021-04-26T10:24:00Z</time>
      </trkpt>
      <trkpt lat="45.32205" lon="4.26835">
        <ele>805</ele>
        <time>2021-04-26T10:24:01Z</time>
      </trkpt>
      <trkpt lat="45.32209" lon="4.26832">
        <ele>805</ele>
        <time>2021-04-26T10:24:02Z</time>
      </trkpt>
      <trkpt lat="45.32214" lon="4.2683">
        <ele>805</ele>
        <time>2021-04-26T10:24:03Z</time>
      </trkpt>
      <trkpt lat="45.32217" lon="4.26828">
        <ele>805</ele>
        <time>2021-04-26T10:24:04Z</time>
      </trkpt>
      <trkpt lat="45.3222" lon="4.26825">
        <ele>805</ele>
        <time>2021-04-26T10:24:05Z</time>
      </trkpt>
      <trkpt lat="45.32222" lon="4.26822">
        <ele>805</ele>
        <time>2021-04-26T10:24:06Z</time>
      </trkpt>
      <trkpt lat="45.32223" lon="4.26817">
        <ele>804</ele>
        <time>2021-04-26T10:24:07Z</time>
      </trkpt>
      <trkpt lat="45.32223" lon="4.26812">
        <ele>804</ele>
        <time>2021-04-26T10:24:08Z</time>
      </trkpt>
      <trkpt lat="45.32224" lon="4.26807">
        <ele>804</ele>
        <time>2021-04-26T10:24:09Z</time>
      </trkpt>
      <trkpt lat="45.32223" lon="4.26801">
        <ele>804</ele>
        <time>2021-04-26T10:24:10Z</time>
      </trkpt>
      <trkpt lat="45.32223" lon="4.26795">
        <ele>804</ele>
        <time>2021-04-26T10:24:11Z</time>
      </trkpt>
      <trkpt lat="45.32223" lon="4.26789">
        <ele>804</ele>
        <time>2021-04-26T10:24:12Z</time>
      </trkpt>
      <trkpt lat="45.32222" lon="4.26782">
        <ele>804</ele>
        <time>2021-04-26T10:24:13Z</time>
      </trkpt>
      <trkpt lat="45.32223" lon="4.26776">
        <ele>804</ele>
        <time>2021-04-26T10:24:14Z</time>
      </trkpt>
      <trkpt lat="45.32224" lon="4.26769">
        <ele>804</ele>
        <time>2021-04-26T10:24:15Z</time>
      </trkpt>
      <trkpt lat="45.32226" lon="4.26762">
        <ele>804</ele>
        <time>2021-04-26T10:24:16Z</time>
      </trkpt>
      <trkpt lat="45.32229" lon="4.26755">
        <ele>804</ele>
        <time>2021-04-26T10:24:17Z</time>
      </trkpt>
      <trkpt lat="45.32232" lon="4.26749">
        <ele>804</ele>
        <time>2021-04-26T10:24:18Z</time>
      </trkpt>
      <trkpt lat="45.32234" lon="4.26744">
        <ele>804</ele>
        <time>2021-04-26T10:24:19Z</time>
      </trkpt>
      <trkpt lat="45.32236" lon="4.26737">
        <ele>803</ele>
        <time>2021-04-26T10:24:20Z</time>
      </trkpt>
      <trkpt lat="45.32237" lon="4.2673">
        <ele>803</ele>
        <time>2021-04-26T10:24:21Z</time>
      </trkpt>
      <trkpt lat="45.3224" lon="4.26721">
        <ele>803</ele>
        <time>2021-04-26T10:24:22Z</time>
      </trkpt>
      <trkpt lat="45.32241" lon="4.26712">
        <ele>803</ele>
        <time>2021-04-26T10:24:23Z</time>
      </trkpt>
      <trkpt lat="45.32243" lon="4.26702">
        <ele>802</ele>
        <time>2021-04-26T10:24:24Z</time>
      </trkpt>
      <trkpt lat="45.32245" lon="4.26693">
        <ele>802</ele>
        <time>2021-04-26T10:24:25Z</time>
      </trkpt>
      <trkpt lat="45.32246" lon="4.26685">
        <ele>802</ele>
        <time>2021-04-26T10:24:26Z</time>
      </trkpt>
      <trkpt lat="45.32249" lon="4.26678">
        <ele>802</ele>
        <time>2021-04-26T10:24:27Z</time>
      </trkpt>
      <trkpt lat="45.3225" lon="4.26672">
        <ele>802</ele>
        <time>2021-04-26T10:24:28Z</time>
      </trkpt>
      <trkpt lat="45.32252" lon="4.26665">
        <ele>801</ele>
        <time>2021-04-26T10:24:29Z</time>
      </trkpt>
      <trkpt lat="45.32254" lon="4.26659">
        <ele>801</ele>
        <time>2021-04-26T10:24:30Z</time>
      </trkpt>
      <trkpt lat="45.32255" lon="4.26652">
        <ele>801</ele>
        <time>2021-04-26T10:24:31Z</time>
      </trkpt>
      <trkpt lat="45.32255" lon="4.26645">
        <ele>801</ele>
        <time>2021-04-26T10:24:32Z</time>
      </trkpt>
      <trkpt lat="45.32255" lon="4.26639">
        <ele>800</ele>
        <time>2021-04-26T10:24:33Z</time>
      </trkpt>
      <trkpt lat="45.32255" lon="4.26632">
        <ele>800</ele>
        <time>2021-04-26T10:24:34Z</time>
      </trkpt>
      <trkpt lat="45.32254" lon="4.26626">
        <ele>800</ele>
        <time>2021-04-26T10:24:35Z</time>
      </trkpt>
      <trkpt lat="45.32253" lon="4.2662">
        <ele>800</ele>
        <time>2021-04-26T10:24:36Z</time>
      </trkpt>
      <trkpt lat="45.32253" lon="4.26614">
        <ele>800</ele>
        <time>2021-04-26T10:24:37Z</time>
      </trkpt>
      <trkpt lat="45.32252" lon="4.26608">
        <ele>800</ele>
        <time>2021-04-26T10:24:38Z</time>
      </trkpt>
      <trkpt lat="45.3225" lon="4.26601">
        <ele>800</ele>
        <time>2021-04-26T10:24:39Z</time>
      </trkpt>
      <trkpt lat="45.32249" lon="4.26596">
        <ele>800</ele>
        <time>2021-04-26T10:24:40Z</time>
      </trkpt>
      <trkpt lat="45.32248" lon="4.2659">
        <ele>799</ele>
        <time>2021-04-26T10:24:41Z</time>
      </trkpt>
      <trkpt lat="45.32246" lon="4.26584">
        <ele>799</ele>
        <time>2021-04-26T10:24:42Z</time>
      </trkpt>
      <trkpt lat="45.32245" lon="4.26578">
        <ele>799</ele>
        <time>2021-04-26T10:24:43Z</time>
      </trkpt>
      <trkpt lat="45.32243" lon="4.26573">
        <ele>799</ele>
        <time>2021-04-26T10:24:44Z</time>
      </trkpt>
      <trkpt lat="45.32242" lon="4.26568">
        <ele>799</ele>
        <time>2021-04-26T10:24:45Z</time>
      </trkpt>
      <trkpt lat="45.32241" lon="4.26563">
        <ele>799</ele>
        <time>2021-04-26T10:24:46Z</time>
      </trkpt>
      <trkpt lat="45.32239" lon="4.26557">
        <ele>799</ele>
        <time>2021-04-26T10:24:47Z</time>
      </trkpt>
      <trkpt lat="45.32238" lon="4.26552">
        <ele>799</ele>
        <time>2021-04-26T10:24:48Z</time>
      </trkpt>
      <trkpt lat="45.32238" lon="4.26549">
        <ele>799</ele>
        <time>2021-04-26T10:24:49Z</time>
      </trkpt>
      <trkpt lat="45.32238" lon="4.26545">
        <ele>800</ele>
        <time>2021-04-26T10:24:50Z</time>
      </trkpt>
      <trkpt lat="45.32238" lon="4.26542">
        <ele>800</ele>
        <time>2021-04-26T10:24:51Z</time>
      </trkpt>
      <trkpt lat="45.32238" lon="4.26538">
        <ele>800</ele>
        <time>2021-04-26T10:24:53Z</time>
      </trkpt>
      <trkpt lat="45.32238" lon="4.26536">
        <ele>799</ele>
        <time>2021-04-26T10:24:56Z</time>
      </trkpt>
      <trkpt lat="45.32238" lon="4.26536">
        <ele>799</ele>
        <time>2021-04-26T10:25:01Z</time>
      </trkpt>
      <trkpt lat="45.32235" lon="4.26534">
        <ele>800</ele>
        <time>2021-04-26T10:25:25Z</time>
      </trkpt>
      <trkpt lat="45.32233" lon="4.26533">
        <ele>800</ele>
        <time>2021-04-26T10:25:26Z</time>
      </trkpt>
      <trkpt lat="45.3223" lon="4.26531">
        <ele>800</ele>
        <time>2021-04-26T10:25:27Z</time>
      </trkpt>
      <trkpt lat="45.32227" lon="4.2653">
        <ele>800</ele>
        <time>2021-04-26T10:25:28Z</time>
      </trkpt>
      <trkpt lat="45.32223" lon="4.26529">
        <ele>800</ele>
        <time>2021-04-26T10:25:29Z</time>
      </trkpt>
      <trkpt lat="45.32219" lon="4.26529">
        <ele>800</ele>
        <time>2021-04-26T10:25:30Z</time>
      </trkpt>
      <trkpt lat="45.32215" lon="4.26528">
        <ele>800</ele>
        <time>2021-04-26T10:25:31Z</time>
      </trkpt>
      <trkpt lat="45.3221" lon="4.26527">
        <ele>799</ele>
        <time>2021-04-26T10:25:32Z</time>
      </trkpt>
      <trkpt lat="45.32206" lon="4.26526">
        <ele>799</ele>
        <time>2021-04-26T10:25:33Z</time>
      </trkpt>
      <trkpt lat="45.32201" lon="4.26525">
        <ele>799</ele>
        <time>2021-04-26T10:25:34Z</time>
      </trkpt>
      <trkpt lat="45.32196" lon="4.26524">
        <ele>799</ele>
        <time>2021-04-26T10:25:35Z</time>
      </trkpt>
      <trkpt lat="45.32192" lon="4.26523">
        <ele>799</ele>
        <time>2021-04-26T10:25:36Z</time>
      </trkpt>
      <trkpt lat="45.32187" lon="4.26522">
        <ele>799</ele>
        <time>2021-04-26T10:25:37Z</time>
      </trkpt>
      <trkpt lat="45.32182" lon="4.26521">
        <ele>799</ele>
        <time>2021-04-26T10:25:38Z</time>
      </trkpt>
      <trkpt lat="45.32177" lon="4.2652">
        <ele>799</ele>
        <time>2021-04-26T10:25:39Z</time>
      </trkpt>
      <trkpt lat="45.32172" lon="4.26519">
        <ele>799</ele>
        <time>2021-04-26T10:25:40Z</time>
      </trkpt>
      <trkpt lat="45.32168" lon="4.26519">
        <ele>799</ele>
        <time>2021-04-26T10:25:41Z</time>
      </trkpt>
      <trkpt lat="45.32164" lon="4.26518">
        <ele>799</ele>
        <time>2021-04-26T10:25:42Z</time>
      </trkpt>
      <trkpt lat="45.32159" lon="4.26517">
        <ele>800</ele>
        <time>2021-04-26T10:25:43Z</time>
      </trkpt>
      <trkpt lat="45.32154" lon="4.26516">
        <ele>799</ele>
        <time>2021-04-26T10:25:44Z</time>
      </trkpt>
      <trkpt lat="45.3215" lon="4.26515">
        <ele>799</ele>
        <time>2021-04-26T10:25:45Z</time>
      </trkpt>
      <trkpt lat="45.32145" lon="4.26514">
        <ele>799</ele>
        <time>2021-04-26T10:25:46Z</time>
      </trkpt>
      <trkpt lat="45.3214" lon="4.26513">
        <ele>799</ele>
        <time>2021-04-26T10:25:47Z</time>
      </trkpt>
      <trkpt lat="45.32134" lon="4.26513">
        <ele>799</ele>
        <time>2021-04-26T10:25:48Z</time>
      </trkpt>
      <trkpt lat="45.32129" lon="4.26514">
        <ele>799</ele>
        <time>2021-04-26T10:25:49Z</time>
      </trkpt>
      <trkpt lat="45.32124" lon="4.26515">
        <ele>799</ele>
        <time>2021-04-26T10:25:50Z</time>
      </trkpt>
      <trkpt lat="45.32118" lon="4.26516">
        <ele>799</ele>
        <time>2021-04-26T10:25:51Z</time>
      </trkpt>
      <trkpt lat="45.32113" lon="4.26517">
        <ele>799</ele>
        <time>2021-04-26T10:25:52Z</time>
      </trkpt>
      <trkpt lat="45.32107" lon="4.26518">
        <ele>799</ele>
        <time>2021-04-26T10:25:53Z</time>
      </trkpt>
      <trkpt lat="45.32102" lon="4.26519">
        <ele>799</ele>
        <time>2021-04-26T10:25:54Z</time>
      </trkpt>
      <trkpt lat="45.32097" lon="4.2652">
        <ele>799</ele>
        <time>2021-04-26T10:25:55Z</time>
      </trkpt>
      <trkpt lat="45.32092" lon="4.26521">
        <ele>798</ele>
        <time>2021-04-26T10:25:56Z</time>
      </trkpt>
      <trkpt lat="45.32087" lon="4.26522">
        <ele>798</ele>
        <time>2021-04-26T10:25:57Z</time>
      </trkpt>
      <trkpt lat="45.32081" lon="4.26524">
        <ele>798</ele>
        <time>2021-04-26T10:25:58Z</time>
      </trkpt>
      <trkpt lat="45.32076" lon="4.26525">
        <ele>798</ele>
        <time>2021-04-26T10:25:59Z</time>
      </trkpt>
      <trkpt lat="45.32072" lon="4.26527">
        <ele>798</ele>
        <time>2021-04-26T10:26:00Z</time>
      </trkpt>
      <trkpt lat="45.32067" lon="4.26528">
        <ele>798</ele>
        <time>2021-04-26T10:26:01Z</time>
      </trkpt>
      <trkpt lat="45.32063" lon="4.2653">
        <ele>798</ele>
        <time>2021-04-26T10:26:02Z</time>
      </trkpt>
      <trkpt lat="45.32058" lon="4.26532">
        <ele>798</ele>
        <time>2021-04-26T10:26:03Z</time>
      </trkpt>
      <trkpt lat="45.32053" lon="4.26535">
        <ele>798</ele>
        <time>2021-04-26T10:26:04Z</time>
      </trkpt>
      <trkpt lat="45.32048" lon="4.26537">
        <ele>798</ele>
        <time>2021-04-26T10:26:05Z</time>
      </trkpt>
      <trkpt lat="45.32043" lon="4.26539">
        <ele>798</ele>
        <time>2021-04-26T10:26:06Z</time>
      </trkpt>
      <trkpt lat="45.32038" lon="4.26541">
        <ele>798</ele>
        <time>2021-04-26T10:26:07Z</time>
      </trkpt>
      <trkpt lat="45.32034" lon="4.26544">
        <ele>798</ele>
        <time>2021-04-26T10:26:08Z</time>
      </trkpt>
      <trkpt lat="45.3203" lon="4.26547">
        <ele>798</ele>
        <time>2021-04-26T10:26:09Z</time>
      </trkpt>
      <trkpt lat="45.32025" lon="4.2655">
        <ele>798</ele>
        <time>2021-04-26T10:26:10Z</time>
      </trkpt>
      <trkpt lat="45.32021" lon="4.26553">
        <ele>798</ele>
        <time>2021-04-26T10:26:11Z</time>
      </trkpt>
      <trkpt lat="45.32016" lon="4.26555">
        <ele>798</ele>
        <time>2021-04-26T10:26:12Z</time>
      </trkpt>
      <trkpt lat="45.32012" lon="4.26558">
        <ele>798</ele>
        <time>2021-04-26T10:26:13Z</time>
      </trkpt>
      <trkpt lat="45.32008" lon="4.26561">
        <ele>798</ele>
        <time>2021-04-26T10:26:14Z</time>
      </trkpt>
      <trkpt lat="45.32003" lon="4.26563">
        <ele>798</ele>
        <time>2021-04-26T10:26:15Z</time>
      </trkpt>
      <trkpt lat="45.31999" lon="4.26566">
        <ele>798</ele>
        <time>2021-04-26T10:26:16Z</time>
      </trkpt>
      <trkpt lat="45.31995" lon="4.26568">
        <ele>798</ele>
        <time>2021-04-26T10:26:17Z</time>
      </trkpt>
      <trkpt lat="45.3199" lon="4.26571">
        <ele>798</ele>
        <time>2021-04-26T10:26:18Z</time>
      </trkpt>
      <trkpt lat="45.31986" lon="4.26574">
        <ele>798</ele>
        <time>2021-04-26T10:26:19Z</time>
      </trkpt>
      <trkpt lat="45.31982" lon="4.26577">
        <ele>799</ele>
        <time>2021-04-26T10:26:20Z</time>
      </trkpt>
      <trkpt lat="45.31978" lon="4.2658">
        <ele>799</ele>
        <time>2021-04-26T10:26:21Z</time>
      </trkpt>
      <trkpt lat="45.31974" lon="4.26582">
        <ele>799</ele>
        <time>2021-04-26T10:26:22Z</time>
      </trkpt>
      <trkpt lat="45.31969" lon="4.26585">
        <ele>799</ele>
        <time>2021-04-26T10:26:23Z</time>
      </trkpt>
      <trkpt lat="45.31965" lon="4.26587">
        <ele>799</ele>
        <time>2021-04-26T10:26:24Z</time>
      </trkpt>
      <trkpt lat="45.31961" lon="4.26589">
        <ele>799</ele>
        <time>2021-04-26T10:26:25Z</time>
      </trkpt>
      <trkpt lat="45.31957" lon="4.26591">
        <ele>799</ele>
        <time>2021-04-26T10:26:26Z</time>
      </trkpt>
      <trkpt lat="45.31953" lon="4.26594">
        <ele>799</ele>
        <time>2021-04-26T10:26:27Z</time>
      </trkpt>
      <trkpt lat="45.31949" lon="4.26597">
        <ele>799</ele>
        <time>2021-04-26T10:26:28Z</time>
      </trkpt>
      <trkpt lat="45.31945" lon="4.266">
        <ele>799</ele>
        <time>2021-04-26T10:26:29Z</time>
      </trkpt>
      <trkpt lat="45.31942" lon="4.26604">
        <ele>799</ele>
        <time>2021-04-26T10:26:30Z</time>
      </trkpt>
      <trkpt lat="45.31938" lon="4.26608">
        <ele>799</ele>
        <time>2021-04-26T10:26:31Z</time>
      </trkpt>
      <trkpt lat="45.31935" lon="4.26612">
        <ele>799</ele>
        <time>2021-04-26T10:26:32Z</time>
      </trkpt>
      <trkpt lat="45.31931" lon="4.26616">
        <ele>799</ele>
        <time>2021-04-26T10:26:33Z</time>
      </trkpt>
      <trkpt lat="45.31928" lon="4.2662">
        <ele>799</ele>
        <time>2021-04-26T10:26:34Z</time>
      </trkpt>
      <trkpt lat="45.31925" lon="4.26624">
        <ele>799</ele>
        <time>2021-04-26T10:26:35Z</time>
      </trkpt>
      <trkpt lat="45.31922" lon="4.26628">
        <ele>799</ele>
        <time>2021-04-26T10:26:36Z</time>
      </trkpt>
      <trkpt lat="45.31918" lon="4.26633">
        <ele>799</ele>
        <time>2021-04-26T10:26:37Z</time>
      </trkpt>
      <trkpt lat="45.31914" lon="4.26637">
        <ele>799</ele>
        <time>2021-04-26T10:26:38Z</time>
      </trkpt>
      <trkpt lat="45.3191" lon="4.26642">
        <ele>799</ele>
        <time>2021-04-26T10:26:39Z</time>
      </trkpt>
      <trkpt lat="45.31906" lon="4.26646">
        <ele>799</ele>
        <time>2021-04-26T10:26:40Z</time>
      </trkpt>
      <trkpt lat="45.31902" lon="4.2665">
        <ele>799</ele>
        <time>2021-04-26T10:26:41Z</time>
      </trkpt>
      <trkpt lat="45.31898" lon="4.26653">
        <ele>799</ele>
        <time>2021-04-26T10:26:42Z</time>
      </trkpt>
      <trkpt lat="45.31894" lon="4.26657">
        <ele>799</ele>
        <time>2021-04-26T10:26:43Z</time>
      </trkpt>
      <trkpt lat="45.3189" lon="4.26661">
        <ele>799</ele>
        <time>2021-04-26T10:26:44Z</time>
      </trkpt>
      <trkpt lat="45.31886" lon="4.26664">
        <ele>799</ele>
        <time>2021-04-26T10:26:45Z</time>
      </trkpt>
      <trkpt lat="45.31883" lon="4.26667">
        <ele>799</ele>
        <time>2021-04-26T10:26:46Z</time>
      </trkpt>
      <trkpt lat="45.31879" lon="4.26669">
        <ele>799</ele>
        <time>2021-04-26T10:26:47Z</time>
      </trkpt>
      <trkpt lat="45.31875" lon="4.26671">
        <ele>799</ele>
        <time>2021-04-26T10:26:48Z</time>
      </trkpt>
      <trkpt lat="45.31871" lon="4.26672">
        <ele>799</ele>
        <time>2021-04-26T10:26:49Z</time>
      </trkpt>
      <trkpt lat="45.31868" lon="4.26673">
        <ele>799</ele>
        <time>2021-04-26T10:26:50Z</time>
      </trkpt>
      <trkpt lat="45.31864" lon="4.26673">
        <ele>798</ele>
        <time>2021-04-26T10:26:51Z</time>
      </trkpt>
      <trkpt lat="45.31861" lon="4.26673">
        <ele>798</ele>
        <time>2021-04-26T10:26:52Z</time>
      </trkpt>
      <trkpt lat="45.31859" lon="4.26672">
        <ele>798</ele>
        <time>2021-04-26T10:26:53Z</time>
      </trkpt>
      <trkpt lat="45.31857" lon="4.26671">
        <ele>798</ele>
        <time>2021-04-26T10:26:54Z</time>
      </trkpt>
      <trkpt lat="45.31856" lon="4.26669">
        <ele>798</ele>
        <time>2021-04-26T10:26:55Z</time>
      </trkpt>
      <trkpt lat="45.31855" lon="4.26666">
        <ele>798</ele>
        <time>2021-04-26T10:26:56Z</time>
      </trkpt>
      <trkpt lat="45.31854" lon="4.26663">
        <ele>798</ele>
        <time>2021-04-26T10:26:57Z</time>
      </trkpt>
      <trkpt lat="45.31854" lon="4.26659">
        <ele>798</ele>
        <time>2021-04-26T10:26:58Z</time>
      </trkpt>
      <trkpt lat="45.31854" lon="4.26656">
        <ele>798</ele>
        <time>2021-04-26T10:26:59Z</time>
      </trkpt>
      <trkpt lat="45.31853" lon="4.26653">
        <ele>798</ele>
        <time>2021-04-26T10:27:00Z</time>
      </trkpt>
      <trkpt lat="45.31853" lon="4.26649">
        <ele>798</ele>
        <time>2021-04-26T10:27:01Z</time>
      </trkpt>
      <trkpt lat="45.31853" lon="4.26644">
        <ele>798</ele>
        <time>2021-04-26T10:27:02Z</time>
      </trkpt>
      <trkpt lat="45.31852" lon="4.26639">
        <ele>798</ele>
        <time>2021-04-26T10:27:03Z</time>
      </trkpt>
      <trkpt lat="45.31851" lon="4.26634">
        <ele>798</ele>
        <time>2021-04-26T10:27:04Z</time>
      </trkpt>
      <trkpt lat="45.31849" lon="4.2663">
        <ele>799</ele>
        <time>2021-04-26T10:27:05Z</time>
      </trkpt>
      <trkpt lat="45.31848" lon="4.26627">
        <ele>799</ele>
        <time>2021-04-26T10:27:06Z</time>
      </trkpt>
      <trkpt lat="45.31847" lon="4.26624">
        <ele>799</ele>
        <time>2021-04-26T10:27:07Z</time>
      </trkpt>
      <trkpt lat="45.31845" lon="4.26622">
        <ele>799</ele>
        <time>2021-04-26T10:27:08Z</time>
      </trkpt>
      <trkpt lat="45.31844" lon="4.2662">
        <ele>799</ele>
        <time>2021-04-26T10:27:09Z</time>
      </trkpt>
      <trkpt lat="45.31842" lon="4.26617">
        <ele>800</ele>
        <time>2021-04-26T10:27:10Z</time>
      </trkpt>
      <trkpt lat="45.3184" lon="4.26615">
        <ele>800</ele>
        <time>2021-04-26T10:27:11Z</time>
      </trkpt>
      <trkpt lat="45.31838" lon="4.26612">
        <ele>800</ele>
        <time>2021-04-26T10:27:12Z</time>
      </trkpt>
      <trkpt lat="45.31835" lon="4.26609">
        <ele>800</ele>
        <time>2021-04-26T10:27:13Z</time>
      </trkpt>
      <trkpt lat="45.31832" lon="4.26604">
        <ele>800</ele>
        <time>2021-04-26T10:27:14Z</time>
      </trkpt>
      <trkpt lat="45.3183" lon="4.26601">
        <ele>800</ele>
        <time>2021-04-26T10:27:15Z</time>
      </trkpt>
      <trkpt lat="45.31827" lon="4.26598">
        <ele>800</ele>
        <time>2021-04-26T10:27:16Z</time>
      </trkpt>
      <trkpt lat="45.31824" lon="4.26595">
        <ele>800</ele>
        <time>2021-04-26T10:27:17Z</time>
      </trkpt>
      <trkpt lat="45.31821" lon="4.26592">
        <ele>800</ele>
        <time>2021-04-26T10:27:18Z</time>
      </trkpt>
      <trkpt lat="45.31818" lon="4.26588">
        <ele>800</ele>
        <time>2021-04-26T10:27:19Z</time>
      </trkpt>
      <trkpt lat="45.31815" lon="4.26584">
        <ele>800</ele>
        <time>2021-04-26T10:27:20Z</time>
      </trkpt>
      <trkpt lat="45.31812" lon="4.2658">
        <ele>800</ele>
        <time>2021-04-26T10:27:21Z</time>
      </trkpt>
      <trkpt lat="45.3181" lon="4.26576">
        <ele>800</ele>
        <time>2021-04-26T10:27:22Z</time>
      </trkpt>
      <trkpt lat="45.31808" lon="4.26571">
        <ele>800</ele>
        <time>2021-04-26T10:27:23Z</time>
      </trkpt>
      <trkpt lat="45.31807" lon="4.26566">
        <ele>800</ele>
        <time>2021-04-26T10:27:24Z</time>
      </trkpt>
      <trkpt lat="45.31805" lon="4.26562">
        <ele>800</ele>
        <time>2021-04-26T10:27:25Z</time>
      </trkpt>
      <trkpt lat="45.31804" lon="4.26557">
        <ele>800</ele>
        <time>2021-04-26T10:27:26Z</time>
      </trkpt>
      <trkpt lat="45.31802" lon="4.26552">
        <ele>800</ele>
        <time>2021-04-26T10:27:27Z</time>
      </trkpt>
      <trkpt lat="45.318" lon="4.26547">
        <ele>799</ele>
        <time>2021-04-26T10:27:28Z</time>
      </trkpt>
      <trkpt lat="45.31799" lon="4.2654">
        <ele>799</ele>
        <time>2021-04-26T10:27:29Z</time>
      </trkpt>
      <trkpt lat="45.31797" lon="4.26533">
        <ele>799</ele>
        <time>2021-04-26T10:27:30Z</time>
      </trkpt>
      <trkpt lat="45.31795" lon="4.26526">
        <ele>799</ele>
        <time>2021-04-26T10:27:31Z</time>
      </trkpt>
      <trkpt lat="45.31793" lon="4.26519">
        <ele>799</ele>
        <time>2021-04-26T10:27:32Z</time>
      </trkpt>
      <trkpt lat="45.31791" lon="4.26511">
        <ele>799</ele>
        <time>2021-04-26T10:27:33Z</time>
      </trkpt>
      <trkpt lat="45.31789" lon="4.26503">
        <ele>798</ele>
        <time>2021-04-26T10:27:34Z</time>
      </trkpt>
      <trkpt lat="45.31786" lon="4.26495">
        <ele>798</ele>
        <time>2021-04-26T10:27:35Z</time>
      </trkpt>
      <trkpt lat="45.31783" lon="4.26487">
        <ele>798</ele>
        <time>2021-04-26T10:27:36Z</time>
      </trkpt>
      <trkpt lat="45.31779" lon="4.26479">
        <ele>797</ele>
        <time>2021-04-26T10:27:37Z</time>
      </trkpt>
      <trkpt lat="45.31775" lon="4.26471">
        <ele>797</ele>
        <time>2021-04-26T10:27:38Z</time>
      </trkpt>
      <trkpt lat="45.3177" lon="4.26462">
        <ele>797</ele>
        <time>2021-04-26T10:27:39Z</time>
      </trkpt>
      <trkpt lat="45.31767" lon="4.26453">
        <ele>796</ele>
        <time>2021-04-26T10:27:40Z</time>
      </trkpt>
      <trkpt lat="45.31765" lon="4.26443">
        <ele>795</ele>
        <time>2021-04-26T10:27:41Z</time>
      </trkpt>
      <trkpt lat="45.31767" lon="4.26434">
        <ele>794</ele>
        <time>2021-04-26T10:27:42Z</time>
      </trkpt>
      <trkpt lat="45.3177" lon="4.26424">
        <ele>794</ele>
        <time>2021-04-26T10:27:43Z</time>
      </trkpt>
      <trkpt lat="45.31773" lon="4.26414">
        <ele>793</ele>
        <time>2021-04-26T10:27:44Z</time>
      </trkpt>
      <trkpt lat="45.31775" lon="4.26404">
        <ele>792</ele>
        <time>2021-04-26T10:27:45Z</time>
      </trkpt>
      <trkpt lat="45.31776" lon="4.26393">
        <ele>792</ele>
        <time>2021-04-26T10:27:46Z</time>
      </trkpt>
      <trkpt lat="45.31776" lon="4.26384">
        <ele>791</ele>
        <time>2021-04-26T10:27:47Z</time>
      </trkpt>
      <trkpt lat="45.31776" lon="4.26374">
        <ele>791</ele>
        <time>2021-04-26T10:27:48Z</time>
      </trkpt>
      <trkpt lat="45.31777" lon="4.26365">
        <ele>790</ele>
        <time>2021-04-26T10:27:49Z</time>
      </trkpt>
      <trkpt lat="45.31777" lon="4.26356">
        <ele>790</ele>
        <time>2021-04-26T10:27:50Z</time>
      </trkpt>
      <trkpt lat="45.31778" lon="4.26347">
        <ele>789</ele>
        <time>2021-04-26T10:27:51Z</time>
      </trkpt>
      <trkpt lat="45.3178" lon="4.26339">
        <ele>789</ele>
        <time>2021-04-26T10:27:52Z</time>
      </trkpt>
      <trkpt lat="45.31781" lon="4.26331">
        <ele>789</ele>
        <time>2021-04-26T10:27:53Z</time>
      </trkpt>
      <trkpt lat="45.31782" lon="4.26322">
        <ele>788</ele>
        <time>2021-04-26T10:27:54Z</time>
      </trkpt>
      <trkpt lat="45.31783" lon="4.26314">
        <ele>788</ele>
        <time>2021-04-26T10:27:55Z</time>
      </trkpt>
      <trkpt lat="45.31785" lon="4.26305">
        <ele>788</ele>
        <time>2021-04-26T10:27:56Z</time>
      </trkpt>
      <trkpt lat="45.31786" lon="4.26297">
        <ele>788</ele>
        <time>2021-04-26T10:27:57Z</time>
      </trkpt>
      <trkpt lat="45.31787" lon="4.26289">
        <ele>788</ele>
        <time>2021-04-26T10:27:58Z</time>
      </trkpt>
      <trkpt lat="45.31789" lon="4.26273">
        <ele>788</ele>
        <time>2021-04-26T10:27:59Z</time>
      </trkpt>
      <trkpt lat="45.3179" lon="4.26264">
        <ele>788</ele>
        <time>2021-04-26T10:28:01Z</time>
      </trkpt>
      <trkpt lat="45.31791" lon="4.26256">
        <ele>787</ele>
        <time>2021-04-26T10:28:02Z</time>
      </trkpt>
      <trkpt lat="45.31791" lon="4.26248">
        <ele>787</ele>
        <time>2021-04-26T10:28:03Z</time>
      </trkpt>
      <trkpt lat="45.31791" lon="4.26239">
        <ele>787</ele>
        <time>2021-04-26T10:28:04Z</time>
      </trkpt>
      <trkpt lat="45.31791" lon="4.26231">
        <ele>787</ele>
        <time>2021-04-26T10:28:05Z</time>
      </trkpt>
      <trkpt lat="45.3179" lon="4.26222">
        <ele>787</ele>
        <time>2021-04-26T10:28:06Z</time>
      </trkpt>
      <trkpt lat="45.31789" lon="4.26213">
        <ele>787</ele>
        <time>2021-04-26T10:28:07Z</time>
      </trkpt>
      <trkpt lat="45.31788" lon="4.26205">
        <ele>786</ele>
        <time>2021-04-26T10:28:08Z</time>
      </trkpt>
      <trkpt lat="45.31787" lon="4.26197">
        <ele>786</ele>
        <time>2021-04-26T10:28:09Z</time>
      </trkpt>
      <trkpt lat="45.31787" lon="4.2619">
        <ele>786</ele>
        <time>2021-04-26T10:28:10Z</time>
      </trkpt>
      <trkpt lat="45.31787" lon="4.26184">
        <ele>786</ele>
        <time>2021-04-26T10:28:11Z</time>
      </trkpt>
      <trkpt lat="45.31787" lon="4.26176">
        <ele>786</ele>
        <time>2021-04-26T10:28:12Z</time>
      </trkpt>
      <trkpt lat="45.31787" lon="4.26169">
        <ele>786</ele>
        <time>2021-04-26T10:28:13Z</time>
      </trkpt>
      <trkpt lat="45.31786" lon="4.26161">
        <ele>786</ele>
        <time>2021-04-26T10:28:14Z</time>
      </trkpt>
      <trkpt lat="45.31784" lon="4.26146">
        <ele>786</ele>
        <time>2021-04-26T10:28:16Z</time>
      </trkpt>
      <trkpt lat="45.31782" lon="4.26129">
        <ele>786</ele>
        <time>2021-04-26T10:28:18Z</time>
      </trkpt>
      <trkpt lat="45.31779" lon="4.26112">
        <ele>786</ele>
        <time>2021-04-26T10:28:20Z</time>
      </trkpt>
      <trkpt lat="45.31778" lon="4.26092">
        <ele>786</ele>
        <time>2021-04-26T10:28:22Z</time>
      </trkpt>
      <trkpt lat="45.31776" lon="4.26083">
        <ele>786</ele>
        <time>2021-04-26T10:28:23Z</time>
      </trkpt>
      <trkpt lat="45.31774" lon="4.26078">
        <ele>786</ele>
        <time>2021-04-26T10:28:24Z</time>
      </trkpt>
      <trkpt lat="45.31772" lon="4.26076">
        <ele>786</ele>
        <time>2021-04-26T10:28:25Z</time>
      </trkpt>
      <trkpt lat="45.3177" lon="4.26077">
        <ele>786</ele>
        <time>2021-04-26T10:28:26Z</time>
      </trkpt>
      <trkpt lat="45.31768" lon="4.2608">
        <ele>786</ele>
        <time>2021-04-26T10:28:28Z</time>
      </trkpt>
      <trkpt lat="45.31768" lon="4.26083">
        <ele>786</ele>
        <time>2021-04-26T10:28:29Z</time>
      </trkpt>
      <trkpt lat="45.31767" lon="4.26085">
        <ele>787</ele>
        <time>2021-04-26T10:28:30Z</time>
      </trkpt>
      <trkpt lat="45.31767" lon="4.26088">
        <ele>787</ele>
        <time>2021-04-26T10:28:31Z</time>
      </trkpt>
      <trkpt lat="45.31767" lon="4.26092">
        <ele>787</ele>
        <time>2021-04-26T10:28:33Z</time>
      </trkpt>
      <trkpt lat="45.31766" lon="4.26095">
        <ele>787</ele>
        <time>2021-04-26T10:28:35Z</time>
      </trkpt>
      <trkpt lat="45.31764" lon="4.26099">
        <ele>787</ele>
        <time>2021-04-26T10:28:37Z</time>
      </trkpt>
      <trkpt lat="45.31763" lon="4.26102">
        <ele>787</ele>
        <time>2021-04-26T10:28:38Z</time>
      </trkpt>
      <trkpt lat="45.31762" lon="4.26106">
        <ele>787</ele>
        <time>2021-04-26T10:28:39Z</time>
      </trkpt>
      <trkpt lat="45.31761" lon="4.2611">
        <ele>787</ele>
        <time>2021-04-26T10:28:40Z</time>
      </trkpt>
      <trkpt lat="45.31761" lon="4.26115">
        <ele>787</ele>
        <time>2021-04-26T10:28:41Z</time>
      </trkpt>
      <trkpt lat="45.3176" lon="4.26119">
        <ele>787</ele>
        <time>2021-04-26T10:28:42Z</time>
      </trkpt>
      <trkpt lat="45.31759" lon="4.26123">
        <ele>787</ele>
        <time>2021-04-26T10:28:43Z</time>
      </trkpt>
      <trkpt lat="45.31758" lon="4.26127">
        <ele>788</ele>
        <time>2021-04-26T10:28:44Z</time>
      </trkpt>
      <trkpt lat="45.31757" lon="4.26131">
        <ele>788</ele>
        <time>2021-04-26T10:28:45Z</time>
      </trkpt>
      <trkpt lat="45.31756" lon="4.26134">
        <ele>788</ele>
        <time>2021-04-26T10:28:46Z</time>
      </trkpt>
      <trkpt lat="45.31755" lon="4.26138">
        <ele>788</ele>
        <time>2021-04-26T10:28:47Z</time>
      </trkpt>
      <trkpt lat="45.31754" lon="4.26142">
        <ele>788</ele>
        <time>2021-04-26T10:28:48Z</time>
      </trkpt>
      <trkpt lat="45.31752" lon="4.2615">
        <ele>788</ele>
        <time>2021-04-26T10:28:49Z</time>
      </trkpt>
      <trkpt lat="45.31751" lon="4.26154">
        <ele>788</ele>
        <time>2021-04-26T10:28:51Z</time>
      </trkpt>
      <trkpt lat="45.3175" lon="4.26158">
        <ele>788</ele>
        <time>2021-04-26T10:28:52Z</time>
      </trkpt>
      <trkpt lat="45.31748" lon="4.26163">
        <ele>788</ele>
        <time>2021-04-26T10:28:53Z</time>
      </trkpt>
      <trkpt lat="45.31747" lon="4.26167">
        <ele>788</ele>
        <time>2021-04-26T10:28:54Z</time>
      </trkpt>
      <trkpt lat="45.31745" lon="4.26172">
        <ele>788</ele>
        <time>2021-04-26T10:28:55Z</time>
      </trkpt>
      <trkpt lat="45.31744" lon="4.26176">
        <ele>788</ele>
        <time>2021-04-26T10:28:56Z</time>
      </trkpt>
      <trkpt lat="45.31743" lon="4.26181">
        <ele>789</ele>
        <time>2021-04-26T10:28:57Z</time>
      </trkpt>
      <trkpt lat="45.31742" lon="4.26185">
        <ele>789</ele>
        <time>2021-04-26T10:28:58Z</time>
      </trkpt>
      <trkpt lat="45.31741" lon="4.26189">
        <ele>789</ele>
        <time>2021-04-26T10:28:59Z</time>
      </trkpt>
      <trkpt lat="45.31739" lon="4.26193">
        <ele>789</ele>
        <time>2021-04-26T10:29:00Z</time>
      </trkpt>
      <trkpt lat="45.31738" lon="4.26196">
        <ele>789</ele>
        <time>2021-04-26T10:29:01Z</time>
      </trkpt>
      <trkpt lat="45.31736" lon="4.262">
        <ele>789</ele>
        <time>2021-04-26T10:29:02Z</time>
      </trkpt>
      <trkpt lat="45.31735" lon="4.26204">
        <ele>790</ele>
        <time>2021-04-26T10:29:03Z</time>
      </trkpt>
      <trkpt lat="45.31733" lon="4.26208">
        <ele>790</ele>
        <time>2021-04-26T10:29:04Z</time>
      </trkpt>
      <trkpt lat="45.31732" lon="4.26212">
        <ele>790</ele>
        <time>2021-04-26T10:29:05Z</time>
      </trkpt>
      <trkpt lat="45.3173" lon="4.26216">
        <ele>791</ele>
        <time>2021-04-26T10:29:06Z</time>
      </trkpt>
      <trkpt lat="45.31729" lon="4.2622">
        <ele>791</ele>
        <time>2021-04-26T10:29:07Z</time>
      </trkpt>
      <trkpt lat="45.31728" lon="4.26224">
        <ele>791</ele>
        <time>2021-04-26T10:29:08Z</time>
      </trkpt>
      <trkpt lat="45.31726" lon="4.26228">
        <ele>791</ele>
        <time>2021-04-26T10:29:09Z</time>
      </trkpt>
      <trkpt lat="45.31725" lon="4.26232">
        <ele>791</ele>
        <time>2021-04-26T10:29:10Z</time>
      </trkpt>
      <trkpt lat="45.31723" lon="4.26236">
        <ele>791</ele>
        <time>2021-04-26T10:29:11Z</time>
      </trkpt>
      <trkpt lat="45.31722" lon="4.2624">
        <ele>792</ele>
        <time>2021-04-26T10:29:12Z</time>
      </trkpt>
      <trkpt lat="45.31721" lon="4.26244">
        <ele>792</ele>
        <time>2021-04-26T10:29:13Z</time>
      </trkpt>
      <trkpt lat="45.3172" lon="4.26248">
        <ele>792</ele>
        <time>2021-04-26T10:29:14Z</time>
      </trkpt>
      <trkpt lat="45.31719" lon="4.26252">
        <ele>792</ele>
        <time>2021-04-26T10:29:15Z</time>
      </trkpt>
      <trkpt lat="45.31718" lon="4.26256">
        <ele>793</ele>
        <time>2021-04-26T10:29:16Z</time>
      </trkpt>
      <trkpt lat="45.31716" lon="4.26261">
        <ele>793</ele>
        <time>2021-04-26T10:29:17Z</time>
      </trkpt>
      <trkpt lat="45.31715" lon="4.26265">
        <ele>793</ele>
        <time>2021-04-26T10:29:18Z</time>
      </trkpt>
      <trkpt lat="45.31714" lon="4.26269">
        <ele>793</ele>
        <time>2021-04-26T10:29:19Z</time>
      </trkpt>
      <trkpt lat="45.31713" lon="4.26273">
        <ele>793</ele>
        <time>2021-04-26T10:29:20Z</time>
      </trkpt>
      <trkpt lat="45.31711" lon="4.26277">
        <ele>794</ele>
        <time>2021-04-26T10:29:21Z</time>
      </trkpt>
      <trkpt lat="45.3171" lon="4.26281">
        <ele>794</ele>
        <time>2021-04-26T10:29:22Z</time>
      </trkpt>
      <trkpt lat="45.31709" lon="4.26285">
        <ele>794</ele>
        <time>2021-04-26T10:29:23Z</time>
      </trkpt>
      <trkpt lat="45.31708" lon="4.26289">
        <ele>795</ele>
        <time>2021-04-26T10:29:24Z</time>
      </trkpt>
      <trkpt lat="45.31706" lon="4.26293">
        <ele>795</ele>
        <time>2021-04-26T10:29:25Z</time>
      </trkpt>
      <trkpt lat="45.31705" lon="4.26298">
        <ele>795</ele>
        <time>2021-04-26T10:29:26Z</time>
      </trkpt>
      <trkpt lat="45.31703" lon="4.26302">
        <ele>795</ele>
        <time>2021-04-26T10:29:27Z</time>
      </trkpt>
      <trkpt lat="45.31702" lon="4.26307">
        <ele>795</ele>
        <time>2021-04-26T10:29:28Z</time>
      </trkpt>
      <trkpt lat="45.317" lon="4.26312">
        <ele>795</ele>
        <time>2021-04-26T10:29:29Z</time>
      </trkpt>
      <trkpt lat="45.31698" lon="4.26317">
        <ele>795</ele>
        <time>2021-04-26T10:29:30Z</time>
      </trkpt>
      <trkpt lat="45.31697" lon="4.26321">
        <ele>796</ele>
        <time>2021-04-26T10:29:31Z</time>
      </trkpt>
      <trkpt lat="45.31695" lon="4.26326">
        <ele>796</ele>
        <time>2021-04-26T10:29:32Z</time>
      </trkpt>
      <trkpt lat="45.31693" lon="4.26331">
        <ele>796</ele>
        <time>2021-04-26T10:29:33Z</time>
      </trkpt>
      <trkpt lat="45.31691" lon="4.26336">
        <ele>796</ele>
        <time>2021-04-26T10:29:34Z</time>
      </trkpt>
      <trkpt lat="45.31689" lon="4.26341">
        <ele>797</ele>
        <time>2021-04-26T10:29:35Z</time>
      </trkpt>
      <trkpt lat="45.31686" lon="4.26345">
        <ele>797</ele>
        <time>2021-04-26T10:29:36Z</time>
      </trkpt>
      <trkpt lat="45.31684" lon="4.2635">
        <ele>797</ele>
        <time>2021-04-26T10:29:37Z</time>
      </trkpt>
      <trkpt lat="45.31681" lon="4.26353">
        <ele>797</ele>
        <time>2021-04-26T10:29:38Z</time>
      </trkpt>
      <trkpt lat="45.31679" lon="4.26355">
        <ele>797</ele>
        <time>2021-04-26T10:29:39Z</time>
      </trkpt>
      <trkpt lat="45.31676" lon="4.26356">
        <ele>797</ele>
        <time>2021-04-26T10:29:40Z</time>
      </trkpt>
      <trkpt lat="45.31673" lon="4.26355">
        <ele>797</ele>
        <time>2021-04-26T10:29:41Z</time>
      </trkpt>
      <trkpt lat="45.31671" lon="4.26352">
        <ele>797</ele>
        <time>2021-04-26T10:29:42Z</time>
      </trkpt>
      <trkpt lat="45.31671" lon="4.26347">
        <ele>797</ele>
        <time>2021-04-26T10:29:43Z</time>
      </trkpt>
      <trkpt lat="45.31671" lon="4.26342">
        <ele>797</ele>
        <time>2021-04-26T10:29:44Z</time>
      </trkpt>
      <trkpt lat="45.31671" lon="4.26337">
        <ele>797</ele>
        <time>2021-04-26T10:29:45Z</time>
      </trkpt>
      <trkpt lat="45.31672" lon="4.26332">
        <ele>797</ele>
        <time>2021-04-26T10:29:46Z</time>
      </trkpt>
      <trkpt lat="45.31673" lon="4.26327">
        <ele>797</ele>
        <time>2021-04-26T10:29:47Z</time>
      </trkpt>
      <trkpt lat="45.31674" lon="4.26322">
        <ele>797</ele>
        <time>2021-04-26T10:29:48Z</time>
      </trkpt>
      <trkpt lat="45.31676" lon="4.26317">
        <ele>797</ele>
        <time>2021-04-26T10:29:49Z</time>
      </trkpt>
      <trkpt lat="45.31677" lon="4.26312">
        <ele>797</ele>
        <time>2021-04-26T10:29:50Z</time>
      </trkpt>
      <trkpt lat="45.31677" lon="4.26307">
        <ele>798</ele>
        <time>2021-04-26T10:29:51Z</time>
      </trkpt>
      <trkpt lat="45.31678" lon="4.26301">
        <ele>798</ele>
        <time>2021-04-26T10:29:52Z</time>
      </trkpt>
      <trkpt lat="45.31679" lon="4.26296">
        <ele>798</ele>
        <time>2021-04-26T10:29:53Z</time>
      </trkpt>
      <trkpt lat="45.31679" lon="4.26291">
        <ele>798</ele>
        <time>2021-04-26T10:29:54Z</time>
      </trkpt>
      <trkpt lat="45.3168" lon="4.26286">
        <ele>798</ele>
        <time>2021-04-26T10:29:55Z</time>
      </trkpt>
      <trkpt lat="45.31681" lon="4.26282">
        <ele>798</ele>
        <time>2021-04-26T10:29:56Z</time>
      </trkpt>
      <trkpt lat="45.31681" lon="4.26277">
        <ele>798</ele>
        <time>2021-04-26T10:29:57Z</time>
      </trkpt>
      <trkpt lat="45.31682" lon="4.26272">
        <ele>798</ele>
        <time>2021-04-26T10:29:58Z</time>
      </trkpt>
      <trkpt lat="45.31683" lon="4.26261">
        <ele>798</ele>
        <time>2021-04-26T10:29:59Z</time>
      </trkpt>
      <trkpt lat="45.31684" lon="4.26256">
        <ele>798</ele>
        <time>2021-04-26T10:30:01Z</time>
      </trkpt>
      <trkpt lat="45.31684" lon="4.2625">
        <ele>797</ele>
        <time>2021-04-26T10:30:02Z</time>
      </trkpt>
      <trkpt lat="45.31685" lon="4.26244">
        <ele>797</ele>
        <time>2021-04-26T10:30:03Z</time>
      </trkpt>
      <trkpt lat="45.31685" lon="4.26238">
        <ele>797</ele>
        <time>2021-04-26T10:30:04Z</time>
      </trkpt>
      <trkpt lat="45.31685" lon="4.26231">
        <ele>797</ele>
        <time>2021-04-26T10:30:05Z</time>
      </trkpt>
      <trkpt lat="45.31685" lon="4.26223">
        <ele>797</ele>
        <time>2021-04-26T10:30:06Z</time>
      </trkpt>
      <trkpt lat="45.31683" lon="4.26215">
        <ele>797</ele>
        <time>2021-04-26T10:30:07Z</time>
      </trkpt>
      <trkpt lat="45.31681" lon="4.26208">
        <ele>797</ele>
        <time>2021-04-26T10:30:08Z</time>
      </trkpt>
      <trkpt lat="45.31678" lon="4.26201">
        <ele>797</ele>
        <time>2021-04-26T10:30:09Z</time>
      </trkpt>
      <trkpt lat="45.31675" lon="4.26195">
        <ele>797</ele>
        <time>2021-04-26T10:30:10Z</time>
      </trkpt>
      <trkpt lat="45.31672" lon="4.26187">
        <ele>797</ele>
        <time>2021-04-26T10:30:11Z</time>
      </trkpt>
      <trkpt lat="45.31668" lon="4.2618">
        <ele>796</ele>
        <time>2021-04-26T10:30:12Z</time>
      </trkpt>
      <trkpt lat="45.31664" lon="4.26173">
        <ele>796</ele>
        <time>2021-04-26T10:30:13Z</time>
      </trkpt>
      <trkpt lat="45.31659" lon="4.26167">
        <ele>796</ele>
        <time>2021-04-26T10:30:14Z</time>
      </trkpt>
      <trkpt lat="45.31656" lon="4.26161">
        <ele>796</ele>
        <time>2021-04-26T10:30:15Z</time>
      </trkpt>
      <trkpt lat="45.31653" lon="4.26155">
        <ele>796</ele>
        <time>2021-04-26T10:30:16Z</time>
      </trkpt>
      <trkpt lat="45.3165" lon="4.2615">
        <ele>796</ele>
        <time>2021-04-26T10:30:17Z</time>
      </trkpt>
      <trkpt lat="45.31646" lon="4.26145">
        <ele>796</ele>
        <time>2021-04-26T10:30:18Z</time>
      </trkpt>
      <trkpt lat="45.31641" lon="4.26141">
        <ele>796</ele>
        <time>2021-04-26T10:30:19Z</time>
      </trkpt>
      <trkpt lat="45.31636" lon="4.26137">
        <ele>796</ele>
        <time>2021-04-26T10:30:20Z</time>
      </trkpt>
      <trkpt lat="45.3163" lon="4.26133">
        <ele>795</ele>
        <time>2021-04-26T10:30:21Z</time>
      </trkpt>
      <trkpt lat="45.31623" lon="4.26129">
        <ele>795</ele>
        <time>2021-04-26T10:30:22Z</time>
      </trkpt>
      <trkpt lat="45.31615" lon="4.26124">
        <ele>795</ele>
        <time>2021-04-26T10:30:23Z</time>
      </trkpt>
      <trkpt lat="45.31608" lon="4.26119">
        <ele>795</ele>
        <time>2021-04-26T10:30:24Z</time>
      </trkpt>
      <trkpt lat="45.316" lon="4.26113">
        <ele>794</ele>
        <time>2021-04-26T10:30:25Z</time>
      </trkpt>
      <trkpt lat="45.31593" lon="4.26103">
        <ele>794</ele>
        <time>2021-04-26T10:30:26Z</time>
      </trkpt>
      <trkpt lat="45.31585" lon="4.26092">
        <ele>793</ele>
        <time>2021-04-26T10:30:27Z</time>
      </trkpt>
      <trkpt lat="45.31579" lon="4.26081">
        <ele>793</ele>
        <time>2021-04-26T10:30:28Z</time>
      </trkpt>
      <trkpt lat="45.31572" lon="4.26069">
        <ele>792</ele>
        <time>2021-04-26T10:30:29Z</time>
      </trkpt>
      <trkpt lat="45.31564" lon="4.26057">
        <ele>792</ele>
        <time>2021-04-26T10:30:30Z</time>
      </trkpt>
      <trkpt lat="45.31555" lon="4.26047">
        <ele>791</ele>
        <time>2021-04-26T10:30:31Z</time>
      </trkpt>
      <trkpt lat="45.31547" lon="4.26037">
        <ele>789</ele>
        <time>2021-04-26T10:30:32Z</time>
      </trkpt>
      <trkpt lat="45.3154" lon="4.2603">
        <ele>788</ele>
        <time>2021-04-26T10:30:33Z</time>
      </trkpt>
      <trkpt lat="45.31533" lon="4.26023">
        <ele>786</ele>
        <time>2021-04-26T10:30:34Z</time>
      </trkpt>
      <trkpt lat="45.31526" lon="4.26016">
        <ele>786</ele>
        <time>2021-04-26T10:30:35Z</time>
      </trkpt>
      <trkpt lat="45.31521" lon="4.26009">
        <ele>786</ele>
        <time>2021-04-26T10:30:36Z</time>
      </trkpt>
      <trkpt lat="45.31515" lon="4.26001">
        <ele>784</ele>
        <time>2021-04-26T10:30:37Z</time>
      </trkpt>
      <trkpt lat="45.31506" lon="4.25981">
        <ele>782</ele>
        <time>2021-04-26T10:30:39Z</time>
      </trkpt>
      <trkpt lat="45.31493" lon="4.25963">
        <ele>778</ele>
        <time>2021-04-26T10:30:41Z</time>
      </trkpt>
      <trkpt lat="45.31489" lon="4.25951">
        <ele>778</ele>
        <time>2021-04-26T10:30:42Z</time>
      </trkpt>
      <trkpt lat="45.31486" lon="4.25941">
        <ele>774</ele>
        <time>2021-04-26T10:30:43Z</time>
      </trkpt>
      <trkpt lat="45.31485" lon="4.25929">
        <ele>771</ele>
        <time>2021-04-26T10:30:44Z</time>
      </trkpt>
      <trkpt lat="45.31483" lon="4.25916">
        <ele>769</ele>
        <time>2021-04-26T10:30:45Z</time>
      </trkpt>
      <trkpt lat="45.31481" lon="4.25903">
        <ele>769</ele>
        <time>2021-04-26T10:30:46Z</time>
      </trkpt>
      <trkpt lat="45.31477" lon="4.2589">
        <ele>767</ele>
        <time>2021-04-26T10:30:47Z</time>
      </trkpt>
      <trkpt lat="45.31473" lon="4.25878">
        <ele>761</ele>
        <time>2021-04-26T10:30:48Z</time>
      </trkpt>
      <trkpt lat="45.31467" lon="4.25862">
        <ele>760</ele>
        <time>2021-04-26T10:30:49Z</time>
      </trkpt>
      <trkpt lat="45.31466" lon="4.25855">
        <ele>759</ele>
        <time>2021-04-26T10:30:51Z</time>
      </trkpt>
      <trkpt lat="45.31464" lon="4.25847">
        <ele>758</ele>
        <time>2021-04-26T10:30:52Z</time>
      </trkpt>
      <trkpt lat="45.31462" lon="4.25839">
        <ele>758</ele>
        <time>2021-04-26T10:30:53Z</time>
      </trkpt>
      <trkpt lat="45.31461" lon="4.2583">
        <ele>758</ele>
        <time>2021-04-26T10:30:54Z</time>
      </trkpt>
      <trkpt lat="45.31461" lon="4.25822">
        <ele>758</ele>
        <time>2021-04-26T10:30:55Z</time>
      </trkpt>
      <trkpt lat="45.31461" lon="4.25814">
        <ele>757</ele>
        <time>2021-04-26T10:30:56Z</time>
      </trkpt>
      <trkpt lat="45.31459" lon="4.25804">
        <ele>756</ele>
        <time>2021-04-26T10:30:58Z</time>
      </trkpt>
      <trkpt lat="45.31458" lon="4.258">
        <ele>755</ele>
        <time>2021-04-26T10:30:59Z</time>
      </trkpt>
      <trkpt lat="45.31455" lon="4.25799">
        <ele>755</ele>
        <time>2021-04-26T10:31:00Z</time>
      </trkpt>
      <trkpt lat="45.31452" lon="4.25798">
        <ele>754</ele>
        <time>2021-04-26T10:31:01Z</time>
      </trkpt>
      <trkpt lat="45.31448" lon="4.25796">
        <ele>754</ele>
        <time>2021-04-26T10:31:02Z</time>
      </trkpt>
      <trkpt lat="45.31444" lon="4.25791">
        <ele>754</ele>
        <time>2021-04-26T10:31:03Z</time>
      </trkpt>
      <trkpt lat="45.3144" lon="4.25784">
        <ele>753</ele>
        <time>2021-04-26T10:31:04Z</time>
      </trkpt>
      <trkpt lat="45.31436" lon="4.25776">
        <ele>751</ele>
        <time>2021-04-26T10:31:05Z</time>
      </trkpt>
      <trkpt lat="45.31427" lon="4.25755">
        <ele>751</ele>
        <time>2021-04-26T10:31:07Z</time>
      </trkpt>
      <trkpt lat="45.31422" lon="4.25742">
        <ele>744</ele>
        <time>2021-04-26T10:31:08Z</time>
      </trkpt>
      <trkpt lat="45.31417" lon="4.25729">
        <ele>738</ele>
        <time>2021-04-26T10:31:09Z</time>
      </trkpt>
      <trkpt lat="45.31412" lon="4.25716">
        <ele>735</ele>
        <time>2021-04-26T10:31:10Z</time>
      </trkpt>
      <trkpt lat="45.31405" lon="4.25705">
        <ele>735</ele>
        <time>2021-04-26T10:31:11Z</time>
      </trkpt>
      <trkpt lat="45.31397" lon="4.25695">
        <ele>729</ele>
        <time>2021-04-26T10:31:12Z</time>
      </trkpt>
      <trkpt lat="45.31388" lon="4.25687">
        <ele>727</ele>
        <time>2021-04-26T10:31:13Z</time>
      </trkpt>
      <trkpt lat="45.31382" lon="4.2568">
        <ele>724</ele>
        <time>2021-04-26T10:31:14Z</time>
      </trkpt>
      <trkpt lat="45.31377" lon="4.25675">
        <ele>723</ele>
        <time>2021-04-26T10:31:15Z</time>
      </trkpt>
      <trkpt lat="45.31374" lon="4.2567">
        <ele>722</ele>
        <time>2021-04-26T10:31:16Z</time>
      </trkpt>
      <trkpt lat="45.31373" lon="4.25664">
        <ele>722</ele>
        <time>2021-04-26T10:31:17Z</time>
      </trkpt>
      <trkpt lat="45.31373" lon="4.25658">
        <ele>721</ele>
        <time>2021-04-26T10:31:18Z</time>
      </trkpt>
      <trkpt lat="45.31373" lon="4.25651">
        <ele>720</ele>
        <time>2021-04-26T10:31:19Z</time>
      </trkpt>
      <trkpt lat="45.31374" lon="4.25645">
        <ele>720</ele>
        <time>2021-04-26T10:31:20Z</time>
      </trkpt>
      <trkpt lat="45.31375" lon="4.25637">
        <ele>719</ele>
        <time>2021-04-26T10:31:21Z</time>
      </trkpt>
      <trkpt lat="45.31376" lon="4.2563">
        <ele>718</ele>
        <time>2021-04-26T10:31:22Z</time>
      </trkpt>
      <trkpt lat="45.31377" lon="4.25623">
        <ele>718</ele>
        <time>2021-04-26T10:31:23Z</time>
      </trkpt>
      <trkpt lat="45.31379" lon="4.25616">
        <ele>717</ele>
        <time>2021-04-26T10:31:24Z</time>
      </trkpt>
      <trkpt lat="45.31382" lon="4.2561">
        <ele>717</ele>
        <time>2021-04-26T10:31:25Z</time>
      </trkpt>
      <trkpt lat="45.31385" lon="4.25604">
        <ele>716</ele>
        <time>2021-04-26T10:31:26Z</time>
      </trkpt>
      <trkpt lat="45.3139" lon="4.256">
        <ele>716</ele>
        <time>2021-04-26T10:31:27Z</time>
      </trkpt>
      <trkpt lat="45.31394" lon="4.25596">
        <ele>715</ele>
        <time>2021-04-26T10:31:28Z</time>
      </trkpt>
      <trkpt lat="45.31399" lon="4.25593">
        <ele>715</ele>
        <time>2021-04-26T10:31:29Z</time>
      </trkpt>
      <trkpt lat="45.31405" lon="4.25589">
        <ele>715</ele>
        <time>2021-04-26T10:31:30Z</time>
      </trkpt>
      <trkpt lat="45.3141" lon="4.25585">
        <ele>714</ele>
        <time>2021-04-26T10:31:31Z</time>
      </trkpt>
      <trkpt lat="45.31416" lon="4.25582">
        <ele>714</ele>
        <time>2021-04-26T10:31:32Z</time>
      </trkpt>
      <trkpt lat="45.31422" lon="4.25578">
        <ele>714</ele>
        <time>2021-04-26T10:31:33Z</time>
      </trkpt>
      <trkpt lat="45.31428" lon="4.25573">
        <ele>713</ele>
        <time>2021-04-26T10:31:34Z</time>
      </trkpt>
      <trkpt lat="45.31434" lon="4.25569">
        <ele>713</ele>
        <time>2021-04-26T10:31:35Z</time>
      </trkpt>
      <trkpt lat="45.31437" lon="4.25564">
        <ele>712</ele>
        <time>2021-04-26T10:31:36Z</time>
      </trkpt>
      <trkpt lat="45.31437" lon="4.2556">
        <ele>712</ele>
        <time>2021-04-26T10:31:37Z</time>
      </trkpt>
      <trkpt lat="45.31435" lon="4.25555">
        <ele>711</ele>
        <time>2021-04-26T10:31:38Z</time>
      </trkpt>
      <trkpt lat="45.31434" lon="4.25549">
        <ele>711</ele>
        <time>2021-04-26T10:31:39Z</time>
      </trkpt>
      <trkpt lat="45.31432" lon="4.25543">
        <ele>710</ele>
        <time>2021-04-26T10:31:40Z</time>
      </trkpt>
      <trkpt lat="45.31431" lon="4.25537">
        <ele>710</ele>
        <time>2021-04-26T10:31:41Z</time>
      </trkpt>
      <trkpt lat="45.3143" lon="4.25532">
        <ele>709</ele>
        <time>2021-04-26T10:31:42Z</time>
      </trkpt>
      <trkpt lat="45.31431" lon="4.25526">
        <ele>709</ele>
        <time>2021-04-26T10:31:43Z</time>
      </trkpt>
      <trkpt lat="45.31434" lon="4.25521">
        <ele>708</ele>
        <time>2021-04-26T10:31:44Z</time>
      </trkpt>
      <trkpt lat="45.31438" lon="4.25516">
        <ele>708</ele>
        <time>2021-04-26T10:31:45Z</time>
      </trkpt>
      <trkpt lat="45.31444" lon="4.25509">
        <ele>708</ele>
        <time>2021-04-26T10:31:46Z</time>
      </trkpt>
      <trkpt lat="45.31449" lon="4.25502">
        <ele>708</ele>
        <time>2021-04-26T10:31:47Z</time>
      </trkpt>
      <trkpt lat="45.31454" lon="4.25495">
        <ele>707</ele>
        <time>2021-04-26T10:31:48Z</time>
      </trkpt>
      <trkpt lat="45.3146" lon="4.25486">
        <ele>706</ele>
        <time>2021-04-26T10:31:49Z</time>
      </trkpt>
      <trkpt lat="45.31464" lon="4.25477">
        <ele>705</ele>
        <time>2021-04-26T10:31:50Z</time>
      </trkpt>
      <trkpt lat="45.31468" lon="4.25468">
        <ele>704</ele>
        <time>2021-04-26T10:31:51Z</time>
      </trkpt>
      <trkpt lat="45.31473" lon="4.25459">
        <ele>703</ele>
        <time>2021-04-26T10:31:52Z</time>
      </trkpt>
      <trkpt lat="45.31478" lon="4.25451">
        <ele>703</ele>
        <time>2021-04-26T10:31:53Z</time>
      </trkpt>
      <trkpt lat="45.31482" lon="4.25442">
        <ele>701</ele>
        <time>2021-04-26T10:31:54Z</time>
      </trkpt>
      <trkpt lat="45.31485" lon="4.25432">
        <ele>700</ele>
        <time>2021-04-26T10:31:55Z</time>
      </trkpt>
      <trkpt lat="45.31488" lon="4.25422">
        <ele>699</ele>
        <time>2021-04-26T10:31:56Z</time>
      </trkpt>
      <trkpt lat="45.31491" lon="4.25409">
        <ele>698</ele>
        <time>2021-04-26T10:31:57Z</time>
      </trkpt>
      <trkpt lat="45.31493" lon="4.25396">
        <ele>697</ele>
        <time>2021-04-26T10:31:58Z</time>
      </trkpt>
      <trkpt lat="45.31493" lon="4.25378">
        <ele>697</ele>
        <time>2021-04-26T10:31:59Z</time>
      </trkpt>
      <trkpt lat="45.31492" lon="4.25363">
        <ele>695</ele>
        <time>2021-04-26T10:32:02Z</time>
      </trkpt>
      <trkpt lat="45.31492" lon="4.25348">
        <ele>693</ele>
        <time>2021-04-26T10:32:04Z</time>
      </trkpt>
      <trkpt lat="45.31493" lon="4.25332">
        <ele>692</ele>
        <time>2021-04-26T10:32:06Z</time>
      </trkpt>
      <trkpt lat="45.3149" lon="4.25315">
        <ele>692</ele>
        <time>2021-04-26T10:32:08Z</time>
      </trkpt>
      <trkpt lat="45.31488" lon="4.25296">
        <ele>689</ele>
        <time>2021-04-26T10:32:10Z</time>
      </trkpt>
      <trkpt lat="45.31478" lon="4.25292">
        <ele>687</ele>
        <time>2021-04-26T10:32:12Z</time>
      </trkpt>
      <trkpt lat="45.31469" lon="4.25288">
        <ele>685</ele>
        <time>2021-04-26T10:32:15Z</time>
      </trkpt>
      <trkpt lat="45.31468" lon="4.25283">
        <ele>681</ele>
        <time>2021-04-26T10:32:26Z</time>
      </trkpt>
      <trkpt lat="45.31473" lon="4.25281">
        <ele>680</ele>
        <time>2021-04-26T10:33:07Z</time>
      </trkpt>
      <trkpt lat="45.31485" lon="4.25277">
        <ele>680</ele>
        <time>2021-04-26T10:33:11Z</time>
      </trkpt>
      <trkpt lat="45.31493" lon="4.25274">
        <ele>676</ele>
        <time>2021-04-26T10:33:13Z</time>
      </trkpt>
      <trkpt lat="45.31497" lon="4.25273">
        <ele>676</ele>
        <time>2021-04-26T10:33:14Z</time>
      </trkpt>
      <trkpt lat="45.315" lon="4.25273">
        <ele>676</ele>
        <time>2021-04-26T10:33:15Z</time>
      </trkpt>
      <trkpt lat="45.31503" lon="4.25272">
        <ele>676</ele>
        <time>2021-04-26T10:33:16Z</time>
      </trkpt>
      <trkpt lat="45.31506" lon="4.25272">
        <ele>676</ele>
        <time>2021-04-26T10:33:17Z</time>
      </trkpt>
      <trkpt lat="45.31509" lon="4.25272">
        <ele>675</ele>
        <time>2021-04-26T10:33:18Z</time>
      </trkpt>
      <trkpt lat="45.31519" lon="4.2527">
        <ele>674</ele>
        <time>2021-04-26T10:33:21Z</time>
      </trkpt>
      <trkpt lat="45.31523" lon="4.25269">
        <ele>673</ele>
        <time>2021-04-26T10:33:22Z</time>
      </trkpt>
      <trkpt lat="45.31526" lon="4.25268">
        <ele>673</ele>
        <time>2021-04-26T10:33:23Z</time>
      </trkpt>
      <trkpt lat="45.3153" lon="4.25268">
        <ele>672</ele>
        <time>2021-04-26T10:33:24Z</time>
      </trkpt>
      <trkpt lat="45.31533" lon="4.25267">
        <ele>672</ele>
        <time>2021-04-26T10:33:25Z</time>
      </trkpt>
      <trkpt lat="45.31535" lon="4.25267">
        <ele>672</ele>
        <time>2021-04-26T10:33:26Z</time>
      </trkpt>
      <trkpt lat="45.31538" lon="4.25266">
        <ele>671</ele>
        <time>2021-04-26T10:33:27Z</time>
      </trkpt>
      <trkpt lat="45.3154" lon="4.25266">
        <ele>671</ele>
        <time>2021-04-26T10:33:28Z</time>
      </trkpt>
      <trkpt lat="45.31542" lon="4.25266">
        <ele>671</ele>
        <time>2021-04-26T10:33:29Z</time>
      </trkpt>
      <trkpt lat="45.31544" lon="4.25266">
        <ele>671</ele>
        <time>2021-04-26T10:33:30Z</time>
      </trkpt>
      <trkpt lat="45.31546" lon="4.25266">
        <ele>671</ele>
        <time>2021-04-26T10:33:31Z</time>
      </trkpt>
      <trkpt lat="45.31548" lon="4.25265">
        <ele>671</ele>
        <time>2021-04-26T10:33:33Z</time>
      </trkpt>
      <trkpt lat="45.31554" lon="4.2527">
        <ele>668</ele>
        <time>2021-04-26T10:34:45Z</time>
      </trkpt>
      <trkpt lat="45.31556" lon="4.25269">
        <ele>668</ele>
        <time>2021-04-26T10:34:46Z</time>
      </trkpt>
      <trkpt lat="45.3156" lon="4.25268">
        <ele>668</ele>
        <time>2021-04-26T10:34:47Z</time>
      </trkpt>
      <trkpt lat="45.31563" lon="4.25267">
        <ele>667</ele>
        <time>2021-04-26T10:34:48Z</time>
      </trkpt>
      <trkpt lat="45.31567" lon="4.25267">
        <ele>667</ele>
        <time>2021-04-26T10:34:49Z</time>
      </trkpt>
      <trkpt lat="45.31571" lon="4.25266">
        <ele>667</ele>
        <time>2021-04-26T10:34:50Z</time>
      </trkpt>
      <trkpt lat="45.31575" lon="4.25266">
        <ele>667</ele>
        <time>2021-04-26T10:34:51Z</time>
      </trkpt>
      <trkpt lat="45.3158" lon="4.25265">
        <ele>667</ele>
        <time>2021-04-26T10:34:52Z</time>
      </trkpt>
      <trkpt lat="45.31585" lon="4.25263">
        <ele>667</ele>
        <time>2021-04-26T10:34:53Z</time>
      </trkpt>
      <trkpt lat="45.31591" lon="4.25261">
        <ele>667</ele>
        <time>2021-04-26T10:34:54Z</time>
      </trkpt>
      <trkpt lat="45.31596" lon="4.2526">
        <ele>667</ele>
        <time>2021-04-26T10:34:55Z</time>
      </trkpt>
      <trkpt lat="45.31601" lon="4.25258">
        <ele>667</ele>
        <time>2021-04-26T10:34:56Z</time>
      </trkpt>
      <trkpt lat="45.31606" lon="4.25256">
        <ele>667</ele>
        <time>2021-04-26T10:34:57Z</time>
      </trkpt>
      <trkpt lat="45.31611" lon="4.25254">
        <ele>667</ele>
        <time>2021-04-26T10:34:58Z</time>
      </trkpt>
      <trkpt lat="45.31617" lon="4.25253">
        <ele>667</ele>
        <time>2021-04-26T10:34:59Z</time>
      </trkpt>
      <trkpt lat="45.31622" lon="4.25251">
        <ele>666</ele>
        <time>2021-04-26T10:35:00Z</time>
      </trkpt>
      <trkpt lat="45.31626" lon="4.25249">
        <ele>666</ele>
        <time>2021-04-26T10:35:01Z</time>
      </trkpt>
      <trkpt lat="45.31631" lon="4.25248">
        <ele>666</ele>
        <time>2021-04-26T10:35:02Z</time>
      </trkpt>
      <trkpt lat="45.31635" lon="4.25246">
        <ele>667</ele>
        <time>2021-04-26T10:35:03Z</time>
      </trkpt>
      <trkpt lat="45.3164" lon="4.25244">
        <ele>667</ele>
        <time>2021-04-26T10:35:04Z</time>
      </trkpt>
      <trkpt lat="45.31644" lon="4.25243">
        <ele>667</ele>
        <time>2021-04-26T10:35:05Z</time>
      </trkpt>
      <trkpt lat="45.31648" lon="4.25242">
        <ele>667</ele>
        <time>2021-04-26T10:35:06Z</time>
      </trkpt>
      <trkpt lat="45.31652" lon="4.25242">
        <ele>667</ele>
        <time>2021-04-26T10:35:07Z</time>
      </trkpt>
      <trkpt lat="45.31656" lon="4.25241">
        <ele>668</ele>
        <time>2021-04-26T10:35:08Z</time>
      </trkpt>
      <trkpt lat="45.3166" lon="4.2524">
        <ele>668</ele>
        <time>2021-04-26T10:35:09Z</time>
      </trkpt>
      <trkpt lat="45.31663" lon="4.25238">
        <ele>668</ele>
        <time>2021-04-26T10:35:10Z</time>
      </trkpt>
      <trkpt lat="45.31666" lon="4.25237">
        <ele>668</ele>
        <time>2021-04-26T10:35:11Z</time>
      </trkpt>
      <trkpt lat="45.31669" lon="4.25236">
        <ele>668</ele>
        <time>2021-04-26T10:35:12Z</time>
      </trkpt>
      <trkpt lat="45.31672" lon="4.25235">
        <ele>668</ele>
        <time>2021-04-26T10:35:13Z</time>
      </trkpt>
      <trkpt lat="45.31676" lon="4.25234">
        <ele>668</ele>
        <time>2021-04-26T10:35:14Z</time>
      </trkpt>
      <trkpt lat="45.31679" lon="4.25233">
        <ele>668</ele>
        <time>2021-04-26T10:35:15Z</time>
      </trkpt>
      <trkpt lat="45.31683" lon="4.25233">
        <ele>669</ele>
        <time>2021-04-26T10:35:16Z</time>
      </trkpt>
      <trkpt lat="45.31686" lon="4.25232">
        <ele>669</ele>
        <time>2021-04-26T10:35:17Z</time>
      </trkpt>
      <trkpt lat="45.3169" lon="4.25231">
        <ele>669</ele>
        <time>2021-04-26T10:35:18Z</time>
      </trkpt>
      <trkpt lat="45.31693" lon="4.2523">
        <ele>670</ele>
        <time>2021-04-26T10:35:19Z</time>
      </trkpt>
      <trkpt lat="45.31697" lon="4.2523">
        <ele>670</ele>
        <time>2021-04-26T10:35:20Z</time>
      </trkpt>
      <trkpt lat="45.317" lon="4.25229">
        <ele>670</ele>
        <time>2021-04-26T10:35:21Z</time>
      </trkpt>
      <trkpt lat="45.31704" lon="4.25228">
        <ele>670</ele>
        <time>2021-04-26T10:35:22Z</time>
      </trkpt>
      <trkpt lat="45.31708" lon="4.25228">
        <ele>670</ele>
        <time>2021-04-26T10:35:23Z</time>
      </trkpt>
      <trkpt lat="45.31711" lon="4.25227">
        <ele>671</ele>
        <time>2021-04-26T10:35:24Z</time>
      </trkpt>
      <trkpt lat="45.31715" lon="4.25226">
        <ele>671</ele>
        <time>2021-04-26T10:35:25Z</time>
      </trkpt>
      <trkpt lat="45.31718" lon="4.25226">
        <ele>671</ele>
        <time>2021-04-26T10:35:26Z</time>
      </trkpt>
      <trkpt lat="45.31722" lon="4.25225">
        <ele>671</ele>
        <time>2021-04-26T10:35:27Z</time>
      </trkpt>
      <trkpt lat="45.31726" lon="4.25225">
        <ele>671</ele>
        <time>2021-04-26T10:35:28Z</time>
      </trkpt>
      <trkpt lat="45.31729" lon="4.25224">
        <ele>672</ele>
        <time>2021-04-26T10:35:29Z</time>
      </trkpt>
      <trkpt lat="45.31733" lon="4.25224">
        <ele>672</ele>
        <time>2021-04-26T10:35:30Z</time>
      </trkpt>
      <trkpt lat="45.31736" lon="4.25224">
        <ele>672</ele>
        <time>2021-04-26T10:35:31Z</time>
      </trkpt>
      <trkpt lat="45.3174" lon="4.25223">
        <ele>672</ele>
        <time>2021-04-26T10:35:32Z</time>
      </trkpt>
      <trkpt lat="45.31743" lon="4.25223">
        <ele>672</ele>
        <time>2021-04-26T10:35:33Z</time>
      </trkpt>
      <trkpt lat="45.31747" lon="4.25223">
        <ele>672</ele>
        <time>2021-04-26T10:35:34Z</time>
      </trkpt>
      <trkpt lat="45.31751" lon="4.25223">
        <ele>672</ele>
        <time>2021-04-26T10:35:35Z</time>
      </trkpt>
      <trkpt lat="45.31754" lon="4.25223">
        <ele>673</ele>
        <time>2021-04-26T10:35:36Z</time>
      </trkpt>
      <trkpt lat="45.31758" lon="4.25222">
        <ele>673</ele>
        <time>2021-04-26T10:35:37Z</time>
      </trkpt>
      <trkpt lat="45.31761" lon="4.25222">
        <ele>673</ele>
        <time>2021-04-26T10:35:38Z</time>
      </trkpt>
      <trkpt lat="45.31765" lon="4.25221">
        <ele>673</ele>
        <time>2021-04-26T10:35:39Z</time>
      </trkpt>
      <trkpt lat="45.31768" lon="4.25221">
        <ele>673</ele>
        <time>2021-04-26T10:35:40Z</time>
      </trkpt>
      <trkpt lat="45.31771" lon="4.25222">
        <ele>673</ele>
        <time>2021-04-26T10:35:41Z</time>
      </trkpt>
      <trkpt lat="45.31775" lon="4.25222">
        <ele>673</ele>
        <time>2021-04-26T10:35:42Z</time>
      </trkpt>
      <trkpt lat="45.31778" lon="4.25222">
        <ele>673</ele>
        <time>2021-04-26T10:35:43Z</time>
      </trkpt>
      <trkpt lat="45.31781" lon="4.25222">
        <ele>674</ele>
        <time>2021-04-26T10:35:44Z</time>
      </trkpt>
      <trkpt lat="45.31784" lon="4.25223">
        <ele>674</ele>
        <time>2021-04-26T10:35:45Z</time>
      </trkpt>
      <trkpt lat="45.31788" lon="4.25223">
        <ele>674</ele>
        <time>2021-04-26T10:35:46Z</time>
      </trkpt>
      <trkpt lat="45.31791" lon="4.25224">
        <ele>674</ele>
        <time>2021-04-26T10:35:47Z</time>
      </trkpt>
      <trkpt lat="45.31794" lon="4.25224">
        <ele>675</ele>
        <time>2021-04-26T10:35:48Z</time>
      </trkpt>
      <trkpt lat="45.31797" lon="4.25224">
        <ele>675</ele>
        <time>2021-04-26T10:35:49Z</time>
      </trkpt>
      <trkpt lat="45.318" lon="4.25224">
        <ele>675</ele>
        <time>2021-04-26T10:35:50Z</time>
      </trkpt>
      <trkpt lat="45.31804" lon="4.25224">
        <ele>675</ele>
        <time>2021-04-26T10:35:51Z</time>
      </trkpt>
      <trkpt lat="45.31807" lon="4.25223">
        <ele>676</ele>
        <time>2021-04-26T10:35:52Z</time>
      </trkpt>
      <trkpt lat="45.3181" lon="4.25223">
        <ele>676</ele>
        <time>2021-04-26T10:35:53Z</time>
      </trkpt>
      <trkpt lat="45.31813" lon="4.25223">
        <ele>676</ele>
        <time>2021-04-26T10:35:54Z</time>
      </trkpt>
      <trkpt lat="45.31816" lon="4.25223">
        <ele>676</ele>
        <time>2021-04-26T10:35:55Z</time>
      </trkpt>
      <trkpt lat="45.31819" lon="4.25224">
        <ele>676</ele>
        <time>2021-04-26T10:35:56Z</time>
      </trkpt>
      <trkpt lat="45.31822" lon="4.25223">
        <ele>676</ele>
        <time>2021-04-26T10:35:57Z</time>
      </trkpt>
      <trkpt lat="45.31825" lon="4.25223">
        <ele>676</ele>
        <time>2021-04-26T10:35:58Z</time>
      </trkpt>
      <trkpt lat="45.31828" lon="4.25222">
        <ele>677</ele>
        <time>2021-04-26T10:35:59Z</time>
      </trkpt>
      <trkpt lat="45.31832" lon="4.25222">
        <ele>677</ele>
        <time>2021-04-26T10:36:00Z</time>
      </trkpt>
      <trkpt lat="45.31835" lon="4.25221">
        <ele>677</ele>
        <time>2021-04-26T10:36:01Z</time>
      </trkpt>
      <trkpt lat="45.31839" lon="4.2522">
        <ele>677</ele>
        <time>2021-04-26T10:36:02Z</time>
      </trkpt>
      <trkpt lat="45.31843" lon="4.25219">
        <ele>677</ele>
        <time>2021-04-26T10:36:03Z</time>
      </trkpt>
      <trkpt lat="45.31846" lon="4.25218">
        <ele>677</ele>
        <time>2021-04-26T10:36:04Z</time>
      </trkpt>
      <trkpt lat="45.3185" lon="4.25217">
        <ele>678</ele>
        <time>2021-04-26T10:36:05Z</time>
      </trkpt>
      <trkpt lat="45.31853" lon="4.25217">
        <ele>678</ele>
        <time>2021-04-26T10:36:06Z</time>
      </trkpt>
      <trkpt lat="45.31857" lon="4.25216">
        <ele>678</ele>
        <time>2021-04-26T10:36:07Z</time>
      </trkpt>
      <trkpt lat="45.31861" lon="4.25216">
        <ele>678</ele>
        <time>2021-04-26T10:36:08Z</time>
      </trkpt>
      <trkpt lat="45.31865" lon="4.25216">
        <ele>678</ele>
        <time>2021-04-26T10:36:09Z</time>
      </trkpt>
      <trkpt lat="45.31869" lon="4.25216">
        <ele>678</ele>
        <time>2021-04-26T10:36:10Z</time>
      </trkpt>
      <trkpt lat="45.31873" lon="4.25215">
        <ele>678</ele>
        <time>2021-04-26T10:36:11Z</time>
      </trkpt>
      <trkpt lat="45.31877" lon="4.25215">
        <ele>679</ele>
        <time>2021-04-26T10:36:12Z</time>
      </trkpt>
      <trkpt lat="45.31881" lon="4.25214">
        <ele>679</ele>
        <time>2021-04-26T10:36:13Z</time>
      </trkpt>
      <trkpt lat="45.31885" lon="4.25213">
        <ele>679</ele>
        <time>2021-04-26T10:36:14Z</time>
      </trkpt>
      <trkpt lat="45.31889" lon="4.25212">
        <ele>679</ele>
        <time>2021-04-26T10:36:15Z</time>
      </trkpt>
      <trkpt lat="45.31893" lon="4.25212">
        <ele>679</ele>
        <time>2021-04-26T10:36:16Z</time>
      </trkpt>
      <trkpt lat="45.31896" lon="4.25211">
        <ele>679</ele>
        <time>2021-04-26T10:36:17Z</time>
      </trkpt>
      <trkpt lat="45.319" lon="4.2521">
        <ele>679</ele>
        <time>2021-04-26T10:36:18Z</time>
      </trkpt>
      <trkpt lat="45.31904" lon="4.2521">
        <ele>680</ele>
        <time>2021-04-26T10:36:19Z</time>
      </trkpt>
      <trkpt lat="45.31908" lon="4.2521">
        <ele>680</ele>
        <time>2021-04-26T10:36:20Z</time>
      </trkpt>
      <trkpt lat="45.31911" lon="4.2521">
        <ele>680</ele>
        <time>2021-04-26T10:36:21Z</time>
      </trkpt>
      <trkpt lat="45.31914" lon="4.2521">
        <ele>680</ele>
        <time>2021-04-26T10:36:22Z</time>
      </trkpt>
      <trkpt lat="45.31921" lon="4.25209">
        <ele>680</ele>
        <time>2021-04-26T10:36:24Z</time>
      </trkpt>
      <trkpt lat="45.31924" lon="4.25208">
        <ele>680</ele>
        <time>2021-04-26T10:36:25Z</time>
      </trkpt>
      <trkpt lat="45.31927" lon="4.25207">
        <ele>681</ele>
        <time>2021-04-26T10:36:26Z</time>
      </trkpt>
      <trkpt lat="45.31932" lon="4.25207">
        <ele>681</ele>
        <time>2021-04-26T10:36:28Z</time>
      </trkpt>
      <trkpt lat="45.31939" lon="4.25203">
        <ele>681</ele>
        <time>2021-04-26T10:36:30Z</time>
      </trkpt>
      <trkpt lat="45.31939" lon="4.252">
        <ele>682</ele>
        <time>2021-04-26T10:36:33Z</time>
      </trkpt>
      <trkpt lat="45.31939" lon="4.25197">
        <ele>682</ele>
        <time>2021-04-26T10:36:34Z</time>
      </trkpt>
      <trkpt lat="45.31939" lon="4.25193">
        <ele>682</ele>
        <time>2021-04-26T10:36:35Z</time>
      </trkpt>
      <trkpt lat="45.31939" lon="4.2519">
        <ele>682</ele>
        <time>2021-04-26T10:36:36Z</time>
      </trkpt>
      <trkpt lat="45.3194" lon="4.25187">
        <ele>682</ele>
        <time>2021-04-26T10:36:37Z</time>
      </trkpt>
      <trkpt lat="45.31941" lon="4.25183">
        <ele>682</ele>
        <time>2021-04-26T10:36:38Z</time>
      </trkpt>
      <trkpt lat="45.31941" lon="4.25179">
        <ele>682</ele>
        <time>2021-04-26T10:36:39Z</time>
      </trkpt>
      <trkpt lat="45.31942" lon="4.25173">
        <ele>682</ele>
        <time>2021-04-26T10:36:40Z</time>
      </trkpt>
      <trkpt lat="45.31942" lon="4.25165">
        <ele>681</ele>
        <time>2021-04-26T10:36:41Z</time>
      </trkpt>
      <trkpt lat="45.31942" lon="4.25155">
        <ele>681</ele>
        <time>2021-04-26T10:36:42Z</time>
      </trkpt>
      <trkpt lat="45.31939" lon="4.25144">
        <ele>681</ele>
        <time>2021-04-26T10:36:43Z</time>
      </trkpt>
      <trkpt lat="45.31935" lon="4.25132">
        <ele>681</ele>
        <time>2021-04-26T10:36:44Z</time>
      </trkpt>
      <trkpt lat="45.31929" lon="4.25119">
        <ele>678</ele>
        <time>2021-04-26T10:36:45Z</time>
      </trkpt>
      <trkpt lat="45.31922" lon="4.25106">
        <ele>676</ele>
        <time>2021-04-26T10:36:46Z</time>
      </trkpt>
      <trkpt lat="45.31917" lon="4.25093">
        <ele>674</ele>
        <time>2021-04-26T10:36:47Z</time>
      </trkpt>
      <trkpt lat="45.31911" lon="4.25081">
        <ele>674</ele>
        <time>2021-04-26T10:36:48Z</time>
      </trkpt>
      <trkpt lat="45.31906" lon="4.25072">
        <ele>673</ele>
        <time>2021-04-26T10:36:49Z</time>
      </trkpt>
      <trkpt lat="45.31901" lon="4.25065">
        <ele>672</ele>
        <time>2021-04-26T10:36:50Z</time>
      </trkpt>
      <trkpt lat="45.31891" lon="4.2506">
        <ele>672</ele>
        <time>2021-04-26T10:36:52Z</time>
      </trkpt>
      <trkpt lat="45.31878" lon="4.25066">
        <ele>671</ele>
        <time>2021-04-26T10:36:55Z</time>
      </trkpt>
      <trkpt lat="45.31872" lon="4.25069">
        <ele>671</ele>
        <time>2021-04-26T10:36:56Z</time>
      </trkpt>
      <trkpt lat="45.31864" lon="4.2507">
        <ele>671</ele>
        <time>2021-04-26T10:36:57Z</time>
      </trkpt>
      <trkpt lat="45.31855" lon="4.2507">
        <ele>670</ele>
        <time>2021-04-26T10:36:58Z</time>
      </trkpt>
      <trkpt lat="45.31839" lon="4.25075">
        <ele>670</ele>
        <time>2021-04-26T10:36:59Z</time>
      </trkpt>
      <trkpt lat="45.31825" lon="4.2508">
        <ele>669</ele>
        <time>2021-04-26T10:37:02Z</time>
      </trkpt>
      <trkpt lat="45.31815" lon="4.25086">
        <ele>669</ele>
        <time>2021-04-26T10:37:04Z</time>
      </trkpt>
      <trkpt lat="45.31806" lon="4.25092">
        <ele>667</ele>
        <time>2021-04-26T10:37:06Z</time>
      </trkpt>
      <trkpt lat="45.31797" lon="4.25097">
        <ele>667</ele>
        <time>2021-04-26T10:37:08Z</time>
      </trkpt>
      <trkpt lat="45.31792" lon="4.25097">
        <ele>667</ele>
        <time>2021-04-26T10:37:09Z</time>
      </trkpt>
      <trkpt lat="45.31788" lon="4.25098">
        <ele>667</ele>
        <time>2021-04-26T10:37:10Z</time>
      </trkpt>
      <trkpt lat="45.31784" lon="4.25099">
        <ele>667</ele>
        <time>2021-04-26T10:37:11Z</time>
      </trkpt>
      <trkpt lat="45.31773" lon="4.25101">
        <ele>667</ele>
        <time>2021-04-26T10:37:14Z</time>
      </trkpt>
      <trkpt lat="45.31765" lon="4.25101">
        <ele>667</ele>
        <time>2021-04-26T10:37:16Z</time>
      </trkpt>
      <trkpt lat="45.31761" lon="4.25103">
        <ele>666</ele>
        <time>2021-04-26T10:37:17Z</time>
      </trkpt>
      <trkpt lat="45.31756" lon="4.25104">
        <ele>666</ele>
        <time>2021-04-26T10:37:18Z</time>
      </trkpt>
      <trkpt lat="45.31751" lon="4.25106">
        <ele>666</ele>
        <time>2021-04-26T10:37:19Z</time>
      </trkpt>
      <trkpt lat="45.31742" lon="4.25108">
        <ele>666</ele>
        <time>2021-04-26T10:37:21Z</time>
      </trkpt>
      <trkpt lat="45.31733" lon="4.25112">
        <ele>666</ele>
        <time>2021-04-26T10:37:23Z</time>
      </trkpt>
      <trkpt lat="45.31721" lon="4.25115">
        <ele>666</ele>
        <time>2021-04-26T10:37:26Z</time>
      </trkpt>
      <trkpt lat="45.31711" lon="4.25117">
        <ele>665</ele>
        <time>2021-04-26T10:37:28Z</time>
      </trkpt>
      <trkpt lat="45.31701" lon="4.25118">
        <ele>665</ele>
        <time>2021-04-26T10:37:30Z</time>
      </trkpt>
      <trkpt lat="45.31684" lon="4.25122">
        <ele>664</ele>
        <time>2021-04-26T10:37:32Z</time>
      </trkpt>
      <trkpt lat="45.31668" lon="4.25119">
        <ele>664</ele>
        <time>2021-04-26T10:37:34Z</time>
      </trkpt>
      <trkpt lat="45.31658" lon="4.25111">
        <ele>664</ele>
        <time>2021-04-26T10:37:36Z</time>
      </trkpt>
      <trkpt lat="45.31655" lon="4.25106">
        <ele>661</ele>
        <time>2021-04-26T10:37:37Z</time>
      </trkpt>
      <trkpt lat="45.31654" lon="4.251">
        <ele>660</ele>
        <time>2021-04-26T10:37:38Z</time>
      </trkpt>
      <trkpt lat="45.31655" lon="4.25094">
        <ele>659</ele>
        <time>2021-04-26T10:37:39Z</time>
      </trkpt>
      <trkpt lat="45.31657" lon="4.25089">
        <ele>658</ele>
        <time>2021-04-26T10:37:40Z</time>
      </trkpt>
      <trkpt lat="45.3166" lon="4.25086">
        <ele>658</ele>
        <time>2021-04-26T10:37:41Z</time>
      </trkpt>
      <trkpt lat="45.31663" lon="4.25082">
        <ele>657</ele>
        <time>2021-04-26T10:37:42Z</time>
      </trkpt>
      <trkpt lat="45.31665" lon="4.25079">
        <ele>656</ele>
        <time>2021-04-26T10:37:43Z</time>
      </trkpt>
      <trkpt lat="45.31667" lon="4.25075">
        <ele>656</ele>
        <time>2021-04-26T10:37:44Z</time>
      </trkpt>
      <trkpt lat="45.31669" lon="4.25072">
        <ele>656</ele>
        <time>2021-04-26T10:37:45Z</time>
      </trkpt>
      <trkpt lat="45.31671" lon="4.25068">
        <ele>655</ele>
        <time>2021-04-26T10:37:46Z</time>
      </trkpt>
      <trkpt lat="45.31674" lon="4.25064">
        <ele>654</ele>
        <time>2021-04-26T10:37:47Z</time>
      </trkpt>
      <trkpt lat="45.31677" lon="4.25059">
        <ele>654</ele>
        <time>2021-04-26T10:37:48Z</time>
      </trkpt>
      <trkpt lat="45.3168" lon="4.25055">
        <ele>653</ele>
        <time>2021-04-26T10:37:49Z</time>
      </trkpt>
      <trkpt lat="45.31683" lon="4.2505">
        <ele>653</ele>
        <time>2021-04-26T10:37:50Z</time>
      </trkpt>
      <trkpt lat="45.31686" lon="4.25046">
        <ele>653</ele>
        <time>2021-04-26T10:37:51Z</time>
      </trkpt>
      <trkpt lat="45.3169" lon="4.25041">
        <ele>652</ele>
        <time>2021-04-26T10:37:52Z</time>
      </trkpt>
      <trkpt lat="45.31693" lon="4.25037">
        <ele>653</ele>
        <time>2021-04-26T10:37:53Z</time>
      </trkpt>
      <trkpt lat="45.31696" lon="4.25032">
        <ele>653</ele>
        <time>2021-04-26T10:37:54Z</time>
      </trkpt>
      <trkpt lat="45.317" lon="4.25028">
        <ele>653</ele>
        <time>2021-04-26T10:37:55Z</time>
      </trkpt>
      <trkpt lat="45.31703" lon="4.25023">
        <ele>653</ele>
        <time>2021-04-26T10:37:56Z</time>
      </trkpt>
      <trkpt lat="45.31706" lon="4.25019">
        <ele>653</ele>
        <time>2021-04-26T10:37:57Z</time>
      </trkpt>
      <trkpt lat="45.31709" lon="4.25015">
        <ele>653</ele>
        <time>2021-04-26T10:37:58Z</time>
      </trkpt>
      <trkpt lat="45.31712" lon="4.2501">
        <ele>653</ele>
        <time>2021-04-26T10:37:59Z</time>
      </trkpt>
      <trkpt lat="45.31715" lon="4.25006">
        <ele>653</ele>
        <time>2021-04-26T10:38:00Z</time>
      </trkpt>
      <trkpt lat="45.31718" lon="4.25002">
        <ele>653</ele>
        <time>2021-04-26T10:38:01Z</time>
      </trkpt>
      <trkpt lat="45.31721" lon="4.24997">
        <ele>654</ele>
        <time>2021-04-26T10:38:02Z</time>
      </trkpt>
      <trkpt lat="45.31724" lon="4.24993">
        <ele>654</ele>
        <time>2021-04-26T10:38:03Z</time>
      </trkpt>
      <trkpt lat="45.31727" lon="4.24989">
        <ele>654</ele>
        <time>2021-04-26T10:38:04Z</time>
      </trkpt>
      <trkpt lat="45.3173" lon="4.24985">
        <ele>654</ele>
        <time>2021-04-26T10:38:05Z</time>
      </trkpt>
      <trkpt lat="45.31734" lon="4.24981">
        <ele>654</ele>
        <time>2021-04-26T10:38:06Z</time>
      </trkpt>
      <trkpt lat="45.31737" lon="4.24977">
        <ele>654</ele>
        <time>2021-04-26T10:38:07Z</time>
      </trkpt>
      <trkpt lat="45.3174" lon="4.24973">
        <ele>654</ele>
        <time>2021-04-26T10:38:08Z</time>
      </trkpt>
      <trkpt lat="45.31743" lon="4.2497">
        <ele>655</ele>
        <time>2021-04-26T10:38:09Z</time>
      </trkpt>
      <trkpt lat="45.31746" lon="4.24966">
        <ele>655</ele>
        <time>2021-04-26T10:38:10Z</time>
      </trkpt>
      <trkpt lat="45.3175" lon="4.24962">
        <ele>655</ele>
        <time>2021-04-26T10:38:11Z</time>
      </trkpt>
      <trkpt lat="45.31754" lon="4.24957">
        <ele>655</ele>
        <time>2021-04-26T10:38:12Z</time>
      </trkpt>
      <trkpt lat="45.31758" lon="4.24953">
        <ele>655</ele>
        <time>2021-04-26T10:38:13Z</time>
      </trkpt>
      <trkpt lat="45.31763" lon="4.24948">
        <ele>655</ele>
        <time>2021-04-26T10:38:14Z</time>
      </trkpt>
      <trkpt lat="45.31767" lon="4.24943">
        <ele>656</ele>
        <time>2021-04-26T10:38:15Z</time>
      </trkpt>
      <trkpt lat="45.3177" lon="4.24939">
        <ele>656</ele>
        <time>2021-04-26T10:38:16Z</time>
      </trkpt>
      <trkpt lat="45.31773" lon="4.24934">
        <ele>656</ele>
        <time>2021-04-26T10:38:17Z</time>
      </trkpt>
      <trkpt lat="45.31777" lon="4.24929">
        <ele>656</ele>
        <time>2021-04-26T10:38:18Z</time>
      </trkpt>
      <trkpt lat="45.31781" lon="4.24925">
        <ele>656</ele>
        <time>2021-04-26T10:38:19Z</time>
      </trkpt>
      <trkpt lat="45.31784" lon="4.24921">
        <ele>656</ele>
        <time>2021-04-26T10:38:20Z</time>
      </trkpt>
      <trkpt lat="45.31788" lon="4.24918">
        <ele>656</ele>
        <time>2021-04-26T10:38:21Z</time>
      </trkpt>
      <trkpt lat="45.31791" lon="4.24914">
        <ele>656</ele>
        <time>2021-04-26T10:38:22Z</time>
      </trkpt>
      <trkpt lat="45.31793" lon="4.2491">
        <ele>657</ele>
        <time>2021-04-26T10:38:23Z</time>
      </trkpt>
      <trkpt lat="45.31794" lon="4.24905">
        <ele>657</ele>
        <time>2021-04-26T10:38:24Z</time>
      </trkpt>
      <trkpt lat="45.31793" lon="4.24901">
        <ele>657</ele>
        <time>2021-04-26T10:38:25Z</time>
      </trkpt>
      <trkpt lat="45.31792" lon="4.24899">
        <ele>657</ele>
        <time>2021-04-26T10:38:26Z</time>
      </trkpt>
      <trkpt lat="45.31788" lon="4.24901">
        <ele>658</ele>
        <time>2021-04-26T10:38:28Z</time>
      </trkpt>
      <trkpt lat="45.31785" lon="4.24904">
        <ele>658</ele>
        <time>2021-04-26T10:38:29Z</time>
      </trkpt>
      <trkpt lat="45.31782" lon="4.24908">
        <ele>658</ele>
        <time>2021-04-26T10:38:30Z</time>
      </trkpt>
      <trkpt lat="45.3178" lon="4.24911">
        <ele>658</ele>
        <time>2021-04-26T10:38:31Z</time>
      </trkpt>
      <trkpt lat="45.31777" lon="4.24914">
        <ele>659</ele>
        <time>2021-04-26T10:38:32Z</time>
      </trkpt>
      <trkpt lat="45.31774" lon="4.24918">
        <ele>659</ele>
        <time>2021-04-26T10:38:33Z</time>
      </trkpt>
      <trkpt lat="45.31771" lon="4.24921">
        <ele>659</ele>
        <time>2021-04-26T10:38:34Z</time>
      </trkpt>
      <trkpt lat="45.31769" lon="4.24924">
        <ele>659</ele>
        <time>2021-04-26T10:38:35Z</time>
      </trkpt>
      <trkpt lat="45.31766" lon="4.24927">
        <ele>660</ele>
        <time>2021-04-26T10:38:36Z</time>
      </trkpt>
      <trkpt lat="45.31763" lon="4.2493">
        <ele>660</ele>
        <time>2021-04-26T10:38:37Z</time>
      </trkpt>
      <trkpt lat="45.3176" lon="4.24933">
        <ele>660</ele>
        <time>2021-04-26T10:38:38Z</time>
      </trkpt>
      <trkpt lat="45.31757" lon="4.24936">
        <ele>660</ele>
        <time>2021-04-26T10:38:39Z</time>
      </trkpt>
      <trkpt lat="45.31754" lon="4.24938">
        <ele>660</ele>
        <time>2021-04-26T10:38:40Z</time>
      </trkpt>
      <trkpt lat="45.31751" lon="4.2494">
        <ele>660</ele>
        <time>2021-04-26T10:38:41Z</time>
      </trkpt>
      <trkpt lat="45.31748" lon="4.24942">
        <ele>661</ele>
        <time>2021-04-26T10:38:42Z</time>
      </trkpt>
      <trkpt lat="45.31745" lon="4.24944">
        <ele>661</ele>
        <time>2021-04-26T10:38:43Z</time>
      </trkpt>
      <trkpt lat="45.31742" lon="4.24947">
        <ele>661</ele>
        <time>2021-04-26T10:38:44Z</time>
      </trkpt>
      <trkpt lat="45.3174" lon="4.24949">
        <ele>661</ele>
        <time>2021-04-26T10:38:45Z</time>
      </trkpt>
      <trkpt lat="45.31738" lon="4.24952">
        <ele>662</ele>
        <time>2021-04-26T10:38:46Z</time>
      </trkpt>
      <trkpt lat="45.31727" lon="4.2496">
        <ele>662</ele>
        <time>2021-04-26T10:38:49Z</time>
      </trkpt>
      <trkpt lat="45.31723" lon="4.24962">
        <ele>662</ele>
        <time>2021-04-26T10:38:50Z</time>
      </trkpt>
      <trkpt lat="45.31712" lon="4.2497">
        <ele>663</ele>
        <time>2021-04-26T10:38:53Z</time>
      </trkpt>
      <trkpt lat="45.317" lon="4.24977">
        <ele>663</ele>
        <time>2021-04-26T10:38:56Z</time>
      </trkpt>
      <trkpt lat="45.3169" lon="4.24979">
        <ele>663</ele>
        <time>2021-04-26T10:38:58Z</time>
      </trkpt>
      <trkpt lat="45.3168" lon="4.24981">
        <ele>663</ele>
        <time>2021-04-26T10:38:59Z</time>
      </trkpt>
      <trkpt lat="45.3167" lon="4.2498">
        <ele>663</ele>
        <time>2021-04-26T10:39:02Z</time>
      </trkpt>
      <trkpt lat="45.31666" lon="4.24978">
        <ele>663</ele>
        <time>2021-04-26T10:39:03Z</time>
      </trkpt>
      <trkpt lat="45.31662" lon="4.24976">
        <ele>663</ele>
        <time>2021-04-26T10:39:04Z</time>
      </trkpt>
      <trkpt lat="45.31658" lon="4.24973">
        <ele>663</ele>
        <time>2021-04-26T10:39:05Z</time>
      </trkpt>
      <trkpt lat="45.31655" lon="4.24971">
        <ele>664</ele>
        <time>2021-04-26T10:39:06Z</time>
      </trkpt>
      <trkpt lat="45.31651" lon="4.24968">
        <ele>664</ele>
        <time>2021-04-26T10:39:07Z</time>
      </trkpt>
      <trkpt lat="45.31647" lon="4.24965">
        <ele>664</ele>
        <time>2021-04-26T10:39:08Z</time>
      </trkpt>
      <trkpt lat="45.31644" lon="4.24962">
        <ele>664</ele>
        <time>2021-04-26T10:39:09Z</time>
      </trkpt>
      <trkpt lat="45.31641" lon="4.24958">
        <ele>664</ele>
        <time>2021-04-26T10:39:10Z</time>
      </trkpt>
      <trkpt lat="45.31639" lon="4.24953">
        <ele>664</ele>
        <time>2021-04-26T10:39:11Z</time>
      </trkpt>
      <trkpt lat="45.31637" lon="4.24948">
        <ele>664</ele>
        <time>2021-04-26T10:39:12Z</time>
      </trkpt>
      <trkpt lat="45.31634" lon="4.24943">
        <ele>664</ele>
        <time>2021-04-26T10:39:13Z</time>
      </trkpt>
      <trkpt lat="45.31631" lon="4.24938">
        <ele>664</ele>
        <time>2021-04-26T10:39:14Z</time>
      </trkpt>
      <trkpt lat="45.31628" lon="4.24934">
        <ele>664</ele>
        <time>2021-04-26T10:39:15Z</time>
      </trkpt>
      <trkpt lat="45.31625" lon="4.2493">
        <ele>664</ele>
        <time>2021-04-26T10:39:16Z</time>
      </trkpt>
      <trkpt lat="45.31622" lon="4.24926">
        <ele>664</ele>
        <time>2021-04-26T10:39:17Z</time>
      </trkpt>
      <trkpt lat="45.31619" lon="4.24922">
        <ele>664</ele>
        <time>2021-04-26T10:39:18Z</time>
      </trkpt>
      <trkpt lat="45.31615" lon="4.24919">
        <ele>665</ele>
        <time>2021-04-26T10:39:19Z</time>
      </trkpt>
      <trkpt lat="45.31612" lon="4.24915">
        <ele>665</ele>
        <time>2021-04-26T10:39:20Z</time>
      </trkpt>
      <trkpt lat="45.31609" lon="4.24912">
        <ele>665</ele>
        <time>2021-04-26T10:39:21Z</time>
      </trkpt>
      <trkpt lat="45.31606" lon="4.24909">
        <ele>665</ele>
        <time>2021-04-26T10:39:22Z</time>
      </trkpt>
      <trkpt lat="45.31603" lon="4.24905">
        <ele>666</ele>
        <time>2021-04-26T10:39:23Z</time>
      </trkpt>
      <trkpt lat="45.31599" lon="4.24902">
        <ele>666</ele>
        <time>2021-04-26T10:39:24Z</time>
      </trkpt>
      <trkpt lat="45.31596" lon="4.24899">
        <ele>666</ele>
        <time>2021-04-26T10:39:25Z</time>
      </trkpt>
      <trkpt lat="45.31592" lon="4.24895">
        <ele>667</ele>
        <time>2021-04-26T10:39:26Z</time>
      </trkpt>
      <trkpt lat="45.31589" lon="4.24892">
        <ele>667</ele>
        <time>2021-04-26T10:39:27Z</time>
      </trkpt>
      <trkpt lat="45.31586" lon="4.24889">
        <ele>667</ele>
        <time>2021-04-26T10:39:28Z</time>
      </trkpt>
      <trkpt lat="45.31583" lon="4.24887">
        <ele>668</ele>
        <time>2021-04-26T10:39:29Z</time>
      </trkpt>
      <trkpt lat="45.3158" lon="4.24884">
        <ele>668</ele>
        <time>2021-04-26T10:39:30Z</time>
      </trkpt>
      <trkpt lat="45.31572" lon="4.24873">
        <ele>669</ele>
        <time>2021-04-26T10:39:33Z</time>
      </trkpt>
      <trkpt lat="45.31562" lon="4.24861">
        <ele>669</ele>
        <time>2021-04-26T10:39:36Z</time>
      </trkpt>
      <trkpt lat="45.31552" lon="4.24852">
        <ele>671</ele>
        <time>2021-04-26T10:39:39Z</time>
      </trkpt>
      <trkpt lat="45.31548" lon="4.24849">
        <ele>671</ele>
        <time>2021-04-26T10:39:40Z</time>
      </trkpt>
      <trkpt lat="45.31544" lon="4.24848">
        <ele>671</ele>
        <time>2021-04-26T10:39:41Z</time>
      </trkpt>
      <trkpt lat="45.3154" lon="4.24847">
        <ele>671</ele>
        <time>2021-04-26T10:39:42Z</time>
      </trkpt>
      <trkpt lat="45.31536" lon="4.24845">
        <ele>672</ele>
        <time>2021-04-26T10:39:43Z</time>
      </trkpt>
      <trkpt lat="45.31533" lon="4.24844">
        <ele>672</ele>
        <time>2021-04-26T10:39:44Z</time>
      </trkpt>
      <trkpt lat="45.31531" lon="4.24843">
        <ele>672</ele>
        <time>2021-04-26T10:39:45Z</time>
      </trkpt>
      <trkpt lat="45.31528" lon="4.24842">
        <ele>673</ele>
        <time>2021-04-26T10:39:46Z</time>
      </trkpt>
      <trkpt lat="45.31525" lon="4.2484">
        <ele>673</ele>
        <time>2021-04-26T10:39:47Z</time>
      </trkpt>
      <trkpt lat="45.31522" lon="4.2484">
        <ele>673</ele>
        <time>2021-04-26T10:39:48Z</time>
      </trkpt>
      <trkpt lat="45.31511" lon="4.24837">
        <ele>673</ele>
        <time>2021-04-26T10:39:51Z</time>
      </trkpt>
      <trkpt lat="45.315" lon="4.24836">
        <ele>674</ele>
        <time>2021-04-26T10:39:54Z</time>
      </trkpt>
      <trkpt lat="45.31488" lon="4.24835">
        <ele>675</ele>
        <time>2021-04-26T10:39:57Z</time>
      </trkpt>
      <trkpt lat="45.31476" lon="4.24836">
        <ele>676</ele>
        <time>2021-04-26T10:39:59Z</time>
      </trkpt>
      <trkpt lat="45.31466" lon="4.24835">
        <ele>676</ele>
        <time>2021-04-26T10:40:03Z</time>
      </trkpt>
      <trkpt lat="45.31475" lon="4.24834">
        <ele>682</ele>
        <time>2021-04-26T10:40:18Z</time>
      </trkpt>
      <trkpt lat="45.31485" lon="4.24827">
        <ele>683</ele>
        <time>2021-04-26T10:40:23Z</time>
      </trkpt>
      <trkpt lat="45.31494" lon="4.24824">
        <ele>684</ele>
        <time>2021-04-26T10:40:29Z</time>
      </trkpt>
      <trkpt lat="45.31504" lon="4.24821">
        <ele>685</ele>
        <time>2021-04-26T10:40:33Z</time>
      </trkpt>
      <trkpt lat="45.31515" lon="4.24818">
        <ele>685</ele>
        <time>2021-04-26T10:40:39Z</time>
      </trkpt>
      <trkpt lat="45.31524" lon="4.24816">
        <ele>688</ele>
        <time>2021-04-26T10:40:44Z</time>
      </trkpt>
      <trkpt lat="45.31527" lon="4.24818">
        <ele>688</ele>
        <time>2021-04-26T10:40:46Z</time>
      </trkpt>
      <trkpt lat="45.31529" lon="4.24817">
        <ele>689</ele>
        <time>2021-04-26T10:40:47Z</time>
      </trkpt>
      <trkpt lat="45.31539" lon="4.24815">
        <ele>691</ele>
        <time>2021-04-26T10:40:52Z</time>
      </trkpt>
      <trkpt lat="45.31549" lon="4.24812">
        <ele>692</ele>
        <time>2021-04-26T10:40:56Z</time>
      </trkpt>
      <trkpt lat="45.31559" lon="4.24811">
        <ele>692</ele>
        <time>2021-04-26T10:40:59Z</time>
      </trkpt>
      <trkpt lat="45.3157" lon="4.24812">
        <ele>694</ele>
        <time>2021-04-26T10:41:04Z</time>
      </trkpt>
      <trkpt lat="45.31575" lon="4.24812">
        <ele>694</ele>
        <time>2021-04-26T10:41:06Z</time>
      </trkpt>
      <trkpt lat="45.31578" lon="4.24813">
        <ele>694</ele>
        <time>2021-04-26T10:41:07Z</time>
      </trkpt>
      <trkpt lat="45.3158" lon="4.24813">
        <ele>695</ele>
        <time>2021-04-26T10:41:08Z</time>
      </trkpt>
      <trkpt lat="45.31582" lon="4.24814">
        <ele>695</ele>
        <time>2021-04-26T10:41:09Z</time>
      </trkpt>
      <trkpt lat="45.31584" lon="4.24815">
        <ele>695</ele>
        <time>2021-04-26T10:41:10Z</time>
      </trkpt>
      <trkpt lat="45.31586" lon="4.24816">
        <ele>695</ele>
        <time>2021-04-26T10:41:11Z</time>
      </trkpt>
      <trkpt lat="45.31588" lon="4.24817">
        <ele>695</ele>
        <time>2021-04-26T10:41:12Z</time>
      </trkpt>
      <trkpt lat="45.31591" lon="4.24818">
        <ele>695</ele>
        <time>2021-04-26T10:41:13Z</time>
      </trkpt>
      <trkpt lat="45.31593" lon="4.24819">
        <ele>695</ele>
        <time>2021-04-26T10:41:14Z</time>
      </trkpt>
      <trkpt lat="45.31596" lon="4.24821">
        <ele>695</ele>
        <time>2021-04-26T10:41:15Z</time>
      </trkpt>
      <trkpt lat="45.31599" lon="4.24822">
        <ele>695</ele>
        <time>2021-04-26T10:41:16Z</time>
      </trkpt>
      <trkpt lat="45.31602" lon="4.24824">
        <ele>695</ele>
        <time>2021-04-26T10:41:17Z</time>
      </trkpt>
      <trkpt lat="45.31606" lon="4.24825">
        <ele>695</ele>
        <time>2021-04-26T10:41:18Z</time>
      </trkpt>
      <trkpt lat="45.31609" lon="4.24826">
        <ele>695</ele>
        <time>2021-04-26T10:41:19Z</time>
      </trkpt>
      <trkpt lat="45.31612" lon="4.24828">
        <ele>695</ele>
        <time>2021-04-26T10:41:20Z</time>
      </trkpt>
      <trkpt lat="45.31615" lon="4.24829">
        <ele>695</ele>
        <time>2021-04-26T10:41:21Z</time>
      </trkpt>
      <trkpt lat="45.31619" lon="4.24829">
        <ele>695</ele>
        <time>2021-04-26T10:41:22Z</time>
      </trkpt>
      <trkpt lat="45.31622" lon="4.24828">
        <ele>695</ele>
        <time>2021-04-26T10:41:23Z</time>
      </trkpt>
      <trkpt lat="45.31626" lon="4.24827">
        <ele>695</ele>
        <time>2021-04-26T10:41:24Z</time>
      </trkpt>
      <trkpt lat="45.31629" lon="4.24826">
        <ele>695</ele>
        <time>2021-04-26T10:41:25Z</time>
      </trkpt>
      <trkpt lat="45.31632" lon="4.24824">
        <ele>695</ele>
        <time>2021-04-26T10:41:26Z</time>
      </trkpt>
      <trkpt lat="45.31635" lon="4.24821">
        <ele>695</ele>
        <time>2021-04-26T10:41:27Z</time>
      </trkpt>
      <trkpt lat="45.31638" lon="4.24818">
        <ele>696</ele>
        <time>2021-04-26T10:41:28Z</time>
      </trkpt>
      <trkpt lat="45.31641" lon="4.24815">
        <ele>696</ele>
        <time>2021-04-26T10:41:29Z</time>
      </trkpt>
      <trkpt lat="45.31644" lon="4.24811">
        <ele>696</ele>
        <time>2021-04-26T10:41:30Z</time>
      </trkpt>
      <trkpt lat="45.31646" lon="4.24807">
        <ele>697</ele>
        <time>2021-04-26T10:41:31Z</time>
      </trkpt>
      <trkpt lat="45.31649" lon="4.24804">
        <ele>697</ele>
        <time>2021-04-26T10:41:32Z</time>
      </trkpt>
      <trkpt lat="45.31651" lon="4.248">
        <ele>697</ele>
        <time>2021-04-26T10:41:33Z</time>
      </trkpt>
      <trkpt lat="45.31653" lon="4.24796">
        <ele>697</ele>
        <time>2021-04-26T10:41:34Z</time>
      </trkpt>
      <trkpt lat="45.31655" lon="4.24792">
        <ele>697</ele>
        <time>2021-04-26T10:41:35Z</time>
      </trkpt>
      <trkpt lat="45.31658" lon="4.24788">
        <ele>698</ele>
        <time>2021-04-26T10:41:36Z</time>
      </trkpt>
      <trkpt lat="45.31661" lon="4.24783">
        <ele>698</ele>
        <time>2021-04-26T10:41:37Z</time>
      </trkpt>
      <trkpt lat="45.31663" lon="4.24779">
        <ele>698</ele>
        <time>2021-04-26T10:41:38Z</time>
      </trkpt>
      <trkpt lat="45.31666" lon="4.24774">
        <ele>698</ele>
        <time>2021-04-26T10:41:39Z</time>
      </trkpt>
      <trkpt lat="45.31669" lon="4.2477">
        <ele>698</ele>
        <time>2021-04-26T10:41:40Z</time>
      </trkpt>
      <trkpt lat="45.31672" lon="4.24764">
        <ele>698</ele>
        <time>2021-04-26T10:41:41Z</time>
      </trkpt>
      <trkpt lat="45.31675" lon="4.24759">
        <ele>698</ele>
        <time>2021-04-26T10:41:42Z</time>
      </trkpt>
      <trkpt lat="45.31678" lon="4.24753">
        <ele>698</ele>
        <time>2021-04-26T10:41:43Z</time>
      </trkpt>
      <trkpt lat="45.31681" lon="4.24748">
        <ele>698</ele>
        <time>2021-04-26T10:41:44Z</time>
      </trkpt>
      <trkpt lat="45.31684" lon="4.24743">
        <ele>698</ele>
        <time>2021-04-26T10:41:45Z</time>
      </trkpt>
      <trkpt lat="45.31687" lon="4.24737">
        <ele>698</ele>
        <time>2021-04-26T10:41:46Z</time>
      </trkpt>
      <trkpt lat="45.31691" lon="4.24732">
        <ele>698</ele>
        <time>2021-04-26T10:41:47Z</time>
      </trkpt>
      <trkpt lat="45.31694" lon="4.24726">
        <ele>698</ele>
        <time>2021-04-26T10:41:48Z</time>
      </trkpt>
      <trkpt lat="45.31697" lon="4.2472">
        <ele>698</ele>
        <time>2021-04-26T10:41:49Z</time>
      </trkpt>
      <trkpt lat="45.317" lon="4.24713">
        <ele>698</ele>
        <time>2021-04-26T10:41:50Z</time>
      </trkpt>
      <trkpt lat="45.31702" lon="4.24707">
        <ele>698</ele>
        <time>2021-04-26T10:41:51Z</time>
      </trkpt>
      <trkpt lat="45.31704" lon="4.247">
        <ele>697</ele>
        <time>2021-04-26T10:41:52Z</time>
      </trkpt>
      <trkpt lat="45.31705" lon="4.24694">
        <ele>697</ele>
        <time>2021-04-26T10:41:53Z</time>
      </trkpt>
      <trkpt lat="45.31707" lon="4.24687">
        <ele>697</ele>
        <time>2021-04-26T10:41:54Z</time>
      </trkpt>
      <trkpt lat="45.31707" lon="4.2468">
        <ele>697</ele>
        <time>2021-04-26T10:41:55Z</time>
      </trkpt>
      <trkpt lat="45.31708" lon="4.24673">
        <ele>697</ele>
        <time>2021-04-26T10:41:56Z</time>
      </trkpt>
      <trkpt lat="45.31709" lon="4.24667">
        <ele>697</ele>
        <time>2021-04-26T10:41:57Z</time>
      </trkpt>
      <trkpt lat="45.31711" lon="4.24661">
        <ele>697</ele>
        <time>2021-04-26T10:41:58Z</time>
      </trkpt>
      <trkpt lat="45.31712" lon="4.24655">
        <ele>697</ele>
        <time>2021-04-26T10:41:59Z</time>
      </trkpt>
      <trkpt lat="45.31715" lon="4.24649">
        <ele>697</ele>
        <time>2021-04-26T10:42:00Z</time>
      </trkpt>
      <trkpt lat="45.31717" lon="4.24643">
        <ele>697</ele>
        <time>2021-04-26T10:42:01Z</time>
      </trkpt>
      <trkpt lat="45.3172" lon="4.24638">
        <ele>697</ele>
        <time>2021-04-26T10:42:02Z</time>
      </trkpt>
      <trkpt lat="45.31723" lon="4.24633">
        <ele>697</ele>
        <time>2021-04-26T10:42:03Z</time>
      </trkpt>
      <trkpt lat="45.31726" lon="4.24628">
        <ele>697</ele>
        <time>2021-04-26T10:42:04Z</time>
      </trkpt>
      <trkpt lat="45.3173" lon="4.24623">
        <ele>697</ele>
        <time>2021-04-26T10:42:05Z</time>
      </trkpt>
      <trkpt lat="45.31733" lon="4.24618">
        <ele>698</ele>
        <time>2021-04-26T10:42:06Z</time>
      </trkpt>
      <trkpt lat="45.31736" lon="4.24613">
        <ele>698</ele>
        <time>2021-04-26T10:42:07Z</time>
      </trkpt>
      <trkpt lat="45.31739" lon="4.24608">
        <ele>698</ele>
        <time>2021-04-26T10:42:08Z</time>
      </trkpt>
      <trkpt lat="45.31742" lon="4.24604">
        <ele>699</ele>
        <time>2021-04-26T10:42:09Z</time>
      </trkpt>
      <trkpt lat="45.31743" lon="4.246">
        <ele>699</ele>
        <time>2021-04-26T10:42:10Z</time>
      </trkpt>
      <trkpt lat="45.31743" lon="4.24596">
        <ele>700</ele>
        <time>2021-04-26T10:42:11Z</time>
      </trkpt>
      <trkpt lat="45.31742" lon="4.24592">
        <ele>700</ele>
        <time>2021-04-26T10:42:12Z</time>
      </trkpt>
      <trkpt lat="45.3174" lon="4.24589">
        <ele>700</ele>
        <time>2021-04-26T10:42:13Z</time>
      </trkpt>
      <trkpt lat="45.31737" lon="4.24587">
        <ele>701</ele>
        <time>2021-04-26T10:42:14Z</time>
      </trkpt>
      <trkpt lat="45.31735" lon="4.24586">
        <ele>701</ele>
        <time>2021-04-26T10:42:15Z</time>
      </trkpt>
      <trkpt lat="45.31732" lon="4.24584">
        <ele>701</ele>
        <time>2021-04-26T10:42:16Z</time>
      </trkpt>
      <trkpt lat="45.3173" lon="4.24583">
        <ele>702</ele>
        <time>2021-04-26T10:42:17Z</time>
      </trkpt>
      <trkpt lat="45.31728" lon="4.24581">
        <ele>702</ele>
        <time>2021-04-26T10:42:18Z</time>
      </trkpt>
      <trkpt lat="45.31727" lon="4.24579">
        <ele>702</ele>
        <time>2021-04-26T10:42:19Z</time>
      </trkpt>
      <trkpt lat="45.31725" lon="4.24576">
        <ele>703</ele>
        <time>2021-04-26T10:42:20Z</time>
      </trkpt>
      <trkpt lat="45.31724" lon="4.24573">
        <ele>703</ele>
        <time>2021-04-26T10:42:21Z</time>
      </trkpt>
      <trkpt lat="45.31722" lon="4.2457">
        <ele>703</ele>
        <time>2021-04-26T10:42:22Z</time>
      </trkpt>
      <trkpt lat="45.31721" lon="4.24567">
        <ele>704</ele>
        <time>2021-04-26T10:42:23Z</time>
      </trkpt>
      <trkpt lat="45.31719" lon="4.24565">
        <ele>704</ele>
        <time>2021-04-26T10:42:24Z</time>
      </trkpt>
      <trkpt lat="45.31718" lon="4.24562">
        <ele>704</ele>
        <time>2021-04-26T10:42:25Z</time>
      </trkpt>
      <trkpt lat="45.31717" lon="4.2456">
        <ele>704</ele>
        <time>2021-04-26T10:42:26Z</time>
      </trkpt>
      <trkpt lat="45.31715" lon="4.24558">
        <ele>705</ele>
        <time>2021-04-26T10:42:27Z</time>
      </trkpt>
      <trkpt lat="45.31713" lon="4.24556">
        <ele>705</ele>
        <time>2021-04-26T10:42:28Z</time>
      </trkpt>
      <trkpt lat="45.31711" lon="4.24554">
        <ele>705</ele>
        <time>2021-04-26T10:42:29Z</time>
      </trkpt>
      <trkpt lat="45.31708" lon="4.24552">
        <ele>706</ele>
        <time>2021-04-26T10:42:30Z</time>
      </trkpt>
      <trkpt lat="45.31706" lon="4.24551">
        <ele>706</ele>
        <time>2021-04-26T10:42:31Z</time>
      </trkpt>
      <trkpt lat="45.31705" lon="4.24548">
        <ele>706</ele>
        <time>2021-04-26T10:42:32Z</time>
      </trkpt>
      <trkpt lat="45.31703" lon="4.24546">
        <ele>707</ele>
        <time>2021-04-26T10:42:33Z</time>
      </trkpt>
      <trkpt lat="45.31702" lon="4.24544">
        <ele>707</ele>
        <time>2021-04-26T10:42:34Z</time>
      </trkpt>
      <trkpt lat="45.31702" lon="4.24541">
        <ele>707</ele>
        <time>2021-04-26T10:42:35Z</time>
      </trkpt>
      <trkpt lat="45.31702" lon="4.24537">
        <ele>708</ele>
        <time>2021-04-26T10:42:37Z</time>
      </trkpt>
      <trkpt lat="45.31703" lon="4.24532">
        <ele>708</ele>
        <time>2021-04-26T10:42:39Z</time>
      </trkpt>
      <trkpt lat="45.31703" lon="4.2453">
        <ele>708</ele>
        <time>2021-04-26T10:42:40Z</time>
      </trkpt>
      <trkpt lat="45.31705" lon="4.24527">
        <ele>709</ele>
        <time>2021-04-26T10:42:41Z</time>
      </trkpt>
      <trkpt lat="45.31706" lon="4.24523">
        <ele>709</ele>
        <time>2021-04-26T10:42:42Z</time>
      </trkpt>
      <trkpt lat="45.31707" lon="4.2452">
        <ele>709</ele>
        <time>2021-04-26T10:42:43Z</time>
      </trkpt>
      <trkpt lat="45.31708" lon="4.24517">
        <ele>710</ele>
        <time>2021-04-26T10:42:44Z</time>
      </trkpt>
      <trkpt lat="45.31709" lon="4.24514">
        <ele>710</ele>
        <time>2021-04-26T10:42:45Z</time>
      </trkpt>
      <trkpt lat="45.3171" lon="4.2451">
        <ele>710</ele>
        <time>2021-04-26T10:42:46Z</time>
      </trkpt>
      <trkpt lat="45.31711" lon="4.24507">
        <ele>710</ele>
        <time>2021-04-26T10:42:47Z</time>
      </trkpt>
      <trkpt lat="45.31712" lon="4.24504">
        <ele>711</ele>
        <time>2021-04-26T10:42:48Z</time>
      </trkpt>
      <trkpt lat="45.31712" lon="4.24501">
        <ele>711</ele>
        <time>2021-04-26T10:42:49Z</time>
      </trkpt>
      <trkpt lat="45.31712" lon="4.24497">
        <ele>711</ele>
        <time>2021-04-26T10:42:50Z</time>
      </trkpt>
      <trkpt lat="45.31712" lon="4.24494">
        <ele>711</ele>
        <time>2021-04-26T10:42:51Z</time>
      </trkpt>
      <trkpt lat="45.31712" lon="4.24491">
        <ele>711</ele>
        <time>2021-04-26T10:42:52Z</time>
      </trkpt>
      <trkpt lat="45.31712" lon="4.24488">
        <ele>712</ele>
        <time>2021-04-26T10:42:53Z</time>
      </trkpt>
      <trkpt lat="45.31712" lon="4.24484">
        <ele>712</ele>
        <time>2021-04-26T10:42:54Z</time>
      </trkpt>
      <trkpt lat="45.31712" lon="4.24481">
        <ele>712</ele>
        <time>2021-04-26T10:42:55Z</time>
      </trkpt>
      <trkpt lat="45.31712" lon="4.24478">
        <ele>713</ele>
        <time>2021-04-26T10:42:56Z</time>
      </trkpt>
      <trkpt lat="45.31711" lon="4.24475">
        <ele>713</ele>
        <time>2021-04-26T10:42:57Z</time>
      </trkpt>
      <trkpt lat="45.31711" lon="4.24472">
        <ele>713</ele>
        <time>2021-04-26T10:42:58Z</time>
      </trkpt>
      <trkpt lat="45.3171" lon="4.24469">
        <ele>713</ele>
        <time>2021-04-26T10:42:59Z</time>
      </trkpt>
      <trkpt lat="45.31709" lon="4.24466">
        <ele>714</ele>
        <time>2021-04-26T10:43:00Z</time>
      </trkpt>
      <trkpt lat="45.31709" lon="4.24463">
        <ele>714</ele>
        <time>2021-04-26T10:43:01Z</time>
      </trkpt>
      <trkpt lat="45.3171" lon="4.2446">
        <ele>714</ele>
        <time>2021-04-26T10:43:02Z</time>
      </trkpt>
      <trkpt lat="45.31711" lon="4.24457">
        <ele>714</ele>
        <time>2021-04-26T10:43:03Z</time>
      </trkpt>
      <trkpt lat="45.31713" lon="4.24454">
        <ele>715</ele>
        <time>2021-04-26T10:43:04Z</time>
      </trkpt>
      <trkpt lat="45.31714" lon="4.24452">
        <ele>715</ele>
        <time>2021-04-26T10:43:05Z</time>
      </trkpt>
      <trkpt lat="45.31716" lon="4.24449">
        <ele>715</ele>
        <time>2021-04-26T10:43:06Z</time>
      </trkpt>
      <trkpt lat="45.31717" lon="4.24446">
        <ele>716</ele>
        <time>2021-04-26T10:43:07Z</time>
      </trkpt>
      <trkpt lat="45.31719" lon="4.24444">
        <ele>716</ele>
        <time>2021-04-26T10:43:08Z</time>
      </trkpt>
      <trkpt lat="45.31721" lon="4.24441">
        <ele>716</ele>
        <time>2021-04-26T10:43:09Z</time>
      </trkpt>
      <trkpt lat="45.31722" lon="4.24438">
        <ele>716</ele>
        <time>2021-04-26T10:43:10Z</time>
      </trkpt>
      <trkpt lat="45.31725" lon="4.24432">
        <ele>717</ele>
        <time>2021-04-26T10:43:11Z</time>
      </trkpt>
      <trkpt lat="45.31727" lon="4.24429">
        <ele>717</ele>
        <time>2021-04-26T10:43:13Z</time>
      </trkpt>
      <trkpt lat="45.31728" lon="4.24425">
        <ele>718</ele>
        <time>2021-04-26T10:43:14Z</time>
      </trkpt>
      <trkpt lat="45.31729" lon="4.24422">
        <ele>718</ele>
        <time>2021-04-26T10:43:15Z</time>
      </trkpt>
      <trkpt lat="45.3173" lon="4.24419">
        <ele>718</ele>
        <time>2021-04-26T10:43:16Z</time>
      </trkpt>
      <trkpt lat="45.3173" lon="4.24415">
        <ele>718</ele>
        <time>2021-04-26T10:43:17Z</time>
      </trkpt>
      <trkpt lat="45.31731" lon="4.24412">
        <ele>718</ele>
        <time>2021-04-26T10:43:18Z</time>
      </trkpt>
      <trkpt lat="45.31731" lon="4.24408">
        <ele>719</ele>
        <time>2021-04-26T10:43:19Z</time>
      </trkpt>
      <trkpt lat="45.31731" lon="4.24405">
        <ele>719</ele>
        <time>2021-04-26T10:43:20Z</time>
      </trkpt>
      <trkpt lat="45.3173" lon="4.24401">
        <ele>719</ele>
        <time>2021-04-26T10:43:21Z</time>
      </trkpt>
      <trkpt lat="45.3173" lon="4.24397">
        <ele>720</ele>
        <time>2021-04-26T10:43:22Z</time>
      </trkpt>
      <trkpt lat="45.31729" lon="4.24394">
        <ele>720</ele>
        <time>2021-04-26T10:43:23Z</time>
      </trkpt>
      <trkpt lat="45.31728" lon="4.2439">
        <ele>720</ele>
        <time>2021-04-26T10:43:24Z</time>
      </trkpt>
      <trkpt lat="45.31727" lon="4.24387">
        <ele>720</ele>
        <time>2021-04-26T10:43:25Z</time>
      </trkpt>
      <trkpt lat="45.31726" lon="4.24384">
        <ele>721</ele>
        <time>2021-04-26T10:43:26Z</time>
      </trkpt>
      <trkpt lat="45.31724" lon="4.24381">
        <ele>722</ele>
        <time>2021-04-26T10:43:27Z</time>
      </trkpt>
      <trkpt lat="45.31723" lon="4.24379">
        <ele>722</ele>
        <time>2021-04-26T10:43:28Z</time>
      </trkpt>
      <trkpt lat="45.31721" lon="4.24376">
        <ele>722</ele>
        <time>2021-04-26T10:43:29Z</time>
      </trkpt>
      <trkpt lat="45.31719" lon="4.24374">
        <ele>723</ele>
        <time>2021-04-26T10:43:30Z</time>
      </trkpt>
      <trkpt lat="45.31718" lon="4.24372">
        <ele>723</ele>
        <time>2021-04-26T10:43:31Z</time>
      </trkpt>
      <trkpt lat="45.31716" lon="4.24371">
        <ele>723</ele>
        <time>2021-04-26T10:43:32Z</time>
      </trkpt>
      <trkpt lat="45.31714" lon="4.24369">
        <ele>724</ele>
        <time>2021-04-26T10:43:33Z</time>
      </trkpt>
      <trkpt lat="45.31712" lon="4.24368">
        <ele>724</ele>
        <time>2021-04-26T10:43:34Z</time>
      </trkpt>
      <trkpt lat="45.3171" lon="4.24366">
        <ele>724</ele>
        <time>2021-04-26T10:43:35Z</time>
      </trkpt>
      <trkpt lat="45.31708" lon="4.24364">
        <ele>725</ele>
        <time>2021-04-26T10:43:36Z</time>
      </trkpt>
      <trkpt lat="45.31706" lon="4.24363">
        <ele>725</ele>
        <time>2021-04-26T10:43:37Z</time>
      </trkpt>
      <trkpt lat="45.31704" lon="4.24361">
        <ele>725</ele>
        <time>2021-04-26T10:43:38Z</time>
      </trkpt>
      <trkpt lat="45.31703" lon="4.24359">
        <ele>726</ele>
        <time>2021-04-26T10:43:39Z</time>
      </trkpt>
      <trkpt lat="45.31701" lon="4.24357">
        <ele>726</ele>
        <time>2021-04-26T10:43:40Z</time>
      </trkpt>
      <trkpt lat="45.31699" lon="4.24355">
        <ele>726</ele>
        <time>2021-04-26T10:43:41Z</time>
      </trkpt>
      <trkpt lat="45.31697" lon="4.24353">
        <ele>726</ele>
        <time>2021-04-26T10:43:42Z</time>
      </trkpt>
      <trkpt lat="45.31696" lon="4.24351">
        <ele>726</ele>
        <time>2021-04-26T10:43:43Z</time>
      </trkpt>
      <trkpt lat="45.31694" lon="4.24349">
        <ele>727</ele>
        <time>2021-04-26T10:43:44Z</time>
      </trkpt>
      <trkpt lat="45.31692" lon="4.24346">
        <ele>727</ele>
        <time>2021-04-26T10:43:45Z</time>
      </trkpt>
      <trkpt lat="45.31691" lon="4.24344">
        <ele>727</ele>
        <time>2021-04-26T10:43:46Z</time>
      </trkpt>
      <trkpt lat="45.31689" lon="4.24342">
        <ele>728</ele>
        <time>2021-04-26T10:43:47Z</time>
      </trkpt>
      <trkpt lat="45.31688" lon="4.24339">
        <ele>728</ele>
        <time>2021-04-26T10:43:48Z</time>
      </trkpt>
      <trkpt lat="45.31686" lon="4.24336">
        <ele>728</ele>
        <time>2021-04-26T10:43:49Z</time>
      </trkpt>
      <trkpt lat="45.31685" lon="4.24333">
        <ele>728</ele>
        <time>2021-04-26T10:43:50Z</time>
      </trkpt>
      <trkpt lat="45.31684" lon="4.24331">
        <ele>729</ele>
        <time>2021-04-26T10:43:51Z</time>
      </trkpt>
      <trkpt lat="45.31683" lon="4.24328">
        <ele>729</ele>
        <time>2021-04-26T10:43:52Z</time>
      </trkpt>
      <trkpt lat="45.31682" lon="4.24326">
        <ele>729</ele>
        <time>2021-04-26T10:43:53Z</time>
      </trkpt>
      <trkpt lat="45.31681" lon="4.24323">
        <ele>729</ele>
        <time>2021-04-26T10:43:54Z</time>
      </trkpt>
      <trkpt lat="45.3168" lon="4.24321">
        <ele>730</ele>
        <time>2021-04-26T10:43:55Z</time>
      </trkpt>
      <trkpt lat="45.31678" lon="4.2432">
        <ele>730</ele>
        <time>2021-04-26T10:43:56Z</time>
      </trkpt>
      <trkpt lat="45.31677" lon="4.24317">
        <ele>730</ele>
        <time>2021-04-26T10:43:57Z</time>
      </trkpt>
      <trkpt lat="45.31676" lon="4.24314">
        <ele>731</ele>
        <time>2021-04-26T10:43:58Z</time>
      </trkpt>
      <trkpt lat="45.31674" lon="4.24309">
        <ele>731</ele>
        <time>2021-04-26T10:43:59Z</time>
      </trkpt>
      <trkpt lat="45.31672" lon="4.24307">
        <ele>731</ele>
        <time>2021-04-26T10:44:01Z</time>
      </trkpt>
      <trkpt lat="45.31671" lon="4.24305">
        <ele>732</ele>
        <time>2021-04-26T10:44:02Z</time>
      </trkpt>
      <trkpt lat="45.3167" lon="4.24302">
        <ele>732</ele>
        <time>2021-04-26T10:44:03Z</time>
      </trkpt>
      <trkpt lat="45.31668" lon="4.24297">
        <ele>732</ele>
        <time>2021-04-26T10:44:05Z</time>
      </trkpt>
      <trkpt lat="45.31666" lon="4.24287">
        <ele>733</ele>
        <time>2021-04-26T10:44:08Z</time>
      </trkpt>
      <trkpt lat="45.31665" lon="4.24283">
        <ele>733</ele>
        <time>2021-04-26T10:44:09Z</time>
      </trkpt>
      <trkpt lat="45.31664" lon="4.2428">
        <ele>734</ele>
        <time>2021-04-26T10:44:10Z</time>
      </trkpt>
      <trkpt lat="45.31664" lon="4.24277">
        <ele>734</ele>
        <time>2021-04-26T10:44:11Z</time>
      </trkpt>
      <trkpt lat="45.31662" lon="4.24275">
        <ele>735</ele>
        <time>2021-04-26T10:44:12Z</time>
      </trkpt>
      <trkpt lat="45.31658" lon="4.24267">
        <ele>735</ele>
        <time>2021-04-26T10:44:15Z</time>
      </trkpt>
      <trkpt lat="45.31657" lon="4.24265">
        <ele>736</ele>
        <time>2021-04-26T10:44:16Z</time>
      </trkpt>
      <trkpt lat="45.31654" lon="4.24261">
        <ele>737</ele>
        <time>2021-04-26T10:44:19Z</time>
      </trkpt>
      <trkpt lat="45.31654" lon="4.24259">
        <ele>738</ele>
        <time>2021-04-26T10:44:23Z</time>
      </trkpt>
      <trkpt lat="45.31652" lon="4.24255">
        <ele>739</ele>
        <time>2021-04-26T10:44:36Z</time>
      </trkpt>
      <trkpt lat="45.3165" lon="4.24252">
        <ele>740</ele>
        <time>2021-04-26T10:44:38Z</time>
      </trkpt>
      <trkpt lat="45.31648" lon="4.24249">
        <ele>741</ele>
        <time>2021-04-26T10:44:40Z</time>
      </trkpt>
      <trkpt lat="45.31646" lon="4.24245">
        <ele>741</ele>
        <time>2021-04-26T10:44:42Z</time>
      </trkpt>
      <trkpt lat="45.31644" lon="4.24242">
        <ele>742</ele>
        <time>2021-04-26T10:44:44Z</time>
      </trkpt>
      <trkpt lat="45.31642" lon="4.24238">
        <ele>742</ele>
        <time>2021-04-26T10:44:46Z</time>
      </trkpt>
      <trkpt lat="45.3164" lon="4.24234">
        <ele>743</ele>
        <time>2021-04-26T10:44:48Z</time>
      </trkpt>
      <trkpt lat="45.31639" lon="4.24231">
        <ele>743</ele>
        <time>2021-04-26T10:44:50Z</time>
      </trkpt>
      <trkpt lat="45.31637" lon="4.24228">
        <ele>744</ele>
        <time>2021-04-26T10:44:52Z</time>
      </trkpt>
      <trkpt lat="45.31636" lon="4.24224">
        <ele>744</ele>
        <time>2021-04-26T10:44:54Z</time>
      </trkpt>
      <trkpt lat="45.31634" lon="4.24221">
        <ele>744</ele>
        <time>2021-04-26T10:44:56Z</time>
      </trkpt>
      <trkpt lat="45.31633" lon="4.24217">
        <ele>745</ele>
        <time>2021-04-26T10:44:58Z</time>
      </trkpt>
      <trkpt lat="45.31631" lon="4.24214">
        <ele>746</ele>
        <time>2021-04-26T10:44:59Z</time>
      </trkpt>
      <trkpt lat="45.31629" lon="4.24211">
        <ele>747</ele>
        <time>2021-04-26T10:45:02Z</time>
      </trkpt>
      <trkpt lat="45.31627" lon="4.24207">
        <ele>747</ele>
        <time>2021-04-26T10:45:04Z</time>
      </trkpt>
      <trkpt lat="45.31626" lon="4.24204">
        <ele>748</ele>
        <time>2021-04-26T10:45:06Z</time>
      </trkpt>
      <trkpt lat="45.31625" lon="4.24201">
        <ele>749</ele>
        <time>2021-04-26T10:45:08Z</time>
      </trkpt>
      <trkpt lat="45.31623" lon="4.24198">
        <ele>749</ele>
        <time>2021-04-26T10:45:10Z</time>
      </trkpt>
      <trkpt lat="45.31622" lon="4.24194">
        <ele>750</ele>
        <time>2021-04-26T10:45:12Z</time>
      </trkpt>
      <trkpt lat="45.31621" lon="4.2419">
        <ele>750</ele>
        <time>2021-04-26T10:45:14Z</time>
      </trkpt>
      <trkpt lat="45.31619" lon="4.24186">
        <ele>751</ele>
        <time>2021-04-26T10:45:16Z</time>
      </trkpt>
      <trkpt lat="45.31617" lon="4.24183">
        <ele>751</ele>
        <time>2021-04-26T10:45:18Z</time>
      </trkpt>
      <trkpt lat="45.31616" lon="4.2418">
        <ele>752</ele>
        <time>2021-04-26T10:45:20Z</time>
      </trkpt>
      <trkpt lat="45.31615" lon="4.24175">
        <ele>752</ele>
        <time>2021-04-26T10:45:22Z</time>
      </trkpt>
      <trkpt lat="45.31613" lon="4.24172">
        <ele>753</ele>
        <time>2021-04-26T10:45:24Z</time>
      </trkpt>
      <trkpt lat="45.3161" lon="4.24169">
        <ele>753</ele>
        <time>2021-04-26T10:45:26Z</time>
      </trkpt>
      <trkpt lat="45.31608" lon="4.24167">
        <ele>754</ele>
        <time>2021-04-26T10:45:28Z</time>
      </trkpt>
      <trkpt lat="45.31605" lon="4.24164">
        <ele>754</ele>
        <time>2021-04-26T10:45:30Z</time>
      </trkpt>
      <trkpt lat="45.31603" lon="4.24162">
        <ele>755</ele>
        <time>2021-04-26T10:45:32Z</time>
      </trkpt>
      <trkpt lat="45.316" lon="4.2416">
        <ele>755</ele>
        <time>2021-04-26T10:45:34Z</time>
      </trkpt>
      <trkpt lat="45.31598" lon="4.24159">
        <ele>756</ele>
        <time>2021-04-26T10:45:36Z</time>
      </trkpt>
      <trkpt lat="45.31595" lon="4.24158">
        <ele>756</ele>
        <time>2021-04-26T10:45:37Z</time>
      </trkpt>
      <trkpt lat="45.31592" lon="4.24157">
        <ele>756</ele>
        <time>2021-04-26T10:45:40Z</time>
      </trkpt>
      <trkpt lat="45.31589" lon="4.24158">
        <ele>757</ele>
        <time>2021-04-26T10:45:42Z</time>
      </trkpt>
      <trkpt lat="45.31587" lon="4.24159">
        <ele>757</ele>
        <time>2021-04-26T10:45:44Z</time>
      </trkpt>
      <trkpt lat="45.31584" lon="4.2416">
        <ele>757</ele>
        <time>2021-04-26T10:45:46Z</time>
      </trkpt>
      <trkpt lat="45.31582" lon="4.24163">
        <ele>758</ele>
        <time>2021-04-26T10:45:48Z</time>
      </trkpt>
      <trkpt lat="45.3158" lon="4.24166">
        <ele>758</ele>
        <time>2021-04-26T10:45:50Z</time>
      </trkpt>
      <trkpt lat="45.31579" lon="4.24169">
        <ele>758</ele>
        <time>2021-04-26T10:46:33Z</time>
      </trkpt>
      <trkpt lat="45.31582" lon="4.24182">
        <ele>760</ele>
        <time>2021-04-26T10:48:15Z</time>
      </trkpt>
      <trkpt lat="45.31581" lon="4.24191">
        <ele>759</ele>
        <time>2021-04-26T10:48:17Z</time>
      </trkpt>
      <trkpt lat="45.3158" lon="4.24195">
        <ele>759</ele>
        <time>2021-04-26T10:48:18Z</time>
      </trkpt>
      <trkpt lat="45.3158" lon="4.24201">
        <ele>758</ele>
        <time>2021-04-26T10:48:19Z</time>
      </trkpt>
      <trkpt lat="45.31581" lon="4.24206">
        <ele>758</ele>
        <time>2021-04-26T10:48:20Z</time>
      </trkpt>
      <trkpt lat="45.31581" lon="4.24212">
        <ele>758</ele>
        <time>2021-04-26T10:48:21Z</time>
      </trkpt>
      <trkpt lat="45.31581" lon="4.24218">
        <ele>758</ele>
        <time>2021-04-26T10:48:22Z</time>
      </trkpt>
      <trkpt lat="45.3158" lon="4.24224">
        <ele>757</ele>
        <time>2021-04-26T10:48:23Z</time>
      </trkpt>
      <trkpt lat="45.3158" lon="4.2423">
        <ele>757</ele>
        <time>2021-04-26T10:48:24Z</time>
      </trkpt>
      <trkpt lat="45.3158" lon="4.24236">
        <ele>756</ele>
        <time>2021-04-26T10:48:25Z</time>
      </trkpt>
      <trkpt lat="45.3158" lon="4.24242">
        <ele>756</ele>
        <time>2021-04-26T10:48:26Z</time>
      </trkpt>
      <trkpt lat="45.31579" lon="4.24249">
        <ele>756</ele>
        <time>2021-04-26T10:48:27Z</time>
      </trkpt>
      <trkpt lat="45.31578" lon="4.24255">
        <ele>756</ele>
        <time>2021-04-26T10:48:28Z</time>
      </trkpt>
      <trkpt lat="45.31575" lon="4.2426">
        <ele>755</ele>
        <time>2021-04-26T10:48:29Z</time>
      </trkpt>
      <trkpt lat="45.31572" lon="4.24263">
        <ele>755</ele>
        <time>2021-04-26T10:48:30Z</time>
      </trkpt>
      <trkpt lat="45.31568" lon="4.24265">
        <ele>755</ele>
        <time>2021-04-26T10:48:31Z</time>
      </trkpt>
      <trkpt lat="45.31564" lon="4.24265">
        <ele>755</ele>
        <time>2021-04-26T10:48:32Z</time>
      </trkpt>
      <trkpt lat="45.31561" lon="4.24265">
        <ele>756</ele>
        <time>2021-04-26T10:48:33Z</time>
      </trkpt>
      <trkpt lat="45.31557" lon="4.24264">
        <ele>756</ele>
        <time>2021-04-26T10:48:34Z</time>
      </trkpt>
      <trkpt lat="45.31553" lon="4.24264">
        <ele>756</ele>
        <time>2021-04-26T10:48:35Z</time>
      </trkpt>
      <trkpt lat="45.3155" lon="4.24263">
        <ele>756</ele>
        <time>2021-04-26T10:48:36Z</time>
      </trkpt>
      <trkpt lat="45.31546" lon="4.24262">
        <ele>756</ele>
        <time>2021-04-26T10:48:37Z</time>
      </trkpt>
      <trkpt lat="45.31542" lon="4.24261">
        <ele>756</ele>
        <time>2021-04-26T10:48:38Z</time>
      </trkpt>
      <trkpt lat="45.31538" lon="4.24261">
        <ele>756</ele>
        <time>2021-04-26T10:48:39Z</time>
      </trkpt>
      <trkpt lat="45.31534" lon="4.2426">
        <ele>756</ele>
        <time>2021-04-26T10:48:40Z</time>
      </trkpt>
      <trkpt lat="45.3153" lon="4.24259">
        <ele>756</ele>
        <time>2021-04-26T10:48:41Z</time>
      </trkpt>
      <trkpt lat="45.31526" lon="4.24258">
        <ele>756</ele>
        <time>2021-04-26T10:48:42Z</time>
      </trkpt>
      <trkpt lat="45.31522" lon="4.24258">
        <ele>756</ele>
        <time>2021-04-26T10:48:43Z</time>
      </trkpt>
      <trkpt lat="45.31518" lon="4.24257">
        <ele>756</ele>
        <time>2021-04-26T10:48:44Z</time>
      </trkpt>
      <trkpt lat="45.31514" lon="4.24257">
        <ele>756</ele>
        <time>2021-04-26T10:48:45Z</time>
      </trkpt>
      <trkpt lat="45.3151" lon="4.24256">
        <ele>756</ele>
        <time>2021-04-26T10:48:46Z</time>
      </trkpt>
      <trkpt lat="45.31505" lon="4.24255">
        <ele>756</ele>
        <time>2021-04-26T10:48:47Z</time>
      </trkpt>
      <trkpt lat="45.31501" lon="4.24255">
        <ele>756</ele>
        <time>2021-04-26T10:48:48Z</time>
      </trkpt>
      <trkpt lat="45.31497" lon="4.24254">
        <ele>756</ele>
        <time>2021-04-26T10:48:49Z</time>
      </trkpt>
      <trkpt lat="45.31492" lon="4.24253">
        <ele>757</ele>
        <time>2021-04-26T10:48:50Z</time>
      </trkpt>
      <trkpt lat="45.31488" lon="4.24252">
        <ele>757</ele>
        <time>2021-04-26T10:48:51Z</time>
      </trkpt>
      <trkpt lat="45.31484" lon="4.24252">
        <ele>757</ele>
        <time>2021-04-26T10:48:52Z</time>
      </trkpt>
      <trkpt lat="45.31479" lon="4.24251">
        <ele>757</ele>
        <time>2021-04-26T10:48:53Z</time>
      </trkpt>
      <trkpt lat="45.31475" lon="4.2425">
        <ele>757</ele>
        <time>2021-04-26T10:48:54Z</time>
      </trkpt>
      <trkpt lat="45.31471" lon="4.2425">
        <ele>757</ele>
        <time>2021-04-26T10:48:55Z</time>
      </trkpt>
      <trkpt lat="45.31466" lon="4.24249">
        <ele>757</ele>
        <time>2021-04-26T10:48:56Z</time>
      </trkpt>
      <trkpt lat="45.31462" lon="4.24248">
        <ele>758</ele>
        <time>2021-04-26T10:48:57Z</time>
      </trkpt>
      <trkpt lat="45.31457" lon="4.24248">
        <ele>758</ele>
        <time>2021-04-26T10:48:58Z</time>
      </trkpt>
      <trkpt lat="45.31453" lon="4.24247">
        <ele>758</ele>
        <time>2021-04-26T10:48:59Z</time>
      </trkpt>
      <trkpt lat="45.31449" lon="4.24247">
        <ele>758</ele>
        <time>2021-04-26T10:49:00Z</time>
      </trkpt>
      <trkpt lat="45.31444" lon="4.24247">
        <ele>759</ele>
        <time>2021-04-26T10:49:01Z</time>
      </trkpt>
      <trkpt lat="45.3144" lon="4.24247">
        <ele>759</ele>
        <time>2021-04-26T10:49:02Z</time>
      </trkpt>
      <trkpt lat="45.31436" lon="4.24247">
        <ele>759</ele>
        <time>2021-04-26T10:49:03Z</time>
      </trkpt>
      <trkpt lat="45.31432" lon="4.24246">
        <ele>759</ele>
        <time>2021-04-26T10:49:04Z</time>
      </trkpt>
      <trkpt lat="45.31429" lon="4.24246">
        <ele>760</ele>
        <time>2021-04-26T10:49:05Z</time>
      </trkpt>
      <trkpt lat="45.31426" lon="4.24246">
        <ele>760</ele>
        <time>2021-04-26T10:49:06Z</time>
      </trkpt>
      <trkpt lat="45.31422" lon="4.24245">
        <ele>760</ele>
        <time>2021-04-26T10:49:07Z</time>
      </trkpt>
      <trkpt lat="45.31419" lon="4.24244">
        <ele>760</ele>
        <time>2021-04-26T10:49:08Z</time>
      </trkpt>
      <trkpt lat="45.31416" lon="4.24244">
        <ele>761</ele>
        <time>2021-04-26T10:49:09Z</time>
      </trkpt>
      <trkpt lat="45.31413" lon="4.24243">
        <ele>761</ele>
        <time>2021-04-26T10:49:10Z</time>
      </trkpt>
      <trkpt lat="45.3141" lon="4.24243">
        <ele>761</ele>
        <time>2021-04-26T10:49:11Z</time>
      </trkpt>
      <trkpt lat="45.31406" lon="4.24243">
        <ele>761</ele>
        <time>2021-04-26T10:49:12Z</time>
      </trkpt>
      <trkpt lat="45.31403" lon="4.24242">
        <ele>762</ele>
        <time>2021-04-26T10:49:13Z</time>
      </trkpt>
      <trkpt lat="45.31399" lon="4.24241">
        <ele>762</ele>
        <time>2021-04-26T10:49:14Z</time>
      </trkpt>
      <trkpt lat="45.31396" lon="4.24241">
        <ele>762</ele>
        <time>2021-04-26T10:49:15Z</time>
      </trkpt>
      <trkpt lat="45.31393" lon="4.2424">
        <ele>762</ele>
        <time>2021-04-26T10:49:16Z</time>
      </trkpt>
      <trkpt lat="45.3139" lon="4.24239">
        <ele>763</ele>
        <time>2021-04-26T10:49:17Z</time>
      </trkpt>
      <trkpt lat="45.31387" lon="4.24239">
        <ele>763</ele>
        <time>2021-04-26T10:49:18Z</time>
      </trkpt>
      <trkpt lat="45.31383" lon="4.24238">
        <ele>763</ele>
        <time>2021-04-26T10:49:19Z</time>
      </trkpt>
      <trkpt lat="45.3138" lon="4.24237">
        <ele>763</ele>
        <time>2021-04-26T10:49:20Z</time>
      </trkpt>
      <trkpt lat="45.31377" lon="4.24237">
        <ele>764</ele>
        <time>2021-04-26T10:49:21Z</time>
      </trkpt>
      <trkpt lat="45.31367" lon="4.24234">
        <ele>765</ele>
        <time>2021-04-26T10:49:25Z</time>
      </trkpt>
      <trkpt lat="45.31358" lon="4.24234">
        <ele>765</ele>
        <time>2021-04-26T10:49:28Z</time>
      </trkpt>
      <trkpt lat="45.31349" lon="4.24233">
        <ele>767</ele>
        <time>2021-04-26T10:49:32Z</time>
      </trkpt>
      <trkpt lat="45.3134" lon="4.24235">
        <ele>768</ele>
        <time>2021-04-26T10:49:35Z</time>
      </trkpt>
      <trkpt lat="45.3133" lon="4.24237">
        <ele>768</ele>
        <time>2021-04-26T10:49:39Z</time>
      </trkpt>
      <trkpt lat="45.31322" lon="4.24243">
        <ele>769</ele>
        <time>2021-04-26T10:49:42Z</time>
      </trkpt>
      <trkpt lat="45.31311" lon="4.2425">
        <ele>769</ele>
        <time>2021-04-26T10:49:45Z</time>
      </trkpt>
      <trkpt lat="45.31299" lon="4.24258">
        <ele>770</ele>
        <time>2021-04-26T10:49:48Z</time>
      </trkpt>
      <trkpt lat="45.31288" lon="4.24266">
        <ele>771</ele>
        <time>2021-04-26T10:49:51Z</time>
      </trkpt>
      <trkpt lat="45.31277" lon="4.24274">
        <ele>772</ele>
        <time>2021-04-26T10:49:54Z</time>
      </trkpt>
      <trkpt lat="45.31266" lon="4.24278">
        <ele>772</ele>
        <time>2021-04-26T10:49:57Z</time>
      </trkpt>
      <trkpt lat="45.31254" lon="4.24284">
        <ele>773</ele>
        <time>2021-04-26T10:49:59Z</time>
      </trkpt>
      <trkpt lat="45.31241" lon="4.2429">
        <ele>773</ele>
        <time>2021-04-26T10:50:03Z</time>
      </trkpt>
      <trkpt lat="45.31227" lon="4.24294">
        <ele>774</ele>
        <time>2021-04-26T10:50:06Z</time>
      </trkpt>
      <trkpt lat="45.31216" lon="4.24299">
        <ele>774</ele>
        <time>2021-04-26T10:50:09Z</time>
      </trkpt>
      <trkpt lat="45.31204" lon="4.24302">
        <ele>775</ele>
        <time>2021-04-26T10:50:12Z</time>
      </trkpt>
      <trkpt lat="45.31192" lon="4.24305">
        <ele>777</ele>
        <time>2021-04-26T10:50:15Z</time>
      </trkpt>
      <trkpt lat="45.31181" lon="4.24309">
        <ele>777</ele>
        <time>2021-04-26T10:50:17Z</time>
      </trkpt>
      <trkpt lat="45.31168" lon="4.24311">
        <ele>777</ele>
        <time>2021-04-26T10:50:19Z</time>
      </trkpt>
      <trkpt lat="45.31158" lon="4.2431">
        <ele>779</ele>
        <time>2021-04-26T10:50:21Z</time>
      </trkpt>
      <trkpt lat="45.31148" lon="4.24307">
        <ele>779</ele>
        <time>2021-04-26T10:50:23Z</time>
      </trkpt>
      <trkpt lat="45.31139" lon="4.24303">
        <ele>780</ele>
        <time>2021-04-26T10:50:25Z</time>
      </trkpt>
      <trkpt lat="45.31128" lon="4.24299">
        <ele>780</ele>
        <time>2021-04-26T10:50:27Z</time>
      </trkpt>
      <trkpt lat="45.31117" lon="4.24294">
        <ele>780</ele>
        <time>2021-04-26T10:50:29Z</time>
      </trkpt>
      <trkpt lat="45.31107" lon="4.2429">
        <ele>781</ele>
        <time>2021-04-26T10:50:31Z</time>
      </trkpt>
      <trkpt lat="45.31094" lon="4.24289">
        <ele>782</ele>
        <time>2021-04-26T10:50:34Z</time>
      </trkpt>
      <trkpt lat="45.31083" lon="4.24291">
        <ele>783</ele>
        <time>2021-04-26T10:50:36Z</time>
      </trkpt>
      <trkpt lat="45.3107" lon="4.24292">
        <ele>783</ele>
        <time>2021-04-26T10:50:38Z</time>
      </trkpt>
      <trkpt lat="45.31059" lon="4.24291">
        <ele>785</ele>
        <time>2021-04-26T10:50:40Z</time>
      </trkpt>
      <trkpt lat="45.31047" lon="4.24288">
        <ele>786</ele>
        <time>2021-04-26T10:50:43Z</time>
      </trkpt>
      <trkpt lat="45.31038" lon="4.24281">
        <ele>787</ele>
        <time>2021-04-26T10:50:46Z</time>
      </trkpt>
      <trkpt lat="45.31026" lon="4.24276">
        <ele>788</ele>
        <time>2021-04-26T10:50:49Z</time>
      </trkpt>
      <trkpt lat="45.31014" lon="4.24272">
        <ele>788</ele>
        <time>2021-04-26T10:50:52Z</time>
      </trkpt>
      <trkpt lat="45.31007" lon="4.24269">
        <ele>789</ele>
        <time>2021-04-26T10:50:54Z</time>
      </trkpt>
      <trkpt lat="45.31004" lon="4.24268">
        <ele>790</ele>
        <time>2021-04-26T10:50:55Z</time>
      </trkpt>
      <trkpt lat="45.31001" lon="4.24267">
        <ele>790</ele>
        <time>2021-04-26T10:50:56Z</time>
      </trkpt>
      <trkpt lat="45.30999" lon="4.24266">
        <ele>790</ele>
        <time>2021-04-26T10:50:57Z</time>
      </trkpt>
      <trkpt lat="45.30996" lon="4.24264">
        <ele>791</ele>
        <time>2021-04-26T10:50:58Z</time>
      </trkpt>
      <trkpt lat="45.30993" lon="4.24263">
        <ele>791</ele>
        <time>2021-04-26T10:50:59Z</time>
      </trkpt>
      <trkpt lat="45.30988" lon="4.24262">
        <ele>791</ele>
        <time>2021-04-26T10:51:00Z</time>
      </trkpt>
      <trkpt lat="45.30984" lon="4.24261">
        <ele>792</ele>
        <time>2021-04-26T10:51:01Z</time>
      </trkpt>
      <trkpt lat="45.30974" lon="4.24258">
        <ele>792</ele>
        <time>2021-04-26T10:51:03Z</time>
      </trkpt>
      <trkpt lat="45.30969" lon="4.24256">
        <ele>792</ele>
        <time>2021-04-26T10:51:04Z</time>
      </trkpt>
      <trkpt lat="45.30964" lon="4.24254">
        <ele>792</ele>
        <time>2021-04-26T10:51:05Z</time>
      </trkpt>
      <trkpt lat="45.30959" lon="4.24252">
        <ele>792</ele>
        <time>2021-04-26T10:51:06Z</time>
      </trkpt>
      <trkpt lat="45.30954" lon="4.2425">
        <ele>792</ele>
        <time>2021-04-26T10:51:07Z</time>
      </trkpt>
      <trkpt lat="45.30949" lon="4.24247">
        <ele>792</ele>
        <time>2021-04-26T10:51:08Z</time>
      </trkpt>
      <trkpt lat="45.30944" lon="4.24244">
        <ele>792</ele>
        <time>2021-04-26T10:51:09Z</time>
      </trkpt>
      <trkpt lat="45.3094" lon="4.2424">
        <ele>792</ele>
        <time>2021-04-26T10:51:10Z</time>
      </trkpt>
      <trkpt lat="45.30937" lon="4.24234">
        <ele>792</ele>
        <time>2021-04-26T10:51:11Z</time>
      </trkpt>
      <trkpt lat="45.30934" lon="4.24228">
        <ele>792</ele>
        <time>2021-04-26T10:51:12Z</time>
      </trkpt>
      <trkpt lat="45.30931" lon="4.24221">
        <ele>792</ele>
        <time>2021-04-26T10:51:13Z</time>
      </trkpt>
      <trkpt lat="45.30928" lon="4.24216">
        <ele>792</ele>
        <time>2021-04-26T10:51:14Z</time>
      </trkpt>
      <trkpt lat="45.30924" lon="4.2421">
        <ele>791</ele>
        <time>2021-04-26T10:51:15Z</time>
      </trkpt>
      <trkpt lat="45.3092" lon="4.24205">
        <ele>791</ele>
        <time>2021-04-26T10:51:16Z</time>
      </trkpt>
      <trkpt lat="45.30915" lon="4.24201">
        <ele>791</ele>
        <time>2021-04-26T10:51:17Z</time>
      </trkpt>
      <trkpt lat="45.3091" lon="4.24197">
        <ele>791</ele>
        <time>2021-04-26T10:51:18Z</time>
      </trkpt>
      <trkpt lat="45.30905" lon="4.24193">
        <ele>791</ele>
        <time>2021-04-26T10:51:19Z</time>
      </trkpt>
      <trkpt lat="45.309" lon="4.24188">
        <ele>791</ele>
        <time>2021-04-26T10:51:20Z</time>
      </trkpt>
      <trkpt lat="45.30896" lon="4.24183">
        <ele>791</ele>
        <time>2021-04-26T10:51:21Z</time>
      </trkpt>
      <trkpt lat="45.30891" lon="4.24177">
        <ele>791</ele>
        <time>2021-04-26T10:51:22Z</time>
      </trkpt>
      <trkpt lat="45.30886" lon="4.24171">
        <ele>791</ele>
        <time>2021-04-26T10:51:23Z</time>
      </trkpt>
      <trkpt lat="45.30881" lon="4.24165">
        <ele>791</ele>
        <time>2021-04-26T10:51:24Z</time>
      </trkpt>
      <trkpt lat="45.30876" lon="4.24159">
        <ele>791</ele>
        <time>2021-04-26T10:51:25Z</time>
      </trkpt>
      <trkpt lat="45.30871" lon="4.24154">
        <ele>790</ele>
        <time>2021-04-26T10:51:26Z</time>
      </trkpt>
      <trkpt lat="45.30866" lon="4.24148">
        <ele>790</ele>
        <time>2021-04-26T10:51:27Z</time>
      </trkpt>
      <trkpt lat="45.30855" lon="4.24137">
        <ele>790</ele>
        <time>2021-04-26T10:51:29Z</time>
      </trkpt>
      <trkpt lat="45.3085" lon="4.24131">
        <ele>788</ele>
        <time>2021-04-26T10:51:30Z</time>
      </trkpt>
      <trkpt lat="45.30844" lon="4.24125">
        <ele>788</ele>
        <time>2021-04-26T10:51:31Z</time>
      </trkpt>
      <trkpt lat="45.30839" lon="4.24119">
        <ele>787</ele>
        <time>2021-04-26T10:51:32Z</time>
      </trkpt>
      <trkpt lat="45.30834" lon="4.24113">
        <ele>787</ele>
        <time>2021-04-26T10:51:33Z</time>
      </trkpt>
      <trkpt lat="45.30824" lon="4.24104">
        <ele>787</ele>
        <time>2021-04-26T10:51:35Z</time>
      </trkpt>
      <trkpt lat="45.30814" lon="4.241">
        <ele>787</ele>
        <time>2021-04-26T10:51:37Z</time>
      </trkpt>
      <trkpt lat="45.30809" lon="4.24098">
        <ele>787</ele>
        <time>2021-04-26T10:51:38Z</time>
      </trkpt>
      <trkpt lat="45.30805" lon="4.24097">
        <ele>787</ele>
        <time>2021-04-26T10:51:39Z</time>
      </trkpt>
      <trkpt lat="45.30796" lon="4.24092">
        <ele>787</ele>
        <time>2021-04-26T10:51:41Z</time>
      </trkpt>
      <trkpt lat="45.30787" lon="4.24085">
        <ele>786</ele>
        <time>2021-04-26T10:51:43Z</time>
      </trkpt>
      <trkpt lat="45.30781" lon="4.24075">
        <ele>786</ele>
        <time>2021-04-26T10:51:45Z</time>
      </trkpt>
      <trkpt lat="45.30777" lon="4.24071">
        <ele>785</ele>
        <time>2021-04-26T10:51:46Z</time>
      </trkpt>
      <trkpt lat="45.30772" lon="4.24067">
        <ele>785</ele>
        <time>2021-04-26T10:51:47Z</time>
      </trkpt>
      <trkpt lat="45.30768" lon="4.24064">
        <ele>785</ele>
        <time>2021-04-26T10:51:48Z</time>
      </trkpt>
      <trkpt lat="45.30763" lon="4.24061">
        <ele>784</ele>
        <time>2021-04-26T10:51:49Z</time>
      </trkpt>
      <trkpt lat="45.30759" lon="4.24058">
        <ele>784</ele>
        <time>2021-04-26T10:51:50Z</time>
      </trkpt>
      <trkpt lat="45.3075" lon="4.24052">
        <ele>784</ele>
        <time>2021-04-26T10:51:52Z</time>
      </trkpt>
      <trkpt lat="45.30742" lon="4.24044">
        <ele>783</ele>
        <time>2021-04-26T10:51:54Z</time>
      </trkpt>
      <trkpt lat="45.30732" lon="4.24036">
        <ele>783</ele>
        <time>2021-04-26T10:51:56Z</time>
      </trkpt>
      <trkpt lat="45.30722" lon="4.24029">
        <ele>783</ele>
        <time>2021-04-26T10:51:58Z</time>
      </trkpt>
      <trkpt lat="45.30713" lon="4.2402">
        <ele>782</ele>
        <time>2021-04-26T10:51:59Z</time>
      </trkpt>
      <trkpt lat="45.30708" lon="4.24016">
        <ele>781</ele>
        <time>2021-04-26T10:52:01Z</time>
      </trkpt>
      <trkpt lat="45.30698" lon="4.24008">
        <ele>781</ele>
        <time>2021-04-26T10:52:03Z</time>
      </trkpt>
      <trkpt lat="45.30694" lon="4.24003">
        <ele>780</ele>
        <time>2021-04-26T10:52:04Z</time>
      </trkpt>
      <trkpt lat="45.3069" lon="4.23998">
        <ele>779</ele>
        <time>2021-04-26T10:52:05Z</time>
      </trkpt>
      <trkpt lat="45.30685" lon="4.23992">
        <ele>779</ele>
        <time>2021-04-26T10:52:06Z</time>
      </trkpt>
      <trkpt lat="45.30681" lon="4.23986">
        <ele>779</ele>
        <time>2021-04-26T10:52:07Z</time>
      </trkpt>
      <trkpt lat="45.30678" lon="4.2398">
        <ele>778</ele>
        <time>2021-04-26T10:52:08Z</time>
      </trkpt>
      <trkpt lat="45.30674" lon="4.23974">
        <ele>778</ele>
        <time>2021-04-26T10:52:09Z</time>
      </trkpt>
      <trkpt lat="45.3067" lon="4.23968">
        <ele>778</ele>
        <time>2021-04-26T10:52:10Z</time>
      </trkpt>
      <trkpt lat="45.30666" lon="4.23963">
        <ele>778</ele>
        <time>2021-04-26T10:52:11Z</time>
      </trkpt>
      <trkpt lat="45.30662" lon="4.23957">
        <ele>778</ele>
        <time>2021-04-26T10:52:12Z</time>
      </trkpt>
      <trkpt lat="45.30654" lon="4.23949">
        <ele>777</ele>
        <time>2021-04-26T10:52:14Z</time>
      </trkpt>
      <trkpt lat="45.30649" lon="4.23945">
        <ele>777</ele>
        <time>2021-04-26T10:52:15Z</time>
      </trkpt>
      <trkpt lat="45.30644" lon="4.2394">
        <ele>777</ele>
        <time>2021-04-26T10:52:16Z</time>
      </trkpt>
      <trkpt lat="45.30639" lon="4.23934">
        <ele>776</ele>
        <time>2021-04-26T10:52:17Z</time>
      </trkpt>
      <trkpt lat="45.30634" lon="4.23929">
        <ele>776</ele>
        <time>2021-04-26T10:52:18Z</time>
      </trkpt>
      <trkpt lat="45.3063" lon="4.23924">
        <ele>775</ele>
        <time>2021-04-26T10:52:19Z</time>
      </trkpt>
      <trkpt lat="45.30621" lon="4.23913">
        <ele>775</ele>
        <time>2021-04-26T10:52:21Z</time>
      </trkpt>
      <trkpt lat="45.30614" lon="4.23901">
        <ele>774</ele>
        <time>2021-04-26T10:52:23Z</time>
      </trkpt>
      <trkpt lat="45.30606" lon="4.23891">
        <ele>774</ele>
        <time>2021-04-26T10:52:25Z</time>
      </trkpt>
      <trkpt lat="45.30596" lon="4.23889">
        <ele>774</ele>
        <time>2021-04-26T10:52:27Z</time>
      </trkpt>
      <trkpt lat="45.30585" lon="4.23894">
        <ele>774</ele>
        <time>2021-04-26T10:52:29Z</time>
      </trkpt>
      <trkpt lat="45.30575" lon="4.23902">
        <ele>774</ele>
        <time>2021-04-26T10:52:31Z</time>
      </trkpt>
      <trkpt lat="45.30565" lon="4.2391">
        <ele>774</ele>
        <time>2021-04-26T10:52:33Z</time>
      </trkpt>
      <trkpt lat="45.30557" lon="4.23921">
        <ele>775</ele>
        <time>2021-04-26T10:52:35Z</time>
      </trkpt>
      <trkpt lat="45.30553" lon="4.23927">
        <ele>775</ele>
        <time>2021-04-26T10:52:36Z</time>
      </trkpt>
      <trkpt lat="45.30549" lon="4.23932">
        <ele>775</ele>
        <time>2021-04-26T10:52:37Z</time>
      </trkpt>
      <trkpt lat="45.30546" lon="4.23938">
        <ele>775</ele>
        <time>2021-04-26T10:52:38Z</time>
      </trkpt>
      <trkpt lat="45.3054" lon="4.23948">
        <ele>775</ele>
        <time>2021-04-26T10:52:40Z</time>
      </trkpt>
      <trkpt lat="45.30534" lon="4.23958">
        <ele>776</ele>
        <time>2021-04-26T10:52:42Z</time>
      </trkpt>
      <trkpt lat="45.30527" lon="4.23973">
        <ele>776</ele>
        <time>2021-04-26T10:52:45Z</time>
      </trkpt>
      <trkpt lat="45.30525" lon="4.23977">
        <ele>776</ele>
        <time>2021-04-26T10:52:46Z</time>
      </trkpt>
      <trkpt lat="45.30523" lon="4.23982">
        <ele>776</ele>
        <time>2021-04-26T10:52:47Z</time>
      </trkpt>
      <trkpt lat="45.30517" lon="4.23992">
        <ele>776</ele>
        <time>2021-04-26T10:52:49Z</time>
      </trkpt>
      <trkpt lat="45.3051" lon="4.24002">
        <ele>776</ele>
        <time>2021-04-26T10:52:51Z</time>
      </trkpt>
      <trkpt lat="45.30506" lon="4.24008">
        <ele>776</ele>
        <time>2021-04-26T10:52:52Z</time>
      </trkpt>
      <trkpt lat="45.30503" lon="4.24014">
        <ele>776</ele>
        <time>2021-04-26T10:52:53Z</time>
      </trkpt>
      <trkpt lat="45.305" lon="4.24021">
        <ele>776</ele>
        <time>2021-04-26T10:52:54Z</time>
      </trkpt>
      <trkpt lat="45.30496" lon="4.24027">
        <ele>776</ele>
        <time>2021-04-26T10:52:55Z</time>
      </trkpt>
      <trkpt lat="45.30492" lon="4.24034">
        <ele>776</ele>
        <time>2021-04-26T10:52:56Z</time>
      </trkpt>
      <trkpt lat="45.30489" lon="4.24042">
        <ele>776</ele>
        <time>2021-04-26T10:52:57Z</time>
      </trkpt>
      <trkpt lat="45.30485" lon="4.24049">
        <ele>776</ele>
        <time>2021-04-26T10:52:58Z</time>
      </trkpt>
      <trkpt lat="45.30483" lon="4.24057">
        <ele>776</ele>
        <time>2021-04-26T10:52:59Z</time>
      </trkpt>
      <trkpt lat="45.3048" lon="4.24065">
        <ele>776</ele>
        <time>2021-04-26T10:53:00Z</time>
      </trkpt>
      <trkpt lat="45.30478" lon="4.24073">
        <ele>776</ele>
        <time>2021-04-26T10:53:01Z</time>
      </trkpt>
      <trkpt lat="45.30475" lon="4.24082">
        <ele>776</ele>
        <time>2021-04-26T10:53:02Z</time>
      </trkpt>
      <trkpt lat="45.30472" lon="4.24091">
        <ele>776</ele>
        <time>2021-04-26T10:53:03Z</time>
      </trkpt>
      <trkpt lat="45.30469" lon="4.241">
        <ele>776</ele>
        <time>2021-04-26T10:53:04Z</time>
      </trkpt>
      <trkpt lat="45.30466" lon="4.24109">
        <ele>775</ele>
        <time>2021-04-26T10:53:05Z</time>
      </trkpt>
      <trkpt lat="45.30462" lon="4.24117">
        <ele>775</ele>
        <time>2021-04-26T10:53:06Z</time>
      </trkpt>
      <trkpt lat="45.30458" lon="4.24125">
        <ele>775</ele>
        <time>2021-04-26T10:53:07Z</time>
      </trkpt>
      <trkpt lat="45.30454" lon="4.24134">
        <ele>775</ele>
        <time>2021-04-26T10:53:08Z</time>
      </trkpt>
      <trkpt lat="45.30449" lon="4.24142">
        <ele>775</ele>
        <time>2021-04-26T10:53:09Z</time>
      </trkpt>
      <trkpt lat="45.30444" lon="4.24149">
        <ele>774</ele>
        <time>2021-04-26T10:53:10Z</time>
      </trkpt>
      <trkpt lat="45.30433" lon="4.24164">
        <ele>773</ele>
        <time>2021-04-26T10:53:12Z</time>
      </trkpt>
      <trkpt lat="45.30418" lon="4.24178">
        <ele>772</ele>
        <time>2021-04-26T10:53:14Z</time>
      </trkpt>
      <trkpt lat="45.30405" lon="4.24192">
        <ele>772</ele>
        <time>2021-04-26T10:53:16Z</time>
      </trkpt>
      <trkpt lat="45.30392" lon="4.24207">
        <ele>771</ele>
        <time>2021-04-26T10:53:18Z</time>
      </trkpt>
      <trkpt lat="45.30381" lon="4.24223">
        <ele>771</ele>
        <time>2021-04-26T10:53:20Z</time>
      </trkpt>
      <trkpt lat="45.30375" lon="4.24242">
        <ele>771</ele>
        <time>2021-04-26T10:53:22Z</time>
      </trkpt>
      <trkpt lat="45.30371" lon="4.24262">
        <ele>768</ele>
        <time>2021-04-26T10:53:24Z</time>
      </trkpt>
      <trkpt lat="45.30364" lon="4.24278">
        <ele>766</ele>
        <time>2021-04-26T10:53:26Z</time>
      </trkpt>
      <trkpt lat="45.30354" lon="4.24291">
        <ele>766</ele>
        <time>2021-04-26T10:53:28Z</time>
      </trkpt>
      <trkpt lat="45.30342" lon="4.24299">
        <ele>764</ele>
        <time>2021-04-26T10:53:30Z</time>
      </trkpt>
      <trkpt lat="45.30335" lon="4.24302">
        <ele>764</ele>
        <time>2021-04-26T10:53:31Z</time>
      </trkpt>
      <trkpt lat="45.30323" lon="4.24305">
        <ele>763</ele>
        <time>2021-04-26T10:53:33Z</time>
      </trkpt>
      <trkpt lat="45.30313" lon="4.24298">
        <ele>763</ele>
        <time>2021-04-26T10:53:35Z</time>
      </trkpt>
      <trkpt lat="45.30302" lon="4.24291">
        <ele>763</ele>
        <time>2021-04-26T10:53:37Z</time>
      </trkpt>
      <trkpt lat="45.30289" lon="4.24292">
        <ele>762</ele>
        <time>2021-04-26T10:53:39Z</time>
      </trkpt>
      <trkpt lat="45.30274" lon="4.24298">
        <ele>762</ele>
        <time>2021-04-26T10:53:41Z</time>
      </trkpt>
      <trkpt lat="45.30259" lon="4.24305">
        <ele>762</ele>
        <time>2021-04-26T10:53:43Z</time>
      </trkpt>
      <trkpt lat="45.30244" lon="4.2431">
        <ele>761</ele>
        <time>2021-04-26T10:53:44Z</time>
      </trkpt>
      <trkpt lat="45.30228" lon="4.2431">
        <ele>760</ele>
        <time>2021-04-26T10:53:47Z</time>
      </trkpt>
      <trkpt lat="45.30213" lon="4.24309">
        <ele>759</ele>
        <time>2021-04-26T10:53:49Z</time>
      </trkpt>
      <trkpt lat="45.30203" lon="4.24304">
        <ele>759</ele>
        <time>2021-04-26T10:53:51Z</time>
      </trkpt>
      <trkpt lat="45.30191" lon="4.24298">
        <ele>759</ele>
        <time>2021-04-26T10:53:53Z</time>
      </trkpt>
      <trkpt lat="45.30181" lon="4.24293">
        <ele>759</ele>
        <time>2021-04-26T10:53:55Z</time>
      </trkpt>
      <trkpt lat="45.30168" lon="4.24295">
        <ele>759</ele>
        <time>2021-04-26T10:53:57Z</time>
      </trkpt>
      <trkpt lat="45.30153" lon="4.24301">
        <ele>759</ele>
        <time>2021-04-26T10:53:59Z</time>
      </trkpt>
      <trkpt lat="45.3014" lon="4.24304">
        <ele>758</ele>
        <time>2021-04-26T10:54:01Z</time>
      </trkpt>
      <trkpt lat="45.30128" lon="4.24306">
        <ele>758</ele>
        <time>2021-04-26T10:54:03Z</time>
      </trkpt>
      <trkpt lat="45.30115" lon="4.24309">
        <ele>758</ele>
        <time>2021-04-26T10:54:05Z</time>
      </trkpt>
      <trkpt lat="45.30101" lon="4.24315">
        <ele>758</ele>
        <time>2021-04-26T10:54:07Z</time>
      </trkpt>
      <trkpt lat="45.30087" lon="4.24322">
        <ele>758</ele>
        <time>2021-04-26T10:54:09Z</time>
      </trkpt>
      <trkpt lat="45.30076" lon="4.24328">
        <ele>757</ele>
        <time>2021-04-26T10:54:11Z</time>
      </trkpt>
      <trkpt lat="45.30067" lon="4.24334">
        <ele>757</ele>
        <time>2021-04-26T10:54:13Z</time>
      </trkpt>
      <trkpt lat="45.30054" lon="4.24338">
        <ele>757</ele>
        <time>2021-04-26T10:54:16Z</time>
      </trkpt>
      <trkpt lat="45.30043" lon="4.24341">
        <ele>755</ele>
        <time>2021-04-26T10:54:18Z</time>
      </trkpt>
      <trkpt lat="45.30032" lon="4.24341">
        <ele>754</ele>
        <time>2021-04-26T10:54:20Z</time>
      </trkpt>
      <trkpt lat="45.30019" lon="4.24336">
        <ele>754</ele>
        <time>2021-04-26T10:54:22Z</time>
      </trkpt>
      <trkpt lat="45.30013" lon="4.24332">
        <ele>753</ele>
        <time>2021-04-26T10:54:23Z</time>
      </trkpt>
      <trkpt lat="45.29999" lon="4.24321">
        <ele>751</ele>
        <time>2021-04-26T10:54:25Z</time>
      </trkpt>
      <trkpt lat="45.29991" lon="4.24314">
        <ele>750</ele>
        <time>2021-04-26T10:54:26Z</time>
      </trkpt>
      <trkpt lat="45.29981" lon="4.24308">
        <ele>747</ele>
        <time>2021-04-26T10:54:27Z</time>
      </trkpt>
      <trkpt lat="45.29971" lon="4.24304">
        <ele>747</ele>
        <time>2021-04-26T10:54:28Z</time>
      </trkpt>
      <trkpt lat="45.29962" lon="4.24299">
        <ele>743</ele>
        <time>2021-04-26T10:54:29Z</time>
      </trkpt>
      <trkpt lat="45.29953" lon="4.24295">
        <ele>742</ele>
        <time>2021-04-26T10:54:30Z</time>
      </trkpt>
      <trkpt lat="45.29944" lon="4.2429">
        <ele>740</ele>
        <time>2021-04-26T10:54:31Z</time>
      </trkpt>
      <trkpt lat="45.2993" lon="4.24281">
        <ele>738</ele>
        <time>2021-04-26T10:54:33Z</time>
      </trkpt>
      <trkpt lat="45.29916" lon="4.2428">
        <ele>738</ele>
        <time>2021-04-26T10:54:35Z</time>
      </trkpt>
      <trkpt lat="45.29904" lon="4.24306">
        <ele>736</ele>
        <time>2021-04-26T10:54:37Z</time>
      </trkpt>
      <trkpt lat="45.29903" lon="4.24317">
        <ele>735</ele>
        <time>2021-04-26T10:54:39Z</time>
      </trkpt>
      <trkpt lat="45.29904" lon="4.24327">
        <ele>734</ele>
        <time>2021-04-26T10:54:40Z</time>
      </trkpt>
      <trkpt lat="45.29904" lon="4.24337">
        <ele>734</ele>
        <time>2021-04-26T10:54:41Z</time>
      </trkpt>
      <trkpt lat="45.29905" lon="4.24347">
        <ele>733</ele>
        <time>2021-04-26T10:54:42Z</time>
      </trkpt>
      <trkpt lat="45.29906" lon="4.24356">
        <ele>733</ele>
        <time>2021-04-26T10:54:43Z</time>
      </trkpt>
      <trkpt lat="45.29908" lon="4.24364">
        <ele>732</ele>
        <time>2021-04-26T10:54:44Z</time>
      </trkpt>
      <trkpt lat="45.2991" lon="4.24373">
        <ele>732</ele>
        <time>2021-04-26T10:54:45Z</time>
      </trkpt>
      <trkpt lat="45.29912" lon="4.24381">
        <ele>732</ele>
        <time>2021-04-26T10:54:46Z</time>
      </trkpt>
      <trkpt lat="45.29914" lon="4.2439">
        <ele>731</ele>
        <time>2021-04-26T10:54:47Z</time>
      </trkpt>
      <trkpt lat="45.29916" lon="4.24398">
        <ele>731</ele>
        <time>2021-04-26T10:54:48Z</time>
      </trkpt>
      <trkpt lat="45.29918" lon="4.24406">
        <ele>731</ele>
        <time>2021-04-26T10:54:49Z</time>
      </trkpt>
      <trkpt lat="45.29919" lon="4.24414">
        <ele>731</ele>
        <time>2021-04-26T10:54:50Z</time>
      </trkpt>
      <trkpt lat="45.2992" lon="4.24421">
        <ele>730</ele>
        <time>2021-04-26T10:54:51Z</time>
      </trkpt>
      <trkpt lat="45.2992" lon="4.24429">
        <ele>729</ele>
        <time>2021-04-26T10:54:52Z</time>
      </trkpt>
      <trkpt lat="45.2992" lon="4.24437">
        <ele>729</ele>
        <time>2021-04-26T10:54:53Z</time>
      </trkpt>
      <trkpt lat="45.2992" lon="4.24444">
        <ele>729</ele>
        <time>2021-04-26T10:54:54Z</time>
      </trkpt>
      <trkpt lat="45.29919" lon="4.24452">
        <ele>729</ele>
        <time>2021-04-26T10:54:55Z</time>
      </trkpt>
      <trkpt lat="45.29918" lon="4.24459">
        <ele>728</ele>
        <time>2021-04-26T10:54:56Z</time>
      </trkpt>
      <trkpt lat="45.29917" lon="4.24467">
        <ele>728</ele>
        <time>2021-04-26T10:54:57Z</time>
      </trkpt>
      <trkpt lat="45.29916" lon="4.24474">
        <ele>728</ele>
        <time>2021-04-26T10:54:58Z</time>
      </trkpt>
      <trkpt lat="45.29913" lon="4.2448">
        <ele>726</ele>
        <time>2021-04-26T10:54:59Z</time>
      </trkpt>
      <trkpt lat="45.2991" lon="4.24485">
        <ele>726</ele>
        <time>2021-04-26T10:55:00Z</time>
      </trkpt>
      <trkpt lat="45.29906" lon="4.24488">
        <ele>725</ele>
        <time>2021-04-26T10:55:01Z</time>
      </trkpt>
      <trkpt lat="45.29902" lon="4.24489">
        <ele>725</ele>
        <time>2021-04-26T10:55:02Z</time>
      </trkpt>
      <trkpt lat="45.29899" lon="4.24488">
        <ele>725</ele>
        <time>2021-04-26T10:55:03Z</time>
      </trkpt>
      <trkpt lat="45.29895" lon="4.24487">
        <ele>725</ele>
        <time>2021-04-26T10:55:04Z</time>
      </trkpt>
      <trkpt lat="45.29892" lon="4.24486">
        <ele>725</ele>
        <time>2021-04-26T10:55:05Z</time>
      </trkpt>
      <trkpt lat="45.29888" lon="4.24486">
        <ele>725</ele>
        <time>2021-04-26T10:55:06Z</time>
      </trkpt>
      <trkpt lat="45.29886" lon="4.24485">
        <ele>725</ele>
        <time>2021-04-26T10:55:07Z</time>
      </trkpt>
      <trkpt lat="45.2988" lon="4.24485">
        <ele>725</ele>
        <time>2021-04-26T10:55:09Z</time>
      </trkpt>
      <trkpt lat="45.29877" lon="4.24485">
        <ele>725</ele>
        <time>2021-04-26T10:55:10Z</time>
      </trkpt>
      <trkpt lat="45.29874" lon="4.24486">
        <ele>725</ele>
        <time>2021-04-26T10:55:11Z</time>
      </trkpt>
      <trkpt lat="45.29871" lon="4.24487">
        <ele>726</ele>
        <time>2021-04-26T10:55:12Z</time>
      </trkpt>
      <trkpt lat="45.29868" lon="4.24488">
        <ele>726</ele>
        <time>2021-04-26T10:55:13Z</time>
      </trkpt>
      <trkpt lat="45.29866" lon="4.2449">
        <ele>726</ele>
        <time>2021-04-26T10:55:14Z</time>
      </trkpt>
      <trkpt lat="45.29863" lon="4.24492">
        <ele>726</ele>
        <time>2021-04-26T10:55:15Z</time>
      </trkpt>
      <trkpt lat="45.2986" lon="4.24495">
        <ele>726</ele>
        <time>2021-04-26T10:55:16Z</time>
      </trkpt>
      <trkpt lat="45.29856" lon="4.24497">
        <ele>726</ele>
        <time>2021-04-26T10:55:17Z</time>
      </trkpt>
      <trkpt lat="45.29851" lon="4.245">
        <ele>726</ele>
        <time>2021-04-26T10:55:18Z</time>
      </trkpt>
      <trkpt lat="45.29847" lon="4.24503">
        <ele>726</ele>
        <time>2021-04-26T10:55:19Z</time>
      </trkpt>
      <trkpt lat="45.29842" lon="4.24507">
        <ele>726</ele>
        <time>2021-04-26T10:55:20Z</time>
      </trkpt>
      <trkpt lat="45.29837" lon="4.2451">
        <ele>725</ele>
        <time>2021-04-26T10:55:21Z</time>
      </trkpt>
      <trkpt lat="45.29831" lon="4.24514">
        <ele>725</ele>
        <time>2021-04-26T10:55:22Z</time>
      </trkpt>
      <trkpt lat="45.29825" lon="4.24517">
        <ele>725</ele>
        <time>2021-04-26T10:55:23Z</time>
      </trkpt>
      <trkpt lat="45.29819" lon="4.2452">
        <ele>724</ele>
        <time>2021-04-26T10:55:24Z</time>
      </trkpt>
      <trkpt lat="45.29813" lon="4.24524">
        <ele>724</ele>
        <time>2021-04-26T10:55:25Z</time>
      </trkpt>
      <trkpt lat="45.29806" lon="4.24527">
        <ele>724</ele>
        <time>2021-04-26T10:55:26Z</time>
      </trkpt>
      <trkpt lat="45.29799" lon="4.2453">
        <ele>724</ele>
        <time>2021-04-26T10:55:27Z</time>
      </trkpt>
      <trkpt lat="45.29793" lon="4.24533">
        <ele>723</ele>
        <time>2021-04-26T10:55:28Z</time>
      </trkpt>
      <trkpt lat="45.29786" lon="4.24536">
        <ele>723</ele>
        <time>2021-04-26T10:55:29Z</time>
      </trkpt>
      <trkpt lat="45.29779" lon="4.24539">
        <ele>723</ele>
        <time>2021-04-26T10:55:30Z</time>
      </trkpt>
      <trkpt lat="45.29772" lon="4.24542">
        <ele>722</ele>
        <time>2021-04-26T10:55:31Z</time>
      </trkpt>
      <trkpt lat="45.29765" lon="4.24545">
        <ele>722</ele>
        <time>2021-04-26T10:55:32Z</time>
      </trkpt>
      <trkpt lat="45.29757" lon="4.24546">
        <ele>722</ele>
        <time>2021-04-26T10:55:33Z</time>
      </trkpt>
      <trkpt lat="45.29749" lon="4.24547">
        <ele>722</ele>
        <time>2021-04-26T10:55:34Z</time>
      </trkpt>
      <trkpt lat="45.29742" lon="4.24549">
        <ele>722</ele>
        <time>2021-04-26T10:55:35Z</time>
      </trkpt>
      <trkpt lat="45.29734" lon="4.24553">
        <ele>722</ele>
        <time>2021-04-26T10:55:36Z</time>
      </trkpt>
      <trkpt lat="45.29728" lon="4.2456">
        <ele>722</ele>
        <time>2021-04-26T10:55:37Z</time>
      </trkpt>
      <trkpt lat="45.29723" lon="4.24569">
        <ele>722</ele>
        <time>2021-04-26T10:55:38Z</time>
      </trkpt>
      <trkpt lat="45.29719" lon="4.24579">
        <ele>721</ele>
        <time>2021-04-26T10:55:39Z</time>
      </trkpt>
      <trkpt lat="45.29716" lon="4.24589">
        <ele>721</ele>
        <time>2021-04-26T10:55:40Z</time>
      </trkpt>
      <trkpt lat="45.29713" lon="4.24598">
        <ele>721</ele>
        <time>2021-04-26T10:55:41Z</time>
      </trkpt>
      <trkpt lat="45.29706" lon="4.24615">
        <ele>721</ele>
        <time>2021-04-26T10:55:43Z</time>
      </trkpt>
      <trkpt lat="45.29702" lon="4.24622">
        <ele>719</ele>
        <time>2021-04-26T10:55:44Z</time>
      </trkpt>
      <trkpt lat="45.29698" lon="4.24628">
        <ele>719</ele>
        <time>2021-04-26T10:55:45Z</time>
      </trkpt>
      <trkpt lat="45.29692" lon="4.24633">
        <ele>718</ele>
        <time>2021-04-26T10:55:46Z</time>
      </trkpt>
      <trkpt lat="45.29685" lon="4.24635">
        <ele>718</ele>
        <time>2021-04-26T10:55:47Z</time>
      </trkpt>
      <trkpt lat="45.29678" lon="4.24636">
        <ele>718</ele>
        <time>2021-04-26T10:55:48Z</time>
      </trkpt>
      <trkpt lat="45.29671" lon="4.24636">
        <ele>718</ele>
        <time>2021-04-26T10:55:49Z</time>
      </trkpt>
      <trkpt lat="45.29663" lon="4.24638">
        <ele>718</ele>
        <time>2021-04-26T10:55:50Z</time>
      </trkpt>
      <trkpt lat="45.29656" lon="4.24641">
        <ele>718</ele>
        <time>2021-04-26T10:55:51Z</time>
      </trkpt>
      <trkpt lat="45.29648" lon="4.24645">
        <ele>718</ele>
        <time>2021-04-26T10:55:52Z</time>
      </trkpt>
      <trkpt lat="45.29639" lon="4.24651">
        <ele>717</ele>
        <time>2021-04-26T10:55:53Z</time>
      </trkpt>
      <trkpt lat="45.29631" lon="4.24657">
        <ele>717</ele>
        <time>2021-04-26T10:55:54Z</time>
      </trkpt>
      <trkpt lat="45.29622" lon="4.24663">
        <ele>717</ele>
        <time>2021-04-26T10:55:55Z</time>
      </trkpt>
      <trkpt lat="45.29607" lon="4.24675">
        <ele>717</ele>
        <time>2021-04-26T10:55:57Z</time>
      </trkpt>
      <trkpt lat="45.29594" lon="4.24686">
        <ele>716</ele>
        <time>2021-04-26T10:55:59Z</time>
      </trkpt>
      <trkpt lat="45.29581" lon="4.2469">
        <ele>715</ele>
        <time>2021-04-26T10:56:01Z</time>
      </trkpt>
      <trkpt lat="45.29568" lon="4.24691">
        <ele>715</ele>
        <time>2021-04-26T10:56:03Z</time>
      </trkpt>
      <trkpt lat="45.29558" lon="4.2469">
        <ele>714</ele>
        <time>2021-04-26T10:56:05Z</time>
      </trkpt>
      <trkpt lat="45.29546" lon="4.24689">
        <ele>714</ele>
        <time>2021-04-26T10:56:07Z</time>
      </trkpt>
      <trkpt lat="45.29536" lon="4.24685">
        <ele>713</ele>
        <time>2021-04-26T10:56:09Z</time>
      </trkpt>
      <trkpt lat="45.29525" lon="4.24682">
        <ele>713</ele>
        <time>2021-04-26T10:56:11Z</time>
      </trkpt>
      <trkpt lat="45.29513" lon="4.24681">
        <ele>713</ele>
        <time>2021-04-26T10:56:13Z</time>
      </trkpt>
      <trkpt lat="45.29502" lon="4.2468">
        <ele>712</ele>
        <time>2021-04-26T10:56:15Z</time>
      </trkpt>
      <trkpt lat="45.2949" lon="4.2468">
        <ele>713</ele>
        <time>2021-04-26T10:56:17Z</time>
      </trkpt>
      <trkpt lat="45.2948" lon="4.2468">
        <ele>713</ele>
        <time>2021-04-26T10:56:19Z</time>
      </trkpt>
      <trkpt lat="45.2947" lon="4.2468">
        <ele>713</ele>
        <time>2021-04-26T10:56:21Z</time>
      </trkpt>
      <trkpt lat="45.29457" lon="4.24681">
        <ele>713</ele>
        <time>2021-04-26T10:56:24Z</time>
      </trkpt>
      <trkpt lat="45.29444" lon="4.24682">
        <ele>713</ele>
        <time>2021-04-26T10:56:27Z</time>
      </trkpt>
      <trkpt lat="45.29432" lon="4.24684">
        <ele>713</ele>
        <time>2021-04-26T10:56:30Z</time>
      </trkpt>
      <trkpt lat="45.29423" lon="4.24687">
        <ele>713</ele>
        <time>2021-04-26T10:56:32Z</time>
      </trkpt>
      <trkpt lat="45.29412" lon="4.24692">
        <ele>713</ele>
        <time>2021-04-26T10:56:34Z</time>
      </trkpt>
      <trkpt lat="45.29403" lon="4.24697">
        <ele>712</ele>
        <time>2021-04-26T10:56:36Z</time>
      </trkpt>
      <trkpt lat="45.29398" lon="4.24706">
        <ele>711</ele>
        <time>2021-04-26T10:56:51Z</time>
      </trkpt>
      <trkpt lat="45.29406" lon="4.24705">
        <ele>712</ele>
        <time>2021-04-26T10:57:15Z</time>
      </trkpt>
      <trkpt lat="45.29394" lon="4.24712">
        <ele>711</ele>
        <time>2021-04-26T10:57:18Z</time>
      </trkpt>
      <trkpt lat="45.29386" lon="4.24718">
        <ele>711</ele>
        <time>2021-04-26T10:57:20Z</time>
      </trkpt>
      <trkpt lat="45.29379" lon="4.24731">
        <ele>711</ele>
        <time>2021-04-26T10:57:23Z</time>
      </trkpt>
      <trkpt lat="45.29375" lon="4.2474">
        <ele>710</ele>
        <time>2021-04-26T10:57:25Z</time>
      </trkpt>
      <trkpt lat="45.29369" lon="4.24755">
        <ele>709</ele>
        <time>2021-04-26T10:57:28Z</time>
      </trkpt>
      <trkpt lat="45.29372" lon="4.24767">
        <ele>708</ele>
        <time>2021-04-26T10:57:33Z</time>
      </trkpt>
      <trkpt lat="45.29379" lon="4.24778">
        <ele>708</ele>
        <time>2021-04-26T10:57:38Z</time>
      </trkpt>
      <trkpt lat="45.29384" lon="4.24792">
        <ele>708</ele>
        <time>2021-04-26T10:57:42Z</time>
      </trkpt>
      <trkpt lat="45.2939" lon="4.24804">
        <ele>708</ele>
        <time>2021-04-26T10:57:45Z</time>
      </trkpt>
      <trkpt lat="45.29397" lon="4.24812">
        <ele>708</ele>
        <time>2021-04-26T10:57:48Z</time>
      </trkpt>
      <trkpt lat="45.29405" lon="4.24823">
        <ele>708</ele>
        <time>2021-04-26T10:57:51Z</time>
      </trkpt>
      <trkpt lat="45.29412" lon="4.24835">
        <ele>708</ele>
        <time>2021-04-26T10:57:54Z</time>
      </trkpt>
      <trkpt lat="45.29414" lon="4.24839">
        <ele>708</ele>
        <time>2021-04-26T10:57:55Z</time>
      </trkpt>
      <trkpt lat="45.29416" lon="4.24844">
        <ele>708</ele>
        <time>2021-04-26T10:57:56Z</time>
      </trkpt>
      <trkpt lat="45.29423" lon="4.24857">
        <ele>708</ele>
        <time>2021-04-26T10:57:59Z</time>
      </trkpt>
      <trkpt lat="45.29429" lon="4.2487">
        <ele>708</ele>
        <time>2021-04-26T10:58:02Z</time>
      </trkpt>
      <trkpt lat="45.29433" lon="4.24879">
        <ele>708</ele>
        <time>2021-04-26T10:58:04Z</time>
      </trkpt>
      <trkpt lat="45.29434" lon="4.24893">
        <ele>708</ele>
        <time>2021-04-26T10:58:07Z</time>
      </trkpt>
      <trkpt lat="45.29431" lon="4.24908">
        <ele>708</ele>
        <time>2021-04-26T10:58:11Z</time>
      </trkpt>
      <trkpt lat="45.2943" lon="4.24911">
        <ele>708</ele>
        <time>2021-04-26T10:58:12Z</time>
      </trkpt>
      <trkpt lat="45.29425" lon="4.24913">
        <ele>710.6</ele>
      </trkpt>
      <trkpt lat="45.29427" lon="4.24927">
        <ele>711</ele>
      </trkpt>
      <trkpt lat="45.29443" lon="4.24922">
        <ele>712.3</ele>
      </trkpt>
      <trkpt lat="45.29466" lon="4.24915">
        <ele>714.1</ele>
      </trkpt>
      <trkpt lat="45.29469" lon="4.24913">
        <ele>714.2</ele>
      </trkpt>
      <trkpt lat="45.29458" lon="4.25052">
        <ele>715.3</ele>
      </trkpt>
      <trkpt lat="45.29464" lon="4.25116">
        <ele>716.2</ele>
      </trkpt>
      <trkpt lat="45.29457" lon="4.25182">
        <ele>716.2</ele>
      </trkpt>
      <trkpt lat="45.29445" lon="4.25241">
        <ele>716.2</ele>
      </trkpt>
      <trkpt lat="45.2942" lon="4.25302">
        <ele>713.7</ele>
      </trkpt>
      <trkpt lat="45.29409" lon="4.25373">
        <ele>714.9</ele>
      </trkpt>
      <trkpt lat="45.29379" lon="4.25365">
        <ele>720.3</ele>
      </trkpt>
      <trkpt lat="45.29388" lon="4.25223">
        <ele>721.2</ele>
      </trkpt>
      <trkpt lat="45.2939" lon="4.25181">
        <ele>720.4</ele>
      </trkpt>
      <trkpt lat="45.29392" lon="4.25087">
        <ele>716</ele>
      </trkpt>
      <trkpt lat="45.2939" lon="4.25087">
        <ele>716.4</ele>
      </trkpt>
      <trkpt lat="45.29385" lon="4.25108">
        <ele>719</ele>
        <time>2021-04-26T12:43:59Z</time>
      </trkpt>
      <trkpt lat="45.29387" lon="4.25123">
        <ele>720</ele>
        <time>2021-04-26T12:44:04Z</time>
      </trkpt>
      <trkpt lat="45.29385" lon="4.25125">
        <ele>720</ele>
        <time>2021-04-26T12:44:05Z</time>
      </trkpt>
      <trkpt lat="45.29384" lon="4.25128">
        <ele>720</ele>
        <time>2021-04-26T12:44:07Z</time>
      </trkpt>
      <trkpt lat="45.29384" lon="4.25136">
        <ele>721</ele>
        <time>2021-04-26T12:44:09Z</time>
      </trkpt>
      <trkpt lat="45.29383" lon="4.2514">
        <ele>721</ele>
        <time>2021-04-26T12:44:10Z</time>
      </trkpt>
      <trkpt lat="45.29384" lon="4.25156">
        <ele>721</ele>
        <time>2021-04-26T12:44:14Z</time>
      </trkpt>
      <trkpt lat="45.29384" lon="4.25161">
        <ele>722</ele>
        <time>2021-04-26T12:44:15Z</time>
      </trkpt>
      <trkpt lat="45.2938" lon="4.25178">
        <ele>722</ele>
        <time>2021-04-26T12:44:19Z</time>
      </trkpt>
      <trkpt lat="45.29376" lon="4.25192">
        <ele>722</ele>
        <time>2021-04-26T12:44:22Z</time>
      </trkpt>
      <trkpt lat="45.29373" lon="4.25204">
        <ele>723</ele>
        <time>2021-04-26T12:44:25Z</time>
      </trkpt>
      <trkpt lat="45.2937" lon="4.25219">
        <ele>723</ele>
        <time>2021-04-26T12:44:29Z</time>
      </trkpt>
      <trkpt lat="45.29368" lon="4.25233">
        <ele>724</ele>
        <time>2021-04-26T12:44:32Z</time>
      </trkpt>
      <trkpt lat="45.29365" lon="4.25245">
        <ele>724</ele>
        <time>2021-04-26T12:44:35Z</time>
      </trkpt>
      <trkpt lat="45.29362" lon="4.25259">
        <ele>724</ele>
        <time>2021-04-26T12:44:38Z</time>
      </trkpt>
      <trkpt lat="45.29363" lon="4.25273">
        <ele>725</ele>
        <time>2021-04-26T12:44:41Z</time>
      </trkpt>
      <trkpt lat="45.29361" lon="4.25287">
        <ele>725</ele>
        <time>2021-04-26T12:44:44Z</time>
      </trkpt>
      <trkpt lat="45.29358" lon="4.25299">
        <ele>726</ele>
        <time>2021-04-26T12:44:47Z</time>
      </trkpt>
      <trkpt lat="45.29355" lon="4.25315">
        <ele>727</ele>
        <time>2021-04-26T12:44:51Z</time>
      </trkpt>
      <trkpt lat="45.2935" lon="4.25327">
        <ele>728</ele>
        <time>2021-04-26T12:44:54Z</time>
      </trkpt>
      <trkpt lat="45.29348" lon="4.25331">
        <ele>728</ele>
        <time>2021-04-26T12:44:55Z</time>
      </trkpt>
      <trkpt lat="45.29341" lon="4.25344">
        <ele>728</ele>
        <time>2021-04-26T12:44:58Z</time>
      </trkpt>
      <trkpt lat="45.29335" lon="4.25356">
        <ele>728</ele>
        <time>2021-04-26T12:45:01Z</time>
      </trkpt>
      <trkpt lat="45.29333" lon="4.2536">
        <ele>728</ele>
        <time>2021-04-26T12:45:02Z</time>
      </trkpt>
      <trkpt lat="45.29331" lon="4.25363">
        <ele>729</ele>
        <time>2021-04-26T12:45:03Z</time>
      </trkpt>
      <trkpt lat="45.2933" lon="4.25366">
        <ele>729</ele>
        <time>2021-04-26T12:45:04Z</time>
      </trkpt>
      <trkpt lat="45.29328" lon="4.2537">
        <ele>729</ele>
        <time>2021-04-26T12:45:05Z</time>
      </trkpt>
      <trkpt lat="45.29325" lon="4.25373">
        <ele>729</ele>
        <time>2021-04-26T12:45:06Z</time>
      </trkpt>
      <trkpt lat="45.29323" lon="4.25375">
        <ele>729</ele>
        <time>2021-04-26T12:45:07Z</time>
      </trkpt>
      <trkpt lat="45.29321" lon="4.25378">
        <ele>729</ele>
        <time>2021-04-26T12:45:08Z</time>
      </trkpt>
      <trkpt lat="45.2932" lon="4.25381">
        <ele>729</ele>
        <time>2021-04-26T12:45:09Z</time>
      </trkpt>
      <trkpt lat="45.29319" lon="4.25384">
        <ele>729</ele>
        <time>2021-04-26T12:45:10Z</time>
      </trkpt>
      <trkpt lat="45.29312" lon="4.25395">
        <ele>729</ele>
        <time>2021-04-26T12:45:14Z</time>
      </trkpt>
      <trkpt lat="45.29305" lon="4.25406">
        <ele>729</ele>
        <time>2021-04-26T12:45:18Z</time>
      </trkpt>
      <trkpt lat="45.29295" lon="4.25415">
        <ele>730</ele>
        <time>2021-04-26T12:45:22Z</time>
      </trkpt>
      <trkpt lat="45.29292" lon="4.25417">
        <ele>730</ele>
        <time>2021-04-26T12:45:23Z</time>
      </trkpt>
      <trkpt lat="45.2929" lon="4.25419">
        <ele>731</ele>
        <time>2021-04-26T12:45:24Z</time>
      </trkpt>
      <trkpt lat="45.29287" lon="4.2542">
        <ele>731</ele>
        <time>2021-04-26T12:45:25Z</time>
      </trkpt>
      <trkpt lat="45.29285" lon="4.25421">
        <ele>731</ele>
        <time>2021-04-26T12:45:26Z</time>
      </trkpt>
      <trkpt lat="45.29278" lon="4.25424">
        <ele>731</ele>
        <time>2021-04-26T12:45:28Z</time>
      </trkpt>
      <trkpt lat="45.29275" lon="4.25425">
        <ele>731</ele>
        <time>2021-04-26T12:45:29Z</time>
      </trkpt>
      <trkpt lat="45.29272" lon="4.25427">
        <ele>731</ele>
        <time>2021-04-26T12:45:30Z</time>
      </trkpt>
      <trkpt lat="45.29269" lon="4.25428">
        <ele>732</ele>
        <time>2021-04-26T12:45:31Z</time>
      </trkpt>
      <trkpt lat="45.29266" lon="4.25429">
        <ele>732</ele>
        <time>2021-04-26T12:45:32Z</time>
      </trkpt>
      <trkpt lat="45.29263" lon="4.2543">
        <ele>732</ele>
        <time>2021-04-26T12:45:33Z</time>
      </trkpt>
      <trkpt lat="45.29261" lon="4.25432">
        <ele>732</ele>
        <time>2021-04-26T12:45:34Z</time>
      </trkpt>
      <trkpt lat="45.29258" lon="4.25433">
        <ele>732</ele>
        <time>2021-04-26T12:45:35Z</time>
      </trkpt>
      <trkpt lat="45.29256" lon="4.25435">
        <ele>733</ele>
        <time>2021-04-26T12:45:36Z</time>
      </trkpt>
      <trkpt lat="45.29254" lon="4.25436">
        <ele>733</ele>
        <time>2021-04-26T12:45:37Z</time>
      </trkpt>
      <trkpt lat="45.29252" lon="4.25438">
        <ele>733</ele>
        <time>2021-04-26T12:45:38Z</time>
      </trkpt>
      <trkpt lat="45.29249" lon="4.2544">
        <ele>733</ele>
        <time>2021-04-26T12:45:39Z</time>
      </trkpt>
      <trkpt lat="45.29247" lon="4.25442">
        <ele>733</ele>
        <time>2021-04-26T12:45:40Z</time>
      </trkpt>
      <trkpt lat="45.29245" lon="4.25444">
        <ele>733</ele>
        <time>2021-04-26T12:45:41Z</time>
      </trkpt>
      <trkpt lat="45.29243" lon="4.25447">
        <ele>733</ele>
        <time>2021-04-26T12:45:42Z</time>
      </trkpt>
      <trkpt lat="45.29242" lon="4.25449">
        <ele>734</ele>
        <time>2021-04-26T12:45:43Z</time>
      </trkpt>
      <trkpt lat="45.29239" lon="4.25451">
        <ele>734</ele>
        <time>2021-04-26T12:45:44Z</time>
      </trkpt>
      <trkpt lat="45.29236" lon="4.25453">
        <ele>734</ele>
        <time>2021-04-26T12:45:45Z</time>
      </trkpt>
      <trkpt lat="45.29234" lon="4.25456">
        <ele>734</ele>
        <time>2021-04-26T12:45:46Z</time>
      </trkpt>
      <trkpt lat="45.29231" lon="4.25459">
        <ele>735</ele>
        <time>2021-04-26T12:45:47Z</time>
      </trkpt>
      <trkpt lat="45.29229" lon="4.25461">
        <ele>735</ele>
        <time>2021-04-26T12:45:48Z</time>
      </trkpt>
      <trkpt lat="45.29226" lon="4.25464">
        <ele>735</ele>
        <time>2021-04-26T12:45:49Z</time>
      </trkpt>
      <trkpt lat="45.29224" lon="4.25465">
        <ele>735</ele>
        <time>2021-04-26T12:45:50Z</time>
      </trkpt>
      <trkpt lat="45.29222" lon="4.25467">
        <ele>736</ele>
        <time>2021-04-26T12:45:51Z</time>
      </trkpt>
      <trkpt lat="45.2922" lon="4.25469">
        <ele>736</ele>
        <time>2021-04-26T12:45:52Z</time>
      </trkpt>
      <trkpt lat="45.29218" lon="4.25471">
        <ele>736</ele>
        <time>2021-04-26T12:45:53Z</time>
      </trkpt>
      <trkpt lat="45.29216" lon="4.25473">
        <ele>736</ele>
        <time>2021-04-26T12:45:54Z</time>
      </trkpt>
      <trkpt lat="45.29214" lon="4.25475">
        <ele>737</ele>
        <time>2021-04-26T12:45:55Z</time>
      </trkpt>
      <trkpt lat="45.29212" lon="4.25477">
        <ele>737</ele>
        <time>2021-04-26T12:45:56Z</time>
      </trkpt>
      <trkpt lat="45.29209" lon="4.25479">
        <ele>737</ele>
        <time>2021-04-26T12:45:57Z</time>
      </trkpt>
      <trkpt lat="45.29207" lon="4.2548">
        <ele>738</ele>
        <time>2021-04-26T12:45:58Z</time>
      </trkpt>
      <trkpt lat="45.29205" lon="4.25482">
        <ele>738</ele>
        <time>2021-04-26T12:45:59Z</time>
      </trkpt>
      <trkpt lat="45.29203" lon="4.25483">
        <ele>738</ele>
        <time>2021-04-26T12:46:00Z</time>
      </trkpt>
      <trkpt lat="45.29201" lon="4.25484">
        <ele>738</ele>
        <time>2021-04-26T12:46:01Z</time>
      </trkpt>
      <trkpt lat="45.29199" lon="4.25485">
        <ele>739</ele>
        <time>2021-04-26T12:46:02Z</time>
      </trkpt>
      <trkpt lat="45.29196" lon="4.25486">
        <ele>739</ele>
        <time>2021-04-26T12:46:03Z</time>
      </trkpt>
      <trkpt lat="45.29192" lon="4.25487">
        <ele>740</ele>
        <time>2021-04-26T12:46:04Z</time>
      </trkpt>
      <trkpt lat="45.29189" lon="4.25489">
        <ele>740</ele>
        <time>2021-04-26T12:46:05Z</time>
      </trkpt>
      <trkpt lat="45.29186" lon="4.25491">
        <ele>740</ele>
        <time>2021-04-26T12:46:06Z</time>
      </trkpt>
      <trkpt lat="45.29182" lon="4.25492">
        <ele>741</ele>
        <time>2021-04-26T12:46:07Z</time>
      </trkpt>
      <trkpt lat="45.29178" lon="4.25494">
        <ele>741</ele>
        <time>2021-04-26T12:46:08Z</time>
      </trkpt>
      <trkpt lat="45.29174" lon="4.25496">
        <ele>742</ele>
        <time>2021-04-26T12:46:09Z</time>
      </trkpt>
      <trkpt lat="45.29171" lon="4.25498">
        <ele>742</ele>
        <time>2021-04-26T12:46:10Z</time>
      </trkpt>
      <trkpt lat="45.29167" lon="4.25499">
        <ele>743</ele>
        <time>2021-04-26T12:46:11Z</time>
      </trkpt>
      <trkpt lat="45.29163" lon="4.25501">
        <ele>743</ele>
        <time>2021-04-26T12:46:12Z</time>
      </trkpt>
      <trkpt lat="45.2916" lon="4.25503">
        <ele>743</ele>
        <time>2021-04-26T12:46:13Z</time>
      </trkpt>
      <trkpt lat="45.29158" lon="4.25506">
        <ele>743</ele>
        <time>2021-04-26T12:46:14Z</time>
      </trkpt>
      <trkpt lat="45.29155" lon="4.25508">
        <ele>743</ele>
        <time>2021-04-26T12:46:15Z</time>
      </trkpt>
      <trkpt lat="45.29148" lon="4.25513">
        <ele>744</ele>
        <time>2021-04-26T12:46:17Z</time>
      </trkpt>
      <trkpt lat="45.29146" lon="4.25516">
        <ele>744</ele>
        <time>2021-04-26T12:46:18Z</time>
      </trkpt>
      <trkpt lat="45.29144" lon="4.25518">
        <ele>745</ele>
        <time>2021-04-26T12:46:19Z</time>
      </trkpt>
      <trkpt lat="45.29142" lon="4.2552">
        <ele>745</ele>
        <time>2021-04-26T12:46:20Z</time>
      </trkpt>
      <trkpt lat="45.2914" lon="4.25523">
        <ele>745</ele>
        <time>2021-04-26T12:46:21Z</time>
      </trkpt>
      <trkpt lat="45.29138" lon="4.25527">
        <ele>745</ele>
        <time>2021-04-26T12:46:22Z</time>
      </trkpt>
      <trkpt lat="45.29136" lon="4.25529">
        <ele>745</ele>
        <time>2021-04-26T12:46:23Z</time>
      </trkpt>
      <trkpt lat="45.29134" lon="4.2553">
        <ele>746</ele>
        <time>2021-04-26T12:46:24Z</time>
      </trkpt>
      <trkpt lat="45.29132" lon="4.25533">
        <ele>747</ele>
        <time>2021-04-26T12:46:25Z</time>
      </trkpt>
      <trkpt lat="45.29129" lon="4.25535">
        <ele>747</ele>
        <time>2021-04-26T12:46:26Z</time>
      </trkpt>
      <trkpt lat="45.29119" lon="4.25546">
        <ele>749</ele>
        <time>2021-04-26T12:46:29Z</time>
      </trkpt>
      <trkpt lat="45.29113" lon="4.25553">
        <ele>750</ele>
        <time>2021-04-26T12:46:31Z</time>
      </trkpt>
      <trkpt lat="45.29111" lon="4.25557">
        <ele>750</ele>
        <time>2021-04-26T12:46:32Z</time>
      </trkpt>
      <trkpt lat="45.29109" lon="4.2556">
        <ele>751</ele>
        <time>2021-04-26T12:46:33Z</time>
      </trkpt>
      <trkpt lat="45.29106" lon="4.25564">
        <ele>751</ele>
        <time>2021-04-26T12:46:34Z</time>
      </trkpt>
      <trkpt lat="45.29104" lon="4.25567">
        <ele>751</ele>
        <time>2021-04-26T12:46:35Z</time>
      </trkpt>
      <trkpt lat="45.29102" lon="4.25571">
        <ele>751</ele>
        <time>2021-04-26T12:46:36Z</time>
      </trkpt>
      <trkpt lat="45.29096" lon="4.25585">
        <ele>751</ele>
        <time>2021-04-26T12:46:39Z</time>
      </trkpt>
      <trkpt lat="45.29096" lon="4.2559">
        <ele>752</ele>
        <time>2021-04-26T12:46:41Z</time>
      </trkpt>
      <trkpt lat="45.29094" lon="4.25598">
        <ele>753</ele>
        <time>2021-04-26T12:46:43Z</time>
      </trkpt>
      <trkpt lat="45.29093" lon="4.25606">
        <ele>753</ele>
        <time>2021-04-26T12:46:45Z</time>
      </trkpt>
      <trkpt lat="45.29093" lon="4.2561">
        <ele>754</ele>
        <time>2021-04-26T12:46:46Z</time>
      </trkpt>
      <trkpt lat="45.29093" lon="4.25614">
        <ele>754</ele>
        <time>2021-04-26T12:46:47Z</time>
      </trkpt>
      <trkpt lat="45.29093" lon="4.25617">
        <ele>754</ele>
        <time>2021-04-26T12:46:48Z</time>
      </trkpt>
      <trkpt lat="45.29093" lon="4.25621">
        <ele>755</ele>
        <time>2021-04-26T12:46:49Z</time>
      </trkpt>
      <trkpt lat="45.29092" lon="4.25625">
        <ele>755</ele>
        <time>2021-04-26T12:46:50Z</time>
      </trkpt>
      <trkpt lat="45.29093" lon="4.2563">
        <ele>755</ele>
        <time>2021-04-26T12:46:51Z</time>
      </trkpt>
      <trkpt lat="45.29093" lon="4.25635">
        <ele>755</ele>
        <time>2021-04-26T12:46:52Z</time>
      </trkpt>
      <trkpt lat="45.29093" lon="4.2564">
        <ele>756</ele>
        <time>2021-04-26T12:46:53Z</time>
      </trkpt>
      <trkpt lat="45.29094" lon="4.25658">
        <ele>756</ele>
        <time>2021-04-26T12:46:56Z</time>
      </trkpt>
      <trkpt lat="45.29095" lon="4.25672">
        <ele>756</ele>
        <time>2021-04-26T12:46:58Z</time>
      </trkpt>
      <trkpt lat="45.29098" lon="4.25686">
        <ele>757</ele>
        <time>2021-04-26T12:47:00Z</time>
      </trkpt>
      <trkpt lat="45.29106" lon="4.25701">
        <ele>758</ele>
        <time>2021-04-26T12:47:02Z</time>
      </trkpt>
      <trkpt lat="45.29113" lon="4.25709">
        <ele>758</ele>
        <time>2021-04-26T12:47:03Z</time>
      </trkpt>
      <trkpt lat="45.29121" lon="4.25716">
        <ele>758</ele>
        <time>2021-04-26T12:47:04Z</time>
      </trkpt>
      <trkpt lat="45.29134" lon="4.25727">
        <ele>759</ele>
        <time>2021-04-26T12:47:06Z</time>
      </trkpt>
      <trkpt lat="45.29148" lon="4.25738">
        <ele>760</ele>
        <time>2021-04-26T12:47:08Z</time>
      </trkpt>
      <trkpt lat="45.29163" lon="4.25748">
        <ele>760</ele>
        <time>2021-04-26T12:47:10Z</time>
      </trkpt>
      <trkpt lat="45.29174" lon="4.25756">
        <ele>760</ele>
        <time>2021-04-26T12:47:12Z</time>
      </trkpt>
      <trkpt lat="45.2918" lon="4.25762">
        <ele>760</ele>
        <time>2021-04-26T12:47:13Z</time>
      </trkpt>
      <trkpt lat="45.29186" lon="4.25769">
        <ele>760</ele>
        <time>2021-04-26T12:47:14Z</time>
      </trkpt>
      <trkpt lat="45.29192" lon="4.25777">
        <ele>760</ele>
        <time>2021-04-26T12:47:15Z</time>
      </trkpt>
      <trkpt lat="45.29196" lon="4.25784">
        <ele>760</ele>
        <time>2021-04-26T12:47:16Z</time>
      </trkpt>
      <trkpt lat="45.29201" lon="4.25803">
        <ele>759</ele>
        <time>2021-04-26T12:47:18Z</time>
      </trkpt>
      <trkpt lat="45.29203" lon="4.25816">
        <ele>758</ele>
        <time>2021-04-26T12:47:19Z</time>
      </trkpt>
      <trkpt lat="45.29206" lon="4.25829">
        <ele>758</ele>
        <time>2021-04-26T12:47:20Z</time>
      </trkpt>
      <trkpt lat="45.29207" lon="4.25851">
        <ele>758</ele>
        <time>2021-04-26T12:47:22Z</time>
      </trkpt>
      <trkpt lat="45.29203" lon="4.25875">
        <ele>755</ele>
        <time>2021-04-26T12:47:24Z</time>
      </trkpt>
      <trkpt lat="45.29195" lon="4.25895">
        <ele>754</ele>
        <time>2021-04-26T12:47:26Z</time>
      </trkpt>
      <trkpt lat="45.29188" lon="4.25908">
        <ele>753</ele>
        <time>2021-04-26T12:47:28Z</time>
      </trkpt>
      <trkpt lat="45.29183" lon="4.25919">
        <ele>753</ele>
        <time>2021-04-26T12:47:31Z</time>
      </trkpt>
      <trkpt lat="45.29182" lon="4.25925">
        <ele>749</ele>
        <time>2021-04-26T12:47:33Z</time>
      </trkpt>
      <trkpt lat="45.29181" lon="4.25929">
        <ele>749</ele>
        <time>2021-04-26T12:47:34Z</time>
      </trkpt>
      <trkpt lat="45.29179" lon="4.25932">
        <ele>748</ele>
        <time>2021-04-26T12:47:35Z</time>
      </trkpt>
      <trkpt lat="45.29178" lon="4.25937">
        <ele>748</ele>
        <time>2021-04-26T12:47:36Z</time>
      </trkpt>
      <trkpt lat="45.29177" lon="4.25943">
        <ele>748</ele>
        <time>2021-04-26T12:47:37Z</time>
      </trkpt>
      <trkpt lat="45.29174" lon="4.25949">
        <ele>748</ele>
        <time>2021-04-26T12:47:38Z</time>
      </trkpt>
      <trkpt lat="45.29169" lon="4.2596">
        <ele>747</ele>
        <time>2021-04-26T12:47:40Z</time>
      </trkpt>
      <trkpt lat="45.29167" lon="4.25965">
        <ele>747</ele>
        <time>2021-04-26T12:47:41Z</time>
      </trkpt>
      <trkpt lat="45.29163" lon="4.25978">
        <ele>747</ele>
        <time>2021-04-26T12:47:44Z</time>
      </trkpt>
      <trkpt lat="45.29165" lon="4.25994">
        <ele>747</ele>
        <time>2021-04-26T12:47:47Z</time>
      </trkpt>
      <trkpt lat="45.29168" lon="4.2601">
        <ele>748</ele>
        <time>2021-04-26T12:47:49Z</time>
      </trkpt>
      <trkpt lat="45.29166" lon="4.26025">
        <ele>748</ele>
        <time>2021-04-26T12:47:51Z</time>
      </trkpt>
      <trkpt lat="45.29162" lon="4.26039">
        <ele>748</ele>
        <time>2021-04-26T12:47:54Z</time>
      </trkpt>
      <trkpt lat="45.29163" lon="4.26056">
        <ele>748</ele>
        <time>2021-04-26T12:47:57Z</time>
      </trkpt>
      <trkpt lat="45.29162" lon="4.26059">
        <ele>748</ele>
        <time>2021-04-26T12:47:58Z</time>
      </trkpt>
      <trkpt lat="45.2916" lon="4.26061">
        <ele>748</ele>
        <time>2021-04-26T12:47:59Z</time>
      </trkpt>
      <trkpt lat="45.29159" lon="4.26064">
        <ele>749</ele>
        <time>2021-04-26T12:48:00Z</time>
      </trkpt>
      <trkpt lat="45.29157" lon="4.26067">
        <ele>749</ele>
        <time>2021-04-26T12:48:01Z</time>
      </trkpt>
      <trkpt lat="45.29156" lon="4.26069">
        <ele>749</ele>
        <time>2021-04-26T12:48:02Z</time>
      </trkpt>
      <trkpt lat="45.29154" lon="4.26072">
        <ele>749</ele>
        <time>2021-04-26T12:48:03Z</time>
      </trkpt>
      <trkpt lat="45.29153" lon="4.26075">
        <ele>749</ele>
        <time>2021-04-26T12:48:04Z</time>
      </trkpt>
      <trkpt lat="45.29152" lon="4.26078">
        <ele>749</ele>
        <time>2021-04-26T12:48:05Z</time>
      </trkpt>
      <trkpt lat="45.29152" lon="4.26081">
        <ele>749</ele>
        <time>2021-04-26T12:48:06Z</time>
      </trkpt>
      <trkpt lat="45.29156" lon="4.26084">
        <ele>750</ele>
        <time>2021-04-26T12:48:08Z</time>
      </trkpt>
      <trkpt lat="45.29157" lon="4.26088">
        <ele>750</ele>
        <time>2021-04-26T12:48:10Z</time>
      </trkpt>
      <trkpt lat="45.29156" lon="4.26092">
        <ele>750</ele>
        <time>2021-04-26T12:48:12Z</time>
      </trkpt>
      <trkpt lat="45.29156" lon="4.26095">
        <ele>749</ele>
        <time>2021-04-26T12:48:16Z</time>
      </trkpt>
      <trkpt lat="45.29156" lon="4.26095">
        <ele>749</ele>
        <time>2021-04-26T12:48:17Z</time>
      </trkpt>
      <trkpt lat="45.29156" lon="4.26098">
        <ele>751</ele>
        <time>2021-04-26T12:48:24Z</time>
      </trkpt>
      <trkpt lat="45.29156" lon="4.26101">
        <ele>751</ele>
        <time>2021-04-26T12:48:28Z</time>
      </trkpt>
      <trkpt lat="45.29156" lon="4.26108">
        <ele>750</ele>
        <time>2021-04-26T12:48:46Z</time>
      </trkpt>
      <trkpt lat="45.29154" lon="4.26111">
        <ele>750</ele>
        <time>2021-04-26T12:48:47Z</time>
      </trkpt>
      <trkpt lat="45.29152" lon="4.26113">
        <ele>751</ele>
        <time>2021-04-26T12:48:48Z</time>
      </trkpt>
      <trkpt lat="45.2915" lon="4.26115">
        <ele>751</ele>
        <time>2021-04-26T12:48:49Z</time>
      </trkpt>
      <trkpt lat="45.29148" lon="4.26119">
        <ele>751</ele>
        <time>2021-04-26T12:48:50Z</time>
      </trkpt>
      <trkpt lat="45.29146" lon="4.26123">
        <ele>751</ele>
        <time>2021-04-26T12:48:51Z</time>
      </trkpt>
      <trkpt lat="45.29143" lon="4.26126">
        <ele>751</ele>
        <time>2021-04-26T12:48:52Z</time>
      </trkpt>
      <trkpt lat="45.29141" lon="4.2613">
        <ele>751</ele>
        <time>2021-04-26T12:48:53Z</time>
      </trkpt>
      <trkpt lat="45.29138" lon="4.26133">
        <ele>751</ele>
        <time>2021-04-26T12:48:54Z</time>
      </trkpt>
      <trkpt lat="45.29135" lon="4.26138">
        <ele>751</ele>
        <time>2021-04-26T12:48:55Z</time>
      </trkpt>
      <trkpt lat="45.29132" lon="4.26142">
        <ele>751</ele>
        <time>2021-04-26T12:48:56Z</time>
      </trkpt>
      <trkpt lat="45.29129" lon="4.26147">
        <ele>751</ele>
        <time>2021-04-26T12:48:57Z</time>
      </trkpt>
      <trkpt lat="45.29127" lon="4.26151">
        <ele>751</ele>
        <time>2021-04-26T12:48:58Z</time>
      </trkpt>
      <trkpt lat="45.29124" lon="4.26156">
        <ele>751</ele>
        <time>2021-04-26T12:48:59Z</time>
      </trkpt>
      <trkpt lat="45.29121" lon="4.26161">
        <ele>751</ele>
        <time>2021-04-26T12:49:00Z</time>
      </trkpt>
      <trkpt lat="45.29118" lon="4.26165">
        <ele>751</ele>
        <time>2021-04-26T12:49:01Z</time>
      </trkpt>
      <trkpt lat="45.29116" lon="4.2617">
        <ele>751</ele>
        <time>2021-04-26T12:49:02Z</time>
      </trkpt>
      <trkpt lat="45.29113" lon="4.26174">
        <ele>751</ele>
        <time>2021-04-26T12:49:03Z</time>
      </trkpt>
      <trkpt lat="45.29111" lon="4.26179">
        <ele>751</ele>
        <time>2021-04-26T12:49:04Z</time>
      </trkpt>
      <trkpt lat="45.29109" lon="4.26183">
        <ele>751</ele>
        <time>2021-04-26T12:49:05Z</time>
      </trkpt>
      <trkpt lat="45.29107" lon="4.26187">
        <ele>751</ele>
        <time>2021-04-26T12:49:06Z</time>
      </trkpt>
      <trkpt lat="45.29105" lon="4.26192">
        <ele>751</ele>
        <time>2021-04-26T12:49:07Z</time>
      </trkpt>
      <trkpt lat="45.29103" lon="4.26196">
        <ele>751</ele>
        <time>2021-04-26T12:49:08Z</time>
      </trkpt>
      <trkpt lat="45.29101" lon="4.262">
        <ele>751</ele>
        <time>2021-04-26T12:49:09Z</time>
      </trkpt>
      <trkpt lat="45.29099" lon="4.26205">
        <ele>751</ele>
        <time>2021-04-26T12:49:10Z</time>
      </trkpt>
      <trkpt lat="45.29097" lon="4.2621">
        <ele>751</ele>
        <time>2021-04-26T12:49:11Z</time>
      </trkpt>
      <trkpt lat="45.29095" lon="4.26215">
        <ele>751</ele>
        <time>2021-04-26T12:49:12Z</time>
      </trkpt>
      <trkpt lat="45.29093" lon="4.2622">
        <ele>751</ele>
        <time>2021-04-26T12:49:13Z</time>
      </trkpt>
      <trkpt lat="45.29091" lon="4.26224">
        <ele>751</ele>
        <time>2021-04-26T12:49:14Z</time>
      </trkpt>
      <trkpt lat="45.2909" lon="4.26229">
        <ele>751</ele>
        <time>2021-04-26T12:49:15Z</time>
      </trkpt>
      <trkpt lat="45.29088" lon="4.26233">
        <ele>751</ele>
        <time>2021-04-26T12:49:16Z</time>
      </trkpt>
      <trkpt lat="45.29086" lon="4.26238">
        <ele>751</ele>
        <time>2021-04-26T12:49:17Z</time>
      </trkpt>
      <trkpt lat="45.29084" lon="4.26243">
        <ele>751</ele>
        <time>2021-04-26T12:49:18Z</time>
      </trkpt>
      <trkpt lat="45.29083" lon="4.26249">
        <ele>751</ele>
        <time>2021-04-26T12:49:19Z</time>
      </trkpt>
      <trkpt lat="45.29081" lon="4.26255">
        <ele>751</ele>
        <time>2021-04-26T12:49:20Z</time>
      </trkpt>
      <trkpt lat="45.29079" lon="4.2626">
        <ele>751</ele>
        <time>2021-04-26T12:49:21Z</time>
      </trkpt>
      <trkpt lat="45.29077" lon="4.26266">
        <ele>751</ele>
        <time>2021-04-26T12:49:22Z</time>
      </trkpt>
      <trkpt lat="45.29075" lon="4.26272">
        <ele>751</ele>
        <time>2021-04-26T12:49:23Z</time>
      </trkpt>
      <trkpt lat="45.29073" lon="4.26277">
        <ele>751</ele>
        <time>2021-04-26T12:49:24Z</time>
      </trkpt>
      <trkpt lat="45.29071" lon="4.26283">
        <ele>751</ele>
        <time>2021-04-26T12:49:25Z</time>
      </trkpt>
      <trkpt lat="45.29069" lon="4.26289">
        <ele>751</ele>
        <time>2021-04-26T12:49:26Z</time>
      </trkpt>
      <trkpt lat="45.29068" lon="4.26295">
        <ele>751</ele>
        <time>2021-04-26T12:49:27Z</time>
      </trkpt>
      <trkpt lat="45.29066" lon="4.26301">
        <ele>751</ele>
        <time>2021-04-26T12:49:28Z</time>
      </trkpt>
      <trkpt lat="45.29064" lon="4.26307">
        <ele>751</ele>
        <time>2021-04-26T12:49:29Z</time>
      </trkpt>
      <trkpt lat="45.29063" lon="4.26313">
        <ele>751</ele>
        <time>2021-04-26T12:49:30Z</time>
      </trkpt>
      <trkpt lat="45.29061" lon="4.26318">
        <ele>751</ele>
        <time>2021-04-26T12:49:31Z</time>
      </trkpt>
      <trkpt lat="45.29058" lon="4.26324">
        <ele>751</ele>
        <time>2021-04-26T12:49:32Z</time>
      </trkpt>
      <trkpt lat="45.29056" lon="4.2633">
        <ele>751</ele>
        <time>2021-04-26T12:49:33Z</time>
      </trkpt>
      <trkpt lat="45.29053" lon="4.26335">
        <ele>751</ele>
        <time>2021-04-26T12:49:34Z</time>
      </trkpt>
      <trkpt lat="45.29051" lon="4.26341">
        <ele>751</ele>
        <time>2021-04-26T12:49:35Z</time>
      </trkpt>
      <trkpt lat="45.29049" lon="4.26347">
        <ele>751</ele>
        <time>2021-04-26T12:49:36Z</time>
      </trkpt>
      <trkpt lat="45.29047" lon="4.26353">
        <ele>751</ele>
        <time>2021-04-26T12:49:37Z</time>
      </trkpt>
      <trkpt lat="45.29044" lon="4.26358">
        <ele>751</ele>
        <time>2021-04-26T12:49:38Z</time>
      </trkpt>
      <trkpt lat="45.29042" lon="4.26364">
        <ele>752</ele>
        <time>2021-04-26T12:49:39Z</time>
      </trkpt>
      <trkpt lat="45.29039" lon="4.26369">
        <ele>752</ele>
        <time>2021-04-26T12:49:40Z</time>
      </trkpt>
      <trkpt lat="45.29037" lon="4.26374">
        <ele>752</ele>
        <time>2021-04-26T12:49:41Z</time>
      </trkpt>
      <trkpt lat="45.29035" lon="4.2638">
        <ele>753</ele>
        <time>2021-04-26T12:49:42Z</time>
      </trkpt>
      <trkpt lat="45.29032" lon="4.26384">
        <ele>753</ele>
        <time>2021-04-26T12:49:43Z</time>
      </trkpt>
      <trkpt lat="45.29029" lon="4.26389">
        <ele>753</ele>
        <time>2021-04-26T12:49:44Z</time>
      </trkpt>
      <trkpt lat="45.29027" lon="4.26394">
        <ele>753</ele>
        <time>2021-04-26T12:49:45Z</time>
      </trkpt>
      <trkpt lat="45.29024" lon="4.26399">
        <ele>754</ele>
        <time>2021-04-26T12:49:46Z</time>
      </trkpt>
      <trkpt lat="45.29022" lon="4.26403">
        <ele>754</ele>
        <time>2021-04-26T12:49:47Z</time>
      </trkpt>
      <trkpt lat="45.2902" lon="4.26406">
        <ele>755</ele>
        <time>2021-04-26T12:49:48Z</time>
      </trkpt>
      <trkpt lat="45.29018" lon="4.26409">
        <ele>755</ele>
        <time>2021-04-26T12:49:49Z</time>
      </trkpt>
      <trkpt lat="45.29016" lon="4.26412">
        <ele>756</ele>
        <time>2021-04-26T12:49:50Z</time>
      </trkpt>
      <trkpt lat="45.29014" lon="4.26414">
        <ele>756</ele>
        <time>2021-04-26T12:49:51Z</time>
      </trkpt>
      <trkpt lat="45.29013" lon="4.26418">
        <ele>756</ele>
        <time>2021-04-26T12:49:53Z</time>
      </trkpt>
      <trkpt lat="45.29015" lon="4.26421">
        <ele>756</ele>
        <time>2021-04-26T12:49:55Z</time>
      </trkpt>
      <trkpt lat="45.29017" lon="4.26425">
        <ele>756</ele>
        <time>2021-04-26T12:49:57Z</time>
      </trkpt>
      <trkpt lat="45.2902" lon="4.26429">
        <ele>755</ele>
        <time>2021-04-26T12:49:59Z</time>
      </trkpt>
      <trkpt lat="45.29022" lon="4.26433">
        <ele>755</ele>
        <time>2021-04-26T12:50:00Z</time>
      </trkpt>
      <trkpt lat="45.29024" lon="4.26436">
        <ele>755</ele>
        <time>2021-04-26T12:50:01Z</time>
      </trkpt>
      <trkpt lat="45.29026" lon="4.2644">
        <ele>754</ele>
        <time>2021-04-26T12:50:02Z</time>
      </trkpt>
      <trkpt lat="45.29029" lon="4.26445">
        <ele>754</ele>
        <time>2021-04-26T12:50:03Z</time>
      </trkpt>
      <trkpt lat="45.29032" lon="4.26451">
        <ele>754</ele>
        <time>2021-04-26T12:50:04Z</time>
      </trkpt>
      <trkpt lat="45.29035" lon="4.26457">
        <ele>754</ele>
        <time>2021-04-26T12:50:05Z</time>
      </trkpt>
      <trkpt lat="45.29038" lon="4.26463">
        <ele>754</ele>
        <time>2021-04-26T12:50:06Z</time>
      </trkpt>
      <trkpt lat="45.29042" lon="4.26471">
        <ele>754</ele>
        <time>2021-04-26T12:50:07Z</time>
      </trkpt>
      <trkpt lat="45.29046" lon="4.26478">
        <ele>754</ele>
        <time>2021-04-26T12:50:08Z</time>
      </trkpt>
      <trkpt lat="45.29049" lon="4.26486">
        <ele>753</ele>
        <time>2021-04-26T12:50:09Z</time>
      </trkpt>
      <trkpt lat="45.29052" lon="4.26493">
        <ele>753</ele>
        <time>2021-04-26T12:50:10Z</time>
      </trkpt>
      <trkpt lat="45.29055" lon="4.26501">
        <ele>753</ele>
        <time>2021-04-26T12:50:11Z</time>
      </trkpt>
      <trkpt lat="45.29058" lon="4.26509">
        <ele>753</ele>
        <time>2021-04-26T12:50:12Z</time>
      </trkpt>
      <trkpt lat="45.2906" lon="4.26518">
        <ele>752</ele>
        <time>2021-04-26T12:50:13Z</time>
      </trkpt>
      <trkpt lat="45.29063" lon="4.26527">
        <ele>752</ele>
        <time>2021-04-26T12:50:14Z</time>
      </trkpt>
      <trkpt lat="45.29066" lon="4.26536">
        <ele>752</ele>
        <time>2021-04-26T12:50:15Z</time>
      </trkpt>
      <trkpt lat="45.29069" lon="4.26544">
        <ele>753</ele>
        <time>2021-04-26T12:50:16Z</time>
      </trkpt>
      <trkpt lat="45.29072" lon="4.26553">
        <ele>752</ele>
        <time>2021-04-26T12:50:17Z</time>
      </trkpt>
      <trkpt lat="45.29074" lon="4.26561">
        <ele>752</ele>
        <time>2021-04-26T12:50:18Z</time>
      </trkpt>
      <trkpt lat="45.29076" lon="4.2657">
        <ele>752</ele>
        <time>2021-04-26T12:50:19Z</time>
      </trkpt>
      <trkpt lat="45.29078" lon="4.26577">
        <ele>752</ele>
        <time>2021-04-26T12:50:20Z</time>
      </trkpt>
      <trkpt lat="45.29079" lon="4.26585">
        <ele>751</ele>
        <time>2021-04-26T12:50:21Z</time>
      </trkpt>
      <trkpt lat="45.29082" lon="4.26593">
        <ele>751</ele>
        <time>2021-04-26T12:50:22Z</time>
      </trkpt>
      <trkpt lat="45.29085" lon="4.26602">
        <ele>751</ele>
        <time>2021-04-26T12:50:23Z</time>
      </trkpt>
      <trkpt lat="45.29088" lon="4.26613">
        <ele>749</ele>
        <time>2021-04-26T12:50:24Z</time>
      </trkpt>
      <trkpt lat="45.29091" lon="4.26623">
        <ele>747</ele>
        <time>2021-04-26T12:50:25Z</time>
      </trkpt>
      <trkpt lat="45.29094" lon="4.26633">
        <ele>746</ele>
        <time>2021-04-26T12:50:26Z</time>
      </trkpt>
      <trkpt lat="45.29097" lon="4.26642">
        <ele>745</ele>
        <time>2021-04-26T12:50:27Z</time>
      </trkpt>
      <trkpt lat="45.291" lon="4.26652">
        <ele>743</ele>
        <time>2021-04-26T12:50:28Z</time>
      </trkpt>
      <trkpt lat="45.29102" lon="4.26662">
        <ele>743</ele>
        <time>2021-04-26T12:50:29Z</time>
      </trkpt>
      <trkpt lat="45.29104" lon="4.26671">
        <ele>743</ele>
        <time>2021-04-26T12:50:30Z</time>
      </trkpt>
      <trkpt lat="45.29105" lon="4.26679">
        <ele>741</ele>
        <time>2021-04-26T12:50:31Z</time>
      </trkpt>
      <trkpt lat="45.29107" lon="4.26687">
        <ele>741</ele>
        <time>2021-04-26T12:50:32Z</time>
      </trkpt>
      <trkpt lat="45.2911" lon="4.26692">
        <ele>740</ele>
        <time>2021-04-26T12:50:33Z</time>
      </trkpt>
      <trkpt lat="45.29114" lon="4.26695">
        <ele>740</ele>
        <time>2021-04-26T12:50:34Z</time>
      </trkpt>
      <trkpt lat="45.29119" lon="4.26697">
        <ele>740</ele>
        <time>2021-04-26T12:50:35Z</time>
      </trkpt>
      <trkpt lat="45.29124" lon="4.26699">
        <ele>740</ele>
        <time>2021-04-26T12:50:36Z</time>
      </trkpt>
      <trkpt lat="45.29129" lon="4.267">
        <ele>740</ele>
        <time>2021-04-26T12:50:37Z</time>
      </trkpt>
      <trkpt lat="45.29134" lon="4.26702">
        <ele>740</ele>
        <time>2021-04-26T12:50:38Z</time>
      </trkpt>
      <trkpt lat="45.29138" lon="4.26705">
        <ele>740</ele>
        <time>2021-04-26T12:50:39Z</time>
      </trkpt>
      <trkpt lat="45.29143" lon="4.26709">
        <ele>739</ele>
        <time>2021-04-26T12:50:40Z</time>
      </trkpt>
      <trkpt lat="45.29147" lon="4.26714">
        <ele>739</ele>
        <time>2021-04-26T12:50:41Z</time>
      </trkpt>
      <trkpt lat="45.29151" lon="4.26721">
        <ele>739</ele>
        <time>2021-04-26T12:50:42Z</time>
      </trkpt>
      <trkpt lat="45.29154" lon="4.2673">
        <ele>739</ele>
        <time>2021-04-26T12:50:43Z</time>
      </trkpt>
      <trkpt lat="45.29156" lon="4.26738">
        <ele>739</ele>
        <time>2021-04-26T12:50:44Z</time>
      </trkpt>
      <trkpt lat="45.29157" lon="4.26747">
        <ele>738</ele>
        <time>2021-04-26T12:50:45Z</time>
      </trkpt>
      <trkpt lat="45.29159" lon="4.26756">
        <ele>738</ele>
        <time>2021-04-26T12:50:46Z</time>
      </trkpt>
      <trkpt lat="45.2916" lon="4.26764">
        <ele>738</ele>
        <time>2021-04-26T12:50:47Z</time>
      </trkpt>
      <trkpt lat="45.29161" lon="4.26772">
        <ele>738</ele>
        <time>2021-04-26T12:50:48Z</time>
      </trkpt>
      <trkpt lat="45.29163" lon="4.26779">
        <ele>738</ele>
        <time>2021-04-26T12:50:49Z</time>
      </trkpt>
      <trkpt lat="45.29165" lon="4.26785">
        <ele>738</ele>
        <time>2021-04-26T12:50:50Z</time>
      </trkpt>
      <trkpt lat="45.29169" lon="4.26791">
        <ele>737</ele>
        <time>2021-04-26T12:50:51Z</time>
      </trkpt>
      <trkpt lat="45.29172" lon="4.26795">
        <ele>737</ele>
        <time>2021-04-26T12:50:52Z</time>
      </trkpt>
      <trkpt lat="45.29176" lon="4.26798">
        <ele>737</ele>
        <time>2021-04-26T12:50:53Z</time>
      </trkpt>
      <trkpt lat="45.29179" lon="4.268">
        <ele>737</ele>
        <time>2021-04-26T12:50:54Z</time>
      </trkpt>
      <trkpt lat="45.29182" lon="4.26802">
        <ele>737</ele>
        <time>2021-04-26T12:50:55Z</time>
      </trkpt>
      <trkpt lat="45.29185" lon="4.26803">
        <ele>737</ele>
        <time>2021-04-26T12:50:56Z</time>
      </trkpt>
      <trkpt lat="45.29189" lon="4.26805">
        <ele>737</ele>
        <time>2021-04-26T12:50:57Z</time>
      </trkpt>
      <trkpt lat="45.29193" lon="4.26804">
        <ele>738</ele>
        <time>2021-04-26T12:50:58Z</time>
      </trkpt>
      <trkpt lat="45.29197" lon="4.26802">
        <ele>738</ele>
        <time>2021-04-26T12:50:59Z</time>
      </trkpt>
      <trkpt lat="45.292" lon="4.26797">
        <ele>738</ele>
        <time>2021-04-26T12:51:00Z</time>
      </trkpt>
      <trkpt lat="45.29203" lon="4.26791">
        <ele>738</ele>
        <time>2021-04-26T12:51:01Z</time>
      </trkpt>
      <trkpt lat="45.29205" lon="4.26785">
        <ele>737</ele>
        <time>2021-04-26T12:51:02Z</time>
      </trkpt>
      <trkpt lat="45.29208" lon="4.26779">
        <ele>737</ele>
        <time>2021-04-26T12:51:03Z</time>
      </trkpt>
      <trkpt lat="45.29211" lon="4.26774">
        <ele>737</ele>
        <time>2021-04-26T12:51:04Z</time>
      </trkpt>
      <trkpt lat="45.29214" lon="4.26768">
        <ele>737</ele>
        <time>2021-04-26T12:51:05Z</time>
      </trkpt>
      <trkpt lat="45.29217" lon="4.26763">
        <ele>737</ele>
        <time>2021-04-26T12:51:06Z</time>
      </trkpt>
      <trkpt lat="45.29221" lon="4.26758">
        <ele>737</ele>
        <time>2021-04-26T12:51:07Z</time>
      </trkpt>
      <trkpt lat="45.29225" lon="4.26754">
        <ele>737</ele>
        <time>2021-04-26T12:51:08Z</time>
      </trkpt>
      <trkpt lat="45.2923" lon="4.26752">
        <ele>737</ele>
        <time>2021-04-26T12:51:09Z</time>
      </trkpt>
      <trkpt lat="45.29234" lon="4.26749">
        <ele>737</ele>
        <time>2021-04-26T12:51:10Z</time>
      </trkpt>
      <trkpt lat="45.29238" lon="4.26748">
        <ele>737</ele>
        <time>2021-04-26T12:51:11Z</time>
      </trkpt>
      <trkpt lat="45.29242" lon="4.26748">
        <ele>737</ele>
        <time>2021-04-26T12:51:12Z</time>
      </trkpt>
      <trkpt lat="45.29246" lon="4.26748">
        <ele>737</ele>
        <time>2021-04-26T12:51:13Z</time>
      </trkpt>
      <trkpt lat="45.29249" lon="4.26749">
        <ele>737</ele>
        <time>2021-04-26T12:51:14Z</time>
      </trkpt>
      <trkpt lat="45.29252" lon="4.26749">
        <ele>737</ele>
        <time>2021-04-26T12:51:15Z</time>
      </trkpt>
      <trkpt lat="45.29255" lon="4.2675">
        <ele>737</ele>
        <time>2021-04-26T12:51:16Z</time>
      </trkpt>
      <trkpt lat="45.29259" lon="4.26752">
        <ele>737</ele>
        <time>2021-04-26T12:51:17Z</time>
      </trkpt>
      <trkpt lat="45.29262" lon="4.26753">
        <ele>737</ele>
        <time>2021-04-26T12:51:18Z</time>
      </trkpt>
      <trkpt lat="45.29266" lon="4.26754">
        <ele>737</ele>
        <time>2021-04-26T12:51:19Z</time>
      </trkpt>
      <trkpt lat="45.29269" lon="4.26755">
        <ele>738</ele>
        <time>2021-04-26T12:51:20Z</time>
      </trkpt>
      <trkpt lat="45.29272" lon="4.26757">
        <ele>738</ele>
        <time>2021-04-26T12:51:21Z</time>
      </trkpt>
      <trkpt lat="45.29276" lon="4.26758">
        <ele>738</ele>
        <time>2021-04-26T12:51:22Z</time>
      </trkpt>
      <trkpt lat="45.29279" lon="4.2676">
        <ele>738</ele>
        <time>2021-04-26T12:51:23Z</time>
      </trkpt>
      <trkpt lat="45.29282" lon="4.26761">
        <ele>738</ele>
        <time>2021-04-26T12:51:24Z</time>
      </trkpt>
      <trkpt lat="45.29285" lon="4.26763">
        <ele>738</ele>
        <time>2021-04-26T12:51:25Z</time>
      </trkpt>
      <trkpt lat="45.29288" lon="4.26764">
        <ele>738</ele>
        <time>2021-04-26T12:51:26Z</time>
      </trkpt>
      <trkpt lat="45.29291" lon="4.26765">
        <ele>739</ele>
        <time>2021-04-26T12:51:27Z</time>
      </trkpt>
      <trkpt lat="45.29295" lon="4.26767">
        <ele>739</ele>
        <time>2021-04-26T12:51:28Z</time>
      </trkpt>
      <trkpt lat="45.29298" lon="4.26768">
        <ele>738</ele>
        <time>2021-04-26T12:51:29Z</time>
      </trkpt>
      <trkpt lat="45.29301" lon="4.26769">
        <ele>739</ele>
        <time>2021-04-26T12:51:30Z</time>
      </trkpt>
      <trkpt lat="45.29305" lon="4.26769">
        <ele>739</ele>
        <time>2021-04-26T12:51:31Z</time>
      </trkpt>
      <trkpt lat="45.29308" lon="4.26771">
        <ele>739</ele>
        <time>2021-04-26T12:51:32Z</time>
      </trkpt>
      <trkpt lat="45.29312" lon="4.26771">
        <ele>739</ele>
        <time>2021-04-26T12:51:33Z</time>
      </trkpt>
      <trkpt lat="45.29316" lon="4.26772">
        <ele>739</ele>
        <time>2021-04-26T12:51:34Z</time>
      </trkpt>
      <trkpt lat="45.2932" lon="4.26773">
        <ele>740</ele>
        <time>2021-04-26T12:51:35Z</time>
      </trkpt>
      <trkpt lat="45.29324" lon="4.26774">
        <ele>740</ele>
        <time>2021-04-26T12:51:36Z</time>
      </trkpt>
      <trkpt lat="45.29327" lon="4.26775">
        <ele>740</ele>
        <time>2021-04-26T12:51:37Z</time>
      </trkpt>
      <trkpt lat="45.2933" lon="4.26777">
        <ele>740</ele>
        <time>2021-04-26T12:51:38Z</time>
      </trkpt>
      <trkpt lat="45.29331" lon="4.2678">
        <ele>740</ele>
        <time>2021-04-26T12:51:39Z</time>
      </trkpt>
      <trkpt lat="45.29332" lon="4.26783">
        <ele>741</ele>
        <time>2021-04-26T12:51:40Z</time>
      </trkpt>
      <trkpt lat="45.29332" lon="4.26788">
        <ele>741</ele>
        <time>2021-04-26T12:51:41Z</time>
      </trkpt>
      <trkpt lat="45.29331" lon="4.26792">
        <ele>741</ele>
        <time>2021-04-26T12:51:42Z</time>
      </trkpt>
      <trkpt lat="45.29331" lon="4.26797">
        <ele>741</ele>
        <time>2021-04-26T12:51:43Z</time>
      </trkpt>
      <trkpt lat="45.29331" lon="4.26803">
        <ele>742</ele>
        <time>2021-04-26T12:51:44Z</time>
      </trkpt>
      <trkpt lat="45.29331" lon="4.26808">
        <ele>742</ele>
        <time>2021-04-26T12:51:45Z</time>
      </trkpt>
      <trkpt lat="45.29332" lon="4.26814">
        <ele>742</ele>
        <time>2021-04-26T12:51:46Z</time>
      </trkpt>
      <trkpt lat="45.29332" lon="4.2682">
        <ele>742</ele>
        <time>2021-04-26T12:51:47Z</time>
      </trkpt>
      <trkpt lat="45.29332" lon="4.26826">
        <ele>742</ele>
        <time>2021-04-26T12:51:48Z</time>
      </trkpt>
      <trkpt lat="45.29333" lon="4.26832">
        <ele>743</ele>
        <time>2021-04-26T12:51:49Z</time>
      </trkpt>
      <trkpt lat="45.29333" lon="4.26838">
        <ele>743</ele>
        <time>2021-04-26T12:51:50Z</time>
      </trkpt>
      <trkpt lat="45.29334" lon="4.26844">
        <ele>743</ele>
        <time>2021-04-26T12:51:51Z</time>
      </trkpt>
      <trkpt lat="45.29334" lon="4.26849">
        <ele>743</ele>
        <time>2021-04-26T12:51:52Z</time>
      </trkpt>
      <trkpt lat="45.29335" lon="4.26855">
        <ele>744</ele>
        <time>2021-04-26T12:51:53Z</time>
      </trkpt>
      <trkpt lat="45.29335" lon="4.26862">
        <ele>744</ele>
        <time>2021-04-26T12:51:54Z</time>
      </trkpt>
      <trkpt lat="45.29335" lon="4.26868">
        <ele>745</ele>
        <time>2021-04-26T12:51:55Z</time>
      </trkpt>
      <trkpt lat="45.29336" lon="4.26874">
        <ele>745</ele>
        <time>2021-04-26T12:51:56Z</time>
      </trkpt>
      <trkpt lat="45.29336" lon="4.2688">
        <ele>745</ele>
        <time>2021-04-26T12:51:57Z</time>
      </trkpt>
      <trkpt lat="45.29337" lon="4.26886">
        <ele>745</ele>
        <time>2021-04-26T12:51:58Z</time>
      </trkpt>
      <trkpt lat="45.29337" lon="4.26892">
        <ele>746</ele>
        <time>2021-04-26T12:51:59Z</time>
      </trkpt>
      <trkpt lat="45.29338" lon="4.26899">
        <ele>746</ele>
        <time>2021-04-26T12:52:00Z</time>
      </trkpt>
      <trkpt lat="45.29338" lon="4.26905">
        <ele>746</ele>
        <time>2021-04-26T12:52:01Z</time>
      </trkpt>
      <trkpt lat="45.29338" lon="4.26911">
        <ele>746</ele>
        <time>2021-04-26T12:52:02Z</time>
      </trkpt>
      <trkpt lat="45.29338" lon="4.26917">
        <ele>746</ele>
        <time>2021-04-26T12:52:03Z</time>
      </trkpt>
      <trkpt lat="45.29339" lon="4.26922">
        <ele>747</ele>
        <time>2021-04-26T12:52:04Z</time>
      </trkpt>
      <trkpt lat="45.29339" lon="4.26927">
        <ele>747</ele>
        <time>2021-04-26T12:52:05Z</time>
      </trkpt>
      <trkpt lat="45.29339" lon="4.26932">
        <ele>747</ele>
        <time>2021-04-26T12:52:06Z</time>
      </trkpt>
      <trkpt lat="45.29339" lon="4.26938">
        <ele>747</ele>
        <time>2021-04-26T12:52:07Z</time>
      </trkpt>
      <trkpt lat="45.29339" lon="4.26943">
        <ele>747</ele>
        <time>2021-04-26T12:52:08Z</time>
      </trkpt>
      <trkpt lat="45.29339" lon="4.26948">
        <ele>748</ele>
        <time>2021-04-26T12:52:09Z</time>
      </trkpt>
      <trkpt lat="45.29339" lon="4.26953">
        <ele>748</ele>
        <time>2021-04-26T12:52:10Z</time>
      </trkpt>
      <trkpt lat="45.2934" lon="4.26958">
        <ele>749</ele>
        <time>2021-04-26T12:52:11Z</time>
      </trkpt>
      <trkpt lat="45.2934" lon="4.26962">
        <ele>749</ele>
        <time>2021-04-26T12:52:12Z</time>
      </trkpt>
      <trkpt lat="45.2934" lon="4.26967">
        <ele>750</ele>
        <time>2021-04-26T12:52:13Z</time>
      </trkpt>
      <trkpt lat="45.2934" lon="4.26971">
        <ele>750</ele>
        <time>2021-04-26T12:52:14Z</time>
      </trkpt>
      <trkpt lat="45.29339" lon="4.26975">
        <ele>751</ele>
        <time>2021-04-26T12:52:15Z</time>
      </trkpt>
      <trkpt lat="45.2934" lon="4.26979">
        <ele>751</ele>
        <time>2021-04-26T12:52:16Z</time>
      </trkpt>
      <trkpt lat="45.2934" lon="4.26983">
        <ele>751</ele>
        <time>2021-04-26T12:52:17Z</time>
      </trkpt>
      <trkpt lat="45.2934" lon="4.26988">
        <ele>752</ele>
        <time>2021-04-26T12:52:18Z</time>
      </trkpt>
      <trkpt lat="45.29341" lon="4.26992">
        <ele>752</ele>
        <time>2021-04-26T12:52:19Z</time>
      </trkpt>
      <trkpt lat="45.29341" lon="4.26997">
        <ele>752</ele>
        <time>2021-04-26T12:52:20Z</time>
      </trkpt>
      <trkpt lat="45.29341" lon="4.27001">
        <ele>753</ele>
        <time>2021-04-26T12:52:21Z</time>
      </trkpt>
      <trkpt lat="45.29341" lon="4.27006">
        <ele>753</ele>
        <time>2021-04-26T12:52:22Z</time>
      </trkpt>
      <trkpt lat="45.29342" lon="4.27011">
        <ele>753</ele>
        <time>2021-04-26T12:52:23Z</time>
      </trkpt>
      <trkpt lat="45.29342" lon="4.27015">
        <ele>754</ele>
        <time>2021-04-26T12:52:24Z</time>
      </trkpt>
      <trkpt lat="45.29342" lon="4.2702">
        <ele>754</ele>
        <time>2021-04-26T12:52:25Z</time>
      </trkpt>
      <trkpt lat="45.29341" lon="4.27025">
        <ele>754</ele>
        <time>2021-04-26T12:52:26Z</time>
      </trkpt>
      <trkpt lat="45.2934" lon="4.27029">
        <ele>754</ele>
        <time>2021-04-26T12:52:27Z</time>
      </trkpt>
      <trkpt lat="45.29339" lon="4.27034">
        <ele>755</ele>
        <time>2021-04-26T12:52:28Z</time>
      </trkpt>
      <trkpt lat="45.29338" lon="4.27038">
        <ele>755</ele>
        <time>2021-04-26T12:52:29Z</time>
      </trkpt>
      <trkpt lat="45.29337" lon="4.27043">
        <ele>755</ele>
        <time>2021-04-26T12:52:30Z</time>
      </trkpt>
      <trkpt lat="45.29335" lon="4.27047">
        <ele>756</ele>
        <time>2021-04-26T12:52:31Z</time>
      </trkpt>
      <trkpt lat="45.29334" lon="4.27051">
        <ele>756</ele>
        <time>2021-04-26T12:52:32Z</time>
      </trkpt>
      <trkpt lat="45.29333" lon="4.27055">
        <ele>756</ele>
        <time>2021-04-26T12:52:33Z</time>
      </trkpt>
      <trkpt lat="45.29332" lon="4.27059">
        <ele>757</ele>
        <time>2021-04-26T12:52:34Z</time>
      </trkpt>
      <trkpt lat="45.2933" lon="4.27063">
        <ele>757</ele>
        <time>2021-04-26T12:52:35Z</time>
      </trkpt>
      <trkpt lat="45.29329" lon="4.27066">
        <ele>758</ele>
        <time>2021-04-26T12:52:36Z</time>
      </trkpt>
      <trkpt lat="45.29327" lon="4.2707">
        <ele>758</ele>
        <time>2021-04-26T12:52:37Z</time>
      </trkpt>
      <trkpt lat="45.29325" lon="4.27074">
        <ele>759</ele>
        <time>2021-04-26T12:52:38Z</time>
      </trkpt>
      <trkpt lat="45.29323" lon="4.27077">
        <ele>759</ele>
        <time>2021-04-26T12:52:39Z</time>
      </trkpt>
      <trkpt lat="45.29322" lon="4.27081">
        <ele>759</ele>
        <time>2021-04-26T12:52:40Z</time>
      </trkpt>
      <trkpt lat="45.2932" lon="4.27085">
        <ele>760</ele>
        <time>2021-04-26T12:52:41Z</time>
      </trkpt>
      <trkpt lat="45.29318" lon="4.27088">
        <ele>760</ele>
        <time>2021-04-26T12:52:42Z</time>
      </trkpt>
      <trkpt lat="45.29317" lon="4.27092">
        <ele>760</ele>
        <time>2021-04-26T12:52:43Z</time>
      </trkpt>
      <trkpt lat="45.29315" lon="4.27097">
        <ele>761</ele>
        <time>2021-04-26T12:52:44Z</time>
      </trkpt>
      <trkpt lat="45.29314" lon="4.27101">
        <ele>761</ele>
        <time>2021-04-26T12:52:45Z</time>
      </trkpt>
      <trkpt lat="45.29313" lon="4.27106">
        <ele>761</ele>
        <time>2021-04-26T12:52:46Z</time>
      </trkpt>
      <trkpt lat="45.29312" lon="4.27111">
        <ele>762</ele>
        <time>2021-04-26T12:52:47Z</time>
      </trkpt>
      <trkpt lat="45.29311" lon="4.27116">
        <ele>762</ele>
        <time>2021-04-26T12:52:48Z</time>
      </trkpt>
      <trkpt lat="45.29309" lon="4.27121">
        <ele>762</ele>
        <time>2021-04-26T12:52:49Z</time>
      </trkpt>
      <trkpt lat="45.29309" lon="4.27125">
        <ele>763</ele>
        <time>2021-04-26T12:52:50Z</time>
      </trkpt>
      <trkpt lat="45.29308" lon="4.2713">
        <ele>763</ele>
        <time>2021-04-26T12:52:51Z</time>
      </trkpt>
      <trkpt lat="45.29307" lon="4.27134">
        <ele>763</ele>
        <time>2021-04-26T12:52:52Z</time>
      </trkpt>
      <trkpt lat="45.29306" lon="4.27138">
        <ele>763</ele>
        <time>2021-04-26T12:52:53Z</time>
      </trkpt>
      <trkpt lat="45.29305" lon="4.27142">
        <ele>763</ele>
        <time>2021-04-26T12:52:54Z</time>
      </trkpt>
      <trkpt lat="45.29305" lon="4.27146">
        <ele>764</ele>
        <time>2021-04-26T12:52:55Z</time>
      </trkpt>
      <trkpt lat="45.29304" lon="4.27151">
        <ele>764</ele>
        <time>2021-04-26T12:52:56Z</time>
      </trkpt>
      <trkpt lat="45.29303" lon="4.27155">
        <ele>765</ele>
        <time>2021-04-26T12:52:57Z</time>
      </trkpt>
      <trkpt lat="45.29303" lon="4.2716">
        <ele>765</ele>
        <time>2021-04-26T12:52:58Z</time>
      </trkpt>
      <trkpt lat="45.29303" lon="4.27165">
        <ele>766</ele>
        <time>2021-04-26T12:52:59Z</time>
      </trkpt>
      <trkpt lat="45.29302" lon="4.2717">
        <ele>766</ele>
        <time>2021-04-26T12:53:00Z</time>
      </trkpt>
      <trkpt lat="45.29302" lon="4.27175">
        <ele>766</ele>
        <time>2021-04-26T12:53:01Z</time>
      </trkpt>
      <trkpt lat="45.29301" lon="4.2718">
        <ele>766</ele>
        <time>2021-04-26T12:53:02Z</time>
      </trkpt>
      <trkpt lat="45.293" lon="4.27185">
        <ele>766</ele>
        <time>2021-04-26T12:53:03Z</time>
      </trkpt>
      <trkpt lat="45.29298" lon="4.2719">
        <ele>767</ele>
        <time>2021-04-26T12:53:04Z</time>
      </trkpt>
      <trkpt lat="45.29297" lon="4.27195">
        <ele>768</ele>
        <time>2021-04-26T12:53:05Z</time>
      </trkpt>
      <trkpt lat="45.29295" lon="4.27199">
        <ele>769</ele>
        <time>2021-04-26T12:53:06Z</time>
      </trkpt>
      <trkpt lat="45.29293" lon="4.27204">
        <ele>770</ele>
        <time>2021-04-26T12:53:07Z</time>
      </trkpt>
      <trkpt lat="45.29291" lon="4.27209">
        <ele>770</ele>
        <time>2021-04-26T12:53:08Z</time>
      </trkpt>
      <trkpt lat="45.29289" lon="4.27213">
        <ele>771</ele>
        <time>2021-04-26T12:53:09Z</time>
      </trkpt>
      <trkpt lat="45.29287" lon="4.27218">
        <ele>771</ele>
        <time>2021-04-26T12:53:10Z</time>
      </trkpt>
      <trkpt lat="45.29285" lon="4.27222">
        <ele>772</ele>
        <time>2021-04-26T12:53:11Z</time>
      </trkpt>
      <trkpt lat="45.29284" lon="4.27226">
        <ele>772</ele>
        <time>2021-04-26T12:53:12Z</time>
      </trkpt>
      <trkpt lat="45.29282" lon="4.2723">
        <ele>772</ele>
        <time>2021-04-26T12:53:13Z</time>
      </trkpt>
      <trkpt lat="45.29281" lon="4.27233">
        <ele>773</ele>
        <time>2021-04-26T12:53:14Z</time>
      </trkpt>
      <trkpt lat="45.2928" lon="4.27236">
        <ele>773</ele>
        <time>2021-04-26T12:53:15Z</time>
      </trkpt>
      <trkpt lat="45.29279" lon="4.2724">
        <ele>773</ele>
        <time>2021-04-26T12:53:16Z</time>
      </trkpt>
      <trkpt lat="45.29278" lon="4.27243">
        <ele>774</ele>
        <time>2021-04-26T12:53:17Z</time>
      </trkpt>
      <trkpt lat="45.29277" lon="4.27247">
        <ele>774</ele>
        <time>2021-04-26T12:53:18Z</time>
      </trkpt>
      <trkpt lat="45.29276" lon="4.27251">
        <ele>775</ele>
        <time>2021-04-26T12:53:19Z</time>
      </trkpt>
      <trkpt lat="45.29275" lon="4.27255">
        <ele>775</ele>
        <time>2021-04-26T12:53:20Z</time>
      </trkpt>
      <trkpt lat="45.29274" lon="4.27259">
        <ele>775</ele>
        <time>2021-04-26T12:53:21Z</time>
      </trkpt>
      <trkpt lat="45.29272" lon="4.27264">
        <ele>776</ele>
        <time>2021-04-26T12:53:22Z</time>
      </trkpt>
      <trkpt lat="45.29271" lon="4.27269">
        <ele>776</ele>
        <time>2021-04-26T12:53:23Z</time>
      </trkpt>
      <trkpt lat="45.2927" lon="4.27274">
        <ele>776</ele>
        <time>2021-04-26T12:53:24Z</time>
      </trkpt>
      <trkpt lat="45.29269" lon="4.27279">
        <ele>777</ele>
        <time>2021-04-26T12:53:25Z</time>
      </trkpt>
      <trkpt lat="45.29268" lon="4.27284">
        <ele>777</ele>
        <time>2021-04-26T12:53:26Z</time>
      </trkpt>
      <trkpt lat="45.29268" lon="4.27289">
        <ele>777</ele>
        <time>2021-04-26T12:53:27Z</time>
      </trkpt>
      <trkpt lat="45.29267" lon="4.27293">
        <ele>777</ele>
        <time>2021-04-26T12:53:28Z</time>
      </trkpt>
      <trkpt lat="45.29265" lon="4.27297">
        <ele>777</ele>
        <time>2021-04-26T12:53:29Z</time>
      </trkpt>
      <trkpt lat="45.29264" lon="4.27301">
        <ele>778</ele>
        <time>2021-04-26T12:53:30Z</time>
      </trkpt>
      <trkpt lat="45.29262" lon="4.27306">
        <ele>778</ele>
        <time>2021-04-26T12:53:31Z</time>
      </trkpt>
      <trkpt lat="45.29261" lon="4.27312">
        <ele>778</ele>
        <time>2021-04-26T12:53:32Z</time>
      </trkpt>
      <trkpt lat="45.29259" lon="4.27317">
        <ele>778</ele>
        <time>2021-04-26T12:53:33Z</time>
      </trkpt>
      <trkpt lat="45.29258" lon="4.27322">
        <ele>779</ele>
        <time>2021-04-26T12:53:34Z</time>
      </trkpt>
      <trkpt lat="45.29256" lon="4.27327">
        <ele>779</ele>
        <time>2021-04-26T12:53:35Z</time>
      </trkpt>
      <trkpt lat="45.29255" lon="4.27333">
        <ele>779</ele>
        <time>2021-04-26T12:53:36Z</time>
      </trkpt>
      <trkpt lat="45.29254" lon="4.27338">
        <ele>780</ele>
        <time>2021-04-26T12:53:37Z</time>
      </trkpt>
      <trkpt lat="45.29253" lon="4.27344">
        <ele>780</ele>
        <time>2021-04-26T12:53:38Z</time>
      </trkpt>
      <trkpt lat="45.29251" lon="4.2735">
        <ele>780</ele>
        <time>2021-04-26T12:53:39Z</time>
      </trkpt>
      <trkpt lat="45.2925" lon="4.27356">
        <ele>781</ele>
        <time>2021-04-26T12:53:40Z</time>
      </trkpt>
      <trkpt lat="45.29248" lon="4.27362">
        <ele>781</ele>
        <time>2021-04-26T12:53:41Z</time>
      </trkpt>
      <trkpt lat="45.29246" lon="4.27368">
        <ele>781</ele>
        <time>2021-04-26T12:53:42Z</time>
      </trkpt>
      <trkpt lat="45.29244" lon="4.27374">
        <ele>782</ele>
        <time>2021-04-26T12:53:43Z</time>
      </trkpt>
      <trkpt lat="45.29242" lon="4.27379">
        <ele>782</ele>
        <time>2021-04-26T12:53:44Z</time>
      </trkpt>
      <trkpt lat="45.29239" lon="4.27385">
        <ele>782</ele>
        <time>2021-04-26T12:53:45Z</time>
      </trkpt>
      <trkpt lat="45.29237" lon="4.27391">
        <ele>783</ele>
        <time>2021-04-26T12:53:46Z</time>
      </trkpt>
      <trkpt lat="45.29234" lon="4.27396">
        <ele>783</ele>
        <time>2021-04-26T12:53:47Z</time>
      </trkpt>
      <trkpt lat="45.29232" lon="4.27402">
        <ele>784</ele>
        <time>2021-04-26T12:53:48Z</time>
      </trkpt>
      <trkpt lat="45.29229" lon="4.27407">
        <ele>784</ele>
        <time>2021-04-26T12:53:49Z</time>
      </trkpt>
      <trkpt lat="45.29227" lon="4.27413">
        <ele>785</ele>
        <time>2021-04-26T12:53:50Z</time>
      </trkpt>
      <trkpt lat="45.29225" lon="4.27419">
        <ele>785</ele>
        <time>2021-04-26T12:53:51Z</time>
      </trkpt>
      <trkpt lat="45.29223" lon="4.27424">
        <ele>786</ele>
        <time>2021-04-26T12:53:52Z</time>
      </trkpt>
      <trkpt lat="45.29222" lon="4.27429">
        <ele>786</ele>
        <time>2021-04-26T12:53:53Z</time>
      </trkpt>
      <trkpt lat="45.29222" lon="4.27434">
        <ele>787</ele>
        <time>2021-04-26T12:53:54Z</time>
      </trkpt>
      <trkpt lat="45.29222" lon="4.27437">
        <ele>787</ele>
        <time>2021-04-26T12:53:55Z</time>
      </trkpt>
      <trkpt lat="45.29224" lon="4.27441">
        <ele>787</ele>
        <time>2021-04-26T12:53:56Z</time>
      </trkpt>
      <trkpt lat="45.29226" lon="4.27444">
        <ele>787</ele>
        <time>2021-04-26T12:53:57Z</time>
      </trkpt>
      <trkpt lat="45.29229" lon="4.27445">
        <ele>787</ele>
        <time>2021-04-26T12:53:58Z</time>
      </trkpt>
      <trkpt lat="45.29232" lon="4.27445">
        <ele>787</ele>
        <time>2021-04-26T12:53:59Z</time>
      </trkpt>
      <trkpt lat="45.29236" lon="4.27443">
        <ele>788</ele>
        <time>2021-04-26T12:54:00Z</time>
      </trkpt>
      <trkpt lat="45.29239" lon="4.2744">
        <ele>788</ele>
        <time>2021-04-26T12:54:01Z</time>
      </trkpt>
      <trkpt lat="45.29243" lon="4.27437">
        <ele>788</ele>
        <time>2021-04-26T12:54:02Z</time>
      </trkpt>
      <trkpt lat="45.29248" lon="4.27435">
        <ele>788</ele>
        <time>2021-04-26T12:54:03Z</time>
      </trkpt>
      <trkpt lat="45.29253" lon="4.27433">
        <ele>788</ele>
        <time>2021-04-26T12:54:04Z</time>
      </trkpt>
      <trkpt lat="45.29258" lon="4.27431">
        <ele>788</ele>
        <time>2021-04-26T12:54:05Z</time>
      </trkpt>
      <trkpt lat="45.29264" lon="4.27429">
        <ele>788</ele>
        <time>2021-04-26T12:54:06Z</time>
      </trkpt>
      <trkpt lat="45.29269" lon="4.27427">
        <ele>788</ele>
        <time>2021-04-26T12:54:07Z</time>
      </trkpt>
      <trkpt lat="45.29275" lon="4.27425">
        <ele>788</ele>
        <time>2021-04-26T12:54:08Z</time>
      </trkpt>
      <trkpt lat="45.29281" lon="4.27422">
        <ele>788</ele>
        <time>2021-04-26T12:54:09Z</time>
      </trkpt>
      <trkpt lat="45.29287" lon="4.27419">
        <ele>788</ele>
        <time>2021-04-26T12:54:10Z</time>
      </trkpt>
      <trkpt lat="45.29293" lon="4.27416">
        <ele>788</ele>
        <time>2021-04-26T12:54:11Z</time>
      </trkpt>
      <trkpt lat="45.29299" lon="4.27413">
        <ele>788</ele>
        <time>2021-04-26T12:54:12Z</time>
      </trkpt>
      <trkpt lat="45.29305" lon="4.2741">
        <ele>788</ele>
        <time>2021-04-26T12:54:13Z</time>
      </trkpt>
      <trkpt lat="45.29311" lon="4.27408">
        <ele>787</ele>
        <time>2021-04-26T12:54:14Z</time>
      </trkpt>
      <trkpt lat="45.29317" lon="4.27406">
        <ele>787</ele>
        <time>2021-04-26T12:54:15Z</time>
      </trkpt>
      <trkpt lat="45.29323" lon="4.27403">
        <ele>787</ele>
        <time>2021-04-26T12:54:16Z</time>
      </trkpt>
      <trkpt lat="45.2933" lon="4.27401">
        <ele>787</ele>
        <time>2021-04-26T12:54:17Z</time>
      </trkpt>
      <trkpt lat="45.29337" lon="4.274">
        <ele>786</ele>
        <time>2021-04-26T12:54:18Z</time>
      </trkpt>
      <trkpt lat="45.29344" lon="4.27399">
        <ele>786</ele>
        <time>2021-04-26T12:54:19Z</time>
      </trkpt>
      <trkpt lat="45.29351" lon="4.27398">
        <ele>786</ele>
        <time>2021-04-26T12:54:20Z</time>
      </trkpt>
      <trkpt lat="45.29358" lon="4.27398">
        <ele>786</ele>
        <time>2021-04-26T12:54:21Z</time>
      </trkpt>
      <trkpt lat="45.29366" lon="4.27398">
        <ele>785</ele>
        <time>2021-04-26T12:54:22Z</time>
      </trkpt>
      <trkpt lat="45.29375" lon="4.27398">
        <ele>785</ele>
        <time>2021-04-26T12:54:23Z</time>
      </trkpt>
      <trkpt lat="45.29383" lon="4.27398">
        <ele>785</ele>
        <time>2021-04-26T12:54:24Z</time>
      </trkpt>
      <trkpt lat="45.29392" lon="4.27398">
        <ele>784</ele>
        <time>2021-04-26T12:54:25Z</time>
      </trkpt>
      <trkpt lat="45.294" lon="4.27397">
        <ele>783</ele>
        <time>2021-04-26T12:54:26Z</time>
      </trkpt>
      <trkpt lat="45.29409" lon="4.27397">
        <ele>782</ele>
        <time>2021-04-26T12:54:27Z</time>
      </trkpt>
      <trkpt lat="45.29417" lon="4.27398">
        <ele>782</ele>
        <time>2021-04-26T12:54:28Z</time>
      </trkpt>
      <trkpt lat="45.29424" lon="4.274">
        <ele>782</ele>
        <time>2021-04-26T12:54:29Z</time>
      </trkpt>
      <trkpt lat="45.29432" lon="4.27403">
        <ele>780</ele>
        <time>2021-04-26T12:54:30Z</time>
      </trkpt>
      <trkpt lat="45.29441" lon="4.27406">
        <ele>779</ele>
        <time>2021-04-26T12:54:31Z</time>
      </trkpt>
      <trkpt lat="45.29449" lon="4.27411">
        <ele>777</ele>
        <time>2021-04-26T12:54:32Z</time>
      </trkpt>
      <trkpt lat="45.29457" lon="4.27415">
        <ele>776</ele>
        <time>2021-04-26T12:54:33Z</time>
      </trkpt>
      <trkpt lat="45.29464" lon="4.27422">
        <ele>775</ele>
        <time>2021-04-26T12:54:34Z</time>
      </trkpt>
      <trkpt lat="45.29472" lon="4.27427">
        <ele>775</ele>
        <time>2021-04-26T12:54:35Z</time>
      </trkpt>
      <trkpt lat="45.29479" lon="4.27431">
        <ele>773</ele>
        <time>2021-04-26T12:54:36Z</time>
      </trkpt>
      <trkpt lat="45.29487" lon="4.27434">
        <ele>772</ele>
        <time>2021-04-26T12:54:37Z</time>
      </trkpt>
      <trkpt lat="45.29496" lon="4.27436">
        <ele>771</ele>
        <time>2021-04-26T12:54:38Z</time>
      </trkpt>
      <trkpt lat="45.29504" lon="4.27438">
        <ele>771</ele>
        <time>2021-04-26T12:54:39Z</time>
      </trkpt>
      <trkpt lat="45.29513" lon="4.27439">
        <ele>771</ele>
        <time>2021-04-26T12:54:40Z</time>
      </trkpt>
      <trkpt lat="45.29522" lon="4.27441">
        <ele>769</ele>
        <time>2021-04-26T12:54:41Z</time>
      </trkpt>
      <trkpt lat="45.2953" lon="4.27442">
        <ele>769</ele>
        <time>2021-04-26T12:54:42Z</time>
      </trkpt>
      <trkpt lat="45.29537" lon="4.27443">
        <ele>768</ele>
        <time>2021-04-26T12:54:43Z</time>
      </trkpt>
      <trkpt lat="45.29545" lon="4.27443">
        <ele>768</ele>
        <time>2021-04-26T12:54:44Z</time>
      </trkpt>
      <trkpt lat="45.29552" lon="4.27443">
        <ele>767</ele>
        <time>2021-04-26T12:54:45Z</time>
      </trkpt>
      <trkpt lat="45.29558" lon="4.27443">
        <ele>767</ele>
        <time>2021-04-26T12:54:46Z</time>
      </trkpt>
      <trkpt lat="45.29562" lon="4.27442">
        <ele>767</ele>
        <time>2021-04-26T12:54:47Z</time>
      </trkpt>
      <trkpt lat="45.29565" lon="4.27441">
        <ele>767</ele>
        <time>2021-04-26T12:54:48Z</time>
      </trkpt>
      <trkpt lat="45.29567" lon="4.27441">
        <ele>766</ele>
        <time>2021-04-26T12:54:50Z</time>
      </trkpt>
      <trkpt lat="45.2957" lon="4.27442">
        <ele>766</ele>
        <time>2021-04-26T12:54:52Z</time>
      </trkpt>
      <trkpt lat="45.29572" lon="4.27441">
        <ele>766</ele>
        <time>2021-04-26T12:54:53Z</time>
      </trkpt>
      <trkpt lat="45.29574" lon="4.27439">
        <ele>766</ele>
        <time>2021-04-26T12:54:54Z</time>
      </trkpt>
      <trkpt lat="45.29577" lon="4.27437">
        <ele>765</ele>
        <time>2021-04-26T12:54:55Z</time>
      </trkpt>
      <trkpt lat="45.29579" lon="4.27435">
        <ele>765</ele>
        <time>2021-04-26T12:54:56Z</time>
      </trkpt>
      <trkpt lat="45.29582" lon="4.27432">
        <ele>765</ele>
        <time>2021-04-26T12:54:57Z</time>
      </trkpt>
      <trkpt lat="45.29585" lon="4.27429">
        <ele>765</ele>
        <time>2021-04-26T12:54:58Z</time>
      </trkpt>
      <trkpt lat="45.29588" lon="4.27426">
        <ele>765</ele>
        <time>2021-04-26T12:54:59Z</time>
      </trkpt>
      <trkpt lat="45.2959" lon="4.27423">
        <ele>765</ele>
        <time>2021-04-26T12:55:00Z</time>
      </trkpt>
      <trkpt lat="45.29593" lon="4.2742">
        <ele>765</ele>
        <time>2021-04-26T12:55:01Z</time>
      </trkpt>
      <trkpt lat="45.29596" lon="4.27416">
        <ele>765</ele>
        <time>2021-04-26T12:55:02Z</time>
      </trkpt>
      <trkpt lat="45.296" lon="4.27411">
        <ele>764</ele>
        <time>2021-04-26T12:55:03Z</time>
      </trkpt>
      <trkpt lat="45.29603" lon="4.27406">
        <ele>765</ele>
        <time>2021-04-26T12:55:04Z</time>
      </trkpt>
      <trkpt lat="45.29607" lon="4.27402">
        <ele>765</ele>
        <time>2021-04-26T12:55:05Z</time>
      </trkpt>
      <trkpt lat="45.29612" lon="4.27398">
        <ele>764</ele>
        <time>2021-04-26T12:55:06Z</time>
      </trkpt>
      <trkpt lat="45.29617" lon="4.27396">
        <ele>764</ele>
        <time>2021-04-26T12:55:07Z</time>
      </trkpt>
      <trkpt lat="45.29622" lon="4.27395">
        <ele>765</ele>
        <time>2021-04-26T12:55:08Z</time>
      </trkpt>
      <trkpt lat="45.29626" lon="4.27394">
        <ele>765</ele>
        <time>2021-04-26T12:55:09Z</time>
      </trkpt>
      <trkpt lat="45.29631" lon="4.27393">
        <ele>765</ele>
        <time>2021-04-26T12:55:10Z</time>
      </trkpt>
      <trkpt lat="45.29634" lon="4.27393">
        <ele>765</ele>
        <time>2021-04-26T12:55:11Z</time>
      </trkpt>
      <trkpt lat="45.29638" lon="4.27392">
        <ele>765</ele>
        <time>2021-04-26T12:55:12Z</time>
      </trkpt>
      <trkpt lat="45.29641" lon="4.27392">
        <ele>765</ele>
        <time>2021-04-26T12:55:13Z</time>
      </trkpt>
      <trkpt lat="45.29644" lon="4.27391">
        <ele>766</ele>
        <time>2021-04-26T12:55:14Z</time>
      </trkpt>
      <trkpt lat="45.29647" lon="4.2739">
        <ele>766</ele>
        <time>2021-04-26T12:55:15Z</time>
      </trkpt>
      <trkpt lat="45.29649" lon="4.27389">
        <ele>766</ele>
        <time>2021-04-26T12:55:16Z</time>
      </trkpt>
      <trkpt lat="45.29652" lon="4.27389">
        <ele>766</ele>
        <time>2021-04-26T12:55:17Z</time>
      </trkpt>
      <trkpt lat="45.29655" lon="4.27388">
        <ele>766</ele>
        <time>2021-04-26T12:55:18Z</time>
      </trkpt>
      <trkpt lat="45.29658" lon="4.27387">
        <ele>766</ele>
        <time>2021-04-26T12:55:19Z</time>
      </trkpt>
      <trkpt lat="45.2966" lon="4.27387">
        <ele>766</ele>
        <time>2021-04-26T12:55:20Z</time>
      </trkpt>
      <trkpt lat="45.29663" lon="4.27387">
        <ele>766</ele>
        <time>2021-04-26T12:55:21Z</time>
      </trkpt>
      <trkpt lat="45.29665" lon="4.27387">
        <ele>766</ele>
        <time>2021-04-26T12:55:22Z</time>
      </trkpt>
      <trkpt lat="45.29668" lon="4.27388">
        <ele>766</ele>
        <time>2021-04-26T12:55:23Z</time>
      </trkpt>
      <trkpt lat="45.2967" lon="4.2739">
        <ele>767</ele>
        <time>2021-04-26T12:55:24Z</time>
      </trkpt>
      <trkpt lat="45.29671" lon="4.27394">
        <ele>767</ele>
        <time>2021-04-26T12:55:25Z</time>
      </trkpt>
      <trkpt lat="45.29671" lon="4.27398">
        <ele>767</ele>
        <time>2021-04-26T12:55:26Z</time>
      </trkpt>
      <trkpt lat="45.29672" lon="4.27402">
        <ele>768</ele>
        <time>2021-04-26T12:55:27Z</time>
      </trkpt>
      <trkpt lat="45.29673" lon="4.27405">
        <ele>768</ele>
        <time>2021-04-26T12:55:28Z</time>
      </trkpt>
      <trkpt lat="45.29675" lon="4.27409">
        <ele>768</ele>
        <time>2021-04-26T12:55:29Z</time>
      </trkpt>
      <trkpt lat="45.29676" lon="4.27412">
        <ele>768</ele>
        <time>2021-04-26T12:55:30Z</time>
      </trkpt>
      <trkpt lat="45.29678" lon="4.27415">
        <ele>769</ele>
        <time>2021-04-26T12:55:31Z</time>
      </trkpt>
      <trkpt lat="45.29679" lon="4.27419">
        <ele>769</ele>
        <time>2021-04-26T12:55:32Z</time>
      </trkpt>
      <trkpt lat="45.29681" lon="4.27422">
        <ele>769</ele>
        <time>2021-04-26T12:55:33Z</time>
      </trkpt>
      <trkpt lat="45.29683" lon="4.27425">
        <ele>770</ele>
        <time>2021-04-26T12:55:34Z</time>
      </trkpt>
      <trkpt lat="45.29684" lon="4.27428">
        <ele>770</ele>
        <time>2021-04-26T12:55:35Z</time>
      </trkpt>
      <trkpt lat="45.29686" lon="4.2743">
        <ele>770</ele>
        <time>2021-04-26T12:55:36Z</time>
      </trkpt>
      <trkpt lat="45.29687" lon="4.27433">
        <ele>770</ele>
        <time>2021-04-26T12:55:37Z</time>
      </trkpt>
      <trkpt lat="45.29689" lon="4.27437">
        <ele>771</ele>
        <time>2021-04-26T12:55:38Z</time>
      </trkpt>
      <trkpt lat="45.29691" lon="4.2744">
        <ele>771</ele>
        <time>2021-04-26T12:55:39Z</time>
      </trkpt>
      <trkpt lat="45.29693" lon="4.27443">
        <ele>771</ele>
        <time>2021-04-26T12:55:40Z</time>
      </trkpt>
      <trkpt lat="45.29695" lon="4.27446">
        <ele>771</ele>
        <time>2021-04-26T12:55:41Z</time>
      </trkpt>
      <trkpt lat="45.29696" lon="4.2745">
        <ele>772</ele>
        <time>2021-04-26T12:55:42Z</time>
      </trkpt>
      <trkpt lat="45.29698" lon="4.27453">
        <ele>772</ele>
        <time>2021-04-26T12:55:43Z</time>
      </trkpt>
      <trkpt lat="45.297" lon="4.27456">
        <ele>773</ele>
        <time>2021-04-26T12:55:44Z</time>
      </trkpt>
      <trkpt lat="45.29701" lon="4.27459">
        <ele>773</ele>
        <time>2021-04-26T12:55:45Z</time>
      </trkpt>
      <trkpt lat="45.29703" lon="4.27463">
        <ele>773</ele>
        <time>2021-04-26T12:55:46Z</time>
      </trkpt>
      <trkpt lat="45.29705" lon="4.27466">
        <ele>774</ele>
        <time>2021-04-26T12:55:47Z</time>
      </trkpt>
      <trkpt lat="45.29707" lon="4.27469">
        <ele>774</ele>
        <time>2021-04-26T12:55:48Z</time>
      </trkpt>
      <trkpt lat="45.29709" lon="4.27472">
        <ele>775</ele>
        <time>2021-04-26T12:55:49Z</time>
      </trkpt>
      <trkpt lat="45.2971" lon="4.27476">
        <ele>775</ele>
        <time>2021-04-26T12:55:50Z</time>
      </trkpt>
      <trkpt lat="45.29712" lon="4.27479">
        <ele>775</ele>
        <time>2021-04-26T12:55:51Z</time>
      </trkpt>
      <trkpt lat="45.29714" lon="4.27482">
        <ele>776</ele>
        <time>2021-04-26T12:55:52Z</time>
      </trkpt>
      <trkpt lat="45.29716" lon="4.27485">
        <ele>776</ele>
        <time>2021-04-26T12:55:53Z</time>
      </trkpt>
      <trkpt lat="45.29718" lon="4.27488">
        <ele>776</ele>
        <time>2021-04-26T12:55:54Z</time>
      </trkpt>
      <trkpt lat="45.2972" lon="4.27491">
        <ele>777</ele>
        <time>2021-04-26T12:55:55Z</time>
      </trkpt>
      <trkpt lat="45.29722" lon="4.27493">
        <ele>777</ele>
        <time>2021-04-26T12:55:56Z</time>
      </trkpt>
      <trkpt lat="45.29725" lon="4.27496">
        <ele>777</ele>
        <time>2021-04-26T12:55:57Z</time>
      </trkpt>
      <trkpt lat="45.29727" lon="4.27499">
        <ele>777</ele>
        <time>2021-04-26T12:55:58Z</time>
      </trkpt>
      <trkpt lat="45.2973" lon="4.27502">
        <ele>778</ele>
        <time>2021-04-26T12:55:59Z</time>
      </trkpt>
      <trkpt lat="45.29732" lon="4.27506">
        <ele>778</ele>
        <time>2021-04-26T12:56:00Z</time>
      </trkpt>
      <trkpt lat="45.29735" lon="4.27509">
        <ele>778</ele>
        <time>2021-04-26T12:56:01Z</time>
      </trkpt>
      <trkpt lat="45.29738" lon="4.27513">
        <ele>778</ele>
        <time>2021-04-26T12:56:02Z</time>
      </trkpt>
      <trkpt lat="45.29741" lon="4.27516">
        <ele>779</ele>
        <time>2021-04-26T12:56:03Z</time>
      </trkpt>
      <trkpt lat="45.29744" lon="4.27519">
        <ele>779</ele>
        <time>2021-04-26T12:56:04Z</time>
      </trkpt>
      <trkpt lat="45.29747" lon="4.27522">
        <ele>779</ele>
        <time>2021-04-26T12:56:05Z</time>
      </trkpt>
      <trkpt lat="45.29749" lon="4.27525">
        <ele>779</ele>
        <time>2021-04-26T12:56:06Z</time>
      </trkpt>
      <trkpt lat="45.29751" lon="4.27527">
        <ele>779</ele>
        <time>2021-04-26T12:56:07Z</time>
      </trkpt>
      <trkpt lat="45.29754" lon="4.27529">
        <ele>779</ele>
        <time>2021-04-26T12:56:08Z</time>
      </trkpt>
      <trkpt lat="45.29756" lon="4.27532">
        <ele>780</ele>
        <time>2021-04-26T12:56:09Z</time>
      </trkpt>
      <trkpt lat="45.29759" lon="4.27534">
        <ele>780</ele>
        <time>2021-04-26T12:56:10Z</time>
      </trkpt>
      <trkpt lat="45.29762" lon="4.27537">
        <ele>780</ele>
        <time>2021-04-26T12:56:11Z</time>
      </trkpt>
      <trkpt lat="45.29764" lon="4.27539">
        <ele>780</ele>
        <time>2021-04-26T12:56:12Z</time>
      </trkpt>
      <trkpt lat="45.29767" lon="4.27541">
        <ele>780</ele>
        <time>2021-04-26T12:56:13Z</time>
      </trkpt>
      <trkpt lat="45.2977" lon="4.27542">
        <ele>781</ele>
        <time>2021-04-26T12:56:14Z</time>
      </trkpt>
      <trkpt lat="45.29773" lon="4.27543">
        <ele>781</ele>
        <time>2021-04-26T12:56:15Z</time>
      </trkpt>
      <trkpt lat="45.29775" lon="4.27544">
        <ele>781</ele>
        <time>2021-04-26T12:56:16Z</time>
      </trkpt>
      <trkpt lat="45.29778" lon="4.27544">
        <ele>782</ele>
        <time>2021-04-26T12:56:17Z</time>
      </trkpt>
      <trkpt lat="45.2978" lon="4.27545">
        <ele>782</ele>
        <time>2021-04-26T12:56:18Z</time>
      </trkpt>
      <trkpt lat="45.29783" lon="4.27546">
        <ele>782</ele>
        <time>2021-04-26T12:56:19Z</time>
      </trkpt>
      <trkpt lat="45.29786" lon="4.27547">
        <ele>783</ele>
        <time>2021-04-26T12:56:20Z</time>
      </trkpt>
      <trkpt lat="45.29793" lon="4.27548">
        <ele>783</ele>
        <time>2021-04-26T12:56:22Z</time>
      </trkpt>
      <trkpt lat="45.29796" lon="4.27549">
        <ele>783</ele>
        <time>2021-04-26T12:56:23Z</time>
      </trkpt>
      <trkpt lat="45.298" lon="4.27551">
        <ele>784</ele>
        <time>2021-04-26T12:56:24Z</time>
      </trkpt>
      <trkpt lat="45.29803" lon="4.27553">
        <ele>784</ele>
        <time>2021-04-26T12:56:25Z</time>
      </trkpt>
      <trkpt lat="45.29807" lon="4.27555">
        <ele>784</ele>
        <time>2021-04-26T12:56:26Z</time>
      </trkpt>
      <trkpt lat="45.29811" lon="4.27557">
        <ele>784</ele>
        <time>2021-04-26T12:56:27Z</time>
      </trkpt>
      <trkpt lat="45.29815" lon="4.27558">
        <ele>784</ele>
        <time>2021-04-26T12:56:28Z</time>
      </trkpt>
      <trkpt lat="45.29818" lon="4.27559">
        <ele>784</ele>
        <time>2021-04-26T12:56:29Z</time>
      </trkpt>
      <trkpt lat="45.29821" lon="4.2756">
        <ele>785</ele>
        <time>2021-04-26T12:56:30Z</time>
      </trkpt>
      <trkpt lat="45.29825" lon="4.27562">
        <ele>785</ele>
        <time>2021-04-26T12:56:31Z</time>
      </trkpt>
      <trkpt lat="45.29828" lon="4.27564">
        <ele>785</ele>
        <time>2021-04-26T12:56:32Z</time>
      </trkpt>
      <trkpt lat="45.29832" lon="4.27565">
        <ele>786</ele>
        <time>2021-04-26T12:56:33Z</time>
      </trkpt>
      <trkpt lat="45.29835" lon="4.27566">
        <ele>786</ele>
        <time>2021-04-26T12:56:34Z</time>
      </trkpt>
      <trkpt lat="45.29837" lon="4.27567">
        <ele>786</ele>
        <time>2021-04-26T12:56:35Z</time>
      </trkpt>
      <trkpt lat="45.2984" lon="4.27568">
        <ele>787</ele>
        <time>2021-04-26T12:56:36Z</time>
      </trkpt>
      <trkpt lat="45.29848" lon="4.27574">
        <ele>787</ele>
        <time>2021-04-26T12:56:38Z</time>
      </trkpt>
      <trkpt lat="45.29851" lon="4.27577">
        <ele>788</ele>
        <time>2021-04-26T12:56:39Z</time>
      </trkpt>
      <trkpt lat="45.29855" lon="4.27579">
        <ele>788</ele>
        <time>2021-04-26T12:56:40Z</time>
      </trkpt>
      <trkpt lat="45.29857" lon="4.2758">
        <ele>788</ele>
        <time>2021-04-26T12:56:41Z</time>
      </trkpt>
      <trkpt lat="45.2986" lon="4.27582">
        <ele>788</ele>
        <time>2021-04-26T12:56:42Z</time>
      </trkpt>
      <trkpt lat="45.29863" lon="4.27584">
        <ele>789</ele>
        <time>2021-04-26T12:56:43Z</time>
      </trkpt>
      <trkpt lat="45.29872" lon="4.27589">
        <ele>791</ele>
        <time>2021-04-26T12:56:47Z</time>
      </trkpt>
      <trkpt lat="45.29882" lon="4.27596">
        <ele>792</ele>
        <time>2021-04-26T12:56:50Z</time>
      </trkpt>
      <trkpt lat="45.29888" lon="4.276">
        <ele>793</ele>
        <time>2021-04-26T12:56:52Z</time>
      </trkpt>
      <trkpt lat="45.29893" lon="4.27602">
        <ele>793</ele>
        <time>2021-04-26T12:56:53Z</time>
      </trkpt>
      <trkpt lat="45.29896" lon="4.27605">
        <ele>793</ele>
        <time>2021-04-26T12:56:54Z</time>
      </trkpt>
      <trkpt lat="45.29899" lon="4.27606">
        <ele>794</ele>
        <time>2021-04-26T12:56:55Z</time>
      </trkpt>
      <trkpt lat="45.29903" lon="4.27609">
        <ele>797</ele>
        <time>2021-04-26T12:56:57Z</time>
      </trkpt>
      <trkpt lat="45.29903" lon="4.27614">
        <ele>799</ele>
        <time>2021-04-26T12:56:59Z</time>
      </trkpt>
      <trkpt lat="45.29902" lon="4.27616">
        <ele>801</ele>
        <time>2021-04-26T12:57:05Z</time>
      </trkpt>
      <trkpt lat="45.29903" lon="4.27626">
        <ele>800</ele>
        <time>2021-04-26T12:58:01Z</time>
      </trkpt>
      <trkpt lat="45.29902" lon="4.27632">
        <ele>800</ele>
        <time>2021-04-26T12:58:02Z</time>
      </trkpt>
      <trkpt lat="45.29901" lon="4.27639">
        <ele>801</ele>
        <time>2021-04-26T12:58:03Z</time>
      </trkpt>
      <trkpt lat="45.299" lon="4.27647">
        <ele>801</ele>
        <time>2021-04-26T12:58:04Z</time>
      </trkpt>
      <trkpt lat="45.29899" lon="4.27656">
        <ele>802</ele>
        <time>2021-04-26T12:58:05Z</time>
      </trkpt>
      <trkpt lat="45.29899" lon="4.27665">
        <ele>802</ele>
        <time>2021-04-26T12:58:06Z</time>
      </trkpt>
      <trkpt lat="45.29899" lon="4.27674">
        <ele>802</ele>
        <time>2021-04-26T12:58:07Z</time>
      </trkpt>
      <trkpt lat="45.29901" lon="4.27683">
        <ele>802</ele>
        <time>2021-04-26T12:58:08Z</time>
      </trkpt>
      <trkpt lat="45.29903" lon="4.27691">
        <ele>803</ele>
        <time>2021-04-26T12:58:09Z</time>
      </trkpt>
      <trkpt lat="45.29907" lon="4.277">
        <ele>803</ele>
        <time>2021-04-26T12:58:10Z</time>
      </trkpt>
      <trkpt lat="45.29911" lon="4.27708">
        <ele>804</ele>
        <time>2021-04-26T12:58:11Z</time>
      </trkpt>
      <trkpt lat="45.29916" lon="4.27716">
        <ele>804</ele>
        <time>2021-04-26T12:58:12Z</time>
      </trkpt>
      <trkpt lat="45.29921" lon="4.27724">
        <ele>804</ele>
        <time>2021-04-26T12:58:13Z</time>
      </trkpt>
      <trkpt lat="45.29926" lon="4.27731">
        <ele>804</ele>
        <time>2021-04-26T12:58:14Z</time>
      </trkpt>
      <trkpt lat="45.29931" lon="4.27739">
        <ele>804</ele>
        <time>2021-04-26T12:58:15Z</time>
      </trkpt>
      <trkpt lat="45.29936" lon="4.27747">
        <ele>804</ele>
        <time>2021-04-26T12:58:16Z</time>
      </trkpt>
      <trkpt lat="45.29941" lon="4.27755">
        <ele>804</ele>
        <time>2021-04-26T12:58:17Z</time>
      </trkpt>
      <trkpt lat="45.29946" lon="4.27763">
        <ele>803</ele>
        <time>2021-04-26T12:58:18Z</time>
      </trkpt>
      <trkpt lat="45.2995" lon="4.27773">
        <ele>803</ele>
        <time>2021-04-26T12:58:19Z</time>
      </trkpt>
      <trkpt lat="45.29953" lon="4.27783">
        <ele>803</ele>
        <time>2021-04-26T12:58:20Z</time>
      </trkpt>
      <trkpt lat="45.29957" lon="4.27792">
        <ele>803</ele>
        <time>2021-04-26T12:58:21Z</time>
      </trkpt>
      <trkpt lat="45.29961" lon="4.27801">
        <ele>803</ele>
        <time>2021-04-26T12:58:22Z</time>
      </trkpt>
      <trkpt lat="45.29965" lon="4.2781">
        <ele>803</ele>
        <time>2021-04-26T12:58:23Z</time>
      </trkpt>
      <trkpt lat="45.29967" lon="4.27818">
        <ele>803</ele>
        <time>2021-04-26T12:58:24Z</time>
      </trkpt>
      <trkpt lat="45.2997" lon="4.27825">
        <ele>803</ele>
        <time>2021-04-26T12:58:25Z</time>
      </trkpt>
      <trkpt lat="45.29972" lon="4.27832">
        <ele>804</ele>
        <time>2021-04-26T12:58:26Z</time>
      </trkpt>
      <trkpt lat="45.29974" lon="4.27838">
        <ele>804</ele>
        <time>2021-04-26T12:58:27Z</time>
      </trkpt>
      <trkpt lat="45.29976" lon="4.27844">
        <ele>804</ele>
        <time>2021-04-26T12:58:28Z</time>
      </trkpt>
      <trkpt lat="45.29977" lon="4.27849">
        <ele>804</ele>
        <time>2021-04-26T12:58:29Z</time>
      </trkpt>
      <trkpt lat="45.29979" lon="4.27853">
        <ele>804</ele>
        <time>2021-04-26T12:58:30Z</time>
      </trkpt>
      <trkpt lat="45.29981" lon="4.27857">
        <ele>804</ele>
        <time>2021-04-26T12:58:31Z</time>
      </trkpt>
      <trkpt lat="45.29982" lon="4.27861">
        <ele>805</ele>
        <time>2021-04-26T12:58:32Z</time>
      </trkpt>
      <trkpt lat="45.29984" lon="4.27865">
        <ele>805</ele>
        <time>2021-04-26T12:58:33Z</time>
      </trkpt>
      <trkpt lat="45.29986" lon="4.27868">
        <ele>805</ele>
        <time>2021-04-26T12:58:34Z</time>
      </trkpt>
      <trkpt lat="45.29989" lon="4.27872">
        <ele>805</ele>
        <time>2021-04-26T12:58:35Z</time>
      </trkpt>
      <trkpt lat="45.29991" lon="4.27876">
        <ele>806</ele>
        <time>2021-04-26T12:58:36Z</time>
      </trkpt>
      <trkpt lat="45.29993" lon="4.2788">
        <ele>806</ele>
        <time>2021-04-26T12:58:37Z</time>
      </trkpt>
      <trkpt lat="45.29996" lon="4.27884">
        <ele>806</ele>
        <time>2021-04-26T12:58:38Z</time>
      </trkpt>
      <trkpt lat="45.29998" lon="4.27887">
        <ele>806</ele>
        <time>2021-04-26T12:58:39Z</time>
      </trkpt>
      <trkpt lat="45.3" lon="4.27891">
        <ele>807</ele>
        <time>2021-04-26T12:58:40Z</time>
      </trkpt>
      <trkpt lat="45.30003" lon="4.27894">
        <ele>807</ele>
        <time>2021-04-26T12:58:41Z</time>
      </trkpt>
      <trkpt lat="45.30005" lon="4.27898">
        <ele>807</ele>
        <time>2021-04-26T12:58:42Z</time>
      </trkpt>
      <trkpt lat="45.30008" lon="4.27902">
        <ele>808</ele>
        <time>2021-04-26T12:58:43Z</time>
      </trkpt>
      <trkpt lat="45.30011" lon="4.27906">
        <ele>808</ele>
        <time>2021-04-26T12:58:44Z</time>
      </trkpt>
      <trkpt lat="45.30014" lon="4.27911">
        <ele>808</ele>
        <time>2021-04-26T12:58:45Z</time>
      </trkpt>
      <trkpt lat="45.30017" lon="4.27916">
        <ele>808</ele>
        <time>2021-04-26T12:58:46Z</time>
      </trkpt>
      <trkpt lat="45.3002" lon="4.27921">
        <ele>808</ele>
        <time>2021-04-26T12:58:47Z</time>
      </trkpt>
      <trkpt lat="45.30023" lon="4.27927">
        <ele>808</ele>
        <time>2021-04-26T12:58:48Z</time>
      </trkpt>
      <trkpt lat="45.30025" lon="4.27933">
        <ele>808</ele>
        <time>2021-04-26T12:58:49Z</time>
      </trkpt>
      <trkpt lat="45.30028" lon="4.27939">
        <ele>808</ele>
        <time>2021-04-26T12:58:50Z</time>
      </trkpt>
      <trkpt lat="45.3003" lon="4.27944">
        <ele>808</ele>
        <time>2021-04-26T12:58:51Z</time>
      </trkpt>
      <trkpt lat="45.30033" lon="4.2795">
        <ele>808</ele>
        <time>2021-04-26T12:58:52Z</time>
      </trkpt>
      <trkpt lat="45.30035" lon="4.27956">
        <ele>808</ele>
        <time>2021-04-26T12:58:53Z</time>
      </trkpt>
      <trkpt lat="45.30038" lon="4.27962">
        <ele>808</ele>
        <time>2021-04-26T12:58:54Z</time>
      </trkpt>
      <trkpt lat="45.30041" lon="4.27967">
        <ele>808</ele>
        <time>2021-04-26T12:58:55Z</time>
      </trkpt>
      <trkpt lat="45.30043" lon="4.27973">
        <ele>809</ele>
        <time>2021-04-26T12:58:56Z</time>
      </trkpt>
      <trkpt lat="45.30046" lon="4.27979">
        <ele>809</ele>
        <time>2021-04-26T12:58:57Z</time>
      </trkpt>
      <trkpt lat="45.30048" lon="4.27985">
        <ele>809</ele>
        <time>2021-04-26T12:58:58Z</time>
      </trkpt>
      <trkpt lat="45.30051" lon="4.27991">
        <ele>809</ele>
        <time>2021-04-26T12:58:59Z</time>
      </trkpt>
      <trkpt lat="45.30053" lon="4.27997">
        <ele>810</ele>
        <time>2021-04-26T12:59:00Z</time>
      </trkpt>
      <trkpt lat="45.30055" lon="4.28002">
        <ele>810</ele>
        <time>2021-04-26T12:59:01Z</time>
      </trkpt>
      <trkpt lat="45.30058" lon="4.28007">
        <ele>810</ele>
        <time>2021-04-26T12:59:02Z</time>
      </trkpt>
      <trkpt lat="45.30061" lon="4.28012">
        <ele>810</ele>
        <time>2021-04-26T12:59:03Z</time>
      </trkpt>
      <trkpt lat="45.30064" lon="4.28017">
        <ele>810</ele>
        <time>2021-04-26T12:59:04Z</time>
      </trkpt>
      <trkpt lat="45.30066" lon="4.28021">
        <ele>810</ele>
        <time>2021-04-26T12:59:05Z</time>
      </trkpt>
      <trkpt lat="45.3007" lon="4.28025">
        <ele>810</ele>
        <time>2021-04-26T12:59:06Z</time>
      </trkpt>
      <trkpt lat="45.30073" lon="4.28029">
        <ele>810</ele>
        <time>2021-04-26T12:59:07Z</time>
      </trkpt>
      <trkpt lat="45.30076" lon="4.28032">
        <ele>811</ele>
        <time>2021-04-26T12:59:08Z</time>
      </trkpt>
      <trkpt lat="45.3008" lon="4.28035">
        <ele>811</ele>
        <time>2021-04-26T12:59:09Z</time>
      </trkpt>
      <trkpt lat="45.30084" lon="4.28038">
        <ele>811</ele>
        <time>2021-04-26T12:59:10Z</time>
      </trkpt>
      <trkpt lat="45.30089" lon="4.2804">
        <ele>812</ele>
        <time>2021-04-26T12:59:11Z</time>
      </trkpt>
      <trkpt lat="45.30093" lon="4.28042">
        <ele>812</ele>
        <time>2021-04-26T12:59:12Z</time>
      </trkpt>
      <trkpt lat="45.30098" lon="4.28045">
        <ele>813</ele>
        <time>2021-04-26T12:59:13Z</time>
      </trkpt>
      <trkpt lat="45.30103" lon="4.28047">
        <ele>813</ele>
        <time>2021-04-26T12:59:14Z</time>
      </trkpt>
      <trkpt lat="45.30107" lon="4.28048">
        <ele>813</ele>
        <time>2021-04-26T12:59:15Z</time>
      </trkpt>
      <trkpt lat="45.30112" lon="4.28048">
        <ele>813</ele>
        <time>2021-04-26T12:59:16Z</time>
      </trkpt>
      <trkpt lat="45.30117" lon="4.28047">
        <ele>813</ele>
        <time>2021-04-26T12:59:17Z</time>
      </trkpt>
      <trkpt lat="45.30122" lon="4.28045">
        <ele>813</ele>
        <time>2021-04-26T12:59:18Z</time>
      </trkpt>
      <trkpt lat="45.30126" lon="4.28042">
        <ele>813</ele>
        <time>2021-04-26T12:59:19Z</time>
      </trkpt>
      <trkpt lat="45.30131" lon="4.2804">
        <ele>813</ele>
        <time>2021-04-26T12:59:20Z</time>
      </trkpt>
      <trkpt lat="45.30135" lon="4.28038">
        <ele>813</ele>
        <time>2021-04-26T12:59:21Z</time>
      </trkpt>
      <trkpt lat="45.30138" lon="4.28036">
        <ele>813</ele>
        <time>2021-04-26T12:59:22Z</time>
      </trkpt>
      <trkpt lat="45.30142" lon="4.28036">
        <ele>813</ele>
        <time>2021-04-26T12:59:23Z</time>
      </trkpt>
      <trkpt lat="45.30146" lon="4.28037">
        <ele>813</ele>
        <time>2021-04-26T12:59:24Z</time>
      </trkpt>
      <trkpt lat="45.30148" lon="4.28042">
        <ele>813</ele>
        <time>2021-04-26T12:59:25Z</time>
      </trkpt>
      <trkpt lat="45.30149" lon="4.28049">
        <ele>813</ele>
        <time>2021-04-26T12:59:26Z</time>
      </trkpt>
      <trkpt lat="45.3015" lon="4.28057">
        <ele>812</ele>
        <time>2021-04-26T12:59:27Z</time>
      </trkpt>
      <trkpt lat="45.3015" lon="4.28066">
        <ele>812</ele>
        <time>2021-04-26T12:59:28Z</time>
      </trkpt>
      <trkpt lat="45.30151" lon="4.28075">
        <ele>812</ele>
        <time>2021-04-26T12:59:29Z</time>
      </trkpt>
      <trkpt lat="45.30152" lon="4.28084">
        <ele>811</ele>
        <time>2021-04-26T12:59:30Z</time>
      </trkpt>
      <trkpt lat="45.30153" lon="4.28091">
        <ele>811</ele>
        <time>2021-04-26T12:59:31Z</time>
      </trkpt>
      <trkpt lat="45.30153" lon="4.28096">
        <ele>810</ele>
        <time>2021-04-26T12:59:32Z</time>
      </trkpt>
      <trkpt lat="45.30153" lon="4.28099">
        <ele>810</ele>
        <time>2021-04-26T12:59:33Z</time>
      </trkpt>
      <trkpt lat="45.30156" lon="4.28101">
        <ele>810</ele>
        <time>2021-04-26T12:59:35Z</time>
      </trkpt>
      <trkpt lat="45.30159" lon="4.281">
        <ele>810</ele>
        <time>2021-04-26T12:59:36Z</time>
      </trkpt>
      <trkpt lat="45.30161" lon="4.28099">
        <ele>809</ele>
        <time>2021-04-26T12:59:37Z</time>
      </trkpt>
      <trkpt lat="45.30165" lon="4.28101">
        <ele>809</ele>
        <time>2021-04-26T12:59:38Z</time>
      </trkpt>
      <trkpt lat="45.30168" lon="4.28104">
        <ele>809</ele>
        <time>2021-04-26T12:59:39Z</time>
      </trkpt>
      <trkpt lat="45.30171" lon="4.28109">
        <ele>809</ele>
        <time>2021-04-26T12:59:40Z</time>
      </trkpt>
      <trkpt lat="45.30175" lon="4.28115">
        <ele>809</ele>
        <time>2021-04-26T12:59:41Z</time>
      </trkpt>
      <trkpt lat="45.30179" lon="4.28121">
        <ele>808</ele>
        <time>2021-04-26T12:59:42Z</time>
      </trkpt>
      <trkpt lat="45.30184" lon="4.28128">
        <ele>807</ele>
        <time>2021-04-26T12:59:43Z</time>
      </trkpt>
      <trkpt lat="45.30188" lon="4.28134">
        <ele>807</ele>
        <time>2021-04-26T12:59:44Z</time>
      </trkpt>
      <trkpt lat="45.30193" lon="4.28141">
        <ele>807</ele>
        <time>2021-04-26T12:59:45Z</time>
      </trkpt>
      <trkpt lat="45.30197" lon="4.28148">
        <ele>806</ele>
        <time>2021-04-26T12:59:46Z</time>
      </trkpt>
      <trkpt lat="45.30201" lon="4.28155">
        <ele>806</ele>
        <time>2021-04-26T12:59:47Z</time>
      </trkpt>
      <trkpt lat="45.30206" lon="4.28162">
        <ele>806</ele>
        <time>2021-04-26T12:59:48Z</time>
      </trkpt>
      <trkpt lat="45.3021" lon="4.28168">
        <ele>806</ele>
        <time>2021-04-26T12:59:49Z</time>
      </trkpt>
      <trkpt lat="45.30213" lon="4.28175">
        <ele>805</ele>
        <time>2021-04-26T12:59:50Z</time>
      </trkpt>
      <trkpt lat="45.30217" lon="4.2818">
        <ele>805</ele>
        <time>2021-04-26T12:59:51Z</time>
      </trkpt>
      <trkpt lat="45.3022" lon="4.28185">
        <ele>804</ele>
        <time>2021-04-26T12:59:52Z</time>
      </trkpt>
      <trkpt lat="45.30223" lon="4.28188">
        <ele>804</ele>
        <time>2021-04-26T12:59:53Z</time>
      </trkpt>
      <trkpt lat="45.30226" lon="4.2819">
        <ele>804</ele>
        <time>2021-04-26T12:59:54Z</time>
      </trkpt>
      <trkpt lat="45.30229" lon="4.28193">
        <ele>804</ele>
        <time>2021-04-26T12:59:55Z</time>
      </trkpt>
      <trkpt lat="45.3023" lon="4.28197">
        <ele>803</ele>
        <time>2021-04-26T12:59:56Z</time>
      </trkpt>
      <trkpt lat="45.30233" lon="4.28202">
        <ele>803</ele>
        <time>2021-04-26T12:59:57Z</time>
      </trkpt>
      <trkpt lat="45.30236" lon="4.28206">
        <ele>803</ele>
        <time>2021-04-26T12:59:58Z</time>
      </trkpt>
      <trkpt lat="45.30239" lon="4.2821">
        <ele>803</ele>
        <time>2021-04-26T12:59:59Z</time>
      </trkpt>
      <trkpt lat="45.30242" lon="4.28215">
        <ele>803</ele>
        <time>2021-04-26T13:00:00Z</time>
      </trkpt>
      <trkpt lat="45.30245" lon="4.28219">
        <ele>803</ele>
        <time>2021-04-26T13:00:01Z</time>
      </trkpt>
      <trkpt lat="45.30247" lon="4.28224">
        <ele>803</ele>
        <time>2021-04-26T13:00:02Z</time>
      </trkpt>
      <trkpt lat="45.30249" lon="4.28228">
        <ele>803</ele>
        <time>2021-04-26T13:00:03Z</time>
      </trkpt>
      <trkpt lat="45.30251" lon="4.28232">
        <ele>803</ele>
        <time>2021-04-26T13:00:04Z</time>
      </trkpt>
      <trkpt lat="45.30254" lon="4.28236">
        <ele>803</ele>
        <time>2021-04-26T13:00:05Z</time>
      </trkpt>
      <trkpt lat="45.30257" lon="4.28239">
        <ele>803</ele>
        <time>2021-04-26T13:00:06Z</time>
      </trkpt>
      <trkpt lat="45.3026" lon="4.28244">
        <ele>803</ele>
        <time>2021-04-26T13:00:07Z</time>
      </trkpt>
      <trkpt lat="45.30263" lon="4.28248">
        <ele>803</ele>
        <time>2021-04-26T13:00:08Z</time>
      </trkpt>
      <trkpt lat="45.30267" lon="4.28253">
        <ele>803</ele>
        <time>2021-04-26T13:00:09Z</time>
      </trkpt>
      <trkpt lat="45.3027" lon="4.28257">
        <ele>803</ele>
        <time>2021-04-26T13:00:10Z</time>
      </trkpt>
      <trkpt lat="45.30274" lon="4.28262">
        <ele>803</ele>
        <time>2021-04-26T13:00:11Z</time>
      </trkpt>
      <trkpt lat="45.30277" lon="4.28267">
        <ele>803</ele>
        <time>2021-04-26T13:00:12Z</time>
      </trkpt>
      <trkpt lat="45.3028" lon="4.28271">
        <ele>803</ele>
        <time>2021-04-26T13:00:13Z</time>
      </trkpt>
      <trkpt lat="45.30284" lon="4.28275">
        <ele>803</ele>
        <time>2021-04-26T13:00:14Z</time>
      </trkpt>
      <trkpt lat="45.30288" lon="4.2828">
        <ele>803</ele>
        <time>2021-04-26T13:00:15Z</time>
      </trkpt>
      <trkpt lat="45.30292" lon="4.28285">
        <ele>802</ele>
        <time>2021-04-26T13:00:16Z</time>
      </trkpt>
      <trkpt lat="45.30296" lon="4.28289">
        <ele>802</ele>
        <time>2021-04-26T13:00:17Z</time>
      </trkpt>
      <trkpt lat="45.303" lon="4.28293">
        <ele>802</ele>
        <time>2021-04-26T13:00:18Z</time>
      </trkpt>
      <trkpt lat="45.30304" lon="4.28298">
        <ele>802</ele>
        <time>2021-04-26T13:00:19Z</time>
      </trkpt>
      <trkpt lat="45.30308" lon="4.28302">
        <ele>802</ele>
        <time>2021-04-26T13:00:20Z</time>
      </trkpt>
      <trkpt lat="45.30311" lon="4.28307">
        <ele>802</ele>
        <time>2021-04-26T13:00:21Z</time>
      </trkpt>
      <trkpt lat="45.30313" lon="4.28311">
        <ele>802</ele>
        <time>2021-04-26T13:00:22Z</time>
      </trkpt>
      <trkpt lat="45.30316" lon="4.28317">
        <ele>802</ele>
        <time>2021-04-26T13:00:23Z</time>
      </trkpt>
      <trkpt lat="45.30318" lon="4.28322">
        <ele>802</ele>
        <time>2021-04-26T13:00:24Z</time>
      </trkpt>
      <trkpt lat="45.3032" lon="4.28329">
        <ele>802</ele>
        <time>2021-04-26T13:00:25Z</time>
      </trkpt>
      <trkpt lat="45.3032" lon="4.28335">
        <ele>802</ele>
        <time>2021-04-26T13:00:26Z</time>
      </trkpt>
      <trkpt lat="45.30319" lon="4.28342">
        <ele>801</ele>
        <time>2021-04-26T13:00:27Z</time>
      </trkpt>
      <trkpt lat="45.30318" lon="4.28348">
        <ele>801</ele>
        <time>2021-04-26T13:00:28Z</time>
      </trkpt>
      <trkpt lat="45.30317" lon="4.28355">
        <ele>801</ele>
        <time>2021-04-26T13:00:29Z</time>
      </trkpt>
      <trkpt lat="45.30316" lon="4.28362">
        <ele>801</ele>
        <time>2021-04-26T13:00:30Z</time>
      </trkpt>
      <trkpt lat="45.30316" lon="4.2837">
        <ele>801</ele>
        <time>2021-04-26T13:00:31Z</time>
      </trkpt>
      <trkpt lat="45.30316" lon="4.28378">
        <ele>801</ele>
        <time>2021-04-26T13:00:32Z</time>
      </trkpt>
      <trkpt lat="45.30319" lon="4.28385">
        <ele>801</ele>
        <time>2021-04-26T13:00:33Z</time>
      </trkpt>
      <trkpt lat="45.30322" lon="4.2839">
        <ele>800</ele>
        <time>2021-04-26T13:00:34Z</time>
      </trkpt>
      <trkpt lat="45.30327" lon="4.28396">
        <ele>800</ele>
        <time>2021-04-26T13:00:35Z</time>
      </trkpt>
      <trkpt lat="45.30332" lon="4.28403">
        <ele>800</ele>
        <time>2021-04-26T13:00:36Z</time>
      </trkpt>
      <trkpt lat="45.30337" lon="4.2841">
        <ele>800</ele>
        <time>2021-04-26T13:00:37Z</time>
      </trkpt>
      <trkpt lat="45.30341" lon="4.28415">
        <ele>799</ele>
        <time>2021-04-26T13:00:38Z</time>
      </trkpt>
      <trkpt lat="45.30346" lon="4.28421">
        <ele>799</ele>
        <time>2021-04-26T13:00:39Z</time>
      </trkpt>
      <trkpt lat="45.30351" lon="4.28428">
        <ele>799</ele>
        <time>2021-04-26T13:00:40Z</time>
      </trkpt>
      <trkpt lat="45.30355" lon="4.28435">
        <ele>799</ele>
        <time>2021-04-26T13:00:41Z</time>
      </trkpt>
      <trkpt lat="45.30357" lon="4.28442">
        <ele>799</ele>
        <time>2021-04-26T13:00:42Z</time>
      </trkpt>
      <trkpt lat="45.30358" lon="4.28449">
        <ele>799</ele>
        <time>2021-04-26T13:00:43Z</time>
      </trkpt>
      <trkpt lat="45.3036" lon="4.28455">
        <ele>799</ele>
        <time>2021-04-26T13:00:44Z</time>
      </trkpt>
      <trkpt lat="45.30364" lon="4.28457">
        <ele>799</ele>
        <time>2021-04-26T13:00:45Z</time>
      </trkpt>
      <trkpt lat="45.30368" lon="4.28458">
        <ele>799</ele>
        <time>2021-04-26T13:00:46Z</time>
      </trkpt>
      <trkpt lat="45.30372" lon="4.28458">
        <ele>799</ele>
        <time>2021-04-26T13:00:47Z</time>
      </trkpt>
      <trkpt lat="45.30377" lon="4.28458">
        <ele>799</ele>
        <time>2021-04-26T13:00:48Z</time>
      </trkpt>
      <trkpt lat="45.30381" lon="4.28457">
        <ele>799</ele>
        <time>2021-04-26T13:00:49Z</time>
      </trkpt>
      <trkpt lat="45.30386" lon="4.28457">
        <ele>799</ele>
        <time>2021-04-26T13:00:50Z</time>
      </trkpt>
      <trkpt lat="45.3039" lon="4.28457">
        <ele>799</ele>
        <time>2021-04-26T13:00:51Z</time>
      </trkpt>
      <trkpt lat="45.30395" lon="4.2846">
        <ele>799</ele>
        <time>2021-04-26T13:00:52Z</time>
      </trkpt>
      <trkpt lat="45.30399" lon="4.28464">
        <ele>799</ele>
        <time>2021-04-26T13:00:53Z</time>
      </trkpt>
      <trkpt lat="45.30403" lon="4.28469">
        <ele>799</ele>
        <time>2021-04-26T13:00:54Z</time>
      </trkpt>
      <trkpt lat="45.30407" lon="4.28474">
        <ele>799</ele>
        <time>2021-04-26T13:00:55Z</time>
      </trkpt>
      <trkpt lat="45.30411" lon="4.28479">
        <ele>799</ele>
        <time>2021-04-26T13:00:56Z</time>
      </trkpt>
      <trkpt lat="45.30416" lon="4.28484">
        <ele>799</ele>
        <time>2021-04-26T13:00:57Z</time>
      </trkpt>
      <trkpt lat="45.3042" lon="4.28489">
        <ele>799</ele>
        <time>2021-04-26T13:00:58Z</time>
      </trkpt>
      <trkpt lat="45.30425" lon="4.28494">
        <ele>799</ele>
        <time>2021-04-26T13:00:59Z</time>
      </trkpt>
      <trkpt lat="45.30429" lon="4.28499">
        <ele>799</ele>
        <time>2021-04-26T13:01:00Z</time>
      </trkpt>
      <trkpt lat="45.30433" lon="4.28503">
        <ele>799</ele>
        <time>2021-04-26T13:01:01Z</time>
      </trkpt>
      <trkpt lat="45.30437" lon="4.28508">
        <ele>799</ele>
        <time>2021-04-26T13:01:02Z</time>
      </trkpt>
      <trkpt lat="45.3044" lon="4.28512">
        <ele>799</ele>
        <time>2021-04-26T13:01:03Z</time>
      </trkpt>
      <trkpt lat="45.30444" lon="4.28516">
        <ele>799</ele>
        <time>2021-04-26T13:01:04Z</time>
      </trkpt>
      <trkpt lat="45.30447" lon="4.28521">
        <ele>799</ele>
        <time>2021-04-26T13:01:05Z</time>
      </trkpt>
      <trkpt lat="45.30451" lon="4.28525">
        <ele>800</ele>
        <time>2021-04-26T13:01:06Z</time>
      </trkpt>
      <trkpt lat="45.30455" lon="4.28529">
        <ele>799</ele>
        <time>2021-04-26T13:01:07Z</time>
      </trkpt>
      <trkpt lat="45.30458" lon="4.28533">
        <ele>800</ele>
        <time>2021-04-26T13:01:08Z</time>
      </trkpt>
      <trkpt lat="45.30461" lon="4.28538">
        <ele>800</ele>
        <time>2021-04-26T13:01:09Z</time>
      </trkpt>
      <trkpt lat="45.30464" lon="4.28542">
        <ele>800</ele>
        <time>2021-04-26T13:01:10Z</time>
      </trkpt>
      <trkpt lat="45.30466" lon="4.28547">
        <ele>800</ele>
        <time>2021-04-26T13:01:11Z</time>
      </trkpt>
      <trkpt lat="45.30469" lon="4.28551">
        <ele>800</ele>
        <time>2021-04-26T13:01:12Z</time>
      </trkpt>
      <trkpt lat="45.30472" lon="4.28553">
        <ele>800</ele>
        <time>2021-04-26T13:01:13Z</time>
      </trkpt>
      <trkpt lat="45.30477" lon="4.28554">
        <ele>800</ele>
        <time>2021-04-26T13:01:14Z</time>
      </trkpt>
      <trkpt lat="45.3048" lon="4.28555">
        <ele>800</ele>
        <time>2021-04-26T13:01:15Z</time>
      </trkpt>
      <trkpt lat="45.30483" lon="4.28557">
        <ele>800</ele>
        <time>2021-04-26T13:01:16Z</time>
      </trkpt>
      <trkpt lat="45.30485" lon="4.28558">
        <ele>800</ele>
        <time>2021-04-26T13:01:17Z</time>
      </trkpt>
      <trkpt lat="45.30488" lon="4.28561">
        <ele>801</ele>
        <time>2021-04-26T13:01:18Z</time>
      </trkpt>
      <trkpt lat="45.30489" lon="4.28563">
        <ele>801</ele>
        <time>2021-04-26T13:01:19Z</time>
      </trkpt>
      <trkpt lat="45.30491" lon="4.28564">
        <ele>801</ele>
        <time>2021-04-26T13:01:20Z</time>
      </trkpt>
      <trkpt lat="45.30493" lon="4.28566">
        <ele>801</ele>
        <time>2021-04-26T13:01:21Z</time>
      </trkpt>
      <trkpt lat="45.30496" lon="4.28568">
        <ele>802</ele>
        <time>2021-04-26T13:01:22Z</time>
      </trkpt>
      <trkpt lat="45.30498" lon="4.2857">
        <ele>802</ele>
        <time>2021-04-26T13:01:23Z</time>
      </trkpt>
      <trkpt lat="45.30501" lon="4.28573">
        <ele>802</ele>
        <time>2021-04-26T13:01:24Z</time>
      </trkpt>
      <trkpt lat="45.30503" lon="4.28577">
        <ele>802</ele>
        <time>2021-04-26T13:01:25Z</time>
      </trkpt>
      <trkpt lat="45.30507" lon="4.2858">
        <ele>803</ele>
        <time>2021-04-26T13:01:26Z</time>
      </trkpt>
      <trkpt lat="45.3051" lon="4.28582">
        <ele>803</ele>
        <time>2021-04-26T13:01:27Z</time>
      </trkpt>
      <trkpt lat="45.30513" lon="4.28585">
        <ele>803</ele>
        <time>2021-04-26T13:01:28Z</time>
      </trkpt>
      <trkpt lat="45.30516" lon="4.28587">
        <ele>804</ele>
        <time>2021-04-26T13:01:29Z</time>
      </trkpt>
      <trkpt lat="45.30518" lon="4.2859">
        <ele>804</ele>
        <time>2021-04-26T13:01:30Z</time>
      </trkpt>
      <trkpt lat="45.3052" lon="4.28592">
        <ele>804</ele>
        <time>2021-04-26T13:01:31Z</time>
      </trkpt>
      <trkpt lat="45.30523" lon="4.28595">
        <ele>805</ele>
        <time>2021-04-26T13:01:32Z</time>
      </trkpt>
      <trkpt lat="45.30525" lon="4.28597">
        <ele>805</ele>
        <time>2021-04-26T13:01:33Z</time>
      </trkpt>
      <trkpt lat="45.30527" lon="4.286">
        <ele>806</ele>
        <time>2021-04-26T13:01:34Z</time>
      </trkpt>
      <trkpt lat="45.3053" lon="4.28603">
        <ele>806</ele>
        <time>2021-04-26T13:01:35Z</time>
      </trkpt>
      <trkpt lat="45.30533" lon="4.28607">
        <ele>807</ele>
        <time>2021-04-26T13:01:36Z</time>
      </trkpt>
      <trkpt lat="45.30535" lon="4.28609">
        <ele>807</ele>
        <time>2021-04-26T13:01:37Z</time>
      </trkpt>
      <trkpt lat="45.30538" lon="4.28612">
        <ele>807</ele>
        <time>2021-04-26T13:01:38Z</time>
      </trkpt>
      <trkpt lat="45.3054" lon="4.28614">
        <ele>808</ele>
        <time>2021-04-26T13:01:39Z</time>
      </trkpt>
      <trkpt lat="45.30543" lon="4.28617">
        <ele>808</ele>
        <time>2021-04-26T13:01:40Z</time>
      </trkpt>
      <trkpt lat="45.30546" lon="4.2862">
        <ele>809</ele>
        <time>2021-04-26T13:01:41Z</time>
      </trkpt>
      <trkpt lat="45.30549" lon="4.28623">
        <ele>809</ele>
        <time>2021-04-26T13:01:42Z</time>
      </trkpt>
      <trkpt lat="45.30551" lon="4.28627">
        <ele>809</ele>
        <time>2021-04-26T13:01:43Z</time>
      </trkpt>
      <trkpt lat="45.30553" lon="4.2863">
        <ele>809</ele>
        <time>2021-04-26T13:01:44Z</time>
      </trkpt>
      <trkpt lat="45.30556" lon="4.28633">
        <ele>810</ele>
        <time>2021-04-26T13:01:45Z</time>
      </trkpt>
      <trkpt lat="45.30558" lon="4.28635">
        <ele>810</ele>
        <time>2021-04-26T13:01:46Z</time>
      </trkpt>
      <trkpt lat="45.3056" lon="4.28637">
        <ele>810</ele>
        <time>2021-04-26T13:01:47Z</time>
      </trkpt>
      <trkpt lat="45.30562" lon="4.2864">
        <ele>810</ele>
        <time>2021-04-26T13:01:48Z</time>
      </trkpt>
      <trkpt lat="45.30564" lon="4.28642">
        <ele>810</ele>
        <time>2021-04-26T13:01:49Z</time>
      </trkpt>
      <trkpt lat="45.30565" lon="4.28645">
        <ele>811</ele>
        <time>2021-04-26T13:01:50Z</time>
      </trkpt>
      <trkpt lat="45.30567" lon="4.28647">
        <ele>812</ele>
        <time>2021-04-26T13:01:51Z</time>
      </trkpt>
      <trkpt lat="45.30569" lon="4.2865">
        <ele>813</ele>
        <time>2021-04-26T13:01:52Z</time>
      </trkpt>
      <trkpt lat="45.3057" lon="4.28652">
        <ele>813</ele>
        <time>2021-04-26T13:01:53Z</time>
      </trkpt>
      <trkpt lat="45.30574" lon="4.28655">
        <ele>814</ele>
        <time>2021-04-26T13:01:55Z</time>
      </trkpt>
      <trkpt lat="45.30577" lon="4.28654">
        <ele>814</ele>
        <time>2021-04-26T13:01:56Z</time>
      </trkpt>
      <trkpt lat="45.3058" lon="4.28652">
        <ele>815</ele>
        <time>2021-04-26T13:01:57Z</time>
      </trkpt>
      <trkpt lat="45.30584" lon="4.28649">
        <ele>816</ele>
        <time>2021-04-26T13:01:58Z</time>
      </trkpt>
      <trkpt lat="45.30588" lon="4.28645">
        <ele>816</ele>
        <time>2021-04-26T13:01:59Z</time>
      </trkpt>
      <trkpt lat="45.30591" lon="4.28643">
        <ele>816</ele>
        <time>2021-04-26T13:02:00Z</time>
      </trkpt>
      <trkpt lat="45.30594" lon="4.2864">
        <ele>817</ele>
        <time>2021-04-26T13:02:01Z</time>
      </trkpt>
      <trkpt lat="45.30597" lon="4.28638">
        <ele>818</ele>
        <time>2021-04-26T13:02:02Z</time>
      </trkpt>
      <trkpt lat="45.30598" lon="4.28637">
        <ele>818</ele>
        <time>2021-04-26T13:02:03Z</time>
      </trkpt>
      <trkpt lat="45.306" lon="4.28637">
        <ele>819</ele>
        <time>2021-04-26T13:02:04Z</time>
      </trkpt>
      <trkpt lat="45.30602" lon="4.28636">
        <ele>819</ele>
        <time>2021-04-26T13:02:05Z</time>
      </trkpt>
      <trkpt lat="45.30604" lon="4.28634">
        <ele>819</ele>
        <time>2021-04-26T13:02:06Z</time>
      </trkpt>
      <trkpt lat="45.30607" lon="4.28632">
        <ele>820</ele>
        <time>2021-04-26T13:02:07Z</time>
      </trkpt>
      <trkpt lat="45.3061" lon="4.28629">
        <ele>820</ele>
        <time>2021-04-26T13:02:08Z</time>
      </trkpt>
      <trkpt lat="45.30614" lon="4.28626">
        <ele>820</ele>
        <time>2021-04-26T13:02:09Z</time>
      </trkpt>
      <trkpt lat="45.30618" lon="4.28624">
        <ele>820</ele>
        <time>2021-04-26T13:02:10Z</time>
      </trkpt>
      <trkpt lat="45.30622" lon="4.28621">
        <ele>820</ele>
        <time>2021-04-26T13:02:11Z</time>
      </trkpt>
      <trkpt lat="45.30626" lon="4.28618">
        <ele>821</ele>
        <time>2021-04-26T13:02:12Z</time>
      </trkpt>
      <trkpt lat="45.30631" lon="4.28614">
        <ele>821</ele>
        <time>2021-04-26T13:02:13Z</time>
      </trkpt>
      <trkpt lat="45.30635" lon="4.28611">
        <ele>821</ele>
        <time>2021-04-26T13:02:14Z</time>
      </trkpt>
      <trkpt lat="45.30639" lon="4.28608">
        <ele>822</ele>
        <time>2021-04-26T13:02:15Z</time>
      </trkpt>
      <trkpt lat="45.30643" lon="4.28605">
        <ele>822</ele>
        <time>2021-04-26T13:02:16Z</time>
      </trkpt>
      <trkpt lat="45.30647" lon="4.28603">
        <ele>823</ele>
        <time>2021-04-26T13:02:17Z</time>
      </trkpt>
      <trkpt lat="45.30651" lon="4.286">
        <ele>823</ele>
        <time>2021-04-26T13:02:18Z</time>
      </trkpt>
      <trkpt lat="45.30654" lon="4.28597">
        <ele>824</ele>
        <time>2021-04-26T13:02:19Z</time>
      </trkpt>
      <trkpt lat="45.30658" lon="4.28594">
        <ele>824</ele>
        <time>2021-04-26T13:02:20Z</time>
      </trkpt>
      <trkpt lat="45.30662" lon="4.28591">
        <ele>824</ele>
        <time>2021-04-26T13:02:21Z</time>
      </trkpt>
      <trkpt lat="45.30666" lon="4.28588">
        <ele>825</ele>
        <time>2021-04-26T13:02:22Z</time>
      </trkpt>
      <trkpt lat="45.3067" lon="4.28585">
        <ele>825</ele>
        <time>2021-04-26T13:02:23Z</time>
      </trkpt>
      <trkpt lat="45.30675" lon="4.28582">
        <ele>825</ele>
        <time>2021-04-26T13:02:24Z</time>
      </trkpt>
      <trkpt lat="45.30678" lon="4.28579">
        <ele>825</ele>
        <time>2021-04-26T13:02:25Z</time>
      </trkpt>
      <trkpt lat="45.30682" lon="4.28576">
        <ele>826</ele>
        <time>2021-04-26T13:02:26Z</time>
      </trkpt>
      <trkpt lat="45.30686" lon="4.28574">
        <ele>826</ele>
        <time>2021-04-26T13:02:27Z</time>
      </trkpt>
      <trkpt lat="45.30689" lon="4.28571">
        <ele>826</ele>
        <time>2021-04-26T13:02:28Z</time>
      </trkpt>
      <trkpt lat="45.30693" lon="4.28568">
        <ele>827</ele>
        <time>2021-04-26T13:02:29Z</time>
      </trkpt>
      <trkpt lat="45.30697" lon="4.28565">
        <ele>827</ele>
        <time>2021-04-26T13:02:30Z</time>
      </trkpt>
      <trkpt lat="45.30701" lon="4.28563">
        <ele>827</ele>
        <time>2021-04-26T13:02:31Z</time>
      </trkpt>
      <trkpt lat="45.30705" lon="4.28562">
        <ele>827</ele>
        <time>2021-04-26T13:02:32Z</time>
      </trkpt>
      <trkpt lat="45.30709" lon="4.28562">
        <ele>828</ele>
        <time>2021-04-26T13:02:33Z</time>
      </trkpt>
      <trkpt lat="45.30712" lon="4.28564">
        <ele>828</ele>
        <time>2021-04-26T13:02:34Z</time>
      </trkpt>
      <trkpt lat="45.30713" lon="4.28567">
        <ele>828</ele>
        <time>2021-04-26T13:02:35Z</time>
      </trkpt>
      <trkpt lat="45.30713" lon="4.28572">
        <ele>828</ele>
        <time>2021-04-26T13:02:36Z</time>
      </trkpt>
      <trkpt lat="45.30713" lon="4.28577">
        <ele>829</ele>
        <time>2021-04-26T13:02:37Z</time>
      </trkpt>
      <trkpt lat="45.30711" lon="4.2858">
        <ele>829</ele>
        <time>2021-04-26T13:02:38Z</time>
      </trkpt>
      <trkpt lat="45.30711" lon="4.28584">
        <ele>829</ele>
        <time>2021-04-26T13:02:39Z</time>
      </trkpt>
      <trkpt lat="45.3071" lon="4.28588">
        <ele>829</ele>
        <time>2021-04-26T13:02:40Z</time>
      </trkpt>
      <trkpt lat="45.3071" lon="4.28592">
        <ele>829</ele>
        <time>2021-04-26T13:02:41Z</time>
      </trkpt>
      <trkpt lat="45.30709" lon="4.28596">
        <ele>829</ele>
        <time>2021-04-26T13:02:42Z</time>
      </trkpt>
      <trkpt lat="45.30707" lon="4.28601">
        <ele>830</ele>
        <time>2021-04-26T13:02:43Z</time>
      </trkpt>
      <trkpt lat="45.30705" lon="4.28607">
        <ele>830</ele>
        <time>2021-04-26T13:02:44Z</time>
      </trkpt>
      <trkpt lat="45.30703" lon="4.28612">
        <ele>830</ele>
        <time>2021-04-26T13:02:45Z</time>
      </trkpt>
      <trkpt lat="45.30701" lon="4.28617">
        <ele>830</ele>
        <time>2021-04-26T13:02:46Z</time>
      </trkpt>
      <trkpt lat="45.30698" lon="4.28623">
        <ele>830</ele>
        <time>2021-04-26T13:02:47Z</time>
      </trkpt>
      <trkpt lat="45.30695" lon="4.28629">
        <ele>830</ele>
        <time>2021-04-26T13:02:48Z</time>
      </trkpt>
      <trkpt lat="45.30693" lon="4.28635">
        <ele>830</ele>
        <time>2021-04-26T13:02:49Z</time>
      </trkpt>
      <trkpt lat="45.30691" lon="4.2864">
        <ele>831</ele>
        <time>2021-04-26T13:02:50Z</time>
      </trkpt>
      <trkpt lat="45.3069" lon="4.28645">
        <ele>831</ele>
        <time>2021-04-26T13:02:51Z</time>
      </trkpt>
      <trkpt lat="45.30688" lon="4.2865">
        <ele>831</ele>
        <time>2021-04-26T13:02:52Z</time>
      </trkpt>
      <trkpt lat="45.30686" lon="4.28655">
        <ele>831</ele>
        <time>2021-04-26T13:02:53Z</time>
      </trkpt>
      <trkpt lat="45.30684" lon="4.2866">
        <ele>831</ele>
        <time>2021-04-26T13:02:54Z</time>
      </trkpt>
      <trkpt lat="45.30683" lon="4.28665">
        <ele>832</ele>
        <time>2021-04-26T13:02:55Z</time>
      </trkpt>
      <trkpt lat="45.30681" lon="4.2867">
        <ele>832</ele>
        <time>2021-04-26T13:02:56Z</time>
      </trkpt>
      <trkpt lat="45.3068" lon="4.28674">
        <ele>832</ele>
        <time>2021-04-26T13:02:57Z</time>
      </trkpt>
      <trkpt lat="45.30678" lon="4.28678">
        <ele>832</ele>
        <time>2021-04-26T13:02:58Z</time>
      </trkpt>
      <trkpt lat="45.30675" lon="4.28683">
        <ele>833</ele>
        <time>2021-04-26T13:02:59Z</time>
      </trkpt>
      <trkpt lat="45.30673" lon="4.28688">
        <ele>834</ele>
        <time>2021-04-26T13:03:00Z</time>
      </trkpt>
      <trkpt lat="45.3067" lon="4.28692">
        <ele>834</ele>
        <time>2021-04-26T13:03:01Z</time>
      </trkpt>
      <trkpt lat="45.30669" lon="4.28695">
        <ele>835</ele>
        <time>2021-04-26T13:03:02Z</time>
      </trkpt>
      <trkpt lat="45.30666" lon="4.28699">
        <ele>835</ele>
        <time>2021-04-26T13:03:03Z</time>
      </trkpt>
      <trkpt lat="45.30664" lon="4.28703">
        <ele>836</ele>
        <time>2021-04-26T13:03:04Z</time>
      </trkpt>
      <trkpt lat="45.30662" lon="4.28707">
        <ele>836</ele>
        <time>2021-04-26T13:03:05Z</time>
      </trkpt>
      <trkpt lat="45.3066" lon="4.28711">
        <ele>836</ele>
        <time>2021-04-26T13:03:06Z</time>
      </trkpt>
      <trkpt lat="45.30659" lon="4.28715">
        <ele>836</ele>
        <time>2021-04-26T13:03:07Z</time>
      </trkpt>
      <trkpt lat="45.30657" lon="4.2872">
        <ele>837</ele>
        <time>2021-04-26T13:03:08Z</time>
      </trkpt>
      <trkpt lat="45.30657" lon="4.28725">
        <ele>837</ele>
        <time>2021-04-26T13:03:09Z</time>
      </trkpt>
      <trkpt lat="45.30657" lon="4.2873">
        <ele>837</ele>
        <time>2021-04-26T13:03:10Z</time>
      </trkpt>
      <trkpt lat="45.30656" lon="4.28734">
        <ele>837</ele>
        <time>2021-04-26T13:03:11Z</time>
      </trkpt>
      <trkpt lat="45.30656" lon="4.28738">
        <ele>838</ele>
        <time>2021-04-26T13:03:12Z</time>
      </trkpt>
      <trkpt lat="45.30655" lon="4.28743">
        <ele>838</ele>
        <time>2021-04-26T13:03:13Z</time>
      </trkpt>
      <trkpt lat="45.30655" lon="4.28747">
        <ele>838</ele>
        <time>2021-04-26T13:03:14Z</time>
      </trkpt>
      <trkpt lat="45.30654" lon="4.28752">
        <ele>838</ele>
        <time>2021-04-26T13:03:15Z</time>
      </trkpt>
      <trkpt lat="45.30654" lon="4.28756">
        <ele>839</ele>
        <time>2021-04-26T13:03:16Z</time>
      </trkpt>
      <trkpt lat="45.30654" lon="4.2876">
        <ele>839</ele>
        <time>2021-04-26T13:03:17Z</time>
      </trkpt>
      <trkpt lat="45.30653" lon="4.28765">
        <ele>839</ele>
        <time>2021-04-26T13:03:18Z</time>
      </trkpt>
      <trkpt lat="45.30653" lon="4.28769">
        <ele>840</ele>
        <time>2021-04-26T13:03:19Z</time>
      </trkpt>
      <trkpt lat="45.30653" lon="4.28773">
        <ele>840</ele>
        <time>2021-04-26T13:03:20Z</time>
      </trkpt>
      <trkpt lat="45.30653" lon="4.28777">
        <ele>841</ele>
        <time>2021-04-26T13:03:21Z</time>
      </trkpt>
      <trkpt lat="45.30654" lon="4.28781">
        <ele>842</ele>
        <time>2021-04-26T13:03:22Z</time>
      </trkpt>
      <trkpt lat="45.30656" lon="4.28785">
        <ele>842</ele>
        <time>2021-04-26T13:03:23Z</time>
      </trkpt>
      <trkpt lat="45.30657" lon="4.2879">
        <ele>842</ele>
        <time>2021-04-26T13:03:24Z</time>
      </trkpt>
      <trkpt lat="45.30658" lon="4.28794">
        <ele>843</ele>
        <time>2021-04-26T13:03:25Z</time>
      </trkpt>
      <trkpt lat="45.30659" lon="4.28799">
        <ele>843</ele>
        <time>2021-04-26T13:03:26Z</time>
      </trkpt>
      <trkpt lat="45.3066" lon="4.28804">
        <ele>844</ele>
        <time>2021-04-26T13:03:27Z</time>
      </trkpt>
      <trkpt lat="45.30661" lon="4.28808">
        <ele>844</ele>
        <time>2021-04-26T13:03:28Z</time>
      </trkpt>
      <trkpt lat="45.30662" lon="4.28813">
        <ele>844</ele>
        <time>2021-04-26T13:03:29Z</time>
      </trkpt>
      <trkpt lat="45.30663" lon="4.28818">
        <ele>844</ele>
        <time>2021-04-26T13:03:30Z</time>
      </trkpt>
      <trkpt lat="45.30664" lon="4.28822">
        <ele>845</ele>
        <time>2021-04-26T13:03:31Z</time>
      </trkpt>
      <trkpt lat="45.30664" lon="4.28826">
        <ele>845</ele>
        <time>2021-04-26T13:03:32Z</time>
      </trkpt>
      <trkpt lat="45.30665" lon="4.28831">
        <ele>846</ele>
        <time>2021-04-26T13:03:33Z</time>
      </trkpt>
      <trkpt lat="45.30665" lon="4.28835">
        <ele>846</ele>
        <time>2021-04-26T13:03:34Z</time>
      </trkpt>
      <trkpt lat="45.30666" lon="4.2884">
        <ele>846</ele>
        <time>2021-04-26T13:03:35Z</time>
      </trkpt>
      <trkpt lat="45.30666" lon="4.28845">
        <ele>847</ele>
        <time>2021-04-26T13:03:36Z</time>
      </trkpt>
      <trkpt lat="45.30667" lon="4.2885">
        <ele>847</ele>
        <time>2021-04-26T13:03:37Z</time>
      </trkpt>
      <trkpt lat="45.30668" lon="4.28856">
        <ele>848</ele>
        <time>2021-04-26T13:03:38Z</time>
      </trkpt>
      <trkpt lat="45.30668" lon="4.28861">
        <ele>848</ele>
        <time>2021-04-26T13:03:39Z</time>
      </trkpt>
      <trkpt lat="45.30669" lon="4.28866">
        <ele>849</ele>
        <time>2021-04-26T13:03:40Z</time>
      </trkpt>
      <trkpt lat="45.3067" lon="4.28871">
        <ele>849</ele>
        <time>2021-04-26T13:03:41Z</time>
      </trkpt>
      <trkpt lat="45.3067" lon="4.28876">
        <ele>850</ele>
        <time>2021-04-26T13:03:42Z</time>
      </trkpt>
      <trkpt lat="45.3067" lon="4.28881">
        <ele>850</ele>
        <time>2021-04-26T13:03:43Z</time>
      </trkpt>
      <trkpt lat="45.30671" lon="4.28885">
        <ele>851</ele>
        <time>2021-04-26T13:03:44Z</time>
      </trkpt>
      <trkpt lat="45.30671" lon="4.2889">
        <ele>851</ele>
        <time>2021-04-26T13:03:45Z</time>
      </trkpt>
      <trkpt lat="45.30671" lon="4.28895">
        <ele>852</ele>
        <time>2021-04-26T13:03:46Z</time>
      </trkpt>
      <trkpt lat="45.30671" lon="4.28901">
        <ele>852</ele>
        <time>2021-04-26T13:03:47Z</time>
      </trkpt>
      <trkpt lat="45.30671" lon="4.28906">
        <ele>853</ele>
        <time>2021-04-26T13:03:48Z</time>
      </trkpt>
      <trkpt lat="45.30671" lon="4.28912">
        <ele>853</ele>
        <time>2021-04-26T13:03:49Z</time>
      </trkpt>
      <trkpt lat="45.30671" lon="4.28917">
        <ele>854</ele>
        <time>2021-04-26T13:03:50Z</time>
      </trkpt>
      <trkpt lat="45.30672" lon="4.28922">
        <ele>854</ele>
        <time>2021-04-26T13:03:51Z</time>
      </trkpt>
      <trkpt lat="45.30673" lon="4.28928">
        <ele>854</ele>
        <time>2021-04-26T13:03:52Z</time>
      </trkpt>
      <trkpt lat="45.30673" lon="4.28934">
        <ele>855</ele>
        <time>2021-04-26T13:03:53Z</time>
      </trkpt>
      <trkpt lat="45.30674" lon="4.2894">
        <ele>855</ele>
        <time>2021-04-26T13:03:54Z</time>
      </trkpt>
      <trkpt lat="45.30675" lon="4.28946">
        <ele>855</ele>
        <time>2021-04-26T13:03:55Z</time>
      </trkpt>
      <trkpt lat="45.30677" lon="4.28951">
        <ele>856</ele>
        <time>2021-04-26T13:03:56Z</time>
      </trkpt>
      <trkpt lat="45.30678" lon="4.28957">
        <ele>857</ele>
        <time>2021-04-26T13:03:57Z</time>
      </trkpt>
      <trkpt lat="45.3068" lon="4.28962">
        <ele>857</ele>
        <time>2021-04-26T13:03:58Z</time>
      </trkpt>
      <trkpt lat="45.30682" lon="4.28967">
        <ele>858</ele>
        <time>2021-04-26T13:03:59Z</time>
      </trkpt>
      <trkpt lat="45.30683" lon="4.28973">
        <ele>858</ele>
        <time>2021-04-26T13:04:00Z</time>
      </trkpt>
      <trkpt lat="45.30685" lon="4.28978">
        <ele>859</ele>
        <time>2021-04-26T13:04:01Z</time>
      </trkpt>
      <trkpt lat="45.30687" lon="4.28982">
        <ele>859</ele>
        <time>2021-04-26T13:04:02Z</time>
      </trkpt>
      <trkpt lat="45.3069" lon="4.28987">
        <ele>859</ele>
        <time>2021-04-26T13:04:03Z</time>
      </trkpt>
      <trkpt lat="45.30692" lon="4.28991">
        <ele>860</ele>
        <time>2021-04-26T13:04:04Z</time>
      </trkpt>
      <trkpt lat="45.30694" lon="4.28996">
        <ele>860</ele>
        <time>2021-04-26T13:04:05Z</time>
      </trkpt>
      <trkpt lat="45.30696" lon="4.29">
        <ele>860</ele>
        <time>2021-04-26T13:04:06Z</time>
      </trkpt>
      <trkpt lat="45.30698" lon="4.29005">
        <ele>861</ele>
        <time>2021-04-26T13:04:07Z</time>
      </trkpt>
      <trkpt lat="45.307" lon="4.29009">
        <ele>861</ele>
        <time>2021-04-26T13:04:08Z</time>
      </trkpt>
      <trkpt lat="45.30702" lon="4.29014">
        <ele>861</ele>
        <time>2021-04-26T13:04:09Z</time>
      </trkpt>
      <trkpt lat="45.30703" lon="4.29018">
        <ele>861</ele>
        <time>2021-04-26T13:04:10Z</time>
      </trkpt>
      <trkpt lat="45.30705" lon="4.29022">
        <ele>861</ele>
        <time>2021-04-26T13:04:11Z</time>
      </trkpt>
      <trkpt lat="45.30706" lon="4.29027">
        <ele>862</ele>
        <time>2021-04-26T13:04:12Z</time>
      </trkpt>
      <trkpt lat="45.30708" lon="4.29032">
        <ele>862</ele>
        <time>2021-04-26T13:04:13Z</time>
      </trkpt>
      <trkpt lat="45.30711" lon="4.29038">
        <ele>862</ele>
        <time>2021-04-26T13:04:14Z</time>
      </trkpt>
      <trkpt lat="45.30713" lon="4.29043">
        <ele>862</ele>
        <time>2021-04-26T13:04:15Z</time>
      </trkpt>
      <trkpt lat="45.30715" lon="4.29049">
        <ele>863</ele>
        <time>2021-04-26T13:04:16Z</time>
      </trkpt>
      <trkpt lat="45.30717" lon="4.29054">
        <ele>863</ele>
        <time>2021-04-26T13:04:17Z</time>
      </trkpt>
      <trkpt lat="45.30719" lon="4.29059">
        <ele>863</ele>
        <time>2021-04-26T13:04:18Z</time>
      </trkpt>
      <trkpt lat="45.30722" lon="4.29065">
        <ele>863</ele>
        <time>2021-04-26T13:04:19Z</time>
      </trkpt>
      <trkpt lat="45.30723" lon="4.2907">
        <ele>864</ele>
        <time>2021-04-26T13:04:20Z</time>
      </trkpt>
      <trkpt lat="45.30725" lon="4.29074">
        <ele>864</ele>
        <time>2021-04-26T13:04:21Z</time>
      </trkpt>
      <trkpt lat="45.30727" lon="4.29079">
        <ele>864</ele>
        <time>2021-04-26T13:04:22Z</time>
      </trkpt>
      <trkpt lat="45.30729" lon="4.29084">
        <ele>864</ele>
        <time>2021-04-26T13:04:23Z</time>
      </trkpt>
      <trkpt lat="45.30732" lon="4.29089">
        <ele>864</ele>
        <time>2021-04-26T13:04:24Z</time>
      </trkpt>
      <trkpt lat="45.30734" lon="4.29094">
        <ele>864</ele>
        <time>2021-04-26T13:04:25Z</time>
      </trkpt>
      <trkpt lat="45.30737" lon="4.29099">
        <ele>864</ele>
        <time>2021-04-26T13:04:26Z</time>
      </trkpt>
      <trkpt lat="45.30739" lon="4.29104">
        <ele>865</ele>
        <time>2021-04-26T13:04:27Z</time>
      </trkpt>
      <trkpt lat="45.30742" lon="4.2911">
        <ele>865</ele>
        <time>2021-04-26T13:04:28Z</time>
      </trkpt>
      <trkpt lat="45.30744" lon="4.29114">
        <ele>865</ele>
        <time>2021-04-26T13:04:29Z</time>
      </trkpt>
      <trkpt lat="45.30746" lon="4.29119">
        <ele>866</ele>
        <time>2021-04-26T13:04:30Z</time>
      </trkpt>
      <trkpt lat="45.30749" lon="4.29123">
        <ele>866</ele>
        <time>2021-04-26T13:04:31Z</time>
      </trkpt>
      <trkpt lat="45.30751" lon="4.29128">
        <ele>866</ele>
        <time>2021-04-26T13:04:32Z</time>
      </trkpt>
      <trkpt lat="45.30753" lon="4.29134">
        <ele>867</ele>
        <time>2021-04-26T13:04:33Z</time>
      </trkpt>
      <trkpt lat="45.30755" lon="4.29139">
        <ele>867</ele>
        <time>2021-04-26T13:04:34Z</time>
      </trkpt>
      <trkpt lat="45.30757" lon="4.29144">
        <ele>867</ele>
        <time>2021-04-26T13:04:35Z</time>
      </trkpt>
      <trkpt lat="45.30758" lon="4.29149">
        <ele>868</ele>
        <time>2021-04-26T13:04:36Z</time>
      </trkpt>
      <trkpt lat="45.3076" lon="4.29154">
        <ele>868</ele>
        <time>2021-04-26T13:04:37Z</time>
      </trkpt>
      <trkpt lat="45.30762" lon="4.2916">
        <ele>868</ele>
        <time>2021-04-26T13:04:38Z</time>
      </trkpt>
      <trkpt lat="45.30764" lon="4.29165">
        <ele>868</ele>
        <time>2021-04-26T13:04:39Z</time>
      </trkpt>
      <trkpt lat="45.30765" lon="4.29171">
        <ele>868</ele>
        <time>2021-04-26T13:04:40Z</time>
      </trkpt>
      <trkpt lat="45.30767" lon="4.29177">
        <ele>869</ele>
        <time>2021-04-26T13:04:41Z</time>
      </trkpt>
      <trkpt lat="45.30769" lon="4.29183">
        <ele>869</ele>
        <time>2021-04-26T13:04:42Z</time>
      </trkpt>
      <trkpt lat="45.3077" lon="4.29189">
        <ele>869</ele>
        <time>2021-04-26T13:04:43Z</time>
      </trkpt>
      <trkpt lat="45.30771" lon="4.29195">
        <ele>870</ele>
        <time>2021-04-26T13:04:44Z</time>
      </trkpt>
      <trkpt lat="45.30772" lon="4.292">
        <ele>870</ele>
        <time>2021-04-26T13:04:45Z</time>
      </trkpt>
      <trkpt lat="45.30773" lon="4.29205">
        <ele>870</ele>
        <time>2021-04-26T13:04:46Z</time>
      </trkpt>
      <trkpt lat="45.30774" lon="4.29211">
        <ele>870</ele>
        <time>2021-04-26T13:04:47Z</time>
      </trkpt>
      <trkpt lat="45.30775" lon="4.29217">
        <ele>870</ele>
        <time>2021-04-26T13:04:48Z</time>
      </trkpt>
      <trkpt lat="45.30776" lon="4.29223">
        <ele>870</ele>
        <time>2021-04-26T13:04:49Z</time>
      </trkpt>
      <trkpt lat="45.30777" lon="4.2923">
        <ele>870</ele>
        <time>2021-04-26T13:04:50Z</time>
      </trkpt>
      <trkpt lat="45.30778" lon="4.29236">
        <ele>871</ele>
        <time>2021-04-26T13:04:51Z</time>
      </trkpt>
      <trkpt lat="45.30779" lon="4.29242">
        <ele>871</ele>
        <time>2021-04-26T13:04:52Z</time>
      </trkpt>
      <trkpt lat="45.3078" lon="4.29249">
        <ele>871</ele>
        <time>2021-04-26T13:04:53Z</time>
      </trkpt>
      <trkpt lat="45.30781" lon="4.29255">
        <ele>872</ele>
        <time>2021-04-26T13:04:54Z</time>
      </trkpt>
      <trkpt lat="45.30782" lon="4.29262">
        <ele>872</ele>
        <time>2021-04-26T13:04:55Z</time>
      </trkpt>
      <trkpt lat="45.30782" lon="4.29269">
        <ele>872</ele>
        <time>2021-04-26T13:04:56Z</time>
      </trkpt>
      <trkpt lat="45.30782" lon="4.29275">
        <ele>872</ele>
        <time>2021-04-26T13:04:57Z</time>
      </trkpt>
      <trkpt lat="45.30783" lon="4.29281">
        <ele>872</ele>
        <time>2021-04-26T13:04:58Z</time>
      </trkpt>
      <trkpt lat="45.30784" lon="4.29288">
        <ele>872</ele>
        <time>2021-04-26T13:04:59Z</time>
      </trkpt>
      <trkpt lat="45.30785" lon="4.29295">
        <ele>873</ele>
        <time>2021-04-26T13:05:00Z</time>
      </trkpt>
      <trkpt lat="45.30787" lon="4.29301">
        <ele>873</ele>
        <time>2021-04-26T13:05:01Z</time>
      </trkpt>
      <trkpt lat="45.30788" lon="4.29307">
        <ele>873</ele>
        <time>2021-04-26T13:05:02Z</time>
      </trkpt>
      <trkpt lat="45.3079" lon="4.29314">
        <ele>873</ele>
        <time>2021-04-26T13:05:03Z</time>
      </trkpt>
      <trkpt lat="45.30791" lon="4.2932">
        <ele>874</ele>
        <time>2021-04-26T13:05:04Z</time>
      </trkpt>
      <trkpt lat="45.30792" lon="4.29327">
        <ele>874</ele>
        <time>2021-04-26T13:05:05Z</time>
      </trkpt>
      <trkpt lat="45.30793" lon="4.29334">
        <ele>874</ele>
        <time>2021-04-26T13:05:06Z</time>
      </trkpt>
      <trkpt lat="45.30795" lon="4.29341">
        <ele>874</ele>
        <time>2021-04-26T13:05:07Z</time>
      </trkpt>
      <trkpt lat="45.30796" lon="4.29348">
        <ele>874</ele>
        <time>2021-04-26T13:05:08Z</time>
      </trkpt>
      <trkpt lat="45.30797" lon="4.29356">
        <ele>874</ele>
        <time>2021-04-26T13:05:09Z</time>
      </trkpt>
      <trkpt lat="45.30799" lon="4.29363">
        <ele>875</ele>
        <time>2021-04-26T13:05:10Z</time>
      </trkpt>
      <trkpt lat="45.308" lon="4.2937">
        <ele>875</ele>
        <time>2021-04-26T13:05:11Z</time>
      </trkpt>
      <trkpt lat="45.30801" lon="4.29377">
        <ele>875</ele>
        <time>2021-04-26T13:05:12Z</time>
      </trkpt>
      <trkpt lat="45.30803" lon="4.29384">
        <ele>875</ele>
        <time>2021-04-26T13:05:13Z</time>
      </trkpt>
      <trkpt lat="45.30804" lon="4.29391">
        <ele>875</ele>
        <time>2021-04-26T13:05:14Z</time>
      </trkpt>
      <trkpt lat="45.30806" lon="4.29398">
        <ele>875</ele>
        <time>2021-04-26T13:05:15Z</time>
      </trkpt>
      <trkpt lat="45.30808" lon="4.29405">
        <ele>875</ele>
        <time>2021-04-26T13:05:16Z</time>
      </trkpt>
      <trkpt lat="45.3081" lon="4.2941">
        <ele>875</ele>
        <time>2021-04-26T13:05:17Z</time>
      </trkpt>
      <trkpt lat="45.30813" lon="4.29415">
        <ele>875</ele>
        <time>2021-04-26T13:05:18Z</time>
      </trkpt>
      <trkpt lat="45.30815" lon="4.2942">
        <ele>875</ele>
        <time>2021-04-26T13:05:19Z</time>
      </trkpt>
      <trkpt lat="45.30817" lon="4.29426">
        <ele>875</ele>
        <time>2021-04-26T13:05:20Z</time>
      </trkpt>
      <trkpt lat="45.3082" lon="4.29433">
        <ele>875</ele>
        <time>2021-04-26T13:05:21Z</time>
      </trkpt>
      <trkpt lat="45.30823" lon="4.29439">
        <ele>875</ele>
        <time>2021-04-26T13:05:22Z</time>
      </trkpt>
      <trkpt lat="45.30826" lon="4.29445">
        <ele>875</ele>
        <time>2021-04-26T13:05:23Z</time>
      </trkpt>
      <trkpt lat="45.30829" lon="4.29451">
        <ele>875</ele>
        <time>2021-04-26T13:05:24Z</time>
      </trkpt>
      <trkpt lat="45.30833" lon="4.29457">
        <ele>875</ele>
        <time>2021-04-26T13:05:25Z</time>
      </trkpt>
      <trkpt lat="45.30836" lon="4.29463">
        <ele>875</ele>
        <time>2021-04-26T13:05:26Z</time>
      </trkpt>
      <trkpt lat="45.3084" lon="4.29469">
        <ele>875</ele>
        <time>2021-04-26T13:05:27Z</time>
      </trkpt>
      <trkpt lat="45.30844" lon="4.29475">
        <ele>875</ele>
        <time>2021-04-26T13:05:28Z</time>
      </trkpt>
      <trkpt lat="45.30848" lon="4.29481">
        <ele>874</ele>
        <time>2021-04-26T13:05:29Z</time>
      </trkpt>
      <trkpt lat="45.30852" lon="4.29487">
        <ele>874</ele>
        <time>2021-04-26T13:05:30Z</time>
      </trkpt>
      <trkpt lat="45.30856" lon="4.29493">
        <ele>873</ele>
        <time>2021-04-26T13:05:31Z</time>
      </trkpt>
      <trkpt lat="45.30861" lon="4.29499">
        <ele>873</ele>
        <time>2021-04-26T13:05:32Z</time>
      </trkpt>
      <trkpt lat="45.30865" lon="4.29505">
        <ele>873</ele>
        <time>2021-04-26T13:05:33Z</time>
      </trkpt>
      <trkpt lat="45.30869" lon="4.29511">
        <ele>872</ele>
        <time>2021-04-26T13:05:34Z</time>
      </trkpt>
      <trkpt lat="45.30872" lon="4.29518">
        <ele>872</ele>
        <time>2021-04-26T13:05:35Z</time>
      </trkpt>
      <trkpt lat="45.30876" lon="4.29526">
        <ele>872</ele>
        <time>2021-04-26T13:05:36Z</time>
      </trkpt>
      <trkpt lat="45.30878" lon="4.29533">
        <ele>872</ele>
        <time>2021-04-26T13:05:37Z</time>
      </trkpt>
      <trkpt lat="45.3088" lon="4.29541">
        <ele>872</ele>
        <time>2021-04-26T13:05:38Z</time>
      </trkpt>
      <trkpt lat="45.30882" lon="4.2955">
        <ele>872</ele>
        <time>2021-04-26T13:05:39Z</time>
      </trkpt>
      <trkpt lat="45.30883" lon="4.29558">
        <ele>872</ele>
        <time>2021-04-26T13:05:40Z</time>
      </trkpt>
      <trkpt lat="45.30884" lon="4.29566">
        <ele>872</ele>
        <time>2021-04-26T13:05:41Z</time>
      </trkpt>
      <trkpt lat="45.30885" lon="4.29574">
        <ele>872</ele>
        <time>2021-04-26T13:05:42Z</time>
      </trkpt>
      <trkpt lat="45.30885" lon="4.29581">
        <ele>872</ele>
        <time>2021-04-26T13:05:43Z</time>
      </trkpt>
      <trkpt lat="45.30885" lon="4.29588">
        <ele>872</ele>
        <time>2021-04-26T13:05:44Z</time>
      </trkpt>
      <trkpt lat="45.30885" lon="4.29595">
        <ele>872</ele>
        <time>2021-04-26T13:05:45Z</time>
      </trkpt>
      <trkpt lat="45.30886" lon="4.296">
        <ele>872</ele>
        <time>2021-04-26T13:05:46Z</time>
      </trkpt>
      <trkpt lat="45.30886" lon="4.29606">
        <ele>872</ele>
        <time>2021-04-26T13:05:47Z</time>
      </trkpt>
      <trkpt lat="45.30886" lon="4.29613">
        <ele>872</ele>
        <time>2021-04-26T13:05:48Z</time>
      </trkpt>
      <trkpt lat="45.30886" lon="4.29619">
        <ele>872</ele>
        <time>2021-04-26T13:05:49Z</time>
      </trkpt>
      <trkpt lat="45.30887" lon="4.29626">
        <ele>872</ele>
        <time>2021-04-26T13:05:50Z</time>
      </trkpt>
      <trkpt lat="45.30888" lon="4.29633">
        <ele>872</ele>
        <time>2021-04-26T13:05:51Z</time>
      </trkpt>
      <trkpt lat="45.3089" lon="4.29639">
        <ele>872</ele>
        <time>2021-04-26T13:05:52Z</time>
      </trkpt>
      <trkpt lat="45.30892" lon="4.29645">
        <ele>872</ele>
        <time>2021-04-26T13:05:53Z</time>
      </trkpt>
      <trkpt lat="45.30895" lon="4.2965">
        <ele>872</ele>
        <time>2021-04-26T13:05:54Z</time>
      </trkpt>
      <trkpt lat="45.30898" lon="4.29656">
        <ele>872</ele>
        <time>2021-04-26T13:05:55Z</time>
      </trkpt>
      <trkpt lat="45.30902" lon="4.29661">
        <ele>872</ele>
        <time>2021-04-26T13:05:56Z</time>
      </trkpt>
      <trkpt lat="45.30906" lon="4.29667">
        <ele>872</ele>
        <time>2021-04-26T13:05:57Z</time>
      </trkpt>
      <trkpt lat="45.3091" lon="4.29672">
        <ele>872</ele>
        <time>2021-04-26T13:05:58Z</time>
      </trkpt>
      <trkpt lat="45.30915" lon="4.29677">
        <ele>872</ele>
        <time>2021-04-26T13:05:59Z</time>
      </trkpt>
      <trkpt lat="45.30919" lon="4.29682">
        <ele>872</ele>
        <time>2021-04-26T13:06:00Z</time>
      </trkpt>
      <trkpt lat="45.30923" lon="4.29688">
        <ele>872</ele>
        <time>2021-04-26T13:06:01Z</time>
      </trkpt>
      <trkpt lat="45.30927" lon="4.29695">
        <ele>872</ele>
        <time>2021-04-26T13:06:02Z</time>
      </trkpt>
      <trkpt lat="45.30929" lon="4.29702">
        <ele>872</ele>
        <time>2021-04-26T13:06:03Z</time>
      </trkpt>
      <trkpt lat="45.30931" lon="4.2971">
        <ele>872</ele>
        <time>2021-04-26T13:06:04Z</time>
      </trkpt>
      <trkpt lat="45.30933" lon="4.29717">
        <ele>872</ele>
        <time>2021-04-26T13:06:05Z</time>
      </trkpt>
      <trkpt lat="45.30935" lon="4.29725">
        <ele>873</ele>
        <time>2021-04-26T13:06:06Z</time>
      </trkpt>
      <trkpt lat="45.30937" lon="4.29732">
        <ele>873</ele>
        <time>2021-04-26T13:06:07Z</time>
      </trkpt>
      <trkpt lat="45.3094" lon="4.29739">
        <ele>873</ele>
        <time>2021-04-26T13:06:08Z</time>
      </trkpt>
      <trkpt lat="45.30942" lon="4.29744">
        <ele>874</ele>
        <time>2021-04-26T13:06:09Z</time>
      </trkpt>
      <trkpt lat="45.30945" lon="4.2975">
        <ele>874</ele>
        <time>2021-04-26T13:06:10Z</time>
      </trkpt>
      <trkpt lat="45.30949" lon="4.29754">
        <ele>874</ele>
        <time>2021-04-26T13:06:11Z</time>
      </trkpt>
      <trkpt lat="45.30952" lon="4.29759">
        <ele>874</ele>
        <time>2021-04-26T13:06:12Z</time>
      </trkpt>
      <trkpt lat="45.30955" lon="4.29763">
        <ele>875</ele>
        <time>2021-04-26T13:06:13Z</time>
      </trkpt>
      <trkpt lat="45.30958" lon="4.29767">
        <ele>875</ele>
        <time>2021-04-26T13:06:14Z</time>
      </trkpt>
      <trkpt lat="45.30962" lon="4.2977">
        <ele>875</ele>
        <time>2021-04-26T13:06:15Z</time>
      </trkpt>
      <trkpt lat="45.30966" lon="4.29774">
        <ele>876</ele>
        <time>2021-04-26T13:06:16Z</time>
      </trkpt>
      <trkpt lat="45.30969" lon="4.29777">
        <ele>876</ele>
        <time>2021-04-26T13:06:17Z</time>
      </trkpt>
      <trkpt lat="45.30973" lon="4.2978">
        <ele>876</ele>
        <time>2021-04-26T13:06:18Z</time>
      </trkpt>
      <trkpt lat="45.30977" lon="4.29784">
        <ele>876</ele>
        <time>2021-04-26T13:06:19Z</time>
      </trkpt>
      <trkpt lat="45.30981" lon="4.29787">
        <ele>876</ele>
        <time>2021-04-26T13:06:20Z</time>
      </trkpt>
      <trkpt lat="45.30985" lon="4.29791">
        <ele>877</ele>
        <time>2021-04-26T13:06:21Z</time>
      </trkpt>
      <trkpt lat="45.30988" lon="4.29795">
        <ele>877</ele>
        <time>2021-04-26T13:06:22Z</time>
      </trkpt>
      <trkpt lat="45.30991" lon="4.29799">
        <ele>877</ele>
        <time>2021-04-26T13:06:23Z</time>
      </trkpt>
      <trkpt lat="45.30995" lon="4.29803">
        <ele>877</ele>
        <time>2021-04-26T13:06:24Z</time>
      </trkpt>
      <trkpt lat="45.30998" lon="4.29807">
        <ele>878</ele>
        <time>2021-04-26T13:06:25Z</time>
      </trkpt>
      <trkpt lat="45.31001" lon="4.29811">
        <ele>878</ele>
        <time>2021-04-26T13:06:26Z</time>
      </trkpt>
      <trkpt lat="45.31004" lon="4.29815">
        <ele>879</ele>
        <time>2021-04-26T13:06:27Z</time>
      </trkpt>
      <trkpt lat="45.31007" lon="4.2982">
        <ele>879</ele>
        <time>2021-04-26T13:06:28Z</time>
      </trkpt>
      <trkpt lat="45.31009" lon="4.29825">
        <ele>879</ele>
        <time>2021-04-26T13:06:29Z</time>
      </trkpt>
      <trkpt lat="45.31012" lon="4.2983">
        <ele>880</ele>
        <time>2021-04-26T13:06:30Z</time>
      </trkpt>
      <trkpt lat="45.31014" lon="4.29835">
        <ele>880</ele>
        <time>2021-04-26T13:06:31Z</time>
      </trkpt>
      <trkpt lat="45.31016" lon="4.29839">
        <ele>881</ele>
        <time>2021-04-26T13:06:32Z</time>
      </trkpt>
      <trkpt lat="45.31018" lon="4.29844">
        <ele>881</ele>
        <time>2021-04-26T13:06:33Z</time>
      </trkpt>
      <trkpt lat="45.31021" lon="4.29849">
        <ele>881</ele>
        <time>2021-04-26T13:06:34Z</time>
      </trkpt>
      <trkpt lat="45.31023" lon="4.29854">
        <ele>882</ele>
        <time>2021-04-26T13:06:35Z</time>
      </trkpt>
      <trkpt lat="45.31025" lon="4.2986">
        <ele>882</ele>
        <time>2021-04-26T13:06:36Z</time>
      </trkpt>
      <trkpt lat="45.31027" lon="4.29865">
        <ele>883</ele>
        <time>2021-04-26T13:06:37Z</time>
      </trkpt>
      <trkpt lat="45.3103" lon="4.29871">
        <ele>883</ele>
        <time>2021-04-26T13:06:38Z</time>
      </trkpt>
      <trkpt lat="45.31032" lon="4.29876">
        <ele>883</ele>
        <time>2021-04-26T13:06:39Z</time>
      </trkpt>
      <trkpt lat="45.31034" lon="4.29882">
        <ele>883</ele>
        <time>2021-04-26T13:06:40Z</time>
      </trkpt>
      <trkpt lat="45.31037" lon="4.29888">
        <ele>883</ele>
        <time>2021-04-26T13:06:41Z</time>
      </trkpt>
      <trkpt lat="45.3104" lon="4.29894">
        <ele>884</ele>
        <time>2021-04-26T13:06:42Z</time>
      </trkpt>
      <trkpt lat="45.31042" lon="4.299">
        <ele>884</ele>
        <time>2021-04-26T13:06:43Z</time>
      </trkpt>
      <trkpt lat="45.31045" lon="4.29906">
        <ele>884</ele>
        <time>2021-04-26T13:06:44Z</time>
      </trkpt>
      <trkpt lat="45.31047" lon="4.29913">
        <ele>885</ele>
        <time>2021-04-26T13:06:45Z</time>
      </trkpt>
      <trkpt lat="45.31049" lon="4.29919">
        <ele>885</ele>
        <time>2021-04-26T13:06:46Z</time>
      </trkpt>
      <trkpt lat="45.31051" lon="4.29926">
        <ele>885</ele>
        <time>2021-04-26T13:06:47Z</time>
      </trkpt>
      <trkpt lat="45.31053" lon="4.29932">
        <ele>885</ele>
        <time>2021-04-26T13:06:48Z</time>
      </trkpt>
      <trkpt lat="45.31054" lon="4.29937">
        <ele>885</ele>
        <time>2021-04-26T13:06:49Z</time>
      </trkpt>
      <trkpt lat="45.31055" lon="4.29943">
        <ele>886</ele>
        <time>2021-04-26T13:06:50Z</time>
      </trkpt>
      <trkpt lat="45.31056" lon="4.29948">
        <ele>886</ele>
        <time>2021-04-26T13:06:51Z</time>
      </trkpt>
      <trkpt lat="45.31057" lon="4.29955">
        <ele>886</ele>
        <time>2021-04-26T13:06:52Z</time>
      </trkpt>
      <trkpt lat="45.31059" lon="4.29961">
        <ele>886</ele>
        <time>2021-04-26T13:06:53Z</time>
      </trkpt>
      <trkpt lat="45.31061" lon="4.29968">
        <ele>886</ele>
        <time>2021-04-26T13:06:54Z</time>
      </trkpt>
      <trkpt lat="45.31062" lon="4.29974">
        <ele>887</ele>
        <time>2021-04-26T13:06:55Z</time>
      </trkpt>
      <trkpt lat="45.31063" lon="4.2998">
        <ele>887</ele>
        <time>2021-04-26T13:06:56Z</time>
      </trkpt>
      <trkpt lat="45.31065" lon="4.29987">
        <ele>887</ele>
        <time>2021-04-26T13:06:57Z</time>
      </trkpt>
      <trkpt lat="45.31066" lon="4.29993">
        <ele>887</ele>
        <time>2021-04-26T13:06:58Z</time>
      </trkpt>
      <trkpt lat="45.31069" lon="4.3">
        <ele>887</ele>
        <time>2021-04-26T13:06:59Z</time>
      </trkpt>
      <trkpt lat="45.31071" lon="4.30007">
        <ele>887</ele>
        <time>2021-04-26T13:07:00Z</time>
      </trkpt>
      <trkpt lat="45.31073" lon="4.30014">
        <ele>887</ele>
        <time>2021-04-26T13:07:01Z</time>
      </trkpt>
      <trkpt lat="45.31074" lon="4.3002">
        <ele>887</ele>
        <time>2021-04-26T13:07:02Z</time>
      </trkpt>
      <trkpt lat="45.31076" lon="4.30026">
        <ele>888</ele>
        <time>2021-04-26T13:07:03Z</time>
      </trkpt>
      <trkpt lat="45.31077" lon="4.30032">
        <ele>888</ele>
        <time>2021-04-26T13:07:04Z</time>
      </trkpt>
      <trkpt lat="45.31079" lon="4.30038">
        <ele>888</ele>
        <time>2021-04-26T13:07:05Z</time>
      </trkpt>
      <trkpt lat="45.3108" lon="4.30045">
        <ele>888</ele>
        <time>2021-04-26T13:07:06Z</time>
      </trkpt>
      <trkpt lat="45.31082" lon="4.30052">
        <ele>889</ele>
        <time>2021-04-26T13:07:07Z</time>
      </trkpt>
      <trkpt lat="45.31083" lon="4.30058">
        <ele>889</ele>
        <time>2021-04-26T13:07:08Z</time>
      </trkpt>
      <trkpt lat="45.31085" lon="4.30065">
        <ele>889</ele>
        <time>2021-04-26T13:07:09Z</time>
      </trkpt>
      <trkpt lat="45.31086" lon="4.30072">
        <ele>889</ele>
        <time>2021-04-26T13:07:10Z</time>
      </trkpt>
      <trkpt lat="45.31088" lon="4.30079">
        <ele>890</ele>
        <time>2021-04-26T13:07:11Z</time>
      </trkpt>
      <trkpt lat="45.3109" lon="4.30086">
        <ele>890</ele>
        <time>2021-04-26T13:07:12Z</time>
      </trkpt>
      <trkpt lat="45.31092" lon="4.30093">
        <ele>890</ele>
        <time>2021-04-26T13:07:13Z</time>
      </trkpt>
      <trkpt lat="45.31094" lon="4.30099">
        <ele>890</ele>
        <time>2021-04-26T13:07:14Z</time>
      </trkpt>
      <trkpt lat="45.31096" lon="4.30106">
        <ele>891</ele>
        <time>2021-04-26T13:07:15Z</time>
      </trkpt>
      <trkpt lat="45.31098" lon="4.30113">
        <ele>891</ele>
        <time>2021-04-26T13:07:16Z</time>
      </trkpt>
      <trkpt lat="45.311" lon="4.3012">
        <ele>891</ele>
        <time>2021-04-26T13:07:17Z</time>
      </trkpt>
      <trkpt lat="45.31102" lon="4.30127">
        <ele>892</ele>
        <time>2021-04-26T13:07:18Z</time>
      </trkpt>
      <trkpt lat="45.31104" lon="4.30134">
        <ele>892</ele>
        <time>2021-04-26T13:07:19Z</time>
      </trkpt>
      <trkpt lat="45.31106" lon="4.30141">
        <ele>892</ele>
        <time>2021-04-26T13:07:20Z</time>
      </trkpt>
      <trkpt lat="45.31108" lon="4.30148">
        <ele>893</ele>
        <time>2021-04-26T13:07:21Z</time>
      </trkpt>
      <trkpt lat="45.3111" lon="4.30155">
        <ele>893</ele>
        <time>2021-04-26T13:07:22Z</time>
      </trkpt>
      <trkpt lat="45.31112" lon="4.30162">
        <ele>893</ele>
        <time>2021-04-26T13:07:23Z</time>
      </trkpt>
      <trkpt lat="45.31114" lon="4.30168">
        <ele>894</ele>
        <time>2021-04-26T13:07:24Z</time>
      </trkpt>
      <trkpt lat="45.31116" lon="4.30175">
        <ele>894</ele>
        <time>2021-04-26T13:07:25Z</time>
      </trkpt>
      <trkpt lat="45.31118" lon="4.30181">
        <ele>894</ele>
        <time>2021-04-26T13:07:26Z</time>
      </trkpt>
      <trkpt lat="45.3112" lon="4.30188">
        <ele>895</ele>
        <time>2021-04-26T13:07:27Z</time>
      </trkpt>
      <trkpt lat="45.31122" lon="4.30194">
        <ele>895</ele>
        <time>2021-04-26T13:07:28Z</time>
      </trkpt>
      <trkpt lat="45.31124" lon="4.302">
        <ele>895</ele>
        <time>2021-04-26T13:07:29Z</time>
      </trkpt>
      <trkpt lat="45.31125" lon="4.30205">
        <ele>896</ele>
        <time>2021-04-26T13:07:30Z</time>
      </trkpt>
      <trkpt lat="45.31127" lon="4.30211">
        <ele>896</ele>
        <time>2021-04-26T13:07:31Z</time>
      </trkpt>
      <trkpt lat="45.31129" lon="4.30217">
        <ele>896</ele>
        <time>2021-04-26T13:07:32Z</time>
      </trkpt>
      <trkpt lat="45.3113" lon="4.30223">
        <ele>897</ele>
        <time>2021-04-26T13:07:33Z</time>
      </trkpt>
      <trkpt lat="45.31132" lon="4.30229">
        <ele>897</ele>
        <time>2021-04-26T13:07:34Z</time>
      </trkpt>
      <trkpt lat="45.31134" lon="4.30236">
        <ele>897</ele>
        <time>2021-04-26T13:07:35Z</time>
      </trkpt>
      <trkpt lat="45.31135" lon="4.30242">
        <ele>897</ele>
        <time>2021-04-26T13:07:36Z</time>
      </trkpt>
      <trkpt lat="45.31137" lon="4.30247">
        <ele>898</ele>
        <time>2021-04-26T13:07:37Z</time>
      </trkpt>
      <trkpt lat="45.31138" lon="4.30253">
        <ele>898</ele>
        <time>2021-04-26T13:07:38Z</time>
      </trkpt>
      <trkpt lat="45.31139" lon="4.30259">
        <ele>899</ele>
        <time>2021-04-26T13:07:39Z</time>
      </trkpt>
      <trkpt lat="45.31141" lon="4.30264">
        <ele>899</ele>
        <time>2021-04-26T13:07:40Z</time>
      </trkpt>
      <trkpt lat="45.31142" lon="4.3027">
        <ele>899</ele>
        <time>2021-04-26T13:07:41Z</time>
      </trkpt>
      <trkpt lat="45.31144" lon="4.30276">
        <ele>900</ele>
        <time>2021-04-26T13:07:42Z</time>
      </trkpt>
      <trkpt lat="45.31146" lon="4.30282">
        <ele>900</ele>
        <time>2021-04-26T13:07:43Z</time>
      </trkpt>
      <trkpt lat="45.31148" lon="4.30288">
        <ele>901</ele>
        <time>2021-04-26T13:07:44Z</time>
      </trkpt>
      <trkpt lat="45.3115" lon="4.30294">
        <ele>901</ele>
        <time>2021-04-26T13:07:45Z</time>
      </trkpt>
      <trkpt lat="45.31152" lon="4.303">
        <ele>901</ele>
        <time>2021-04-26T13:07:46Z</time>
      </trkpt>
      <trkpt lat="45.31154" lon="4.30306">
        <ele>902</ele>
        <time>2021-04-26T13:07:47Z</time>
      </trkpt>
      <trkpt lat="45.31156" lon="4.30312">
        <ele>902</ele>
        <time>2021-04-26T13:07:48Z</time>
      </trkpt>
      <trkpt lat="45.31158" lon="4.30318">
        <ele>902</ele>
        <time>2021-04-26T13:07:49Z</time>
      </trkpt>
      <trkpt lat="45.31159" lon="4.30324">
        <ele>902</ele>
        <time>2021-04-26T13:07:50Z</time>
      </trkpt>
      <trkpt lat="45.31161" lon="4.3033">
        <ele>903</ele>
        <time>2021-04-26T13:07:51Z</time>
      </trkpt>
      <trkpt lat="45.31163" lon="4.30336">
        <ele>903</ele>
        <time>2021-04-26T13:07:52Z</time>
      </trkpt>
      <trkpt lat="45.31164" lon="4.30341">
        <ele>903</ele>
        <time>2021-04-26T13:07:53Z</time>
      </trkpt>
      <trkpt lat="45.31166" lon="4.30347">
        <ele>903</ele>
        <time>2021-04-26T13:07:54Z</time>
      </trkpt>
      <trkpt lat="45.31168" lon="4.30352">
        <ele>904</ele>
        <time>2021-04-26T13:07:55Z</time>
      </trkpt>
      <trkpt lat="45.3117" lon="4.30358">
        <ele>904</ele>
        <time>2021-04-26T13:07:56Z</time>
      </trkpt>
      <trkpt lat="45.31172" lon="4.30364">
        <ele>904</ele>
        <time>2021-04-26T13:07:57Z</time>
      </trkpt>
      <trkpt lat="45.31174" lon="4.3037">
        <ele>904</ele>
        <time>2021-04-26T13:07:58Z</time>
      </trkpt>
      <trkpt lat="45.31176" lon="4.30375">
        <ele>904</ele>
        <time>2021-04-26T13:07:59Z</time>
      </trkpt>
      <trkpt lat="45.31178" lon="4.30381">
        <ele>905</ele>
        <time>2021-04-26T13:08:00Z</time>
      </trkpt>
      <trkpt lat="45.3118" lon="4.30386">
        <ele>905</ele>
        <time>2021-04-26T13:08:01Z</time>
      </trkpt>
      <trkpt lat="45.31181" lon="4.30392">
        <ele>905</ele>
        <time>2021-04-26T13:08:02Z</time>
      </trkpt>
      <trkpt lat="45.31183" lon="4.30397">
        <ele>905</ele>
        <time>2021-04-26T13:08:03Z</time>
      </trkpt>
      <trkpt lat="45.31185" lon="4.30403">
        <ele>905</ele>
        <time>2021-04-26T13:08:04Z</time>
      </trkpt>
      <trkpt lat="45.31188" lon="4.30409">
        <ele>905</ele>
        <time>2021-04-26T13:08:05Z</time>
      </trkpt>
      <trkpt lat="45.3119" lon="4.30415">
        <ele>906</ele>
        <time>2021-04-26T13:08:06Z</time>
      </trkpt>
      <trkpt lat="45.31191" lon="4.30421">
        <ele>906</ele>
        <time>2021-04-26T13:08:07Z</time>
      </trkpt>
      <trkpt lat="45.31191" lon="4.30427">
        <ele>906</ele>
        <time>2021-04-26T13:08:08Z</time>
      </trkpt>
      <trkpt lat="45.3119" lon="4.30433">
        <ele>906</ele>
        <time>2021-04-26T13:08:09Z</time>
      </trkpt>
      <trkpt lat="45.31189" lon="4.30438">
        <ele>907</ele>
        <time>2021-04-26T13:08:10Z</time>
      </trkpt>
      <trkpt lat="45.31187" lon="4.30443">
        <ele>907</ele>
        <time>2021-04-26T13:08:11Z</time>
      </trkpt>
      <trkpt lat="45.31188" lon="4.30447">
        <ele>907</ele>
        <time>2021-04-26T13:08:12Z</time>
      </trkpt>
      <trkpt lat="45.3119" lon="4.30452">
        <ele>907</ele>
        <time>2021-04-26T13:08:13Z</time>
      </trkpt>
      <trkpt lat="45.31191" lon="4.30457">
        <ele>907</ele>
        <time>2021-04-26T13:08:14Z</time>
      </trkpt>
      <trkpt lat="45.31195" lon="4.30465">
        <ele>907</ele>
        <time>2021-04-26T13:08:16Z</time>
      </trkpt>
      <trkpt lat="45.31197" lon="4.3047">
        <ele>908</ele>
        <time>2021-04-26T13:08:17Z</time>
      </trkpt>
      <trkpt lat="45.31199" lon="4.30474">
        <ele>908</ele>
        <time>2021-04-26T13:08:18Z</time>
      </trkpt>
      <trkpt lat="45.31202" lon="4.30479">
        <ele>908</ele>
        <time>2021-04-26T13:08:19Z</time>
      </trkpt>
      <trkpt lat="45.31205" lon="4.30485">
        <ele>909</ele>
        <time>2021-04-26T13:08:20Z</time>
      </trkpt>
      <trkpt lat="45.31208" lon="4.30491">
        <ele>909</ele>
        <time>2021-04-26T13:08:21Z</time>
      </trkpt>
      <trkpt lat="45.3121" lon="4.30496">
        <ele>909</ele>
        <time>2021-04-26T13:08:22Z</time>
      </trkpt>
      <trkpt lat="45.31211" lon="4.30501">
        <ele>909</ele>
        <time>2021-04-26T13:08:23Z</time>
      </trkpt>
      <trkpt lat="45.31213" lon="4.30506">
        <ele>909</ele>
        <time>2021-04-26T13:08:24Z</time>
      </trkpt>
      <trkpt lat="45.3122" lon="4.30507">
        <ele>910</ele>
        <time>2021-04-26T13:08:26Z</time>
      </trkpt>
      <trkpt lat="45.31229" lon="4.30508">
        <ele>910</ele>
        <time>2021-04-26T13:08:28Z</time>
      </trkpt>
      <trkpt lat="45.31236" lon="4.30516">
        <ele>910</ele>
        <time>2021-04-26T13:08:31Z</time>
      </trkpt>
      <trkpt lat="45.3124" lon="4.3053">
        <ele>912</ele>
        <time>2021-04-26T13:08:34Z</time>
      </trkpt>
      <trkpt lat="45.31242" lon="4.30545">
        <ele>912</ele>
        <time>2021-04-26T13:08:36Z</time>
      </trkpt>
      <trkpt lat="45.31241" lon="4.30563">
        <ele>912</ele>
        <time>2021-04-26T13:08:38Z</time>
      </trkpt>
      <trkpt lat="45.31238" lon="4.30583">
        <ele>912</ele>
        <time>2021-04-26T13:08:40Z</time>
      </trkpt>
      <trkpt lat="45.3124" lon="4.30605">
        <ele>912</ele>
        <time>2021-04-26T13:08:42Z</time>
      </trkpt>
      <trkpt lat="45.3124" lon="4.30629">
        <ele>912</ele>
        <time>2021-04-26T13:08:44Z</time>
      </trkpt>
      <trkpt lat="45.31238" lon="4.30654">
        <ele>912</ele>
        <time>2021-04-26T13:08:46Z</time>
      </trkpt>
      <trkpt lat="45.31237" lon="4.30664">
        <ele>912</ele>
        <time>2021-04-26T13:08:47Z</time>
      </trkpt>
      <trkpt lat="45.31236" lon="4.30672">
        <ele>912</ele>
        <time>2021-04-26T13:08:48Z</time>
      </trkpt>
      <trkpt lat="45.31235" lon="4.30678">
        <ele>912</ele>
        <time>2021-04-26T13:08:49Z</time>
      </trkpt>
      <trkpt lat="45.31233" lon="4.30684">
        <ele>912</ele>
        <time>2021-04-26T13:08:50Z</time>
      </trkpt>
      <trkpt lat="45.31234" lon="4.30691">
        <ele>912</ele>
        <time>2021-04-26T13:08:51Z</time>
      </trkpt>
      <trkpt lat="45.31236" lon="4.30697">
        <ele>912</ele>
        <time>2021-04-26T13:08:52Z</time>
      </trkpt>
      <trkpt lat="45.3124" lon="4.30699">
        <ele>912</ele>
        <time>2021-04-26T13:08:53Z</time>
      </trkpt>
      <trkpt lat="45.31244" lon="4.30698">
        <ele>912</ele>
        <time>2021-04-26T13:08:54Z</time>
      </trkpt>
      <trkpt lat="45.31248" lon="4.30699">
        <ele>912</ele>
        <time>2021-04-26T13:08:55Z</time>
      </trkpt>
      <trkpt lat="45.31251" lon="4.30701">
        <ele>912</ele>
        <time>2021-04-26T13:08:56Z</time>
      </trkpt>
      <trkpt lat="45.31254" lon="4.30705">
        <ele>912</ele>
        <time>2021-04-26T13:08:57Z</time>
      </trkpt>
      <trkpt lat="45.31258" lon="4.3071">
        <ele>912</ele>
        <time>2021-04-26T13:08:58Z</time>
      </trkpt>
      <trkpt lat="45.31263" lon="4.30714">
        <ele>912</ele>
        <time>2021-04-26T13:08:59Z</time>
      </trkpt>
      <trkpt lat="45.31267" lon="4.30718">
        <ele>912</ele>
        <time>2021-04-26T13:09:00Z</time>
      </trkpt>
      <trkpt lat="45.3127" lon="4.30723">
        <ele>912</ele>
        <time>2021-04-26T13:09:01Z</time>
      </trkpt>
      <trkpt lat="45.31271" lon="4.3073">
        <ele>912</ele>
        <time>2021-04-26T13:09:02Z</time>
      </trkpt>
      <trkpt lat="45.31272" lon="4.30744">
        <ele>912</ele>
        <time>2021-04-26T13:09:04Z</time>
      </trkpt>
      <trkpt lat="45.31271" lon="4.30759">
        <ele>912</ele>
        <time>2021-04-26T13:09:06Z</time>
      </trkpt>
      <trkpt lat="45.3127" lon="4.30772">
        <ele>912</ele>
        <time>2021-04-26T13:09:08Z</time>
      </trkpt>
      <trkpt lat="45.31267" lon="4.30778">
        <ele>913</ele>
        <time>2021-04-26T13:09:09Z</time>
      </trkpt>
      <trkpt lat="45.31266" lon="4.30783">
        <ele>912</ele>
        <time>2021-04-26T13:09:10Z</time>
      </trkpt>
      <trkpt lat="45.31263" lon="4.30788">
        <ele>913</ele>
        <time>2021-04-26T13:09:11Z</time>
      </trkpt>
      <trkpt lat="45.31259" lon="4.30798">
        <ele>913</ele>
        <time>2021-04-26T13:09:13Z</time>
      </trkpt>
      <trkpt lat="45.31254" lon="4.30802">
        <ele>913</ele>
        <time>2021-04-26T13:09:14Z</time>
      </trkpt>
      <trkpt lat="45.31249" lon="4.30807">
        <ele>913</ele>
        <time>2021-04-26T13:09:15Z</time>
      </trkpt>
      <trkpt lat="45.31239" lon="4.30819">
        <ele>913</ele>
        <time>2021-04-26T13:09:17Z</time>
      </trkpt>
      <trkpt lat="45.31236" lon="4.30826">
        <ele>912</ele>
        <time>2021-04-26T13:09:18Z</time>
      </trkpt>
      <trkpt lat="45.31233" lon="4.30834">
        <ele>912</ele>
        <time>2021-04-26T13:09:19Z</time>
      </trkpt>
      <trkpt lat="45.3123" lon="4.30841">
        <ele>912</ele>
        <time>2021-04-26T13:09:20Z</time>
      </trkpt>
      <trkpt lat="45.31227" lon="4.30848">
        <ele>912</ele>
        <time>2021-04-26T13:09:21Z</time>
      </trkpt>
      <trkpt lat="45.31223" lon="4.30855">
        <ele>912</ele>
        <time>2021-04-26T13:09:22Z</time>
      </trkpt>
      <trkpt lat="45.31221" lon="4.30861">
        <ele>912</ele>
        <time>2021-04-26T13:09:23Z</time>
      </trkpt>
      <trkpt lat="45.31219" lon="4.30866">
        <ele>912</ele>
        <time>2021-04-26T13:09:24Z</time>
      </trkpt>
      <trkpt lat="45.31217" lon="4.30871">
        <ele>912</ele>
        <time>2021-04-26T13:09:25Z</time>
      </trkpt>
      <trkpt lat="45.31215" lon="4.30889">
        <ele>912</ele>
        <time>2021-04-26T13:09:28Z</time>
      </trkpt>
      <trkpt lat="45.31213" lon="4.30896">
        <ele>913</ele>
        <time>2021-04-26T13:09:29Z</time>
      </trkpt>
      <trkpt lat="45.31212" lon="4.30903">
        <ele>913</ele>
        <time>2021-04-26T13:09:30Z</time>
      </trkpt>
      <trkpt lat="45.3121" lon="4.30918">
        <ele>914</ele>
        <time>2021-04-26T13:09:32Z</time>
      </trkpt>
      <trkpt lat="45.3121" lon="4.30928">
        <ele>914</ele>
        <time>2021-04-26T13:09:33Z</time>
      </trkpt>
      <trkpt lat="45.31209" lon="4.30938">
        <ele>914</ele>
        <time>2021-04-26T13:09:34Z</time>
      </trkpt>
      <trkpt lat="45.3121" lon="4.30948">
        <ele>914</ele>
        <time>2021-04-26T13:09:35Z</time>
      </trkpt>
      <trkpt lat="45.31212" lon="4.30957">
        <ele>914</ele>
        <time>2021-04-26T13:09:36Z</time>
      </trkpt>
      <trkpt lat="45.31213" lon="4.30966">
        <ele>914</ele>
        <time>2021-04-26T13:09:37Z</time>
      </trkpt>
      <trkpt lat="45.31215" lon="4.30973">
        <ele>914</ele>
        <time>2021-04-26T13:09:38Z</time>
      </trkpt>
      <trkpt lat="45.31217" lon="4.30978">
        <ele>914</ele>
        <time>2021-04-26T13:09:39Z</time>
      </trkpt>
      <trkpt lat="45.31219" lon="4.30982">
        <ele>914</ele>
        <time>2021-04-26T13:09:40Z</time>
      </trkpt>
      <trkpt lat="45.31221" lon="4.30984">
        <ele>914</ele>
        <time>2021-04-26T13:09:41Z</time>
      </trkpt>
      <trkpt lat="45.31223" lon="4.30986">
        <ele>914</ele>
        <time>2021-04-26T13:09:42Z</time>
      </trkpt>
      <trkpt lat="45.31226" lon="4.3099">
        <ele>914</ele>
        <time>2021-04-26T13:09:43Z</time>
      </trkpt>
      <trkpt lat="45.31229" lon="4.30994">
        <ele>914</ele>
        <time>2021-04-26T13:09:44Z</time>
      </trkpt>
      <trkpt lat="45.31233" lon="4.30999">
        <ele>915</ele>
        <time>2021-04-26T13:09:45Z</time>
      </trkpt>
      <trkpt lat="45.31235" lon="4.31004">
        <ele>915</ele>
        <time>2021-04-26T13:09:46Z</time>
      </trkpt>
      <trkpt lat="45.3124" lon="4.31018">
        <ele>915</ele>
        <time>2021-04-26T13:09:48Z</time>
      </trkpt>
      <trkpt lat="45.31245" lon="4.31033">
        <ele>915</ele>
        <time>2021-04-26T13:09:50Z</time>
      </trkpt>
      <trkpt lat="45.31249" lon="4.31046">
        <ele>915</ele>
        <time>2021-04-26T13:09:52Z</time>
      </trkpt>
      <trkpt lat="45.31253" lon="4.3106">
        <ele>915</ele>
        <time>2021-04-26T13:09:54Z</time>
      </trkpt>
      <trkpt lat="45.31258" lon="4.31077">
        <ele>915</ele>
        <time>2021-04-26T13:09:56Z</time>
      </trkpt>
      <trkpt lat="45.31262" lon="4.31094">
        <ele>915</ele>
        <time>2021-04-26T13:09:58Z</time>
      </trkpt>
      <trkpt lat="45.31264" lon="4.31102">
        <ele>915</ele>
        <time>2021-04-26T13:09:59Z</time>
      </trkpt>
      <trkpt lat="45.31266" lon="4.3111">
        <ele>915</ele>
        <time>2021-04-26T13:10:00Z</time>
      </trkpt>
      <trkpt lat="45.31269" lon="4.31118">
        <ele>915</ele>
        <time>2021-04-26T13:10:01Z</time>
      </trkpt>
      <trkpt lat="45.31271" lon="4.31125">
        <ele>916</ele>
        <time>2021-04-26T13:10:02Z</time>
      </trkpt>
      <trkpt lat="45.31274" lon="4.31132">
        <ele>916</ele>
        <time>2021-04-26T13:10:03Z</time>
      </trkpt>
      <trkpt lat="45.31277" lon="4.31141">
        <ele>916</ele>
        <time>2021-04-26T13:10:04Z</time>
      </trkpt>
      <trkpt lat="45.31279" lon="4.31151">
        <ele>916</ele>
        <time>2021-04-26T13:10:05Z</time>
      </trkpt>
      <trkpt lat="45.31281" lon="4.31159">
        <ele>916</ele>
        <time>2021-04-26T13:10:06Z</time>
      </trkpt>
      <trkpt lat="45.31284" lon="4.31166">
        <ele>916</ele>
        <time>2021-04-26T13:10:07Z</time>
      </trkpt>
      <trkpt lat="45.31287" lon="4.31175">
        <ele>916</ele>
        <time>2021-04-26T13:10:08Z</time>
      </trkpt>
      <trkpt lat="45.3129" lon="4.31193">
        <ele>915</ele>
        <time>2021-04-26T13:10:10Z</time>
      </trkpt>
      <trkpt lat="45.31291" lon="4.3121">
        <ele>915</ele>
        <time>2021-04-26T13:10:12Z</time>
      </trkpt>
      <trkpt lat="45.31291" lon="4.31219">
        <ele>915</ele>
        <time>2021-04-26T13:10:13Z</time>
      </trkpt>
      <trkpt lat="45.31291" lon="4.3124">
        <ele>914</ele>
        <time>2021-04-26T13:10:15Z</time>
      </trkpt>
      <trkpt lat="45.31289" lon="4.3125">
        <ele>914</ele>
        <time>2021-04-26T13:10:16Z</time>
      </trkpt>
      <trkpt lat="45.31286" lon="4.31259">
        <ele>913</ele>
        <time>2021-04-26T13:10:17Z</time>
      </trkpt>
      <trkpt lat="45.31283" lon="4.31266">
        <ele>913</ele>
        <time>2021-04-26T13:10:18Z</time>
      </trkpt>
      <trkpt lat="45.31282" lon="4.31273">
        <ele>913</ele>
        <time>2021-04-26T13:10:19Z</time>
      </trkpt>
      <trkpt lat="45.31281" lon="4.31281">
        <ele>913</ele>
        <time>2021-04-26T13:10:20Z</time>
      </trkpt>
      <trkpt lat="45.31282" lon="4.31288">
        <ele>913</ele>
        <time>2021-04-26T13:10:21Z</time>
      </trkpt>
      <trkpt lat="45.31282" lon="4.31293">
        <ele>913</ele>
        <time>2021-04-26T13:10:22Z</time>
      </trkpt>
      <trkpt lat="45.31282" lon="4.31299">
        <ele>913</ele>
        <time>2021-04-26T13:10:23Z</time>
      </trkpt>
      <trkpt lat="45.31281" lon="4.31303">
        <ele>913</ele>
        <time>2021-04-26T13:10:24Z</time>
      </trkpt>
      <trkpt lat="45.31281" lon="4.31307">
        <ele>912</ele>
        <time>2021-04-26T13:10:25Z</time>
      </trkpt>
      <trkpt lat="45.31281" lon="4.31311">
        <ele>912</ele>
        <time>2021-04-26T13:10:26Z</time>
      </trkpt>
      <trkpt lat="45.31281" lon="4.31316">
        <ele>912</ele>
        <time>2021-04-26T13:10:27Z</time>
      </trkpt>
      <trkpt lat="45.31282" lon="4.3132">
        <ele>912</ele>
        <time>2021-04-26T13:10:28Z</time>
      </trkpt>
      <trkpt lat="45.31284" lon="4.31324">
        <ele>913</ele>
        <time>2021-04-26T13:10:29Z</time>
      </trkpt>
      <trkpt lat="45.31285" lon="4.31327">
        <ele>913</ele>
        <time>2021-04-26T13:10:30Z</time>
      </trkpt>
      <trkpt lat="45.31286" lon="4.3133">
        <ele>913</ele>
        <time>2021-04-26T13:10:31Z</time>
      </trkpt>
      <trkpt lat="45.31288" lon="4.31334">
        <ele>913</ele>
        <time>2021-04-26T13:10:32Z</time>
      </trkpt>
      <trkpt lat="45.3129" lon="4.31338">
        <ele>913</ele>
        <time>2021-04-26T13:10:33Z</time>
      </trkpt>
      <trkpt lat="45.31292" lon="4.31342">
        <ele>913</ele>
        <time>2021-04-26T13:10:34Z</time>
      </trkpt>
      <trkpt lat="45.31294" lon="4.31346">
        <ele>913</ele>
        <time>2021-04-26T13:10:35Z</time>
      </trkpt>
      <trkpt lat="45.31296" lon="4.3135">
        <ele>913</ele>
        <time>2021-04-26T13:10:36Z</time>
      </trkpt>
      <trkpt lat="45.31299" lon="4.31354">
        <ele>913</ele>
        <time>2021-04-26T13:10:37Z</time>
      </trkpt>
      <trkpt lat="45.31302" lon="4.31357">
        <ele>913</ele>
        <time>2021-04-26T13:10:38Z</time>
      </trkpt>
      <trkpt lat="45.31305" lon="4.31361">
        <ele>913</ele>
        <time>2021-04-26T13:10:39Z</time>
      </trkpt>
      <trkpt lat="45.31308" lon="4.31365">
        <ele>913</ele>
        <time>2021-04-26T13:10:40Z</time>
      </trkpt>
      <trkpt lat="45.31309" lon="4.3137">
        <ele>913</ele>
        <time>2021-04-26T13:10:41Z</time>
      </trkpt>
      <trkpt lat="45.31311" lon="4.31377">
        <ele>913</ele>
        <time>2021-04-26T13:10:42Z</time>
      </trkpt>
      <trkpt lat="45.31313" lon="4.31383">
        <ele>913</ele>
        <time>2021-04-26T13:10:43Z</time>
      </trkpt>
      <trkpt lat="45.31314" lon="4.3139">
        <ele>913</ele>
        <time>2021-04-26T13:10:44Z</time>
      </trkpt>
      <trkpt lat="45.31321" lon="4.31404">
        <ele>913</ele>
        <time>2021-04-26T13:10:47Z</time>
      </trkpt>
      <trkpt lat="45.31327" lon="4.31416">
        <ele>914</ele>
        <time>2021-04-26T13:10:51Z</time>
      </trkpt>
      <trkpt lat="45.31329" lon="4.31423">
        <ele>914</ele>
        <time>2021-04-26T13:10:53Z</time>
      </trkpt>
      <trkpt lat="45.31332" lon="4.31427">
        <ele>914</ele>
        <time>2021-04-26T13:10:54Z</time>
      </trkpt>
      <trkpt lat="45.31334" lon="4.3143">
        <ele>914</ele>
        <time>2021-04-26T13:10:55Z</time>
      </trkpt>
      <trkpt lat="45.31337" lon="4.31434">
        <ele>914</ele>
        <time>2021-04-26T13:10:56Z</time>
      </trkpt>
      <trkpt lat="45.31339" lon="4.31438">
        <ele>914</ele>
        <time>2021-04-26T13:10:57Z</time>
      </trkpt>
      <trkpt lat="45.31341" lon="4.31444">
        <ele>914</ele>
        <time>2021-04-26T13:10:58Z</time>
      </trkpt>
      <trkpt lat="45.31342" lon="4.31449">
        <ele>914</ele>
        <time>2021-04-26T13:10:59Z</time>
      </trkpt>
      <trkpt lat="45.31343" lon="4.31454">
        <ele>914</ele>
        <time>2021-04-26T13:11:00Z</time>
      </trkpt>
      <trkpt lat="45.31344" lon="4.31459">
        <ele>914</ele>
        <time>2021-04-26T13:11:01Z</time>
      </trkpt>
      <trkpt lat="45.31344" lon="4.31465">
        <ele>914</ele>
        <time>2021-04-26T13:11:02Z</time>
      </trkpt>
      <trkpt lat="45.31348" lon="4.31481">
        <ele>915</ele>
        <time>2021-04-26T13:11:04Z</time>
      </trkpt>
      <trkpt lat="45.31351" lon="4.3149">
        <ele>915</ele>
        <time>2021-04-26T13:11:05Z</time>
      </trkpt>
      <trkpt lat="45.31356" lon="4.31506">
        <ele>915</ele>
        <time>2021-04-26T13:11:07Z</time>
      </trkpt>
      <trkpt lat="45.31356" lon="4.3152">
        <ele>916</ele>
        <time>2021-04-26T13:11:09Z</time>
      </trkpt>
      <trkpt lat="45.31358" lon="4.31534">
        <ele>916</ele>
        <time>2021-04-26T13:11:11Z</time>
      </trkpt>
      <trkpt lat="45.31357" lon="4.31546">
        <ele>916</ele>
        <time>2021-04-26T13:11:14Z</time>
      </trkpt>
      <trkpt lat="45.31355" lon="4.31547">
        <ele>915</ele>
        <time>2021-04-26T13:11:16Z</time>
      </trkpt>
      <trkpt lat="45.31353" lon="4.31546">
        <ele>915</ele>
        <time>2021-04-26T13:11:17Z</time>
      </trkpt>
      <trkpt lat="45.31351" lon="4.31545">
        <ele>914</ele>
        <time>2021-04-26T13:11:18Z</time>
      </trkpt>
      <trkpt lat="45.31348" lon="4.31545">
        <ele>913</ele>
        <time>2021-04-26T13:11:20Z</time>
      </trkpt>
      <trkpt lat="45.31351" lon="4.31545">
        <ele>914</ele>
        <time>2021-04-26T13:11:23Z</time>
      </trkpt>
      <trkpt lat="45.31353" lon="4.31545">
        <ele>914</ele>
        <time>2021-04-26T13:11:25Z</time>
      </trkpt>
      <trkpt lat="45.31354" lon="4.31547">
        <ele>914</ele>
        <time>2021-04-26T13:11:27Z</time>
      </trkpt>
      <trkpt lat="45.31355" lon="4.31552">
        <ele>914</ele>
        <time>2021-04-26T13:11:29Z</time>
      </trkpt>
      <trkpt lat="45.31355" lon="4.31555">
        <ele>914</ele>
        <time>2021-04-26T13:11:30Z</time>
      </trkpt>
      <trkpt lat="45.31355" lon="4.31559">
        <ele>914</ele>
        <time>2021-04-26T13:11:31Z</time>
      </trkpt>
      <trkpt lat="45.31355" lon="4.31563">
        <ele>914</ele>
        <time>2021-04-26T13:11:32Z</time>
      </trkpt>
      <trkpt lat="45.31355" lon="4.3158">
        <ele>914</ele>
        <time>2021-04-26T13:11:35Z</time>
      </trkpt>
      <trkpt lat="45.31356" lon="4.31587">
        <ele>914</ele>
        <time>2021-04-26T13:11:36Z</time>
      </trkpt>
      <trkpt lat="45.31357" lon="4.31594">
        <ele>914</ele>
        <time>2021-04-26T13:11:37Z</time>
      </trkpt>
      <trkpt lat="45.31357" lon="4.31601">
        <ele>914</ele>
        <time>2021-04-26T13:11:38Z</time>
      </trkpt>
      <trkpt lat="45.31358" lon="4.31608">
        <ele>914</ele>
        <time>2021-04-26T13:11:39Z</time>
      </trkpt>
      <trkpt lat="45.31358" lon="4.31614">
        <ele>914</ele>
        <time>2021-04-26T13:11:40Z</time>
      </trkpt>
      <trkpt lat="45.31357" lon="4.31619">
        <ele>914</ele>
        <time>2021-04-26T13:11:41Z</time>
      </trkpt>
      <trkpt lat="45.31357" lon="4.31624">
        <ele>914</ele>
        <time>2021-04-26T13:11:42Z</time>
      </trkpt>
      <trkpt lat="45.31357" lon="4.3163">
        <ele>914</ele>
        <time>2021-04-26T13:11:43Z</time>
      </trkpt>
      <trkpt lat="45.31357" lon="4.31636">
        <ele>914</ele>
        <time>2021-04-26T13:11:44Z</time>
      </trkpt>
      <trkpt lat="45.31358" lon="4.31641">
        <ele>914</ele>
        <time>2021-04-26T13:11:45Z</time>
      </trkpt>
      <trkpt lat="45.31357" lon="4.31646">
        <ele>915</ele>
        <time>2021-04-26T13:11:46Z</time>
      </trkpt>
      <trkpt lat="45.31357" lon="4.31651">
        <ele>915</ele>
        <time>2021-04-26T13:11:47Z</time>
      </trkpt>
      <trkpt lat="45.31356" lon="4.31656">
        <ele>915</ele>
        <time>2021-04-26T13:11:48Z</time>
      </trkpt>
      <trkpt lat="45.31355" lon="4.31664">
        <ele>915</ele>
        <time>2021-04-26T13:11:49Z</time>
      </trkpt>
      <trkpt lat="45.31354" lon="4.31671">
        <ele>914</ele>
        <time>2021-04-26T13:11:50Z</time>
      </trkpt>
      <trkpt lat="45.31352" lon="4.31679">
        <ele>914</ele>
        <time>2021-04-26T13:11:51Z</time>
      </trkpt>
      <trkpt lat="45.31351" lon="4.31687">
        <ele>915</ele>
        <time>2021-04-26T13:11:52Z</time>
      </trkpt>
      <trkpt lat="45.31351" lon="4.31695">
        <ele>915</ele>
        <time>2021-04-26T13:11:53Z</time>
      </trkpt>
      <trkpt lat="45.31349" lon="4.31702">
        <ele>915</ele>
        <time>2021-04-26T13:11:54Z</time>
      </trkpt>
      <trkpt lat="45.31348" lon="4.31709">
        <ele>915</ele>
        <time>2021-04-26T13:11:55Z</time>
      </trkpt>
      <trkpt lat="45.31346" lon="4.31715">
        <ele>915</ele>
        <time>2021-04-26T13:11:56Z</time>
      </trkpt>
      <trkpt lat="45.31343" lon="4.3172">
        <ele>915</ele>
        <time>2021-04-26T13:11:57Z</time>
      </trkpt>
      <trkpt lat="45.31339" lon="4.31723">
        <ele>915</ele>
        <time>2021-04-26T13:11:58Z</time>
      </trkpt>
      <trkpt lat="45.31334" lon="4.31725">
        <ele>915</ele>
        <time>2021-04-26T13:11:59Z</time>
      </trkpt>
      <trkpt lat="45.31328" lon="4.31728">
        <ele>914</ele>
        <time>2021-04-26T13:12:00Z</time>
      </trkpt>
      <trkpt lat="45.31323" lon="4.3173">
        <ele>914</ele>
        <time>2021-04-26T13:12:01Z</time>
      </trkpt>
      <trkpt lat="45.31319" lon="4.31732">
        <ele>914</ele>
        <time>2021-04-26T13:12:02Z</time>
      </trkpt>
      <trkpt lat="45.31316" lon="4.31735">
        <ele>913</ele>
        <time>2021-04-26T13:12:03Z</time>
      </trkpt>
      <trkpt lat="45.31315" lon="4.3174">
        <ele>913</ele>
        <time>2021-04-26T13:12:04Z</time>
      </trkpt>
      <trkpt lat="45.31315" lon="4.31745">
        <ele>913</ele>
        <time>2021-04-26T13:12:05Z</time>
      </trkpt>
      <trkpt lat="45.31315" lon="4.3175">
        <ele>912</ele>
        <time>2021-04-26T13:12:06Z</time>
      </trkpt>
      <trkpt lat="45.31315" lon="4.31755">
        <ele>912</ele>
        <time>2021-04-26T13:12:07Z</time>
      </trkpt>
      <trkpt lat="45.31315" lon="4.3176">
        <ele>912</ele>
        <time>2021-04-26T13:12:08Z</time>
      </trkpt>
      <trkpt lat="45.31315" lon="4.31764">
        <ele>912</ele>
        <time>2021-04-26T13:12:09Z</time>
      </trkpt>
      <trkpt lat="45.31314" lon="4.31768">
        <ele>911</ele>
        <time>2021-04-26T13:12:10Z</time>
      </trkpt>
      <trkpt lat="45.31313" lon="4.31771">
        <ele>911</ele>
        <time>2021-04-26T13:12:11Z</time>
      </trkpt>
      <trkpt lat="45.31312" lon="4.31774">
        <ele>911</ele>
        <time>2021-04-26T13:12:12Z</time>
      </trkpt>
      <trkpt lat="45.31313" lon="4.31777">
        <ele>911</ele>
        <time>2021-04-26T13:12:14Z</time>
      </trkpt>
      <trkpt lat="45.31313" lon="4.3178">
        <ele>911</ele>
        <time>2021-04-26T13:12:16Z</time>
      </trkpt>
      <trkpt lat="45.31313" lon="4.31783">
        <ele>910</ele>
        <time>2021-04-26T13:12:17Z</time>
      </trkpt>
      <trkpt lat="45.31314" lon="4.31786">
        <ele>910</ele>
        <time>2021-04-26T13:12:18Z</time>
      </trkpt>
      <trkpt lat="45.31315" lon="4.3179">
        <ele>910</ele>
        <time>2021-04-26T13:12:19Z</time>
      </trkpt>
      <trkpt lat="45.31315" lon="4.31793">
        <ele>910</ele>
        <time>2021-04-26T13:12:20Z</time>
      </trkpt>
      <trkpt lat="45.31316" lon="4.31798">
        <ele>910</ele>
        <time>2021-04-26T13:12:21Z</time>
      </trkpt>
      <trkpt lat="45.31317" lon="4.31802">
        <ele>909</ele>
        <time>2021-04-26T13:12:22Z</time>
      </trkpt>
      <trkpt lat="45.31318" lon="4.31807">
        <ele>909</ele>
        <time>2021-04-26T13:12:23Z</time>
      </trkpt>
      <trkpt lat="45.31318" lon="4.31812">
        <ele>910</ele>
        <time>2021-04-26T13:12:24Z</time>
      </trkpt>
      <trkpt lat="45.31315" lon="4.31816">
        <ele>910</ele>
        <time>2021-04-26T13:12:25Z</time>
      </trkpt>
      <trkpt lat="45.31312" lon="4.31819">
        <ele>910</ele>
        <time>2021-04-26T13:12:26Z</time>
      </trkpt>
      <trkpt lat="45.31308" lon="4.31822">
        <ele>910</ele>
        <time>2021-04-26T13:12:27Z</time>
      </trkpt>
      <trkpt lat="45.31304" lon="4.31825">
        <ele>910</ele>
        <time>2021-04-26T13:12:28Z</time>
      </trkpt>
      <trkpt lat="45.31301" lon="4.31828">
        <ele>910</ele>
        <time>2021-04-26T13:12:29Z</time>
      </trkpt>
      <trkpt lat="45.31297" lon="4.3183">
        <ele>910</ele>
        <time>2021-04-26T13:12:30Z</time>
      </trkpt>
      <trkpt lat="45.31294" lon="4.31831">
        <ele>910</ele>
        <time>2021-04-26T13:12:31Z</time>
      </trkpt>
      <trkpt lat="45.3129" lon="4.31833">
        <ele>910</ele>
        <time>2021-04-26T13:12:32Z</time>
      </trkpt>
      <trkpt lat="45.31286" lon="4.31834">
        <ele>910</ele>
        <time>2021-04-26T13:12:33Z</time>
      </trkpt>
      <trkpt lat="45.31282" lon="4.31836">
        <ele>911</ele>
        <time>2021-04-26T13:12:34Z</time>
      </trkpt>
      <trkpt lat="45.31278" lon="4.31837">
        <ele>911</ele>
        <time>2021-04-26T13:12:35Z</time>
      </trkpt>
      <trkpt lat="45.31273" lon="4.31838">
        <ele>911</ele>
        <time>2021-04-26T13:12:36Z</time>
      </trkpt>
      <trkpt lat="45.31269" lon="4.3184">
        <ele>911</ele>
        <time>2021-04-26T13:12:37Z</time>
      </trkpt>
      <trkpt lat="45.31265" lon="4.31841">
        <ele>911</ele>
        <time>2021-04-26T13:12:38Z</time>
      </trkpt>
      <trkpt lat="45.31262" lon="4.31843">
        <ele>911</ele>
        <time>2021-04-26T13:12:39Z</time>
      </trkpt>
      <trkpt lat="45.31258" lon="4.31845">
        <ele>911</ele>
        <time>2021-04-26T13:12:40Z</time>
      </trkpt>
      <trkpt lat="45.31254" lon="4.31847">
        <ele>911</ele>
        <time>2021-04-26T13:12:41Z</time>
      </trkpt>
      <trkpt lat="45.3125" lon="4.3185">
        <ele>911</ele>
        <time>2021-04-26T13:12:42Z</time>
      </trkpt>
      <trkpt lat="45.31246" lon="4.31852">
        <ele>911</ele>
        <time>2021-04-26T13:12:43Z</time>
      </trkpt>
      <trkpt lat="45.31242" lon="4.31855">
        <ele>911</ele>
        <time>2021-04-26T13:12:44Z</time>
      </trkpt>
      <trkpt lat="45.31238" lon="4.31858">
        <ele>912</ele>
        <time>2021-04-26T13:12:45Z</time>
      </trkpt>
      <trkpt lat="45.31235" lon="4.31861">
        <ele>912</ele>
        <time>2021-04-26T13:12:46Z</time>
      </trkpt>
      <trkpt lat="45.31231" lon="4.31864">
        <ele>912</ele>
        <time>2021-04-26T13:12:47Z</time>
      </trkpt>
      <trkpt lat="45.31228" lon="4.31866">
        <ele>912</ele>
        <time>2021-04-26T13:12:48Z</time>
      </trkpt>
      <trkpt lat="45.31225" lon="4.31869">
        <ele>912</ele>
        <time>2021-04-26T13:12:49Z</time>
      </trkpt>
      <trkpt lat="45.31222" lon="4.31872">
        <ele>913</ele>
        <time>2021-04-26T13:12:50Z</time>
      </trkpt>
      <trkpt lat="45.31219" lon="4.31875">
        <ele>913</ele>
        <time>2021-04-26T13:12:51Z</time>
      </trkpt>
      <trkpt lat="45.31216" lon="4.31879">
        <ele>913</ele>
        <time>2021-04-26T13:12:52Z</time>
      </trkpt>
      <trkpt lat="45.31213" lon="4.31881">
        <ele>914</ele>
        <time>2021-04-26T13:12:53Z</time>
      </trkpt>
      <trkpt lat="45.3121" lon="4.31884">
        <ele>914</ele>
        <time>2021-04-26T13:12:54Z</time>
      </trkpt>
      <trkpt lat="45.31207" lon="4.31887">
        <ele>914</ele>
        <time>2021-04-26T13:12:55Z</time>
      </trkpt>
      <trkpt lat="45.31204" lon="4.31889">
        <ele>915</ele>
        <time>2021-04-26T13:12:56Z</time>
      </trkpt>
      <trkpt lat="45.31202" lon="4.31891">
        <ele>915</ele>
        <time>2021-04-26T13:12:57Z</time>
      </trkpt>
      <trkpt lat="45.312" lon="4.31893">
        <ele>915</ele>
        <time>2021-04-26T13:12:58Z</time>
      </trkpt>
      <trkpt lat="45.31199" lon="4.31894">
        <ele>915</ele>
        <time>2021-04-26T13:12:59Z</time>
      </trkpt>
      <trkpt lat="45.31197" lon="4.31896">
        <ele>915</ele>
        <time>2021-04-26T13:13:00Z</time>
      </trkpt>
      <trkpt lat="45.31195" lon="4.31897">
        <ele>915</ele>
        <time>2021-04-26T13:13:01Z</time>
      </trkpt>
      <trkpt lat="45.31194" lon="4.319">
        <ele>915</ele>
        <time>2021-04-26T13:13:02Z</time>
      </trkpt>
      <trkpt lat="45.31191" lon="4.31901">
        <ele>915</ele>
        <time>2021-04-26T13:13:03Z</time>
      </trkpt>
      <trkpt lat="45.31189" lon="4.31903">
        <ele>915</ele>
        <time>2021-04-26T13:13:04Z</time>
      </trkpt>
      <trkpt lat="45.31186" lon="4.31906">
        <ele>915</ele>
        <time>2021-04-26T13:13:05Z</time>
      </trkpt>
      <trkpt lat="45.31183" lon="4.31908">
        <ele>915</ele>
        <time>2021-04-26T13:13:06Z</time>
      </trkpt>
      <trkpt lat="45.31179" lon="4.3191">
        <ele>915</ele>
        <time>2021-04-26T13:13:07Z</time>
      </trkpt>
      <trkpt lat="45.31176" lon="4.31912">
        <ele>915</ele>
        <time>2021-04-26T13:13:08Z</time>
      </trkpt>
      <trkpt lat="45.31173" lon="4.31915">
        <ele>915</ele>
        <time>2021-04-26T13:13:09Z</time>
      </trkpt>
      <trkpt lat="45.31169" lon="4.31917">
        <ele>915</ele>
        <time>2021-04-26T13:13:10Z</time>
      </trkpt>
      <trkpt lat="45.31166" lon="4.31919">
        <ele>915</ele>
        <time>2021-04-26T13:13:11Z</time>
      </trkpt>
      <trkpt lat="45.31163" lon="4.31921">
        <ele>916</ele>
        <time>2021-04-26T13:13:12Z</time>
      </trkpt>
      <trkpt lat="45.3116" lon="4.31923">
        <ele>916</ele>
        <time>2021-04-26T13:13:13Z</time>
      </trkpt>
      <trkpt lat="45.31158" lon="4.31925">
        <ele>916</ele>
        <time>2021-04-26T13:13:14Z</time>
      </trkpt>
      <trkpt lat="45.31154" lon="4.31927">
        <ele>916</ele>
        <time>2021-04-26T13:13:15Z</time>
      </trkpt>
      <trkpt lat="45.31151" lon="4.31929">
        <ele>916</ele>
        <time>2021-04-26T13:13:16Z</time>
      </trkpt>
      <trkpt lat="45.31147" lon="4.31931">
        <ele>916</ele>
        <time>2021-04-26T13:13:17Z</time>
      </trkpt>
      <trkpt lat="45.31143" lon="4.31934">
        <ele>916</ele>
        <time>2021-04-26T13:13:18Z</time>
      </trkpt>
      <trkpt lat="45.31139" lon="4.31937">
        <ele>916</ele>
        <time>2021-04-26T13:13:19Z</time>
      </trkpt>
      <trkpt lat="45.31135" lon="4.31939">
        <ele>916</ele>
        <time>2021-04-26T13:13:20Z</time>
      </trkpt>
      <trkpt lat="45.31131" lon="4.31942">
        <ele>916</ele>
        <time>2021-04-26T13:13:21Z</time>
      </trkpt>
      <trkpt lat="45.31127" lon="4.31945">
        <ele>916</ele>
        <time>2021-04-26T13:13:22Z</time>
      </trkpt>
      <trkpt lat="45.31123" lon="4.31947">
        <ele>916</ele>
        <time>2021-04-26T13:13:23Z</time>
      </trkpt>
      <trkpt lat="45.31119" lon="4.3195">
        <ele>916</ele>
        <time>2021-04-26T13:13:24Z</time>
      </trkpt>
      <trkpt lat="45.31114" lon="4.31953">
        <ele>916</ele>
        <time>2021-04-26T13:13:25Z</time>
      </trkpt>
      <trkpt lat="45.3111" lon="4.31956">
        <ele>916</ele>
        <time>2021-04-26T13:13:26Z</time>
      </trkpt>
      <trkpt lat="45.31105" lon="4.31959">
        <ele>916</ele>
        <time>2021-04-26T13:13:27Z</time>
      </trkpt>
      <trkpt lat="45.31101" lon="4.31962">
        <ele>916</ele>
        <time>2021-04-26T13:13:28Z</time>
      </trkpt>
      <trkpt lat="45.31096" lon="4.31965">
        <ele>916</ele>
        <time>2021-04-26T13:13:29Z</time>
      </trkpt>
      <trkpt lat="45.31091" lon="4.31968">
        <ele>916</ele>
        <time>2021-04-26T13:13:30Z</time>
      </trkpt>
      <trkpt lat="45.31086" lon="4.3197">
        <ele>916</ele>
        <time>2021-04-26T13:13:31Z</time>
      </trkpt>
      <trkpt lat="45.31082" lon="4.31972">
        <ele>916</ele>
        <time>2021-04-26T13:13:32Z</time>
      </trkpt>
      <trkpt lat="45.31077" lon="4.31974">
        <ele>916</ele>
        <time>2021-04-26T13:13:33Z</time>
      </trkpt>
      <trkpt lat="45.31072" lon="4.31976">
        <ele>916</ele>
        <time>2021-04-26T13:13:34Z</time>
      </trkpt>
      <trkpt lat="45.31067" lon="4.31978">
        <ele>917</ele>
        <time>2021-04-26T13:13:35Z</time>
      </trkpt>
      <trkpt lat="45.31062" lon="4.3198">
        <ele>917</ele>
        <time>2021-04-26T13:13:36Z</time>
      </trkpt>
      <trkpt lat="45.31056" lon="4.31981">
        <ele>917</ele>
        <time>2021-04-26T13:13:37Z</time>
      </trkpt>
      <trkpt lat="45.31051" lon="4.31983">
        <ele>917</ele>
        <time>2021-04-26T13:13:38Z</time>
      </trkpt>
      <trkpt lat="45.31046" lon="4.31984">
        <ele>917</ele>
        <time>2021-04-26T13:13:39Z</time>
      </trkpt>
      <trkpt lat="45.31041" lon="4.31986">
        <ele>917</ele>
        <time>2021-04-26T13:13:40Z</time>
      </trkpt>
      <trkpt lat="45.31036" lon="4.31988">
        <ele>917</ele>
        <time>2021-04-26T13:13:41Z</time>
      </trkpt>
      <trkpt lat="45.31031" lon="4.31989">
        <ele>917</ele>
        <time>2021-04-26T13:13:42Z</time>
      </trkpt>
      <trkpt lat="45.31026" lon="4.31991">
        <ele>917</ele>
        <time>2021-04-26T13:13:43Z</time>
      </trkpt>
      <trkpt lat="45.31021" lon="4.31993">
        <ele>917</ele>
        <time>2021-04-26T13:13:44Z</time>
      </trkpt>
      <trkpt lat="45.31017" lon="4.31994">
        <ele>918</ele>
        <time>2021-04-26T13:13:45Z</time>
      </trkpt>
      <trkpt lat="45.31012" lon="4.31995">
        <ele>918</ele>
        <time>2021-04-26T13:13:46Z</time>
      </trkpt>
      <trkpt lat="45.31007" lon="4.31997">
        <ele>918</ele>
        <time>2021-04-26T13:13:47Z</time>
      </trkpt>
      <trkpt lat="45.31003" lon="4.31999">
        <ele>918</ele>
        <time>2021-04-26T13:13:48Z</time>
      </trkpt>
      <trkpt lat="45.30998" lon="4.32">
        <ele>918</ele>
        <time>2021-04-26T13:13:49Z</time>
      </trkpt>
      <trkpt lat="45.30993" lon="4.32001">
        <ele>918</ele>
        <time>2021-04-26T13:13:50Z</time>
      </trkpt>
      <trkpt lat="45.30989" lon="4.32003">
        <ele>918</ele>
        <time>2021-04-26T13:13:51Z</time>
      </trkpt>
      <trkpt lat="45.30984" lon="4.32004">
        <ele>918</ele>
        <time>2021-04-26T13:13:52Z</time>
      </trkpt>
      <trkpt lat="45.30979" lon="4.32006">
        <ele>918</ele>
        <time>2021-04-26T13:13:53Z</time>
      </trkpt>
      <trkpt lat="45.30975" lon="4.32008">
        <ele>918</ele>
        <time>2021-04-26T13:13:54Z</time>
      </trkpt>
      <trkpt lat="45.3097" lon="4.3201">
        <ele>918</ele>
        <time>2021-04-26T13:13:55Z</time>
      </trkpt>
      <trkpt lat="45.30965" lon="4.32011">
        <ele>918</ele>
        <time>2021-04-26T13:13:56Z</time>
      </trkpt>
      <trkpt lat="45.30961" lon="4.32012">
        <ele>919</ele>
        <time>2021-04-26T13:13:57Z</time>
      </trkpt>
      <trkpt lat="45.30956" lon="4.32014">
        <ele>919</ele>
        <time>2021-04-26T13:13:58Z</time>
      </trkpt>
      <trkpt lat="45.30951" lon="4.32015">
        <ele>919</ele>
        <time>2021-04-26T13:13:59Z</time>
      </trkpt>
      <trkpt lat="45.30947" lon="4.32016">
        <ele>919</ele>
        <time>2021-04-26T13:14:00Z</time>
      </trkpt>
      <trkpt lat="45.30942" lon="4.32017">
        <ele>919</ele>
        <time>2021-04-26T13:14:01Z</time>
      </trkpt>
      <trkpt lat="45.30937" lon="4.32019">
        <ele>920</ele>
        <time>2021-04-26T13:14:02Z</time>
      </trkpt>
      <trkpt lat="45.30932" lon="4.3202">
        <ele>920</ele>
        <time>2021-04-26T13:14:03Z</time>
      </trkpt>
      <trkpt lat="45.30927" lon="4.32021">
        <ele>920</ele>
        <time>2021-04-26T13:14:04Z</time>
      </trkpt>
      <trkpt lat="45.30923" lon="4.32023">
        <ele>920</ele>
        <time>2021-04-26T13:14:05Z</time>
      </trkpt>
      <trkpt lat="45.30919" lon="4.32024">
        <ele>920</ele>
        <time>2021-04-26T13:14:06Z</time>
      </trkpt>
      <trkpt lat="45.30915" lon="4.32025">
        <ele>920</ele>
        <time>2021-04-26T13:14:07Z</time>
      </trkpt>
      <trkpt lat="45.30911" lon="4.32026">
        <ele>920</ele>
        <time>2021-04-26T13:14:08Z</time>
      </trkpt>
      <trkpt lat="45.30907" lon="4.32027">
        <ele>920</ele>
        <time>2021-04-26T13:14:09Z</time>
      </trkpt>
      <trkpt lat="45.30903" lon="4.32027">
        <ele>920</ele>
        <time>2021-04-26T13:14:10Z</time>
      </trkpt>
      <trkpt lat="45.309" lon="4.32028">
        <ele>920</ele>
        <time>2021-04-26T13:14:11Z</time>
      </trkpt>
      <trkpt lat="45.30896" lon="4.32029">
        <ele>921</ele>
        <time>2021-04-26T13:14:12Z</time>
      </trkpt>
      <trkpt lat="45.30892" lon="4.32029">
        <ele>921</ele>
        <time>2021-04-26T13:14:13Z</time>
      </trkpt>
      <trkpt lat="45.30888" lon="4.3203">
        <ele>921</ele>
        <time>2021-04-26T13:14:14Z</time>
      </trkpt>
      <trkpt lat="45.30885" lon="4.32031">
        <ele>921</ele>
        <time>2021-04-26T13:14:15Z</time>
      </trkpt>
      <trkpt lat="45.30881" lon="4.32033">
        <ele>921</ele>
        <time>2021-04-26T13:14:16Z</time>
      </trkpt>
      <trkpt lat="45.30878" lon="4.32034">
        <ele>921</ele>
        <time>2021-04-26T13:14:17Z</time>
      </trkpt>
      <trkpt lat="45.30874" lon="4.32035">
        <ele>921</ele>
        <time>2021-04-26T13:14:18Z</time>
      </trkpt>
      <trkpt lat="45.30871" lon="4.32036">
        <ele>922</ele>
        <time>2021-04-26T13:14:19Z</time>
      </trkpt>
      <trkpt lat="45.30867" lon="4.32037">
        <ele>922</ele>
        <time>2021-04-26T13:14:20Z</time>
      </trkpt>
      <trkpt lat="45.30863" lon="4.32038">
        <ele>922</ele>
        <time>2021-04-26T13:14:21Z</time>
      </trkpt>
      <trkpt lat="45.30858" lon="4.3204">
        <ele>922</ele>
        <time>2021-04-26T13:14:22Z</time>
      </trkpt>
      <trkpt lat="45.30853" lon="4.32042">
        <ele>923</ele>
        <time>2021-04-26T13:14:23Z</time>
      </trkpt>
      <trkpt lat="45.30848" lon="4.32043">
        <ele>923</ele>
        <time>2021-04-26T13:14:24Z</time>
      </trkpt>
      <trkpt lat="45.30843" lon="4.32046">
        <ele>923</ele>
        <time>2021-04-26T13:14:25Z</time>
      </trkpt>
      <trkpt lat="45.30838" lon="4.32048">
        <ele>924</ele>
        <time>2021-04-26T13:14:26Z</time>
      </trkpt>
      <trkpt lat="45.30834" lon="4.3205">
        <ele>925</ele>
        <time>2021-04-26T13:14:27Z</time>
      </trkpt>
      <trkpt lat="45.30829" lon="4.32051">
        <ele>925</ele>
        <time>2021-04-26T13:14:28Z</time>
      </trkpt>
      <trkpt lat="45.30825" lon="4.32052">
        <ele>925</ele>
        <time>2021-04-26T13:14:29Z</time>
      </trkpt>
      <trkpt lat="45.30821" lon="4.32054">
        <ele>925</ele>
        <time>2021-04-26T13:14:30Z</time>
      </trkpt>
      <trkpt lat="45.30817" lon="4.32054">
        <ele>925</ele>
        <time>2021-04-26T13:14:31Z</time>
      </trkpt>
      <trkpt lat="45.30812" lon="4.32054">
        <ele>925</ele>
        <time>2021-04-26T13:14:32Z</time>
      </trkpt>
      <trkpt lat="45.30806" lon="4.32054">
        <ele>926</ele>
        <time>2021-04-26T13:14:33Z</time>
      </trkpt>
      <trkpt lat="45.308" lon="4.32053">
        <ele>926</ele>
        <time>2021-04-26T13:14:34Z</time>
      </trkpt>
      <trkpt lat="45.30794" lon="4.32052">
        <ele>926</ele>
        <time>2021-04-26T13:14:35Z</time>
      </trkpt>
      <trkpt lat="45.30788" lon="4.32051">
        <ele>927</ele>
        <time>2021-04-26T13:14:36Z</time>
      </trkpt>
      <trkpt lat="45.30782" lon="4.3205">
        <ele>927</ele>
        <time>2021-04-26T13:14:37Z</time>
      </trkpt>
      <trkpt lat="45.30776" lon="4.32049">
        <ele>927</ele>
        <time>2021-04-26T13:14:38Z</time>
      </trkpt>
      <trkpt lat="45.3077" lon="4.32049">
        <ele>927</ele>
        <time>2021-04-26T13:14:39Z</time>
      </trkpt>
      <trkpt lat="45.30764" lon="4.32047">
        <ele>928</ele>
        <time>2021-04-26T13:14:40Z</time>
      </trkpt>
      <trkpt lat="45.30759" lon="4.32045">
        <ele>928</ele>
        <time>2021-04-26T13:14:41Z</time>
      </trkpt>
      <trkpt lat="45.30754" lon="4.32044">
        <ele>928</ele>
        <time>2021-04-26T13:14:42Z</time>
      </trkpt>
      <trkpt lat="45.30745" lon="4.32041">
        <ele>928</ele>
        <time>2021-04-26T13:14:44Z</time>
      </trkpt>
      <trkpt lat="45.30735" lon="4.32036">
        <ele>928</ele>
        <time>2021-04-26T13:14:46Z</time>
      </trkpt>
      <trkpt lat="45.30722" lon="4.3203">
        <ele>928</ele>
        <time>2021-04-26T13:14:49Z</time>
      </trkpt>
      <trkpt lat="45.30714" lon="4.32025">
        <ele>929</ele>
        <time>2021-04-26T13:14:51Z</time>
      </trkpt>
      <trkpt lat="45.30707" lon="4.32025">
        <ele>929</ele>
        <time>2021-04-26T13:14:53Z</time>
      </trkpt>
      <trkpt lat="45.30703" lon="4.32026">
        <ele>929</ele>
        <time>2021-04-26T13:14:54Z</time>
      </trkpt>
      <trkpt lat="45.30695" lon="4.32025">
        <ele>929</ele>
        <time>2021-04-26T13:14:56Z</time>
      </trkpt>
      <trkpt lat="45.3069" lon="4.32024">
        <ele>930</ele>
        <time>2021-04-26T13:14:57Z</time>
      </trkpt>
      <trkpt lat="45.30686" lon="4.32023">
        <ele>930</ele>
        <time>2021-04-26T13:14:58Z</time>
      </trkpt>
      <trkpt lat="45.30681" lon="4.32021">
        <ele>930</ele>
        <time>2021-04-26T13:14:59Z</time>
      </trkpt>
      <trkpt lat="45.30676" lon="4.3202">
        <ele>930</ele>
        <time>2021-04-26T13:15:00Z</time>
      </trkpt>
      <trkpt lat="45.30666" lon="4.32017">
        <ele>930</ele>
        <time>2021-04-26T13:15:02Z</time>
      </trkpt>
      <trkpt lat="45.30655" lon="4.32015">
        <ele>931</ele>
        <time>2021-04-26T13:15:04Z</time>
      </trkpt>
      <trkpt lat="45.30644" lon="4.32013">
        <ele>931</ele>
        <time>2021-04-26T13:15:06Z</time>
      </trkpt>
      <trkpt lat="45.3064" lon="4.32012">
        <ele>931</ele>
        <time>2021-04-26T13:15:07Z</time>
      </trkpt>
      <trkpt lat="45.30631" lon="4.32009">
        <ele>931</ele>
        <time>2021-04-26T13:15:09Z</time>
      </trkpt>
      <trkpt lat="45.30617" lon="4.32006">
        <ele>932</ele>
        <time>2021-04-26T13:15:12Z</time>
      </trkpt>
      <trkpt lat="45.30603" lon="4.32003">
        <ele>933</ele>
        <time>2021-04-26T13:15:15Z</time>
      </trkpt>
      <trkpt lat="45.30598" lon="4.32002">
        <ele>933</ele>
        <time>2021-04-26T13:15:16Z</time>
      </trkpt>
      <trkpt lat="45.30595" lon="4.32001">
        <ele>934</ele>
        <time>2021-04-26T13:15:17Z</time>
      </trkpt>
      <trkpt lat="45.30591" lon="4.32">
        <ele>934</ele>
        <time>2021-04-26T13:15:18Z</time>
      </trkpt>
      <trkpt lat="45.30588" lon="4.31999">
        <ele>934</ele>
        <time>2021-04-26T13:15:19Z</time>
      </trkpt>
      <trkpt lat="45.30585" lon="4.31997">
        <ele>934</ele>
        <time>2021-04-26T13:15:20Z</time>
      </trkpt>
      <trkpt lat="45.30581" lon="4.31997">
        <ele>934</ele>
        <time>2021-04-26T13:15:21Z</time>
      </trkpt>
      <trkpt lat="45.30578" lon="4.31997">
        <ele>934</ele>
        <time>2021-04-26T13:15:22Z</time>
      </trkpt>
      <trkpt lat="45.30574" lon="4.31995">
        <ele>935</ele>
        <time>2021-04-26T13:15:23Z</time>
      </trkpt>
      <trkpt lat="45.3057" lon="4.31994">
        <ele>935</ele>
        <time>2021-04-26T13:15:24Z</time>
      </trkpt>
      <trkpt lat="45.30567" lon="4.31994">
        <ele>935</ele>
        <time>2021-04-26T13:15:25Z</time>
      </trkpt>
      <trkpt lat="45.30563" lon="4.31994">
        <ele>935</ele>
        <time>2021-04-26T13:15:26Z</time>
      </trkpt>
      <trkpt lat="45.30558" lon="4.31993">
        <ele>935</ele>
        <time>2021-04-26T13:15:27Z</time>
      </trkpt>
      <trkpt lat="45.30554" lon="4.31992">
        <ele>935</ele>
        <time>2021-04-26T13:15:28Z</time>
      </trkpt>
      <trkpt lat="45.3055" lon="4.31992">
        <ele>935</ele>
        <time>2021-04-26T13:15:29Z</time>
      </trkpt>
      <trkpt lat="45.30546" lon="4.31991">
        <ele>935</ele>
        <time>2021-04-26T13:15:30Z</time>
      </trkpt>
      <trkpt lat="45.3054" lon="4.3199">
        <ele>934</ele>
        <time>2021-04-26T13:15:31Z</time>
      </trkpt>
      <trkpt lat="45.30536" lon="4.31989">
        <ele>935</ele>
        <time>2021-04-26T13:15:32Z</time>
      </trkpt>
      <trkpt lat="45.30532" lon="4.31988">
        <ele>935</ele>
        <time>2021-04-26T13:15:33Z</time>
      </trkpt>
      <trkpt lat="45.30528" lon="4.31987">
        <ele>935</ele>
        <time>2021-04-26T13:15:34Z</time>
      </trkpt>
      <trkpt lat="45.30524" lon="4.31986">
        <ele>935</ele>
        <time>2021-04-26T13:15:35Z</time>
      </trkpt>
      <trkpt lat="45.30519" lon="4.31985">
        <ele>935</ele>
        <time>2021-04-26T13:15:36Z</time>
      </trkpt>
      <trkpt lat="45.30516" lon="4.31983">
        <ele>935</ele>
        <time>2021-04-26T13:15:37Z</time>
      </trkpt>
      <trkpt lat="45.30512" lon="4.31981">
        <ele>935</ele>
        <time>2021-04-26T13:15:38Z</time>
      </trkpt>
      <trkpt lat="45.30507" lon="4.3198">
        <ele>935</ele>
        <time>2021-04-26T13:15:39Z</time>
      </trkpt>
      <trkpt lat="45.30502" lon="4.31978">
        <ele>935</ele>
        <time>2021-04-26T13:15:40Z</time>
      </trkpt>
      <trkpt lat="45.30497" lon="4.31976">
        <ele>936</ele>
        <time>2021-04-26T13:15:41Z</time>
      </trkpt>
      <trkpt lat="45.30491" lon="4.31975">
        <ele>936</ele>
        <time>2021-04-26T13:15:42Z</time>
      </trkpt>
      <trkpt lat="45.30486" lon="4.31975">
        <ele>936</ele>
        <time>2021-04-26T13:15:43Z</time>
      </trkpt>
      <trkpt lat="45.3048" lon="4.31975">
        <ele>936</ele>
        <time>2021-04-26T13:15:44Z</time>
      </trkpt>
      <trkpt lat="45.30474" lon="4.31974">
        <ele>936</ele>
        <time>2021-04-26T13:15:45Z</time>
      </trkpt>
      <trkpt lat="45.30469" lon="4.31973">
        <ele>937</ele>
        <time>2021-04-26T13:15:46Z</time>
      </trkpt>
      <trkpt lat="45.30464" lon="4.31972">
        <ele>937</ele>
        <time>2021-04-26T13:15:47Z</time>
      </trkpt>
      <trkpt lat="45.30458" lon="4.31971">
        <ele>937</ele>
        <time>2021-04-26T13:15:48Z</time>
      </trkpt>
      <trkpt lat="45.30452" lon="4.3197">
        <ele>937</ele>
        <time>2021-04-26T13:15:49Z</time>
      </trkpt>
      <trkpt lat="45.30447" lon="4.31969">
        <ele>937</ele>
        <time>2021-04-26T13:15:50Z</time>
      </trkpt>
      <trkpt lat="45.30441" lon="4.3197">
        <ele>937</ele>
        <time>2021-04-26T13:15:51Z</time>
      </trkpt>
      <trkpt lat="45.30435" lon="4.31969">
        <ele>937</ele>
        <time>2021-04-26T13:15:52Z</time>
      </trkpt>
      <trkpt lat="45.30428" lon="4.31967">
        <ele>937</ele>
        <time>2021-04-26T13:15:53Z</time>
      </trkpt>
      <trkpt lat="45.30423" lon="4.31964">
        <ele>937</ele>
        <time>2021-04-26T13:15:54Z</time>
      </trkpt>
      <trkpt lat="45.30417" lon="4.31963">
        <ele>937</ele>
        <time>2021-04-26T13:15:55Z</time>
      </trkpt>
      <trkpt lat="45.30411" lon="4.31961">
        <ele>937</ele>
        <time>2021-04-26T13:15:56Z</time>
      </trkpt>
      <trkpt lat="45.30404" lon="4.3196">
        <ele>936</ele>
        <time>2021-04-26T13:15:57Z</time>
      </trkpt>
      <trkpt lat="45.30398" lon="4.31958">
        <ele>936</ele>
        <time>2021-04-26T13:15:58Z</time>
      </trkpt>
      <trkpt lat="45.30392" lon="4.31958">
        <ele>936</ele>
        <time>2021-04-26T13:15:59Z</time>
      </trkpt>
      <trkpt lat="45.30387" lon="4.31958">
        <ele>936</ele>
        <time>2021-04-26T13:16:00Z</time>
      </trkpt>
      <trkpt lat="45.30378" lon="4.31957">
        <ele>936</ele>
        <time>2021-04-26T13:16:02Z</time>
      </trkpt>
      <trkpt lat="45.30365" lon="4.31958">
        <ele>936</ele>
        <time>2021-04-26T13:16:04Z</time>
      </trkpt>
      <trkpt lat="45.3036" lon="4.31957">
        <ele>935</ele>
        <time>2021-04-26T13:16:05Z</time>
      </trkpt>
      <trkpt lat="45.30354" lon="4.31955">
        <ele>935</ele>
        <time>2021-04-26T13:16:06Z</time>
      </trkpt>
      <trkpt lat="45.30348" lon="4.31953">
        <ele>935</ele>
        <time>2021-04-26T13:16:07Z</time>
      </trkpt>
      <trkpt lat="45.30343" lon="4.31951">
        <ele>935</ele>
        <time>2021-04-26T13:16:08Z</time>
      </trkpt>
      <trkpt lat="45.30338" lon="4.31948">
        <ele>935</ele>
        <time>2021-04-26T13:16:09Z</time>
      </trkpt>
      <trkpt lat="45.30333" lon="4.31946">
        <ele>935</ele>
        <time>2021-04-26T13:16:10Z</time>
      </trkpt>
      <trkpt lat="45.30328" lon="4.31945">
        <ele>935</ele>
        <time>2021-04-26T13:16:11Z</time>
      </trkpt>
      <trkpt lat="45.30323" lon="4.31943">
        <ele>935</ele>
        <time>2021-04-26T13:16:12Z</time>
      </trkpt>
      <trkpt lat="45.30318" lon="4.31942">
        <ele>935</ele>
        <time>2021-04-26T13:16:13Z</time>
      </trkpt>
      <trkpt lat="45.30314" lon="4.31939">
        <ele>935</ele>
        <time>2021-04-26T13:16:14Z</time>
      </trkpt>
      <trkpt lat="45.3031" lon="4.31937">
        <ele>935</ele>
        <time>2021-04-26T13:16:15Z</time>
      </trkpt>
      <trkpt lat="45.30305" lon="4.31935">
        <ele>935</ele>
        <time>2021-04-26T13:16:16Z</time>
      </trkpt>
      <trkpt lat="45.303" lon="4.31933">
        <ele>935</ele>
        <time>2021-04-26T13:16:17Z</time>
      </trkpt>
      <trkpt lat="45.30294" lon="4.31932">
        <ele>935</ele>
        <time>2021-04-26T13:16:18Z</time>
      </trkpt>
      <trkpt lat="45.3029" lon="4.3193">
        <ele>935</ele>
        <time>2021-04-26T13:16:19Z</time>
      </trkpt>
      <trkpt lat="45.30285" lon="4.31928">
        <ele>935</ele>
        <time>2021-04-26T13:16:20Z</time>
      </trkpt>
      <trkpt lat="45.3028" lon="4.31926">
        <ele>935</ele>
        <time>2021-04-26T13:16:21Z</time>
      </trkpt>
      <trkpt lat="45.30274" lon="4.31925">
        <ele>935</ele>
        <time>2021-04-26T13:16:22Z</time>
      </trkpt>
      <trkpt lat="45.30269" lon="4.31923">
        <ele>935</ele>
        <time>2021-04-26T13:16:23Z</time>
      </trkpt>
      <trkpt lat="45.30262" lon="4.31921">
        <ele>934</ele>
        <time>2021-04-26T13:16:24Z</time>
      </trkpt>
      <trkpt lat="45.30257" lon="4.3192">
        <ele>933</ele>
        <time>2021-04-26T13:16:25Z</time>
      </trkpt>
      <trkpt lat="45.30252" lon="4.31918">
        <ele>933</ele>
        <time>2021-04-26T13:16:26Z</time>
      </trkpt>
      <trkpt lat="45.30247" lon="4.31917">
        <ele>933</ele>
        <time>2021-04-26T13:16:27Z</time>
      </trkpt>
      <trkpt lat="45.30242" lon="4.31916">
        <ele>932</ele>
        <time>2021-04-26T13:16:28Z</time>
      </trkpt>
      <trkpt lat="45.30238" lon="4.31914">
        <ele>932</ele>
        <time>2021-04-26T13:16:29Z</time>
      </trkpt>
      <trkpt lat="45.30233" lon="4.31912">
        <ele>932</ele>
        <time>2021-04-26T13:16:30Z</time>
      </trkpt>
      <trkpt lat="45.30229" lon="4.31911">
        <ele>932</ele>
        <time>2021-04-26T13:16:31Z</time>
      </trkpt>
      <trkpt lat="45.30226" lon="4.31909">
        <ele>932</ele>
        <time>2021-04-26T13:16:32Z</time>
      </trkpt>
      <trkpt lat="45.30222" lon="4.31907">
        <ele>931</ele>
        <time>2021-04-26T13:16:33Z</time>
      </trkpt>
      <trkpt lat="45.30217" lon="4.31906">
        <ele>931</ele>
        <time>2021-04-26T13:16:34Z</time>
      </trkpt>
      <trkpt lat="45.30212" lon="4.31904">
        <ele>931</ele>
        <time>2021-04-26T13:16:35Z</time>
      </trkpt>
      <trkpt lat="45.30208" lon="4.31903">
        <ele>931</ele>
        <time>2021-04-26T13:16:36Z</time>
      </trkpt>
      <trkpt lat="45.30202" lon="4.31901">
        <ele>931</ele>
        <time>2021-04-26T13:16:37Z</time>
      </trkpt>
      <trkpt lat="45.30197" lon="4.319">
        <ele>931</ele>
        <time>2021-04-26T13:16:38Z</time>
      </trkpt>
      <trkpt lat="45.30191" lon="4.31899">
        <ele>931</ele>
        <time>2021-04-26T13:16:39Z</time>
      </trkpt>
      <trkpt lat="45.30186" lon="4.31899">
        <ele>930</ele>
        <time>2021-04-26T13:16:40Z</time>
      </trkpt>
      <trkpt lat="45.30179" lon="4.31899">
        <ele>930</ele>
        <time>2021-04-26T13:16:41Z</time>
      </trkpt>
      <trkpt lat="45.30173" lon="4.319">
        <ele>930</ele>
        <time>2021-04-26T13:16:42Z</time>
      </trkpt>
      <trkpt lat="45.30167" lon="4.31904">
        <ele>931</ele>
        <time>2021-04-26T13:16:43Z</time>
      </trkpt>
      <trkpt lat="45.30161" lon="4.31908">
        <ele>930</ele>
        <time>2021-04-26T13:16:44Z</time>
      </trkpt>
      <trkpt lat="45.30155" lon="4.31913">
        <ele>930</ele>
        <time>2021-04-26T13:16:45Z</time>
      </trkpt>
      <trkpt lat="45.3015" lon="4.31917">
        <ele>930</ele>
        <time>2021-04-26T13:16:46Z</time>
      </trkpt>
      <trkpt lat="45.30145" lon="4.31921">
        <ele>931</ele>
        <time>2021-04-26T13:16:47Z</time>
      </trkpt>
      <trkpt lat="45.30133" lon="4.3193">
        <ele>931</ele>
        <time>2021-04-26T13:16:49Z</time>
      </trkpt>
      <trkpt lat="45.30125" lon="4.31936">
        <ele>931</ele>
        <time>2021-04-26T13:16:50Z</time>
      </trkpt>
      <trkpt lat="45.30117" lon="4.31941">
        <ele>931</ele>
        <time>2021-04-26T13:16:51Z</time>
      </trkpt>
      <trkpt lat="45.30109" lon="4.31947">
        <ele>931</ele>
        <time>2021-04-26T13:16:52Z</time>
      </trkpt>
      <trkpt lat="45.301" lon="4.31954">
        <ele>930</ele>
        <time>2021-04-26T13:16:53Z</time>
      </trkpt>
      <trkpt lat="45.30092" lon="4.31962">
        <ele>930</ele>
        <time>2021-04-26T13:16:54Z</time>
      </trkpt>
      <trkpt lat="45.30084" lon="4.31969">
        <ele>930</ele>
        <time>2021-04-26T13:16:55Z</time>
      </trkpt>
      <trkpt lat="45.30076" lon="4.31977">
        <ele>929</ele>
        <time>2021-04-26T13:16:56Z</time>
      </trkpt>
      <trkpt lat="45.30067" lon="4.31982">
        <ele>929</ele>
        <time>2021-04-26T13:16:57Z</time>
      </trkpt>
      <trkpt lat="45.30058" lon="4.31989">
        <ele>929</ele>
        <time>2021-04-26T13:16:58Z</time>
      </trkpt>
      <trkpt lat="45.30042" lon="4.32001">
        <ele>928</ele>
        <time>2021-04-26T13:17:00Z</time>
      </trkpt>
      <trkpt lat="45.30034" lon="4.32008">
        <ele>928</ele>
        <time>2021-04-26T13:17:01Z</time>
      </trkpt>
      <trkpt lat="45.30025" lon="4.32014">
        <ele>928</ele>
        <time>2021-04-26T13:17:02Z</time>
      </trkpt>
      <trkpt lat="45.30017" lon="4.3202">
        <ele>928</ele>
        <time>2021-04-26T13:17:03Z</time>
      </trkpt>
      <trkpt lat="45.30009" lon="4.32028">
        <ele>928</ele>
        <time>2021-04-26T13:17:04Z</time>
      </trkpt>
      <trkpt lat="45.29994" lon="4.3204">
        <ele>927</ele>
        <time>2021-04-26T13:17:06Z</time>
      </trkpt>
      <trkpt lat="45.29988" lon="4.32047">
        <ele>926</ele>
        <time>2021-04-26T13:17:07Z</time>
      </trkpt>
      <trkpt lat="45.29976" lon="4.32064">
        <ele>926</ele>
        <time>2021-04-26T13:17:09Z</time>
      </trkpt>
      <trkpt lat="45.2996" lon="4.32077">
        <ele>924</ele>
        <time>2021-04-26T13:17:11Z</time>
      </trkpt>
      <trkpt lat="45.29944" lon="4.32085">
        <ele>924</ele>
        <time>2021-04-26T13:17:13Z</time>
      </trkpt>
      <trkpt lat="45.29936" lon="4.32089">
        <ele>921</ele>
        <time>2021-04-26T13:17:14Z</time>
      </trkpt>
      <trkpt lat="45.29927" lon="4.32093">
        <ele>920</ele>
        <time>2021-04-26T13:17:15Z</time>
      </trkpt>
      <trkpt lat="45.29912" lon="4.32101">
        <ele>918</ele>
        <time>2021-04-26T13:17:17Z</time>
      </trkpt>
      <trkpt lat="45.29894" lon="4.32108">
        <ele>918</ele>
        <time>2021-04-26T13:17:19Z</time>
      </trkpt>
      <trkpt lat="45.29879" lon="4.32107">
        <ele>915</ele>
        <time>2021-04-26T13:17:21Z</time>
      </trkpt>
      <trkpt lat="45.29863" lon="4.32098">
        <ele>912</ele>
        <time>2021-04-26T13:17:23Z</time>
      </trkpt>
      <trkpt lat="45.29855" lon="4.32094">
        <ele>911</ele>
        <time>2021-04-26T13:17:24Z</time>
      </trkpt>
      <trkpt lat="45.29847" lon="4.3209">
        <ele>911</ele>
        <time>2021-04-26T13:17:25Z</time>
      </trkpt>
      <trkpt lat="45.29839" lon="4.32089">
        <ele>909</ele>
        <time>2021-04-26T13:17:26Z</time>
      </trkpt>
      <trkpt lat="45.29833" lon="4.32092">
        <ele>907</ele>
        <time>2021-04-26T13:17:27Z</time>
      </trkpt>
      <trkpt lat="45.29829" lon="4.321">
        <ele>906</ele>
        <time>2021-04-26T13:17:28Z</time>
      </trkpt>
      <trkpt lat="45.29827" lon="4.32109">
        <ele>905</ele>
        <time>2021-04-26T13:17:29Z</time>
      </trkpt>
      <trkpt lat="45.29824" lon="4.32118">
        <ele>904</ele>
        <time>2021-04-26T13:17:30Z</time>
      </trkpt>
      <trkpt lat="45.29821" lon="4.32128">
        <ele>903</ele>
        <time>2021-04-26T13:17:31Z</time>
      </trkpt>
      <trkpt lat="45.29818" lon="4.32137">
        <ele>903</ele>
        <time>2021-04-26T13:17:32Z</time>
      </trkpt>
      <trkpt lat="45.29813" lon="4.32145">
        <ele>902</ele>
        <time>2021-04-26T13:17:33Z</time>
      </trkpt>
      <trkpt lat="45.29806" lon="4.32152">
        <ele>900</ele>
        <time>2021-04-26T13:17:34Z</time>
      </trkpt>
      <trkpt lat="45.29799" lon="4.32159">
        <ele>898</ele>
        <time>2021-04-26T13:17:35Z</time>
      </trkpt>
      <trkpt lat="45.29791" lon="4.32165">
        <ele>896</ele>
        <time>2021-04-26T13:17:36Z</time>
      </trkpt>
      <trkpt lat="45.29783" lon="4.32171">
        <ele>894</ele>
        <time>2021-04-26T13:17:37Z</time>
      </trkpt>
      <trkpt lat="45.29776" lon="4.32177">
        <ele>894</ele>
        <time>2021-04-26T13:17:38Z</time>
      </trkpt>
      <trkpt lat="45.29768" lon="4.32184">
        <ele>893</ele>
        <time>2021-04-26T13:17:39Z</time>
      </trkpt>
      <trkpt lat="45.29761" lon="4.3219">
        <ele>889</ele>
        <time>2021-04-26T13:17:40Z</time>
      </trkpt>
      <trkpt lat="45.29754" lon="4.32196">
        <ele>888</ele>
        <time>2021-04-26T13:17:41Z</time>
      </trkpt>
      <trkpt lat="45.29748" lon="4.32199">
        <ele>887</ele>
        <time>2021-04-26T13:17:42Z</time>
      </trkpt>
      <trkpt lat="45.29745" lon="4.32201">
        <ele>886</ele>
        <time>2021-04-26T13:17:43Z</time>
      </trkpt>
      <trkpt lat="45.29742" lon="4.32202">
        <ele>885</ele>
        <time>2021-04-26T13:17:45Z</time>
      </trkpt>
      <trkpt lat="45.29739" lon="4.322">
        <ele>884</ele>
        <time>2021-04-26T13:17:47Z</time>
      </trkpt>
      <trkpt lat="45.29738" lon="4.32197">
        <ele>883</ele>
        <time>2021-04-26T13:17:48Z</time>
      </trkpt>
      <trkpt lat="45.29736" lon="4.32194">
        <ele>883</ele>
        <time>2021-04-26T13:17:49Z</time>
      </trkpt>
      <trkpt lat="45.29734" lon="4.32191">
        <ele>881</ele>
        <time>2021-04-26T13:17:50Z</time>
      </trkpt>
      <trkpt lat="45.29732" lon="4.32189">
        <ele>880</ele>
        <time>2021-04-26T13:17:51Z</time>
      </trkpt>
      <trkpt lat="45.29731" lon="4.32186">
        <ele>880</ele>
        <time>2021-04-26T13:17:52Z</time>
      </trkpt>
      <trkpt lat="45.29729" lon="4.32184">
        <ele>879</ele>
        <time>2021-04-26T13:17:53Z</time>
      </trkpt>
      <trkpt lat="45.29728" lon="4.32182">
        <ele>878</ele>
        <time>2021-04-26T13:17:54Z</time>
      </trkpt>
      <trkpt lat="45.29726" lon="4.32179">
        <ele>878</ele>
        <time>2021-04-26T13:17:55Z</time>
      </trkpt>
      <trkpt lat="45.29724" lon="4.32177">
        <ele>878</ele>
        <time>2021-04-26T13:17:56Z</time>
      </trkpt>
      <trkpt lat="45.29722" lon="4.32173">
        <ele>877</ele>
        <time>2021-04-26T13:17:57Z</time>
      </trkpt>
      <trkpt lat="45.29721" lon="4.3217">
        <ele>877</ele>
        <time>2021-04-26T13:17:58Z</time>
      </trkpt>
      <trkpt lat="45.29719" lon="4.32166">
        <ele>877</ele>
        <time>2021-04-26T13:17:59Z</time>
      </trkpt>
      <trkpt lat="45.29717" lon="4.32161">
        <ele>876</ele>
        <time>2021-04-26T13:18:00Z</time>
      </trkpt>
      <trkpt lat="45.29715" lon="4.32157">
        <ele>876</ele>
        <time>2021-04-26T13:18:01Z</time>
      </trkpt>
      <trkpt lat="45.29712" lon="4.32153">
        <ele>875</ele>
        <time>2021-04-26T13:18:02Z</time>
      </trkpt>
      <trkpt lat="45.29709" lon="4.32149">
        <ele>875</ele>
        <time>2021-04-26T13:18:03Z</time>
      </trkpt>
      <trkpt lat="45.29705" lon="4.32145">
        <ele>875</ele>
        <time>2021-04-26T13:18:04Z</time>
      </trkpt>
      <trkpt lat="45.29701" lon="4.32142">
        <ele>875</ele>
        <time>2021-04-26T13:18:05Z</time>
      </trkpt>
      <trkpt lat="45.29698" lon="4.32139">
        <ele>874</ele>
        <time>2021-04-26T13:18:06Z</time>
      </trkpt>
      <trkpt lat="45.29694" lon="4.32136">
        <ele>874</ele>
        <time>2021-04-26T13:18:07Z</time>
      </trkpt>
      <trkpt lat="45.29691" lon="4.32132">
        <ele>874</ele>
        <time>2021-04-26T13:18:08Z</time>
      </trkpt>
      <trkpt lat="45.29688" lon="4.32128">
        <ele>873</ele>
        <time>2021-04-26T13:18:09Z</time>
      </trkpt>
      <trkpt lat="45.29686" lon="4.32124">
        <ele>873</ele>
        <time>2021-04-26T13:18:10Z</time>
      </trkpt>
      <trkpt lat="45.29683" lon="4.32118">
        <ele>873</ele>
        <time>2021-04-26T13:18:11Z</time>
      </trkpt>
      <trkpt lat="45.2968" lon="4.32113">
        <ele>872</ele>
        <time>2021-04-26T13:18:12Z</time>
      </trkpt>
      <trkpt lat="45.29676" lon="4.32106">
        <ele>872</ele>
        <time>2021-04-26T13:18:13Z</time>
      </trkpt>
      <trkpt lat="45.29672" lon="4.32099">
        <ele>871</ele>
        <time>2021-04-26T13:18:14Z</time>
      </trkpt>
      <trkpt lat="45.29667" lon="4.3209">
        <ele>871</ele>
        <time>2021-04-26T13:18:15Z</time>
      </trkpt>
      <trkpt lat="45.29661" lon="4.32081">
        <ele>871</ele>
        <time>2021-04-26T13:18:16Z</time>
      </trkpt>
      <trkpt lat="45.29655" lon="4.32071">
        <ele>871</ele>
        <time>2021-04-26T13:18:17Z</time>
      </trkpt>
      <trkpt lat="45.29649" lon="4.32061">
        <ele>870</ele>
        <time>2021-04-26T13:18:18Z</time>
      </trkpt>
      <trkpt lat="45.29642" lon="4.32051">
        <ele>870</ele>
        <time>2021-04-26T13:18:19Z</time>
      </trkpt>
      <trkpt lat="45.29635" lon="4.32042">
        <ele>869</ele>
        <time>2021-04-26T13:18:20Z</time>
      </trkpt>
      <trkpt lat="45.29628" lon="4.32034">
        <ele>869</ele>
        <time>2021-04-26T13:18:21Z</time>
      </trkpt>
      <trkpt lat="45.29622" lon="4.32027">
        <ele>869</ele>
        <time>2021-04-26T13:18:22Z</time>
      </trkpt>
      <trkpt lat="45.29616" lon="4.3202">
        <ele>869</ele>
        <time>2021-04-26T13:18:23Z</time>
      </trkpt>
      <trkpt lat="45.2961" lon="4.32013">
        <ele>869</ele>
        <time>2021-04-26T13:18:24Z</time>
      </trkpt>
      <trkpt lat="45.29605" lon="4.32006">
        <ele>868</ele>
        <time>2021-04-26T13:18:25Z</time>
      </trkpt>
      <trkpt lat="45.29601" lon="4.32001">
        <ele>868</ele>
        <time>2021-04-26T13:18:26Z</time>
      </trkpt>
      <trkpt lat="45.29597" lon="4.31995">
        <ele>868</ele>
        <time>2021-04-26T13:18:27Z</time>
      </trkpt>
      <trkpt lat="45.29593" lon="4.3199">
        <ele>868</ele>
        <time>2021-04-26T13:18:28Z</time>
      </trkpt>
      <trkpt lat="45.29589" lon="4.31984">
        <ele>868</ele>
        <time>2021-04-26T13:18:29Z</time>
      </trkpt>
      <trkpt lat="45.29584" lon="4.31978">
        <ele>867</ele>
        <time>2021-04-26T13:18:30Z</time>
      </trkpt>
      <trkpt lat="45.29581" lon="4.31972">
        <ele>867</ele>
        <time>2021-04-26T13:18:31Z</time>
      </trkpt>
      <trkpt lat="45.29577" lon="4.31966">
        <ele>866</ele>
        <time>2021-04-26T13:18:32Z</time>
      </trkpt>
      <trkpt lat="45.29573" lon="4.31961">
        <ele>866</ele>
        <time>2021-04-26T13:18:33Z</time>
      </trkpt>
      <trkpt lat="45.29569" lon="4.31955">
        <ele>866</ele>
        <time>2021-04-26T13:18:34Z</time>
      </trkpt>
      <trkpt lat="45.29566" lon="4.3195">
        <ele>866</ele>
        <time>2021-04-26T13:18:35Z</time>
      </trkpt>
      <trkpt lat="45.29562" lon="4.31944">
        <ele>866</ele>
        <time>2021-04-26T13:18:36Z</time>
      </trkpt>
      <trkpt lat="45.29558" lon="4.31939">
        <ele>866</ele>
        <time>2021-04-26T13:18:37Z</time>
      </trkpt>
      <trkpt lat="45.29554" lon="4.31933">
        <ele>866</ele>
        <time>2021-04-26T13:18:38Z</time>
      </trkpt>
      <trkpt lat="45.29551" lon="4.31928">
        <ele>866</ele>
        <time>2021-04-26T13:18:39Z</time>
      </trkpt>
      <trkpt lat="45.29548" lon="4.31922">
        <ele>866</ele>
        <time>2021-04-26T13:18:40Z</time>
      </trkpt>
      <trkpt lat="45.29544" lon="4.31917">
        <ele>866</ele>
        <time>2021-04-26T13:18:41Z</time>
      </trkpt>
      <trkpt lat="45.29541" lon="4.31912">
        <ele>866</ele>
        <time>2021-04-26T13:18:42Z</time>
      </trkpt>
      <trkpt lat="45.29538" lon="4.31907">
        <ele>866</ele>
        <time>2021-04-26T13:18:43Z</time>
      </trkpt>
      <trkpt lat="45.29535" lon="4.31901">
        <ele>866</ele>
        <time>2021-04-26T13:18:44Z</time>
      </trkpt>
      <trkpt lat="45.29531" lon="4.31896">
        <ele>866</ele>
        <time>2021-04-26T13:18:45Z</time>
      </trkpt>
      <trkpt lat="45.29528" lon="4.31891">
        <ele>866</ele>
        <time>2021-04-26T13:18:46Z</time>
      </trkpt>
      <trkpt lat="45.29524" lon="4.31885">
        <ele>866</ele>
        <time>2021-04-26T13:18:47Z</time>
      </trkpt>
      <trkpt lat="45.29521" lon="4.31879">
        <ele>866</ele>
        <time>2021-04-26T13:18:48Z</time>
      </trkpt>
      <trkpt lat="45.29517" lon="4.31873">
        <ele>866</ele>
        <time>2021-04-26T13:18:49Z</time>
      </trkpt>
      <trkpt lat="45.29513" lon="4.31868">
        <ele>866</ele>
        <time>2021-04-26T13:18:50Z</time>
      </trkpt>
      <trkpt lat="45.2951" lon="4.31862">
        <ele>866</ele>
        <time>2021-04-26T13:18:51Z</time>
      </trkpt>
      <trkpt lat="45.29506" lon="4.31857">
        <ele>866</ele>
        <time>2021-04-26T13:18:52Z</time>
      </trkpt>
      <trkpt lat="45.29502" lon="4.31851">
        <ele>867</ele>
        <time>2021-04-26T13:18:53Z</time>
      </trkpt>
      <trkpt lat="45.29499" lon="4.31845">
        <ele>867</ele>
        <time>2021-04-26T13:18:54Z</time>
      </trkpt>
      <trkpt lat="45.29496" lon="4.3184">
        <ele>867</ele>
        <time>2021-04-26T13:18:55Z</time>
      </trkpt>
      <trkpt lat="45.29493" lon="4.31835">
        <ele>867</ele>
        <time>2021-04-26T13:18:56Z</time>
      </trkpt>
      <trkpt lat="45.2949" lon="4.31831">
        <ele>867</ele>
        <time>2021-04-26T13:18:57Z</time>
      </trkpt>
      <trkpt lat="45.29487" lon="4.31828">
        <ele>868</ele>
        <time>2021-04-26T13:18:58Z</time>
      </trkpt>
      <trkpt lat="45.29485" lon="4.31826">
        <ele>868</ele>
        <time>2021-04-26T13:18:59Z</time>
      </trkpt>
      <trkpt lat="45.29483" lon="4.31823">
        <ele>868</ele>
        <time>2021-04-26T13:19:00Z</time>
      </trkpt>
      <trkpt lat="45.2948" lon="4.3182">
        <ele>869</ele>
        <time>2021-04-26T13:19:01Z</time>
      </trkpt>
      <trkpt lat="45.29477" lon="4.31818">
        <ele>869</ele>
        <time>2021-04-26T13:19:02Z</time>
      </trkpt>
      <trkpt lat="45.29474" lon="4.31815">
        <ele>869</ele>
        <time>2021-04-26T13:19:03Z</time>
      </trkpt>
      <trkpt lat="45.29472" lon="4.31813">
        <ele>870</ele>
        <time>2021-04-26T13:19:04Z</time>
      </trkpt>
      <trkpt lat="45.29469" lon="4.3181">
        <ele>870</ele>
        <time>2021-04-26T13:19:05Z</time>
      </trkpt>
      <trkpt lat="45.29467" lon="4.31808">
        <ele>871</ele>
        <time>2021-04-26T13:19:06Z</time>
      </trkpt>
      <trkpt lat="45.29464" lon="4.31805">
        <ele>871</ele>
        <time>2021-04-26T13:19:07Z</time>
      </trkpt>
      <trkpt lat="45.29462" lon="4.31801">
        <ele>871</ele>
        <time>2021-04-26T13:19:08Z</time>
      </trkpt>
      <trkpt lat="45.29459" lon="4.31798">
        <ele>871</ele>
        <time>2021-04-26T13:19:09Z</time>
      </trkpt>
      <trkpt lat="45.29457" lon="4.31795">
        <ele>872</ele>
        <time>2021-04-26T13:19:10Z</time>
      </trkpt>
      <trkpt lat="45.29455" lon="4.31792">
        <ele>872</ele>
        <time>2021-04-26T13:19:11Z</time>
      </trkpt>
      <trkpt lat="45.29452" lon="4.31788">
        <ele>872</ele>
        <time>2021-04-26T13:19:12Z</time>
      </trkpt>
      <trkpt lat="45.2945" lon="4.31784">
        <ele>872</ele>
        <time>2021-04-26T13:19:13Z</time>
      </trkpt>
      <trkpt lat="45.29448" lon="4.3178">
        <ele>872</ele>
        <time>2021-04-26T13:19:14Z</time>
      </trkpt>
      <trkpt lat="45.29445" lon="4.31776">
        <ele>872</ele>
        <time>2021-04-26T13:19:15Z</time>
      </trkpt>
      <trkpt lat="45.29443" lon="4.31771">
        <ele>872</ele>
        <time>2021-04-26T13:19:16Z</time>
      </trkpt>
      <trkpt lat="45.29441" lon="4.31765">
        <ele>872</ele>
        <time>2021-04-26T13:19:17Z</time>
      </trkpt>
      <trkpt lat="45.29439" lon="4.3176">
        <ele>872</ele>
        <time>2021-04-26T13:19:18Z</time>
      </trkpt>
      <trkpt lat="45.29438" lon="4.31754">
        <ele>872</ele>
        <time>2021-04-26T13:19:19Z</time>
      </trkpt>
      <trkpt lat="45.29437" lon="4.31748">
        <ele>873</ele>
        <time>2021-04-26T13:19:20Z</time>
      </trkpt>
      <trkpt lat="45.29435" lon="4.31742">
        <ele>873</ele>
        <time>2021-04-26T13:19:21Z</time>
      </trkpt>
      <trkpt lat="45.29434" lon="4.31736">
        <ele>873</ele>
        <time>2021-04-26T13:19:22Z</time>
      </trkpt>
      <trkpt lat="45.29433" lon="4.3173">
        <ele>873</ele>
        <time>2021-04-26T13:19:23Z</time>
      </trkpt>
      <trkpt lat="45.29431" lon="4.31725">
        <ele>873</ele>
        <time>2021-04-26T13:19:24Z</time>
      </trkpt>
      <trkpt lat="45.2943" lon="4.31719">
        <ele>873</ele>
        <time>2021-04-26T13:19:25Z</time>
      </trkpt>
      <trkpt lat="45.29429" lon="4.31714">
        <ele>873</ele>
        <time>2021-04-26T13:19:26Z</time>
      </trkpt>
      <trkpt lat="45.29428" lon="4.31708">
        <ele>873</ele>
        <time>2021-04-26T13:19:27Z</time>
      </trkpt>
      <trkpt lat="45.29426" lon="4.31702">
        <ele>874</ele>
        <time>2021-04-26T13:19:28Z</time>
      </trkpt>
      <trkpt lat="45.29425" lon="4.31695">
        <ele>874</ele>
        <time>2021-04-26T13:19:29Z</time>
      </trkpt>
      <trkpt lat="45.29423" lon="4.31689">
        <ele>874</ele>
        <time>2021-04-26T13:19:30Z</time>
      </trkpt>
      <trkpt lat="45.29422" lon="4.31683">
        <ele>874</ele>
        <time>2021-04-26T13:19:31Z</time>
      </trkpt>
      <trkpt lat="45.2942" lon="4.31676">
        <ele>873</ele>
        <time>2021-04-26T13:19:32Z</time>
      </trkpt>
      <trkpt lat="45.29418" lon="4.31669">
        <ele>873</ele>
        <time>2021-04-26T13:19:33Z</time>
      </trkpt>
      <trkpt lat="45.29417" lon="4.31662">
        <ele>873</ele>
        <time>2021-04-26T13:19:34Z</time>
      </trkpt>
      <trkpt lat="45.29415" lon="4.31654">
        <ele>873</ele>
        <time>2021-04-26T13:19:35Z</time>
      </trkpt>
      <trkpt lat="45.29413" lon="4.31646">
        <ele>873</ele>
        <time>2021-04-26T13:19:36Z</time>
      </trkpt>
      <trkpt lat="45.2941" lon="4.31638">
        <ele>873</ele>
        <time>2021-04-26T13:19:37Z</time>
      </trkpt>
      <trkpt lat="45.29408" lon="4.3163">
        <ele>873</ele>
        <time>2021-04-26T13:19:38Z</time>
      </trkpt>
      <trkpt lat="45.29405" lon="4.31622">
        <ele>873</ele>
        <time>2021-04-26T13:19:39Z</time>
      </trkpt>
      <trkpt lat="45.29402" lon="4.31615">
        <ele>873</ele>
        <time>2021-04-26T13:19:40Z</time>
      </trkpt>
      <trkpt lat="45.29399" lon="4.31608">
        <ele>873</ele>
        <time>2021-04-26T13:19:41Z</time>
      </trkpt>
      <trkpt lat="45.29395" lon="4.31601">
        <ele>873</ele>
        <time>2021-04-26T13:19:42Z</time>
      </trkpt>
      <trkpt lat="45.29391" lon="4.31595">
        <ele>873</ele>
        <time>2021-04-26T13:19:43Z</time>
      </trkpt>
      <trkpt lat="45.29387" lon="4.31589">
        <ele>873</ele>
        <time>2021-04-26T13:19:44Z</time>
      </trkpt>
      <trkpt lat="45.29383" lon="4.31583">
        <ele>873</ele>
        <time>2021-04-26T13:19:45Z</time>
      </trkpt>
      <trkpt lat="45.29379" lon="4.31577">
        <ele>873</ele>
        <time>2021-04-26T13:19:46Z</time>
      </trkpt>
      <trkpt lat="45.29375" lon="4.31571">
        <ele>873</ele>
        <time>2021-04-26T13:19:47Z</time>
      </trkpt>
      <trkpt lat="45.29371" lon="4.31565">
        <ele>873</ele>
        <time>2021-04-26T13:19:48Z</time>
      </trkpt>
      <trkpt lat="45.29368" lon="4.31559">
        <ele>873</ele>
        <time>2021-04-26T13:19:49Z</time>
      </trkpt>
      <trkpt lat="45.29364" lon="4.31553">
        <ele>873</ele>
        <time>2021-04-26T13:19:50Z</time>
      </trkpt>
      <trkpt lat="45.29361" lon="4.31546">
        <ele>873</ele>
        <time>2021-04-26T13:19:51Z</time>
      </trkpt>
      <trkpt lat="45.29357" lon="4.3154">
        <ele>874</ele>
        <time>2021-04-26T13:19:52Z</time>
      </trkpt>
      <trkpt lat="45.29354" lon="4.31534">
        <ele>874</ele>
        <time>2021-04-26T13:19:53Z</time>
      </trkpt>
      <trkpt lat="45.29352" lon="4.31528">
        <ele>874</ele>
        <time>2021-04-26T13:19:54Z</time>
      </trkpt>
      <trkpt lat="45.2935" lon="4.31523">
        <ele>874</ele>
        <time>2021-04-26T13:19:55Z</time>
      </trkpt>
      <trkpt lat="45.29348" lon="4.31517">
        <ele>874</ele>
        <time>2021-04-26T13:19:56Z</time>
      </trkpt>
      <trkpt lat="45.29345" lon="4.31511">
        <ele>874</ele>
        <time>2021-04-26T13:19:57Z</time>
      </trkpt>
      <trkpt lat="45.29344" lon="4.31506">
        <ele>874</ele>
        <time>2021-04-26T13:19:58Z</time>
      </trkpt>
      <trkpt lat="45.29342" lon="4.31501">
        <ele>874</ele>
        <time>2021-04-26T13:19:59Z</time>
      </trkpt>
      <trkpt lat="45.2934" lon="4.31496">
        <ele>874</ele>
        <time>2021-04-26T13:20:00Z</time>
      </trkpt>
      <trkpt lat="45.29338" lon="4.3149">
        <ele>874</ele>
        <time>2021-04-26T13:20:01Z</time>
      </trkpt>
      <trkpt lat="45.29336" lon="4.31484">
        <ele>874</ele>
        <time>2021-04-26T13:20:02Z</time>
      </trkpt>
      <trkpt lat="45.29334" lon="4.31478">
        <ele>874</ele>
        <time>2021-04-26T13:20:03Z</time>
      </trkpt>
      <trkpt lat="45.29332" lon="4.31472">
        <ele>874</ele>
        <time>2021-04-26T13:20:04Z</time>
      </trkpt>
      <trkpt lat="45.2933" lon="4.31465">
        <ele>874</ele>
        <time>2021-04-26T13:20:05Z</time>
      </trkpt>
      <trkpt lat="45.29328" lon="4.31458">
        <ele>874</ele>
        <time>2021-04-26T13:20:06Z</time>
      </trkpt>
      <trkpt lat="45.29326" lon="4.31451">
        <ele>874</ele>
        <time>2021-04-26T13:20:07Z</time>
      </trkpt>
      <trkpt lat="45.29323" lon="4.31444">
        <ele>874</ele>
        <time>2021-04-26T13:20:08Z</time>
      </trkpt>
      <trkpt lat="45.29321" lon="4.31437">
        <ele>874</ele>
        <time>2021-04-26T13:20:09Z</time>
      </trkpt>
      <trkpt lat="45.29319" lon="4.3143">
        <ele>874</ele>
        <time>2021-04-26T13:20:10Z</time>
      </trkpt>
      <trkpt lat="45.29316" lon="4.31423">
        <ele>874</ele>
        <time>2021-04-26T13:20:11Z</time>
      </trkpt>
      <trkpt lat="45.29314" lon="4.31416">
        <ele>874</ele>
        <time>2021-04-26T13:20:12Z</time>
      </trkpt>
      <trkpt lat="45.29311" lon="4.3141">
        <ele>874</ele>
        <time>2021-04-26T13:20:13Z</time>
      </trkpt>
      <trkpt lat="45.29309" lon="4.31403">
        <ele>875</ele>
        <time>2021-04-26T13:20:14Z</time>
      </trkpt>
      <trkpt lat="45.29306" lon="4.31397">
        <ele>875</ele>
        <time>2021-04-26T13:20:15Z</time>
      </trkpt>
      <trkpt lat="45.29304" lon="4.31391">
        <ele>875</ele>
        <time>2021-04-26T13:20:16Z</time>
      </trkpt>
      <trkpt lat="45.29301" lon="4.31384">
        <ele>875</ele>
        <time>2021-04-26T13:20:17Z</time>
      </trkpt>
      <trkpt lat="45.29298" lon="4.31378">
        <ele>875</ele>
        <time>2021-04-26T13:20:18Z</time>
      </trkpt>
      <trkpt lat="45.29296" lon="4.31371">
        <ele>875</ele>
        <time>2021-04-26T13:20:19Z</time>
      </trkpt>
      <trkpt lat="45.29293" lon="4.31364">
        <ele>875</ele>
        <time>2021-04-26T13:20:20Z</time>
      </trkpt>
      <trkpt lat="45.2929" lon="4.31357">
        <ele>875</ele>
        <time>2021-04-26T13:20:21Z</time>
      </trkpt>
      <trkpt lat="45.29287" lon="4.31349">
        <ele>876</ele>
        <time>2021-04-26T13:20:22Z</time>
      </trkpt>
      <trkpt lat="45.29284" lon="4.31342">
        <ele>876</ele>
        <time>2021-04-26T13:20:23Z</time>
      </trkpt>
      <trkpt lat="45.29282" lon="4.31336">
        <ele>877</ele>
        <time>2021-04-26T13:20:24Z</time>
      </trkpt>
      <trkpt lat="45.2928" lon="4.31331">
        <ele>877</ele>
        <time>2021-04-26T13:20:25Z</time>
      </trkpt>
      <trkpt lat="45.29278" lon="4.31326">
        <ele>877</ele>
        <time>2021-04-26T13:20:26Z</time>
      </trkpt>
      <trkpt lat="45.29276" lon="4.31321">
        <ele>877</ele>
        <time>2021-04-26T13:20:27Z</time>
      </trkpt>
      <trkpt lat="45.29274" lon="4.31316">
        <ele>877</ele>
        <time>2021-04-26T13:20:28Z</time>
      </trkpt>
      <trkpt lat="45.29272" lon="4.31311">
        <ele>877</ele>
        <time>2021-04-26T13:20:29Z</time>
      </trkpt>
      <trkpt lat="45.2927" lon="4.31307">
        <ele>877</ele>
        <time>2021-04-26T13:20:30Z</time>
      </trkpt>
      <trkpt lat="45.29269" lon="4.31302">
        <ele>878</ele>
        <time>2021-04-26T13:20:31Z</time>
      </trkpt>
      <trkpt lat="45.29268" lon="4.31297">
        <ele>878</ele>
        <time>2021-04-26T13:20:32Z</time>
      </trkpt>
      <trkpt lat="45.29267" lon="4.31293">
        <ele>878</ele>
        <time>2021-04-26T13:20:33Z</time>
      </trkpt>
      <trkpt lat="45.29265" lon="4.3129">
        <ele>878</ele>
        <time>2021-04-26T13:20:34Z</time>
      </trkpt>
      <trkpt lat="45.29263" lon="4.31287">
        <ele>878</ele>
        <time>2021-04-26T13:20:35Z</time>
      </trkpt>
      <trkpt lat="45.29261" lon="4.31284">
        <ele>879</ele>
        <time>2021-04-26T13:20:36Z</time>
      </trkpt>
      <trkpt lat="45.29259" lon="4.31281">
        <ele>879</ele>
        <time>2021-04-26T13:20:37Z</time>
      </trkpt>
      <trkpt lat="45.29257" lon="4.31278">
        <ele>879</ele>
        <time>2021-04-26T13:20:38Z</time>
      </trkpt>
      <trkpt lat="45.29254" lon="4.31275">
        <ele>879</ele>
        <time>2021-04-26T13:20:39Z</time>
      </trkpt>
      <trkpt lat="45.29252" lon="4.31272">
        <ele>880</ele>
        <time>2021-04-26T13:20:40Z</time>
      </trkpt>
      <trkpt lat="45.29249" lon="4.31269">
        <ele>880</ele>
        <time>2021-04-26T13:20:41Z</time>
      </trkpt>
      <trkpt lat="45.29247" lon="4.31266">
        <ele>880</ele>
        <time>2021-04-26T13:20:42Z</time>
      </trkpt>
      <trkpt lat="45.29245" lon="4.3126">
        <ele>880</ele>
        <time>2021-04-26T13:20:53Z</time>
      </trkpt>
      <trkpt lat="45.2924" lon="4.31254">
        <ele>881</ele>
        <time>2021-04-26T13:21:03Z</time>
      </trkpt>
      <trkpt lat="45.29232" lon="4.31248">
        <ele>881</ele>
        <time>2021-04-26T13:21:05Z</time>
      </trkpt>
      <trkpt lat="45.29228" lon="4.31246">
        <ele>881</ele>
        <time>2021-04-26T13:21:06Z</time>
      </trkpt>
      <trkpt lat="45.29225" lon="4.31243">
        <ele>882</ele>
        <time>2021-04-26T13:21:07Z</time>
      </trkpt>
      <trkpt lat="45.29222" lon="4.31241">
        <ele>882</ele>
        <time>2021-04-26T13:21:08Z</time>
      </trkpt>
      <trkpt lat="45.29219" lon="4.31238">
        <ele>882</ele>
        <time>2021-04-26T13:21:09Z</time>
      </trkpt>
      <trkpt lat="45.29217" lon="4.31236">
        <ele>882</ele>
        <time>2021-04-26T13:21:10Z</time>
      </trkpt>
      <trkpt lat="45.29214" lon="4.31233">
        <ele>882</ele>
        <time>2021-04-26T13:21:11Z</time>
      </trkpt>
      <trkpt lat="45.29212" lon="4.31231">
        <ele>882</ele>
        <time>2021-04-26T13:21:12Z</time>
      </trkpt>
      <trkpt lat="45.29209" lon="4.31229">
        <ele>882</ele>
        <time>2021-04-26T13:21:13Z</time>
      </trkpt>
      <trkpt lat="45.29206" lon="4.31226">
        <ele>882</ele>
        <time>2021-04-26T13:21:14Z</time>
      </trkpt>
      <trkpt lat="45.29204" lon="4.31224">
        <ele>882</ele>
        <time>2021-04-26T13:21:15Z</time>
      </trkpt>
      <trkpt lat="45.29201" lon="4.31221">
        <ele>882</ele>
        <time>2021-04-26T13:21:16Z</time>
      </trkpt>
      <trkpt lat="45.29198" lon="4.31218">
        <ele>882</ele>
        <time>2021-04-26T13:21:17Z</time>
      </trkpt>
      <trkpt lat="45.29195" lon="4.31216">
        <ele>882</ele>
        <time>2021-04-26T13:21:18Z</time>
      </trkpt>
      <trkpt lat="45.29192" lon="4.31213">
        <ele>882</ele>
        <time>2021-04-26T13:21:19Z</time>
      </trkpt>
      <trkpt lat="45.29189" lon="4.31211">
        <ele>882</ele>
        <time>2021-04-26T13:21:20Z</time>
      </trkpt>
      <trkpt lat="45.29186" lon="4.31209">
        <ele>882</ele>
        <time>2021-04-26T13:21:21Z</time>
      </trkpt>
      <trkpt lat="45.29183" lon="4.31207">
        <ele>882</ele>
        <time>2021-04-26T13:21:22Z</time>
      </trkpt>
      <trkpt lat="45.2918" lon="4.31206">
        <ele>882</ele>
        <time>2021-04-26T13:21:23Z</time>
      </trkpt>
      <trkpt lat="45.29176" lon="4.31205">
        <ele>882</ele>
        <time>2021-04-26T13:21:24Z</time>
      </trkpt>
      <trkpt lat="45.29173" lon="4.31204">
        <ele>882</ele>
        <time>2021-04-26T13:21:25Z</time>
      </trkpt>
      <trkpt lat="45.29169" lon="4.31203">
        <ele>882</ele>
        <time>2021-04-26T13:21:26Z</time>
      </trkpt>
      <trkpt lat="45.29166" lon="4.31202">
        <ele>882</ele>
        <time>2021-04-26T13:21:27Z</time>
      </trkpt>
      <trkpt lat="45.29162" lon="4.31201">
        <ele>882</ele>
        <time>2021-04-26T13:21:28Z</time>
      </trkpt>
      <trkpt lat="45.29159" lon="4.312">
        <ele>882</ele>
        <time>2021-04-26T13:21:29Z</time>
      </trkpt>
      <trkpt lat="45.29156" lon="4.312">
        <ele>882</ele>
        <time>2021-04-26T13:21:30Z</time>
      </trkpt>
      <trkpt lat="45.29153" lon="4.31199">
        <ele>882</ele>
        <time>2021-04-26T13:21:31Z</time>
      </trkpt>
      <trkpt lat="45.2915" lon="4.31199">
        <ele>882</ele>
        <time>2021-04-26T13:21:32Z</time>
      </trkpt>
      <trkpt lat="45.29147" lon="4.31198">
        <ele>882</ele>
        <time>2021-04-26T13:21:33Z</time>
      </trkpt>
      <trkpt lat="45.29144" lon="4.31198">
        <ele>882</ele>
        <time>2021-04-26T13:21:34Z</time>
      </trkpt>
      <trkpt lat="45.29142" lon="4.31198">
        <ele>882</ele>
        <time>2021-04-26T13:21:35Z</time>
      </trkpt>
      <trkpt lat="45.29136" lon="4.312">
        <ele>882</ele>
        <time>2021-04-26T13:21:37Z</time>
      </trkpt>
      <trkpt lat="45.29135" lon="4.31202">
        <ele>882</ele>
        <time>2021-04-26T13:21:38Z</time>
      </trkpt>
      <trkpt lat="45.29134" lon="4.31205">
        <ele>882</ele>
        <time>2021-04-26T13:21:39Z</time>
      </trkpt>
      <trkpt lat="45.29134" lon="4.31207">
        <ele>882</ele>
        <time>2021-04-26T13:21:40Z</time>
      </trkpt>
      <trkpt lat="45.29133" lon="4.31201">
        <ele>881</ele>
        <time>2021-04-26T13:38:36Z</time>
      </trkpt>
      <trkpt lat="45.29133" lon="4.31198">
        <ele>881</ele>
        <time>2021-04-26T13:38:37Z</time>
      </trkpt>
      <trkpt lat="45.29132" lon="4.31195">
        <ele>881</ele>
        <time>2021-04-26T13:38:38Z</time>
      </trkpt>
      <trkpt lat="45.29132" lon="4.31193">
        <ele>881</ele>
        <time>2021-04-26T13:38:39Z</time>
      </trkpt>
      <trkpt lat="45.29131" lon="4.31183">
        <ele>880</ele>
        <time>2021-04-26T13:38:43Z</time>
      </trkpt>
      <trkpt lat="45.29129" lon="4.3118">
        <ele>880</ele>
        <time>2021-04-26T13:38:44Z</time>
      </trkpt>
      <trkpt lat="45.29128" lon="4.31178">
        <ele>880</ele>
        <time>2021-04-26T13:38:45Z</time>
      </trkpt>
      <trkpt lat="45.29125" lon="4.31175">
        <ele>880</ele>
        <time>2021-04-26T13:38:46Z</time>
      </trkpt>
      <trkpt lat="45.29122" lon="4.31174">
        <ele>880</ele>
        <time>2021-04-26T13:38:47Z</time>
      </trkpt>
      <trkpt lat="45.2912" lon="4.31172">
        <ele>880</ele>
        <time>2021-04-26T13:38:48Z</time>
      </trkpt>
      <trkpt lat="45.29118" lon="4.31171">
        <ele>880</ele>
        <time>2021-04-26T13:38:49Z</time>
      </trkpt>
      <trkpt lat="45.29115" lon="4.3117">
        <ele>880</ele>
        <time>2021-04-26T13:38:50Z</time>
      </trkpt>
      <trkpt lat="45.29112" lon="4.31169">
        <ele>880</ele>
        <time>2021-04-26T13:38:51Z</time>
      </trkpt>
      <trkpt lat="45.29108" lon="4.31169">
        <ele>880</ele>
        <time>2021-04-26T13:38:52Z</time>
      </trkpt>
      <trkpt lat="45.29103" lon="4.31168">
        <ele>879</ele>
        <time>2021-04-26T13:38:53Z</time>
      </trkpt>
      <trkpt lat="45.29099" lon="4.31168">
        <ele>879</ele>
        <time>2021-04-26T13:38:54Z</time>
      </trkpt>
      <trkpt lat="45.29095" lon="4.31167">
        <ele>879</ele>
        <time>2021-04-26T13:38:55Z</time>
      </trkpt>
      <trkpt lat="45.29091" lon="4.31167">
        <ele>879</ele>
        <time>2021-04-26T13:38:56Z</time>
      </trkpt>
      <trkpt lat="45.29087" lon="4.31168">
        <ele>879</ele>
        <time>2021-04-26T13:38:57Z</time>
      </trkpt>
      <trkpt lat="45.29084" lon="4.3117">
        <ele>879</ele>
        <time>2021-04-26T13:38:58Z</time>
      </trkpt>
      <trkpt lat="45.29081" lon="4.31173">
        <ele>879</ele>
        <time>2021-04-26T13:38:59Z</time>
      </trkpt>
      <trkpt lat="45.29079" lon="4.31176">
        <ele>879</ele>
        <time>2021-04-26T13:39:00Z</time>
      </trkpt>
      <trkpt lat="45.29076" lon="4.31181">
        <ele>878</ele>
        <time>2021-04-26T13:39:01Z</time>
      </trkpt>
      <trkpt lat="45.29074" lon="4.31185">
        <ele>878</ele>
        <time>2021-04-26T13:39:02Z</time>
      </trkpt>
      <trkpt lat="45.29071" lon="4.31191">
        <ele>878</ele>
        <time>2021-04-26T13:39:03Z</time>
      </trkpt>
      <trkpt lat="45.29068" lon="4.31197">
        <ele>878</ele>
        <time>2021-04-26T13:39:04Z</time>
      </trkpt>
      <trkpt lat="45.29065" lon="4.31202">
        <ele>878</ele>
        <time>2021-04-26T13:39:05Z</time>
      </trkpt>
      <trkpt lat="45.29063" lon="4.31207">
        <ele>878</ele>
        <time>2021-04-26T13:39:06Z</time>
      </trkpt>
      <trkpt lat="45.29061" lon="4.31211">
        <ele>878</ele>
        <time>2021-04-26T13:39:07Z</time>
      </trkpt>
      <trkpt lat="45.29059" lon="4.31216">
        <ele>877</ele>
        <time>2021-04-26T13:39:08Z</time>
      </trkpt>
      <trkpt lat="45.29058" lon="4.31221">
        <ele>877</ele>
        <time>2021-04-26T13:39:09Z</time>
      </trkpt>
      <trkpt lat="45.29056" lon="4.31225">
        <ele>877</ele>
        <time>2021-04-26T13:39:10Z</time>
      </trkpt>
      <trkpt lat="45.29055" lon="4.3123">
        <ele>877</ele>
        <time>2021-04-26T13:39:11Z</time>
      </trkpt>
      <trkpt lat="45.29055" lon="4.31235">
        <ele>877</ele>
        <time>2021-04-26T13:39:12Z</time>
      </trkpt>
      <trkpt lat="45.29056" lon="4.3124">
        <ele>877</ele>
        <time>2021-04-26T13:39:13Z</time>
      </trkpt>
      <trkpt lat="45.29057" lon="4.31245">
        <ele>877</ele>
        <time>2021-04-26T13:39:14Z</time>
      </trkpt>
      <trkpt lat="45.29058" lon="4.31249">
        <ele>876</ele>
        <time>2021-04-26T13:39:15Z</time>
      </trkpt>
      <trkpt lat="45.29058" lon="4.31254">
        <ele>876</ele>
        <time>2021-04-26T13:39:16Z</time>
      </trkpt>
      <trkpt lat="45.29059" lon="4.31258">
        <ele>876</ele>
        <time>2021-04-26T13:39:17Z</time>
      </trkpt>
      <trkpt lat="45.2906" lon="4.31262">
        <ele>876</ele>
        <time>2021-04-26T13:39:18Z</time>
      </trkpt>
      <trkpt lat="45.29061" lon="4.31267">
        <ele>876</ele>
        <time>2021-04-26T13:39:19Z</time>
      </trkpt>
      <trkpt lat="45.29064" lon="4.31271">
        <ele>876</ele>
        <time>2021-04-26T13:39:20Z</time>
      </trkpt>
      <trkpt lat="45.29066" lon="4.31274">
        <ele>876</ele>
        <time>2021-04-26T13:39:21Z</time>
      </trkpt>
      <trkpt lat="45.29069" lon="4.31276">
        <ele>876</ele>
        <time>2021-04-26T13:39:22Z</time>
      </trkpt>
      <trkpt lat="45.29071" lon="4.31279">
        <ele>876</ele>
        <time>2021-04-26T13:39:23Z</time>
      </trkpt>
      <trkpt lat="45.29073" lon="4.31282">
        <ele>876</ele>
        <time>2021-04-26T13:39:24Z</time>
      </trkpt>
      <trkpt lat="45.29074" lon="4.31285">
        <ele>876</ele>
        <time>2021-04-26T13:39:25Z</time>
      </trkpt>
      <trkpt lat="45.29076" lon="4.31289">
        <ele>876</ele>
        <time>2021-04-26T13:39:26Z</time>
      </trkpt>
      <trkpt lat="45.29077" lon="4.31292">
        <ele>876</ele>
        <time>2021-04-26T13:39:27Z</time>
      </trkpt>
      <trkpt lat="45.29078" lon="4.31296">
        <ele>876</ele>
        <time>2021-04-26T13:39:28Z</time>
      </trkpt>
      <trkpt lat="45.29079" lon="4.31301">
        <ele>876</ele>
        <time>2021-04-26T13:39:29Z</time>
      </trkpt>
      <trkpt lat="45.2908" lon="4.31306">
        <ele>876</ele>
        <time>2021-04-26T13:39:30Z</time>
      </trkpt>
      <trkpt lat="45.29081" lon="4.31312">
        <ele>876</ele>
        <time>2021-04-26T13:39:31Z</time>
      </trkpt>
      <trkpt lat="45.29082" lon="4.31319">
        <ele>876</ele>
        <time>2021-04-26T13:39:32Z</time>
      </trkpt>
      <trkpt lat="45.29084" lon="4.31326">
        <ele>875</ele>
        <time>2021-04-26T13:39:33Z</time>
      </trkpt>
      <trkpt lat="45.29087" lon="4.31333">
        <ele>875</ele>
        <time>2021-04-26T13:39:34Z</time>
      </trkpt>
      <trkpt lat="45.2909" lon="4.31341">
        <ele>875</ele>
        <time>2021-04-26T13:39:35Z</time>
      </trkpt>
      <trkpt lat="45.29094" lon="4.31348">
        <ele>874</ele>
        <time>2021-04-26T13:39:36Z</time>
      </trkpt>
      <trkpt lat="45.29098" lon="4.31355">
        <ele>873</ele>
        <time>2021-04-26T13:39:37Z</time>
      </trkpt>
      <trkpt lat="45.29102" lon="4.31361">
        <ele>873</ele>
        <time>2021-04-26T13:39:38Z</time>
      </trkpt>
      <trkpt lat="45.29104" lon="4.31366">
        <ele>872</ele>
        <time>2021-04-26T13:39:39Z</time>
      </trkpt>
      <trkpt lat="45.29107" lon="4.31371">
        <ele>872</ele>
        <time>2021-04-26T13:39:40Z</time>
      </trkpt>
      <trkpt lat="45.2911" lon="4.31376">
        <ele>871</ele>
        <time>2021-04-26T13:39:41Z</time>
      </trkpt>
      <trkpt lat="45.29113" lon="4.3138">
        <ele>871</ele>
        <time>2021-04-26T13:39:42Z</time>
      </trkpt>
      <trkpt lat="45.29116" lon="4.31385">
        <ele>871</ele>
        <time>2021-04-26T13:39:43Z</time>
      </trkpt>
      <trkpt lat="45.29119" lon="4.3139">
        <ele>870</ele>
        <time>2021-04-26T13:39:44Z</time>
      </trkpt>
      <trkpt lat="45.29122" lon="4.31394">
        <ele>870</ele>
        <time>2021-04-26T13:39:45Z</time>
      </trkpt>
      <trkpt lat="45.29126" lon="4.31399">
        <ele>870</ele>
        <time>2021-04-26T13:39:46Z</time>
      </trkpt>
      <trkpt lat="45.2913" lon="4.31403">
        <ele>869</ele>
        <time>2021-04-26T13:39:47Z</time>
      </trkpt>
      <trkpt lat="45.29134" lon="4.31408">
        <ele>869</ele>
        <time>2021-04-26T13:39:48Z</time>
      </trkpt>
      <trkpt lat="45.29139" lon="4.31412">
        <ele>868</ele>
        <time>2021-04-26T13:39:49Z</time>
      </trkpt>
      <trkpt lat="45.29143" lon="4.31416">
        <ele>868</ele>
        <time>2021-04-26T13:39:50Z</time>
      </trkpt>
      <trkpt lat="45.29147" lon="4.3142">
        <ele>868</ele>
        <time>2021-04-26T13:39:51Z</time>
      </trkpt>
      <trkpt lat="45.2915" lon="4.31426">
        <ele>867</ele>
        <time>2021-04-26T13:39:52Z</time>
      </trkpt>
      <trkpt lat="45.29152" lon="4.31434">
        <ele>867</ele>
        <time>2021-04-26T13:39:53Z</time>
      </trkpt>
      <trkpt lat="45.29154" lon="4.31443">
        <ele>867</ele>
        <time>2021-04-26T13:39:54Z</time>
      </trkpt>
      <trkpt lat="45.29158" lon="4.31454">
        <ele>866</ele>
        <time>2021-04-26T13:39:55Z</time>
      </trkpt>
      <trkpt lat="45.29161" lon="4.31466">
        <ele>864</ele>
        <time>2021-04-26T13:39:56Z</time>
      </trkpt>
      <trkpt lat="45.29164" lon="4.31479">
        <ele>863</ele>
        <time>2021-04-26T13:39:57Z</time>
      </trkpt>
      <trkpt lat="45.29168" lon="4.31492">
        <ele>863</ele>
        <time>2021-04-26T13:39:58Z</time>
      </trkpt>
      <trkpt lat="45.29171" lon="4.31506">
        <ele>860</ele>
        <time>2021-04-26T13:39:59Z</time>
      </trkpt>
      <trkpt lat="45.29175" lon="4.3152">
        <ele>858</ele>
        <time>2021-04-26T13:40:00Z</time>
      </trkpt>
      <trkpt lat="45.2918" lon="4.31534">
        <ele>857</ele>
        <time>2021-04-26T13:40:01Z</time>
      </trkpt>
      <trkpt lat="45.29185" lon="4.31549">
        <ele>857</ele>
        <time>2021-04-26T13:40:02Z</time>
      </trkpt>
      <trkpt lat="45.29189" lon="4.31564">
        <ele>854</ele>
        <time>2021-04-26T13:40:03Z</time>
      </trkpt>
      <trkpt lat="45.29193" lon="4.3158">
        <ele>852</ele>
        <time>2021-04-26T13:40:04Z</time>
      </trkpt>
      <trkpt lat="45.29196" lon="4.31595">
        <ele>851</ele>
        <time>2021-04-26T13:40:05Z</time>
      </trkpt>
      <trkpt lat="45.29198" lon="4.31611">
        <ele>850</ele>
        <time>2021-04-26T13:40:06Z</time>
      </trkpt>
      <trkpt lat="45.292" lon="4.31627">
        <ele>850</ele>
        <time>2021-04-26T13:40:07Z</time>
      </trkpt>
      <trkpt lat="45.29202" lon="4.31642">
        <ele>849</ele>
        <time>2021-04-26T13:40:08Z</time>
      </trkpt>
      <trkpt lat="45.29203" lon="4.31657">
        <ele>848</ele>
        <time>2021-04-26T13:40:09Z</time>
      </trkpt>
      <trkpt lat="45.29205" lon="4.31672">
        <ele>848</ele>
        <time>2021-04-26T13:40:10Z</time>
      </trkpt>
      <trkpt lat="45.29207" lon="4.31686">
        <ele>847</ele>
        <time>2021-04-26T13:40:11Z</time>
      </trkpt>
      <trkpt lat="45.29209" lon="4.31699">
        <ele>846</ele>
        <time>2021-04-26T13:40:12Z</time>
      </trkpt>
      <trkpt lat="45.29211" lon="4.31712">
        <ele>845</ele>
        <time>2021-04-26T13:40:13Z</time>
      </trkpt>
      <trkpt lat="45.29212" lon="4.31725">
        <ele>845</ele>
        <time>2021-04-26T13:40:14Z</time>
      </trkpt>
      <trkpt lat="45.29211" lon="4.31737">
        <ele>844</ele>
        <time>2021-04-26T13:40:15Z</time>
      </trkpt>
      <trkpt lat="45.29208" lon="4.31748">
        <ele>844</ele>
        <time>2021-04-26T13:40:16Z</time>
      </trkpt>
      <trkpt lat="45.29205" lon="4.31758">
        <ele>844</ele>
        <time>2021-04-26T13:40:17Z</time>
      </trkpt>
      <trkpt lat="45.29201" lon="4.31766">
        <ele>844</ele>
        <time>2021-04-26T13:40:18Z</time>
      </trkpt>
      <trkpt lat="45.29197" lon="4.31774">
        <ele>843</ele>
        <time>2021-04-26T13:40:19Z</time>
      </trkpt>
      <trkpt lat="45.29193" lon="4.31781">
        <ele>843</ele>
        <time>2021-04-26T13:40:20Z</time>
      </trkpt>
      <trkpt lat="45.29189" lon="4.31787">
        <ele>843</ele>
        <time>2021-04-26T13:40:21Z</time>
      </trkpt>
      <trkpt lat="45.29186" lon="4.31793">
        <ele>843</ele>
        <time>2021-04-26T13:40:22Z</time>
      </trkpt>
      <trkpt lat="45.29182" lon="4.31798">
        <ele>844</ele>
        <time>2021-04-26T13:40:23Z</time>
      </trkpt>
      <trkpt lat="45.29178" lon="4.31804">
        <ele>844</ele>
        <time>2021-04-26T13:40:24Z</time>
      </trkpt>
      <trkpt lat="45.29175" lon="4.31809">
        <ele>844</ele>
        <time>2021-04-26T13:40:25Z</time>
      </trkpt>
      <trkpt lat="45.29171" lon="4.31815">
        <ele>844</ele>
        <time>2021-04-26T13:40:26Z</time>
      </trkpt>
      <trkpt lat="45.29168" lon="4.3182">
        <ele>844</ele>
        <time>2021-04-26T13:40:27Z</time>
      </trkpt>
      <trkpt lat="45.29165" lon="4.31826">
        <ele>844</ele>
        <time>2021-04-26T13:40:28Z</time>
      </trkpt>
      <trkpt lat="45.29162" lon="4.31831">
        <ele>844</ele>
        <time>2021-04-26T13:40:29Z</time>
      </trkpt>
      <trkpt lat="45.29159" lon="4.31835">
        <ele>844</ele>
        <time>2021-04-26T13:40:30Z</time>
      </trkpt>
      <trkpt lat="45.29157" lon="4.31839">
        <ele>845</ele>
        <time>2021-04-26T13:40:31Z</time>
      </trkpt>
      <trkpt lat="45.29154" lon="4.31843">
        <ele>845</ele>
        <time>2021-04-26T13:40:32Z</time>
      </trkpt>
      <trkpt lat="45.29153" lon="4.31847">
        <ele>845</ele>
        <time>2021-04-26T13:40:33Z</time>
      </trkpt>
      <trkpt lat="45.29151" lon="4.31851">
        <ele>845</ele>
        <time>2021-04-26T13:40:34Z</time>
      </trkpt>
      <trkpt lat="45.29149" lon="4.31856">
        <ele>846</ele>
        <time>2021-04-26T13:40:35Z</time>
      </trkpt>
      <trkpt lat="45.29147" lon="4.3186">
        <ele>846</ele>
        <time>2021-04-26T13:40:36Z</time>
      </trkpt>
      <trkpt lat="45.29146" lon="4.31865">
        <ele>846</ele>
        <time>2021-04-26T13:40:37Z</time>
      </trkpt>
      <trkpt lat="45.29144" lon="4.3187">
        <ele>847</ele>
        <time>2021-04-26T13:40:38Z</time>
      </trkpt>
      <trkpt lat="45.29143" lon="4.31874">
        <ele>847</ele>
        <time>2021-04-26T13:40:39Z</time>
      </trkpt>
      <trkpt lat="45.29142" lon="4.31879">
        <ele>848</ele>
        <time>2021-04-26T13:40:40Z</time>
      </trkpt>
      <trkpt lat="45.29141" lon="4.31883">
        <ele>848</ele>
        <time>2021-04-26T13:40:41Z</time>
      </trkpt>
      <trkpt lat="45.2914" lon="4.31887">
        <ele>849</ele>
        <time>2021-04-26T13:40:42Z</time>
      </trkpt>
      <trkpt lat="45.2914" lon="4.31891">
        <ele>849</ele>
        <time>2021-04-26T13:40:43Z</time>
      </trkpt>
      <trkpt lat="45.29139" lon="4.31894">
        <ele>850</ele>
        <time>2021-04-26T13:40:44Z</time>
      </trkpt>
      <trkpt lat="45.29138" lon="4.31898">
        <ele>850</ele>
        <time>2021-04-26T13:40:45Z</time>
      </trkpt>
      <trkpt lat="45.29137" lon="4.31901">
        <ele>851</ele>
        <time>2021-04-26T13:40:46Z</time>
      </trkpt>
      <trkpt lat="45.29137" lon="4.31903">
        <ele>851</ele>
        <time>2021-04-26T13:40:47Z</time>
      </trkpt>
      <trkpt lat="45.29135" lon="4.31906">
        <ele>851</ele>
        <time>2021-04-26T13:40:48Z</time>
      </trkpt>
      <trkpt lat="45.29134" lon="4.31909">
        <ele>852</ele>
        <time>2021-04-26T13:40:49Z</time>
      </trkpt>
      <trkpt lat="45.29133" lon="4.31911">
        <ele>852</ele>
        <time>2021-04-26T13:40:50Z</time>
      </trkpt>
      <trkpt lat="45.29132" lon="4.31914">
        <ele>852</ele>
        <time>2021-04-26T13:40:51Z</time>
      </trkpt>
      <trkpt lat="45.29131" lon="4.31917">
        <ele>852</ele>
        <time>2021-04-26T13:40:52Z</time>
      </trkpt>
      <trkpt lat="45.2913" lon="4.3192">
        <ele>851</ele>
        <time>2021-04-26T13:40:53Z</time>
      </trkpt>
      <trkpt lat="45.29129" lon="4.31924">
        <ele>851</ele>
        <time>2021-04-26T13:40:54Z</time>
      </trkpt>
      <trkpt lat="45.29128" lon="4.31928">
        <ele>851</ele>
        <time>2021-04-26T13:40:55Z</time>
      </trkpt>
      <trkpt lat="45.29126" lon="4.31933">
        <ele>851</ele>
        <time>2021-04-26T13:40:56Z</time>
      </trkpt>
      <trkpt lat="45.29124" lon="4.31938">
        <ele>851</ele>
        <time>2021-04-26T13:40:57Z</time>
      </trkpt>
      <trkpt lat="45.29123" lon="4.31943">
        <ele>850</ele>
        <time>2021-04-26T13:40:58Z</time>
      </trkpt>
      <trkpt lat="45.29121" lon="4.31949">
        <ele>850</ele>
        <time>2021-04-26T13:40:59Z</time>
      </trkpt>
      <trkpt lat="45.29119" lon="4.31955">
        <ele>850</ele>
        <time>2021-04-26T13:41:00Z</time>
      </trkpt>
      <trkpt lat="45.29117" lon="4.31962">
        <ele>849</ele>
        <time>2021-04-26T13:41:01Z</time>
      </trkpt>
      <trkpt lat="45.29115" lon="4.3197">
        <ele>849</ele>
        <time>2021-04-26T13:41:02Z</time>
      </trkpt>
      <trkpt lat="45.29113" lon="4.31977">
        <ele>848</ele>
        <time>2021-04-26T13:41:03Z</time>
      </trkpt>
      <trkpt lat="45.29111" lon="4.31985">
        <ele>848</ele>
        <time>2021-04-26T13:41:04Z</time>
      </trkpt>
      <trkpt lat="45.29109" lon="4.31993">
        <ele>847</ele>
        <time>2021-04-26T13:41:05Z</time>
      </trkpt>
      <trkpt lat="45.29106" lon="4.32002">
        <ele>847</ele>
        <time>2021-04-26T13:41:06Z</time>
      </trkpt>
      <trkpt lat="45.29104" lon="4.32011">
        <ele>846</ele>
        <time>2021-04-26T13:41:07Z</time>
      </trkpt>
      <trkpt lat="45.29102" lon="4.32021">
        <ele>845</ele>
        <time>2021-04-26T13:41:08Z</time>
      </trkpt>
      <trkpt lat="45.29099" lon="4.32031">
        <ele>845</ele>
        <time>2021-04-26T13:41:09Z</time>
      </trkpt>
      <trkpt lat="45.29097" lon="4.32041">
        <ele>844</ele>
        <time>2021-04-26T13:41:10Z</time>
      </trkpt>
      <trkpt lat="45.29095" lon="4.32051">
        <ele>843</ele>
        <time>2021-04-26T13:41:11Z</time>
      </trkpt>
      <trkpt lat="45.29094" lon="4.3206">
        <ele>843</ele>
        <time>2021-04-26T13:41:12Z</time>
      </trkpt>
      <trkpt lat="45.29094" lon="4.3207">
        <ele>843</ele>
        <time>2021-04-26T13:41:13Z</time>
      </trkpt>
      <trkpt lat="45.29094" lon="4.32081">
        <ele>841</ele>
        <time>2021-04-26T13:41:14Z</time>
      </trkpt>
      <trkpt lat="45.29095" lon="4.32092">
        <ele>839</ele>
        <time>2021-04-26T13:41:15Z</time>
      </trkpt>
      <trkpt lat="45.29096" lon="4.32104">
        <ele>838</ele>
        <time>2021-04-26T13:41:16Z</time>
      </trkpt>
      <trkpt lat="45.29098" lon="4.32117">
        <ele>837</ele>
        <time>2021-04-26T13:41:17Z</time>
      </trkpt>
      <trkpt lat="45.29099" lon="4.32131">
        <ele>835</ele>
        <time>2021-04-26T13:41:18Z</time>
      </trkpt>
      <trkpt lat="45.29099" lon="4.32146">
        <ele>835</ele>
        <time>2021-04-26T13:41:19Z</time>
      </trkpt>
      <trkpt lat="45.291" lon="4.32162">
        <ele>832</ele>
        <time>2021-04-26T13:41:20Z</time>
      </trkpt>
      <trkpt lat="45.291" lon="4.32179">
        <ele>830</ele>
        <time>2021-04-26T13:41:21Z</time>
      </trkpt>
      <trkpt lat="45.29099" lon="4.32196">
        <ele>828</ele>
        <time>2021-04-26T13:41:22Z</time>
      </trkpt>
      <trkpt lat="45.29098" lon="4.32214">
        <ele>828</ele>
        <time>2021-04-26T13:41:23Z</time>
      </trkpt>
      <trkpt lat="45.29095" lon="4.32232">
        <ele>826</ele>
        <time>2021-04-26T13:41:24Z</time>
      </trkpt>
      <trkpt lat="45.29091" lon="4.32248">
        <ele>825</ele>
        <time>2021-04-26T13:41:25Z</time>
      </trkpt>
      <trkpt lat="45.29084" lon="4.32263">
        <ele>825</ele>
        <time>2021-04-26T13:41:26Z</time>
      </trkpt>
      <trkpt lat="45.29076" lon="4.32274">
        <ele>824</ele>
        <time>2021-04-26T13:41:27Z</time>
      </trkpt>
      <trkpt lat="45.29067" lon="4.32283">
        <ele>825</ele>
        <time>2021-04-26T13:41:28Z</time>
      </trkpt>
      <trkpt lat="45.29061" lon="4.32293">
        <ele>825</ele>
        <time>2021-04-26T13:41:29Z</time>
      </trkpt>
      <trkpt lat="45.29057" lon="4.32304">
        <ele>825</ele>
        <time>2021-04-26T13:41:30Z</time>
      </trkpt>
      <trkpt lat="45.29054" lon="4.32313">
        <ele>826</ele>
        <time>2021-04-26T13:41:31Z</time>
      </trkpt>
      <trkpt lat="45.29052" lon="4.32321">
        <ele>826</ele>
        <time>2021-04-26T13:41:32Z</time>
      </trkpt>
      <trkpt lat="45.2905" lon="4.32328">
        <ele>826</ele>
        <time>2021-04-26T13:41:33Z</time>
      </trkpt>
      <trkpt lat="45.29048" lon="4.32334">
        <ele>827</ele>
        <time>2021-04-26T13:41:34Z</time>
      </trkpt>
      <trkpt lat="45.29046" lon="4.3234">
        <ele>827</ele>
        <time>2021-04-26T13:41:35Z</time>
      </trkpt>
      <trkpt lat="45.29045" lon="4.32345">
        <ele>827</ele>
        <time>2021-04-26T13:41:36Z</time>
      </trkpt>
      <trkpt lat="45.29043" lon="4.3235">
        <ele>827</ele>
        <time>2021-04-26T13:41:37Z</time>
      </trkpt>
      <trkpt lat="45.29041" lon="4.32356">
        <ele>827</ele>
        <time>2021-04-26T13:41:38Z</time>
      </trkpt>
      <trkpt lat="45.2904" lon="4.32361">
        <ele>828</ele>
        <time>2021-04-26T13:41:39Z</time>
      </trkpt>
      <trkpt lat="45.29038" lon="4.32367">
        <ele>828</ele>
        <time>2021-04-26T13:41:40Z</time>
      </trkpt>
      <trkpt lat="45.29037" lon="4.32372">
        <ele>828</ele>
        <time>2021-04-26T13:41:41Z</time>
      </trkpt>
      <trkpt lat="45.29037" lon="4.32378">
        <ele>828</ele>
        <time>2021-04-26T13:41:42Z</time>
      </trkpt>
      <trkpt lat="45.29037" lon="4.32384">
        <ele>829</ele>
        <time>2021-04-26T13:41:43Z</time>
      </trkpt>
      <trkpt lat="45.29036" lon="4.3239">
        <ele>829</ele>
        <time>2021-04-26T13:41:44Z</time>
      </trkpt>
      <trkpt lat="45.29036" lon="4.32395">
        <ele>829</ele>
        <time>2021-04-26T13:41:45Z</time>
      </trkpt>
      <trkpt lat="45.29035" lon="4.32401">
        <ele>829</ele>
        <time>2021-04-26T13:41:46Z</time>
      </trkpt>
      <trkpt lat="45.29034" lon="4.32406">
        <ele>829</ele>
        <time>2021-04-26T13:41:47Z</time>
      </trkpt>
      <trkpt lat="45.29033" lon="4.32412">
        <ele>829</ele>
        <time>2021-04-26T13:41:48Z</time>
      </trkpt>
      <trkpt lat="45.29031" lon="4.32417">
        <ele>830</ele>
        <time>2021-04-26T13:41:49Z</time>
      </trkpt>
      <trkpt lat="45.2903" lon="4.32423">
        <ele>830</ele>
        <time>2021-04-26T13:41:50Z</time>
      </trkpt>
      <trkpt lat="45.29029" lon="4.32428">
        <ele>830</ele>
        <time>2021-04-26T13:41:51Z</time>
      </trkpt>
      <trkpt lat="45.29029" lon="4.32434">
        <ele>830</ele>
        <time>2021-04-26T13:41:52Z</time>
      </trkpt>
      <trkpt lat="45.29028" lon="4.32439">
        <ele>831</ele>
        <time>2021-04-26T13:41:53Z</time>
      </trkpt>
      <trkpt lat="45.29027" lon="4.32444">
        <ele>831</ele>
        <time>2021-04-26T13:41:54Z</time>
      </trkpt>
      <trkpt lat="45.29026" lon="4.32449">
        <ele>831</ele>
        <time>2021-04-26T13:41:55Z</time>
      </trkpt>
      <trkpt lat="45.29025" lon="4.32454">
        <ele>831</ele>
        <time>2021-04-26T13:41:56Z</time>
      </trkpt>
      <trkpt lat="45.29025" lon="4.32459">
        <ele>831</ele>
        <time>2021-04-26T13:41:57Z</time>
      </trkpt>
      <trkpt lat="45.29023" lon="4.32463">
        <ele>831</ele>
        <time>2021-04-26T13:41:58Z</time>
      </trkpt>
      <trkpt lat="45.29021" lon="4.32467">
        <ele>832</ele>
        <time>2021-04-26T13:41:59Z</time>
      </trkpt>
      <trkpt lat="45.29017" lon="4.32469">
        <ele>832</ele>
        <time>2021-04-26T13:42:00Z</time>
      </trkpt>
      <trkpt lat="45.29013" lon="4.3247">
        <ele>831</ele>
        <time>2021-04-26T13:42:01Z</time>
      </trkpt>
      <trkpt lat="45.29008" lon="4.32471">
        <ele>832</ele>
        <time>2021-04-26T13:42:02Z</time>
      </trkpt>
      <trkpt lat="45.29004" lon="4.32472">
        <ele>832</ele>
        <time>2021-04-26T13:42:03Z</time>
      </trkpt>
      <trkpt lat="45.28999" lon="4.32472">
        <ele>832</ele>
        <time>2021-04-26T13:42:04Z</time>
      </trkpt>
      <trkpt lat="45.28994" lon="4.32473">
        <ele>832</ele>
        <time>2021-04-26T13:42:05Z</time>
      </trkpt>
      <trkpt lat="45.28989" lon="4.32473">
        <ele>832</ele>
        <time>2021-04-26T13:42:06Z</time>
      </trkpt>
      <trkpt lat="45.28985" lon="4.32473">
        <ele>832</ele>
        <time>2021-04-26T13:42:07Z</time>
      </trkpt>
      <trkpt lat="45.2898" lon="4.32474">
        <ele>832</ele>
        <time>2021-04-26T13:42:08Z</time>
      </trkpt>
      <trkpt lat="45.28974" lon="4.32474">
        <ele>832</ele>
        <time>2021-04-26T13:42:09Z</time>
      </trkpt>
      <trkpt lat="45.28969" lon="4.32474">
        <ele>832</ele>
        <time>2021-04-26T13:42:10Z</time>
      </trkpt>
      <trkpt lat="45.28964" lon="4.32475">
        <ele>832</ele>
        <time>2021-04-26T13:42:11Z</time>
      </trkpt>
      <trkpt lat="45.28958" lon="4.32475">
        <ele>832</ele>
        <time>2021-04-26T13:42:12Z</time>
      </trkpt>
      <trkpt lat="45.28953" lon="4.32476">
        <ele>832</ele>
        <time>2021-04-26T13:42:13Z</time>
      </trkpt>
      <trkpt lat="45.28948" lon="4.32476">
        <ele>832</ele>
        <time>2021-04-26T13:42:14Z</time>
      </trkpt>
      <trkpt lat="45.28942" lon="4.32477">
        <ele>832</ele>
        <time>2021-04-26T13:42:15Z</time>
      </trkpt>
      <trkpt lat="45.28937" lon="4.32477">
        <ele>832</ele>
        <time>2021-04-26T13:42:16Z</time>
      </trkpt>
      <trkpt lat="45.28931" lon="4.32478">
        <ele>832</ele>
        <time>2021-04-26T13:42:17Z</time>
      </trkpt>
      <trkpt lat="45.28925" lon="4.32479">
        <ele>832</ele>
        <time>2021-04-26T13:42:18Z</time>
      </trkpt>
      <trkpt lat="45.2892" lon="4.32479">
        <ele>832</ele>
        <time>2021-04-26T13:42:19Z</time>
      </trkpt>
      <trkpt lat="45.28914" lon="4.3248">
        <ele>832</ele>
        <time>2021-04-26T13:42:20Z</time>
      </trkpt>
      <trkpt lat="45.28909" lon="4.32481">
        <ele>833</ele>
        <time>2021-04-26T13:42:21Z</time>
      </trkpt>
      <trkpt lat="45.28903" lon="4.32482">
        <ele>833</ele>
        <time>2021-04-26T13:42:22Z</time>
      </trkpt>
      <trkpt lat="45.28898" lon="4.32482">
        <ele>833</ele>
        <time>2021-04-26T13:42:23Z</time>
      </trkpt>
      <trkpt lat="45.28892" lon="4.32483">
        <ele>833</ele>
        <time>2021-04-26T13:42:24Z</time>
      </trkpt>
      <trkpt lat="45.28886" lon="4.32484">
        <ele>833</ele>
        <time>2021-04-26T13:42:25Z</time>
      </trkpt>
      <trkpt lat="45.28881" lon="4.32485">
        <ele>833</ele>
        <time>2021-04-26T13:42:26Z</time>
      </trkpt>
      <trkpt lat="45.28875" lon="4.32486">
        <ele>833</ele>
        <time>2021-04-26T13:42:27Z</time>
      </trkpt>
      <trkpt lat="45.2887" lon="4.32487">
        <ele>833</ele>
        <time>2021-04-26T13:42:28Z</time>
      </trkpt>
      <trkpt lat="45.28864" lon="4.32487">
        <ele>833</ele>
        <time>2021-04-26T13:42:29Z</time>
      </trkpt>
      <trkpt lat="45.28858" lon="4.32488">
        <ele>833</ele>
        <time>2021-04-26T13:42:30Z</time>
      </trkpt>
      <trkpt lat="45.28853" lon="4.32488">
        <ele>833</ele>
        <time>2021-04-26T13:42:31Z</time>
      </trkpt>
      <trkpt lat="45.28848" lon="4.32489">
        <ele>834</ele>
        <time>2021-04-26T13:42:32Z</time>
      </trkpt>
      <trkpt lat="45.28842" lon="4.32489">
        <ele>834</ele>
        <time>2021-04-26T13:42:33Z</time>
      </trkpt>
      <trkpt lat="45.28837" lon="4.3249">
        <ele>834</ele>
        <time>2021-04-26T13:42:34Z</time>
      </trkpt>
      <trkpt lat="45.28831" lon="4.3249">
        <ele>834</ele>
        <time>2021-04-26T13:42:35Z</time>
      </trkpt>
      <trkpt lat="45.28826" lon="4.32489">
        <ele>834</ele>
        <time>2021-04-26T13:42:36Z</time>
      </trkpt>
      <trkpt lat="45.28821" lon="4.32489">
        <ele>834</ele>
        <time>2021-04-26T13:42:37Z</time>
      </trkpt>
      <trkpt lat="45.28815" lon="4.32488">
        <ele>834</ele>
        <time>2021-04-26T13:42:38Z</time>
      </trkpt>
      <trkpt lat="45.2881" lon="4.32488">
        <ele>834</ele>
        <time>2021-04-26T13:42:39Z</time>
      </trkpt>
      <trkpt lat="45.28804" lon="4.32487">
        <ele>834</ele>
        <time>2021-04-26T13:42:40Z</time>
      </trkpt>
      <trkpt lat="45.28799" lon="4.32486">
        <ele>834</ele>
        <time>2021-04-26T13:42:41Z</time>
      </trkpt>
      <trkpt lat="45.28794" lon="4.32485">
        <ele>834</ele>
        <time>2021-04-26T13:42:42Z</time>
      </trkpt>
      <trkpt lat="45.28788" lon="4.32483">
        <ele>835</ele>
        <time>2021-04-26T13:42:43Z</time>
      </trkpt>
      <trkpt lat="45.28783" lon="4.32482">
        <ele>835</ele>
        <time>2021-04-26T13:42:44Z</time>
      </trkpt>
      <trkpt lat="45.28778" lon="4.3248">
        <ele>835</ele>
        <time>2021-04-26T13:42:45Z</time>
      </trkpt>
      <trkpt lat="45.28772" lon="4.3248">
        <ele>835</ele>
        <time>2021-04-26T13:42:46Z</time>
      </trkpt>
      <trkpt lat="45.28766" lon="4.32478">
        <ele>835</ele>
        <time>2021-04-26T13:42:47Z</time>
      </trkpt>
      <trkpt lat="45.2876" lon="4.32477">
        <ele>835</ele>
        <time>2021-04-26T13:42:48Z</time>
      </trkpt>
      <trkpt lat="45.28755" lon="4.32475">
        <ele>834</ele>
        <time>2021-04-26T13:42:49Z</time>
      </trkpt>
      <trkpt lat="45.2875" lon="4.32472">
        <ele>834</ele>
        <time>2021-04-26T13:42:50Z</time>
      </trkpt>
      <trkpt lat="45.28744" lon="4.32469">
        <ele>834</ele>
        <time>2021-04-26T13:42:51Z</time>
      </trkpt>
      <trkpt lat="45.28739" lon="4.32465">
        <ele>834</ele>
        <time>2021-04-26T13:42:52Z</time>
      </trkpt>
      <trkpt lat="45.28734" lon="4.32461">
        <ele>834</ele>
        <time>2021-04-26T13:42:53Z</time>
      </trkpt>
      <trkpt lat="45.28728" lon="4.32456">
        <ele>834</ele>
        <time>2021-04-26T13:42:54Z</time>
      </trkpt>
      <trkpt lat="45.28723" lon="4.32451">
        <ele>833</ele>
        <time>2021-04-26T13:42:55Z</time>
      </trkpt>
      <trkpt lat="45.28717" lon="4.32446">
        <ele>833</ele>
        <time>2021-04-26T13:42:56Z</time>
      </trkpt>
      <trkpt lat="45.28711" lon="4.3244">
        <ele>832</ele>
        <time>2021-04-26T13:42:57Z</time>
      </trkpt>
      <trkpt lat="45.28705" lon="4.32434">
        <ele>832</ele>
        <time>2021-04-26T13:42:58Z</time>
      </trkpt>
      <trkpt lat="45.28698" lon="4.32428">
        <ele>831</ele>
        <time>2021-04-26T13:42:59Z</time>
      </trkpt>
      <trkpt lat="45.28692" lon="4.32423">
        <ele>831</ele>
        <time>2021-04-26T13:43:00Z</time>
      </trkpt>
      <trkpt lat="45.28685" lon="4.32417">
        <ele>831</ele>
        <time>2021-04-26T13:43:01Z</time>
      </trkpt>
      <trkpt lat="45.28678" lon="4.32412">
        <ele>830</ele>
        <time>2021-04-26T13:43:02Z</time>
      </trkpt>
      <trkpt lat="45.28671" lon="4.32408">
        <ele>830</ele>
        <time>2021-04-26T13:43:03Z</time>
      </trkpt>
      <trkpt lat="45.28664" lon="4.32405">
        <ele>829</ele>
        <time>2021-04-26T13:43:04Z</time>
      </trkpt>
      <trkpt lat="45.28657" lon="4.32403">
        <ele>829</ele>
        <time>2021-04-26T13:43:05Z</time>
      </trkpt>
      <trkpt lat="45.2865" lon="4.32402">
        <ele>829</ele>
        <time>2021-04-26T13:43:06Z</time>
      </trkpt>
      <trkpt lat="45.28643" lon="4.32402">
        <ele>828</ele>
        <time>2021-04-26T13:43:07Z</time>
      </trkpt>
      <trkpt lat="45.28636" lon="4.32404">
        <ele>828</ele>
        <time>2021-04-26T13:43:08Z</time>
      </trkpt>
      <trkpt lat="45.28629" lon="4.32406">
        <ele>828</ele>
        <time>2021-04-26T13:43:09Z</time>
      </trkpt>
      <trkpt lat="45.28623" lon="4.32409">
        <ele>828</ele>
        <time>2021-04-26T13:43:10Z</time>
      </trkpt>
      <trkpt lat="45.28617" lon="4.32411">
        <ele>827</ele>
        <time>2021-04-26T13:43:11Z</time>
      </trkpt>
      <trkpt lat="45.28611" lon="4.32415">
        <ele>827</ele>
        <time>2021-04-26T13:43:12Z</time>
      </trkpt>
      <trkpt lat="45.28607" lon="4.3242">
        <ele>827</ele>
        <time>2021-04-26T13:43:13Z</time>
      </trkpt>
      <trkpt lat="45.28603" lon="4.32426">
        <ele>827</ele>
        <time>2021-04-26T13:43:14Z</time>
      </trkpt>
      <trkpt lat="45.28601" lon="4.32433">
        <ele>827</ele>
        <time>2021-04-26T13:43:15Z</time>
      </trkpt>
      <trkpt lat="45.28599" lon="4.32439">
        <ele>827</ele>
        <time>2021-04-26T13:43:16Z</time>
      </trkpt>
      <trkpt lat="45.28598" lon="4.32443">
        <ele>826</ele>
        <time>2021-04-26T13:43:17Z</time>
      </trkpt>
      <trkpt lat="45.28597" lon="4.32447">
        <ele>826</ele>
        <time>2021-04-26T13:43:18Z</time>
      </trkpt>
      <trkpt lat="45.28598" lon="4.32451">
        <ele>826</ele>
        <time>2021-04-26T13:43:19Z</time>
      </trkpt>
      <trkpt lat="45.28599" lon="4.32454">
        <ele>826</ele>
        <time>2021-04-26T13:43:20Z</time>
      </trkpt>
      <trkpt lat="45.286" lon="4.32458">
        <ele>826</ele>
        <time>2021-04-26T13:43:21Z</time>
      </trkpt>
      <trkpt lat="45.28601" lon="4.32461">
        <ele>825</ele>
        <time>2021-04-26T13:43:22Z</time>
      </trkpt>
      <trkpt lat="45.28602" lon="4.32465">
        <ele>825</ele>
        <time>2021-04-26T13:43:23Z</time>
      </trkpt>
      <trkpt lat="45.28602" lon="4.32468">
        <ele>825</ele>
        <time>2021-04-26T13:43:24Z</time>
      </trkpt>
      <trkpt lat="45.28601" lon="4.32472">
        <ele>825</ele>
        <time>2021-04-26T13:43:26Z</time>
      </trkpt>
      <trkpt lat="45.28599" lon="4.32474">
        <ele>824</ele>
        <time>2021-04-26T13:43:27Z</time>
      </trkpt>
      <trkpt lat="45.28598" lon="4.32477">
        <ele>824</ele>
        <time>2021-04-26T13:43:28Z</time>
      </trkpt>
      <trkpt lat="45.28598" lon="4.32479">
        <ele>824</ele>
        <time>2021-04-26T13:43:29Z</time>
      </trkpt>
      <trkpt lat="45.28598" lon="4.32482">
        <ele>824</ele>
        <time>2021-04-26T13:43:30Z</time>
      </trkpt>
      <trkpt lat="45.28599" lon="4.32485">
        <ele>824</ele>
        <time>2021-04-26T13:43:31Z</time>
      </trkpt>
      <trkpt lat="45.286" lon="4.32488">
        <ele>823</ele>
        <time>2021-04-26T13:43:32Z</time>
      </trkpt>
      <trkpt lat="45.28601" lon="4.32491">
        <ele>823</ele>
        <time>2021-04-26T13:43:33Z</time>
      </trkpt>
      <trkpt lat="45.28602" lon="4.32495">
        <ele>823</ele>
        <time>2021-04-26T13:43:34Z</time>
      </trkpt>
      <trkpt lat="45.28604" lon="4.32499">
        <ele>823</ele>
        <time>2021-04-26T13:43:35Z</time>
      </trkpt>
      <trkpt lat="45.28606" lon="4.32504">
        <ele>823</ele>
        <time>2021-04-26T13:43:36Z</time>
      </trkpt>
      <trkpt lat="45.28608" lon="4.32509">
        <ele>822</ele>
        <time>2021-04-26T13:43:37Z</time>
      </trkpt>
      <trkpt lat="45.28612" lon="4.32513">
        <ele>822</ele>
        <time>2021-04-26T13:43:38Z</time>
      </trkpt>
      <trkpt lat="45.28615" lon="4.32518">
        <ele>822</ele>
        <time>2021-04-26T13:43:39Z</time>
      </trkpt>
      <trkpt lat="45.28619" lon="4.32522">
        <ele>822</ele>
        <time>2021-04-26T13:43:40Z</time>
      </trkpt>
      <trkpt lat="45.28623" lon="4.32526">
        <ele>822</ele>
        <time>2021-04-26T13:43:41Z</time>
      </trkpt>
      <trkpt lat="45.28627" lon="4.32531">
        <ele>822</ele>
        <time>2021-04-26T13:43:42Z</time>
      </trkpt>
      <trkpt lat="45.28631" lon="4.32536">
        <ele>821</ele>
        <time>2021-04-26T13:43:43Z</time>
      </trkpt>
      <trkpt lat="45.28634" lon="4.32543">
        <ele>821</ele>
        <time>2021-04-26T13:43:44Z</time>
      </trkpt>
      <trkpt lat="45.28637" lon="4.3255">
        <ele>821</ele>
        <time>2021-04-26T13:43:45Z</time>
      </trkpt>
      <trkpt lat="45.28638" lon="4.32558">
        <ele>821</ele>
        <time>2021-04-26T13:43:46Z</time>
      </trkpt>
      <trkpt lat="45.28638" lon="4.32566">
        <ele>821</ele>
        <time>2021-04-26T13:43:47Z</time>
      </trkpt>
      <trkpt lat="45.28637" lon="4.32575">
        <ele>821</ele>
        <time>2021-04-26T13:43:48Z</time>
      </trkpt>
      <trkpt lat="45.28636" lon="4.32583">
        <ele>821</ele>
        <time>2021-04-26T13:43:49Z</time>
      </trkpt>
      <trkpt lat="45.28634" lon="4.3259">
        <ele>821</ele>
        <time>2021-04-26T13:43:50Z</time>
      </trkpt>
      <trkpt lat="45.28631" lon="4.32597">
        <ele>820</ele>
        <time>2021-04-26T13:43:51Z</time>
      </trkpt>
      <trkpt lat="45.28627" lon="4.32604">
        <ele>820</ele>
        <time>2021-04-26T13:43:52Z</time>
      </trkpt>
      <trkpt lat="45.28623" lon="4.32612">
        <ele>820</ele>
        <time>2021-04-26T13:43:53Z</time>
      </trkpt>
      <trkpt lat="45.28617" lon="4.32619">
        <ele>820</ele>
        <time>2021-04-26T13:43:54Z</time>
      </trkpt>
      <trkpt lat="45.2861" lon="4.32627">
        <ele>820</ele>
        <time>2021-04-26T13:43:55Z</time>
      </trkpt>
      <trkpt lat="45.28602" lon="4.32633">
        <ele>819</ele>
        <time>2021-04-26T13:43:56Z</time>
      </trkpt>
      <trkpt lat="45.28595" lon="4.32639">
        <ele>819</ele>
        <time>2021-04-26T13:43:57Z</time>
      </trkpt>
      <trkpt lat="45.28588" lon="4.32644">
        <ele>819</ele>
        <time>2021-04-26T13:43:58Z</time>
      </trkpt>
      <trkpt lat="45.28581" lon="4.3265">
        <ele>819</ele>
        <time>2021-04-26T13:43:59Z</time>
      </trkpt>
      <trkpt lat="45.28574" lon="4.32656">
        <ele>819</ele>
        <time>2021-04-26T13:44:00Z</time>
      </trkpt>
      <trkpt lat="45.28567" lon="4.32662">
        <ele>818</ele>
        <time>2021-04-26T13:44:01Z</time>
      </trkpt>
      <trkpt lat="45.28559" lon="4.32668">
        <ele>817</ele>
        <time>2021-04-26T13:44:02Z</time>
      </trkpt>
      <trkpt lat="45.28552" lon="4.32675">
        <ele>817</ele>
        <time>2021-04-26T13:44:03Z</time>
      </trkpt>
      <trkpt lat="45.28544" lon="4.32681">
        <ele>816</ele>
        <time>2021-04-26T13:44:04Z</time>
      </trkpt>
      <trkpt lat="45.28537" lon="4.32687">
        <ele>816</ele>
        <time>2021-04-26T13:44:05Z</time>
      </trkpt>
      <trkpt lat="45.2853" lon="4.32691">
        <ele>816</ele>
        <time>2021-04-26T13:44:06Z</time>
      </trkpt>
      <trkpt lat="45.28522" lon="4.32695">
        <ele>815</ele>
        <time>2021-04-26T13:44:07Z</time>
      </trkpt>
      <trkpt lat="45.28514" lon="4.32697">
        <ele>815</ele>
        <time>2021-04-26T13:44:08Z</time>
      </trkpt>
      <trkpt lat="45.28506" lon="4.32698">
        <ele>814</ele>
        <time>2021-04-26T13:44:09Z</time>
      </trkpt>
      <trkpt lat="45.28497" lon="4.32697">
        <ele>813</ele>
        <time>2021-04-26T13:44:10Z</time>
      </trkpt>
      <trkpt lat="45.28489" lon="4.32694">
        <ele>813</ele>
        <time>2021-04-26T13:44:11Z</time>
      </trkpt>
      <trkpt lat="45.28481" lon="4.32691">
        <ele>813</ele>
        <time>2021-04-26T13:44:12Z</time>
      </trkpt>
      <trkpt lat="45.28473" lon="4.32688">
        <ele>812</ele>
        <time>2021-04-26T13:44:13Z</time>
      </trkpt>
      <trkpt lat="45.28465" lon="4.32685">
        <ele>811</ele>
        <time>2021-04-26T13:44:14Z</time>
      </trkpt>
      <trkpt lat="45.28456" lon="4.32681">
        <ele>810</ele>
        <time>2021-04-26T13:44:15Z</time>
      </trkpt>
      <trkpt lat="45.28447" lon="4.32677">
        <ele>809</ele>
        <time>2021-04-26T13:44:16Z</time>
      </trkpt>
      <trkpt lat="45.28438" lon="4.32674">
        <ele>809</ele>
        <time>2021-04-26T13:44:17Z</time>
      </trkpt>
      <trkpt lat="45.28429" lon="4.32672">
        <ele>807</ele>
        <time>2021-04-26T13:44:18Z</time>
      </trkpt>
      <trkpt lat="45.2842" lon="4.3267">
        <ele>806</ele>
        <time>2021-04-26T13:44:19Z</time>
      </trkpt>
      <trkpt lat="45.28412" lon="4.32667">
        <ele>806</ele>
        <time>2021-04-26T13:44:20Z</time>
      </trkpt>
      <trkpt lat="45.28404" lon="4.32663">
        <ele>805</ele>
        <time>2021-04-26T13:44:21Z</time>
      </trkpt>
      <trkpt lat="45.28396" lon="4.32659">
        <ele>805</ele>
        <time>2021-04-26T13:44:22Z</time>
      </trkpt>
      <trkpt lat="45.28388" lon="4.32656">
        <ele>805</ele>
        <time>2021-04-26T13:44:23Z</time>
      </trkpt>
      <trkpt lat="45.28379" lon="4.32654">
        <ele>805</ele>
        <time>2021-04-26T13:44:24Z</time>
      </trkpt>
      <trkpt lat="45.2837" lon="4.32653">
        <ele>804</ele>
        <time>2021-04-26T13:44:25Z</time>
      </trkpt>
      <trkpt lat="45.28361" lon="4.32654">
        <ele>804</ele>
        <time>2021-04-26T13:44:26Z</time>
      </trkpt>
      <trkpt lat="45.28352" lon="4.32657">
        <ele>804</ele>
        <time>2021-04-26T13:44:27Z</time>
      </trkpt>
      <trkpt lat="45.28344" lon="4.3266">
        <ele>804</ele>
        <time>2021-04-26T13:44:28Z</time>
      </trkpt>
      <trkpt lat="45.28336" lon="4.32663">
        <ele>804</ele>
        <time>2021-04-26T13:44:29Z</time>
      </trkpt>
      <trkpt lat="45.28327" lon="4.32666">
        <ele>803</ele>
        <time>2021-04-26T13:44:30Z</time>
      </trkpt>
      <trkpt lat="45.28317" lon="4.3267">
        <ele>803</ele>
        <time>2021-04-26T13:44:31Z</time>
      </trkpt>
      <trkpt lat="45.28308" lon="4.32673">
        <ele>803</ele>
        <time>2021-04-26T13:44:32Z</time>
      </trkpt>
      <trkpt lat="45.28298" lon="4.32675">
        <ele>803</ele>
        <time>2021-04-26T13:44:33Z</time>
      </trkpt>
      <trkpt lat="45.28289" lon="4.32677">
        <ele>803</ele>
        <time>2021-04-26T13:44:34Z</time>
      </trkpt>
      <trkpt lat="45.28279" lon="4.32678">
        <ele>801</ele>
        <time>2021-04-26T13:44:35Z</time>
      </trkpt>
      <trkpt lat="45.28271" lon="4.32678">
        <ele>801</ele>
        <time>2021-04-26T13:44:36Z</time>
      </trkpt>
      <trkpt lat="45.28262" lon="4.32677">
        <ele>798</ele>
        <time>2021-04-26T13:44:37Z</time>
      </trkpt>
      <trkpt lat="45.28253" lon="4.32676">
        <ele>797</ele>
        <time>2021-04-26T13:44:38Z</time>
      </trkpt>
      <trkpt lat="45.28245" lon="4.32674">
        <ele>796</ele>
        <time>2021-04-26T13:44:39Z</time>
      </trkpt>
      <trkpt lat="45.28237" lon="4.32672">
        <ele>796</ele>
        <time>2021-04-26T13:44:40Z</time>
      </trkpt>
      <trkpt lat="45.28229" lon="4.32669">
        <ele>794</ele>
        <time>2021-04-26T13:44:41Z</time>
      </trkpt>
      <trkpt lat="45.28221" lon="4.32665">
        <ele>793</ele>
        <time>2021-04-26T13:44:42Z</time>
      </trkpt>
      <trkpt lat="45.28213" lon="4.3266">
        <ele>792</ele>
        <time>2021-04-26T13:44:43Z</time>
      </trkpt>
      <trkpt lat="45.28205" lon="4.32656">
        <ele>791</ele>
        <time>2021-04-26T13:44:44Z</time>
      </trkpt>
      <trkpt lat="45.28198" lon="4.32651">
        <ele>790</ele>
        <time>2021-04-26T13:44:45Z</time>
      </trkpt>
      <trkpt lat="45.2819" lon="4.32646">
        <ele>790</ele>
        <time>2021-04-26T13:44:46Z</time>
      </trkpt>
      <trkpt lat="45.28182" lon="4.3264">
        <ele>789</ele>
        <time>2021-04-26T13:44:47Z</time>
      </trkpt>
      <trkpt lat="45.28175" lon="4.32635">
        <ele>788</ele>
        <time>2021-04-26T13:44:48Z</time>
      </trkpt>
      <trkpt lat="45.28167" lon="4.32629">
        <ele>787</ele>
        <time>2021-04-26T13:44:49Z</time>
      </trkpt>
      <trkpt lat="45.28159" lon="4.32622">
        <ele>786</ele>
        <time>2021-04-26T13:44:50Z</time>
      </trkpt>
      <trkpt lat="45.28152" lon="4.32615">
        <ele>786</ele>
        <time>2021-04-26T13:44:51Z</time>
      </trkpt>
      <trkpt lat="45.28145" lon="4.32607">
        <ele>786</ele>
        <time>2021-04-26T13:44:52Z</time>
      </trkpt>
      <trkpt lat="45.28138" lon="4.32599">
        <ele>785</ele>
        <time>2021-04-26T13:44:53Z</time>
      </trkpt>
      <trkpt lat="45.28132" lon="4.3259">
        <ele>784</ele>
        <time>2021-04-26T13:44:54Z</time>
      </trkpt>
      <trkpt lat="45.28125" lon="4.32581">
        <ele>784</ele>
        <time>2021-04-26T13:44:55Z</time>
      </trkpt>
      <trkpt lat="45.28119" lon="4.32571">
        <ele>782</ele>
        <time>2021-04-26T13:44:56Z</time>
      </trkpt>
      <trkpt lat="45.28112" lon="4.32563">
        <ele>782</ele>
        <time>2021-04-26T13:44:57Z</time>
      </trkpt>
      <trkpt lat="45.28104" lon="4.32557">
        <ele>781</ele>
        <time>2021-04-26T13:44:58Z</time>
      </trkpt>
      <trkpt lat="45.28095" lon="4.32554">
        <ele>780</ele>
        <time>2021-04-26T13:44:59Z</time>
      </trkpt>
      <trkpt lat="45.28087" lon="4.32553">
        <ele>779</ele>
        <time>2021-04-26T13:45:00Z</time>
      </trkpt>
      <trkpt lat="45.28078" lon="4.32552">
        <ele>779</ele>
        <time>2021-04-26T13:45:01Z</time>
      </trkpt>
      <trkpt lat="45.2807" lon="4.32551">
        <ele>778</ele>
        <time>2021-04-26T13:45:02Z</time>
      </trkpt>
      <trkpt lat="45.28061" lon="4.3255">
        <ele>778</ele>
        <time>2021-04-26T13:45:03Z</time>
      </trkpt>
      <trkpt lat="45.28053" lon="4.32549">
        <ele>778</ele>
        <time>2021-04-26T13:45:04Z</time>
      </trkpt>
      <trkpt lat="45.28046" lon="4.32549">
        <ele>778</ele>
        <time>2021-04-26T13:45:05Z</time>
      </trkpt>
      <trkpt lat="45.28038" lon="4.32549">
        <ele>778</ele>
        <time>2021-04-26T13:45:06Z</time>
      </trkpt>
      <trkpt lat="45.28031" lon="4.32548">
        <ele>777</ele>
        <time>2021-04-26T13:45:07Z</time>
      </trkpt>
      <trkpt lat="45.28024" lon="4.32548">
        <ele>777</ele>
        <time>2021-04-26T13:45:08Z</time>
      </trkpt>
      <trkpt lat="45.28017" lon="4.32548">
        <ele>777</ele>
        <time>2021-04-26T13:45:09Z</time>
      </trkpt>
      <trkpt lat="45.28011" lon="4.32549">
        <ele>777</ele>
        <time>2021-04-26T13:45:10Z</time>
      </trkpt>
      <trkpt lat="45.28005" lon="4.3255">
        <ele>777</ele>
        <time>2021-04-26T13:45:11Z</time>
      </trkpt>
      <trkpt lat="45.27999" lon="4.3255">
        <ele>776</ele>
        <time>2021-04-26T13:45:12Z</time>
      </trkpt>
      <trkpt lat="45.27993" lon="4.3255">
        <ele>776</ele>
        <time>2021-04-26T13:45:13Z</time>
      </trkpt>
      <trkpt lat="45.27988" lon="4.3255">
        <ele>776</ele>
        <time>2021-04-26T13:45:14Z</time>
      </trkpt>
      <trkpt lat="45.27985" lon="4.3255">
        <ele>776</ele>
        <time>2021-04-26T13:45:15Z</time>
      </trkpt>
      <trkpt lat="45.27982" lon="4.32551">
        <ele>776</ele>
        <time>2021-04-26T13:45:16Z</time>
      </trkpt>
      <trkpt lat="45.2798" lon="4.32551">
        <ele>777</ele>
        <time>2021-04-26T13:45:17Z</time>
      </trkpt>
      <trkpt lat="45.27979" lon="4.32551">
        <ele>777</ele>
        <time>2021-04-26T13:45:22Z</time>
      </trkpt>
      <trkpt lat="45.27972" lon="4.32558">
        <ele>776</ele>
        <time>2021-04-26T13:45:32Z</time>
      </trkpt>
      <trkpt lat="45.27969" lon="4.3256">
        <ele>776</ele>
        <time>2021-04-26T13:45:33Z</time>
      </trkpt>
      <trkpt lat="45.27967" lon="4.32562">
        <ele>776</ele>
        <time>2021-04-26T13:45:34Z</time>
      </trkpt>
      <trkpt lat="45.27964" lon="4.32564">
        <ele>776</ele>
        <time>2021-04-26T13:45:35Z</time>
      </trkpt>
      <trkpt lat="45.27962" lon="4.32565">
        <ele>776</ele>
        <time>2021-04-26T13:45:36Z</time>
      </trkpt>
      <trkpt lat="45.2796" lon="4.32567">
        <ele>776</ele>
        <time>2021-04-26T13:45:37Z</time>
      </trkpt>
      <trkpt lat="45.27957" lon="4.32569">
        <ele>776</ele>
        <time>2021-04-26T13:45:38Z</time>
      </trkpt>
      <trkpt lat="45.27955" lon="4.32573">
        <ele>776</ele>
        <time>2021-04-26T13:45:39Z</time>
      </trkpt>
      <trkpt lat="45.27954" lon="4.32577">
        <ele>776</ele>
        <time>2021-04-26T13:45:40Z</time>
      </trkpt>
      <trkpt lat="45.27954" lon="4.32581">
        <ele>776</ele>
        <time>2021-04-26T13:45:41Z</time>
      </trkpt>
      <trkpt lat="45.27953" lon="4.32586">
        <ele>776</ele>
        <time>2021-04-26T13:45:42Z</time>
      </trkpt>
      <trkpt lat="45.27953" lon="4.32591">
        <ele>776</ele>
        <time>2021-04-26T13:45:43Z</time>
      </trkpt>
      <trkpt lat="45.27952" lon="4.32596">
        <ele>776</ele>
        <time>2021-04-26T13:45:44Z</time>
      </trkpt>
      <trkpt lat="45.27952" lon="4.32601">
        <ele>776</ele>
        <time>2021-04-26T13:45:45Z</time>
      </trkpt>
      <trkpt lat="45.27951" lon="4.32606">
        <ele>776</ele>
        <time>2021-04-26T13:45:46Z</time>
      </trkpt>
      <trkpt lat="45.2795" lon="4.32611">
        <ele>776</ele>
        <time>2021-04-26T13:45:47Z</time>
      </trkpt>
      <trkpt lat="45.2795" lon="4.32616">
        <ele>777</ele>
        <time>2021-04-26T13:45:48Z</time>
      </trkpt>
      <trkpt lat="45.27949" lon="4.3262">
        <ele>777</ele>
        <time>2021-04-26T13:45:49Z</time>
      </trkpt>
      <trkpt lat="45.27948" lon="4.32624">
        <ele>777</ele>
        <time>2021-04-26T13:45:50Z</time>
      </trkpt>
      <trkpt lat="45.27947" lon="4.32628">
        <ele>777</ele>
        <time>2021-04-26T13:45:51Z</time>
      </trkpt>
      <trkpt lat="45.27946" lon="4.3263">
        <ele>777</ele>
        <time>2021-04-26T13:45:52Z</time>
      </trkpt>
      <trkpt lat="45.27943" lon="4.32633">
        <ele>777</ele>
        <time>2021-04-26T13:45:54Z</time>
      </trkpt>
      <trkpt lat="45.2794" lon="4.32632">
        <ele>777</ele>
        <time>2021-04-26T13:45:56Z</time>
      </trkpt>
      <trkpt lat="45.27939" lon="4.32629">
        <ele>777</ele>
        <time>2021-04-26T13:45:57Z</time>
      </trkpt>
      <trkpt lat="45.27937" lon="4.32626">
        <ele>777</ele>
        <time>2021-04-26T13:45:58Z</time>
      </trkpt>
      <trkpt lat="45.27935" lon="4.32622">
        <ele>777</ele>
        <time>2021-04-26T13:45:59Z</time>
      </trkpt>
      <trkpt lat="45.27933" lon="4.32618">
        <ele>777</ele>
        <time>2021-04-26T13:46:00Z</time>
      </trkpt>
      <trkpt lat="45.27931" lon="4.32614">
        <ele>777</ele>
        <time>2021-04-26T13:46:01Z</time>
      </trkpt>
      <trkpt lat="45.27929" lon="4.32609">
        <ele>777</ele>
        <time>2021-04-26T13:46:02Z</time>
      </trkpt>
      <trkpt lat="45.27926" lon="4.32605">
        <ele>777</ele>
        <time>2021-04-26T13:46:03Z</time>
      </trkpt>
      <trkpt lat="45.27924" lon="4.326">
        <ele>777</ele>
        <time>2021-04-26T13:46:04Z</time>
      </trkpt>
      <trkpt lat="45.27923" lon="4.32594">
        <ele>777</ele>
        <time>2021-04-26T13:46:05Z</time>
      </trkpt>
      <trkpt lat="45.27921" lon="4.32589">
        <ele>777</ele>
        <time>2021-04-26T13:46:06Z</time>
      </trkpt>
      <trkpt lat="45.27919" lon="4.32584">
        <ele>777</ele>
        <time>2021-04-26T13:46:07Z</time>
      </trkpt>
      <trkpt lat="45.27917" lon="4.3258">
        <ele>777</ele>
        <time>2021-04-26T13:46:08Z</time>
      </trkpt>
      <trkpt lat="45.27915" lon="4.32575">
        <ele>777</ele>
        <time>2021-04-26T13:46:09Z</time>
      </trkpt>
      <trkpt lat="45.27913" lon="4.32571">
        <ele>777</ele>
        <time>2021-04-26T13:46:10Z</time>
      </trkpt>
      <trkpt lat="45.27911" lon="4.32567">
        <ele>778</ele>
        <time>2021-04-26T13:46:11Z</time>
      </trkpt>
      <trkpt lat="45.27909" lon="4.32563">
        <ele>778</ele>
        <time>2021-04-26T13:46:12Z</time>
      </trkpt>
      <trkpt lat="45.27908" lon="4.32558">
        <ele>778</ele>
        <time>2021-04-26T13:46:13Z</time>
      </trkpt>
      <trkpt lat="45.27907" lon="4.32553">
        <ele>777</ele>
        <time>2021-04-26T13:46:14Z</time>
      </trkpt>
      <trkpt lat="45.27907" lon="4.32547">
        <ele>777</ele>
        <time>2021-04-26T13:46:15Z</time>
      </trkpt>
      <trkpt lat="45.27906" lon="4.32541">
        <ele>777</ele>
        <time>2021-04-26T13:46:16Z</time>
      </trkpt>
      <trkpt lat="45.27905" lon="4.32534">
        <ele>777</ele>
        <time>2021-04-26T13:46:17Z</time>
      </trkpt>
      <trkpt lat="45.27904" lon="4.32527">
        <ele>777</ele>
        <time>2021-04-26T13:46:18Z</time>
      </trkpt>
      <trkpt lat="45.27904" lon="4.3252">
        <ele>777</ele>
        <time>2021-04-26T13:46:19Z</time>
      </trkpt>
      <trkpt lat="45.27904" lon="4.32512">
        <ele>777</ele>
        <time>2021-04-26T13:46:20Z</time>
      </trkpt>
      <trkpt lat="45.27905" lon="4.32504">
        <ele>777</ele>
        <time>2021-04-26T13:46:21Z</time>
      </trkpt>
      <trkpt lat="45.27906" lon="4.32494">
        <ele>777</ele>
        <time>2021-04-26T13:46:22Z</time>
      </trkpt>
      <trkpt lat="45.27907" lon="4.32485">
        <ele>776</ele>
        <time>2021-04-26T13:46:23Z</time>
      </trkpt>
      <trkpt lat="45.27908" lon="4.32475">
        <ele>776</ele>
        <time>2021-04-26T13:46:24Z</time>
      </trkpt>
      <trkpt lat="45.27908" lon="4.32465">
        <ele>776</ele>
        <time>2021-04-26T13:46:25Z</time>
      </trkpt>
      <trkpt lat="45.27908" lon="4.32456">
        <ele>776</ele>
        <time>2021-04-26T13:46:26Z</time>
      </trkpt>
      <trkpt lat="45.27908" lon="4.32448">
        <ele>776</ele>
        <time>2021-04-26T13:46:27Z</time>
      </trkpt>
      <trkpt lat="45.27908" lon="4.32441">
        <ele>776</ele>
        <time>2021-04-26T13:46:28Z</time>
      </trkpt>
      <trkpt lat="45.27907" lon="4.32434">
        <ele>776</ele>
        <time>2021-04-26T13:46:29Z</time>
      </trkpt>
      <trkpt lat="45.27906" lon="4.32427">
        <ele>776</ele>
        <time>2021-04-26T13:46:30Z</time>
      </trkpt>
      <trkpt lat="45.27905" lon="4.3242">
        <ele>776</ele>
        <time>2021-04-26T13:46:31Z</time>
      </trkpt>
      <trkpt lat="45.27905" lon="4.32413">
        <ele>775</ele>
        <time>2021-04-26T13:46:32Z</time>
      </trkpt>
      <trkpt lat="45.27904" lon="4.32405">
        <ele>775</ele>
        <time>2021-04-26T13:46:33Z</time>
      </trkpt>
      <trkpt lat="45.27903" lon="4.32397">
        <ele>775</ele>
        <time>2021-04-26T13:46:34Z</time>
      </trkpt>
      <trkpt lat="45.27902" lon="4.32389">
        <ele>775</ele>
        <time>2021-04-26T13:46:35Z</time>
      </trkpt>
      <trkpt lat="45.27902" lon="4.32381">
        <ele>775</ele>
        <time>2021-04-26T13:46:36Z</time>
      </trkpt>
      <trkpt lat="45.27901" lon="4.32374">
        <ele>775</ele>
        <time>2021-04-26T13:46:37Z</time>
      </trkpt>
      <trkpt lat="45.27902" lon="4.32366">
        <ele>775</ele>
        <time>2021-04-26T13:46:38Z</time>
      </trkpt>
      <trkpt lat="45.27902" lon="4.32359">
        <ele>775</ele>
        <time>2021-04-26T13:46:39Z</time>
      </trkpt>
      <trkpt lat="45.27904" lon="4.32352">
        <ele>775</ele>
        <time>2021-04-26T13:46:40Z</time>
      </trkpt>
      <trkpt lat="45.27905" lon="4.32345">
        <ele>775</ele>
        <time>2021-04-26T13:46:41Z</time>
      </trkpt>
      <trkpt lat="45.27907" lon="4.32338">
        <ele>775</ele>
        <time>2021-04-26T13:46:42Z</time>
      </trkpt>
      <trkpt lat="45.27907" lon="4.32332">
        <ele>775</ele>
        <time>2021-04-26T13:46:43Z</time>
      </trkpt>
      <trkpt lat="45.27906" lon="4.32325">
        <ele>775</ele>
        <time>2021-04-26T13:46:44Z</time>
      </trkpt>
      <trkpt lat="45.27905" lon="4.32319">
        <ele>775</ele>
        <time>2021-04-26T13:46:45Z</time>
      </trkpt>
      <trkpt lat="45.27903" lon="4.32313">
        <ele>775</ele>
        <time>2021-04-26T13:46:46Z</time>
      </trkpt>
      <trkpt lat="45.27902" lon="4.32308">
        <ele>775</ele>
        <time>2021-04-26T13:46:47Z</time>
      </trkpt>
      <trkpt lat="45.279" lon="4.32304">
        <ele>775</ele>
        <time>2021-04-26T13:46:48Z</time>
      </trkpt>
      <trkpt lat="45.27897" lon="4.32302">
        <ele>775</ele>
        <time>2021-04-26T13:46:49Z</time>
      </trkpt>
      <trkpt lat="45.27895" lon="4.32299">
        <ele>775</ele>
        <time>2021-04-26T13:46:50Z</time>
      </trkpt>
      <trkpt lat="45.27894" lon="4.32297">
        <ele>775</ele>
        <time>2021-04-26T13:46:51Z</time>
      </trkpt>
      <trkpt lat="45.27894" lon="4.32293">
        <ele>775</ele>
        <time>2021-04-26T13:46:52Z</time>
      </trkpt>
      <trkpt lat="45.27893" lon="4.3229">
        <ele>775</ele>
        <time>2021-04-26T13:46:53Z</time>
      </trkpt>
      <trkpt lat="45.27894" lon="4.32287">
        <ele>775</ele>
        <time>2021-04-26T13:46:54Z</time>
      </trkpt>
      <trkpt lat="45.27894" lon="4.32283">
        <ele>775</ele>
        <time>2021-04-26T13:46:55Z</time>
      </trkpt>
      <trkpt lat="45.27894" lon="4.3228">
        <ele>775</ele>
        <time>2021-04-26T13:46:56Z</time>
      </trkpt>
      <trkpt lat="45.27893" lon="4.32276">
        <ele>775</ele>
        <time>2021-04-26T13:46:57Z</time>
      </trkpt>
      <trkpt lat="45.27892" lon="4.32272">
        <ele>775</ele>
        <time>2021-04-26T13:46:58Z</time>
      </trkpt>
      <trkpt lat="45.27891" lon="4.32269">
        <ele>775</ele>
        <time>2021-04-26T13:46:59Z</time>
      </trkpt>
      <trkpt lat="45.27891" lon="4.32265">
        <ele>775</ele>
        <time>2021-04-26T13:47:00Z</time>
      </trkpt>
      <trkpt lat="45.2789" lon="4.32262">
        <ele>775</ele>
        <time>2021-04-26T13:47:01Z</time>
      </trkpt>
      <trkpt lat="45.27888" lon="4.32258">
        <ele>775</ele>
        <time>2021-04-26T13:47:02Z</time>
      </trkpt>
      <trkpt lat="45.27887" lon="4.32254">
        <ele>776</ele>
        <time>2021-04-26T13:47:03Z</time>
      </trkpt>
      <trkpt lat="45.27885" lon="4.32249">
        <ele>776</ele>
        <time>2021-04-26T13:47:04Z</time>
      </trkpt>
      <trkpt lat="45.27884" lon="4.32245">
        <ele>776</ele>
        <time>2021-04-26T13:47:05Z</time>
      </trkpt>
      <trkpt lat="45.27883" lon="4.32241">
        <ele>776</ele>
        <time>2021-04-26T13:47:06Z</time>
      </trkpt>
      <trkpt lat="45.27881" lon="4.32237">
        <ele>776</ele>
        <time>2021-04-26T13:47:07Z</time>
      </trkpt>
      <trkpt lat="45.2788" lon="4.32233">
        <ele>776</ele>
        <time>2021-04-26T13:47:08Z</time>
      </trkpt>
      <trkpt lat="45.27878" lon="4.32229">
        <ele>776</ele>
        <time>2021-04-26T13:47:09Z</time>
      </trkpt>
      <trkpt lat="45.27876" lon="4.32225">
        <ele>776</ele>
        <time>2021-04-26T13:47:10Z</time>
      </trkpt>
      <trkpt lat="45.27875" lon="4.3222">
        <ele>777</ele>
        <time>2021-04-26T13:47:11Z</time>
      </trkpt>
      <trkpt lat="45.27873" lon="4.32216">
        <ele>777</ele>
        <time>2021-04-26T13:47:12Z</time>
      </trkpt>
      <trkpt lat="45.27871" lon="4.32212">
        <ele>777</ele>
        <time>2021-04-26T13:47:13Z</time>
      </trkpt>
      <trkpt lat="45.2787" lon="4.32209">
        <ele>777</ele>
        <time>2021-04-26T13:47:14Z</time>
      </trkpt>
      <trkpt lat="45.27868" lon="4.32205">
        <ele>777</ele>
        <time>2021-04-26T13:47:15Z</time>
      </trkpt>
      <trkpt lat="45.27866" lon="4.32203">
        <ele>777</ele>
        <time>2021-04-26T13:47:16Z</time>
      </trkpt>
      <trkpt lat="45.27865" lon="4.322">
        <ele>778</ele>
        <time>2021-04-26T13:47:17Z</time>
      </trkpt>
      <trkpt lat="45.27863" lon="4.32198">
        <ele>778</ele>
        <time>2021-04-26T13:47:18Z</time>
      </trkpt>
      <trkpt lat="45.27861" lon="4.32195">
        <ele>778</ele>
        <time>2021-04-26T13:47:19Z</time>
      </trkpt>
      <trkpt lat="45.2786" lon="4.32192">
        <ele>778</ele>
        <time>2021-04-26T13:47:20Z</time>
      </trkpt>
      <trkpt lat="45.27858" lon="4.32189">
        <ele>779</ele>
        <time>2021-04-26T13:47:21Z</time>
      </trkpt>
      <trkpt lat="45.27857" lon="4.32186">
        <ele>779</ele>
        <time>2021-04-26T13:47:22Z</time>
      </trkpt>
      <trkpt lat="45.27855" lon="4.32184">
        <ele>779</ele>
        <time>2021-04-26T13:47:23Z</time>
      </trkpt>
      <trkpt lat="45.27853" lon="4.32181">
        <ele>779</ele>
        <time>2021-04-26T13:47:24Z</time>
      </trkpt>
      <trkpt lat="45.27852" lon="4.32179">
        <ele>779</ele>
        <time>2021-04-26T13:47:25Z</time>
      </trkpt>
      <trkpt lat="45.2785" lon="4.32176">
        <ele>779</ele>
        <time>2021-04-26T13:47:26Z</time>
      </trkpt>
      <trkpt lat="45.27849" lon="4.32174">
        <ele>779</ele>
        <time>2021-04-26T13:47:27Z</time>
      </trkpt>
      <trkpt lat="45.27847" lon="4.32171">
        <ele>779</ele>
        <time>2021-04-26T13:47:28Z</time>
      </trkpt>
      <trkpt lat="45.27845" lon="4.32169">
        <ele>780</ele>
        <time>2021-04-26T13:47:29Z</time>
      </trkpt>
      <trkpt lat="45.27843" lon="4.32167">
        <ele>780</ele>
        <time>2021-04-26T13:47:30Z</time>
      </trkpt>
      <trkpt lat="45.27841" lon="4.32165">
        <ele>780</ele>
        <time>2021-04-26T13:47:31Z</time>
      </trkpt>
      <trkpt lat="45.27839" lon="4.32162">
        <ele>780</ele>
        <time>2021-04-26T13:47:32Z</time>
      </trkpt>
      <trkpt lat="45.27836" lon="4.3216">
        <ele>781</ele>
        <time>2021-04-26T13:47:33Z</time>
      </trkpt>
      <trkpt lat="45.27834" lon="4.32158">
        <ele>781</ele>
        <time>2021-04-26T13:47:34Z</time>
      </trkpt>
      <trkpt lat="45.27832" lon="4.32155">
        <ele>781</ele>
        <time>2021-04-26T13:47:35Z</time>
      </trkpt>
      <trkpt lat="45.27829" lon="4.32153">
        <ele>782</ele>
        <time>2021-04-26T13:47:36Z</time>
      </trkpt>
      <trkpt lat="45.27827" lon="4.32151">
        <ele>782</ele>
        <time>2021-04-26T13:47:37Z</time>
      </trkpt>
      <trkpt lat="45.27825" lon="4.32148">
        <ele>782</ele>
        <time>2021-04-26T13:47:38Z</time>
      </trkpt>
      <trkpt lat="45.27822" lon="4.32146">
        <ele>782</ele>
        <time>2021-04-26T13:47:39Z</time>
      </trkpt>
      <trkpt lat="45.2782" lon="4.32143">
        <ele>783</ele>
        <time>2021-04-26T13:47:40Z</time>
      </trkpt>
      <trkpt lat="45.27817" lon="4.32141">
        <ele>783</ele>
        <time>2021-04-26T13:47:41Z</time>
      </trkpt>
      <trkpt lat="45.27815" lon="4.32139">
        <ele>783</ele>
        <time>2021-04-26T13:47:42Z</time>
      </trkpt>
      <trkpt lat="45.27812" lon="4.32136">
        <ele>784</ele>
        <time>2021-04-26T13:47:43Z</time>
      </trkpt>
      <trkpt lat="45.2781" lon="4.32134">
        <ele>784</ele>
        <time>2021-04-26T13:47:44Z</time>
      </trkpt>
      <trkpt lat="45.27807" lon="4.32131">
        <ele>784</ele>
        <time>2021-04-26T13:47:45Z</time>
      </trkpt>
      <trkpt lat="45.27804" lon="4.32129">
        <ele>785</ele>
        <time>2021-04-26T13:47:46Z</time>
      </trkpt>
      <trkpt lat="45.27802" lon="4.32126">
        <ele>785</ele>
        <time>2021-04-26T13:47:47Z</time>
      </trkpt>
      <trkpt lat="45.27799" lon="4.32124">
        <ele>786</ele>
        <time>2021-04-26T13:47:48Z</time>
      </trkpt>
      <trkpt lat="45.27797" lon="4.32122">
        <ele>786</ele>
        <time>2021-04-26T13:47:49Z</time>
      </trkpt>
      <trkpt lat="45.27794" lon="4.3212">
        <ele>786</ele>
        <time>2021-04-26T13:47:50Z</time>
      </trkpt>
      <trkpt lat="45.27791" lon="4.32119">
        <ele>787</ele>
        <time>2021-04-26T13:47:51Z</time>
      </trkpt>
      <trkpt lat="45.27788" lon="4.32117">
        <ele>787</ele>
        <time>2021-04-26T13:47:52Z</time>
      </trkpt>
      <trkpt lat="45.27785" lon="4.32114">
        <ele>788</ele>
        <time>2021-04-26T13:47:53Z</time>
      </trkpt>
      <trkpt lat="45.27783" lon="4.32112">
        <ele>788</ele>
        <time>2021-04-26T13:47:54Z</time>
      </trkpt>
      <trkpt lat="45.27781" lon="4.3211">
        <ele>788</ele>
        <time>2021-04-26T13:47:55Z</time>
      </trkpt>
      <trkpt lat="45.27779" lon="4.32107">
        <ele>788</ele>
        <time>2021-04-26T13:47:56Z</time>
      </trkpt>
      <trkpt lat="45.27776" lon="4.32105">
        <ele>789</ele>
        <time>2021-04-26T13:47:57Z</time>
      </trkpt>
      <trkpt lat="45.27773" lon="4.32102">
        <ele>789</ele>
        <time>2021-04-26T13:47:58Z</time>
      </trkpt>
      <trkpt lat="45.2777" lon="4.321">
        <ele>789</ele>
        <time>2021-04-26T13:47:59Z</time>
      </trkpt>
      <trkpt lat="45.27767" lon="4.32098">
        <ele>789</ele>
        <time>2021-04-26T13:48:00Z</time>
      </trkpt>
      <trkpt lat="45.27765" lon="4.32096">
        <ele>789</ele>
        <time>2021-04-26T13:48:01Z</time>
      </trkpt>
      <trkpt lat="45.27762" lon="4.32094">
        <ele>789</ele>
        <time>2021-04-26T13:48:02Z</time>
      </trkpt>
      <trkpt lat="45.27759" lon="4.32091">
        <ele>790</ele>
        <time>2021-04-26T13:48:03Z</time>
      </trkpt>
      <trkpt lat="45.27757" lon="4.32088">
        <ele>790</ele>
        <time>2021-04-26T13:48:04Z</time>
      </trkpt>
      <trkpt lat="45.27754" lon="4.32085">
        <ele>790</ele>
        <time>2021-04-26T13:48:05Z</time>
      </trkpt>
      <trkpt lat="45.27752" lon="4.32081">
        <ele>790</ele>
        <time>2021-04-26T13:48:06Z</time>
      </trkpt>
      <trkpt lat="45.2775" lon="4.32078">
        <ele>791</ele>
        <time>2021-04-26T13:48:07Z</time>
      </trkpt>
      <trkpt lat="45.27747" lon="4.32074">
        <ele>791</ele>
        <time>2021-04-26T13:48:08Z</time>
      </trkpt>
      <trkpt lat="45.27745" lon="4.3207">
        <ele>791</ele>
        <time>2021-04-26T13:48:09Z</time>
      </trkpt>
      <trkpt lat="45.27742" lon="4.32067">
        <ele>792</ele>
        <time>2021-04-26T13:48:10Z</time>
      </trkpt>
      <trkpt lat="45.2774" lon="4.32063">
        <ele>792</ele>
        <time>2021-04-26T13:48:11Z</time>
      </trkpt>
      <trkpt lat="45.27738" lon="4.3206">
        <ele>792</ele>
        <time>2021-04-26T13:48:12Z</time>
      </trkpt>
      <trkpt lat="45.27736" lon="4.32056">
        <ele>792</ele>
        <time>2021-04-26T13:48:13Z</time>
      </trkpt>
      <trkpt lat="45.27734" lon="4.32051">
        <ele>792</ele>
        <time>2021-04-26T13:48:14Z</time>
      </trkpt>
      <trkpt lat="45.27732" lon="4.32046">
        <ele>793</ele>
        <time>2021-04-26T13:48:15Z</time>
      </trkpt>
      <trkpt lat="45.27731" lon="4.32041">
        <ele>793</ele>
        <time>2021-04-26T13:48:16Z</time>
      </trkpt>
      <trkpt lat="45.27731" lon="4.32036">
        <ele>794</ele>
        <time>2021-04-26T13:48:17Z</time>
      </trkpt>
      <trkpt lat="45.2773" lon="4.32032">
        <ele>794</ele>
        <time>2021-04-26T13:48:18Z</time>
      </trkpt>
      <trkpt lat="45.27729" lon="4.32027">
        <ele>794</ele>
        <time>2021-04-26T13:48:19Z</time>
      </trkpt>
      <trkpt lat="45.27729" lon="4.32022">
        <ele>795</ele>
        <time>2021-04-26T13:48:20Z</time>
      </trkpt>
      <trkpt lat="45.27728" lon="4.32017">
        <ele>795</ele>
        <time>2021-04-26T13:48:21Z</time>
      </trkpt>
      <trkpt lat="45.27727" lon="4.32012">
        <ele>795</ele>
        <time>2021-04-26T13:48:22Z</time>
      </trkpt>
      <trkpt lat="45.27726" lon="4.32007">
        <ele>795</ele>
        <time>2021-04-26T13:48:23Z</time>
      </trkpt>
      <trkpt lat="45.27726" lon="4.32002">
        <ele>796</ele>
        <time>2021-04-26T13:48:24Z</time>
      </trkpt>
      <trkpt lat="45.27725" lon="4.31997">
        <ele>796</ele>
        <time>2021-04-26T13:48:25Z</time>
      </trkpt>
      <trkpt lat="45.27724" lon="4.31992">
        <ele>797</ele>
        <time>2021-04-26T13:48:26Z</time>
      </trkpt>
      <trkpt lat="45.27724" lon="4.31987">
        <ele>797</ele>
        <time>2021-04-26T13:48:27Z</time>
      </trkpt>
      <trkpt lat="45.27723" lon="4.31982">
        <ele>797</ele>
        <time>2021-04-26T13:48:28Z</time>
      </trkpt>
      <trkpt lat="45.27722" lon="4.31977">
        <ele>798</ele>
        <time>2021-04-26T13:48:29Z</time>
      </trkpt>
      <trkpt lat="45.27722" lon="4.31972">
        <ele>798</ele>
        <time>2021-04-26T13:48:30Z</time>
      </trkpt>
      <trkpt lat="45.27721" lon="4.31966">
        <ele>799</ele>
        <time>2021-04-26T13:48:31Z</time>
      </trkpt>
      <trkpt lat="45.2772" lon="4.31961">
        <ele>799</ele>
        <time>2021-04-26T13:48:32Z</time>
      </trkpt>
      <trkpt lat="45.2772" lon="4.31956">
        <ele>799</ele>
        <time>2021-04-26T13:48:33Z</time>
      </trkpt>
      <trkpt lat="45.27719" lon="4.31951">
        <ele>800</ele>
        <time>2021-04-26T13:48:34Z</time>
      </trkpt>
      <trkpt lat="45.27719" lon="4.31945">
        <ele>800</ele>
        <time>2021-04-26T13:48:35Z</time>
      </trkpt>
      <trkpt lat="45.27718" lon="4.3194">
        <ele>800</ele>
        <time>2021-04-26T13:48:36Z</time>
      </trkpt>
      <trkpt lat="45.27718" lon="4.31935">
        <ele>800</ele>
        <time>2021-04-26T13:48:37Z</time>
      </trkpt>
      <trkpt lat="45.27718" lon="4.3193">
        <ele>800</ele>
        <time>2021-04-26T13:48:38Z</time>
      </trkpt>
      <trkpt lat="45.27718" lon="4.31925">
        <ele>801</ele>
        <time>2021-04-26T13:48:39Z</time>
      </trkpt>
      <trkpt lat="45.27717" lon="4.31919">
        <ele>801</ele>
        <time>2021-04-26T13:48:40Z</time>
      </trkpt>
      <trkpt lat="45.27717" lon="4.31913">
        <ele>801</ele>
        <time>2021-04-26T13:48:41Z</time>
      </trkpt>
      <trkpt lat="45.27718" lon="4.31907">
        <ele>801</ele>
        <time>2021-04-26T13:48:42Z</time>
      </trkpt>
      <trkpt lat="45.27719" lon="4.31901">
        <ele>801</ele>
        <time>2021-04-26T13:48:43Z</time>
      </trkpt>
      <trkpt lat="45.2772" lon="4.31895">
        <ele>801</ele>
        <time>2021-04-26T13:48:44Z</time>
      </trkpt>
      <trkpt lat="45.27722" lon="4.31888">
        <ele>801</ele>
        <time>2021-04-26T13:48:45Z</time>
      </trkpt>
      <trkpt lat="45.27724" lon="4.31882">
        <ele>801</ele>
        <time>2021-04-26T13:48:46Z</time>
      </trkpt>
      <trkpt lat="45.27726" lon="4.31876">
        <ele>801</ele>
        <time>2021-04-26T13:48:47Z</time>
      </trkpt>
      <trkpt lat="45.27727" lon="4.3187">
        <ele>801</ele>
        <time>2021-04-26T13:48:48Z</time>
      </trkpt>
      <trkpt lat="45.27729" lon="4.31863">
        <ele>800</ele>
        <time>2021-04-26T13:48:49Z</time>
      </trkpt>
      <trkpt lat="45.2773" lon="4.31856">
        <ele>800</ele>
        <time>2021-04-26T13:48:50Z</time>
      </trkpt>
      <trkpt lat="45.2773" lon="4.31849">
        <ele>800</ele>
        <time>2021-04-26T13:48:51Z</time>
      </trkpt>
      <trkpt lat="45.27729" lon="4.31842">
        <ele>800</ele>
        <time>2021-04-26T13:48:52Z</time>
      </trkpt>
      <trkpt lat="45.27727" lon="4.31835">
        <ele>800</ele>
        <time>2021-04-26T13:48:53Z</time>
      </trkpt>
      <trkpt lat="45.27725" lon="4.31828">
        <ele>800</ele>
        <time>2021-04-26T13:48:54Z</time>
      </trkpt>
      <trkpt lat="45.27723" lon="4.31821">
        <ele>800</ele>
        <time>2021-04-26T13:48:55Z</time>
      </trkpt>
      <trkpt lat="45.2772" lon="4.31814">
        <ele>801</ele>
        <time>2021-04-26T13:48:56Z</time>
      </trkpt>
      <trkpt lat="45.27718" lon="4.31807">
        <ele>801</ele>
        <time>2021-04-26T13:48:57Z</time>
      </trkpt>
      <trkpt lat="45.27715" lon="4.318">
        <ele>801</ele>
        <time>2021-04-26T13:48:58Z</time>
      </trkpt>
      <trkpt lat="45.27713" lon="4.31792">
        <ele>801</ele>
        <time>2021-04-26T13:48:59Z</time>
      </trkpt>
      <trkpt lat="45.2771" lon="4.31785">
        <ele>801</ele>
        <time>2021-04-26T13:49:00Z</time>
      </trkpt>
      <trkpt lat="45.27708" lon="4.31778">
        <ele>801</ele>
        <time>2021-04-26T13:49:01Z</time>
      </trkpt>
      <trkpt lat="45.27706" lon="4.31771">
        <ele>800</ele>
        <time>2021-04-26T13:49:02Z</time>
      </trkpt>
      <trkpt lat="45.27703" lon="4.31764">
        <ele>800</ele>
        <time>2021-04-26T13:49:03Z</time>
      </trkpt>
      <trkpt lat="45.27701" lon="4.31757">
        <ele>800</ele>
        <time>2021-04-26T13:49:04Z</time>
      </trkpt>
      <trkpt lat="45.277" lon="4.3175">
        <ele>800</ele>
        <time>2021-04-26T13:49:05Z</time>
      </trkpt>
      <trkpt lat="45.27699" lon="4.31743">
        <ele>800</ele>
        <time>2021-04-26T13:49:06Z</time>
      </trkpt>
      <trkpt lat="45.27699" lon="4.31735">
        <ele>800</ele>
        <time>2021-04-26T13:49:07Z</time>
      </trkpt>
      <trkpt lat="45.27699" lon="4.31728">
        <ele>800</ele>
        <time>2021-04-26T13:49:08Z</time>
      </trkpt>
      <trkpt lat="45.277" lon="4.3172">
        <ele>800</ele>
        <time>2021-04-26T13:49:09Z</time>
      </trkpt>
      <trkpt lat="45.27702" lon="4.31713">
        <ele>800</ele>
        <time>2021-04-26T13:49:10Z</time>
      </trkpt>
      <trkpt lat="45.27705" lon="4.31706">
        <ele>800</ele>
        <time>2021-04-26T13:49:11Z</time>
      </trkpt>
      <trkpt lat="45.27713" lon="4.31695">
        <ele>800</ele>
        <time>2021-04-26T13:49:13Z</time>
      </trkpt>
      <trkpt lat="45.27717" lon="4.3169">
        <ele>800</ele>
        <time>2021-04-26T13:49:14Z</time>
      </trkpt>
      <trkpt lat="45.27721" lon="4.31684">
        <ele>801</ele>
        <time>2021-04-26T13:49:15Z</time>
      </trkpt>
      <trkpt lat="45.27723" lon="4.31678">
        <ele>801</ele>
        <time>2021-04-26T13:49:16Z</time>
      </trkpt>
      <trkpt lat="45.27724" lon="4.31671">
        <ele>801</ele>
        <time>2021-04-26T13:49:17Z</time>
      </trkpt>
      <trkpt lat="45.27724" lon="4.31664">
        <ele>801</ele>
        <time>2021-04-26T13:49:18Z</time>
      </trkpt>
      <trkpt lat="45.27723" lon="4.31658">
        <ele>801</ele>
        <time>2021-04-26T13:49:19Z</time>
      </trkpt>
      <trkpt lat="45.27722" lon="4.31653">
        <ele>801</ele>
        <time>2021-04-26T13:49:20Z</time>
      </trkpt>
      <trkpt lat="45.27721" lon="4.31649">
        <ele>802</ele>
        <time>2021-04-26T13:49:21Z</time>
      </trkpt>
      <trkpt lat="45.2772" lon="4.31645">
        <ele>802</ele>
        <time>2021-04-26T13:49:22Z</time>
      </trkpt>
      <trkpt lat="45.27719" lon="4.3164">
        <ele>802</ele>
        <time>2021-04-26T13:49:23Z</time>
      </trkpt>
      <trkpt lat="45.27716" lon="4.31635">
        <ele>802</ele>
        <time>2021-04-26T13:49:24Z</time>
      </trkpt>
      <trkpt lat="45.27713" lon="4.31631">
        <ele>802</ele>
        <time>2021-04-26T13:49:25Z</time>
      </trkpt>
      <trkpt lat="45.27712" lon="4.31626">
        <ele>802</ele>
        <time>2021-04-26T13:49:26Z</time>
      </trkpt>
      <trkpt lat="45.27709" lon="4.31622">
        <ele>803</ele>
        <time>2021-04-26T13:49:27Z</time>
      </trkpt>
      <trkpt lat="45.27707" lon="4.31617">
        <ele>803</ele>
        <time>2021-04-26T13:49:28Z</time>
      </trkpt>
      <trkpt lat="45.27705" lon="4.31614">
        <ele>803</ele>
        <time>2021-04-26T13:49:29Z</time>
      </trkpt>
      <trkpt lat="45.27702" lon="4.31611">
        <ele>804</ele>
        <time>2021-04-26T13:49:30Z</time>
      </trkpt>
      <trkpt lat="45.27699" lon="4.31607">
        <ele>804</ele>
        <time>2021-04-26T13:49:31Z</time>
      </trkpt>
      <trkpt lat="45.27696" lon="4.31604">
        <ele>804</ele>
        <time>2021-04-26T13:49:32Z</time>
      </trkpt>
      <trkpt lat="45.27694" lon="4.31601">
        <ele>804</ele>
        <time>2021-04-26T13:49:33Z</time>
      </trkpt>
      <trkpt lat="45.27691" lon="4.31597">
        <ele>805</ele>
        <time>2021-04-26T13:49:34Z</time>
      </trkpt>
      <trkpt lat="45.27689" lon="4.31594">
        <ele>805</ele>
        <time>2021-04-26T13:49:35Z</time>
      </trkpt>
      <trkpt lat="45.27686" lon="4.31591">
        <ele>805</ele>
        <time>2021-04-26T13:49:36Z</time>
      </trkpt>
      <trkpt lat="45.27683" lon="4.31588">
        <ele>805</ele>
        <time>2021-04-26T13:49:37Z</time>
      </trkpt>
      <trkpt lat="45.27681" lon="4.31585">
        <ele>805</ele>
        <time>2021-04-26T13:49:38Z</time>
      </trkpt>
      <trkpt lat="45.27679" lon="4.31584">
        <ele>805</ele>
        <time>2021-04-26T13:49:39Z</time>
      </trkpt>
      <trkpt lat="45.27676" lon="4.31582">
        <ele>805</ele>
        <time>2021-04-26T13:49:40Z</time>
      </trkpt>
      <trkpt lat="45.27674" lon="4.31579">
        <ele>805</ele>
        <time>2021-04-26T13:49:41Z</time>
      </trkpt>
      <trkpt lat="45.27672" lon="4.31575">
        <ele>805</ele>
        <time>2021-04-26T13:49:42Z</time>
      </trkpt>
      <trkpt lat="45.2767" lon="4.3157">
        <ele>805</ele>
        <time>2021-04-26T13:49:43Z</time>
      </trkpt>
      <trkpt lat="45.27668" lon="4.31564">
        <ele>805</ele>
        <time>2021-04-26T13:49:44Z</time>
      </trkpt>
      <trkpt lat="45.27667" lon="4.31557">
        <ele>805</ele>
        <time>2021-04-26T13:49:45Z</time>
      </trkpt>
      <trkpt lat="45.27665" lon="4.3155">
        <ele>805</ele>
        <time>2021-04-26T13:49:46Z</time>
      </trkpt>
      <trkpt lat="45.27663" lon="4.31543">
        <ele>805</ele>
        <time>2021-04-26T13:49:47Z</time>
      </trkpt>
      <trkpt lat="45.27661" lon="4.31537">
        <ele>805</ele>
        <time>2021-04-26T13:49:48Z</time>
      </trkpt>
      <trkpt lat="45.27659" lon="4.3153">
        <ele>805</ele>
        <time>2021-04-26T13:49:49Z</time>
      </trkpt>
      <trkpt lat="45.27657" lon="4.31525">
        <ele>805</ele>
        <time>2021-04-26T13:49:50Z</time>
      </trkpt>
      <trkpt lat="45.27654" lon="4.31519">
        <ele>806</ele>
        <time>2021-04-26T13:49:51Z</time>
      </trkpt>
      <trkpt lat="45.27652" lon="4.31514">
        <ele>806</ele>
        <time>2021-04-26T13:49:52Z</time>
      </trkpt>
      <trkpt lat="45.27649" lon="4.31509">
        <ele>805</ele>
        <time>2021-04-26T13:49:53Z</time>
      </trkpt>
      <trkpt lat="45.27646" lon="4.31504">
        <ele>805</ele>
        <time>2021-04-26T13:49:54Z</time>
      </trkpt>
      <trkpt lat="45.27643" lon="4.31499">
        <ele>805</ele>
        <time>2021-04-26T13:49:55Z</time>
      </trkpt>
      <trkpt lat="45.2764" lon="4.31494">
        <ele>805</ele>
        <time>2021-04-26T13:49:56Z</time>
      </trkpt>
      <trkpt lat="45.27636" lon="4.3149">
        <ele>805</ele>
        <time>2021-04-26T13:49:57Z</time>
      </trkpt>
      <trkpt lat="45.27632" lon="4.31486">
        <ele>805</ele>
        <time>2021-04-26T13:49:58Z</time>
      </trkpt>
      <trkpt lat="45.27629" lon="4.31481">
        <ele>805</ele>
        <time>2021-04-26T13:49:59Z</time>
      </trkpt>
      <trkpt lat="45.27625" lon="4.31477">
        <ele>805</ele>
        <time>2021-04-26T13:50:00Z</time>
      </trkpt>
      <trkpt lat="45.27622" lon="4.31472">
        <ele>805</ele>
        <time>2021-04-26T13:50:01Z</time>
      </trkpt>
      <trkpt lat="45.27619" lon="4.31468">
        <ele>805</ele>
        <time>2021-04-26T13:50:02Z</time>
      </trkpt>
      <trkpt lat="45.27616" lon="4.31463">
        <ele>805</ele>
        <time>2021-04-26T13:50:03Z</time>
      </trkpt>
      <trkpt lat="45.27613" lon="4.31459">
        <ele>805</ele>
        <time>2021-04-26T13:50:04Z</time>
      </trkpt>
      <trkpt lat="45.2761" lon="4.31454">
        <ele>805</ele>
        <time>2021-04-26T13:50:05Z</time>
      </trkpt>
      <trkpt lat="45.27606" lon="4.31449">
        <ele>805</ele>
        <time>2021-04-26T13:50:06Z</time>
      </trkpt>
      <trkpt lat="45.27602" lon="4.31444">
        <ele>805</ele>
        <time>2021-04-26T13:50:07Z</time>
      </trkpt>
      <trkpt lat="45.27598" lon="4.31437">
        <ele>805</ele>
        <time>2021-04-26T13:50:08Z</time>
      </trkpt>
      <trkpt lat="45.27596" lon="4.31431">
        <ele>805</ele>
        <time>2021-04-26T13:50:09Z</time>
      </trkpt>
      <trkpt lat="45.27594" lon="4.31423">
        <ele>805</ele>
        <time>2021-04-26T13:50:10Z</time>
      </trkpt>
      <trkpt lat="45.27594" lon="4.31416">
        <ele>805</ele>
        <time>2021-04-26T13:50:11Z</time>
      </trkpt>
      <trkpt lat="45.27593" lon="4.3141">
        <ele>804</ele>
        <time>2021-04-26T13:50:12Z</time>
      </trkpt>
      <trkpt lat="45.27592" lon="4.31404">
        <ele>804</ele>
        <time>2021-04-26T13:50:13Z</time>
      </trkpt>
      <trkpt lat="45.27589" lon="4.31398">
        <ele>804</ele>
        <time>2021-04-26T13:50:14Z</time>
      </trkpt>
      <trkpt lat="45.27587" lon="4.31393">
        <ele>804</ele>
        <time>2021-04-26T13:50:15Z</time>
      </trkpt>
      <trkpt lat="45.27583" lon="4.31387">
        <ele>804</ele>
        <time>2021-04-26T13:50:16Z</time>
      </trkpt>
      <trkpt lat="45.2758" lon="4.31382">
        <ele>804</ele>
        <time>2021-04-26T13:50:17Z</time>
      </trkpt>
      <trkpt lat="45.27576" lon="4.31378">
        <ele>804</ele>
        <time>2021-04-26T13:50:18Z</time>
      </trkpt>
      <trkpt lat="45.27572" lon="4.31375">
        <ele>805</ele>
        <time>2021-04-26T13:50:19Z</time>
      </trkpt>
      <trkpt lat="45.27567" lon="4.31372">
        <ele>805</ele>
        <time>2021-04-26T13:50:20Z</time>
      </trkpt>
      <trkpt lat="45.27562" lon="4.31369">
        <ele>805</ele>
        <time>2021-04-26T13:50:21Z</time>
      </trkpt>
      <trkpt lat="45.27557" lon="4.31366">
        <ele>805</ele>
        <time>2021-04-26T13:50:22Z</time>
      </trkpt>
      <trkpt lat="45.27552" lon="4.31364">
        <ele>806</ele>
        <time>2021-04-26T13:50:23Z</time>
      </trkpt>
      <trkpt lat="45.27547" lon="4.31362">
        <ele>806</ele>
        <time>2021-04-26T13:50:24Z</time>
      </trkpt>
      <trkpt lat="45.27541" lon="4.31359">
        <ele>806</ele>
        <time>2021-04-26T13:50:25Z</time>
      </trkpt>
      <trkpt lat="45.27536" lon="4.31358">
        <ele>806</ele>
        <time>2021-04-26T13:50:26Z</time>
      </trkpt>
      <trkpt lat="45.27531" lon="4.31357">
        <ele>807</ele>
        <time>2021-04-26T13:50:27Z</time>
      </trkpt>
      <trkpt lat="45.27525" lon="4.31355">
        <ele>807</ele>
        <time>2021-04-26T13:50:28Z</time>
      </trkpt>
      <trkpt lat="45.2752" lon="4.31355">
        <ele>807</ele>
        <time>2021-04-26T13:50:29Z</time>
      </trkpt>
      <trkpt lat="45.27514" lon="4.31355">
        <ele>807</ele>
        <time>2021-04-26T13:50:30Z</time>
      </trkpt>
      <trkpt lat="45.27508" lon="4.31354">
        <ele>807</ele>
        <time>2021-04-26T13:50:31Z</time>
      </trkpt>
      <trkpt lat="45.27503" lon="4.31355">
        <ele>807</ele>
        <time>2021-04-26T13:50:32Z</time>
      </trkpt>
      <trkpt lat="45.27496" lon="4.31356">
        <ele>807</ele>
        <time>2021-04-26T13:50:33Z</time>
      </trkpt>
      <trkpt lat="45.2749" lon="4.31357">
        <ele>807</ele>
        <time>2021-04-26T13:50:34Z</time>
      </trkpt>
      <trkpt lat="45.27484" lon="4.31358">
        <ele>807</ele>
        <time>2021-04-26T13:50:35Z</time>
      </trkpt>
      <trkpt lat="45.27478" lon="4.31359">
        <ele>807</ele>
        <time>2021-04-26T13:50:36Z</time>
      </trkpt>
      <trkpt lat="45.27472" lon="4.31361">
        <ele>807</ele>
        <time>2021-04-26T13:50:37Z</time>
      </trkpt>
      <trkpt lat="45.27467" lon="4.31362">
        <ele>808</ele>
        <time>2021-04-26T13:50:38Z</time>
      </trkpt>
      <trkpt lat="45.27461" lon="4.31364">
        <ele>807</ele>
        <time>2021-04-26T13:50:39Z</time>
      </trkpt>
      <trkpt lat="45.27456" lon="4.31368">
        <ele>807</ele>
        <time>2021-04-26T13:50:40Z</time>
      </trkpt>
      <trkpt lat="45.27451" lon="4.31373">
        <ele>807</ele>
        <time>2021-04-26T13:50:41Z</time>
      </trkpt>
      <trkpt lat="45.27446" lon="4.31379">
        <ele>807</ele>
        <time>2021-04-26T13:50:42Z</time>
      </trkpt>
      <trkpt lat="45.27441" lon="4.31385">
        <ele>807</ele>
        <time>2021-04-26T13:50:43Z</time>
      </trkpt>
      <trkpt lat="45.27436" lon="4.31392">
        <ele>807</ele>
        <time>2021-04-26T13:50:44Z</time>
      </trkpt>
      <trkpt lat="45.2743" lon="4.31398">
        <ele>807</ele>
        <time>2021-04-26T13:50:45Z</time>
      </trkpt>
      <trkpt lat="45.27424" lon="4.31403">
        <ele>807</ele>
        <time>2021-04-26T13:50:46Z</time>
      </trkpt>
      <trkpt lat="45.27419" lon="4.31409">
        <ele>807</ele>
        <time>2021-04-26T13:50:47Z</time>
      </trkpt>
      <trkpt lat="45.27413" lon="4.31415">
        <ele>807</ele>
        <time>2021-04-26T13:50:48Z</time>
      </trkpt>
      <trkpt lat="45.27409" lon="4.31421">
        <ele>807</ele>
        <time>2021-04-26T13:50:49Z</time>
      </trkpt>
      <trkpt lat="45.27405" lon="4.31426">
        <ele>807</ele>
        <time>2021-04-26T13:50:50Z</time>
      </trkpt>
      <trkpt lat="45.27401" lon="4.31429">
        <ele>807</ele>
        <time>2021-04-26T13:50:51Z</time>
      </trkpt>
      <trkpt lat="45.27397" lon="4.3143">
        <ele>807</ele>
        <time>2021-04-26T13:50:52Z</time>
      </trkpt>
      <trkpt lat="45.27394" lon="4.31429">
        <ele>807</ele>
        <time>2021-04-26T13:50:53Z</time>
      </trkpt>
      <trkpt lat="45.27396" lon="4.31429">
        <ele>807</ele>
        <time>2021-04-26T13:50:54Z</time>
      </trkpt>
      <trkpt lat="45.27394" lon="4.31422">
        <ele>807</ele>
        <time>2021-04-26T13:50:56Z</time>
      </trkpt>
      <trkpt lat="45.27394" lon="4.31417">
        <ele>807</ele>
        <time>2021-04-26T13:50:57Z</time>
      </trkpt>
      <trkpt lat="45.27393" lon="4.31412">
        <ele>807</ele>
        <time>2021-04-26T13:50:58Z</time>
      </trkpt>
      <trkpt lat="45.27392" lon="4.31408">
        <ele>807</ele>
        <time>2021-04-26T13:50:59Z</time>
      </trkpt>
      <trkpt lat="45.2739" lon="4.31404">
        <ele>807</ele>
        <time>2021-04-26T13:51:00Z</time>
      </trkpt>
      <trkpt lat="45.27389" lon="4.31401">
        <ele>807</ele>
        <time>2021-04-26T13:51:01Z</time>
      </trkpt>
      <trkpt lat="45.27388" lon="4.31397">
        <ele>807</ele>
        <time>2021-04-26T13:51:02Z</time>
      </trkpt>
      <trkpt lat="45.27386" lon="4.31393">
        <ele>807</ele>
        <time>2021-04-26T13:51:03Z</time>
      </trkpt>
      <trkpt lat="45.27384" lon="4.31391">
        <ele>808</ele>
        <time>2021-04-26T13:51:04Z</time>
      </trkpt>
      <trkpt lat="45.27381" lon="4.31388">
        <ele>808</ele>
        <time>2021-04-26T13:51:05Z</time>
      </trkpt>
      <trkpt lat="45.27378" lon="4.31386">
        <ele>808</ele>
        <time>2021-04-26T13:51:06Z</time>
      </trkpt>
      <trkpt lat="45.27376" lon="4.31384">
        <ele>808</ele>
        <time>2021-04-26T13:51:07Z</time>
      </trkpt>
      <trkpt lat="45.27373" lon="4.31381">
        <ele>809</ele>
        <time>2021-04-26T13:51:08Z</time>
      </trkpt>
      <trkpt lat="45.27371" lon="4.31378">
        <ele>809</ele>
        <time>2021-04-26T13:51:09Z</time>
      </trkpt>
      <trkpt lat="45.27369" lon="4.31375">
        <ele>810</ele>
        <time>2021-04-26T13:51:10Z</time>
      </trkpt>
      <trkpt lat="45.27367" lon="4.31373">
        <ele>810</ele>
        <time>2021-04-26T13:51:11Z</time>
      </trkpt>
      <trkpt lat="45.27365" lon="4.3137">
        <ele>810</ele>
        <time>2021-04-26T13:51:12Z</time>
      </trkpt>
      <trkpt lat="45.27358" lon="4.31361">
        <ele>812</ele>
        <time>2021-04-26T13:51:16Z</time>
      </trkpt>
      <trkpt lat="45.27352" lon="4.3135">
        <ele>814</ele>
        <time>2021-04-26T13:51:21Z</time>
      </trkpt>
      <trkpt lat="45.27345" lon="4.3134">
        <ele>816</ele>
        <time>2021-04-26T13:51:25Z</time>
      </trkpt>
      <trkpt lat="45.27338" lon="4.31331">
        <ele>817</ele>
        <time>2021-04-26T13:51:29Z</time>
      </trkpt>
      <trkpt lat="45.27329" lon="4.31322">
        <ele>817</ele>
        <time>2021-04-26T13:51:33Z</time>
      </trkpt>
      <trkpt lat="45.2732" lon="4.3131">
        <ele>821</ele>
        <time>2021-04-26T13:51:37Z</time>
      </trkpt>
      <trkpt lat="45.27312" lon="4.313">
        <ele>823</ele>
        <time>2021-04-26T13:51:41Z</time>
      </trkpt>
      <trkpt lat="45.27304" lon="4.3129">
        <ele>824</ele>
        <time>2021-04-26T13:51:45Z</time>
      </trkpt>
      <trkpt lat="45.27297" lon="4.31282">
        <ele>824</ele>
        <time>2021-04-26T13:51:48Z</time>
      </trkpt>
      <trkpt lat="45.27288" lon="4.31274">
        <ele>824</ele>
        <time>2021-04-26T13:51:52Z</time>
      </trkpt>
      <trkpt lat="45.27282" lon="4.31263">
        <ele>827</ele>
        <time>2021-04-26T13:51:55Z</time>
      </trkpt>
      <trkpt lat="45.2728" lon="4.31251">
        <ele>828</ele>
        <time>2021-04-26T13:51:59Z</time>
      </trkpt>
      <trkpt lat="45.27277" lon="4.31235">
        <ele>829</ele>
        <time>2021-04-26T13:52:03Z</time>
      </trkpt>
      <trkpt lat="45.2727" lon="4.31225">
        <ele>829</ele>
        <time>2021-04-26T13:52:06Z</time>
      </trkpt>
      <trkpt lat="45.27268" lon="4.31222">
        <ele>830</ele>
        <time>2021-04-26T13:52:07Z</time>
      </trkpt>
      <trkpt lat="45.27267" lon="4.31219">
        <ele>830</ele>
        <time>2021-04-26T13:52:08Z</time>
      </trkpt>
      <trkpt lat="45.27265" lon="4.31216">
        <ele>830</ele>
        <time>2021-04-26T13:52:09Z</time>
      </trkpt>
      <trkpt lat="45.27262" lon="4.31213">
        <ele>830</ele>
        <time>2021-04-26T13:52:10Z</time>
      </trkpt>
      <trkpt lat="45.27259" lon="4.3121">
        <ele>830</ele>
        <time>2021-04-26T13:52:11Z</time>
      </trkpt>
      <trkpt lat="45.27256" lon="4.31207">
        <ele>831</ele>
        <time>2021-04-26T13:52:12Z</time>
      </trkpt>
      <trkpt lat="45.27253" lon="4.31204">
        <ele>831</ele>
        <time>2021-04-26T13:52:13Z</time>
      </trkpt>
      <trkpt lat="45.2725" lon="4.31201">
        <ele>831</ele>
        <time>2021-04-26T13:52:14Z</time>
      </trkpt>
      <trkpt lat="45.27248" lon="4.31198">
        <ele>832</ele>
        <time>2021-04-26T13:52:15Z</time>
      </trkpt>
      <trkpt lat="45.27245" lon="4.31195">
        <ele>832</ele>
        <time>2021-04-26T13:52:16Z</time>
      </trkpt>
      <trkpt lat="45.27242" lon="4.31192">
        <ele>832</ele>
        <time>2021-04-26T13:52:17Z</time>
      </trkpt>
      <trkpt lat="45.2724" lon="4.31189">
        <ele>832</ele>
        <time>2021-04-26T13:52:18Z</time>
      </trkpt>
      <trkpt lat="45.27238" lon="4.31185">
        <ele>832</ele>
        <time>2021-04-26T13:52:19Z</time>
      </trkpt>
      <trkpt lat="45.27236" lon="4.31181">
        <ele>832</ele>
        <time>2021-04-26T13:52:20Z</time>
      </trkpt>
      <trkpt lat="45.27235" lon="4.31177">
        <ele>832</ele>
        <time>2021-04-26T13:52:21Z</time>
      </trkpt>
      <trkpt lat="45.27234" lon="4.31173">
        <ele>832</ele>
        <time>2021-04-26T13:52:22Z</time>
      </trkpt>
      <trkpt lat="45.27233" lon="4.31169">
        <ele>833</ele>
        <time>2021-04-26T13:52:23Z</time>
      </trkpt>
      <trkpt lat="45.27232" lon="4.31166">
        <ele>833</ele>
        <time>2021-04-26T13:52:24Z</time>
      </trkpt>
      <trkpt lat="45.27232" lon="4.31163">
        <ele>833</ele>
        <time>2021-04-26T13:52:25Z</time>
      </trkpt>
      <trkpt lat="45.2723" lon="4.3116">
        <ele>834</ele>
        <time>2021-04-26T13:52:26Z</time>
      </trkpt>
      <trkpt lat="45.27229" lon="4.31158">
        <ele>834</ele>
        <time>2021-04-26T13:52:27Z</time>
      </trkpt>
      <trkpt lat="45.27226" lon="4.3116">
        <ele>834</ele>
        <time>2021-04-26T13:52:29Z</time>
      </trkpt>
      <trkpt lat="45.27225" lon="4.31163">
        <ele>834</ele>
        <time>2021-04-26T13:52:30Z</time>
      </trkpt>
      <trkpt lat="45.27223" lon="4.31164">
        <ele>835</ele>
        <time>2021-04-26T13:52:31Z</time>
      </trkpt>
      <trkpt lat="45.27222" lon="4.31167">
        <ele>835</ele>
        <time>2021-04-26T13:52:33Z</time>
      </trkpt>
      <trkpt lat="45.27219" lon="4.31169">
        <ele>836</ele>
        <time>2021-04-26T13:52:35Z</time>
      </trkpt>
      <trkpt lat="45.27217" lon="4.3117">
        <ele>836</ele>
        <time>2021-04-26T13:52:36Z</time>
      </trkpt>
      <trkpt lat="45.27215" lon="4.31172">
        <ele>837</ele>
        <time>2021-04-26T13:52:37Z</time>
      </trkpt>
      <trkpt lat="45.27213" lon="4.31173">
        <ele>837</ele>
        <time>2021-04-26T13:52:38Z</time>
      </trkpt>
      <trkpt lat="45.27211" lon="4.31174">
        <ele>837</ele>
        <time>2021-04-26T13:52:39Z</time>
      </trkpt>
      <trkpt lat="45.27209" lon="4.31175">
        <ele>837</ele>
        <time>2021-04-26T13:52:40Z</time>
      </trkpt>
      <trkpt lat="45.27207" lon="4.31177">
        <ele>837</ele>
        <time>2021-04-26T13:52:41Z</time>
      </trkpt>
      <trkpt lat="45.27205" lon="4.31178">
        <ele>837</ele>
        <time>2021-04-26T13:52:42Z</time>
      </trkpt>
      <trkpt lat="45.27203" lon="4.3118">
        <ele>838</ele>
        <time>2021-04-26T13:52:43Z</time>
      </trkpt>
      <trkpt lat="45.27201" lon="4.31182">
        <ele>838</ele>
        <time>2021-04-26T13:52:44Z</time>
      </trkpt>
      <trkpt lat="45.27199" lon="4.31184">
        <ele>838</ele>
        <time>2021-04-26T13:52:45Z</time>
      </trkpt>
      <trkpt lat="45.27197" lon="4.31186">
        <ele>838</ele>
        <time>2021-04-26T13:52:46Z</time>
      </trkpt>
      <trkpt lat="45.27196" lon="4.31188">
        <ele>839</ele>
        <time>2021-04-26T13:52:47Z</time>
      </trkpt>
      <trkpt lat="45.27194" lon="4.3119">
        <ele>839</ele>
        <time>2021-04-26T13:52:48Z</time>
      </trkpt>
      <trkpt lat="45.27193" lon="4.31193">
        <ele>839</ele>
        <time>2021-04-26T13:52:49Z</time>
      </trkpt>
      <trkpt lat="45.27191" lon="4.31196">
        <ele>839</ele>
        <time>2021-04-26T13:52:50Z</time>
      </trkpt>
      <trkpt lat="45.27189" lon="4.31199">
        <ele>840</ele>
        <time>2021-04-26T13:52:51Z</time>
      </trkpt>
      <trkpt lat="45.27187" lon="4.31202">
        <ele>840</ele>
        <time>2021-04-26T13:52:52Z</time>
      </trkpt>
      <trkpt lat="45.27185" lon="4.31205">
        <ele>840</ele>
        <time>2021-04-26T13:52:53Z</time>
      </trkpt>
      <trkpt lat="45.27183" lon="4.31208">
        <ele>840</ele>
        <time>2021-04-26T13:52:54Z</time>
      </trkpt>
      <trkpt lat="45.27181" lon="4.31211">
        <ele>840</ele>
        <time>2021-04-26T13:52:55Z</time>
      </trkpt>
      <trkpt lat="45.27179" lon="4.31214">
        <ele>841</ele>
        <time>2021-04-26T13:52:56Z</time>
      </trkpt>
      <trkpt lat="45.27177" lon="4.31217">
        <ele>841</ele>
        <time>2021-04-26T13:52:57Z</time>
      </trkpt>
      <trkpt lat="45.27175" lon="4.3122">
        <ele>841</ele>
        <time>2021-04-26T13:52:58Z</time>
      </trkpt>
      <trkpt lat="45.27173" lon="4.31223">
        <ele>841</ele>
        <time>2021-04-26T13:52:59Z</time>
      </trkpt>
      <trkpt lat="45.27171" lon="4.31226">
        <ele>842</ele>
        <time>2021-04-26T13:53:00Z</time>
      </trkpt>
      <trkpt lat="45.2717" lon="4.3123">
        <ele>842</ele>
        <time>2021-04-26T13:53:01Z</time>
      </trkpt>
      <trkpt lat="45.27168" lon="4.31233">
        <ele>842</ele>
        <time>2021-04-26T13:53:02Z</time>
      </trkpt>
      <trkpt lat="45.27166" lon="4.31236">
        <ele>842</ele>
        <time>2021-04-26T13:53:03Z</time>
      </trkpt>
      <trkpt lat="45.27164" lon="4.31239">
        <ele>843</ele>
        <time>2021-04-26T13:53:04Z</time>
      </trkpt>
      <trkpt lat="45.27162" lon="4.31242">
        <ele>843</ele>
        <time>2021-04-26T13:53:05Z</time>
      </trkpt>
      <trkpt lat="45.27159" lon="4.31245">
        <ele>843</ele>
        <time>2021-04-26T13:53:06Z</time>
      </trkpt>
      <trkpt lat="45.27157" lon="4.31247">
        <ele>843</ele>
        <time>2021-04-26T13:53:07Z</time>
      </trkpt>
      <trkpt lat="45.27155" lon="4.3125">
        <ele>843</ele>
        <time>2021-04-26T13:53:08Z</time>
      </trkpt>
      <trkpt lat="45.27152" lon="4.31252">
        <ele>843</ele>
        <time>2021-04-26T13:53:09Z</time>
      </trkpt>
      <trkpt lat="45.2715" lon="4.31253">
        <ele>844</ele>
        <time>2021-04-26T13:53:10Z</time>
      </trkpt>
      <trkpt lat="45.27148" lon="4.31255">
        <ele>844</ele>
        <time>2021-04-26T13:53:11Z</time>
      </trkpt>
      <trkpt lat="45.27146" lon="4.31256">
        <ele>844</ele>
        <time>2021-04-26T13:53:12Z</time>
      </trkpt>
      <trkpt lat="45.27144" lon="4.31257">
        <ele>844</ele>
        <time>2021-04-26T13:53:13Z</time>
      </trkpt>
      <trkpt lat="45.27142" lon="4.31258">
        <ele>844</ele>
        <time>2021-04-26T13:53:14Z</time>
      </trkpt>
      <trkpt lat="45.27139" lon="4.31258">
        <ele>844</ele>
        <time>2021-04-26T13:53:15Z</time>
      </trkpt>
      <trkpt lat="45.27137" lon="4.31258">
        <ele>844</ele>
        <time>2021-04-26T13:53:16Z</time>
      </trkpt>
      <trkpt lat="45.27134" lon="4.31259">
        <ele>845</ele>
        <time>2021-04-26T13:53:17Z</time>
      </trkpt>
      <trkpt lat="45.2713" lon="4.31259">
        <ele>845</ele>
        <time>2021-04-26T13:53:18Z</time>
      </trkpt>
      <trkpt lat="45.27127" lon="4.3126">
        <ele>845</ele>
        <time>2021-04-26T13:53:19Z</time>
      </trkpt>
      <trkpt lat="45.27117" lon="4.3126">
        <ele>845</ele>
        <time>2021-04-26T13:53:22Z</time>
      </trkpt>
      <trkpt lat="45.27107" lon="4.31255">
        <ele>847</ele>
        <time>2021-04-26T13:53:25Z</time>
      </trkpt>
      <trkpt lat="45.27103" lon="4.31253">
        <ele>847</ele>
        <time>2021-04-26T13:53:26Z</time>
      </trkpt>
      <trkpt lat="45.27099" lon="4.3125">
        <ele>847</ele>
        <time>2021-04-26T13:53:27Z</time>
      </trkpt>
      <trkpt lat="45.27095" lon="4.31248">
        <ele>847</ele>
        <time>2021-04-26T13:53:28Z</time>
      </trkpt>
      <trkpt lat="45.27084" lon="4.31242">
        <ele>848</ele>
        <time>2021-04-26T13:53:31Z</time>
      </trkpt>
      <trkpt lat="45.27072" lon="4.31242">
        <ele>848</ele>
        <time>2021-04-26T13:53:34Z</time>
      </trkpt>
      <trkpt lat="45.27067" lon="4.31241">
        <ele>848</ele>
        <time>2021-04-26T13:53:35Z</time>
      </trkpt>
      <trkpt lat="45.27062" lon="4.31241">
        <ele>848</ele>
        <time>2021-04-26T13:53:36Z</time>
      </trkpt>
      <trkpt lat="45.27056" lon="4.31239">
        <ele>848</ele>
        <time>2021-04-26T13:53:37Z</time>
      </trkpt>
      <trkpt lat="45.27051" lon="4.31237">
        <ele>848</ele>
        <time>2021-04-26T13:53:38Z</time>
      </trkpt>
      <trkpt lat="45.27047" lon="4.31234">
        <ele>848</ele>
        <time>2021-04-26T13:53:39Z</time>
      </trkpt>
      <trkpt lat="45.27043" lon="4.3123">
        <ele>849</ele>
        <time>2021-04-26T13:53:40Z</time>
      </trkpt>
      <trkpt lat="45.27039" lon="4.31226">
        <ele>849</ele>
        <time>2021-04-26T13:53:41Z</time>
      </trkpt>
      <trkpt lat="45.27036" lon="4.31223">
        <ele>849</ele>
        <time>2021-04-26T13:53:42Z</time>
      </trkpt>
      <trkpt lat="45.27032" lon="4.3122">
        <ele>850</ele>
        <time>2021-04-26T13:53:43Z</time>
      </trkpt>
      <trkpt lat="45.27029" lon="4.31218">
        <ele>850</ele>
        <time>2021-04-26T13:53:44Z</time>
      </trkpt>
      <trkpt lat="45.27026" lon="4.31215">
        <ele>850</ele>
        <time>2021-04-26T13:53:45Z</time>
      </trkpt>
      <trkpt lat="45.27022" lon="4.31212">
        <ele>850</ele>
        <time>2021-04-26T13:53:46Z</time>
      </trkpt>
      <trkpt lat="45.27019" lon="4.31209">
        <ele>851</ele>
        <time>2021-04-26T13:53:47Z</time>
      </trkpt>
      <trkpt lat="45.27015" lon="4.31207">
        <ele>851</ele>
        <time>2021-04-26T13:53:48Z</time>
      </trkpt>
      <trkpt lat="45.27011" lon="4.31205">
        <ele>851</ele>
        <time>2021-04-26T13:53:49Z</time>
      </trkpt>
      <trkpt lat="45.27008" lon="4.31202">
        <ele>851</ele>
        <time>2021-04-26T13:53:50Z</time>
      </trkpt>
      <trkpt lat="45.27004" lon="4.312">
        <ele>851</ele>
        <time>2021-04-26T13:53:51Z</time>
      </trkpt>
      <trkpt lat="45.27001" lon="4.31198">
        <ele>851</ele>
        <time>2021-04-26T13:53:52Z</time>
      </trkpt>
      <trkpt lat="45.26997" lon="4.31196">
        <ele>851</ele>
        <time>2021-04-26T13:53:53Z</time>
      </trkpt>
      <trkpt lat="45.26994" lon="4.31194">
        <ele>851</ele>
        <time>2021-04-26T13:53:54Z</time>
      </trkpt>
      <trkpt lat="45.2699" lon="4.31191">
        <ele>851</ele>
        <time>2021-04-26T13:53:55Z</time>
      </trkpt>
      <trkpt lat="45.26987" lon="4.31189">
        <ele>851</ele>
        <time>2021-04-26T13:53:56Z</time>
      </trkpt>
      <trkpt lat="45.26984" lon="4.31187">
        <ele>851</ele>
        <time>2021-04-26T13:53:57Z</time>
      </trkpt>
      <trkpt lat="45.26981" lon="4.31184">
        <ele>851</ele>
        <time>2021-04-26T13:53:58Z</time>
      </trkpt>
      <trkpt lat="45.26978" lon="4.31182">
        <ele>851</ele>
        <time>2021-04-26T13:53:59Z</time>
      </trkpt>
      <trkpt lat="45.26975" lon="4.31179">
        <ele>852</ele>
        <time>2021-04-26T13:54:00Z</time>
      </trkpt>
      <trkpt lat="45.26972" lon="4.31177">
        <ele>852</ele>
        <time>2021-04-26T13:54:01Z</time>
      </trkpt>
      <trkpt lat="45.26969" lon="4.31175">
        <ele>852</ele>
        <time>2021-04-26T13:54:02Z</time>
      </trkpt>
      <trkpt lat="45.26966" lon="4.31173">
        <ele>852</ele>
        <time>2021-04-26T13:54:03Z</time>
      </trkpt>
      <trkpt lat="45.26962" lon="4.31171">
        <ele>853</ele>
        <time>2021-04-26T13:54:04Z</time>
      </trkpt>
      <trkpt lat="45.26959" lon="4.3117">
        <ele>853</ele>
        <time>2021-04-26T13:54:05Z</time>
      </trkpt>
      <trkpt lat="45.26955" lon="4.31169">
        <ele>853</ele>
        <time>2021-04-26T13:54:06Z</time>
      </trkpt>
      <trkpt lat="45.26951" lon="4.31167">
        <ele>854</ele>
        <time>2021-04-26T13:54:07Z</time>
      </trkpt>
      <trkpt lat="45.26947" lon="4.31165">
        <ele>854</ele>
        <time>2021-04-26T13:54:08Z</time>
      </trkpt>
      <trkpt lat="45.26944" lon="4.31162">
        <ele>854</ele>
        <time>2021-04-26T13:54:09Z</time>
      </trkpt>
      <trkpt lat="45.2694" lon="4.31158">
        <ele>854</ele>
        <time>2021-04-26T13:54:10Z</time>
      </trkpt>
      <trkpt lat="45.26936" lon="4.31155">
        <ele>854</ele>
        <time>2021-04-26T13:54:11Z</time>
      </trkpt>
      <trkpt lat="45.26932" lon="4.31151">
        <ele>855</ele>
        <time>2021-04-26T13:54:12Z</time>
      </trkpt>
      <trkpt lat="45.26928" lon="4.31148">
        <ele>855</ele>
        <time>2021-04-26T13:54:13Z</time>
      </trkpt>
      <trkpt lat="45.26924" lon="4.31146">
        <ele>855</ele>
        <time>2021-04-26T13:54:14Z</time>
      </trkpt>
      <trkpt lat="45.26914" lon="4.31137">
        <ele>855</ele>
        <time>2021-04-26T13:54:17Z</time>
      </trkpt>
      <trkpt lat="45.26906" lon="4.31131">
        <ele>855</ele>
        <time>2021-04-26T13:54:19Z</time>
      </trkpt>
      <trkpt lat="45.26894" lon="4.31122">
        <ele>855</ele>
        <time>2021-04-26T13:54:21Z</time>
      </trkpt>
      <trkpt lat="45.26888" lon="4.31118">
        <ele>854</ele>
        <time>2021-04-26T13:54:22Z</time>
      </trkpt>
      <trkpt lat="45.26882" lon="4.31114">
        <ele>854</ele>
        <time>2021-04-26T13:54:23Z</time>
      </trkpt>
      <trkpt lat="45.26876" lon="4.31111">
        <ele>854</ele>
        <time>2021-04-26T13:54:24Z</time>
      </trkpt>
      <trkpt lat="45.26869" lon="4.31109">
        <ele>854</ele>
        <time>2021-04-26T13:54:25Z</time>
      </trkpt>
      <trkpt lat="45.26862" lon="4.31105">
        <ele>854</ele>
        <time>2021-04-26T13:54:26Z</time>
      </trkpt>
      <trkpt lat="45.26855" lon="4.31101">
        <ele>854</ele>
        <time>2021-04-26T13:54:27Z</time>
      </trkpt>
      <trkpt lat="45.26847" lon="4.31096">
        <ele>854</ele>
        <time>2021-04-26T13:54:28Z</time>
      </trkpt>
      <trkpt lat="45.26838" lon="4.31089">
        <ele>853</ele>
        <time>2021-04-26T13:54:29Z</time>
      </trkpt>
      <trkpt lat="45.2683" lon="4.31082">
        <ele>853</ele>
        <time>2021-04-26T13:54:30Z</time>
      </trkpt>
      <trkpt lat="45.26823" lon="4.31075">
        <ele>853</ele>
        <time>2021-04-26T13:54:31Z</time>
      </trkpt>
      <trkpt lat="45.26815" lon="4.31069">
        <ele>853</ele>
        <time>2021-04-26T13:54:32Z</time>
      </trkpt>
      <trkpt lat="45.26808" lon="4.31063">
        <ele>852</ele>
        <time>2021-04-26T13:54:33Z</time>
      </trkpt>
      <trkpt lat="45.268" lon="4.31057">
        <ele>852</ele>
        <time>2021-04-26T13:54:34Z</time>
      </trkpt>
      <trkpt lat="45.26793" lon="4.31051">
        <ele>852</ele>
        <time>2021-04-26T13:54:35Z</time>
      </trkpt>
      <trkpt lat="45.26786" lon="4.31046">
        <ele>852</ele>
        <time>2021-04-26T13:54:36Z</time>
      </trkpt>
      <trkpt lat="45.26779" lon="4.3104">
        <ele>852</ele>
        <time>2021-04-26T13:54:37Z</time>
      </trkpt>
      <trkpt lat="45.26773" lon="4.31035">
        <ele>852</ele>
        <time>2021-04-26T13:54:38Z</time>
      </trkpt>
      <trkpt lat="45.26767" lon="4.3103">
        <ele>852</ele>
        <time>2021-04-26T13:54:39Z</time>
      </trkpt>
      <trkpt lat="45.26762" lon="4.31024">
        <ele>852</ele>
        <time>2021-04-26T13:54:40Z</time>
      </trkpt>
      <trkpt lat="45.26757" lon="4.3102">
        <ele>851</ele>
        <time>2021-04-26T13:54:41Z</time>
      </trkpt>
      <trkpt lat="45.26752" lon="4.31017">
        <ele>851</ele>
        <time>2021-04-26T13:54:42Z</time>
      </trkpt>
      <trkpt lat="45.26747" lon="4.31014">
        <ele>851</ele>
        <time>2021-04-26T13:54:43Z</time>
      </trkpt>
      <trkpt lat="45.26742" lon="4.3101">
        <ele>850</ele>
        <time>2021-04-26T13:54:44Z</time>
      </trkpt>
      <trkpt lat="45.26737" lon="4.31006">
        <ele>850</ele>
        <time>2021-04-26T13:54:45Z</time>
      </trkpt>
      <trkpt lat="45.26732" lon="4.31002">
        <ele>850</ele>
        <time>2021-04-26T13:54:46Z</time>
      </trkpt>
      <trkpt lat="45.26728" lon="4.30999">
        <ele>849</ele>
        <time>2021-04-26T13:54:47Z</time>
      </trkpt>
      <trkpt lat="45.26722" lon="4.30995">
        <ele>849</ele>
        <time>2021-04-26T13:54:48Z</time>
      </trkpt>
      <trkpt lat="45.26716" lon="4.30992">
        <ele>849</ele>
        <time>2021-04-26T13:54:49Z</time>
      </trkpt>
      <trkpt lat="45.26711" lon="4.3099">
        <ele>849</ele>
        <time>2021-04-26T13:54:50Z</time>
      </trkpt>
      <trkpt lat="45.26706" lon="4.30991">
        <ele>849</ele>
        <time>2021-04-26T13:54:51Z</time>
      </trkpt>
      <trkpt lat="45.26703" lon="4.30993">
        <ele>849</ele>
        <time>2021-04-26T13:54:52Z</time>
      </trkpt>
      <trkpt lat="45.26699" lon="4.30995">
        <ele>848</ele>
        <time>2021-04-26T13:54:53Z</time>
      </trkpt>
      <trkpt lat="45.26695" lon="4.30999">
        <ele>849</ele>
        <time>2021-04-26T13:54:54Z</time>
      </trkpt>
      <trkpt lat="45.2669" lon="4.31003">
        <ele>849</ele>
        <time>2021-04-26T13:54:55Z</time>
      </trkpt>
      <trkpt lat="45.26686" lon="4.31006">
        <ele>849</ele>
        <time>2021-04-26T13:54:56Z</time>
      </trkpt>
      <trkpt lat="45.26682" lon="4.3101">
        <ele>849</ele>
        <time>2021-04-26T13:54:57Z</time>
      </trkpt>
      <trkpt lat="45.26678" lon="4.31014">
        <ele>849</ele>
        <time>2021-04-26T13:54:58Z</time>
      </trkpt>
      <trkpt lat="45.26675" lon="4.31019">
        <ele>849</ele>
        <time>2021-04-26T13:54:59Z</time>
      </trkpt>
      <trkpt lat="45.26671" lon="4.31023">
        <ele>849</ele>
        <time>2021-04-26T13:55:00Z</time>
      </trkpt>
      <trkpt lat="45.26667" lon="4.31026">
        <ele>850</ele>
        <time>2021-04-26T13:55:01Z</time>
      </trkpt>
      <trkpt lat="45.26662" lon="4.3103">
        <ele>850</ele>
        <time>2021-04-26T13:55:02Z</time>
      </trkpt>
      <trkpt lat="45.26656" lon="4.31033">
        <ele>850</ele>
        <time>2021-04-26T13:55:03Z</time>
      </trkpt>
      <trkpt lat="45.26651" lon="4.31037">
        <ele>849</ele>
        <time>2021-04-26T13:55:04Z</time>
      </trkpt>
      <trkpt lat="45.26644" lon="4.31039">
        <ele>849</ele>
        <time>2021-04-26T13:55:05Z</time>
      </trkpt>
      <trkpt lat="45.26638" lon="4.31042">
        <ele>849</ele>
        <time>2021-04-26T13:55:06Z</time>
      </trkpt>
      <trkpt lat="45.26634" lon="4.31045">
        <ele>849</ele>
        <time>2021-04-26T13:55:07Z</time>
      </trkpt>
      <trkpt lat="45.26629" lon="4.31047">
        <ele>849</ele>
        <time>2021-04-26T13:55:08Z</time>
      </trkpt>
      <trkpt lat="45.26625" lon="4.31049">
        <ele>849</ele>
        <time>2021-04-26T13:55:09Z</time>
      </trkpt>
      <trkpt lat="45.26623" lon="4.31051">
        <ele>849</ele>
        <time>2021-04-26T13:55:10Z</time>
      </trkpt>
      <trkpt lat="45.26621" lon="4.31055">
        <ele>849</ele>
        <time>2021-04-26T13:55:11Z</time>
      </trkpt>
      <trkpt lat="45.26621" lon="4.31058">
        <ele>849</ele>
        <time>2021-04-26T13:55:12Z</time>
      </trkpt>
      <trkpt lat="45.2662" lon="4.31061">
        <ele>849</ele>
        <time>2021-04-26T13:55:13Z</time>
      </trkpt>
      <trkpt lat="45.2662" lon="4.31065">
        <ele>848</ele>
        <time>2021-04-26T13:55:14Z</time>
      </trkpt>
      <trkpt lat="45.2662" lon="4.31069">
        <ele>848</ele>
        <time>2021-04-26T13:55:15Z</time>
      </trkpt>
      <trkpt lat="45.26619" lon="4.31073">
        <ele>848</ele>
        <time>2021-04-26T13:55:16Z</time>
      </trkpt>
      <trkpt lat="45.26619" lon="4.31077">
        <ele>848</ele>
        <time>2021-04-26T13:55:17Z</time>
      </trkpt>
      <trkpt lat="45.26619" lon="4.31082">
        <ele>848</ele>
        <time>2021-04-26T13:55:18Z</time>
      </trkpt>
      <trkpt lat="45.26618" lon="4.31086">
        <ele>848</ele>
        <time>2021-04-26T13:55:19Z</time>
      </trkpt>
      <trkpt lat="45.26618" lon="4.31091">
        <ele>848</ele>
        <time>2021-04-26T13:55:20Z</time>
      </trkpt>
      <trkpt lat="45.26618" lon="4.31096">
        <ele>848</ele>
        <time>2021-04-26T13:55:21Z</time>
      </trkpt>
      <trkpt lat="45.26617" lon="4.311">
        <ele>848</ele>
        <time>2021-04-26T13:55:22Z</time>
      </trkpt>
      <trkpt lat="45.26617" lon="4.31105">
        <ele>848</ele>
        <time>2021-04-26T13:55:23Z</time>
      </trkpt>
      <trkpt lat="45.26617" lon="4.3111">
        <ele>848</ele>
        <time>2021-04-26T13:55:24Z</time>
      </trkpt>
      <trkpt lat="45.26616" lon="4.31114">
        <ele>848</ele>
        <time>2021-04-26T13:55:25Z</time>
      </trkpt>
      <trkpt lat="45.26615" lon="4.31119">
        <ele>848</ele>
        <time>2021-04-26T13:55:26Z</time>
      </trkpt>
      <trkpt lat="45.26615" lon="4.31123">
        <ele>848</ele>
        <time>2021-04-26T13:55:27Z</time>
      </trkpt>
      <trkpt lat="45.26614" lon="4.31127">
        <ele>848</ele>
        <time>2021-04-26T13:55:28Z</time>
      </trkpt>
      <trkpt lat="45.26614" lon="4.3113">
        <ele>848</ele>
        <time>2021-04-26T13:55:29Z</time>
      </trkpt>
      <trkpt lat="45.26613" lon="4.31132">
        <ele>849</ele>
        <time>2021-04-26T13:55:30Z</time>
      </trkpt>
      <trkpt lat="45.26612" lon="4.31135">
        <ele>849</ele>
        <time>2021-04-26T13:55:31Z</time>
      </trkpt>
      <trkpt lat="45.26611" lon="4.31139">
        <ele>849</ele>
        <time>2021-04-26T13:55:33Z</time>
      </trkpt>
      <trkpt lat="45.26611" lon="4.31139">
        <ele>849</ele>
        <time>2021-04-26T13:55:37Z</time>
      </trkpt>
      <trkpt lat="45.26608" lon="4.31147">
        <ele>849</ele>
        <time>2021-04-26T13:56:43Z</time>
      </trkpt>
      <trkpt lat="45.26606" lon="4.31151">
        <ele>849</ele>
        <time>2021-04-26T13:56:44Z</time>
      </trkpt>
      <trkpt lat="45.26604" lon="4.31154">
        <ele>850</ele>
        <time>2021-04-26T13:56:45Z</time>
      </trkpt>
      <trkpt lat="45.26603" lon="4.31158">
        <ele>850</ele>
        <time>2021-04-26T13:56:46Z</time>
      </trkpt>
      <trkpt lat="45.26601" lon="4.31161">
        <ele>850</ele>
        <time>2021-04-26T13:56:47Z</time>
      </trkpt>
      <trkpt lat="45.26598" lon="4.31165">
        <ele>850</ele>
        <time>2021-04-26T13:56:48Z</time>
      </trkpt>
      <trkpt lat="45.26596" lon="4.31168">
        <ele>850</ele>
        <time>2021-04-26T13:56:49Z</time>
      </trkpt>
      <trkpt lat="45.26593" lon="4.31172">
        <ele>850</ele>
        <time>2021-04-26T13:56:50Z</time>
      </trkpt>
      <trkpt lat="45.26591" lon="4.31176">
        <ele>851</ele>
        <time>2021-04-26T13:56:51Z</time>
      </trkpt>
      <trkpt lat="45.26588" lon="4.31179">
        <ele>851</ele>
        <time>2021-04-26T13:56:52Z</time>
      </trkpt>
      <trkpt lat="45.26586" lon="4.31183">
        <ele>851</ele>
        <time>2021-04-26T13:56:53Z</time>
      </trkpt>
      <trkpt lat="45.26584" lon="4.31187">
        <ele>851</ele>
        <time>2021-04-26T13:56:54Z</time>
      </trkpt>
      <trkpt lat="45.26581" lon="4.3119">
        <ele>851</ele>
        <time>2021-04-26T13:56:55Z</time>
      </trkpt>
      <trkpt lat="45.26579" lon="4.31194">
        <ele>851</ele>
        <time>2021-04-26T13:56:56Z</time>
      </trkpt>
      <trkpt lat="45.26576" lon="4.31198">
        <ele>852</ele>
        <time>2021-04-26T13:56:57Z</time>
      </trkpt>
      <trkpt lat="45.26574" lon="4.31202">
        <ele>852</ele>
        <time>2021-04-26T13:56:58Z</time>
      </trkpt>
      <trkpt lat="45.26571" lon="4.31205">
        <ele>852</ele>
        <time>2021-04-26T13:56:59Z</time>
      </trkpt>
      <trkpt lat="45.26569" lon="4.31209">
        <ele>852</ele>
        <time>2021-04-26T13:57:00Z</time>
      </trkpt>
      <trkpt lat="45.26566" lon="4.31213">
        <ele>852</ele>
        <time>2021-04-26T13:57:01Z</time>
      </trkpt>
      <trkpt lat="45.26563" lon="4.31218">
        <ele>852</ele>
        <time>2021-04-26T13:57:02Z</time>
      </trkpt>
      <trkpt lat="45.26561" lon="4.31222">
        <ele>852</ele>
        <time>2021-04-26T13:57:03Z</time>
      </trkpt>
      <trkpt lat="45.26558" lon="4.31226">
        <ele>853</ele>
        <time>2021-04-26T13:57:04Z</time>
      </trkpt>
      <trkpt lat="45.26555" lon="4.3123">
        <ele>853</ele>
        <time>2021-04-26T13:57:05Z</time>
      </trkpt>
      <trkpt lat="45.26553" lon="4.31234">
        <ele>853</ele>
        <time>2021-04-26T13:57:06Z</time>
      </trkpt>
      <trkpt lat="45.2655" lon="4.31238">
        <ele>853</ele>
        <time>2021-04-26T13:57:07Z</time>
      </trkpt>
      <trkpt lat="45.26548" lon="4.31242">
        <ele>853</ele>
        <time>2021-04-26T13:57:08Z</time>
      </trkpt>
      <trkpt lat="45.26546" lon="4.31246">
        <ele>853</ele>
        <time>2021-04-26T13:57:09Z</time>
      </trkpt>
      <trkpt lat="45.26544" lon="4.3125">
        <ele>853</ele>
        <time>2021-04-26T13:57:10Z</time>
      </trkpt>
      <trkpt lat="45.26542" lon="4.31254">
        <ele>854</ele>
        <time>2021-04-26T13:57:11Z</time>
      </trkpt>
      <trkpt lat="45.26539" lon="4.31258">
        <ele>854</ele>
        <time>2021-04-26T13:57:12Z</time>
      </trkpt>
      <trkpt lat="45.26537" lon="4.31263">
        <ele>854</ele>
        <time>2021-04-26T13:57:13Z</time>
      </trkpt>
      <trkpt lat="45.26535" lon="4.31267">
        <ele>854</ele>
        <time>2021-04-26T13:57:14Z</time>
      </trkpt>
      <trkpt lat="45.26533" lon="4.31271">
        <ele>854</ele>
        <time>2021-04-26T13:57:15Z</time>
      </trkpt>
      <trkpt lat="45.2653" lon="4.31275">
        <ele>854</ele>
        <time>2021-04-26T13:57:16Z</time>
      </trkpt>
      <trkpt lat="45.26528" lon="4.31279">
        <ele>855</ele>
        <time>2021-04-26T13:57:17Z</time>
      </trkpt>
      <trkpt lat="45.26525" lon="4.31283">
        <ele>855</ele>
        <time>2021-04-26T13:57:18Z</time>
      </trkpt>
      <trkpt lat="45.26522" lon="4.31287">
        <ele>855</ele>
        <time>2021-04-26T13:57:19Z</time>
      </trkpt>
      <trkpt lat="45.2652" lon="4.31291">
        <ele>855</ele>
        <time>2021-04-26T13:57:20Z</time>
      </trkpt>
      <trkpt lat="45.26517" lon="4.31295">
        <ele>855</ele>
        <time>2021-04-26T13:57:21Z</time>
      </trkpt>
      <trkpt lat="45.26514" lon="4.31298">
        <ele>856</ele>
        <time>2021-04-26T13:57:22Z</time>
      </trkpt>
      <trkpt lat="45.26511" lon="4.31302">
        <ele>856</ele>
        <time>2021-04-26T13:57:23Z</time>
      </trkpt>
      <trkpt lat="45.26509" lon="4.31306">
        <ele>856</ele>
        <time>2021-04-26T13:57:24Z</time>
      </trkpt>
      <trkpt lat="45.26506" lon="4.3131">
        <ele>856</ele>
        <time>2021-04-26T13:57:25Z</time>
      </trkpt>
      <trkpt lat="45.26504" lon="4.31314">
        <ele>856</ele>
        <time>2021-04-26T13:57:26Z</time>
      </trkpt>
      <trkpt lat="45.26501" lon="4.31318">
        <ele>857</ele>
        <time>2021-04-26T13:57:27Z</time>
      </trkpt>
      <trkpt lat="45.26498" lon="4.31322">
        <ele>857</ele>
        <time>2021-04-26T13:57:28Z</time>
      </trkpt>
      <trkpt lat="45.26496" lon="4.31327">
        <ele>857</ele>
        <time>2021-04-26T13:57:29Z</time>
      </trkpt>
      <trkpt lat="45.26494" lon="4.31331">
        <ele>857</ele>
        <time>2021-04-26T13:57:30Z</time>
      </trkpt>
      <trkpt lat="45.26492" lon="4.31335">
        <ele>858</ele>
        <time>2021-04-26T13:57:31Z</time>
      </trkpt>
      <trkpt lat="45.26489" lon="4.3134">
        <ele>858</ele>
        <time>2021-04-26T13:57:32Z</time>
      </trkpt>
      <trkpt lat="45.26487" lon="4.31344">
        <ele>858</ele>
        <time>2021-04-26T13:57:33Z</time>
      </trkpt>
      <trkpt lat="45.26485" lon="4.31349">
        <ele>859</ele>
        <time>2021-04-26T13:57:34Z</time>
      </trkpt>
      <trkpt lat="45.26483" lon="4.31354">
        <ele>859</ele>
        <time>2021-04-26T13:57:35Z</time>
      </trkpt>
      <trkpt lat="45.26481" lon="4.31358">
        <ele>859</ele>
        <time>2021-04-26T13:57:36Z</time>
      </trkpt>
      <trkpt lat="45.26479" lon="4.31363">
        <ele>860</ele>
        <time>2021-04-26T13:57:37Z</time>
      </trkpt>
      <trkpt lat="45.26476" lon="4.31367">
        <ele>860</ele>
        <time>2021-04-26T13:57:38Z</time>
      </trkpt>
      <trkpt lat="45.26474" lon="4.31371">
        <ele>860</ele>
        <time>2021-04-26T13:57:39Z</time>
      </trkpt>
      <trkpt lat="45.26472" lon="4.31375">
        <ele>860</ele>
        <time>2021-04-26T13:57:40Z</time>
      </trkpt>
      <trkpt lat="45.26469" lon="4.31379">
        <ele>861</ele>
        <time>2021-04-26T13:57:41Z</time>
      </trkpt>
      <trkpt lat="45.26467" lon="4.31383">
        <ele>861</ele>
        <time>2021-04-26T13:57:42Z</time>
      </trkpt>
      <trkpt lat="45.26464" lon="4.31387">
        <ele>861</ele>
        <time>2021-04-26T13:57:43Z</time>
      </trkpt>
      <trkpt lat="45.26461" lon="4.31391">
        <ele>861</ele>
        <time>2021-04-26T13:57:44Z</time>
      </trkpt>
      <trkpt lat="45.26459" lon="4.31395">
        <ele>862</ele>
        <time>2021-04-26T13:57:45Z</time>
      </trkpt>
      <trkpt lat="45.26456" lon="4.31399">
        <ele>862</ele>
        <time>2021-04-26T13:57:46Z</time>
      </trkpt>
      <trkpt lat="45.26453" lon="4.31403">
        <ele>862</ele>
        <time>2021-04-26T13:57:47Z</time>
      </trkpt>
      <trkpt lat="45.2645" lon="4.31407">
        <ele>862</ele>
        <time>2021-04-26T13:57:48Z</time>
      </trkpt>
      <trkpt lat="45.26446" lon="4.3141">
        <ele>863</ele>
        <time>2021-04-26T13:57:49Z</time>
      </trkpt>
      <trkpt lat="45.26443" lon="4.31414">
        <ele>863</ele>
        <time>2021-04-26T13:57:50Z</time>
      </trkpt>
      <trkpt lat="45.2644" lon="4.31417">
        <ele>863</ele>
        <time>2021-04-26T13:57:51Z</time>
      </trkpt>
      <trkpt lat="45.26437" lon="4.3142">
        <ele>863</ele>
        <time>2021-04-26T13:57:52Z</time>
      </trkpt>
      <trkpt lat="45.26433" lon="4.31424">
        <ele>863</ele>
        <time>2021-04-26T13:57:53Z</time>
      </trkpt>
      <trkpt lat="45.2643" lon="4.31427">
        <ele>864</ele>
        <time>2021-04-26T13:57:54Z</time>
      </trkpt>
      <trkpt lat="45.26427" lon="4.3143">
        <ele>864</ele>
        <time>2021-04-26T13:57:55Z</time>
      </trkpt>
      <trkpt lat="45.26425" lon="4.31433">
        <ele>864</ele>
        <time>2021-04-26T13:57:56Z</time>
      </trkpt>
      <trkpt lat="45.26422" lon="4.31436">
        <ele>865</ele>
        <time>2021-04-26T13:57:57Z</time>
      </trkpt>
      <trkpt lat="45.26419" lon="4.31439">
        <ele>865</ele>
        <time>2021-04-26T13:57:58Z</time>
      </trkpt>
      <trkpt lat="45.26416" lon="4.31442">
        <ele>865</ele>
        <time>2021-04-26T13:57:59Z</time>
      </trkpt>
      <trkpt lat="45.26413" lon="4.31445">
        <ele>866</ele>
        <time>2021-04-26T13:58:00Z</time>
      </trkpt>
      <trkpt lat="45.26411" lon="4.31448">
        <ele>866</ele>
        <time>2021-04-26T13:58:01Z</time>
      </trkpt>
      <trkpt lat="45.26408" lon="4.31451">
        <ele>866</ele>
        <time>2021-04-26T13:58:02Z</time>
      </trkpt>
      <trkpt lat="45.26406" lon="4.31455">
        <ele>867</ele>
        <time>2021-04-26T13:58:03Z</time>
      </trkpt>
      <trkpt lat="45.26403" lon="4.31458">
        <ele>867</ele>
        <time>2021-04-26T13:58:04Z</time>
      </trkpt>
      <trkpt lat="45.26401" lon="4.31462">
        <ele>867</ele>
        <time>2021-04-26T13:58:05Z</time>
      </trkpt>
      <trkpt lat="45.26399" lon="4.31465">
        <ele>868</ele>
        <time>2021-04-26T13:58:06Z</time>
      </trkpt>
      <trkpt lat="45.26397" lon="4.31469">
        <ele>868</ele>
        <time>2021-04-26T13:58:07Z</time>
      </trkpt>
      <trkpt lat="45.26396" lon="4.31473">
        <ele>869</ele>
        <time>2021-04-26T13:58:08Z</time>
      </trkpt>
      <trkpt lat="45.26394" lon="4.31477">
        <ele>869</ele>
        <time>2021-04-26T13:58:09Z</time>
      </trkpt>
      <trkpt lat="45.26393" lon="4.3148">
        <ele>870</ele>
        <time>2021-04-26T13:58:10Z</time>
      </trkpt>
      <trkpt lat="45.26392" lon="4.31484">
        <ele>870</ele>
        <time>2021-04-26T13:58:11Z</time>
      </trkpt>
      <trkpt lat="45.26391" lon="4.31487">
        <ele>870</ele>
        <time>2021-04-26T13:58:12Z</time>
      </trkpt>
      <trkpt lat="45.2639" lon="4.31491">
        <ele>870</ele>
        <time>2021-04-26T13:58:13Z</time>
      </trkpt>
      <trkpt lat="45.26389" lon="4.31495">
        <ele>870</ele>
        <time>2021-04-26T13:58:14Z</time>
      </trkpt>
      <trkpt lat="45.26389" lon="4.31499">
        <ele>871</ele>
        <time>2021-04-26T13:58:15Z</time>
      </trkpt>
      <trkpt lat="45.26388" lon="4.31503">
        <ele>872</ele>
        <time>2021-04-26T13:58:16Z</time>
      </trkpt>
      <trkpt lat="45.26387" lon="4.31507">
        <ele>872</ele>
        <time>2021-04-26T13:58:17Z</time>
      </trkpt>
      <trkpt lat="45.26386" lon="4.31511">
        <ele>872</ele>
        <time>2021-04-26T13:58:18Z</time>
      </trkpt>
      <trkpt lat="45.26386" lon="4.31515">
        <ele>873</ele>
        <time>2021-04-26T13:58:19Z</time>
      </trkpt>
      <trkpt lat="45.26385" lon="4.31519">
        <ele>873</ele>
        <time>2021-04-26T13:58:20Z</time>
      </trkpt>
      <trkpt lat="45.26384" lon="4.31522">
        <ele>873</ele>
        <time>2021-04-26T13:58:21Z</time>
      </trkpt>
      <trkpt lat="45.26383" lon="4.31526">
        <ele>874</ele>
        <time>2021-04-26T13:58:22Z</time>
      </trkpt>
      <trkpt lat="45.26381" lon="4.3153">
        <ele>874</ele>
        <time>2021-04-26T13:58:23Z</time>
      </trkpt>
      <trkpt lat="45.2638" lon="4.31533">
        <ele>875</ele>
        <time>2021-04-26T13:58:24Z</time>
      </trkpt>
      <trkpt lat="45.26379" lon="4.31537">
        <ele>875</ele>
        <time>2021-04-26T13:58:25Z</time>
      </trkpt>
      <trkpt lat="45.26378" lon="4.31541">
        <ele>875</ele>
        <time>2021-04-26T13:58:26Z</time>
      </trkpt>
      <trkpt lat="45.26377" lon="4.31545">
        <ele>876</ele>
        <time>2021-04-26T13:58:27Z</time>
      </trkpt>
      <trkpt lat="45.26376" lon="4.31549">
        <ele>876</ele>
        <time>2021-04-26T13:58:28Z</time>
      </trkpt>
      <trkpt lat="45.26375" lon="4.31553">
        <ele>877</ele>
        <time>2021-04-26T13:58:29Z</time>
      </trkpt>
      <trkpt lat="45.26374" lon="4.31557">
        <ele>877</ele>
        <time>2021-04-26T13:58:30Z</time>
      </trkpt>
      <trkpt lat="45.26373" lon="4.3156">
        <ele>877</ele>
        <time>2021-04-26T13:58:31Z</time>
      </trkpt>
      <trkpt lat="45.26371" lon="4.31564">
        <ele>878</ele>
        <time>2021-04-26T13:58:32Z</time>
      </trkpt>
      <trkpt lat="45.2637" lon="4.31568">
        <ele>878</ele>
        <time>2021-04-26T13:58:33Z</time>
      </trkpt>
      <trkpt lat="45.26368" lon="4.31572">
        <ele>879</ele>
        <time>2021-04-26T13:58:34Z</time>
      </trkpt>
      <trkpt lat="45.26366" lon="4.31575">
        <ele>879</ele>
        <time>2021-04-26T13:58:35Z</time>
      </trkpt>
      <trkpt lat="45.26365" lon="4.31579">
        <ele>880</ele>
        <time>2021-04-26T13:58:36Z</time>
      </trkpt>
      <trkpt lat="45.26363" lon="4.31583">
        <ele>880</ele>
        <time>2021-04-26T13:58:37Z</time>
      </trkpt>
      <trkpt lat="45.26361" lon="4.31587">
        <ele>880</ele>
        <time>2021-04-26T13:58:38Z</time>
      </trkpt>
      <trkpt lat="45.26359" lon="4.31591">
        <ele>881</ele>
        <time>2021-04-26T13:58:39Z</time>
      </trkpt>
      <trkpt lat="45.26357" lon="4.31595">
        <ele>881</ele>
        <time>2021-04-26T13:58:40Z</time>
      </trkpt>
      <trkpt lat="45.26355" lon="4.31599">
        <ele>881</ele>
        <time>2021-04-26T13:58:41Z</time>
      </trkpt>
      <trkpt lat="45.26354" lon="4.31603">
        <ele>881</ele>
        <time>2021-04-26T13:58:42Z</time>
      </trkpt>
      <trkpt lat="45.26351" lon="4.31607">
        <ele>882</ele>
        <time>2021-04-26T13:58:43Z</time>
      </trkpt>
      <trkpt lat="45.26349" lon="4.31611">
        <ele>882</ele>
        <time>2021-04-26T13:58:44Z</time>
      </trkpt>
      <trkpt lat="45.26347" lon="4.31615">
        <ele>882</ele>
        <time>2021-04-26T13:58:45Z</time>
      </trkpt>
      <trkpt lat="45.26345" lon="4.31619">
        <ele>883</ele>
        <time>2021-04-26T13:58:46Z</time>
      </trkpt>
      <trkpt lat="45.26343" lon="4.31622">
        <ele>883</ele>
        <time>2021-04-26T13:58:47Z</time>
      </trkpt>
      <trkpt lat="45.2634" lon="4.31626">
        <ele>883</ele>
        <time>2021-04-26T13:58:48Z</time>
      </trkpt>
      <trkpt lat="45.26338" lon="4.3163">
        <ele>883</ele>
        <time>2021-04-26T13:58:49Z</time>
      </trkpt>
      <trkpt lat="45.26336" lon="4.31634">
        <ele>884</ele>
        <time>2021-04-26T13:58:50Z</time>
      </trkpt>
      <trkpt lat="45.26334" lon="4.31638">
        <ele>884</ele>
        <time>2021-04-26T13:58:51Z</time>
      </trkpt>
      <trkpt lat="45.26332" lon="4.31642">
        <ele>884</ele>
        <time>2021-04-26T13:58:52Z</time>
      </trkpt>
      <trkpt lat="45.2633" lon="4.31646">
        <ele>884</ele>
        <time>2021-04-26T13:58:53Z</time>
      </trkpt>
      <trkpt lat="45.26328" lon="4.3165">
        <ele>885</ele>
        <time>2021-04-26T13:58:54Z</time>
      </trkpt>
      <trkpt lat="45.26326" lon="4.31653">
        <ele>885</ele>
        <time>2021-04-26T13:58:55Z</time>
      </trkpt>
      <trkpt lat="45.26324" lon="4.31657">
        <ele>885</ele>
        <time>2021-04-26T13:58:56Z</time>
      </trkpt>
      <trkpt lat="45.26323" lon="4.31661">
        <ele>886</ele>
        <time>2021-04-26T13:58:57Z</time>
      </trkpt>
      <trkpt lat="45.26321" lon="4.31666">
        <ele>886</ele>
        <time>2021-04-26T13:58:58Z</time>
      </trkpt>
      <trkpt lat="45.2632" lon="4.3167">
        <ele>887</ele>
        <time>2021-04-26T13:58:59Z</time>
      </trkpt>
      <trkpt lat="45.26318" lon="4.31673">
        <ele>887</ele>
        <time>2021-04-26T13:59:00Z</time>
      </trkpt>
      <trkpt lat="45.26316" lon="4.31677">
        <ele>887</ele>
        <time>2021-04-26T13:59:01Z</time>
      </trkpt>
      <trkpt lat="45.26315" lon="4.31681">
        <ele>888</ele>
        <time>2021-04-26T13:59:02Z</time>
      </trkpt>
      <trkpt lat="45.26313" lon="4.31685">
        <ele>888</ele>
        <time>2021-04-26T13:59:03Z</time>
      </trkpt>
      <trkpt lat="45.26311" lon="4.31688">
        <ele>888</ele>
        <time>2021-04-26T13:59:04Z</time>
      </trkpt>
      <trkpt lat="45.26309" lon="4.31691">
        <ele>889</ele>
        <time>2021-04-26T13:59:05Z</time>
      </trkpt>
      <trkpt lat="45.26306" lon="4.31693">
        <ele>889</ele>
        <time>2021-04-26T13:59:06Z</time>
      </trkpt>
      <trkpt lat="45.26303" lon="4.31696">
        <ele>889</ele>
        <time>2021-04-26T13:59:07Z</time>
      </trkpt>
      <trkpt lat="45.263" lon="4.31697">
        <ele>890</ele>
        <time>2021-04-26T13:59:08Z</time>
      </trkpt>
      <trkpt lat="45.26297" lon="4.31699">
        <ele>890</ele>
        <time>2021-04-26T13:59:09Z</time>
      </trkpt>
      <trkpt lat="45.26294" lon="4.317">
        <ele>890</ele>
        <time>2021-04-26T13:59:10Z</time>
      </trkpt>
      <trkpt lat="45.26291" lon="4.31702">
        <ele>891</ele>
        <time>2021-04-26T13:59:11Z</time>
      </trkpt>
      <trkpt lat="45.26288" lon="4.31703">
        <ele>891</ele>
        <time>2021-04-26T13:59:12Z</time>
      </trkpt>
      <trkpt lat="45.26285" lon="4.31704">
        <ele>891</ele>
        <time>2021-04-26T13:59:13Z</time>
      </trkpt>
      <trkpt lat="45.26282" lon="4.31705">
        <ele>891</ele>
        <time>2021-04-26T13:59:14Z</time>
      </trkpt>
      <trkpt lat="45.26278" lon="4.31706">
        <ele>891</ele>
        <time>2021-04-26T13:59:15Z</time>
      </trkpt>
      <trkpt lat="45.26275" lon="4.31707">
        <ele>892</ele>
        <time>2021-04-26T13:59:16Z</time>
      </trkpt>
      <trkpt lat="45.26272" lon="4.31708">
        <ele>892</ele>
        <time>2021-04-26T13:59:17Z</time>
      </trkpt>
      <trkpt lat="45.26269" lon="4.31709">
        <ele>892</ele>
        <time>2021-04-26T13:59:18Z</time>
      </trkpt>
      <trkpt lat="45.26265" lon="4.3171">
        <ele>892</ele>
        <time>2021-04-26T13:59:19Z</time>
      </trkpt>
      <trkpt lat="45.26262" lon="4.31711">
        <ele>893</ele>
        <time>2021-04-26T13:59:20Z</time>
      </trkpt>
      <trkpt lat="45.26258" lon="4.31712">
        <ele>893</ele>
        <time>2021-04-26T13:59:21Z</time>
      </trkpt>
      <trkpt lat="45.26255" lon="4.31714">
        <ele>893</ele>
        <time>2021-04-26T13:59:22Z</time>
      </trkpt>
      <trkpt lat="45.26251" lon="4.31715">
        <ele>893</ele>
        <time>2021-04-26T13:59:23Z</time>
      </trkpt>
      <trkpt lat="45.26248" lon="4.31717">
        <ele>893</ele>
        <time>2021-04-26T13:59:24Z</time>
      </trkpt>
      <trkpt lat="45.26244" lon="4.31718">
        <ele>893</ele>
        <time>2021-04-26T13:59:25Z</time>
      </trkpt>
      <trkpt lat="45.26241" lon="4.31721">
        <ele>893</ele>
        <time>2021-04-26T13:59:26Z</time>
      </trkpt>
      <trkpt lat="45.26237" lon="4.31723">
        <ele>893</ele>
        <time>2021-04-26T13:59:27Z</time>
      </trkpt>
      <trkpt lat="45.26233" lon="4.31726">
        <ele>893</ele>
        <time>2021-04-26T13:59:28Z</time>
      </trkpt>
      <trkpt lat="45.2623" lon="4.31728">
        <ele>894</ele>
        <time>2021-04-26T13:59:29Z</time>
      </trkpt>
      <trkpt lat="45.26226" lon="4.31731">
        <ele>894</ele>
        <time>2021-04-26T13:59:30Z</time>
      </trkpt>
      <trkpt lat="45.26223" lon="4.31734">
        <ele>894</ele>
        <time>2021-04-26T13:59:31Z</time>
      </trkpt>
      <trkpt lat="45.2622" lon="4.31738">
        <ele>894</ele>
        <time>2021-04-26T13:59:32Z</time>
      </trkpt>
      <trkpt lat="45.26217" lon="4.31741">
        <ele>894</ele>
        <time>2021-04-26T13:59:33Z</time>
      </trkpt>
      <trkpt lat="45.26214" lon="4.31745">
        <ele>894</ele>
        <time>2021-04-26T13:59:34Z</time>
      </trkpt>
      <trkpt lat="45.26211" lon="4.31749">
        <ele>895</ele>
        <time>2021-04-26T13:59:35Z</time>
      </trkpt>
      <trkpt lat="45.26209" lon="4.31754">
        <ele>895</ele>
        <time>2021-04-26T13:59:36Z</time>
      </trkpt>
      <trkpt lat="45.26206" lon="4.31758">
        <ele>895</ele>
        <time>2021-04-26T13:59:37Z</time>
      </trkpt>
      <trkpt lat="45.26204" lon="4.31763">
        <ele>896</ele>
        <time>2021-04-26T13:59:38Z</time>
      </trkpt>
      <trkpt lat="45.26202" lon="4.31767">
        <ele>896</ele>
        <time>2021-04-26T13:59:39Z</time>
      </trkpt>
      <trkpt lat="45.262" lon="4.31772">
        <ele>896</ele>
        <time>2021-04-26T13:59:40Z</time>
      </trkpt>
      <trkpt lat="45.26198" lon="4.31777">
        <ele>897</ele>
        <time>2021-04-26T13:59:41Z</time>
      </trkpt>
      <trkpt lat="45.26195" lon="4.31782">
        <ele>897</ele>
        <time>2021-04-26T13:59:42Z</time>
      </trkpt>
      <trkpt lat="45.26193" lon="4.31786">
        <ele>897</ele>
        <time>2021-04-26T13:59:43Z</time>
      </trkpt>
      <trkpt lat="45.26191" lon="4.3179">
        <ele>898</ele>
        <time>2021-04-26T13:59:44Z</time>
      </trkpt>
      <trkpt lat="45.26188" lon="4.31794">
        <ele>898</ele>
        <time>2021-04-26T13:59:45Z</time>
      </trkpt>
      <trkpt lat="45.26186" lon="4.31798">
        <ele>898</ele>
        <time>2021-04-26T13:59:46Z</time>
      </trkpt>
      <trkpt lat="45.26184" lon="4.31803">
        <ele>898</ele>
        <time>2021-04-26T13:59:47Z</time>
      </trkpt>
      <trkpt lat="45.26182" lon="4.31807">
        <ele>899</ele>
        <time>2021-04-26T13:59:48Z</time>
      </trkpt>
      <trkpt lat="45.2618" lon="4.31812">
        <ele>899</ele>
        <time>2021-04-26T13:59:49Z</time>
      </trkpt>
      <trkpt lat="45.26178" lon="4.31817">
        <ele>899</ele>
        <time>2021-04-26T13:59:50Z</time>
      </trkpt>
      <trkpt lat="45.26177" lon="4.31821">
        <ele>899</ele>
        <time>2021-04-26T13:59:51Z</time>
      </trkpt>
      <trkpt lat="45.26175" lon="4.31826">
        <ele>900</ele>
        <time>2021-04-26T13:59:52Z</time>
      </trkpt>
      <trkpt lat="45.26174" lon="4.31831">
        <ele>900</ele>
        <time>2021-04-26T13:59:53Z</time>
      </trkpt>
      <trkpt lat="45.26173" lon="4.31837">
        <ele>900</ele>
        <time>2021-04-26T13:59:54Z</time>
      </trkpt>
      <trkpt lat="45.26173" lon="4.31841">
        <ele>900</ele>
        <time>2021-04-26T13:59:55Z</time>
      </trkpt>
      <trkpt lat="45.26172" lon="4.31846">
        <ele>900</ele>
        <time>2021-04-26T13:59:56Z</time>
      </trkpt>
      <trkpt lat="45.26171" lon="4.31851">
        <ele>900</ele>
        <time>2021-04-26T13:59:57Z</time>
      </trkpt>
      <trkpt lat="45.2617" lon="4.31856">
        <ele>900</ele>
        <time>2021-04-26T13:59:58Z</time>
      </trkpt>
      <trkpt lat="45.2617" lon="4.3186">
        <ele>901</ele>
        <time>2021-04-26T13:59:59Z</time>
      </trkpt>
      <trkpt lat="45.2617" lon="4.31864">
        <ele>901</ele>
        <time>2021-04-26T14:00:00Z</time>
      </trkpt>
      <trkpt lat="45.26169" lon="4.31867">
        <ele>901</ele>
        <time>2021-04-26T14:00:02Z</time>
      </trkpt>
      <trkpt lat="45.26163" lon="4.31872">
        <ele>902</ele>
        <time>2021-04-26T14:00:15Z</time>
      </trkpt>
      <trkpt lat="45.2616" lon="4.31875">
        <ele>902</ele>
        <time>2021-04-26T14:00:16Z</time>
      </trkpt>
      <trkpt lat="45.26157" lon="4.31879">
        <ele>902</ele>
        <time>2021-04-26T14:00:17Z</time>
      </trkpt>
      <trkpt lat="45.26154" lon="4.31883">
        <ele>902</ele>
        <time>2021-04-26T14:00:18Z</time>
      </trkpt>
      <trkpt lat="45.26151" lon="4.31887">
        <ele>902</ele>
        <time>2021-04-26T14:00:19Z</time>
      </trkpt>
      <trkpt lat="45.26147" lon="4.31892">
        <ele>902</ele>
        <time>2021-04-26T14:00:20Z</time>
      </trkpt>
      <trkpt lat="45.26143" lon="4.31897">
        <ele>901</ele>
        <time>2021-04-26T14:00:21Z</time>
      </trkpt>
      <trkpt lat="45.26139" lon="4.31902">
        <ele>901</ele>
        <time>2021-04-26T14:00:22Z</time>
      </trkpt>
      <trkpt lat="45.26136" lon="4.31906">
        <ele>901</ele>
        <time>2021-04-26T14:00:23Z</time>
      </trkpt>
      <trkpt lat="45.26133" lon="4.3191">
        <ele>901</ele>
        <time>2021-04-26T14:00:24Z</time>
      </trkpt>
      <trkpt lat="45.26131" lon="4.31913">
        <ele>901</ele>
        <time>2021-04-26T14:00:25Z</time>
      </trkpt>
      <trkpt lat="45.26128" lon="4.31917">
        <ele>901</ele>
        <time>2021-04-26T14:00:26Z</time>
      </trkpt>
      <trkpt lat="45.26125" lon="4.31921">
        <ele>900</ele>
        <time>2021-04-26T14:00:27Z</time>
      </trkpt>
      <trkpt lat="45.26122" lon="4.31926">
        <ele>900</ele>
        <time>2021-04-26T14:00:28Z</time>
      </trkpt>
      <trkpt lat="45.26118" lon="4.31933">
        <ele>900</ele>
        <time>2021-04-26T14:00:29Z</time>
      </trkpt>
      <trkpt lat="45.26114" lon="4.31941">
        <ele>899</ele>
        <time>2021-04-26T14:00:30Z</time>
      </trkpt>
      <trkpt lat="45.26108" lon="4.31948">
        <ele>898</ele>
        <time>2021-04-26T14:00:31Z</time>
      </trkpt>
      <trkpt lat="45.26101" lon="4.31956">
        <ele>898</ele>
        <time>2021-04-26T14:00:32Z</time>
      </trkpt>
      <trkpt lat="45.26093" lon="4.31965">
        <ele>897</ele>
        <time>2021-04-26T14:00:33Z</time>
      </trkpt>
      <trkpt lat="45.26086" lon="4.31975">
        <ele>897</ele>
        <time>2021-04-26T14:00:34Z</time>
      </trkpt>
      <trkpt lat="45.2608" lon="4.31987">
        <ele>895</ele>
        <time>2021-04-26T14:00:35Z</time>
      </trkpt>
      <trkpt lat="45.26075" lon="4.32">
        <ele>895</ele>
        <time>2021-04-26T14:00:36Z</time>
      </trkpt>
      <trkpt lat="45.2607" lon="4.32013">
        <ele>895</ele>
        <time>2021-04-26T14:00:37Z</time>
      </trkpt>
      <trkpt lat="45.26066" lon="4.32025">
        <ele>895</ele>
        <time>2021-04-26T14:00:38Z</time>
      </trkpt>
      <trkpt lat="45.26061" lon="4.32037">
        <ele>894</ele>
        <time>2021-04-26T14:00:39Z</time>
      </trkpt>
      <trkpt lat="45.26056" lon="4.32047">
        <ele>894</ele>
        <time>2021-04-26T14:00:40Z</time>
      </trkpt>
      <trkpt lat="45.26051" lon="4.32054">
        <ele>894</ele>
        <time>2021-04-26T14:00:41Z</time>
      </trkpt>
      <trkpt lat="45.26045" lon="4.32061">
        <ele>895</ele>
        <time>2021-04-26T14:00:42Z</time>
      </trkpt>
      <trkpt lat="45.2604" lon="4.32066">
        <ele>895</ele>
        <time>2021-04-26T14:00:43Z</time>
      </trkpt>
      <trkpt lat="45.26036" lon="4.32071">
        <ele>895</ele>
        <time>2021-04-26T14:00:44Z</time>
      </trkpt>
      <trkpt lat="45.26032" lon="4.32075">
        <ele>895</ele>
        <time>2021-04-26T14:00:45Z</time>
      </trkpt>
      <trkpt lat="45.26028" lon="4.32079">
        <ele>895</ele>
        <time>2021-04-26T14:00:46Z</time>
      </trkpt>
      <trkpt lat="45.26024" lon="4.32083">
        <ele>895</ele>
        <time>2021-04-26T14:00:47Z</time>
      </trkpt>
      <trkpt lat="45.26021" lon="4.32087">
        <ele>895</ele>
        <time>2021-04-26T14:00:48Z</time>
      </trkpt>
      <trkpt lat="45.26017" lon="4.3209">
        <ele>895</ele>
        <time>2021-04-26T14:00:49Z</time>
      </trkpt>
      <trkpt lat="45.26013" lon="4.32094">
        <ele>895</ele>
        <time>2021-04-26T14:00:50Z</time>
      </trkpt>
      <trkpt lat="45.2601" lon="4.32097">
        <ele>895</ele>
        <time>2021-04-26T14:00:51Z</time>
      </trkpt>
      <trkpt lat="45.26007" lon="4.32101">
        <ele>895</ele>
        <time>2021-04-26T14:00:52Z</time>
      </trkpt>
      <trkpt lat="45.26004" lon="4.32104">
        <ele>895</ele>
        <time>2021-04-26T14:00:53Z</time>
      </trkpt>
      <trkpt lat="45.26001" lon="4.32107">
        <ele>895</ele>
        <time>2021-04-26T14:00:54Z</time>
      </trkpt>
      <trkpt lat="45.25998" lon="4.32111">
        <ele>894</ele>
        <time>2021-04-26T14:00:55Z</time>
      </trkpt>
      <trkpt lat="45.25995" lon="4.32114">
        <ele>894</ele>
        <time>2021-04-26T14:00:56Z</time>
      </trkpt>
      <trkpt lat="45.25991" lon="4.32118">
        <ele>894</ele>
        <time>2021-04-26T14:00:57Z</time>
      </trkpt>
      <trkpt lat="45.25988" lon="4.32122">
        <ele>894</ele>
        <time>2021-04-26T14:00:58Z</time>
      </trkpt>
      <trkpt lat="45.25984" lon="4.32125">
        <ele>894</ele>
        <time>2021-04-26T14:00:59Z</time>
      </trkpt>
      <trkpt lat="45.25981" lon="4.32128">
        <ele>894</ele>
        <time>2021-04-26T14:01:00Z</time>
      </trkpt>
      <trkpt lat="45.25977" lon="4.32131">
        <ele>894</ele>
        <time>2021-04-26T14:01:01Z</time>
      </trkpt>
      <trkpt lat="45.25973" lon="4.32135">
        <ele>894</ele>
        <time>2021-04-26T14:01:02Z</time>
      </trkpt>
      <trkpt lat="45.2597" lon="4.32138">
        <ele>895</ele>
        <time>2021-04-26T14:01:03Z</time>
      </trkpt>
      <trkpt lat="45.25966" lon="4.32141">
        <ele>895</ele>
        <time>2021-04-26T14:01:04Z</time>
      </trkpt>
      <trkpt lat="45.25963" lon="4.32144">
        <ele>895</ele>
        <time>2021-04-26T14:01:05Z</time>
      </trkpt>
      <trkpt lat="45.25959" lon="4.32147">
        <ele>895</ele>
        <time>2021-04-26T14:01:06Z</time>
      </trkpt>
      <trkpt lat="45.25956" lon="4.32151">
        <ele>895</ele>
        <time>2021-04-26T14:01:07Z</time>
      </trkpt>
      <trkpt lat="45.25952" lon="4.32154">
        <ele>895</ele>
        <time>2021-04-26T14:01:08Z</time>
      </trkpt>
      <trkpt lat="45.25949" lon="4.32158">
        <ele>896</ele>
        <time>2021-04-26T14:01:09Z</time>
      </trkpt>
      <trkpt lat="45.25945" lon="4.32161">
        <ele>896</ele>
        <time>2021-04-26T14:01:10Z</time>
      </trkpt>
      <trkpt lat="45.25942" lon="4.32165">
        <ele>896</ele>
        <time>2021-04-26T14:01:11Z</time>
      </trkpt>
      <trkpt lat="45.25939" lon="4.32168">
        <ele>896</ele>
        <time>2021-04-26T14:01:12Z</time>
      </trkpt>
      <trkpt lat="45.25935" lon="4.32172">
        <ele>896</ele>
        <time>2021-04-26T14:01:13Z</time>
      </trkpt>
      <trkpt lat="45.25932" lon="4.32175">
        <ele>896</ele>
        <time>2021-04-26T14:01:14Z</time>
      </trkpt>
      <trkpt lat="45.25929" lon="4.32178">
        <ele>896</ele>
        <time>2021-04-26T14:01:15Z</time>
      </trkpt>
      <trkpt lat="45.25925" lon="4.32181">
        <ele>897</ele>
        <time>2021-04-26T14:01:16Z</time>
      </trkpt>
      <trkpt lat="45.25921" lon="4.32184">
        <ele>897</ele>
        <time>2021-04-26T14:01:17Z</time>
      </trkpt>
      <trkpt lat="45.25918" lon="4.32186">
        <ele>897</ele>
        <time>2021-04-26T14:01:18Z</time>
      </trkpt>
      <trkpt lat="45.25914" lon="4.32189">
        <ele>897</ele>
        <time>2021-04-26T14:01:19Z</time>
      </trkpt>
      <trkpt lat="45.25911" lon="4.32191">
        <ele>898</ele>
        <time>2021-04-26T14:01:20Z</time>
      </trkpt>
      <trkpt lat="45.25907" lon="4.32192">
        <ele>898</ele>
        <time>2021-04-26T14:01:21Z</time>
      </trkpt>
      <trkpt lat="45.25904" lon="4.32194">
        <ele>898</ele>
        <time>2021-04-26T14:01:22Z</time>
      </trkpt>
      <trkpt lat="45.25901" lon="4.32195">
        <ele>899</ele>
        <time>2021-04-26T14:01:23Z</time>
      </trkpt>
      <trkpt lat="45.25897" lon="4.32197">
        <ele>899</ele>
        <time>2021-04-26T14:01:24Z</time>
      </trkpt>
      <trkpt lat="45.25894" lon="4.32198">
        <ele>899</ele>
        <time>2021-04-26T14:01:25Z</time>
      </trkpt>
      <trkpt lat="45.2589" lon="4.32199">
        <ele>900</ele>
        <time>2021-04-26T14:01:26Z</time>
      </trkpt>
      <trkpt lat="45.25887" lon="4.322">
        <ele>900</ele>
        <time>2021-04-26T14:01:27Z</time>
      </trkpt>
      <trkpt lat="45.25884" lon="4.32202">
        <ele>900</ele>
        <time>2021-04-26T14:01:28Z</time>
      </trkpt>
      <trkpt lat="45.25881" lon="4.32204">
        <ele>901</ele>
        <time>2021-04-26T14:01:29Z</time>
      </trkpt>
      <trkpt lat="45.25878" lon="4.32206">
        <ele>901</ele>
        <time>2021-04-26T14:01:30Z</time>
      </trkpt>
      <trkpt lat="45.25875" lon="4.32208">
        <ele>901</ele>
        <time>2021-04-26T14:01:31Z</time>
      </trkpt>
      <trkpt lat="45.25872" lon="4.3221">
        <ele>902</ele>
        <time>2021-04-26T14:01:32Z</time>
      </trkpt>
      <trkpt lat="45.2587" lon="4.32213">
        <ele>902</ele>
        <time>2021-04-26T14:01:33Z</time>
      </trkpt>
      <trkpt lat="45.25867" lon="4.32216">
        <ele>903</ele>
        <time>2021-04-26T14:01:34Z</time>
      </trkpt>
      <trkpt lat="45.25864" lon="4.32219">
        <ele>903</ele>
        <time>2021-04-26T14:01:35Z</time>
      </trkpt>
      <trkpt lat="45.25862" lon="4.32222">
        <ele>903</ele>
        <time>2021-04-26T14:01:36Z</time>
      </trkpt>
      <trkpt lat="45.25861" lon="4.32227">
        <ele>903</ele>
        <time>2021-04-26T14:01:37Z</time>
      </trkpt>
      <trkpt lat="45.25859" lon="4.32231">
        <ele>904</ele>
        <time>2021-04-26T14:01:38Z</time>
      </trkpt>
      <trkpt lat="45.25858" lon="4.32236">
        <ele>904</ele>
        <time>2021-04-26T14:01:39Z</time>
      </trkpt>
      <trkpt lat="45.25857" lon="4.32241">
        <ele>904</ele>
        <time>2021-04-26T14:01:40Z</time>
      </trkpt>
      <trkpt lat="45.25856" lon="4.32245">
        <ele>904</ele>
        <time>2021-04-26T14:01:41Z</time>
      </trkpt>
      <trkpt lat="45.25855" lon="4.3225">
        <ele>905</ele>
        <time>2021-04-26T14:01:42Z</time>
      </trkpt>
      <trkpt lat="45.25855" lon="4.32254">
        <ele>905</ele>
        <time>2021-04-26T14:01:43Z</time>
      </trkpt>
      <trkpt lat="45.25853" lon="4.32259">
        <ele>905</ele>
        <time>2021-04-26T14:01:44Z</time>
      </trkpt>
      <trkpt lat="45.25852" lon="4.32262">
        <ele>905</ele>
        <time>2021-04-26T14:01:45Z</time>
      </trkpt>
      <trkpt lat="45.2585" lon="4.32266">
        <ele>906</ele>
        <time>2021-04-26T14:01:46Z</time>
      </trkpt>
      <trkpt lat="45.25847" lon="4.3227">
        <ele>906</ele>
        <time>2021-04-26T14:01:47Z</time>
      </trkpt>
      <trkpt lat="45.25845" lon="4.32273">
        <ele>906</ele>
        <time>2021-04-26T14:01:48Z</time>
      </trkpt>
      <trkpt lat="45.25842" lon="4.32275">
        <ele>906</ele>
        <time>2021-04-26T14:01:49Z</time>
      </trkpt>
      <trkpt lat="45.2584" lon="4.32278">
        <ele>906</ele>
        <time>2021-04-26T14:01:50Z</time>
      </trkpt>
      <trkpt lat="45.25837" lon="4.3228">
        <ele>906</ele>
        <time>2021-04-26T14:01:51Z</time>
      </trkpt>
      <trkpt lat="45.25834" lon="4.32283">
        <ele>907</ele>
        <time>2021-04-26T14:01:52Z</time>
      </trkpt>
      <trkpt lat="45.25831" lon="4.32285">
        <ele>907</ele>
        <time>2021-04-26T14:01:53Z</time>
      </trkpt>
      <trkpt lat="45.25828" lon="4.32288">
        <ele>907</ele>
        <time>2021-04-26T14:01:54Z</time>
      </trkpt>
      <trkpt lat="45.25825" lon="4.32291">
        <ele>907</ele>
        <time>2021-04-26T14:01:55Z</time>
      </trkpt>
      <trkpt lat="45.25823" lon="4.32295">
        <ele>907</ele>
        <time>2021-04-26T14:01:56Z</time>
      </trkpt>
      <trkpt lat="45.2582" lon="4.32298">
        <ele>908</ele>
        <time>2021-04-26T14:01:57Z</time>
      </trkpt>
      <trkpt lat="45.25818" lon="4.32301">
        <ele>908</ele>
        <time>2021-04-26T14:01:58Z</time>
      </trkpt>
      <trkpt lat="45.25815" lon="4.32303">
        <ele>908</ele>
        <time>2021-04-26T14:01:59Z</time>
      </trkpt>
      <trkpt lat="45.25813" lon="4.32306">
        <ele>908</ele>
        <time>2021-04-26T14:02:00Z</time>
      </trkpt>
      <trkpt lat="45.2581" lon="4.32309">
        <ele>909</ele>
        <time>2021-04-26T14:02:01Z</time>
      </trkpt>
      <trkpt lat="45.25807" lon="4.32312">
        <ele>909</ele>
        <time>2021-04-26T14:02:02Z</time>
      </trkpt>
      <trkpt lat="45.25805" lon="4.32315">
        <ele>909</ele>
        <time>2021-04-26T14:02:03Z</time>
      </trkpt>
      <trkpt lat="45.25803" lon="4.32318">
        <ele>910</ele>
        <time>2021-04-26T14:02:04Z</time>
      </trkpt>
      <trkpt lat="45.25801" lon="4.32322">
        <ele>910</ele>
        <time>2021-04-26T14:02:05Z</time>
      </trkpt>
      <trkpt lat="45.25798" lon="4.32325">
        <ele>910</ele>
        <time>2021-04-26T14:02:06Z</time>
      </trkpt>
      <trkpt lat="45.25796" lon="4.32328">
        <ele>910</ele>
        <time>2021-04-26T14:02:07Z</time>
      </trkpt>
      <trkpt lat="45.25794" lon="4.32332">
        <ele>911</ele>
        <time>2021-04-26T14:02:08Z</time>
      </trkpt>
      <trkpt lat="45.25793" lon="4.32336">
        <ele>911</ele>
        <time>2021-04-26T14:02:09Z</time>
      </trkpt>
      <trkpt lat="45.25791" lon="4.3234">
        <ele>911</ele>
        <time>2021-04-26T14:02:10Z</time>
      </trkpt>
      <trkpt lat="45.2579" lon="4.32344">
        <ele>912</ele>
        <time>2021-04-26T14:02:11Z</time>
      </trkpt>
      <trkpt lat="45.25788" lon="4.32348">
        <ele>912</ele>
        <time>2021-04-26T14:02:12Z</time>
      </trkpt>
      <trkpt lat="45.25785" lon="4.32351">
        <ele>912</ele>
        <time>2021-04-26T14:02:13Z</time>
      </trkpt>
      <trkpt lat="45.25782" lon="4.32354">
        <ele>912</ele>
        <time>2021-04-26T14:02:14Z</time>
      </trkpt>
      <trkpt lat="45.2578" lon="4.32356">
        <ele>912</ele>
        <time>2021-04-26T14:02:15Z</time>
      </trkpt>
      <trkpt lat="45.25777" lon="4.32358">
        <ele>913</ele>
        <time>2021-04-26T14:02:16Z</time>
      </trkpt>
      <trkpt lat="45.25773" lon="4.32361">
        <ele>913</ele>
        <time>2021-04-26T14:02:17Z</time>
      </trkpt>
      <trkpt lat="45.2577" lon="4.32363">
        <ele>913</ele>
        <time>2021-04-26T14:02:18Z</time>
      </trkpt>
      <trkpt lat="45.25767" lon="4.32366">
        <ele>913</ele>
        <time>2021-04-26T14:02:19Z</time>
      </trkpt>
      <trkpt lat="45.25763" lon="4.32369">
        <ele>914</ele>
        <time>2021-04-26T14:02:20Z</time>
      </trkpt>
      <trkpt lat="45.2576" lon="4.32372">
        <ele>914</ele>
        <time>2021-04-26T14:02:21Z</time>
      </trkpt>
      <trkpt lat="45.25757" lon="4.32375">
        <ele>914</ele>
        <time>2021-04-26T14:02:22Z</time>
      </trkpt>
      <trkpt lat="45.25755" lon="4.32378">
        <ele>914</ele>
        <time>2021-04-26T14:02:23Z</time>
      </trkpt>
      <trkpt lat="45.25752" lon="4.32381">
        <ele>915</ele>
        <time>2021-04-26T14:02:24Z</time>
      </trkpt>
      <trkpt lat="45.2575" lon="4.32385">
        <ele>915</ele>
        <time>2021-04-26T14:02:25Z</time>
      </trkpt>
      <trkpt lat="45.25748" lon="4.32388">
        <ele>916</ele>
        <time>2021-04-26T14:02:26Z</time>
      </trkpt>
      <trkpt lat="45.25746" lon="4.32391">
        <ele>916</ele>
        <time>2021-04-26T14:02:27Z</time>
      </trkpt>
      <trkpt lat="45.25745" lon="4.32394">
        <ele>916</ele>
        <time>2021-04-26T14:02:28Z</time>
      </trkpt>
      <trkpt lat="45.25743" lon="4.32397">
        <ele>917</ele>
        <time>2021-04-26T14:02:29Z</time>
      </trkpt>
      <trkpt lat="45.25742" lon="4.324">
        <ele>917</ele>
        <time>2021-04-26T14:02:30Z</time>
      </trkpt>
      <trkpt lat="45.25741" lon="4.32403">
        <ele>917</ele>
        <time>2021-04-26T14:02:31Z</time>
      </trkpt>
      <trkpt lat="45.25741" lon="4.32406">
        <ele>917</ele>
        <time>2021-04-26T14:02:32Z</time>
      </trkpt>
      <trkpt lat="45.25742" lon="4.3241">
        <ele>918</ele>
        <time>2021-04-26T14:02:33Z</time>
      </trkpt>
      <trkpt lat="45.25741" lon="4.32413">
        <ele>918</ele>
        <time>2021-04-26T14:02:34Z</time>
      </trkpt>
      <trkpt lat="45.25741" lon="4.32417">
        <ele>918</ele>
        <time>2021-04-26T14:02:35Z</time>
      </trkpt>
      <trkpt lat="45.2574" lon="4.3242">
        <ele>918</ele>
        <time>2021-04-26T14:02:36Z</time>
      </trkpt>
      <trkpt lat="45.25739" lon="4.32424">
        <ele>919</ele>
        <time>2021-04-26T14:02:37Z</time>
      </trkpt>
      <trkpt lat="45.25737" lon="4.32427">
        <ele>919</ele>
        <time>2021-04-26T14:02:38Z</time>
      </trkpt>
      <trkpt lat="45.25735" lon="4.3243">
        <ele>920</ele>
        <time>2021-04-26T14:02:39Z</time>
      </trkpt>
      <trkpt lat="45.25734" lon="4.32434">
        <ele>920</ele>
        <time>2021-04-26T14:02:40Z</time>
      </trkpt>
      <trkpt lat="45.25732" lon="4.32437">
        <ele>920</ele>
        <time>2021-04-26T14:02:41Z</time>
      </trkpt>
      <trkpt lat="45.25731" lon="4.32441">
        <ele>921</ele>
        <time>2021-04-26T14:02:42Z</time>
      </trkpt>
      <trkpt lat="45.2573" lon="4.32445">
        <ele>921</ele>
        <time>2021-04-26T14:02:43Z</time>
      </trkpt>
      <trkpt lat="45.25728" lon="4.32449">
        <ele>922</ele>
        <time>2021-04-26T14:02:44Z</time>
      </trkpt>
      <trkpt lat="45.25727" lon="4.32452">
        <ele>922</ele>
        <time>2021-04-26T14:02:45Z</time>
      </trkpt>
      <trkpt lat="45.25726" lon="4.32456">
        <ele>923</ele>
        <time>2021-04-26T14:02:46Z</time>
      </trkpt>
      <trkpt lat="45.25724" lon="4.3246">
        <ele>923</ele>
        <time>2021-04-26T14:02:47Z</time>
      </trkpt>
      <trkpt lat="45.25723" lon="4.32463">
        <ele>924</ele>
        <time>2021-04-26T14:02:48Z</time>
      </trkpt>
      <trkpt lat="45.25722" lon="4.32467">
        <ele>924</ele>
        <time>2021-04-26T14:02:49Z</time>
      </trkpt>
      <trkpt lat="45.25721" lon="4.3247">
        <ele>925</ele>
        <time>2021-04-26T14:02:50Z</time>
      </trkpt>
      <trkpt lat="45.25719" lon="4.32474">
        <ele>925</ele>
        <time>2021-04-26T14:02:51Z</time>
      </trkpt>
      <trkpt lat="45.25717" lon="4.32477">
        <ele>925</ele>
        <time>2021-04-26T14:02:52Z</time>
      </trkpt>
      <trkpt lat="45.25716" lon="4.3248">
        <ele>926</ele>
        <time>2021-04-26T14:02:53Z</time>
      </trkpt>
      <trkpt lat="45.25714" lon="4.32483">
        <ele>927</ele>
        <time>2021-04-26T14:02:54Z</time>
      </trkpt>
      <trkpt lat="45.25712" lon="4.32486">
        <ele>927</ele>
        <time>2021-04-26T14:02:55Z</time>
      </trkpt>
      <trkpt lat="45.2571" lon="4.32489">
        <ele>928</ele>
        <time>2021-04-26T14:02:56Z</time>
      </trkpt>
      <trkpt lat="45.25708" lon="4.32492">
        <ele>928</ele>
        <time>2021-04-26T14:02:57Z</time>
      </trkpt>
      <trkpt lat="45.25705" lon="4.32495">
        <ele>929</ele>
        <time>2021-04-26T14:02:58Z</time>
      </trkpt>
      <trkpt lat="45.25703" lon="4.32497">
        <ele>929</ele>
        <time>2021-04-26T14:02:59Z</time>
      </trkpt>
      <trkpt lat="45.257" lon="4.325">
        <ele>930</ele>
        <time>2021-04-26T14:03:00Z</time>
      </trkpt>
      <trkpt lat="45.25697" lon="4.32502">
        <ele>930</ele>
        <time>2021-04-26T14:03:01Z</time>
      </trkpt>
      <trkpt lat="45.25694" lon="4.32504">
        <ele>931</ele>
        <time>2021-04-26T14:03:02Z</time>
      </trkpt>
      <trkpt lat="45.25692" lon="4.32506">
        <ele>931</ele>
        <time>2021-04-26T14:03:03Z</time>
      </trkpt>
      <trkpt lat="45.25689" lon="4.32509">
        <ele>931</ele>
        <time>2021-04-26T14:03:04Z</time>
      </trkpt>
      <trkpt lat="45.25687" lon="4.32511">
        <ele>931</ele>
        <time>2021-04-26T14:03:05Z</time>
      </trkpt>
      <trkpt lat="45.25684" lon="4.32513">
        <ele>931</ele>
        <time>2021-04-26T14:03:06Z</time>
      </trkpt>
      <trkpt lat="45.25681" lon="4.32516">
        <ele>932</ele>
        <time>2021-04-26T14:03:07Z</time>
      </trkpt>
      <trkpt lat="45.25678" lon="4.32518">
        <ele>932</ele>
        <time>2021-04-26T14:03:08Z</time>
      </trkpt>
      <trkpt lat="45.25676" lon="4.32521">
        <ele>933</ele>
        <time>2021-04-26T14:03:09Z</time>
      </trkpt>
      <trkpt lat="45.25673" lon="4.32524">
        <ele>933</ele>
        <time>2021-04-26T14:03:10Z</time>
      </trkpt>
      <trkpt lat="45.2567" lon="4.32526">
        <ele>933</ele>
        <time>2021-04-26T14:03:11Z</time>
      </trkpt>
      <trkpt lat="45.25667" lon="4.32528">
        <ele>934</ele>
        <time>2021-04-26T14:03:12Z</time>
      </trkpt>
      <trkpt lat="45.25664" lon="4.32529">
        <ele>934</ele>
        <time>2021-04-26T14:03:13Z</time>
      </trkpt>
      <trkpt lat="45.2566" lon="4.32531">
        <ele>934</ele>
        <time>2021-04-26T14:03:14Z</time>
      </trkpt>
      <trkpt lat="45.25657" lon="4.32533">
        <ele>934</ele>
        <time>2021-04-26T14:03:15Z</time>
      </trkpt>
      <trkpt lat="45.25653" lon="4.32534">
        <ele>934</ele>
        <time>2021-04-26T14:03:16Z</time>
      </trkpt>
      <trkpt lat="45.2565" lon="4.32536">
        <ele>935</ele>
        <time>2021-04-26T14:03:17Z</time>
      </trkpt>
      <trkpt lat="45.25646" lon="4.32539">
        <ele>935</ele>
        <time>2021-04-26T14:03:18Z</time>
      </trkpt>
      <trkpt lat="45.25642" lon="4.32541">
        <ele>935</ele>
        <time>2021-04-26T14:03:19Z</time>
      </trkpt>
      <trkpt lat="45.25638" lon="4.32544">
        <ele>935</ele>
        <time>2021-04-26T14:03:20Z</time>
      </trkpt>
      <trkpt lat="45.25634" lon="4.32546">
        <ele>935</ele>
        <time>2021-04-26T14:03:21Z</time>
      </trkpt>
      <trkpt lat="45.2563" lon="4.32549">
        <ele>935</ele>
        <time>2021-04-26T14:03:22Z</time>
      </trkpt>
      <trkpt lat="45.25626" lon="4.32552">
        <ele>936</ele>
        <time>2021-04-26T14:03:23Z</time>
      </trkpt>
      <trkpt lat="45.25622" lon="4.32555">
        <ele>936</ele>
        <time>2021-04-26T14:03:24Z</time>
      </trkpt>
      <trkpt lat="45.25619" lon="4.32558">
        <ele>936</ele>
        <time>2021-04-26T14:03:25Z</time>
      </trkpt>
      <trkpt lat="45.25615" lon="4.32561">
        <ele>936</ele>
        <time>2021-04-26T14:03:26Z</time>
      </trkpt>
      <trkpt lat="45.25611" lon="4.32563">
        <ele>937</ele>
        <time>2021-04-26T14:03:27Z</time>
      </trkpt>
      <trkpt lat="45.25608" lon="4.32566">
        <ele>937</ele>
        <time>2021-04-26T14:03:28Z</time>
      </trkpt>
      <trkpt lat="45.25604" lon="4.32569">
        <ele>937</ele>
        <time>2021-04-26T14:03:29Z</time>
      </trkpt>
      <trkpt lat="45.256" lon="4.32572">
        <ele>937</ele>
        <time>2021-04-26T14:03:30Z</time>
      </trkpt>
      <trkpt lat="45.25596" lon="4.32575">
        <ele>938</ele>
        <time>2021-04-26T14:03:31Z</time>
      </trkpt>
      <trkpt lat="45.25592" lon="4.32578">
        <ele>938</ele>
        <time>2021-04-26T14:03:32Z</time>
      </trkpt>
      <trkpt lat="45.25589" lon="4.32581">
        <ele>938</ele>
        <time>2021-04-26T14:03:33Z</time>
      </trkpt>
      <trkpt lat="45.25585" lon="4.32584">
        <ele>938</ele>
        <time>2021-04-26T14:03:34Z</time>
      </trkpt>
      <trkpt lat="45.25581" lon="4.32587">
        <ele>938</ele>
        <time>2021-04-26T14:03:35Z</time>
      </trkpt>
      <trkpt lat="45.25577" lon="4.3259">
        <ele>939</ele>
        <time>2021-04-26T14:03:36Z</time>
      </trkpt>
      <trkpt lat="45.25574" lon="4.32594">
        <ele>939</ele>
        <time>2021-04-26T14:03:37Z</time>
      </trkpt>
      <trkpt lat="45.2557" lon="4.32597">
        <ele>939</ele>
        <time>2021-04-26T14:03:38Z</time>
      </trkpt>
      <trkpt lat="45.25567" lon="4.32599">
        <ele>939</ele>
        <time>2021-04-26T14:03:39Z</time>
      </trkpt>
      <trkpt lat="45.25563" lon="4.32602">
        <ele>940</ele>
        <time>2021-04-26T14:03:40Z</time>
      </trkpt>
      <trkpt lat="45.25559" lon="4.32605">
        <ele>940</ele>
        <time>2021-04-26T14:03:41Z</time>
      </trkpt>
      <trkpt lat="45.25555" lon="4.32608">
        <ele>940</ele>
        <time>2021-04-26T14:03:42Z</time>
      </trkpt>
      <trkpt lat="45.2555" lon="4.3261">
        <ele>940</ele>
        <time>2021-04-26T14:03:43Z</time>
      </trkpt>
      <trkpt lat="45.25546" lon="4.32612">
        <ele>940</ele>
        <time>2021-04-26T14:03:44Z</time>
      </trkpt>
      <trkpt lat="45.25542" lon="4.32614">
        <ele>940</ele>
        <time>2021-04-26T14:03:45Z</time>
      </trkpt>
      <trkpt lat="45.25537" lon="4.32616">
        <ele>941</ele>
        <time>2021-04-26T14:03:46Z</time>
      </trkpt>
      <trkpt lat="45.25533" lon="4.32619">
        <ele>941</ele>
        <time>2021-04-26T14:03:47Z</time>
      </trkpt>
      <trkpt lat="45.25529" lon="4.32621">
        <ele>941</ele>
        <time>2021-04-26T14:03:48Z</time>
      </trkpt>
      <trkpt lat="45.25525" lon="4.32623">
        <ele>941</ele>
        <time>2021-04-26T14:03:49Z</time>
      </trkpt>
      <trkpt lat="45.25521" lon="4.32626">
        <ele>941</ele>
        <time>2021-04-26T14:03:50Z</time>
      </trkpt>
      <trkpt lat="45.25516" lon="4.32629">
        <ele>941</ele>
        <time>2021-04-26T14:03:51Z</time>
      </trkpt>
      <trkpt lat="45.25512" lon="4.32631">
        <ele>941</ele>
        <time>2021-04-26T14:03:52Z</time>
      </trkpt>
      <trkpt lat="45.25508" lon="4.32634">
        <ele>941</ele>
        <time>2021-04-26T14:03:53Z</time>
      </trkpt>
      <trkpt lat="45.25503" lon="4.32637">
        <ele>941</ele>
        <time>2021-04-26T14:03:54Z</time>
      </trkpt>
      <trkpt lat="45.25498" lon="4.3264">
        <ele>941</ele>
        <time>2021-04-26T14:03:55Z</time>
      </trkpt>
      <trkpt lat="45.25494" lon="4.32642">
        <ele>942</ele>
        <time>2021-04-26T14:03:56Z</time>
      </trkpt>
      <trkpt lat="45.25489" lon="4.32645">
        <ele>942</ele>
        <time>2021-04-26T14:03:57Z</time>
      </trkpt>
      <trkpt lat="45.25485" lon="4.32648">
        <ele>942</ele>
        <time>2021-04-26T14:03:58Z</time>
      </trkpt>
      <trkpt lat="45.2548" lon="4.32651">
        <ele>942</ele>
        <time>2021-04-26T14:03:59Z</time>
      </trkpt>
      <trkpt lat="45.25476" lon="4.32654">
        <ele>942</ele>
        <time>2021-04-26T14:04:00Z</time>
      </trkpt>
      <trkpt lat="45.25471" lon="4.32657">
        <ele>942</ele>
        <time>2021-04-26T14:04:01Z</time>
      </trkpt>
      <trkpt lat="45.25467" lon="4.3266">
        <ele>942</ele>
        <time>2021-04-26T14:04:02Z</time>
      </trkpt>
      <trkpt lat="45.25463" lon="4.32663">
        <ele>942</ele>
        <time>2021-04-26T14:04:03Z</time>
      </trkpt>
      <trkpt lat="45.25459" lon="4.32666">
        <ele>942</ele>
        <time>2021-04-26T14:04:04Z</time>
      </trkpt>
      <trkpt lat="45.25454" lon="4.32669">
        <ele>942</ele>
        <time>2021-04-26T14:04:05Z</time>
      </trkpt>
      <trkpt lat="45.2545" lon="4.32673">
        <ele>942</ele>
        <time>2021-04-26T14:04:06Z</time>
      </trkpt>
      <trkpt lat="45.25444" lon="4.32677">
        <ele>942</ele>
        <time>2021-04-26T14:04:07Z</time>
      </trkpt>
      <trkpt lat="45.25438" lon="4.32681">
        <ele>942</ele>
        <time>2021-04-26T14:04:08Z</time>
      </trkpt>
      <trkpt lat="45.25432" lon="4.32686">
        <ele>941</ele>
        <time>2021-04-26T14:04:09Z</time>
      </trkpt>
      <trkpt lat="45.25426" lon="4.3269">
        <ele>941</ele>
        <time>2021-04-26T14:04:10Z</time>
      </trkpt>
      <trkpt lat="45.25419" lon="4.32695">
        <ele>941</ele>
        <time>2021-04-26T14:04:11Z</time>
      </trkpt>
      <trkpt lat="45.25413" lon="4.32699">
        <ele>941</ele>
        <time>2021-04-26T14:04:12Z</time>
      </trkpt>
      <trkpt lat="45.25406" lon="4.32703">
        <ele>941</ele>
        <time>2021-04-26T14:04:13Z</time>
      </trkpt>
      <trkpt lat="45.25399" lon="4.32706">
        <ele>941</ele>
        <time>2021-04-26T14:04:14Z</time>
      </trkpt>
      <trkpt lat="45.25392" lon="4.3271">
        <ele>940</ele>
        <time>2021-04-26T14:04:15Z</time>
      </trkpt>
      <trkpt lat="45.25386" lon="4.32713">
        <ele>940</ele>
        <time>2021-04-26T14:04:16Z</time>
      </trkpt>
      <trkpt lat="45.2538" lon="4.32716">
        <ele>940</ele>
        <time>2021-04-26T14:04:17Z</time>
      </trkpt>
      <trkpt lat="45.25374" lon="4.32719">
        <ele>940</ele>
        <time>2021-04-26T14:04:18Z</time>
      </trkpt>
      <trkpt lat="45.25368" lon="4.32723">
        <ele>940</ele>
        <time>2021-04-26T14:04:19Z</time>
      </trkpt>
      <trkpt lat="45.25362" lon="4.32726">
        <ele>940</ele>
        <time>2021-04-26T14:04:20Z</time>
      </trkpt>
      <trkpt lat="45.25357" lon="4.3273">
        <ele>940</ele>
        <time>2021-04-26T14:04:21Z</time>
      </trkpt>
      <trkpt lat="45.25352" lon="4.32734">
        <ele>940</ele>
        <time>2021-04-26T14:04:22Z</time>
      </trkpt>
      <trkpt lat="45.25346" lon="4.32738">
        <ele>940</ele>
        <time>2021-04-26T14:04:23Z</time>
      </trkpt>
      <trkpt lat="45.25341" lon="4.32742">
        <ele>940</ele>
        <time>2021-04-26T14:04:24Z</time>
      </trkpt>
      <trkpt lat="45.25337" lon="4.32747">
        <ele>940</ele>
        <time>2021-04-26T14:04:25Z</time>
      </trkpt>
      <trkpt lat="45.25332" lon="4.32751">
        <ele>940</ele>
        <time>2021-04-26T14:04:26Z</time>
      </trkpt>
      <trkpt lat="45.25327" lon="4.32756">
        <ele>941</ele>
        <time>2021-04-26T14:04:27Z</time>
      </trkpt>
      <trkpt lat="45.25322" lon="4.3276">
        <ele>941</ele>
        <time>2021-04-26T14:04:28Z</time>
      </trkpt>
      <trkpt lat="45.25317" lon="4.32765">
        <ele>941</ele>
        <time>2021-04-26T14:04:29Z</time>
      </trkpt>
      <trkpt lat="45.25313" lon="4.3277">
        <ele>941</ele>
        <time>2021-04-26T14:04:30Z</time>
      </trkpt>
      <trkpt lat="45.25308" lon="4.32775">
        <ele>941</ele>
        <time>2021-04-26T14:04:31Z</time>
      </trkpt>
      <trkpt lat="45.25303" lon="4.3278">
        <ele>941</ele>
        <time>2021-04-26T14:04:32Z</time>
      </trkpt>
      <trkpt lat="45.25299" lon="4.32784">
        <ele>941</ele>
        <time>2021-04-26T14:04:33Z</time>
      </trkpt>
      <trkpt lat="45.25294" lon="4.32789">
        <ele>941</ele>
        <time>2021-04-26T14:04:34Z</time>
      </trkpt>
      <trkpt lat="45.25289" lon="4.32794">
        <ele>941</ele>
        <time>2021-04-26T14:04:35Z</time>
      </trkpt>
      <trkpt lat="45.25284" lon="4.32798">
        <ele>942</ele>
        <time>2021-04-26T14:04:36Z</time>
      </trkpt>
      <trkpt lat="45.25279" lon="4.32803">
        <ele>942</ele>
        <time>2021-04-26T14:04:37Z</time>
      </trkpt>
      <trkpt lat="45.25275" lon="4.32807">
        <ele>942</ele>
        <time>2021-04-26T14:04:38Z</time>
      </trkpt>
      <trkpt lat="45.2527" lon="4.32811">
        <ele>942</ele>
        <time>2021-04-26T14:04:39Z</time>
      </trkpt>
      <trkpt lat="45.25265" lon="4.32816">
        <ele>942</ele>
        <time>2021-04-26T14:04:40Z</time>
      </trkpt>
      <trkpt lat="45.2526" lon="4.3282">
        <ele>942</ele>
        <time>2021-04-26T14:04:41Z</time>
      </trkpt>
      <trkpt lat="45.25256" lon="4.32824">
        <ele>943</ele>
        <time>2021-04-26T14:04:42Z</time>
      </trkpt>
      <trkpt lat="45.25251" lon="4.32828">
        <ele>943</ele>
        <time>2021-04-26T14:04:43Z</time>
      </trkpt>
      <trkpt lat="45.25246" lon="4.32832">
        <ele>943</ele>
        <time>2021-04-26T14:04:44Z</time>
      </trkpt>
      <trkpt lat="45.25241" lon="4.32836">
        <ele>943</ele>
        <time>2021-04-26T14:04:45Z</time>
      </trkpt>
      <trkpt lat="45.25236" lon="4.3284">
        <ele>943</ele>
        <time>2021-04-26T14:04:46Z</time>
      </trkpt>
      <trkpt lat="45.25231" lon="4.32843">
        <ele>943</ele>
        <time>2021-04-26T14:04:47Z</time>
      </trkpt>
      <trkpt lat="45.25227" lon="4.32846">
        <ele>943</ele>
        <time>2021-04-26T14:04:48Z</time>
      </trkpt>
      <trkpt lat="45.25222" lon="4.3285">
        <ele>943</ele>
        <time>2021-04-26T14:04:49Z</time>
      </trkpt>
      <trkpt lat="45.25218" lon="4.32853">
        <ele>943</ele>
        <time>2021-04-26T14:04:50Z</time>
      </trkpt>
      <trkpt lat="45.25214" lon="4.32857">
        <ele>943</ele>
        <time>2021-04-26T14:04:51Z</time>
      </trkpt>
      <trkpt lat="45.25209" lon="4.32861">
        <ele>943</ele>
        <time>2021-04-26T14:04:52Z</time>
      </trkpt>
      <trkpt lat="45.25205" lon="4.32865">
        <ele>943</ele>
        <time>2021-04-26T14:04:53Z</time>
      </trkpt>
      <trkpt lat="45.25201" lon="4.32869">
        <ele>943</ele>
        <time>2021-04-26T14:04:54Z</time>
      </trkpt>
      <trkpt lat="45.25196" lon="4.32872">
        <ele>942</ele>
        <time>2021-04-26T14:04:55Z</time>
      </trkpt>
      <trkpt lat="45.25191" lon="4.32873">
        <ele>942</ele>
        <time>2021-04-26T14:04:56Z</time>
      </trkpt>
      <trkpt lat="45.25186" lon="4.32875">
        <ele>942</ele>
        <time>2021-04-26T14:04:57Z</time>
      </trkpt>
      <trkpt lat="45.2518" lon="4.32877">
        <ele>942</ele>
        <time>2021-04-26T14:04:58Z</time>
      </trkpt>
      <trkpt lat="45.25175" lon="4.32882">
        <ele>942</ele>
        <time>2021-04-26T14:04:59Z</time>
      </trkpt>
      <trkpt lat="45.2517" lon="4.32886">
        <ele>942</ele>
        <time>2021-04-26T14:05:00Z</time>
      </trkpt>
      <trkpt lat="45.25165" lon="4.3289">
        <ele>942</ele>
        <time>2021-04-26T14:05:01Z</time>
      </trkpt>
      <trkpt lat="45.25161" lon="4.32894">
        <ele>942</ele>
        <time>2021-04-26T14:05:02Z</time>
      </trkpt>
      <trkpt lat="45.25156" lon="4.32898">
        <ele>942</ele>
        <time>2021-04-26T14:05:03Z</time>
      </trkpt>
      <trkpt lat="45.25152" lon="4.32902">
        <ele>942</ele>
        <time>2021-04-26T14:05:04Z</time>
      </trkpt>
      <trkpt lat="45.25148" lon="4.32906">
        <ele>942</ele>
        <time>2021-04-26T14:05:05Z</time>
      </trkpt>
      <trkpt lat="45.25144" lon="4.32909">
        <ele>942</ele>
        <time>2021-04-26T14:05:06Z</time>
      </trkpt>
      <trkpt lat="45.25141" lon="4.32914">
        <ele>942</ele>
        <time>2021-04-26T14:05:07Z</time>
      </trkpt>
      <trkpt lat="45.25138" lon="4.32919">
        <ele>942</ele>
        <time>2021-04-26T14:05:08Z</time>
      </trkpt>
      <trkpt lat="45.25136" lon="4.32925">
        <ele>942</ele>
        <time>2021-04-26T14:05:09Z</time>
      </trkpt>
      <trkpt lat="45.25134" lon="4.3293">
        <ele>942</ele>
        <time>2021-04-26T14:05:10Z</time>
      </trkpt>
      <trkpt lat="45.25132" lon="4.32935">
        <ele>942</ele>
        <time>2021-04-26T14:05:11Z</time>
      </trkpt>
      <trkpt lat="45.2513" lon="4.32939">
        <ele>942</ele>
        <time>2021-04-26T14:05:12Z</time>
      </trkpt>
      <trkpt lat="45.25126" lon="4.32943">
        <ele>942</ele>
        <time>2021-04-26T14:05:13Z</time>
      </trkpt>
      <trkpt lat="45.25123" lon="4.32946">
        <ele>942</ele>
        <time>2021-04-26T14:05:14Z</time>
      </trkpt>
      <trkpt lat="45.25119" lon="4.3295">
        <ele>942</ele>
        <time>2021-04-26T14:05:15Z</time>
      </trkpt>
      <trkpt lat="45.25116" lon="4.32953">
        <ele>942</ele>
        <time>2021-04-26T14:05:16Z</time>
      </trkpt>
      <trkpt lat="45.25112" lon="4.32956">
        <ele>942</ele>
        <time>2021-04-26T14:05:17Z</time>
      </trkpt>
      <trkpt lat="45.25108" lon="4.32958">
        <ele>942</ele>
        <time>2021-04-26T14:05:18Z</time>
      </trkpt>
      <trkpt lat="45.25104" lon="4.3296">
        <ele>942</ele>
        <time>2021-04-26T14:05:19Z</time>
      </trkpt>
      <trkpt lat="45.251" lon="4.32963">
        <ele>942</ele>
        <time>2021-04-26T14:05:20Z</time>
      </trkpt>
      <trkpt lat="45.25097" lon="4.32965">
        <ele>942</ele>
        <time>2021-04-26T14:05:21Z</time>
      </trkpt>
      <trkpt lat="45.25093" lon="4.32968">
        <ele>942</ele>
        <time>2021-04-26T14:05:22Z</time>
      </trkpt>
      <trkpt lat="45.25089" lon="4.3297">
        <ele>942</ele>
        <time>2021-04-26T14:05:23Z</time>
      </trkpt>
      <trkpt lat="45.25085" lon="4.32973">
        <ele>942</ele>
        <time>2021-04-26T14:05:24Z</time>
      </trkpt>
      <trkpt lat="45.25082" lon="4.32976">
        <ele>943</ele>
        <time>2021-04-26T14:05:25Z</time>
      </trkpt>
      <trkpt lat="45.25078" lon="4.32979">
        <ele>943</ele>
        <time>2021-04-26T14:05:26Z</time>
      </trkpt>
      <trkpt lat="45.25075" lon="4.32981">
        <ele>943</ele>
        <time>2021-04-26T14:05:27Z</time>
      </trkpt>
      <trkpt lat="45.25071" lon="4.32984">
        <ele>943</ele>
        <time>2021-04-26T14:05:28Z</time>
      </trkpt>
      <trkpt lat="45.25068" lon="4.32987">
        <ele>943</ele>
        <time>2021-04-26T14:05:29Z</time>
      </trkpt>
      <trkpt lat="45.25064" lon="4.32989">
        <ele>944</ele>
        <time>2021-04-26T14:05:30Z</time>
      </trkpt>
      <trkpt lat="45.2506" lon="4.32989">
        <ele>944</ele>
        <time>2021-04-26T14:05:31Z</time>
      </trkpt>
      <trkpt lat="45.25056" lon="4.32989">
        <ele>944</ele>
        <time>2021-04-26T14:05:32Z</time>
      </trkpt>
      <trkpt lat="45.25051" lon="4.32989">
        <ele>945</ele>
        <time>2021-04-26T14:05:33Z</time>
      </trkpt>
      <trkpt lat="45.25047" lon="4.32989">
        <ele>945</ele>
        <time>2021-04-26T14:05:34Z</time>
      </trkpt>
      <trkpt lat="45.25043" lon="4.3299">
        <ele>945</ele>
        <time>2021-04-26T14:05:35Z</time>
      </trkpt>
      <trkpt lat="45.25039" lon="4.32991">
        <ele>946</ele>
        <time>2021-04-26T14:05:36Z</time>
      </trkpt>
      <trkpt lat="45.25036" lon="4.32992">
        <ele>946</ele>
        <time>2021-04-26T14:05:37Z</time>
      </trkpt>
      <trkpt lat="45.25032" lon="4.32993">
        <ele>946</ele>
        <time>2021-04-26T14:05:38Z</time>
      </trkpt>
      <trkpt lat="45.25029" lon="4.32995">
        <ele>946</ele>
        <time>2021-04-26T14:05:39Z</time>
      </trkpt>
      <trkpt lat="45.25026" lon="4.32997">
        <ele>947</ele>
        <time>2021-04-26T14:05:40Z</time>
      </trkpt>
      <trkpt lat="45.25025" lon="4.32999">
        <ele>947</ele>
        <time>2021-04-26T14:05:41Z</time>
      </trkpt>
      <trkpt lat="45.25024" lon="4.33002">
        <ele>947</ele>
        <time>2021-04-26T14:05:42Z</time>
      </trkpt>
      <trkpt lat="45.25023" lon="4.33006">
        <ele>947</ele>
        <time>2021-04-26T14:05:43Z</time>
      </trkpt>
      <trkpt lat="45.25023" lon="4.33011">
        <ele>947</ele>
        <time>2021-04-26T14:05:44Z</time>
      </trkpt>
      <trkpt lat="45.25023" lon="4.33016">
        <ele>947</ele>
        <time>2021-04-26T14:05:45Z</time>
      </trkpt>
      <trkpt lat="45.25022" lon="4.33022">
        <ele>948</ele>
        <time>2021-04-26T14:05:46Z</time>
      </trkpt>
      <trkpt lat="45.25022" lon="4.33027">
        <ele>948</ele>
        <time>2021-04-26T14:05:47Z</time>
      </trkpt>
      <trkpt lat="45.25021" lon="4.33032">
        <ele>948</ele>
        <time>2021-04-26T14:05:48Z</time>
      </trkpt>
      <trkpt lat="45.25021" lon="4.33038">
        <ele>948</ele>
        <time>2021-04-26T14:05:49Z</time>
      </trkpt>
      <trkpt lat="45.2502" lon="4.33043">
        <ele>948</ele>
        <time>2021-04-26T14:05:50Z</time>
      </trkpt>
      <trkpt lat="45.2502" lon="4.33049">
        <ele>948</ele>
        <time>2021-04-26T14:05:51Z</time>
      </trkpt>
      <trkpt lat="45.25019" lon="4.33054">
        <ele>949</ele>
        <time>2021-04-26T14:05:52Z</time>
      </trkpt>
      <trkpt lat="45.25019" lon="4.3306">
        <ele>949</ele>
        <time>2021-04-26T14:05:53Z</time>
      </trkpt>
      <trkpt lat="45.25018" lon="4.33066">
        <ele>949</ele>
        <time>2021-04-26T14:05:54Z</time>
      </trkpt>
      <trkpt lat="45.25018" lon="4.33071">
        <ele>949</ele>
        <time>2021-04-26T14:05:55Z</time>
      </trkpt>
      <trkpt lat="45.25018" lon="4.33077">
        <ele>949</ele>
        <time>2021-04-26T14:05:56Z</time>
      </trkpt>
      <trkpt lat="45.25018" lon="4.33083">
        <ele>950</ele>
        <time>2021-04-26T14:05:57Z</time>
      </trkpt>
      <trkpt lat="45.25017" lon="4.33089">
        <ele>950</ele>
        <time>2021-04-26T14:05:58Z</time>
      </trkpt>
      <trkpt lat="45.25017" lon="4.33094">
        <ele>950</ele>
        <time>2021-04-26T14:05:59Z</time>
      </trkpt>
      <trkpt lat="45.25017" lon="4.331">
        <ele>951</ele>
        <time>2021-04-26T14:06:00Z</time>
      </trkpt>
      <trkpt lat="45.25017" lon="4.33106">
        <ele>951</ele>
        <time>2021-04-26T14:06:01Z</time>
      </trkpt>
      <trkpt lat="45.25016" lon="4.33112">
        <ele>951</ele>
        <time>2021-04-26T14:06:02Z</time>
      </trkpt>
      <trkpt lat="45.25016" lon="4.33117">
        <ele>952</ele>
        <time>2021-04-26T14:06:03Z</time>
      </trkpt>
      <trkpt lat="45.25015" lon="4.33123">
        <ele>952</ele>
        <time>2021-04-26T14:06:04Z</time>
      </trkpt>
      <trkpt lat="45.25015" lon="4.33128">
        <ele>952</ele>
        <time>2021-04-26T14:06:05Z</time>
      </trkpt>
      <trkpt lat="45.25014" lon="4.33134">
        <ele>953</ele>
        <time>2021-04-26T14:06:06Z</time>
      </trkpt>
      <trkpt lat="45.25013" lon="4.33139">
        <ele>953</ele>
        <time>2021-04-26T14:06:07Z</time>
      </trkpt>
      <trkpt lat="45.25012" lon="4.33145">
        <ele>953</ele>
        <time>2021-04-26T14:06:08Z</time>
      </trkpt>
      <trkpt lat="45.25011" lon="4.3315">
        <ele>953</ele>
        <time>2021-04-26T14:06:09Z</time>
      </trkpt>
      <trkpt lat="45.2501" lon="4.33156">
        <ele>954</ele>
        <time>2021-04-26T14:06:10Z</time>
      </trkpt>
      <trkpt lat="45.25009" lon="4.33161">
        <ele>954</ele>
        <time>2021-04-26T14:06:11Z</time>
      </trkpt>
      <trkpt lat="45.25008" lon="4.33166">
        <ele>954</ele>
        <time>2021-04-26T14:06:12Z</time>
      </trkpt>
      <trkpt lat="45.25006" lon="4.33171">
        <ele>955</ele>
        <time>2021-04-26T14:06:13Z</time>
      </trkpt>
      <trkpt lat="45.25005" lon="4.33177">
        <ele>955</ele>
        <time>2021-04-26T14:06:14Z</time>
      </trkpt>
      <trkpt lat="45.25003" lon="4.33182">
        <ele>955</ele>
        <time>2021-04-26T14:06:15Z</time>
      </trkpt>
      <trkpt lat="45.25001" lon="4.33188">
        <ele>955</ele>
        <time>2021-04-26T14:06:16Z</time>
      </trkpt>
      <trkpt lat="45.24999" lon="4.33193">
        <ele>956</ele>
        <time>2021-04-26T14:06:17Z</time>
      </trkpt>
      <trkpt lat="45.24996" lon="4.33199">
        <ele>956</ele>
        <time>2021-04-26T14:06:18Z</time>
      </trkpt>
      <trkpt lat="45.24994" lon="4.33205">
        <ele>956</ele>
        <time>2021-04-26T14:06:19Z</time>
      </trkpt>
      <trkpt lat="45.24992" lon="4.3321">
        <ele>956</ele>
        <time>2021-04-26T14:06:20Z</time>
      </trkpt>
      <trkpt lat="45.2499" lon="4.33216">
        <ele>957</ele>
        <time>2021-04-26T14:06:21Z</time>
      </trkpt>
      <trkpt lat="45.24988" lon="4.33221">
        <ele>957</ele>
        <time>2021-04-26T14:06:22Z</time>
      </trkpt>
      <trkpt lat="45.24986" lon="4.33227">
        <ele>957</ele>
        <time>2021-04-26T14:06:23Z</time>
      </trkpt>
      <trkpt lat="45.24985" lon="4.33232">
        <ele>957</ele>
        <time>2021-04-26T14:06:24Z</time>
      </trkpt>
      <trkpt lat="45.24984" lon="4.33238">
        <ele>958</ele>
        <time>2021-04-26T14:06:25Z</time>
      </trkpt>
      <trkpt lat="45.24983" lon="4.33243">
        <ele>958</ele>
        <time>2021-04-26T14:06:26Z</time>
      </trkpt>
      <trkpt lat="45.24982" lon="4.33249">
        <ele>959</ele>
        <time>2021-04-26T14:06:27Z</time>
      </trkpt>
      <trkpt lat="45.24981" lon="4.33255">
        <ele>959</ele>
        <time>2021-04-26T14:06:28Z</time>
      </trkpt>
      <trkpt lat="45.2498" lon="4.3326">
        <ele>959</ele>
        <time>2021-04-26T14:06:29Z</time>
      </trkpt>
      <trkpt lat="45.24979" lon="4.33266">
        <ele>959</ele>
        <time>2021-04-26T14:06:30Z</time>
      </trkpt>
      <trkpt lat="45.24978" lon="4.33271">
        <ele>960</ele>
        <time>2021-04-26T14:06:31Z</time>
      </trkpt>
      <trkpt lat="45.24977" lon="4.33277">
        <ele>960</ele>
        <time>2021-04-26T14:06:32Z</time>
      </trkpt>
      <trkpt lat="45.24976" lon="4.33282">
        <ele>960</ele>
        <time>2021-04-26T14:06:33Z</time>
      </trkpt>
      <trkpt lat="45.24975" lon="4.33288">
        <ele>960</ele>
        <time>2021-04-26T14:06:34Z</time>
      </trkpt>
      <trkpt lat="45.24974" lon="4.33294">
        <ele>960</ele>
        <time>2021-04-26T14:06:35Z</time>
      </trkpt>
      <trkpt lat="45.24974" lon="4.333">
        <ele>961</ele>
        <time>2021-04-26T14:06:36Z</time>
      </trkpt>
      <trkpt lat="45.24973" lon="4.33305">
        <ele>961</ele>
        <time>2021-04-26T14:06:37Z</time>
      </trkpt>
      <trkpt lat="45.24972" lon="4.33311">
        <ele>961</ele>
        <time>2021-04-26T14:06:38Z</time>
      </trkpt>
      <trkpt lat="45.24972" lon="4.33317">
        <ele>961</ele>
        <time>2021-04-26T14:06:39Z</time>
      </trkpt>
      <trkpt lat="45.24972" lon="4.33322">
        <ele>962</ele>
        <time>2021-04-26T14:06:40Z</time>
      </trkpt>
      <trkpt lat="45.24971" lon="4.33328">
        <ele>962</ele>
        <time>2021-04-26T14:06:41Z</time>
      </trkpt>
      <trkpt lat="45.24971" lon="4.33334">
        <ele>962</ele>
        <time>2021-04-26T14:06:42Z</time>
      </trkpt>
      <trkpt lat="45.24971" lon="4.3334">
        <ele>963</ele>
        <time>2021-04-26T14:06:43Z</time>
      </trkpt>
      <trkpt lat="45.24971" lon="4.33346">
        <ele>963</ele>
        <time>2021-04-26T14:06:44Z</time>
      </trkpt>
      <trkpt lat="45.24971" lon="4.33351">
        <ele>963</ele>
        <time>2021-04-26T14:06:45Z</time>
      </trkpt>
      <trkpt lat="45.2497" lon="4.33357">
        <ele>964</ele>
        <time>2021-04-26T14:06:46Z</time>
      </trkpt>
      <trkpt lat="45.24971" lon="4.33363">
        <ele>964</ele>
        <time>2021-04-26T14:06:47Z</time>
      </trkpt>
      <trkpt lat="45.24971" lon="4.33368">
        <ele>965</ele>
        <time>2021-04-26T14:06:48Z</time>
      </trkpt>
      <trkpt lat="45.24971" lon="4.33374">
        <ele>965</ele>
        <time>2021-04-26T14:06:49Z</time>
      </trkpt>
      <trkpt lat="45.24972" lon="4.33379">
        <ele>965</ele>
        <time>2021-04-26T14:06:50Z</time>
      </trkpt>
      <trkpt lat="45.24973" lon="4.33384">
        <ele>966</ele>
        <time>2021-04-26T14:06:51Z</time>
      </trkpt>
      <trkpt lat="45.24973" lon="4.3339">
        <ele>966</ele>
        <time>2021-04-26T14:06:52Z</time>
      </trkpt>
      <trkpt lat="45.24974" lon="4.33395">
        <ele>966</ele>
        <time>2021-04-26T14:06:53Z</time>
      </trkpt>
      <trkpt lat="45.24975" lon="4.334">
        <ele>966</ele>
        <time>2021-04-26T14:06:54Z</time>
      </trkpt>
      <trkpt lat="45.24976" lon="4.33406">
        <ele>966</ele>
        <time>2021-04-26T14:06:55Z</time>
      </trkpt>
      <trkpt lat="45.24976" lon="4.33411">
        <ele>967</ele>
        <time>2021-04-26T14:06:56Z</time>
      </trkpt>
      <trkpt lat="45.24977" lon="4.33417">
        <ele>967</ele>
        <time>2021-04-26T14:06:57Z</time>
      </trkpt>
      <trkpt lat="45.24978" lon="4.33422">
        <ele>967</ele>
        <time>2021-04-26T14:06:58Z</time>
      </trkpt>
      <trkpt lat="45.24979" lon="4.33428">
        <ele>967</ele>
        <time>2021-04-26T14:06:59Z</time>
      </trkpt>
      <trkpt lat="45.24979" lon="4.33433">
        <ele>967</ele>
        <time>2021-04-26T14:07:00Z</time>
      </trkpt>
      <trkpt lat="45.2498" lon="4.33439">
        <ele>968</ele>
        <time>2021-04-26T14:07:01Z</time>
      </trkpt>
      <trkpt lat="45.24981" lon="4.33445">
        <ele>968</ele>
        <time>2021-04-26T14:07:02Z</time>
      </trkpt>
      <trkpt lat="45.24982" lon="4.3345">
        <ele>968</ele>
        <time>2021-04-26T14:07:03Z</time>
      </trkpt>
      <trkpt lat="45.24982" lon="4.33456">
        <ele>968</ele>
        <time>2021-04-26T14:07:04Z</time>
      </trkpt>
      <trkpt lat="45.24983" lon="4.33461">
        <ele>968</ele>
        <time>2021-04-26T14:07:05Z</time>
      </trkpt>
      <trkpt lat="45.24984" lon="4.33467">
        <ele>968</ele>
        <time>2021-04-26T14:07:06Z</time>
      </trkpt>
      <trkpt lat="45.24985" lon="4.33472">
        <ele>969</ele>
        <time>2021-04-26T14:07:07Z</time>
      </trkpt>
      <trkpt lat="45.24986" lon="4.33478">
        <ele>969</ele>
        <time>2021-04-26T14:07:08Z</time>
      </trkpt>
      <trkpt lat="45.24987" lon="4.33483">
        <ele>969</ele>
        <time>2021-04-26T14:07:09Z</time>
      </trkpt>
      <trkpt lat="45.24988" lon="4.33489">
        <ele>969</ele>
        <time>2021-04-26T14:07:10Z</time>
      </trkpt>
      <trkpt lat="45.24989" lon="4.33495">
        <ele>970</ele>
        <time>2021-04-26T14:07:11Z</time>
      </trkpt>
      <trkpt lat="45.24989" lon="4.335">
        <ele>970</ele>
        <time>2021-04-26T14:07:12Z</time>
      </trkpt>
      <trkpt lat="45.2499" lon="4.33506">
        <ele>970</ele>
        <time>2021-04-26T14:07:13Z</time>
      </trkpt>
      <trkpt lat="45.24991" lon="4.33511">
        <ele>970</ele>
        <time>2021-04-26T14:07:14Z</time>
      </trkpt>
      <trkpt lat="45.24992" lon="4.33517">
        <ele>971</ele>
        <time>2021-04-26T14:07:15Z</time>
      </trkpt>
      <trkpt lat="45.24994" lon="4.33522">
        <ele>971</ele>
        <time>2021-04-26T14:07:16Z</time>
      </trkpt>
      <trkpt lat="45.24995" lon="4.33528">
        <ele>971</ele>
        <time>2021-04-26T14:07:17Z</time>
      </trkpt>
      <trkpt lat="45.24997" lon="4.33533">
        <ele>972</ele>
        <time>2021-04-26T14:07:18Z</time>
      </trkpt>
      <trkpt lat="45.24998" lon="4.33538">
        <ele>972</ele>
        <time>2021-04-26T14:07:19Z</time>
      </trkpt>
      <trkpt lat="45.25" lon="4.33543">
        <ele>972</ele>
        <time>2021-04-26T14:07:20Z</time>
      </trkpt>
      <trkpt lat="45.25001" lon="4.33548">
        <ele>973</ele>
        <time>2021-04-26T14:07:21Z</time>
      </trkpt>
      <trkpt lat="45.25003" lon="4.33553">
        <ele>973</ele>
        <time>2021-04-26T14:07:22Z</time>
      </trkpt>
      <trkpt lat="45.25004" lon="4.33558">
        <ele>973</ele>
        <time>2021-04-26T14:07:23Z</time>
      </trkpt>
      <trkpt lat="45.25005" lon="4.33562">
        <ele>974</ele>
        <time>2021-04-26T14:07:24Z</time>
      </trkpt>
      <trkpt lat="45.25007" lon="4.33566">
        <ele>974</ele>
        <time>2021-04-26T14:07:25Z</time>
      </trkpt>
      <trkpt lat="45.25008" lon="4.33571">
        <ele>974</ele>
        <time>2021-04-26T14:07:26Z</time>
      </trkpt>
      <trkpt lat="45.2501" lon="4.33575">
        <ele>974</ele>
        <time>2021-04-26T14:07:27Z</time>
      </trkpt>
      <trkpt lat="45.25013" lon="4.33579">
        <ele>974</ele>
        <time>2021-04-26T14:07:28Z</time>
      </trkpt>
      <trkpt lat="45.25015" lon="4.33584">
        <ele>974</ele>
        <time>2021-04-26T14:07:29Z</time>
      </trkpt>
      <trkpt lat="45.25018" lon="4.33589">
        <ele>974</ele>
        <time>2021-04-26T14:07:30Z</time>
      </trkpt>
      <trkpt lat="45.2502" lon="4.33593">
        <ele>974</ele>
        <time>2021-04-26T14:07:31Z</time>
      </trkpt>
      <trkpt lat="45.25022" lon="4.33597">
        <ele>974</ele>
        <time>2021-04-26T14:07:32Z</time>
      </trkpt>
      <trkpt lat="45.25022" lon="4.33602">
        <ele>974</ele>
        <time>2021-04-26T14:07:33Z</time>
      </trkpt>
      <trkpt lat="45.2502" lon="4.33605">
        <ele>974</ele>
        <time>2021-04-26T14:07:34Z</time>
      </trkpt>
      <trkpt lat="45.25016" lon="4.33607">
        <ele>974</ele>
        <time>2021-04-26T14:07:35Z</time>
      </trkpt>
      <trkpt lat="45.25012" lon="4.33609">
        <ele>974</ele>
        <time>2021-04-26T14:07:36Z</time>
      </trkpt>
      <trkpt lat="45.25008" lon="4.33611">
        <ele>974</ele>
        <time>2021-04-26T14:07:37Z</time>
      </trkpt>
      <trkpt lat="45.25003" lon="4.33613">
        <ele>974</ele>
        <time>2021-04-26T14:07:38Z</time>
      </trkpt>
      <trkpt lat="45.24999" lon="4.33616">
        <ele>974</ele>
        <time>2021-04-26T14:07:39Z</time>
      </trkpt>
      <trkpt lat="45.24994" lon="4.33618">
        <ele>974</ele>
        <time>2021-04-26T14:07:40Z</time>
      </trkpt>
      <trkpt lat="45.24989" lon="4.3362">
        <ele>974</ele>
        <time>2021-04-26T14:07:41Z</time>
      </trkpt>
      <trkpt lat="45.24984" lon="4.33623">
        <ele>974</ele>
        <time>2021-04-26T14:07:42Z</time>
      </trkpt>
      <trkpt lat="45.24979" lon="4.33625">
        <ele>974</ele>
        <time>2021-04-26T14:07:43Z</time>
      </trkpt>
      <trkpt lat="45.24974" lon="4.33628">
        <ele>974</ele>
        <time>2021-04-26T14:07:44Z</time>
      </trkpt>
      <trkpt lat="45.24969" lon="4.33631">
        <ele>974</ele>
        <time>2021-04-26T14:07:45Z</time>
      </trkpt>
      <trkpt lat="45.24964" lon="4.33634">
        <ele>974</ele>
        <time>2021-04-26T14:07:46Z</time>
      </trkpt>
      <trkpt lat="45.24959" lon="4.33636">
        <ele>974</ele>
        <time>2021-04-26T14:07:47Z</time>
      </trkpt>
      <trkpt lat="45.24954" lon="4.33639">
        <ele>974</ele>
        <time>2021-04-26T14:07:48Z</time>
      </trkpt>
      <trkpt lat="45.2495" lon="4.33641">
        <ele>974</ele>
        <time>2021-04-26T14:07:49Z</time>
      </trkpt>
      <trkpt lat="45.24945" lon="4.33644">
        <ele>974</ele>
        <time>2021-04-26T14:07:50Z</time>
      </trkpt>
      <trkpt lat="45.2494" lon="4.33647">
        <ele>974</ele>
        <time>2021-04-26T14:07:51Z</time>
      </trkpt>
      <trkpt lat="45.24936" lon="4.33649">
        <ele>974</ele>
        <time>2021-04-26T14:07:52Z</time>
      </trkpt>
      <trkpt lat="45.24931" lon="4.33652">
        <ele>974</ele>
        <time>2021-04-26T14:07:53Z</time>
      </trkpt>
      <trkpt lat="45.24927" lon="4.33654">
        <ele>974</ele>
        <time>2021-04-26T14:07:54Z</time>
      </trkpt>
      <trkpt lat="45.24923" lon="4.33656">
        <ele>974</ele>
        <time>2021-04-26T14:07:55Z</time>
      </trkpt>
      <trkpt lat="45.24919" lon="4.33659">
        <ele>974</ele>
        <time>2021-04-26T14:07:56Z</time>
      </trkpt>
      <trkpt lat="45.24916" lon="4.33662">
        <ele>974</ele>
        <time>2021-04-26T14:07:57Z</time>
      </trkpt>
      <trkpt lat="45.24913" lon="4.33667">
        <ele>974</ele>
        <time>2021-04-26T14:07:58Z</time>
      </trkpt>
      <trkpt lat="45.2491" lon="4.33672">
        <ele>974</ele>
        <time>2021-04-26T14:07:59Z</time>
      </trkpt>
      <trkpt lat="45.24907" lon="4.33677">
        <ele>974</ele>
        <time>2021-04-26T14:08:00Z</time>
      </trkpt>
      <trkpt lat="45.24905" lon="4.33682">
        <ele>974</ele>
        <time>2021-04-26T14:08:01Z</time>
      </trkpt>
      <trkpt lat="45.24903" lon="4.33686">
        <ele>974</ele>
        <time>2021-04-26T14:08:02Z</time>
      </trkpt>
      <trkpt lat="45.24901" lon="4.33691">
        <ele>974</ele>
        <time>2021-04-26T14:08:03Z</time>
      </trkpt>
      <trkpt lat="45.24899" lon="4.33694">
        <ele>974</ele>
        <time>2021-04-26T14:08:04Z</time>
      </trkpt>
      <trkpt lat="45.24896" lon="4.33699">
        <ele>975</ele>
        <time>2021-04-26T14:08:05Z</time>
      </trkpt>
      <trkpt lat="45.24894" lon="4.33704">
        <ele>975</ele>
        <time>2021-04-26T14:08:06Z</time>
      </trkpt>
      <trkpt lat="45.2489" lon="4.3371">
        <ele>975</ele>
        <time>2021-04-26T14:08:07Z</time>
      </trkpt>
      <trkpt lat="45.24887" lon="4.33715">
        <ele>975</ele>
        <time>2021-04-26T14:08:08Z</time>
      </trkpt>
      <trkpt lat="45.24885" lon="4.33719">
        <ele>975</ele>
        <time>2021-04-26T14:08:09Z</time>
      </trkpt>
      <trkpt lat="45.24882" lon="4.33723">
        <ele>975</ele>
        <time>2021-04-26T14:08:10Z</time>
      </trkpt>
      <trkpt lat="45.2488" lon="4.33726">
        <ele>975</ele>
        <time>2021-04-26T14:08:11Z</time>
      </trkpt>
      <trkpt lat="45.24878" lon="4.33731">
        <ele>975</ele>
        <time>2021-04-26T14:08:12Z</time>
      </trkpt>
      <trkpt lat="45.24874" lon="4.33736">
        <ele>975</ele>
        <time>2021-04-26T14:08:13Z</time>
      </trkpt>
      <trkpt lat="45.24871" lon="4.33741">
        <ele>976</ele>
        <time>2021-04-26T14:08:14Z</time>
      </trkpt>
      <trkpt lat="45.24869" lon="4.33746">
        <ele>976</ele>
        <time>2021-04-26T14:08:15Z</time>
      </trkpt>
      <trkpt lat="45.24865" lon="4.33751">
        <ele>976</ele>
        <time>2021-04-26T14:08:16Z</time>
      </trkpt>
      <trkpt lat="45.24861" lon="4.33755">
        <ele>976</ele>
        <time>2021-04-26T14:08:17Z</time>
      </trkpt>
      <trkpt lat="45.24858" lon="4.33758">
        <ele>976</ele>
        <time>2021-04-26T14:08:18Z</time>
      </trkpt>
      <trkpt lat="45.24856" lon="4.33762">
        <ele>976</ele>
        <time>2021-04-26T14:08:19Z</time>
      </trkpt>
      <trkpt lat="45.24853" lon="4.33765">
        <ele>976</ele>
        <time>2021-04-26T14:08:20Z</time>
      </trkpt>
      <trkpt lat="45.24851" lon="4.33769">
        <ele>977</ele>
        <time>2021-04-26T14:08:21Z</time>
      </trkpt>
      <trkpt lat="45.24848" lon="4.33773">
        <ele>977</ele>
        <time>2021-04-26T14:08:22Z</time>
      </trkpt>
      <trkpt lat="45.24846" lon="4.33778">
        <ele>978</ele>
        <time>2021-04-26T14:08:23Z</time>
      </trkpt>
      <trkpt lat="45.24844" lon="4.33782">
        <ele>978</ele>
        <time>2021-04-26T14:08:24Z</time>
      </trkpt>
      <trkpt lat="45.24841" lon="4.33786">
        <ele>978</ele>
        <time>2021-04-26T14:08:25Z</time>
      </trkpt>
      <trkpt lat="45.24839" lon="4.33791">
        <ele>978</ele>
        <time>2021-04-26T14:08:26Z</time>
      </trkpt>
      <trkpt lat="45.24837" lon="4.33795">
        <ele>979</ele>
        <time>2021-04-26T14:08:27Z</time>
      </trkpt>
      <trkpt lat="45.24835" lon="4.338">
        <ele>979</ele>
        <time>2021-04-26T14:08:28Z</time>
      </trkpt>
      <trkpt lat="45.24832" lon="4.33805">
        <ele>979</ele>
        <time>2021-04-26T14:08:29Z</time>
      </trkpt>
      <trkpt lat="45.2483" lon="4.3381">
        <ele>980</ele>
        <time>2021-04-26T14:08:30Z</time>
      </trkpt>
      <trkpt lat="45.24827" lon="4.33816">
        <ele>980</ele>
        <time>2021-04-26T14:08:31Z</time>
      </trkpt>
      <trkpt lat="45.24824" lon="4.33822">
        <ele>980</ele>
        <time>2021-04-26T14:08:32Z</time>
      </trkpt>
      <trkpt lat="45.24821" lon="4.33827">
        <ele>980</ele>
        <time>2021-04-26T14:08:33Z</time>
      </trkpt>
      <trkpt lat="45.24817" lon="4.33832">
        <ele>980</ele>
        <time>2021-04-26T14:08:34Z</time>
      </trkpt>
      <trkpt lat="45.24814" lon="4.33836">
        <ele>980</ele>
        <time>2021-04-26T14:08:35Z</time>
      </trkpt>
      <trkpt lat="45.24811" lon="4.33841">
        <ele>980</ele>
        <time>2021-04-26T14:08:36Z</time>
      </trkpt>
      <trkpt lat="45.24809" lon="4.33846">
        <ele>981</ele>
        <time>2021-04-26T14:08:37Z</time>
      </trkpt>
      <trkpt lat="45.24807" lon="4.3385">
        <ele>981</ele>
        <time>2021-04-26T14:08:38Z</time>
      </trkpt>
      <trkpt lat="45.24805" lon="4.33854">
        <ele>981</ele>
        <time>2021-04-26T14:08:39Z</time>
      </trkpt>
      <trkpt lat="45.24802" lon="4.33859">
        <ele>981</ele>
        <time>2021-04-26T14:08:40Z</time>
      </trkpt>
      <trkpt lat="45.24799" lon="4.33863">
        <ele>981</ele>
        <time>2021-04-26T14:08:41Z</time>
      </trkpt>
      <trkpt lat="45.24797" lon="4.33868">
        <ele>982</ele>
        <time>2021-04-26T14:08:42Z</time>
      </trkpt>
      <trkpt lat="45.24795" lon="4.33873">
        <ele>982</ele>
        <time>2021-04-26T14:08:43Z</time>
      </trkpt>
      <trkpt lat="45.24793" lon="4.33878">
        <ele>982</ele>
        <time>2021-04-26T14:08:44Z</time>
      </trkpt>
      <trkpt lat="45.2479" lon="4.33884">
        <ele>982</ele>
        <time>2021-04-26T14:08:45Z</time>
      </trkpt>
      <trkpt lat="45.24788" lon="4.33889">
        <ele>982</ele>
        <time>2021-04-26T14:08:46Z</time>
      </trkpt>
      <trkpt lat="45.24785" lon="4.33894">
        <ele>982</ele>
        <time>2021-04-26T14:08:47Z</time>
      </trkpt>
      <trkpt lat="45.24783" lon="4.33899">
        <ele>982</ele>
        <time>2021-04-26T14:08:48Z</time>
      </trkpt>
      <trkpt lat="45.2478" lon="4.33905">
        <ele>982</ele>
        <time>2021-04-26T14:08:49Z</time>
      </trkpt>
      <trkpt lat="45.24778" lon="4.33911">
        <ele>982</ele>
        <time>2021-04-26T14:08:50Z</time>
      </trkpt>
      <trkpt lat="45.24775" lon="4.33917">
        <ele>982</ele>
        <time>2021-04-26T14:08:51Z</time>
      </trkpt>
      <trkpt lat="45.2477" lon="4.33932">
        <ele>982</ele>
        <time>2021-04-26T14:08:53Z</time>
      </trkpt>
      <trkpt lat="45.24764" lon="4.33948">
        <ele>982</ele>
        <time>2021-04-26T14:08:55Z</time>
      </trkpt>
      <trkpt lat="45.2476" lon="4.33963">
        <ele>983</ele>
        <time>2021-04-26T14:08:57Z</time>
      </trkpt>
      <trkpt lat="45.24756" lon="4.33979">
        <ele>984</ele>
        <time>2021-04-26T14:08:59Z</time>
      </trkpt>
      <trkpt lat="45.24755" lon="4.33987">
        <ele>984</ele>
        <time>2021-04-26T14:09:00Z</time>
      </trkpt>
      <trkpt lat="45.24753" lon="4.34001">
        <ele>984</ele>
        <time>2021-04-26T14:09:02Z</time>
      </trkpt>
      <trkpt lat="45.2475" lon="4.34017">
        <ele>984</ele>
        <time>2021-04-26T14:09:04Z</time>
      </trkpt>
      <trkpt lat="45.24748" lon="4.34025">
        <ele>985</ele>
        <time>2021-04-26T14:09:05Z</time>
      </trkpt>
      <trkpt lat="45.24744" lon="4.34041">
        <ele>985</ele>
        <time>2021-04-26T14:09:07Z</time>
      </trkpt>
      <trkpt lat="45.24742" lon="4.34049">
        <ele>986</ele>
        <time>2021-04-26T14:09:08Z</time>
      </trkpt>
      <trkpt lat="45.24741" lon="4.34057">
        <ele>986</ele>
        <time>2021-04-26T14:09:09Z</time>
      </trkpt>
      <trkpt lat="45.2474" lon="4.34065">
        <ele>986</ele>
        <time>2021-04-26T14:09:10Z</time>
      </trkpt>
      <trkpt lat="45.24737" lon="4.34077">
        <ele>986</ele>
        <time>2021-04-26T14:09:12Z</time>
      </trkpt>
      <trkpt lat="45.24733" lon="4.34091">
        <ele>987</ele>
        <time>2021-04-26T14:09:14Z</time>
      </trkpt>
      <trkpt lat="45.24732" lon="4.34099">
        <ele>987</ele>
        <time>2021-04-26T14:09:15Z</time>
      </trkpt>
      <trkpt lat="45.2473" lon="4.34107">
        <ele>987</ele>
        <time>2021-04-26T14:09:16Z</time>
      </trkpt>
      <trkpt lat="45.24728" lon="4.34115">
        <ele>987</ele>
        <time>2021-04-26T14:09:17Z</time>
      </trkpt>
      <trkpt lat="45.24727" lon="4.34122">
        <ele>987</ele>
        <time>2021-04-26T14:09:18Z</time>
      </trkpt>
      <trkpt lat="45.24725" lon="4.34129">
        <ele>988</ele>
        <time>2021-04-26T14:09:19Z</time>
      </trkpt>
      <trkpt lat="45.24723" lon="4.34135">
        <ele>988</ele>
        <time>2021-04-26T14:09:20Z</time>
      </trkpt>
      <trkpt lat="45.24721" lon="4.34141">
        <ele>988</ele>
        <time>2021-04-26T14:09:21Z</time>
      </trkpt>
      <trkpt lat="45.24718" lon="4.34147">
        <ele>988</ele>
        <time>2021-04-26T14:09:22Z</time>
      </trkpt>
      <trkpt lat="45.24717" lon="4.34155">
        <ele>988</ele>
        <time>2021-04-26T14:09:23Z</time>
      </trkpt>
      <trkpt lat="45.24716" lon="4.34162">
        <ele>988</ele>
        <time>2021-04-26T14:09:24Z</time>
      </trkpt>
      <trkpt lat="45.24716" lon="4.34171">
        <ele>988</ele>
        <time>2021-04-26T14:09:25Z</time>
      </trkpt>
      <trkpt lat="45.24717" lon="4.3418">
        <ele>988</ele>
        <time>2021-04-26T14:09:26Z</time>
      </trkpt>
      <trkpt lat="45.24719" lon="4.34189">
        <ele>988</ele>
        <time>2021-04-26T14:09:27Z</time>
      </trkpt>
      <trkpt lat="45.24721" lon="4.34198">
        <ele>987</ele>
        <time>2021-04-26T14:09:28Z</time>
      </trkpt>
      <trkpt lat="45.24724" lon="4.34206">
        <ele>987</ele>
        <time>2021-04-26T14:09:29Z</time>
      </trkpt>
      <trkpt lat="45.24726" lon="4.34213">
        <ele>987</ele>
        <time>2021-04-26T14:09:30Z</time>
      </trkpt>
      <trkpt lat="45.24729" lon="4.34221">
        <ele>987</ele>
        <time>2021-04-26T14:09:31Z</time>
      </trkpt>
      <trkpt lat="45.24734" lon="4.34234">
        <ele>987</ele>
        <time>2021-04-26T14:09:33Z</time>
      </trkpt>
      <trkpt lat="45.24736" lon="4.34241">
        <ele>987</ele>
        <time>2021-04-26T14:09:34Z</time>
      </trkpt>
      <trkpt lat="45.24739" lon="4.34248">
        <ele>987</ele>
        <time>2021-04-26T14:09:35Z</time>
      </trkpt>
      <trkpt lat="45.24742" lon="4.34255">
        <ele>987</ele>
        <time>2021-04-26T14:09:36Z</time>
      </trkpt>
      <trkpt lat="45.24745" lon="4.34261">
        <ele>987</ele>
        <time>2021-04-26T14:09:37Z</time>
      </trkpt>
      <trkpt lat="45.24747" lon="4.34268">
        <ele>986</ele>
        <time>2021-04-26T14:09:38Z</time>
      </trkpt>
      <trkpt lat="45.24749" lon="4.34275">
        <ele>986</ele>
        <time>2021-04-26T14:09:39Z</time>
      </trkpt>
      <trkpt lat="45.24751" lon="4.34281">
        <ele>986</ele>
        <time>2021-04-26T14:09:40Z</time>
      </trkpt>
      <trkpt lat="45.24753" lon="4.34287">
        <ele>986</ele>
        <time>2021-04-26T14:09:41Z</time>
      </trkpt>
      <trkpt lat="45.24756" lon="4.34292">
        <ele>986</ele>
        <time>2021-04-26T14:09:42Z</time>
      </trkpt>
      <trkpt lat="45.24758" lon="4.34295">
        <ele>986</ele>
        <time>2021-04-26T14:09:43Z</time>
      </trkpt>
      <trkpt lat="45.2476" lon="4.34298">
        <ele>986</ele>
        <time>2021-04-26T14:09:44Z</time>
      </trkpt>
      <trkpt lat="45.24763" lon="4.34301">
        <ele>986</ele>
        <time>2021-04-26T14:09:45Z</time>
      </trkpt>
      <trkpt lat="45.24766" lon="4.34303">
        <ele>986</ele>
        <time>2021-04-26T14:09:46Z</time>
      </trkpt>
      <trkpt lat="45.24768" lon="4.34307">
        <ele>986</ele>
        <time>2021-04-26T14:09:47Z</time>
      </trkpt>
      <trkpt lat="45.24771" lon="4.34309">
        <ele>986</ele>
        <time>2021-04-26T14:09:48Z</time>
      </trkpt>
      <trkpt lat="45.24774" lon="4.3431">
        <ele>986</ele>
        <time>2021-04-26T14:09:49Z</time>
      </trkpt>
      <trkpt lat="45.24778" lon="4.34312">
        <ele>986</ele>
        <time>2021-04-26T14:09:50Z</time>
      </trkpt>
      <trkpt lat="45.24781" lon="4.34315">
        <ele>986</ele>
        <time>2021-04-26T14:09:51Z</time>
      </trkpt>
      <trkpt lat="45.24788" lon="4.34322">
        <ele>986</ele>
        <time>2021-04-26T14:09:53Z</time>
      </trkpt>
      <trkpt lat="45.24795" lon="4.34336">
        <ele>985</ele>
        <time>2021-04-26T14:09:56Z</time>
      </trkpt>
      <trkpt lat="45.24799" lon="4.34352">
        <ele>985</ele>
        <time>2021-04-26T14:09:59Z</time>
      </trkpt>
      <trkpt lat="45.248" lon="4.34365">
        <ele>985</ele>
        <time>2021-04-26T14:10:01Z</time>
      </trkpt>
      <trkpt lat="45.24796" lon="4.34379">
        <ele>985</ele>
        <time>2021-04-26T14:10:03Z</time>
      </trkpt>
      <trkpt lat="45.24789" lon="4.34391">
        <ele>985</ele>
        <time>2021-04-26T14:10:05Z</time>
      </trkpt>
      <trkpt lat="45.24781" lon="4.34406">
        <ele>984</ele>
        <time>2021-04-26T14:10:08Z</time>
      </trkpt>
      <trkpt lat="45.24776" lon="4.34417">
        <ele>984</ele>
        <time>2021-04-26T14:10:10Z</time>
      </trkpt>
      <trkpt lat="45.24769" lon="4.34434">
        <ele>984</ele>
        <time>2021-04-26T14:10:12Z</time>
      </trkpt>
      <trkpt lat="45.24763" lon="4.34449">
        <ele>984</ele>
        <time>2021-04-26T14:10:14Z</time>
      </trkpt>
      <trkpt lat="45.24758" lon="4.34468">
        <ele>982</ele>
        <time>2021-04-26T14:10:16Z</time>
      </trkpt>
      <trkpt lat="45.24757" lon="4.34491">
        <ele>981</ele>
        <time>2021-04-26T14:10:18Z</time>
      </trkpt>
      <trkpt lat="45.24754" lon="4.345">
        <ele>980</ele>
        <time>2021-04-26T14:10:19Z</time>
      </trkpt>
      <trkpt lat="45.2475" lon="4.34508">
        <ele>980</ele>
        <time>2021-04-26T14:10:20Z</time>
      </trkpt>
      <trkpt lat="45.24746" lon="4.34514">
        <ele>978</ele>
        <time>2021-04-26T14:10:21Z</time>
      </trkpt>
      <trkpt lat="45.24742" lon="4.34521">
        <ele>978</ele>
        <time>2021-04-26T14:10:22Z</time>
      </trkpt>
      <trkpt lat="45.24738" lon="4.34527">
        <ele>978</ele>
        <time>2021-04-26T14:10:23Z</time>
      </trkpt>
      <trkpt lat="45.24734" lon="4.34532">
        <ele>977</ele>
        <time>2021-04-26T14:10:24Z</time>
      </trkpt>
      <trkpt lat="45.24729" lon="4.34537">
        <ele>976</ele>
        <time>2021-04-26T14:10:25Z</time>
      </trkpt>
      <trkpt lat="45.24724" lon="4.3454">
        <ele>976</ele>
        <time>2021-04-26T14:10:26Z</time>
      </trkpt>
      <trkpt lat="45.24718" lon="4.34543">
        <ele>975</ele>
        <time>2021-04-26T14:10:27Z</time>
      </trkpt>
      <trkpt lat="45.24713" lon="4.34545">
        <ele>975</ele>
        <time>2021-04-26T14:10:28Z</time>
      </trkpt>
      <trkpt lat="45.24707" lon="4.34548">
        <ele>974</ele>
        <time>2021-04-26T14:10:29Z</time>
      </trkpt>
      <trkpt lat="45.24702" lon="4.3455">
        <ele>973</ele>
        <time>2021-04-26T14:10:30Z</time>
      </trkpt>
      <trkpt lat="45.24697" lon="4.34553">
        <ele>973</ele>
        <time>2021-04-26T14:10:31Z</time>
      </trkpt>
      <trkpt lat="45.24692" lon="4.34555">
        <ele>973</ele>
        <time>2021-04-26T14:10:32Z</time>
      </trkpt>
      <trkpt lat="45.24686" lon="4.34557">
        <ele>972</ele>
        <time>2021-04-26T14:10:33Z</time>
      </trkpt>
      <trkpt lat="45.2468" lon="4.34561">
        <ele>972</ele>
        <time>2021-04-26T14:10:34Z</time>
      </trkpt>
      <trkpt lat="45.24676" lon="4.34566">
        <ele>971</ele>
        <time>2021-04-26T14:10:35Z</time>
      </trkpt>
      <trkpt lat="45.24672" lon="4.34572">
        <ele>970</ele>
        <time>2021-04-26T14:10:36Z</time>
      </trkpt>
      <trkpt lat="45.24669" lon="4.3458">
        <ele>970</ele>
        <time>2021-04-26T14:10:37Z</time>
      </trkpt>
      <trkpt lat="45.24667" lon="4.3459">
        <ele>968</ele>
        <time>2021-04-26T14:10:38Z</time>
      </trkpt>
      <trkpt lat="45.24666" lon="4.346">
        <ele>968</ele>
        <time>2021-04-26T14:10:39Z</time>
      </trkpt>
      <trkpt lat="45.24665" lon="4.34609">
        <ele>967</ele>
        <time>2021-04-26T14:10:40Z</time>
      </trkpt>
      <trkpt lat="45.24663" lon="4.34618">
        <ele>966</ele>
        <time>2021-04-26T14:10:41Z</time>
      </trkpt>
      <trkpt lat="45.2466" lon="4.34627">
        <ele>966</ele>
        <time>2021-04-26T14:10:42Z</time>
      </trkpt>
      <trkpt lat="45.24656" lon="4.34636">
        <ele>965</ele>
        <time>2021-04-26T14:10:43Z</time>
      </trkpt>
      <trkpt lat="45.24653" lon="4.34645">
        <ele>965</ele>
        <time>2021-04-26T14:10:44Z</time>
      </trkpt>
      <trkpt lat="45.24649" lon="4.34653">
        <ele>965</ele>
        <time>2021-04-26T14:10:45Z</time>
      </trkpt>
      <trkpt lat="45.24646" lon="4.34662">
        <ele>964</ele>
        <time>2021-04-26T14:10:46Z</time>
      </trkpt>
      <trkpt lat="45.24642" lon="4.3467">
        <ele>964</ele>
        <time>2021-04-26T14:10:47Z</time>
      </trkpt>
      <trkpt lat="45.24639" lon="4.34677">
        <ele>963</ele>
        <time>2021-04-26T14:10:48Z</time>
      </trkpt>
      <trkpt lat="45.24636" lon="4.34683">
        <ele>963</ele>
        <time>2021-04-26T14:10:49Z</time>
      </trkpt>
      <trkpt lat="45.24633" lon="4.34691">
        <ele>963</ele>
        <time>2021-04-26T14:10:50Z</time>
      </trkpt>
      <trkpt lat="45.2463" lon="4.34698">
        <ele>963</ele>
        <time>2021-04-26T14:10:51Z</time>
      </trkpt>
      <trkpt lat="45.24629" lon="4.34705">
        <ele>963</ele>
        <time>2021-04-26T14:10:52Z</time>
      </trkpt>
      <trkpt lat="45.24627" lon="4.34713">
        <ele>961</ele>
        <time>2021-04-26T14:10:53Z</time>
      </trkpt>
      <trkpt lat="45.24625" lon="4.3472">
        <ele>960</ele>
        <time>2021-04-26T14:10:54Z</time>
      </trkpt>
      <trkpt lat="45.24623" lon="4.34727">
        <ele>959</ele>
        <time>2021-04-26T14:10:55Z</time>
      </trkpt>
      <trkpt lat="45.24621" lon="4.34735">
        <ele>958</ele>
        <time>2021-04-26T14:10:56Z</time>
      </trkpt>
      <trkpt lat="45.24618" lon="4.34743">
        <ele>957</ele>
        <time>2021-04-26T14:10:57Z</time>
      </trkpt>
      <trkpt lat="45.24615" lon="4.3475">
        <ele>957</ele>
        <time>2021-04-26T14:10:58Z</time>
      </trkpt>
      <trkpt lat="45.24612" lon="4.34758">
        <ele>956</ele>
        <time>2021-04-26T14:10:59Z</time>
      </trkpt>
      <trkpt lat="45.24608" lon="4.34765">
        <ele>956</ele>
        <time>2021-04-26T14:11:00Z</time>
      </trkpt>
      <trkpt lat="45.24604" lon="4.34773">
        <ele>955</ele>
        <time>2021-04-26T14:11:01Z</time>
      </trkpt>
      <trkpt lat="45.24601" lon="4.34781">
        <ele>954</ele>
        <time>2021-04-26T14:11:02Z</time>
      </trkpt>
      <trkpt lat="45.24597" lon="4.34789">
        <ele>954</ele>
        <time>2021-04-26T14:11:03Z</time>
      </trkpt>
      <trkpt lat="45.24594" lon="4.34797">
        <ele>953</ele>
        <time>2021-04-26T14:11:04Z</time>
      </trkpt>
      <trkpt lat="45.2459" lon="4.34804">
        <ele>953</ele>
        <time>2021-04-26T14:11:05Z</time>
      </trkpt>
      <trkpt lat="45.24587" lon="4.34812">
        <ele>952</ele>
        <time>2021-04-26T14:11:06Z</time>
      </trkpt>
      <trkpt lat="45.24583" lon="4.34819">
        <ele>952</ele>
        <time>2021-04-26T14:11:07Z</time>
      </trkpt>
      <trkpt lat="45.2458" lon="4.34826">
        <ele>952</ele>
        <time>2021-04-26T14:11:08Z</time>
      </trkpt>
      <trkpt lat="45.24578" lon="4.34833">
        <ele>951</ele>
        <time>2021-04-26T14:11:09Z</time>
      </trkpt>
      <trkpt lat="45.24577" lon="4.3484">
        <ele>951</ele>
        <time>2021-04-26T14:11:10Z</time>
      </trkpt>
      <trkpt lat="45.24575" lon="4.34847">
        <ele>951</ele>
        <time>2021-04-26T14:11:11Z</time>
      </trkpt>
      <trkpt lat="45.24572" lon="4.34854">
        <ele>950</ele>
        <time>2021-04-26T14:11:12Z</time>
      </trkpt>
      <trkpt lat="45.2457" lon="4.3486">
        <ele>950</ele>
        <time>2021-04-26T14:11:13Z</time>
      </trkpt>
      <trkpt lat="45.24567" lon="4.34865">
        <ele>950</ele>
        <time>2021-04-26T14:11:14Z</time>
      </trkpt>
      <trkpt lat="45.24565" lon="4.34871">
        <ele>950</ele>
        <time>2021-04-26T14:11:15Z</time>
      </trkpt>
      <trkpt lat="45.24563" lon="4.34876">
        <ele>950</ele>
        <time>2021-04-26T14:11:16Z</time>
      </trkpt>
      <trkpt lat="45.24561" lon="4.34882">
        <ele>949</ele>
        <time>2021-04-26T14:11:17Z</time>
      </trkpt>
      <trkpt lat="45.24561" lon="4.34887">
        <ele>949</ele>
        <time>2021-04-26T14:11:18Z</time>
      </trkpt>
      <trkpt lat="45.2456" lon="4.34894">
        <ele>949</ele>
        <time>2021-04-26T14:11:19Z</time>
      </trkpt>
      <trkpt lat="45.2456" lon="4.349">
        <ele>949</ele>
        <time>2021-04-26T14:11:20Z</time>
      </trkpt>
      <trkpt lat="45.24559" lon="4.34906">
        <ele>949</ele>
        <time>2021-04-26T14:11:21Z</time>
      </trkpt>
      <trkpt lat="45.24559" lon="4.34913">
        <ele>949</ele>
        <time>2021-04-26T14:11:22Z</time>
      </trkpt>
      <trkpt lat="45.24559" lon="4.34919">
        <ele>949</ele>
        <time>2021-04-26T14:11:23Z</time>
      </trkpt>
      <trkpt lat="45.24559" lon="4.34925">
        <ele>948</ele>
        <time>2021-04-26T14:11:24Z</time>
      </trkpt>
      <trkpt lat="45.24559" lon="4.34932">
        <ele>948</ele>
        <time>2021-04-26T14:11:25Z</time>
      </trkpt>
      <trkpt lat="45.2456" lon="4.34938">
        <ele>948</ele>
        <time>2021-04-26T14:11:26Z</time>
      </trkpt>
      <trkpt lat="45.2456" lon="4.34945">
        <ele>948</ele>
        <time>2021-04-26T14:11:27Z</time>
      </trkpt>
      <trkpt lat="45.24559" lon="4.34951">
        <ele>948</ele>
        <time>2021-04-26T14:11:28Z</time>
      </trkpt>
      <trkpt lat="45.24558" lon="4.34958">
        <ele>948</ele>
        <time>2021-04-26T14:11:29Z</time>
      </trkpt>
      <trkpt lat="45.24557" lon="4.34964">
        <ele>948</ele>
        <time>2021-04-26T14:11:30Z</time>
      </trkpt>
      <trkpt lat="45.24557" lon="4.34969">
        <ele>948</ele>
        <time>2021-04-26T14:11:31Z</time>
      </trkpt>
      <trkpt lat="45.24556" lon="4.34975">
        <ele>948</ele>
        <time>2021-04-26T14:11:32Z</time>
      </trkpt>
      <trkpt lat="45.24555" lon="4.34981">
        <ele>948</ele>
        <time>2021-04-26T14:11:33Z</time>
      </trkpt>
      <trkpt lat="45.24555" lon="4.34987">
        <ele>948</ele>
        <time>2021-04-26T14:11:34Z</time>
      </trkpt>
      <trkpt lat="45.24555" lon="4.34993">
        <ele>948</ele>
        <time>2021-04-26T14:11:35Z</time>
      </trkpt>
      <trkpt lat="45.24555" lon="4.35">
        <ele>948</ele>
        <time>2021-04-26T14:11:36Z</time>
      </trkpt>
      <trkpt lat="45.24556" lon="4.35006">
        <ele>948</ele>
        <time>2021-04-26T14:11:37Z</time>
      </trkpt>
      <trkpt lat="45.24557" lon="4.35012">
        <ele>948</ele>
        <time>2021-04-26T14:11:38Z</time>
      </trkpt>
      <trkpt lat="45.24558" lon="4.35018">
        <ele>948</ele>
        <time>2021-04-26T14:11:39Z</time>
      </trkpt>
      <trkpt lat="45.24558" lon="4.35024">
        <ele>947</ele>
        <time>2021-04-26T14:11:40Z</time>
      </trkpt>
      <trkpt lat="45.24558" lon="4.3503">
        <ele>947</ele>
        <time>2021-04-26T14:11:41Z</time>
      </trkpt>
      <trkpt lat="45.24558" lon="4.35036">
        <ele>947</ele>
        <time>2021-04-26T14:11:42Z</time>
      </trkpt>
      <trkpt lat="45.24558" lon="4.35042">
        <ele>947</ele>
        <time>2021-04-26T14:11:43Z</time>
      </trkpt>
      <trkpt lat="45.24558" lon="4.35048">
        <ele>947</ele>
        <time>2021-04-26T14:11:44Z</time>
      </trkpt>
      <trkpt lat="45.24559" lon="4.35054">
        <ele>947</ele>
        <time>2021-04-26T14:11:45Z</time>
      </trkpt>
      <trkpt lat="45.24558" lon="4.35061">
        <ele>946</ele>
        <time>2021-04-26T14:11:46Z</time>
      </trkpt>
      <trkpt lat="45.24557" lon="4.35068">
        <ele>946</ele>
        <time>2021-04-26T14:11:47Z</time>
      </trkpt>
      <trkpt lat="45.24553" lon="4.35075">
        <ele>945</ele>
        <time>2021-04-26T14:11:48Z</time>
      </trkpt>
      <trkpt lat="45.24547" lon="4.3508">
        <ele>945</ele>
        <time>2021-04-26T14:11:49Z</time>
      </trkpt>
      <trkpt lat="45.24541" lon="4.35087">
        <ele>943</ele>
        <time>2021-04-26T14:11:50Z</time>
      </trkpt>
      <trkpt lat="45.24535" lon="4.35096">
        <ele>943</ele>
        <time>2021-04-26T14:11:51Z</time>
      </trkpt>
      <trkpt lat="45.24531" lon="4.35108">
        <ele>941</ele>
        <time>2021-04-26T14:11:52Z</time>
      </trkpt>
      <trkpt lat="45.24527" lon="4.35122">
        <ele>940</ele>
        <time>2021-04-26T14:11:53Z</time>
      </trkpt>
      <trkpt lat="45.24523" lon="4.35136">
        <ele>939</ele>
        <time>2021-04-26T14:11:54Z</time>
      </trkpt>
      <trkpt lat="45.2452" lon="4.35151">
        <ele>938</ele>
        <time>2021-04-26T14:11:55Z</time>
      </trkpt>
      <trkpt lat="45.24516" lon="4.35166">
        <ele>938</ele>
        <time>2021-04-26T14:11:56Z</time>
      </trkpt>
      <trkpt lat="45.24513" lon="4.35181">
        <ele>936</ele>
        <time>2021-04-26T14:11:57Z</time>
      </trkpt>
      <trkpt lat="45.24509" lon="4.35197">
        <ele>936</ele>
        <time>2021-04-26T14:11:58Z</time>
      </trkpt>
      <trkpt lat="45.24505" lon="4.35213">
        <ele>934</ele>
        <time>2021-04-26T14:11:59Z</time>
      </trkpt>
      <trkpt lat="45.24501" lon="4.35229">
        <ele>934</ele>
        <time>2021-04-26T14:12:00Z</time>
      </trkpt>
      <trkpt lat="45.24498" lon="4.35247">
        <ele>930</ele>
        <time>2021-04-26T14:12:01Z</time>
      </trkpt>
      <trkpt lat="45.24494" lon="4.35265">
        <ele>928</ele>
        <time>2021-04-26T14:12:02Z</time>
      </trkpt>
      <trkpt lat="45.2449" lon="4.35281">
        <ele>927</ele>
        <time>2021-04-26T14:12:03Z</time>
      </trkpt>
      <trkpt lat="45.24488" lon="4.35296">
        <ele>927</ele>
        <time>2021-04-26T14:12:04Z</time>
      </trkpt>
      <trkpt lat="45.24486" lon="4.3531">
        <ele>924</ele>
        <time>2021-04-26T14:12:05Z</time>
      </trkpt>
      <trkpt lat="45.24484" lon="4.35323">
        <ele>923</ele>
        <time>2021-04-26T14:12:06Z</time>
      </trkpt>
      <trkpt lat="45.24482" lon="4.35333">
        <ele>922</ele>
        <time>2021-04-26T14:12:07Z</time>
      </trkpt>
      <trkpt lat="45.2448" lon="4.3534">
        <ele>921</ele>
        <time>2021-04-26T14:12:08Z</time>
      </trkpt>
      <trkpt lat="45.24479" lon="4.35346">
        <ele>920</ele>
        <time>2021-04-26T14:12:09Z</time>
      </trkpt>
      <trkpt lat="45.24478" lon="4.3535">
        <ele>919</ele>
        <time>2021-04-26T14:12:10Z</time>
      </trkpt>
      <trkpt lat="45.24477" lon="4.35354">
        <ele>919</ele>
        <time>2021-04-26T14:12:12Z</time>
      </trkpt>
      <trkpt lat="45.24468" lon="4.35348">
        <ele>919</ele>
        <time>2021-04-26T14:12:35Z</time>
      </trkpt>
      <trkpt lat="45.24466" lon="4.35344">
        <ele>919</ele>
        <time>2021-04-26T14:12:36Z</time>
      </trkpt>
      <trkpt lat="45.24464" lon="4.3534">
        <ele>918</ele>
        <time>2021-04-26T14:12:37Z</time>
      </trkpt>
      <trkpt lat="45.24461" lon="4.35336">
        <ele>918</ele>
        <time>2021-04-26T14:12:38Z</time>
      </trkpt>
      <trkpt lat="45.24459" lon="4.35331">
        <ele>918</ele>
        <time>2021-04-26T14:12:39Z</time>
      </trkpt>
      <trkpt lat="45.24457" lon="4.35327">
        <ele>918</ele>
        <time>2021-04-26T14:12:40Z</time>
      </trkpt>
      <trkpt lat="45.24454" lon="4.35322">
        <ele>918</ele>
        <time>2021-04-26T14:12:41Z</time>
      </trkpt>
      <trkpt lat="45.24451" lon="4.35318">
        <ele>918</ele>
        <time>2021-04-26T14:12:42Z</time>
      </trkpt>
      <trkpt lat="45.24448" lon="4.35313">
        <ele>918</ele>
        <time>2021-04-26T14:12:43Z</time>
      </trkpt>
      <trkpt lat="45.24445" lon="4.35308">
        <ele>918</ele>
        <time>2021-04-26T14:12:44Z</time>
      </trkpt>
      <trkpt lat="45.24442" lon="4.35303">
        <ele>919</ele>
        <time>2021-04-26T14:12:45Z</time>
      </trkpt>
      <trkpt lat="45.24439" lon="4.35298">
        <ele>919</ele>
        <time>2021-04-26T14:12:46Z</time>
      </trkpt>
      <trkpt lat="45.24436" lon="4.35293">
        <ele>919</ele>
        <time>2021-04-26T14:12:47Z</time>
      </trkpt>
      <trkpt lat="45.24434" lon="4.35288">
        <ele>919</ele>
        <time>2021-04-26T14:12:48Z</time>
      </trkpt>
      <trkpt lat="45.24431" lon="4.35283">
        <ele>919</ele>
        <time>2021-04-26T14:12:49Z</time>
      </trkpt>
      <trkpt lat="45.24429" lon="4.35278">
        <ele>919</ele>
        <time>2021-04-26T14:12:50Z</time>
      </trkpt>
      <trkpt lat="45.24426" lon="4.35272">
        <ele>919</ele>
        <time>2021-04-26T14:12:51Z</time>
      </trkpt>
      <trkpt lat="45.24424" lon="4.35267">
        <ele>919</ele>
        <time>2021-04-26T14:12:52Z</time>
      </trkpt>
      <trkpt lat="45.24421" lon="4.35262">
        <ele>919</ele>
        <time>2021-04-26T14:12:53Z</time>
      </trkpt>
      <trkpt lat="45.24419" lon="4.35257">
        <ele>919</ele>
        <time>2021-04-26T14:12:54Z</time>
      </trkpt>
      <trkpt lat="45.24416" lon="4.35252">
        <ele>919</ele>
        <time>2021-04-26T14:12:55Z</time>
      </trkpt>
      <trkpt lat="45.24413" lon="4.35247">
        <ele>919</ele>
        <time>2021-04-26T14:12:56Z</time>
      </trkpt>
      <trkpt lat="45.2441" lon="4.35242">
        <ele>919</ele>
        <time>2021-04-26T14:12:57Z</time>
      </trkpt>
      <trkpt lat="45.24406" lon="4.35238">
        <ele>919</ele>
        <time>2021-04-26T14:12:58Z</time>
      </trkpt>
      <trkpt lat="45.24402" lon="4.35233">
        <ele>919</ele>
        <time>2021-04-26T14:12:59Z</time>
      </trkpt>
      <trkpt lat="45.24398" lon="4.35229">
        <ele>919</ele>
        <time>2021-04-26T14:13:00Z</time>
      </trkpt>
      <trkpt lat="45.24394" lon="4.35226">
        <ele>919</ele>
        <time>2021-04-26T14:13:01Z</time>
      </trkpt>
      <trkpt lat="45.2439" lon="4.35223">
        <ele>919</ele>
        <time>2021-04-26T14:13:02Z</time>
      </trkpt>
      <trkpt lat="45.24386" lon="4.3522">
        <ele>920</ele>
        <time>2021-04-26T14:13:03Z</time>
      </trkpt>
      <trkpt lat="45.24382" lon="4.35217">
        <ele>920</ele>
        <time>2021-04-26T14:13:04Z</time>
      </trkpt>
      <trkpt lat="45.24378" lon="4.35214">
        <ele>920</ele>
        <time>2021-04-26T14:13:05Z</time>
      </trkpt>
      <trkpt lat="45.24373" lon="4.35212">
        <ele>921</ele>
        <time>2021-04-26T14:13:06Z</time>
      </trkpt>
      <trkpt lat="45.24369" lon="4.3521">
        <ele>921</ele>
        <time>2021-04-26T14:13:07Z</time>
      </trkpt>
      <trkpt lat="45.24365" lon="4.35207">
        <ele>921</ele>
        <time>2021-04-26T14:13:08Z</time>
      </trkpt>
      <trkpt lat="45.24361" lon="4.35205">
        <ele>921</ele>
        <time>2021-04-26T14:13:09Z</time>
      </trkpt>
      <trkpt lat="45.24357" lon="4.35203">
        <ele>921</ele>
        <time>2021-04-26T14:13:10Z</time>
      </trkpt>
      <trkpt lat="45.24353" lon="4.352">
        <ele>921</ele>
        <time>2021-04-26T14:13:11Z</time>
      </trkpt>
      <trkpt lat="45.24349" lon="4.35197">
        <ele>921</ele>
        <time>2021-04-26T14:13:12Z</time>
      </trkpt>
      <trkpt lat="45.24345" lon="4.35194">
        <ele>921</ele>
        <time>2021-04-26T14:13:13Z</time>
      </trkpt>
      <trkpt lat="45.24341" lon="4.35191">
        <ele>921</ele>
        <time>2021-04-26T14:13:14Z</time>
      </trkpt>
      <trkpt lat="45.24337" lon="4.35188">
        <ele>921</ele>
        <time>2021-04-26T14:13:15Z</time>
      </trkpt>
      <trkpt lat="45.24333" lon="4.35185">
        <ele>921</ele>
        <time>2021-04-26T14:13:16Z</time>
      </trkpt>
      <trkpt lat="45.24329" lon="4.35182">
        <ele>922</ele>
        <time>2021-04-26T14:13:17Z</time>
      </trkpt>
      <trkpt lat="45.24326" lon="4.35179">
        <ele>922</ele>
        <time>2021-04-26T14:13:18Z</time>
      </trkpt>
      <trkpt lat="45.24322" lon="4.35175">
        <ele>922</ele>
        <time>2021-04-26T14:13:19Z</time>
      </trkpt>
      <trkpt lat="45.24317" lon="4.35172">
        <ele>922</ele>
        <time>2021-04-26T14:13:20Z</time>
      </trkpt>
      <trkpt lat="45.24313" lon="4.35169">
        <ele>922</ele>
        <time>2021-04-26T14:13:21Z</time>
      </trkpt>
      <trkpt lat="45.24309" lon="4.35165">
        <ele>922</ele>
        <time>2021-04-26T14:13:22Z</time>
      </trkpt>
      <trkpt lat="45.24304" lon="4.35163">
        <ele>922</ele>
        <time>2021-04-26T14:13:23Z</time>
      </trkpt>
      <trkpt lat="45.24299" lon="4.3516">
        <ele>922</ele>
        <time>2021-04-26T14:13:24Z</time>
      </trkpt>
      <trkpt lat="45.24294" lon="4.35158">
        <ele>922</ele>
        <time>2021-04-26T14:13:25Z</time>
      </trkpt>
      <trkpt lat="45.24289" lon="4.35155">
        <ele>922</ele>
        <time>2021-04-26T14:13:26Z</time>
      </trkpt>
      <trkpt lat="45.24284" lon="4.35152">
        <ele>923</ele>
        <time>2021-04-26T14:13:27Z</time>
      </trkpt>
      <trkpt lat="45.24279" lon="4.35149">
        <ele>923</ele>
        <time>2021-04-26T14:13:28Z</time>
      </trkpt>
      <trkpt lat="45.24274" lon="4.35145">
        <ele>923</ele>
        <time>2021-04-26T14:13:29Z</time>
      </trkpt>
      <trkpt lat="45.2427" lon="4.35141">
        <ele>923</ele>
        <time>2021-04-26T14:13:30Z</time>
      </trkpt>
      <trkpt lat="45.24265" lon="4.35137">
        <ele>923</ele>
        <time>2021-04-26T14:13:31Z</time>
      </trkpt>
      <trkpt lat="45.24261" lon="4.35132">
        <ele>923</ele>
        <time>2021-04-26T14:13:32Z</time>
      </trkpt>
      <trkpt lat="45.24257" lon="4.35127">
        <ele>923</ele>
        <time>2021-04-26T14:13:33Z</time>
      </trkpt>
      <trkpt lat="45.24253" lon="4.35122">
        <ele>922</ele>
        <time>2021-04-26T14:13:34Z</time>
      </trkpt>
      <trkpt lat="45.24249" lon="4.35118">
        <ele>922</ele>
        <time>2021-04-26T14:13:35Z</time>
      </trkpt>
      <trkpt lat="45.24245" lon="4.35114">
        <ele>922</ele>
        <time>2021-04-26T14:13:36Z</time>
      </trkpt>
      <trkpt lat="45.2424" lon="4.35111">
        <ele>922</ele>
        <time>2021-04-26T14:13:37Z</time>
      </trkpt>
      <trkpt lat="45.24234" lon="4.35109">
        <ele>921</ele>
        <time>2021-04-26T14:13:38Z</time>
      </trkpt>
      <trkpt lat="45.24228" lon="4.35108">
        <ele>921</ele>
        <time>2021-04-26T14:13:39Z</time>
      </trkpt>
      <trkpt lat="45.24222" lon="4.35108">
        <ele>921</ele>
        <time>2021-04-26T14:13:40Z</time>
      </trkpt>
      <trkpt lat="45.24216" lon="4.3511">
        <ele>921</ele>
        <time>2021-04-26T14:13:41Z</time>
      </trkpt>
      <trkpt lat="45.24212" lon="4.35114">
        <ele>921</ele>
        <time>2021-04-26T14:13:42Z</time>
      </trkpt>
      <trkpt lat="45.24208" lon="4.3512">
        <ele>920</ele>
        <time>2021-04-26T14:13:43Z</time>
      </trkpt>
      <trkpt lat="45.24204" lon="4.35126">
        <ele>920</ele>
        <time>2021-04-26T14:13:44Z</time>
      </trkpt>
      <trkpt lat="45.242" lon="4.35132">
        <ele>920</ele>
        <time>2021-04-26T14:13:45Z</time>
      </trkpt>
      <trkpt lat="45.24197" lon="4.35138">
        <ele>920</ele>
        <time>2021-04-26T14:13:46Z</time>
      </trkpt>
      <trkpt lat="45.24193" lon="4.35144">
        <ele>920</ele>
        <time>2021-04-26T14:13:47Z</time>
      </trkpt>
      <trkpt lat="45.2419" lon="4.3515">
        <ele>920</ele>
        <time>2021-04-26T14:13:48Z</time>
      </trkpt>
      <trkpt lat="45.24187" lon="4.35155">
        <ele>920</ele>
        <time>2021-04-26T14:13:49Z</time>
      </trkpt>
      <trkpt lat="45.24183" lon="4.3516">
        <ele>920</ele>
        <time>2021-04-26T14:13:50Z</time>
      </trkpt>
      <trkpt lat="45.2418" lon="4.35166">
        <ele>920</ele>
        <time>2021-04-26T14:13:51Z</time>
      </trkpt>
      <trkpt lat="45.24177" lon="4.35172">
        <ele>920</ele>
        <time>2021-04-26T14:13:52Z</time>
      </trkpt>
      <trkpt lat="45.24173" lon="4.35177">
        <ele>920</ele>
        <time>2021-04-26T14:13:53Z</time>
      </trkpt>
      <trkpt lat="45.2417" lon="4.35183">
        <ele>920</ele>
        <time>2021-04-26T14:13:54Z</time>
      </trkpt>
      <trkpt lat="45.24166" lon="4.35188">
        <ele>920</ele>
        <time>2021-04-26T14:13:55Z</time>
      </trkpt>
      <trkpt lat="45.24162" lon="4.35192">
        <ele>920</ele>
        <time>2021-04-26T14:13:56Z</time>
      </trkpt>
      <trkpt lat="45.24158" lon="4.35196">
        <ele>920</ele>
        <time>2021-04-26T14:13:57Z</time>
      </trkpt>
      <trkpt lat="45.24154" lon="4.352">
        <ele>920</ele>
        <time>2021-04-26T14:13:58Z</time>
      </trkpt>
      <trkpt lat="45.2415" lon="4.35203">
        <ele>920</ele>
        <time>2021-04-26T14:13:59Z</time>
      </trkpt>
      <trkpt lat="45.24146" lon="4.35205">
        <ele>920</ele>
        <time>2021-04-26T14:14:00Z</time>
      </trkpt>
      <trkpt lat="45.24142" lon="4.35207">
        <ele>920</ele>
        <time>2021-04-26T14:14:01Z</time>
      </trkpt>
      <trkpt lat="45.24138" lon="4.35209">
        <ele>920</ele>
        <time>2021-04-26T14:14:02Z</time>
      </trkpt>
      <trkpt lat="45.24134" lon="4.35211">
        <ele>921</ele>
        <time>2021-04-26T14:14:03Z</time>
      </trkpt>
      <trkpt lat="45.2413" lon="4.35213">
        <ele>921</ele>
        <time>2021-04-26T14:14:04Z</time>
      </trkpt>
      <trkpt lat="45.24126" lon="4.35214">
        <ele>921</ele>
        <time>2021-04-26T14:14:05Z</time>
      </trkpt>
      <trkpt lat="45.24122" lon="4.35216">
        <ele>921</ele>
        <time>2021-04-26T14:14:06Z</time>
      </trkpt>
      <trkpt lat="45.24118" lon="4.35217">
        <ele>921</ele>
        <time>2021-04-26T14:14:07Z</time>
      </trkpt>
      <trkpt lat="45.24115" lon="4.35219">
        <ele>921</ele>
        <time>2021-04-26T14:14:08Z</time>
      </trkpt>
      <trkpt lat="45.24111" lon="4.3522">
        <ele>921</ele>
        <time>2021-04-26T14:14:09Z</time>
      </trkpt>
      <trkpt lat="45.24107" lon="4.35221">
        <ele>921</ele>
        <time>2021-04-26T14:14:10Z</time>
      </trkpt>
      <trkpt lat="45.24103" lon="4.35222">
        <ele>922</ele>
        <time>2021-04-26T14:14:11Z</time>
      </trkpt>
      <trkpt lat="45.241" lon="4.35223">
        <ele>922</ele>
        <time>2021-04-26T14:14:12Z</time>
      </trkpt>
      <trkpt lat="45.24096" lon="4.35223">
        <ele>922</ele>
        <time>2021-04-26T14:14:13Z</time>
      </trkpt>
      <trkpt lat="45.24093" lon="4.35224">
        <ele>922</ele>
        <time>2021-04-26T14:14:14Z</time>
      </trkpt>
      <trkpt lat="45.24089" lon="4.35224">
        <ele>922</ele>
        <time>2021-04-26T14:14:15Z</time>
      </trkpt>
      <trkpt lat="45.24086" lon="4.35224">
        <ele>922</ele>
        <time>2021-04-26T14:14:16Z</time>
      </trkpt>
      <trkpt lat="45.24082" lon="4.35224">
        <ele>923</ele>
        <time>2021-04-26T14:14:17Z</time>
      </trkpt>
      <trkpt lat="45.24079" lon="4.35225">
        <ele>923</ele>
        <time>2021-04-26T14:14:18Z</time>
      </trkpt>
      <trkpt lat="45.24075" lon="4.35225">
        <ele>923</ele>
        <time>2021-04-26T14:14:19Z</time>
      </trkpt>
      <trkpt lat="45.24071" lon="4.35225">
        <ele>923</ele>
        <time>2021-04-26T14:14:20Z</time>
      </trkpt>
      <trkpt lat="45.24068" lon="4.35224">
        <ele>923</ele>
        <time>2021-04-26T14:14:21Z</time>
      </trkpt>
      <trkpt lat="45.24064" lon="4.35224">
        <ele>923</ele>
        <time>2021-04-26T14:14:22Z</time>
      </trkpt>
      <trkpt lat="45.2406" lon="4.35224">
        <ele>923</ele>
        <time>2021-04-26T14:14:23Z</time>
      </trkpt>
      <trkpt lat="45.24056" lon="4.35223">
        <ele>923</ele>
        <time>2021-04-26T14:14:24Z</time>
      </trkpt>
      <trkpt lat="45.24052" lon="4.35223">
        <ele>924</ele>
        <time>2021-04-26T14:14:25Z</time>
      </trkpt>
      <trkpt lat="45.24048" lon="4.35222">
        <ele>924</ele>
        <time>2021-04-26T14:14:26Z</time>
      </trkpt>
      <trkpt lat="45.24043" lon="4.3522">
        <ele>924</ele>
        <time>2021-04-26T14:14:27Z</time>
      </trkpt>
      <trkpt lat="45.24039" lon="4.35219">
        <ele>924</ele>
        <time>2021-04-26T14:14:28Z</time>
      </trkpt>
      <trkpt lat="45.24035" lon="4.35217">
        <ele>924</ele>
        <time>2021-04-26T14:14:29Z</time>
      </trkpt>
      <trkpt lat="45.24031" lon="4.35215">
        <ele>924</ele>
        <time>2021-04-26T14:14:30Z</time>
      </trkpt>
      <trkpt lat="45.24027" lon="4.35213">
        <ele>924</ele>
        <time>2021-04-26T14:14:31Z</time>
      </trkpt>
      <trkpt lat="45.24023" lon="4.35211">
        <ele>924</ele>
        <time>2021-04-26T14:14:32Z</time>
      </trkpt>
      <trkpt lat="45.24019" lon="4.35209">
        <ele>924</ele>
        <time>2021-04-26T14:14:33Z</time>
      </trkpt>
      <trkpt lat="45.24015" lon="4.35206">
        <ele>924</ele>
        <time>2021-04-26T14:14:34Z</time>
      </trkpt>
      <trkpt lat="45.24011" lon="4.35204">
        <ele>924</ele>
        <time>2021-04-26T14:14:35Z</time>
      </trkpt>
      <trkpt lat="45.24007" lon="4.35201">
        <ele>924</ele>
        <time>2021-04-26T14:14:36Z</time>
      </trkpt>
      <trkpt lat="45.24002" lon="4.35198">
        <ele>924</ele>
        <time>2021-04-26T14:14:37Z</time>
      </trkpt>
      <trkpt lat="45.23998" lon="4.35196">
        <ele>924</ele>
        <time>2021-04-26T14:14:38Z</time>
      </trkpt>
      <trkpt lat="45.23993" lon="4.35194">
        <ele>924</ele>
        <time>2021-04-26T14:14:39Z</time>
      </trkpt>
      <trkpt lat="45.23989" lon="4.35192">
        <ele>924</ele>
        <time>2021-04-26T14:14:40Z</time>
      </trkpt>
      <trkpt lat="45.23984" lon="4.3519">
        <ele>924</ele>
        <time>2021-04-26T14:14:41Z</time>
      </trkpt>
      <trkpt lat="45.23979" lon="4.35189">
        <ele>924</ele>
        <time>2021-04-26T14:14:42Z</time>
      </trkpt>
      <trkpt lat="45.23974" lon="4.35189">
        <ele>924</ele>
        <time>2021-04-26T14:14:43Z</time>
      </trkpt>
      <trkpt lat="45.23968" lon="4.35188">
        <ele>924</ele>
        <time>2021-04-26T14:14:44Z</time>
      </trkpt>
      <trkpt lat="45.23963" lon="4.35188">
        <ele>924</ele>
        <time>2021-04-26T14:14:45Z</time>
      </trkpt>
      <trkpt lat="45.23957" lon="4.35188">
        <ele>924</ele>
        <time>2021-04-26T14:14:46Z</time>
      </trkpt>
      <trkpt lat="45.23952" lon="4.35188">
        <ele>923</ele>
        <time>2021-04-26T14:14:47Z</time>
      </trkpt>
      <trkpt lat="45.23947" lon="4.35188">
        <ele>923</ele>
        <time>2021-04-26T14:14:48Z</time>
      </trkpt>
      <trkpt lat="45.23943" lon="4.35188">
        <ele>923</ele>
        <time>2021-04-26T14:14:49Z</time>
      </trkpt>
      <trkpt lat="45.2394" lon="4.35189">
        <ele>923</ele>
        <time>2021-04-26T14:14:50Z</time>
      </trkpt>
      <trkpt lat="45.23937" lon="4.35193">
        <ele>923</ele>
        <time>2021-04-26T14:14:51Z</time>
      </trkpt>
      <trkpt lat="45.23936" lon="4.35198">
        <ele>923</ele>
        <time>2021-04-26T14:14:52Z</time>
      </trkpt>
      <trkpt lat="45.23937" lon="4.35205">
        <ele>923</ele>
        <time>2021-04-26T14:14:53Z</time>
      </trkpt>
      <trkpt lat="45.23938" lon="4.35211">
        <ele>923</ele>
        <time>2021-04-26T14:14:54Z</time>
      </trkpt>
      <trkpt lat="45.23939" lon="4.35218">
        <ele>924</ele>
        <time>2021-04-26T14:14:55Z</time>
      </trkpt>
      <trkpt lat="45.2394" lon="4.35224">
        <ele>924</ele>
        <time>2021-04-26T14:14:56Z</time>
      </trkpt>
      <trkpt lat="45.23941" lon="4.3523">
        <ele>924</ele>
        <time>2021-04-26T14:14:57Z</time>
      </trkpt>
      <trkpt lat="45.23941" lon="4.35236">
        <ele>924</ele>
        <time>2021-04-26T14:14:58Z</time>
      </trkpt>
      <trkpt lat="45.23942" lon="4.35242">
        <ele>924</ele>
        <time>2021-04-26T14:14:59Z</time>
      </trkpt>
      <trkpt lat="45.23942" lon="4.35248">
        <ele>924</ele>
        <time>2021-04-26T14:15:00Z</time>
      </trkpt>
      <trkpt lat="45.23942" lon="4.35254">
        <ele>924</ele>
        <time>2021-04-26T14:15:01Z</time>
      </trkpt>
      <trkpt lat="45.23942" lon="4.35259">
        <ele>924</ele>
        <time>2021-04-26T14:15:02Z</time>
      </trkpt>
      <trkpt lat="45.23942" lon="4.35265">
        <ele>924</ele>
        <time>2021-04-26T14:15:03Z</time>
      </trkpt>
      <trkpt lat="45.23942" lon="4.3527">
        <ele>924</ele>
        <time>2021-04-26T14:15:04Z</time>
      </trkpt>
      <trkpt lat="45.23941" lon="4.35276">
        <ele>924</ele>
        <time>2021-04-26T14:15:05Z</time>
      </trkpt>
      <trkpt lat="45.23941" lon="4.35281">
        <ele>924</ele>
        <time>2021-04-26T14:15:06Z</time>
      </trkpt>
      <trkpt lat="45.2394" lon="4.35287">
        <ele>924</ele>
        <time>2021-04-26T14:15:07Z</time>
      </trkpt>
      <trkpt lat="45.23939" lon="4.35292">
        <ele>923</ele>
        <time>2021-04-26T14:15:08Z</time>
      </trkpt>
      <trkpt lat="45.2394" lon="4.35298">
        <ele>923</ele>
        <time>2021-04-26T14:15:09Z</time>
      </trkpt>
      <trkpt lat="45.23942" lon="4.35303">
        <ele>923</ele>
        <time>2021-04-26T14:15:10Z</time>
      </trkpt>
      <trkpt lat="45.23944" lon="4.35308">
        <ele>923</ele>
        <time>2021-04-26T14:15:11Z</time>
      </trkpt>
      <trkpt lat="45.23948" lon="4.35313">
        <ele>923</ele>
        <time>2021-04-26T14:15:12Z</time>
      </trkpt>
      <trkpt lat="45.23952" lon="4.35317">
        <ele>922</ele>
        <time>2021-04-26T14:15:13Z</time>
      </trkpt>
      <trkpt lat="45.23956" lon="4.35322">
        <ele>922</ele>
        <time>2021-04-26T14:15:14Z</time>
      </trkpt>
      <trkpt lat="45.2396" lon="4.35327">
        <ele>922</ele>
        <time>2021-04-26T14:15:15Z</time>
      </trkpt>
      <trkpt lat="45.23965" lon="4.35331">
        <ele>922</ele>
        <time>2021-04-26T14:15:16Z</time>
      </trkpt>
      <trkpt lat="45.2397" lon="4.35336">
        <ele>921</ele>
        <time>2021-04-26T14:15:17Z</time>
      </trkpt>
      <trkpt lat="45.23976" lon="4.3534">
        <ele>921</ele>
        <time>2021-04-26T14:15:18Z</time>
      </trkpt>
      <trkpt lat="45.23982" lon="4.35344">
        <ele>921</ele>
        <time>2021-04-26T14:15:19Z</time>
      </trkpt>
      <trkpt lat="45.23988" lon="4.35347">
        <ele>921</ele>
        <time>2021-04-26T14:15:20Z</time>
      </trkpt>
      <trkpt lat="45.23996" lon="4.35349">
        <ele>921</ele>
        <time>2021-04-26T14:15:21Z</time>
      </trkpt>
      <trkpt lat="45.24003" lon="4.35351">
        <ele>921</ele>
        <time>2021-04-26T14:15:22Z</time>
      </trkpt>
      <trkpt lat="45.24011" lon="4.35353">
        <ele>920</ele>
        <time>2021-04-26T14:15:23Z</time>
      </trkpt>
      <trkpt lat="45.24018" lon="4.35354">
        <ele>920</ele>
        <time>2021-04-26T14:15:24Z</time>
      </trkpt>
      <trkpt lat="45.24025" lon="4.35354">
        <ele>920</ele>
        <time>2021-04-26T14:15:25Z</time>
      </trkpt>
      <trkpt lat="45.24032" lon="4.35354">
        <ele>920</ele>
        <time>2021-04-26T14:15:26Z</time>
      </trkpt>
      <trkpt lat="45.24039" lon="4.35353">
        <ele>919</ele>
        <time>2021-04-26T14:15:27Z</time>
      </trkpt>
      <trkpt lat="45.24045" lon="4.35353">
        <ele>919</ele>
        <time>2021-04-26T14:15:28Z</time>
      </trkpt>
      <trkpt lat="45.2405" lon="4.35355">
        <ele>919</ele>
        <time>2021-04-26T14:15:29Z</time>
      </trkpt>
      <trkpt lat="45.24054" lon="4.35357">
        <ele>918</ele>
        <time>2021-04-26T14:15:30Z</time>
      </trkpt>
      <trkpt lat="45.24058" lon="4.35362">
        <ele>918</ele>
        <time>2021-04-26T14:15:31Z</time>
      </trkpt>
      <trkpt lat="45.24062" lon="4.35369">
        <ele>918</ele>
        <time>2021-04-26T14:15:32Z</time>
      </trkpt>
      <trkpt lat="45.24065" lon="4.35375">
        <ele>917</ele>
        <time>2021-04-26T14:15:33Z</time>
      </trkpt>
      <trkpt lat="45.24069" lon="4.35383">
        <ele>917</ele>
        <time>2021-04-26T14:15:34Z</time>
      </trkpt>
      <trkpt lat="45.24073" lon="4.3539">
        <ele>916</ele>
        <time>2021-04-26T14:15:35Z</time>
      </trkpt>
      <trkpt lat="45.24078" lon="4.35397">
        <ele>916</ele>
        <time>2021-04-26T14:15:36Z</time>
      </trkpt>
      <trkpt lat="45.24084" lon="4.35402">
        <ele>915</ele>
        <time>2021-04-26T14:15:37Z</time>
      </trkpt>
      <trkpt lat="45.2409" lon="4.35405">
        <ele>915</ele>
        <time>2021-04-26T14:15:38Z</time>
      </trkpt>
      <trkpt lat="45.24097" lon="4.35407">
        <ele>914</ele>
        <time>2021-04-26T14:15:39Z</time>
      </trkpt>
      <trkpt lat="45.24104" lon="4.35408">
        <ele>914</ele>
        <time>2021-04-26T14:15:40Z</time>
      </trkpt>
      <trkpt lat="45.24111" lon="4.35409">
        <ele>914</ele>
        <time>2021-04-26T14:15:41Z</time>
      </trkpt>
      <trkpt lat="45.24117" lon="4.35411">
        <ele>914</ele>
        <time>2021-04-26T14:15:42Z</time>
      </trkpt>
      <trkpt lat="45.24123" lon="4.35414">
        <ele>912</ele>
        <time>2021-04-26T14:15:43Z</time>
      </trkpt>
      <trkpt lat="45.24129" lon="4.35419">
        <ele>911</ele>
        <time>2021-04-26T14:15:44Z</time>
      </trkpt>
      <trkpt lat="45.24134" lon="4.35424">
        <ele>911</ele>
        <time>2021-04-26T14:15:45Z</time>
      </trkpt>
      <trkpt lat="45.2414" lon="4.3543">
        <ele>910</ele>
        <time>2021-04-26T14:15:46Z</time>
      </trkpt>
      <trkpt lat="45.24145" lon="4.35436">
        <ele>908</ele>
        <time>2021-04-26T14:15:47Z</time>
      </trkpt>
      <trkpt lat="45.24151" lon="4.35442">
        <ele>907</ele>
        <time>2021-04-26T14:15:48Z</time>
      </trkpt>
      <trkpt lat="45.24156" lon="4.35447">
        <ele>907</ele>
        <time>2021-04-26T14:15:49Z</time>
      </trkpt>
      <trkpt lat="45.24162" lon="4.35453">
        <ele>905</ele>
        <time>2021-04-26T14:15:50Z</time>
      </trkpt>
      <trkpt lat="45.24167" lon="4.35458">
        <ele>904</ele>
        <time>2021-04-26T14:15:51Z</time>
      </trkpt>
      <trkpt lat="45.24173" lon="4.35463">
        <ele>903</ele>
        <time>2021-04-26T14:15:52Z</time>
      </trkpt>
      <trkpt lat="45.24179" lon="4.35466">
        <ele>902</ele>
        <time>2021-04-26T14:15:53Z</time>
      </trkpt>
      <trkpt lat="45.24186" lon="4.35468">
        <ele>901</ele>
        <time>2021-04-26T14:15:54Z</time>
      </trkpt>
      <trkpt lat="45.24193" lon="4.35468">
        <ele>900</ele>
        <time>2021-04-26T14:15:55Z</time>
      </trkpt>
      <trkpt lat="45.24199" lon="4.35466">
        <ele>899</ele>
        <time>2021-04-26T14:15:56Z</time>
      </trkpt>
      <trkpt lat="45.24205" lon="4.35463">
        <ele>899</ele>
        <time>2021-04-26T14:15:57Z</time>
      </trkpt>
      <trkpt lat="45.2421" lon="4.35457">
        <ele>898</ele>
        <time>2021-04-26T14:15:58Z</time>
      </trkpt>
      <trkpt lat="45.24215" lon="4.35449">
        <ele>897</ele>
        <time>2021-04-26T14:15:59Z</time>
      </trkpt>
      <trkpt lat="45.2422" lon="4.35442">
        <ele>896</ele>
        <time>2021-04-26T14:16:00Z</time>
      </trkpt>
      <trkpt lat="45.24225" lon="4.35434">
        <ele>896</ele>
        <time>2021-04-26T14:16:01Z</time>
      </trkpt>
      <trkpt lat="45.2423" lon="4.35427">
        <ele>895</ele>
        <time>2021-04-26T14:16:02Z</time>
      </trkpt>
      <trkpt lat="45.24235" lon="4.35421">
        <ele>894</ele>
        <time>2021-04-26T14:16:03Z</time>
      </trkpt>
      <trkpt lat="45.24239" lon="4.35416">
        <ele>894</ele>
        <time>2021-04-26T14:16:04Z</time>
      </trkpt>
      <trkpt lat="45.24245" lon="4.35415">
        <ele>893</ele>
        <time>2021-04-26T14:16:05Z</time>
      </trkpt>
      <trkpt lat="45.2425" lon="4.35417">
        <ele>893</ele>
        <time>2021-04-26T14:16:06Z</time>
      </trkpt>
      <trkpt lat="45.24254" lon="4.35423">
        <ele>892</ele>
        <time>2021-04-26T14:16:07Z</time>
      </trkpt>
      <trkpt lat="45.24258" lon="4.3543">
        <ele>892</ele>
        <time>2021-04-26T14:16:08Z</time>
      </trkpt>
      <trkpt lat="45.2426" lon="4.35439">
        <ele>891</ele>
        <time>2021-04-26T14:16:09Z</time>
      </trkpt>
      <trkpt lat="45.24263" lon="4.35447">
        <ele>891</ele>
        <time>2021-04-26T14:16:10Z</time>
      </trkpt>
      <trkpt lat="45.24265" lon="4.35455">
        <ele>890</ele>
        <time>2021-04-26T14:16:11Z</time>
      </trkpt>
      <trkpt lat="45.24267" lon="4.35464">
        <ele>890</ele>
        <time>2021-04-26T14:16:12Z</time>
      </trkpt>
      <trkpt lat="45.24268" lon="4.35473">
        <ele>889</ele>
        <time>2021-04-26T14:16:13Z</time>
      </trkpt>
      <trkpt lat="45.24269" lon="4.35483">
        <ele>889</ele>
        <time>2021-04-26T14:16:14Z</time>
      </trkpt>
      <trkpt lat="45.24269" lon="4.35492">
        <ele>888</ele>
        <time>2021-04-26T14:16:15Z</time>
      </trkpt>
      <trkpt lat="45.2427" lon="4.35501">
        <ele>888</ele>
        <time>2021-04-26T14:16:16Z</time>
      </trkpt>
      <trkpt lat="45.24271" lon="4.3551">
        <ele>887</ele>
        <time>2021-04-26T14:16:17Z</time>
      </trkpt>
      <trkpt lat="45.24273" lon="4.35517">
        <ele>887</ele>
        <time>2021-04-26T14:16:18Z</time>
      </trkpt>
      <trkpt lat="45.24275" lon="4.35524">
        <ele>886</ele>
        <time>2021-04-26T14:16:19Z</time>
      </trkpt>
      <trkpt lat="45.24278" lon="4.35531">
        <ele>886</ele>
        <time>2021-04-26T14:16:20Z</time>
      </trkpt>
      <trkpt lat="45.24281" lon="4.35539">
        <ele>885</ele>
        <time>2021-04-26T14:16:21Z</time>
      </trkpt>
      <trkpt lat="45.24284" lon="4.35546">
        <ele>885</ele>
        <time>2021-04-26T14:16:22Z</time>
      </trkpt>
      <trkpt lat="45.24287" lon="4.35553">
        <ele>885</ele>
        <time>2021-04-26T14:16:23Z</time>
      </trkpt>
      <trkpt lat="45.24288" lon="4.3556">
        <ele>884</ele>
        <time>2021-04-26T14:16:24Z</time>
      </trkpt>
      <trkpt lat="45.24288" lon="4.35566">
        <ele>884</ele>
        <time>2021-04-26T14:16:25Z</time>
      </trkpt>
      <trkpt lat="45.24285" lon="4.35571">
        <ele>884</ele>
        <time>2021-04-26T14:16:26Z</time>
      </trkpt>
      <trkpt lat="45.24281" lon="4.35572">
        <ele>883</ele>
        <time>2021-04-26T14:16:27Z</time>
      </trkpt>
      <trkpt lat="45.24276" lon="4.35571">
        <ele>883</ele>
        <time>2021-04-26T14:16:28Z</time>
      </trkpt>
      <trkpt lat="45.24272" lon="4.3557">
        <ele>883</ele>
        <time>2021-04-26T14:16:29Z</time>
      </trkpt>
      <trkpt lat="45.24268" lon="4.35571">
        <ele>883</ele>
        <time>2021-04-26T14:16:30Z</time>
      </trkpt>
      <trkpt lat="45.24264" lon="4.35574">
        <ele>883</ele>
        <time>2021-04-26T14:16:31Z</time>
      </trkpt>
      <trkpt lat="45.24261" lon="4.35579">
        <ele>883</ele>
        <time>2021-04-26T14:16:32Z</time>
      </trkpt>
      <trkpt lat="45.24259" lon="4.35584">
        <ele>882</ele>
        <time>2021-04-26T14:16:33Z</time>
      </trkpt>
      <trkpt lat="45.24258" lon="4.3559">
        <ele>882</ele>
        <time>2021-04-26T14:16:34Z</time>
      </trkpt>
      <trkpt lat="45.24257" lon="4.35596">
        <ele>882</ele>
        <time>2021-04-26T14:16:35Z</time>
      </trkpt>
      <trkpt lat="45.24256" lon="4.35601">
        <ele>882</ele>
        <time>2021-04-26T14:16:36Z</time>
      </trkpt>
      <trkpt lat="45.24254" lon="4.35606">
        <ele>882</ele>
        <time>2021-04-26T14:16:37Z</time>
      </trkpt>
      <trkpt lat="45.24252" lon="4.3561">
        <ele>882</ele>
        <time>2021-04-26T14:16:38Z</time>
      </trkpt>
      <trkpt lat="45.2425" lon="4.35614">
        <ele>882</ele>
        <time>2021-04-26T14:16:39Z</time>
      </trkpt>
      <trkpt lat="45.24248" lon="4.35618">
        <ele>882</ele>
        <time>2021-04-26T14:16:40Z</time>
      </trkpt>
      <trkpt lat="45.24246" lon="4.35621">
        <ele>882</ele>
        <time>2021-04-26T14:16:41Z</time>
      </trkpt>
      <trkpt lat="45.24244" lon="4.35625">
        <ele>882</ele>
        <time>2021-04-26T14:16:42Z</time>
      </trkpt>
      <trkpt lat="45.24242" lon="4.35628">
        <ele>882</ele>
        <time>2021-04-26T14:16:43Z</time>
      </trkpt>
      <trkpt lat="45.2424" lon="4.35631">
        <ele>882</ele>
        <time>2021-04-26T14:16:44Z</time>
      </trkpt>
      <trkpt lat="45.24237" lon="4.35634">
        <ele>882</ele>
        <time>2021-04-26T14:16:45Z</time>
      </trkpt>
      <trkpt lat="45.24235" lon="4.35637">
        <ele>883</ele>
        <time>2021-04-26T14:16:46Z</time>
      </trkpt>
      <trkpt lat="45.24232" lon="4.3564">
        <ele>883</ele>
        <time>2021-04-26T14:16:47Z</time>
      </trkpt>
      <trkpt lat="45.2423" lon="4.35642">
        <ele>883</ele>
        <time>2021-04-26T14:16:48Z</time>
      </trkpt>
      <trkpt lat="45.24227" lon="4.35643">
        <ele>883</ele>
        <time>2021-04-26T14:16:49Z</time>
      </trkpt>
      <trkpt lat="45.24224" lon="4.35644">
        <ele>883</ele>
        <time>2021-04-26T14:16:50Z</time>
      </trkpt>
      <trkpt lat="45.24222" lon="4.35646">
        <ele>883</ele>
        <time>2021-04-26T14:16:51Z</time>
      </trkpt>
      <trkpt lat="45.24219" lon="4.35647">
        <ele>883</ele>
        <time>2021-04-26T14:16:52Z</time>
      </trkpt>
      <trkpt lat="45.24216" lon="4.35649">
        <ele>883</ele>
        <time>2021-04-26T14:16:53Z</time>
      </trkpt>
      <trkpt lat="45.24214" lon="4.3565">
        <ele>883</ele>
        <time>2021-04-26T14:16:54Z</time>
      </trkpt>
      <trkpt lat="45.24212" lon="4.35653">
        <ele>883</ele>
        <time>2021-04-26T14:16:55Z</time>
      </trkpt>
      <trkpt lat="45.24211" lon="4.35656">
        <ele>884</ele>
        <time>2021-04-26T14:16:56Z</time>
      </trkpt>
      <trkpt lat="45.24211" lon="4.3566">
        <ele>884</ele>
        <time>2021-04-26T14:16:57Z</time>
      </trkpt>
      <trkpt lat="45.24213" lon="4.35664">
        <ele>884</ele>
        <time>2021-04-26T14:16:58Z</time>
      </trkpt>
      <trkpt lat="45.24217" lon="4.35666">
        <ele>884</ele>
        <time>2021-04-26T14:16:59Z</time>
      </trkpt>
      <trkpt lat="45.24221" lon="4.35667">
        <ele>884</ele>
        <time>2021-04-26T14:17:00Z</time>
      </trkpt>
      <trkpt lat="45.24225" lon="4.35667">
        <ele>884</ele>
        <time>2021-04-26T14:17:01Z</time>
      </trkpt>
      <trkpt lat="45.24229" lon="4.35667">
        <ele>884</ele>
        <time>2021-04-26T14:17:02Z</time>
      </trkpt>
      <trkpt lat="45.24233" lon="4.35668">
        <ele>884</ele>
        <time>2021-04-26T14:17:03Z</time>
      </trkpt>
      <trkpt lat="45.24236" lon="4.35668">
        <ele>885</ele>
        <time>2021-04-26T14:17:04Z</time>
      </trkpt>
      <trkpt lat="45.2424" lon="4.35668">
        <ele>885</ele>
        <time>2021-04-26T14:17:05Z</time>
      </trkpt>
      <trkpt lat="45.24244" lon="4.35669">
        <ele>885</ele>
        <time>2021-04-26T14:17:06Z</time>
      </trkpt>
      <trkpt lat="45.24247" lon="4.35669">
        <ele>886</ele>
        <time>2021-04-26T14:17:07Z</time>
      </trkpt>
      <trkpt lat="45.24251" lon="4.3567">
        <ele>886</ele>
        <time>2021-04-26T14:17:08Z</time>
      </trkpt>
      <trkpt lat="45.24255" lon="4.35671">
        <ele>886</ele>
        <time>2021-04-26T14:17:09Z</time>
      </trkpt>
      <trkpt lat="45.24259" lon="4.35672">
        <ele>886</ele>
        <time>2021-04-26T14:17:10Z</time>
      </trkpt>
      <trkpt lat="45.24262" lon="4.35674">
        <ele>887</ele>
        <time>2021-04-26T14:17:11Z</time>
      </trkpt>
      <trkpt lat="45.24266" lon="4.35675">
        <ele>887</ele>
        <time>2021-04-26T14:17:12Z</time>
      </trkpt>
      <trkpt lat="45.2427" lon="4.35677">
        <ele>887</ele>
        <time>2021-04-26T14:17:13Z</time>
      </trkpt>
      <trkpt lat="45.24273" lon="4.35678">
        <ele>887</ele>
        <time>2021-04-26T14:17:14Z</time>
      </trkpt>
      <trkpt lat="45.24277" lon="4.3568">
        <ele>888</ele>
        <time>2021-04-26T14:17:15Z</time>
      </trkpt>
      <trkpt lat="45.24281" lon="4.35683">
        <ele>888</ele>
        <time>2021-04-26T14:17:16Z</time>
      </trkpt>
      <trkpt lat="45.24284" lon="4.35685">
        <ele>888</ele>
        <time>2021-04-26T14:17:17Z</time>
      </trkpt>
      <trkpt lat="45.24288" lon="4.35687">
        <ele>888</ele>
        <time>2021-04-26T14:17:18Z</time>
      </trkpt>
      <trkpt lat="45.24291" lon="4.3569">
        <ele>888</ele>
        <time>2021-04-26T14:17:19Z</time>
      </trkpt>
      <trkpt lat="45.24295" lon="4.35693">
        <ele>888</ele>
        <time>2021-04-26T14:17:20Z</time>
      </trkpt>
      <trkpt lat="45.24298" lon="4.35696">
        <ele>889</ele>
        <time>2021-04-26T14:17:21Z</time>
      </trkpt>
      <trkpt lat="45.24301" lon="4.35699">
        <ele>889</ele>
        <time>2021-04-26T14:17:22Z</time>
      </trkpt>
      <trkpt lat="45.24304" lon="4.35702">
        <ele>889</ele>
        <time>2021-04-26T14:17:23Z</time>
      </trkpt>
      <trkpt lat="45.24308" lon="4.35706">
        <ele>889</ele>
        <time>2021-04-26T14:17:24Z</time>
      </trkpt>
      <trkpt lat="45.24311" lon="4.35709">
        <ele>890</ele>
        <time>2021-04-26T14:17:25Z</time>
      </trkpt>
      <trkpt lat="45.24314" lon="4.35712">
        <ele>890</ele>
        <time>2021-04-26T14:17:26Z</time>
      </trkpt>
      <trkpt lat="45.24317" lon="4.35716">
        <ele>890</ele>
        <time>2021-04-26T14:17:27Z</time>
      </trkpt>
      <trkpt lat="45.2432" lon="4.35719">
        <ele>890</ele>
        <time>2021-04-26T14:17:28Z</time>
      </trkpt>
      <trkpt lat="45.24323" lon="4.35722">
        <ele>890</ele>
        <time>2021-04-26T14:17:29Z</time>
      </trkpt>
      <trkpt lat="45.24325" lon="4.35726">
        <ele>891</ele>
        <time>2021-04-26T14:17:30Z</time>
      </trkpt>
      <trkpt lat="45.24328" lon="4.35729">
        <ele>891</ele>
        <time>2021-04-26T14:17:31Z</time>
      </trkpt>
      <trkpt lat="45.2433" lon="4.35732">
        <ele>891</ele>
        <time>2021-04-26T14:17:32Z</time>
      </trkpt>
      <trkpt lat="45.24332" lon="4.35735">
        <ele>891</ele>
        <time>2021-04-26T14:17:33Z</time>
      </trkpt>
      <trkpt lat="45.24334" lon="4.35738">
        <ele>892</ele>
        <time>2021-04-26T14:17:34Z</time>
      </trkpt>
      <trkpt lat="45.24334" lon="4.35742">
        <ele>892</ele>
        <time>2021-04-26T14:17:35Z</time>
      </trkpt>
      <trkpt lat="45.24332" lon="4.35744">
        <ele>892</ele>
        <time>2021-04-26T14:17:36Z</time>
      </trkpt>
      <trkpt lat="45.2433" lon="4.35745">
        <ele>892</ele>
        <time>2021-04-26T14:17:37Z</time>
      </trkpt>
      <trkpt lat="45.24327" lon="4.35746">
        <ele>893</ele>
        <time>2021-04-26T14:17:38Z</time>
      </trkpt>
      <trkpt lat="45.24324" lon="4.35746">
        <ele>893</ele>
        <time>2021-04-26T14:17:39Z</time>
      </trkpt>
      <trkpt lat="45.2432" lon="4.35746">
        <ele>893</ele>
        <time>2021-04-26T14:17:40Z</time>
      </trkpt>
      <trkpt lat="45.24317" lon="4.35747">
        <ele>893</ele>
        <time>2021-04-26T14:17:41Z</time>
      </trkpt>
      <trkpt lat="45.24314" lon="4.35747">
        <ele>893</ele>
        <time>2021-04-26T14:17:42Z</time>
      </trkpt>
      <trkpt lat="45.24311" lon="4.35748">
        <ele>894</ele>
        <time>2021-04-26T14:17:43Z</time>
      </trkpt>
      <trkpt lat="45.24307" lon="4.35749">
        <ele>894</ele>
        <time>2021-04-26T14:17:44Z</time>
      </trkpt>
      <trkpt lat="45.24304" lon="4.3575">
        <ele>894</ele>
        <time>2021-04-26T14:17:45Z</time>
      </trkpt>
      <trkpt lat="45.24301" lon="4.35751">
        <ele>895</ele>
        <time>2021-04-26T14:17:46Z</time>
      </trkpt>
      <trkpt lat="45.24297" lon="4.35752">
        <ele>895</ele>
        <time>2021-04-26T14:17:47Z</time>
      </trkpt>
      <trkpt lat="45.24294" lon="4.35753">
        <ele>895</ele>
        <time>2021-04-26T14:17:48Z</time>
      </trkpt>
      <trkpt lat="45.2429" lon="4.35754">
        <ele>896</ele>
        <time>2021-04-26T14:17:49Z</time>
      </trkpt>
      <trkpt lat="45.24286" lon="4.35756">
        <ele>896</ele>
        <time>2021-04-26T14:17:50Z</time>
      </trkpt>
      <trkpt lat="45.24283" lon="4.35757">
        <ele>896</ele>
        <time>2021-04-26T14:17:51Z</time>
      </trkpt>
      <trkpt lat="45.24279" lon="4.35759">
        <ele>896</ele>
        <time>2021-04-26T14:17:52Z</time>
      </trkpt>
      <trkpt lat="45.24275" lon="4.35761">
        <ele>897</ele>
        <time>2021-04-26T14:17:53Z</time>
      </trkpt>
      <trkpt lat="45.24272" lon="4.35764">
        <ele>897</ele>
        <time>2021-04-26T14:17:54Z</time>
      </trkpt>
      <trkpt lat="45.24269" lon="4.35767">
        <ele>897</ele>
        <time>2021-04-26T14:17:55Z</time>
      </trkpt>
      <trkpt lat="45.24266" lon="4.35771">
        <ele>898</ele>
        <time>2021-04-26T14:17:56Z</time>
      </trkpt>
      <trkpt lat="45.24264" lon="4.35775">
        <ele>898</ele>
        <time>2021-04-26T14:17:57Z</time>
      </trkpt>
      <trkpt lat="45.24263" lon="4.3578">
        <ele>898</ele>
        <time>2021-04-26T14:17:58Z</time>
      </trkpt>
      <trkpt lat="45.24262" lon="4.35785">
        <ele>898</ele>
        <time>2021-04-26T14:17:59Z</time>
      </trkpt>
      <trkpt lat="45.24262" lon="4.35791">
        <ele>899</ele>
        <time>2021-04-26T14:18:00Z</time>
      </trkpt>
      <trkpt lat="45.24262" lon="4.35796">
        <ele>899</ele>
        <time>2021-04-26T14:18:01Z</time>
      </trkpt>
      <trkpt lat="45.24263" lon="4.35801">
        <ele>899</ele>
        <time>2021-04-26T14:18:02Z</time>
      </trkpt>
      <trkpt lat="45.24264" lon="4.35806">
        <ele>899</ele>
        <time>2021-04-26T14:18:03Z</time>
      </trkpt>
      <trkpt lat="45.24265" lon="4.35812">
        <ele>899</ele>
        <time>2021-04-26T14:18:04Z</time>
      </trkpt>
      <trkpt lat="45.24266" lon="4.35817">
        <ele>900</ele>
        <time>2021-04-26T14:18:05Z</time>
      </trkpt>
      <trkpt lat="45.24267" lon="4.35822">
        <ele>900</ele>
        <time>2021-04-26T14:18:06Z</time>
      </trkpt>
      <trkpt lat="45.24269" lon="4.35828">
        <ele>900</ele>
        <time>2021-04-26T14:18:07Z</time>
      </trkpt>
      <trkpt lat="45.2427" lon="4.35833">
        <ele>900</ele>
        <time>2021-04-26T14:18:08Z</time>
      </trkpt>
      <trkpt lat="45.24271" lon="4.35838">
        <ele>900</ele>
        <time>2021-04-26T14:18:09Z</time>
      </trkpt>
      <trkpt lat="45.24272" lon="4.35844">
        <ele>900</ele>
        <time>2021-04-26T14:18:10Z</time>
      </trkpt>
      <trkpt lat="45.24274" lon="4.3585">
        <ele>900</ele>
        <time>2021-04-26T14:18:11Z</time>
      </trkpt>
      <trkpt lat="45.24275" lon="4.35855">
        <ele>900</ele>
        <time>2021-04-26T14:18:12Z</time>
      </trkpt>
      <trkpt lat="45.24276" lon="4.35861">
        <ele>901</ele>
        <time>2021-04-26T14:18:13Z</time>
      </trkpt>
      <trkpt lat="45.24277" lon="4.35866">
        <ele>901</ele>
        <time>2021-04-26T14:18:14Z</time>
      </trkpt>
      <trkpt lat="45.24277" lon="4.35872">
        <ele>901</ele>
        <time>2021-04-26T14:18:15Z</time>
      </trkpt>
      <trkpt lat="45.24278" lon="4.35878">
        <ele>901</ele>
        <time>2021-04-26T14:18:16Z</time>
      </trkpt>
      <trkpt lat="45.24279" lon="4.35883">
        <ele>901</ele>
        <time>2021-04-26T14:18:17Z</time>
      </trkpt>
      <trkpt lat="45.2428" lon="4.35889">
        <ele>902</ele>
        <time>2021-04-26T14:18:18Z</time>
      </trkpt>
      <trkpt lat="45.24282" lon="4.35894">
        <ele>902</ele>
        <time>2021-04-26T14:18:19Z</time>
      </trkpt>
      <trkpt lat="45.24283" lon="4.35899">
        <ele>902</ele>
        <time>2021-04-26T14:18:20Z</time>
      </trkpt>
      <trkpt lat="45.24284" lon="4.35903">
        <ele>902</ele>
        <time>2021-04-26T14:18:21Z</time>
      </trkpt>
      <trkpt lat="45.24284" lon="4.35908">
        <ele>903</ele>
        <time>2021-04-26T14:18:22Z</time>
      </trkpt>
      <trkpt lat="45.24285" lon="4.35912">
        <ele>903</ele>
        <time>2021-04-26T14:18:23Z</time>
      </trkpt>
      <trkpt lat="45.24285" lon="4.35916">
        <ele>904</ele>
        <time>2021-04-26T14:18:24Z</time>
      </trkpt>
      <trkpt lat="45.24285" lon="4.35921">
        <ele>904</ele>
        <time>2021-04-26T14:18:25Z</time>
      </trkpt>
      <trkpt lat="45.24286" lon="4.35925">
        <ele>905</ele>
        <time>2021-04-26T14:18:26Z</time>
      </trkpt>
      <trkpt lat="45.24285" lon="4.35929">
        <ele>905</ele>
        <time>2021-04-26T14:18:27Z</time>
      </trkpt>
      <trkpt lat="45.24284" lon="4.35932">
        <ele>905</ele>
        <time>2021-04-26T14:18:28Z</time>
      </trkpt>
      <trkpt lat="45.24283" lon="4.35936">
        <ele>906</ele>
        <time>2021-04-26T14:18:29Z</time>
      </trkpt>
      <trkpt lat="45.24282" lon="4.3594">
        <ele>906</ele>
        <time>2021-04-26T14:18:30Z</time>
      </trkpt>
      <trkpt lat="45.24281" lon="4.35943">
        <ele>906</ele>
        <time>2021-04-26T14:18:31Z</time>
      </trkpt>
      <trkpt lat="45.24279" lon="4.35947">
        <ele>907</ele>
        <time>2021-04-26T14:18:32Z</time>
      </trkpt>
      <trkpt lat="45.24278" lon="4.35951">
        <ele>907</ele>
        <time>2021-04-26T14:18:33Z</time>
      </trkpt>
      <trkpt lat="45.24277" lon="4.35954">
        <ele>907</ele>
        <time>2021-04-26T14:18:34Z</time>
      </trkpt>
      <trkpt lat="45.24275" lon="4.35958">
        <ele>907</ele>
        <time>2021-04-26T14:18:35Z</time>
      </trkpt>
      <trkpt lat="45.24273" lon="4.35961">
        <ele>907</ele>
        <time>2021-04-26T14:18:36Z</time>
      </trkpt>
      <trkpt lat="45.24272" lon="4.35964">
        <ele>908</ele>
        <time>2021-04-26T14:18:37Z</time>
      </trkpt>
      <trkpt lat="45.2427" lon="4.35968">
        <ele>908</ele>
        <time>2021-04-26T14:18:38Z</time>
      </trkpt>
      <trkpt lat="45.24269" lon="4.35972">
        <ele>908</ele>
        <time>2021-04-26T14:18:39Z</time>
      </trkpt>
      <trkpt lat="45.24267" lon="4.35976">
        <ele>909</ele>
        <time>2021-04-26T14:18:40Z</time>
      </trkpt>
      <trkpt lat="45.24266" lon="4.3598">
        <ele>909</ele>
        <time>2021-04-26T14:18:41Z</time>
      </trkpt>
      <trkpt lat="45.24266" lon="4.35984">
        <ele>909</ele>
        <time>2021-04-26T14:18:42Z</time>
      </trkpt>
      <trkpt lat="45.24265" lon="4.35988">
        <ele>909</ele>
        <time>2021-04-26T14:18:43Z</time>
      </trkpt>
      <trkpt lat="45.24265" lon="4.35993">
        <ele>910</ele>
        <time>2021-04-26T14:18:44Z</time>
      </trkpt>
      <trkpt lat="45.24264" lon="4.35997">
        <ele>910</ele>
        <time>2021-04-26T14:18:45Z</time>
      </trkpt>
      <trkpt lat="45.24264" lon="4.36002">
        <ele>910</ele>
        <time>2021-04-26T14:18:46Z</time>
      </trkpt>
      <trkpt lat="45.24264" lon="4.36007">
        <ele>911</ele>
        <time>2021-04-26T14:18:47Z</time>
      </trkpt>
      <trkpt lat="45.24263" lon="4.36011">
        <ele>911</ele>
        <time>2021-04-26T14:18:48Z</time>
      </trkpt>
      <trkpt lat="45.24263" lon="4.36016">
        <ele>912</ele>
        <time>2021-04-26T14:18:49Z</time>
      </trkpt>
      <trkpt lat="45.24262" lon="4.36021">
        <ele>912</ele>
        <time>2021-04-26T14:18:50Z</time>
      </trkpt>
      <trkpt lat="45.24262" lon="4.36025">
        <ele>913</ele>
        <time>2021-04-26T14:18:51Z</time>
      </trkpt>
      <trkpt lat="45.24261" lon="4.36029">
        <ele>913</ele>
        <time>2021-04-26T14:18:52Z</time>
      </trkpt>
      <trkpt lat="45.2426" lon="4.36033">
        <ele>913</ele>
        <time>2021-04-26T14:18:53Z</time>
      </trkpt>
      <trkpt lat="45.24258" lon="4.36036">
        <ele>913</ele>
        <time>2021-04-26T14:18:54Z</time>
      </trkpt>
      <trkpt lat="45.24257" lon="4.3604">
        <ele>913</ele>
        <time>2021-04-26T14:18:55Z</time>
      </trkpt>
      <trkpt lat="45.24255" lon="4.36043">
        <ele>914</ele>
        <time>2021-04-26T14:18:56Z</time>
      </trkpt>
      <trkpt lat="45.24252" lon="4.36046">
        <ele>914</ele>
        <time>2021-04-26T14:18:57Z</time>
      </trkpt>
      <trkpt lat="45.2425" lon="4.3605">
        <ele>914</ele>
        <time>2021-04-26T14:18:58Z</time>
      </trkpt>
      <trkpt lat="45.24247" lon="4.36053">
        <ele>915</ele>
        <time>2021-04-26T14:18:59Z</time>
      </trkpt>
      <trkpt lat="45.24244" lon="4.36057">
        <ele>915</ele>
        <time>2021-04-26T14:19:00Z</time>
      </trkpt>
      <trkpt lat="45.24242" lon="4.3606">
        <ele>915</ele>
        <time>2021-04-26T14:19:01Z</time>
      </trkpt>
      <trkpt lat="45.24239" lon="4.36063">
        <ele>916</ele>
        <time>2021-04-26T14:19:02Z</time>
      </trkpt>
      <trkpt lat="45.24236" lon="4.36065">
        <ele>916</ele>
        <time>2021-04-26T14:19:03Z</time>
      </trkpt>
      <trkpt lat="45.24233" lon="4.36068">
        <ele>916</ele>
        <time>2021-04-26T14:19:04Z</time>
      </trkpt>
      <trkpt lat="45.24231" lon="4.36071">
        <ele>917</ele>
        <time>2021-04-26T14:19:05Z</time>
      </trkpt>
      <trkpt lat="45.24228" lon="4.36074">
        <ele>917</ele>
        <time>2021-04-26T14:19:06Z</time>
      </trkpt>
      <trkpt lat="45.24226" lon="4.36077">
        <ele>917</ele>
        <time>2021-04-26T14:19:07Z</time>
      </trkpt>
      <trkpt lat="45.24223" lon="4.3608">
        <ele>918</ele>
        <time>2021-04-26T14:19:08Z</time>
      </trkpt>
      <trkpt lat="45.2422" lon="4.36082">
        <ele>918</ele>
        <time>2021-04-26T14:19:09Z</time>
      </trkpt>
      <trkpt lat="45.24218" lon="4.36084">
        <ele>918</ele>
        <time>2021-04-26T14:19:10Z</time>
      </trkpt>
      <trkpt lat="45.24215" lon="4.36086">
        <ele>918</ele>
        <time>2021-04-26T14:19:11Z</time>
      </trkpt>
      <trkpt lat="45.24213" lon="4.36087">
        <ele>919</ele>
        <time>2021-04-26T14:19:12Z</time>
      </trkpt>
      <trkpt lat="45.24212" lon="4.36088">
        <ele>919</ele>
        <time>2021-04-26T14:19:17Z</time>
      </trkpt>
      <trkpt lat="45.24215" lon="4.36085">
        <ele>921</ele>
        <time>2021-04-26T14:19:57Z</time>
      </trkpt>
      <trkpt lat="45.24206" lon="4.3609">
        <ele>923</ele>
        <time>2021-04-26T14:21:23Z</time>
      </trkpt>
      <trkpt lat="45.24203" lon="4.36091">
        <ele>924</ele>
        <time>2021-04-26T14:21:24Z</time>
      </trkpt>
      <trkpt lat="45.24201" lon="4.36092">
        <ele>924</ele>
        <time>2021-04-26T14:21:25Z</time>
      </trkpt>
      <trkpt lat="45.24198" lon="4.36094">
        <ele>924</ele>
        <time>2021-04-26T14:21:26Z</time>
      </trkpt>
      <trkpt lat="45.24196" lon="4.36096">
        <ele>924</ele>
        <time>2021-04-26T14:21:27Z</time>
      </trkpt>
      <trkpt lat="45.24194" lon="4.36098">
        <ele>924</ele>
        <time>2021-04-26T14:21:28Z</time>
      </trkpt>
      <trkpt lat="45.24192" lon="4.36102">
        <ele>925</ele>
        <time>2021-04-26T14:21:29Z</time>
      </trkpt>
      <trkpt lat="45.24191" lon="4.36105">
        <ele>925</ele>
        <time>2021-04-26T14:21:30Z</time>
      </trkpt>
      <trkpt lat="45.2419" lon="4.36109">
        <ele>925</ele>
        <time>2021-04-26T14:21:31Z</time>
      </trkpt>
      <trkpt lat="45.2419" lon="4.36113">
        <ele>925</ele>
        <time>2021-04-26T14:21:32Z</time>
      </trkpt>
      <trkpt lat="45.2419" lon="4.36117">
        <ele>926</ele>
        <time>2021-04-26T14:21:33Z</time>
      </trkpt>
      <trkpt lat="45.2419" lon="4.36121">
        <ele>926</ele>
        <time>2021-04-26T14:21:34Z</time>
      </trkpt>
      <trkpt lat="45.2419" lon="4.36125">
        <ele>926</ele>
        <time>2021-04-26T14:21:35Z</time>
      </trkpt>
      <trkpt lat="45.24191" lon="4.36128">
        <ele>926</ele>
        <time>2021-04-26T14:21:36Z</time>
      </trkpt>
      <trkpt lat="45.24192" lon="4.36132">
        <ele>926</ele>
        <time>2021-04-26T14:21:37Z</time>
      </trkpt>
      <trkpt lat="45.24193" lon="4.36135">
        <ele>926</ele>
        <time>2021-04-26T14:21:38Z</time>
      </trkpt>
      <trkpt lat="45.24193" lon="4.36139">
        <ele>927</ele>
        <time>2021-04-26T14:21:39Z</time>
      </trkpt>
      <trkpt lat="45.24194" lon="4.36143">
        <ele>927</ele>
        <time>2021-04-26T14:21:40Z</time>
      </trkpt>
      <trkpt lat="45.24195" lon="4.36146">
        <ele>928</ele>
        <time>2021-04-26T14:21:41Z</time>
      </trkpt>
      <trkpt lat="45.24195" lon="4.3615">
        <ele>928</ele>
        <time>2021-04-26T14:21:42Z</time>
      </trkpt>
      <trkpt lat="45.24196" lon="4.36154">
        <ele>928</ele>
        <time>2021-04-26T14:21:43Z</time>
      </trkpt>
      <trkpt lat="45.24196" lon="4.36157">
        <ele>929</ele>
        <time>2021-04-26T14:21:44Z</time>
      </trkpt>
      <trkpt lat="45.24197" lon="4.36162">
        <ele>929</ele>
        <time>2021-04-26T14:21:45Z</time>
      </trkpt>
      <trkpt lat="45.24197" lon="4.36166">
        <ele>929</ele>
        <time>2021-04-26T14:21:46Z</time>
      </trkpt>
      <trkpt lat="45.24196" lon="4.3617">
        <ele>929</ele>
        <time>2021-04-26T14:21:47Z</time>
      </trkpt>
      <trkpt lat="45.24196" lon="4.36174">
        <ele>930</ele>
        <time>2021-04-26T14:21:48Z</time>
      </trkpt>
      <trkpt lat="45.24196" lon="4.36178">
        <ele>930</ele>
        <time>2021-04-26T14:21:49Z</time>
      </trkpt>
      <trkpt lat="45.24196" lon="4.36182">
        <ele>930</ele>
        <time>2021-04-26T14:21:50Z</time>
      </trkpt>
      <trkpt lat="45.24196" lon="4.36186">
        <ele>930</ele>
        <time>2021-04-26T14:21:51Z</time>
      </trkpt>
      <trkpt lat="45.24196" lon="4.3619">
        <ele>931</ele>
        <time>2021-04-26T14:21:52Z</time>
      </trkpt>
      <trkpt lat="45.24196" lon="4.36194">
        <ele>931</ele>
        <time>2021-04-26T14:21:53Z</time>
      </trkpt>
      <trkpt lat="45.24196" lon="4.36198">
        <ele>931</ele>
        <time>2021-04-26T14:21:54Z</time>
      </trkpt>
      <trkpt lat="45.24196" lon="4.36202">
        <ele>931</ele>
        <time>2021-04-26T14:21:55Z</time>
      </trkpt>
      <trkpt lat="45.24196" lon="4.36206">
        <ele>931</ele>
        <time>2021-04-26T14:21:56Z</time>
      </trkpt>
      <trkpt lat="45.24197" lon="4.36211">
        <ele>932</ele>
        <time>2021-04-26T14:21:57Z</time>
      </trkpt>
      <trkpt lat="45.24197" lon="4.36215">
        <ele>932</ele>
        <time>2021-04-26T14:21:58Z</time>
      </trkpt>
      <trkpt lat="45.24197" lon="4.36219">
        <ele>932</ele>
        <time>2021-04-26T14:21:59Z</time>
      </trkpt>
      <trkpt lat="45.24197" lon="4.36223">
        <ele>932</ele>
        <time>2021-04-26T14:22:00Z</time>
      </trkpt>
      <trkpt lat="45.24197" lon="4.36227">
        <ele>932</ele>
        <time>2021-04-26T14:22:01Z</time>
      </trkpt>
      <trkpt lat="45.24198" lon="4.36231">
        <ele>932</ele>
        <time>2021-04-26T14:22:02Z</time>
      </trkpt>
      <trkpt lat="45.24198" lon="4.36236">
        <ele>932</ele>
        <time>2021-04-26T14:22:03Z</time>
      </trkpt>
      <trkpt lat="45.24199" lon="4.36241">
        <ele>933</ele>
        <time>2021-04-26T14:22:04Z</time>
      </trkpt>
      <trkpt lat="45.242" lon="4.36245">
        <ele>933</ele>
        <time>2021-04-26T14:22:05Z</time>
      </trkpt>
      <trkpt lat="45.24201" lon="4.36249">
        <ele>933</ele>
        <time>2021-04-26T14:22:06Z</time>
      </trkpt>
      <trkpt lat="45.24202" lon="4.36254">
        <ele>933</ele>
        <time>2021-04-26T14:22:07Z</time>
      </trkpt>
      <trkpt lat="45.24203" lon="4.36258">
        <ele>933</ele>
        <time>2021-04-26T14:22:08Z</time>
      </trkpt>
      <trkpt lat="45.24204" lon="4.36262">
        <ele>933</ele>
        <time>2021-04-26T14:22:09Z</time>
      </trkpt>
      <trkpt lat="45.24205" lon="4.36267">
        <ele>933</ele>
        <time>2021-04-26T14:22:10Z</time>
      </trkpt>
      <trkpt lat="45.24206" lon="4.36272">
        <ele>934</ele>
        <time>2021-04-26T14:22:11Z</time>
      </trkpt>
      <trkpt lat="45.24207" lon="4.36276">
        <ele>934</ele>
        <time>2021-04-26T14:22:12Z</time>
      </trkpt>
      <trkpt lat="45.24208" lon="4.36281">
        <ele>934</ele>
        <time>2021-04-26T14:22:13Z</time>
      </trkpt>
      <trkpt lat="45.24209" lon="4.36285">
        <ele>934</ele>
        <time>2021-04-26T14:22:14Z</time>
      </trkpt>
      <trkpt lat="45.2421" lon="4.3629">
        <ele>934</ele>
        <time>2021-04-26T14:22:15Z</time>
      </trkpt>
      <trkpt lat="45.24212" lon="4.36295">
        <ele>934</ele>
        <time>2021-04-26T14:22:16Z</time>
      </trkpt>
      <trkpt lat="45.24213" lon="4.36299">
        <ele>935</ele>
        <time>2021-04-26T14:22:17Z</time>
      </trkpt>
      <trkpt lat="45.24214" lon="4.36304">
        <ele>935</ele>
        <time>2021-04-26T14:22:18Z</time>
      </trkpt>
      <trkpt lat="45.24215" lon="4.36308">
        <ele>935</ele>
        <time>2021-04-26T14:22:19Z</time>
      </trkpt>
      <trkpt lat="45.24216" lon="4.36313">
        <ele>935</ele>
        <time>2021-04-26T14:22:20Z</time>
      </trkpt>
      <trkpt lat="45.24217" lon="4.36317">
        <ele>936</ele>
        <time>2021-04-26T14:22:21Z</time>
      </trkpt>
      <trkpt lat="45.24219" lon="4.36322">
        <ele>936</ele>
        <time>2021-04-26T14:22:22Z</time>
      </trkpt>
      <trkpt lat="45.2422" lon="4.36327">
        <ele>936</ele>
        <time>2021-04-26T14:22:23Z</time>
      </trkpt>
      <trkpt lat="45.24222" lon="4.36332">
        <ele>936</ele>
        <time>2021-04-26T14:22:24Z</time>
      </trkpt>
      <trkpt lat="45.24223" lon="4.36336">
        <ele>937</ele>
        <time>2021-04-26T14:22:25Z</time>
      </trkpt>
      <trkpt lat="45.24224" lon="4.36341">
        <ele>937</ele>
        <time>2021-04-26T14:22:26Z</time>
      </trkpt>
      <trkpt lat="45.24226" lon="4.36345">
        <ele>937</ele>
        <time>2021-04-26T14:22:27Z</time>
      </trkpt>
      <trkpt lat="45.24227" lon="4.3635">
        <ele>938</ele>
        <time>2021-04-26T14:22:28Z</time>
      </trkpt>
      <trkpt lat="45.24228" lon="4.36354">
        <ele>938</ele>
        <time>2021-04-26T14:22:29Z</time>
      </trkpt>
      <trkpt lat="45.2423" lon="4.36358">
        <ele>938</ele>
        <time>2021-04-26T14:22:30Z</time>
      </trkpt>
      <trkpt lat="45.24231" lon="4.36362">
        <ele>939</ele>
        <time>2021-04-26T14:22:31Z</time>
      </trkpt>
      <trkpt lat="45.24233" lon="4.36366">
        <ele>939</ele>
        <time>2021-04-26T14:22:32Z</time>
      </trkpt>
      <trkpt lat="45.24234" lon="4.36369">
        <ele>939</ele>
        <time>2021-04-26T14:22:33Z</time>
      </trkpt>
      <trkpt lat="45.24235" lon="4.36372">
        <ele>939</ele>
        <time>2021-04-26T14:22:34Z</time>
      </trkpt>
      <trkpt lat="45.24236" lon="4.36374">
        <ele>940</ele>
        <time>2021-04-26T14:22:35Z</time>
      </trkpt>
      <trkpt lat="45.24238" lon="4.36377">
        <ele>940</ele>
        <time>2021-04-26T14:22:36Z</time>
      </trkpt>
      <trkpt lat="45.24239" lon="4.36379">
        <ele>940</ele>
        <time>2021-04-26T14:22:37Z</time>
      </trkpt>
      <trkpt lat="45.2424" lon="4.36381">
        <ele>940</ele>
        <time>2021-04-26T14:22:38Z</time>
      </trkpt>
      <trkpt lat="45.24242" lon="4.36385">
        <ele>941</ele>
        <time>2021-04-26T14:22:40Z</time>
      </trkpt>
      <trkpt lat="45.24243" lon="4.36388">
        <ele>941</ele>
        <time>2021-04-26T14:22:42Z</time>
      </trkpt>
      <trkpt lat="45.24238" lon="4.36384">
        <ele>943</ele>
        <time>2021-04-26T14:25:13Z</time>
      </trkpt>
      <trkpt lat="45.24236" lon="4.36385">
        <ele>943</ele>
        <time>2021-04-26T14:25:14Z</time>
      </trkpt>
      <trkpt lat="45.24235" lon="4.36389">
        <ele>943</ele>
        <time>2021-04-26T14:25:15Z</time>
      </trkpt>
      <trkpt lat="45.24235" lon="4.36393">
        <ele>943</ele>
        <time>2021-04-26T14:25:16Z</time>
      </trkpt>
      <trkpt lat="45.24235" lon="4.36398">
        <ele>943</ele>
        <time>2021-04-26T14:25:17Z</time>
      </trkpt>
      <trkpt lat="45.24235" lon="4.36403">
        <ele>943</ele>
        <time>2021-04-26T14:25:18Z</time>
      </trkpt>
      <trkpt lat="45.24235" lon="4.3641">
        <ele>943</ele>
        <time>2021-04-26T14:25:19Z</time>
      </trkpt>
      <trkpt lat="45.24234" lon="4.36417">
        <ele>943</ele>
        <time>2021-04-26T14:25:20Z</time>
      </trkpt>
      <trkpt lat="45.24232" lon="4.36424">
        <ele>944</ele>
        <time>2021-04-26T14:25:21Z</time>
      </trkpt>
      <trkpt lat="45.24231" lon="4.36432">
        <ele>944</ele>
        <time>2021-04-26T14:25:22Z</time>
      </trkpt>
      <trkpt lat="45.24228" lon="4.36439">
        <ele>944</ele>
        <time>2021-04-26T14:25:23Z</time>
      </trkpt>
      <trkpt lat="45.24225" lon="4.36447">
        <ele>944</ele>
        <time>2021-04-26T14:25:24Z</time>
      </trkpt>
      <trkpt lat="45.24222" lon="4.36455">
        <ele>944</ele>
        <time>2021-04-26T14:25:25Z</time>
      </trkpt>
      <trkpt lat="45.24219" lon="4.36463">
        <ele>944</ele>
        <time>2021-04-26T14:25:26Z</time>
      </trkpt>
      <trkpt lat="45.24215" lon="4.3647">
        <ele>944</ele>
        <time>2021-04-26T14:25:27Z</time>
      </trkpt>
      <trkpt lat="45.24211" lon="4.36477">
        <ele>944</ele>
        <time>2021-04-26T14:25:28Z</time>
      </trkpt>
      <trkpt lat="45.24207" lon="4.36484">
        <ele>944</ele>
        <time>2021-04-26T14:25:29Z</time>
      </trkpt>
      <trkpt lat="45.24204" lon="4.3649">
        <ele>944</ele>
        <time>2021-04-26T14:25:30Z</time>
      </trkpt>
      <trkpt lat="45.242" lon="4.36496">
        <ele>944</ele>
        <time>2021-04-26T14:25:31Z</time>
      </trkpt>
      <trkpt lat="45.24197" lon="4.36501">
        <ele>944</ele>
        <time>2021-04-26T14:25:32Z</time>
      </trkpt>
      <trkpt lat="45.24194" lon="4.36507">
        <ele>944</ele>
        <time>2021-04-26T14:25:33Z</time>
      </trkpt>
      <trkpt lat="45.2419" lon="4.36513">
        <ele>944</ele>
        <time>2021-04-26T14:25:34Z</time>
      </trkpt>
      <trkpt lat="45.24187" lon="4.3652">
        <ele>944</ele>
        <time>2021-04-26T14:25:35Z</time>
      </trkpt>
      <trkpt lat="45.24184" lon="4.36526">
        <ele>944</ele>
        <time>2021-04-26T14:25:36Z</time>
      </trkpt>
      <trkpt lat="45.24181" lon="4.36533">
        <ele>944</ele>
        <time>2021-04-26T14:25:37Z</time>
      </trkpt>
      <trkpt lat="45.24179" lon="4.3654">
        <ele>944</ele>
        <time>2021-04-26T14:25:38Z</time>
      </trkpt>
      <trkpt lat="45.24176" lon="4.36547">
        <ele>944</ele>
        <time>2021-04-26T14:25:39Z</time>
      </trkpt>
      <trkpt lat="45.24173" lon="4.36553">
        <ele>944</ele>
        <time>2021-04-26T14:25:40Z</time>
      </trkpt>
      <trkpt lat="45.2417" lon="4.3656">
        <ele>944</ele>
        <time>2021-04-26T14:25:41Z</time>
      </trkpt>
      <trkpt lat="45.24167" lon="4.36566">
        <ele>944</ele>
        <time>2021-04-26T14:25:42Z</time>
      </trkpt>
      <trkpt lat="45.24164" lon="4.36571">
        <ele>944</ele>
        <time>2021-04-26T14:25:43Z</time>
      </trkpt>
      <trkpt lat="45.24161" lon="4.36575">
        <ele>944</ele>
        <time>2021-04-26T14:25:44Z</time>
      </trkpt>
      <trkpt lat="45.24158" lon="4.36578">
        <ele>944</ele>
        <time>2021-04-26T14:25:45Z</time>
      </trkpt>
      <trkpt lat="45.24157" lon="4.3658">
        <ele>944</ele>
        <time>2021-04-26T14:25:46Z</time>
      </trkpt>
      <trkpt lat="45.24154" lon="4.36581">
        <ele>946</ele>
        <time>2021-04-26T14:28:36Z</time>
      </trkpt>
      <trkpt lat="45.24151" lon="4.36583">
        <ele>946</ele>
        <time>2021-04-26T14:28:37Z</time>
      </trkpt>
      <trkpt lat="45.24148" lon="4.36584">
        <ele>946</ele>
        <time>2021-04-26T14:28:38Z</time>
      </trkpt>
      <trkpt lat="45.24147" lon="4.36585">
        <ele>946</ele>
        <time>2021-04-26T14:28:39Z</time>
      </trkpt>
      <trkpt lat="45.24144" lon="4.36587">
        <ele>946</ele>
        <time>2021-04-26T14:28:40Z</time>
      </trkpt>
      <trkpt lat="45.24142" lon="4.36589">
        <ele>946</ele>
        <time>2021-04-26T14:28:41Z</time>
      </trkpt>
      <trkpt lat="45.2414" lon="4.36591">
        <ele>946</ele>
        <time>2021-04-26T14:28:42Z</time>
      </trkpt>
      <trkpt lat="45.24138" lon="4.36592">
        <ele>946</ele>
        <time>2021-04-26T14:28:43Z</time>
      </trkpt>
      <trkpt lat="45.24135" lon="4.36594">
        <ele>946</ele>
        <time>2021-04-26T14:28:44Z</time>
      </trkpt>
      <trkpt lat="45.24132" lon="4.36596">
        <ele>946</ele>
        <time>2021-04-26T14:28:45Z</time>
      </trkpt>
      <trkpt lat="45.24129" lon="4.36598">
        <ele>946</ele>
        <time>2021-04-26T14:28:46Z</time>
      </trkpt>
      <trkpt lat="45.24126" lon="4.366">
        <ele>946</ele>
        <time>2021-04-26T14:28:47Z</time>
      </trkpt>
      <trkpt lat="45.24123" lon="4.36602">
        <ele>946</ele>
        <time>2021-04-26T14:28:48Z</time>
      </trkpt>
      <trkpt lat="45.2412" lon="4.36604">
        <ele>946</ele>
        <time>2021-04-26T14:28:49Z</time>
      </trkpt>
      <trkpt lat="45.24116" lon="4.36606">
        <ele>946</ele>
        <time>2021-04-26T14:28:50Z</time>
      </trkpt>
      <trkpt lat="45.24113" lon="4.36608">
        <ele>946</ele>
        <time>2021-04-26T14:28:51Z</time>
      </trkpt>
      <trkpt lat="45.24109" lon="4.36611">
        <ele>946</ele>
        <time>2021-04-26T14:28:52Z</time>
      </trkpt>
      <trkpt lat="45.24106" lon="4.36613">
        <ele>945</ele>
        <time>2021-04-26T14:28:53Z</time>
      </trkpt>
      <trkpt lat="45.24103" lon="4.36616">
        <ele>945</ele>
        <time>2021-04-26T14:28:54Z</time>
      </trkpt>
      <trkpt lat="45.241" lon="4.36619">
        <ele>945</ele>
        <time>2021-04-26T14:28:55Z</time>
      </trkpt>
      <trkpt lat="45.24096" lon="4.36622">
        <ele>945</ele>
        <time>2021-04-26T14:28:56Z</time>
      </trkpt>
      <trkpt lat="45.24092" lon="4.36627">
        <ele>944</ele>
        <time>2021-04-26T14:28:57Z</time>
      </trkpt>
      <trkpt lat="45.24089" lon="4.36634">
        <ele>944</ele>
        <time>2021-04-26T14:28:58Z</time>
      </trkpt>
      <trkpt lat="45.24086" lon="4.36641">
        <ele>943</ele>
        <time>2021-04-26T14:28:59Z</time>
      </trkpt>
      <trkpt lat="45.24083" lon="4.36649">
        <ele>943</ele>
        <time>2021-04-26T14:29:00Z</time>
      </trkpt>
      <trkpt lat="45.2408" lon="4.36659">
        <ele>943</ele>
        <time>2021-04-26T14:29:01Z</time>
      </trkpt>
      <trkpt lat="45.24078" lon="4.36669">
        <ele>942</ele>
        <time>2021-04-26T14:29:02Z</time>
      </trkpt>
      <trkpt lat="45.24076" lon="4.36678">
        <ele>942</ele>
        <time>2021-04-26T14:29:03Z</time>
      </trkpt>
      <trkpt lat="45.24073" lon="4.36688">
        <ele>942</ele>
        <time>2021-04-26T14:29:04Z</time>
      </trkpt>
      <trkpt lat="45.2407" lon="4.36696">
        <ele>941</ele>
        <time>2021-04-26T14:29:05Z</time>
      </trkpt>
      <trkpt lat="45.24067" lon="4.36704">
        <ele>941</ele>
        <time>2021-04-26T14:29:06Z</time>
      </trkpt>
      <trkpt lat="45.24064" lon="4.36711">
        <ele>941</ele>
        <time>2021-04-26T14:29:07Z</time>
      </trkpt>
      <trkpt lat="45.2406" lon="4.36718">
        <ele>941</ele>
        <time>2021-04-26T14:29:08Z</time>
      </trkpt>
      <trkpt lat="45.24057" lon="4.36724">
        <ele>941</ele>
        <time>2021-04-26T14:29:09Z</time>
      </trkpt>
      <trkpt lat="45.24053" lon="4.36729">
        <ele>941</ele>
        <time>2021-04-26T14:29:10Z</time>
      </trkpt>
      <trkpt lat="45.24049" lon="4.36734">
        <ele>941</ele>
        <time>2021-04-26T14:29:11Z</time>
      </trkpt>
      <trkpt lat="45.24045" lon="4.36739">
        <ele>941</ele>
        <time>2021-04-26T14:29:12Z</time>
      </trkpt>
      <trkpt lat="45.24042" lon="4.36744">
        <ele>941</ele>
        <time>2021-04-26T14:29:13Z</time>
      </trkpt>
      <trkpt lat="45.24038" lon="4.36749">
        <ele>941</ele>
        <time>2021-04-26T14:29:14Z</time>
      </trkpt>
      <trkpt lat="45.24034" lon="4.36755">
        <ele>941</ele>
        <time>2021-04-26T14:29:15Z</time>
      </trkpt>
      <trkpt lat="45.24031" lon="4.36761">
        <ele>941</ele>
        <time>2021-04-26T14:29:16Z</time>
      </trkpt>
      <trkpt lat="45.24028" lon="4.36766">
        <ele>941</ele>
        <time>2021-04-26T14:29:17Z</time>
      </trkpt>
      <trkpt lat="45.24025" lon="4.36772">
        <ele>941</ele>
        <time>2021-04-26T14:29:18Z</time>
      </trkpt>
      <trkpt lat="45.24023" lon="4.36778">
        <ele>941</ele>
        <time>2021-04-26T14:29:19Z</time>
      </trkpt>
      <trkpt lat="45.24021" lon="4.36784">
        <ele>941</ele>
        <time>2021-04-26T14:29:20Z</time>
      </trkpt>
      <trkpt lat="45.24018" lon="4.3679">
        <ele>941</ele>
        <time>2021-04-26T14:29:21Z</time>
      </trkpt>
      <trkpt lat="45.24016" lon="4.36795">
        <ele>941</ele>
        <time>2021-04-26T14:29:22Z</time>
      </trkpt>
      <trkpt lat="45.24014" lon="4.36801">
        <ele>941</ele>
        <time>2021-04-26T14:29:23Z</time>
      </trkpt>
      <trkpt lat="45.24011" lon="4.36807">
        <ele>941</ele>
        <time>2021-04-26T14:29:24Z</time>
      </trkpt>
      <trkpt lat="45.24008" lon="4.36812">
        <ele>941</ele>
        <time>2021-04-26T14:29:25Z</time>
      </trkpt>
      <trkpt lat="45.24006" lon="4.36818">
        <ele>941</ele>
        <time>2021-04-26T14:29:26Z</time>
      </trkpt>
      <trkpt lat="45.24003" lon="4.36823">
        <ele>941</ele>
        <time>2021-04-26T14:29:27Z</time>
      </trkpt>
      <trkpt lat="45.24" lon="4.36829">
        <ele>942</ele>
        <time>2021-04-26T14:29:28Z</time>
      </trkpt>
      <trkpt lat="45.23998" lon="4.36834">
        <ele>942</ele>
        <time>2021-04-26T14:29:29Z</time>
      </trkpt>
      <trkpt lat="45.23995" lon="4.36839">
        <ele>942</ele>
        <time>2021-04-26T14:29:30Z</time>
      </trkpt>
      <trkpt lat="45.23992" lon="4.36844">
        <ele>942</ele>
        <time>2021-04-26T14:29:31Z</time>
      </trkpt>
      <trkpt lat="45.2399" lon="4.36849">
        <ele>942</ele>
        <time>2021-04-26T14:29:32Z</time>
      </trkpt>
      <trkpt lat="45.23988" lon="4.36853">
        <ele>942</ele>
        <time>2021-04-26T14:29:33Z</time>
      </trkpt>
      <trkpt lat="45.23986" lon="4.36856">
        <ele>942</ele>
        <time>2021-04-26T14:29:34Z</time>
      </trkpt>
      <trkpt lat="45.23984" lon="4.3686">
        <ele>943</ele>
        <time>2021-04-26T14:29:35Z</time>
      </trkpt>
      <trkpt lat="45.23982" lon="4.36864">
        <ele>943</ele>
        <time>2021-04-26T14:29:36Z</time>
      </trkpt>
      <trkpt lat="45.2398" lon="4.36867">
        <ele>943</ele>
        <time>2021-04-26T14:29:37Z</time>
      </trkpt>
      <trkpt lat="45.23978" lon="4.36871">
        <ele>943</ele>
        <time>2021-04-26T14:29:38Z</time>
      </trkpt>
      <trkpt lat="45.23975" lon="4.36875">
        <ele>943</ele>
        <time>2021-04-26T14:29:39Z</time>
      </trkpt>
      <trkpt lat="45.23972" lon="4.36879">
        <ele>943</ele>
        <time>2021-04-26T14:29:40Z</time>
      </trkpt>
      <trkpt lat="45.2397" lon="4.36883">
        <ele>943</ele>
        <time>2021-04-26T14:29:41Z</time>
      </trkpt>
      <trkpt lat="45.23967" lon="4.36887">
        <ele>943</ele>
        <time>2021-04-26T14:29:42Z</time>
      </trkpt>
      <trkpt lat="45.23964" lon="4.36891">
        <ele>943</ele>
        <time>2021-04-26T14:29:43Z</time>
      </trkpt>
      <trkpt lat="45.23961" lon="4.36895">
        <ele>943</ele>
        <time>2021-04-26T14:29:44Z</time>
      </trkpt>
      <trkpt lat="45.23959" lon="4.36899">
        <ele>943</ele>
        <time>2021-04-26T14:29:45Z</time>
      </trkpt>
      <trkpt lat="45.23956" lon="4.36903">
        <ele>943</ele>
        <time>2021-04-26T14:29:46Z</time>
      </trkpt>
      <trkpt lat="45.23954" lon="4.36908">
        <ele>943</ele>
        <time>2021-04-26T14:29:47Z</time>
      </trkpt>
      <trkpt lat="45.23952" lon="4.36913">
        <ele>943</ele>
        <time>2021-04-26T14:29:48Z</time>
      </trkpt>
      <trkpt lat="45.23949" lon="4.36917">
        <ele>944</ele>
        <time>2021-04-26T14:29:49Z</time>
      </trkpt>
      <trkpt lat="45.23947" lon="4.36922">
        <ele>944</ele>
        <time>2021-04-26T14:29:50Z</time>
      </trkpt>
      <trkpt lat="45.23945" lon="4.36927">
        <ele>944</ele>
        <time>2021-04-26T14:29:51Z</time>
      </trkpt>
      <trkpt lat="45.23943" lon="4.36932">
        <ele>944</ele>
        <time>2021-04-26T14:29:52Z</time>
      </trkpt>
      <trkpt lat="45.23941" lon="4.36937">
        <ele>944</ele>
        <time>2021-04-26T14:29:53Z</time>
      </trkpt>
      <trkpt lat="45.23939" lon="4.36941">
        <ele>944</ele>
        <time>2021-04-26T14:29:54Z</time>
      </trkpt>
      <trkpt lat="45.23936" lon="4.36946">
        <ele>944</ele>
        <time>2021-04-26T14:29:55Z</time>
      </trkpt>
      <trkpt lat="45.23933" lon="4.3695">
        <ele>944</ele>
        <time>2021-04-26T14:29:56Z</time>
      </trkpt>
      <trkpt lat="45.2393" lon="4.36953">
        <ele>944</ele>
        <time>2021-04-26T14:29:57Z</time>
      </trkpt>
      <trkpt lat="45.23926" lon="4.36955">
        <ele>944</ele>
        <time>2021-04-26T14:29:58Z</time>
      </trkpt>
      <trkpt lat="45.23922" lon="4.36956">
        <ele>944</ele>
        <time>2021-04-26T14:29:59Z</time>
      </trkpt>
      <trkpt lat="45.23918" lon="4.36955">
        <ele>944</ele>
        <time>2021-04-26T14:30:00Z</time>
      </trkpt>
      <trkpt lat="45.23915" lon="4.36954">
        <ele>944</ele>
        <time>2021-04-26T14:30:01Z</time>
      </trkpt>
      <trkpt lat="45.23911" lon="4.36952">
        <ele>944</ele>
        <time>2021-04-26T14:30:02Z</time>
      </trkpt>
      <trkpt lat="45.23907" lon="4.36949">
        <ele>944</ele>
        <time>2021-04-26T14:30:03Z</time>
      </trkpt>
      <trkpt lat="45.23903" lon="4.36946">
        <ele>944</ele>
        <time>2021-04-26T14:30:04Z</time>
      </trkpt>
      <trkpt lat="45.239" lon="4.36944">
        <ele>944</ele>
        <time>2021-04-26T14:30:05Z</time>
      </trkpt>
      <trkpt lat="45.23897" lon="4.36942">
        <ele>944</ele>
        <time>2021-04-26T14:30:06Z</time>
      </trkpt>
      <trkpt lat="45.23894" lon="4.36941">
        <ele>945</ele>
        <time>2021-04-26T14:30:07Z</time>
      </trkpt>
      <trkpt lat="45.23891" lon="4.36941">
        <ele>945</ele>
        <time>2021-04-26T14:30:08Z</time>
      </trkpt>
      <trkpt lat="45.23888" lon="4.36942">
        <ele>945</ele>
        <time>2021-04-26T14:30:09Z</time>
      </trkpt>
      <trkpt lat="45.23885" lon="4.36942">
        <ele>945</ele>
        <time>2021-04-26T14:30:10Z</time>
      </trkpt>
      <trkpt lat="45.23882" lon="4.36943">
        <ele>945</ele>
        <time>2021-04-26T14:30:11Z</time>
      </trkpt>
      <trkpt lat="45.23878" lon="4.36944">
        <ele>945</ele>
        <time>2021-04-26T14:30:12Z</time>
      </trkpt>
      <trkpt lat="45.23874" lon="4.36945">
        <ele>946</ele>
        <time>2021-04-26T14:30:13Z</time>
      </trkpt>
      <trkpt lat="45.2387" lon="4.36946">
        <ele>946</ele>
        <time>2021-04-26T14:30:14Z</time>
      </trkpt>
      <trkpt lat="45.23867" lon="4.36947">
        <ele>946</ele>
        <time>2021-04-26T14:30:15Z</time>
      </trkpt>
      <trkpt lat="45.23863" lon="4.36947">
        <ele>946</ele>
        <time>2021-04-26T14:30:16Z</time>
      </trkpt>
      <trkpt lat="45.23859" lon="4.36947">
        <ele>947</ele>
        <time>2021-04-26T14:30:17Z</time>
      </trkpt>
      <trkpt lat="45.23854" lon="4.36948">
        <ele>947</ele>
        <time>2021-04-26T14:30:18Z</time>
      </trkpt>
      <trkpt lat="45.2385" lon="4.36948">
        <ele>947</ele>
        <time>2021-04-26T14:30:19Z</time>
      </trkpt>
      <trkpt lat="45.23845" lon="4.3695">
        <ele>948</ele>
        <time>2021-04-26T14:30:20Z</time>
      </trkpt>
      <trkpt lat="45.23841" lon="4.36951">
        <ele>948</ele>
        <time>2021-04-26T14:30:21Z</time>
      </trkpt>
      <trkpt lat="45.23837" lon="4.36953">
        <ele>948</ele>
        <time>2021-04-26T14:30:22Z</time>
      </trkpt>
      <trkpt lat="45.23834" lon="4.36955">
        <ele>949</ele>
        <time>2021-04-26T14:30:23Z</time>
      </trkpt>
      <trkpt lat="45.23832" lon="4.36957">
        <ele>949</ele>
        <time>2021-04-26T14:30:24Z</time>
      </trkpt>
      <trkpt lat="45.2383" lon="4.3696">
        <ele>949</ele>
        <time>2021-04-26T14:30:25Z</time>
      </trkpt>
      <trkpt lat="45.23828" lon="4.36962">
        <ele>949</ele>
        <time>2021-04-26T14:30:26Z</time>
      </trkpt>
      <trkpt lat="45.23826" lon="4.36965">
        <ele>949</ele>
        <time>2021-04-26T14:30:27Z</time>
      </trkpt>
      <trkpt lat="45.23822" lon="4.36969">
        <ele>950</ele>
        <time>2021-04-26T14:30:28Z</time>
      </trkpt>
      <trkpt lat="45.23817" lon="4.36972">
        <ele>950</ele>
        <time>2021-04-26T14:30:29Z</time>
      </trkpt>
      <trkpt lat="45.23813" lon="4.36976">
        <ele>950</ele>
        <time>2021-04-26T14:30:30Z</time>
      </trkpt>
      <trkpt lat="45.23809" lon="4.36981">
        <ele>950</ele>
        <time>2021-04-26T14:30:31Z</time>
      </trkpt>
      <trkpt lat="45.23806" lon="4.36985">
        <ele>951</ele>
        <time>2021-04-26T14:30:32Z</time>
      </trkpt>
      <trkpt lat="45.23802" lon="4.3699">
        <ele>951</ele>
        <time>2021-04-26T14:30:33Z</time>
      </trkpt>
      <trkpt lat="45.23799" lon="4.36996">
        <ele>951</ele>
        <time>2021-04-26T14:30:34Z</time>
      </trkpt>
      <trkpt lat="45.23796" lon="4.37001">
        <ele>951</ele>
        <time>2021-04-26T14:30:35Z</time>
      </trkpt>
      <trkpt lat="45.23793" lon="4.37005">
        <ele>951</ele>
        <time>2021-04-26T14:30:36Z</time>
      </trkpt>
      <trkpt lat="45.2379" lon="4.3701">
        <ele>951</ele>
        <time>2021-04-26T14:30:37Z</time>
      </trkpt>
      <trkpt lat="45.23786" lon="4.37016">
        <ele>951</ele>
        <time>2021-04-26T14:30:38Z</time>
      </trkpt>
      <trkpt lat="45.23784" lon="4.37021">
        <ele>951</ele>
        <time>2021-04-26T14:30:39Z</time>
      </trkpt>
      <trkpt lat="45.23781" lon="4.37026">
        <ele>952</ele>
        <time>2021-04-26T14:30:40Z</time>
      </trkpt>
      <trkpt lat="45.23779" lon="4.37031">
        <ele>952</ele>
        <time>2021-04-26T14:30:41Z</time>
      </trkpt>
      <trkpt lat="45.23776" lon="4.37036">
        <ele>952</ele>
        <time>2021-04-26T14:30:42Z</time>
      </trkpt>
      <trkpt lat="45.23773" lon="4.3704">
        <ele>953</ele>
        <time>2021-04-26T14:30:43Z</time>
      </trkpt>
      <trkpt lat="45.23771" lon="4.37045">
        <ele>953</ele>
        <time>2021-04-26T14:30:44Z</time>
      </trkpt>
      <trkpt lat="45.23769" lon="4.3705">
        <ele>953</ele>
        <time>2021-04-26T14:30:45Z</time>
      </trkpt>
      <trkpt lat="45.23767" lon="4.37055">
        <ele>953</ele>
        <time>2021-04-26T14:30:46Z</time>
      </trkpt>
      <trkpt lat="45.23765" lon="4.37059">
        <ele>954</ele>
        <time>2021-04-26T14:30:47Z</time>
      </trkpt>
      <trkpt lat="45.23763" lon="4.37064">
        <ele>954</ele>
        <time>2021-04-26T14:30:48Z</time>
      </trkpt>
      <trkpt lat="45.23761" lon="4.37069">
        <ele>954</ele>
        <time>2021-04-26T14:30:49Z</time>
      </trkpt>
      <trkpt lat="45.23759" lon="4.37074">
        <ele>955</ele>
        <time>2021-04-26T14:30:50Z</time>
      </trkpt>
      <trkpt lat="45.23757" lon="4.3708">
        <ele>955</ele>
        <time>2021-04-26T14:30:51Z</time>
      </trkpt>
      <trkpt lat="45.23754" lon="4.37086">
        <ele>956</ele>
        <time>2021-04-26T14:30:52Z</time>
      </trkpt>
      <trkpt lat="45.23752" lon="4.37091">
        <ele>956</ele>
        <time>2021-04-26T14:30:53Z</time>
      </trkpt>
      <trkpt lat="45.23748" lon="4.37097">
        <ele>956</ele>
        <time>2021-04-26T14:30:54Z</time>
      </trkpt>
      <trkpt lat="45.23746" lon="4.37103">
        <ele>956</ele>
        <time>2021-04-26T14:30:55Z</time>
      </trkpt>
      <trkpt lat="45.23743" lon="4.37108">
        <ele>956</ele>
        <time>2021-04-26T14:30:56Z</time>
      </trkpt>
      <trkpt lat="45.2374" lon="4.37113">
        <ele>957</ele>
        <time>2021-04-26T14:30:57Z</time>
      </trkpt>
      <trkpt lat="45.23737" lon="4.37118">
        <ele>957</ele>
        <time>2021-04-26T14:30:58Z</time>
      </trkpt>
      <trkpt lat="45.23735" lon="4.37123">
        <ele>957</ele>
        <time>2021-04-26T14:30:59Z</time>
      </trkpt>
      <trkpt lat="45.23733" lon="4.37128">
        <ele>958</ele>
        <time>2021-04-26T14:31:00Z</time>
      </trkpt>
      <trkpt lat="45.23731" lon="4.37133">
        <ele>958</ele>
        <time>2021-04-26T14:31:01Z</time>
      </trkpt>
      <trkpt lat="45.23729" lon="4.37138">
        <ele>958</ele>
        <time>2021-04-26T14:31:02Z</time>
      </trkpt>
      <trkpt lat="45.23726" lon="4.37142">
        <ele>959</ele>
        <time>2021-04-26T14:31:03Z</time>
      </trkpt>
      <trkpt lat="45.23723" lon="4.37146">
        <ele>959</ele>
        <time>2021-04-26T14:31:04Z</time>
      </trkpt>
      <trkpt lat="45.2372" lon="4.3715">
        <ele>959</ele>
        <time>2021-04-26T14:31:05Z</time>
      </trkpt>
      <trkpt lat="45.23717" lon="4.37155">
        <ele>959</ele>
        <time>2021-04-26T14:31:06Z</time>
      </trkpt>
      <trkpt lat="45.23714" lon="4.3716">
        <ele>959</ele>
        <time>2021-04-26T14:31:07Z</time>
      </trkpt>
      <trkpt lat="45.23712" lon="4.37164">
        <ele>959</ele>
        <time>2021-04-26T14:31:08Z</time>
      </trkpt>
      <trkpt lat="45.23709" lon="4.37169">
        <ele>960</ele>
        <time>2021-04-26T14:31:09Z</time>
      </trkpt>
      <trkpt lat="45.23707" lon="4.37173">
        <ele>960</ele>
        <time>2021-04-26T14:31:10Z</time>
      </trkpt>
      <trkpt lat="45.23704" lon="4.37178">
        <ele>960</ele>
        <time>2021-04-26T14:31:11Z</time>
      </trkpt>
      <trkpt lat="45.23702" lon="4.37182">
        <ele>961</ele>
        <time>2021-04-26T14:31:12Z</time>
      </trkpt>
      <trkpt lat="45.23699" lon="4.37189">
        <ele>961</ele>
        <time>2021-04-26T14:31:13Z</time>
      </trkpt>
      <trkpt lat="45.23696" lon="4.37195">
        <ele>961</ele>
        <time>2021-04-26T14:31:14Z</time>
      </trkpt>
      <trkpt lat="45.23693" lon="4.37201">
        <ele>961</ele>
        <time>2021-04-26T14:31:15Z</time>
      </trkpt>
      <trkpt lat="45.23689" lon="4.37207">
        <ele>961</ele>
        <time>2021-04-26T14:31:16Z</time>
      </trkpt>
      <trkpt lat="45.23686" lon="4.37211">
        <ele>962</ele>
        <time>2021-04-26T14:31:17Z</time>
      </trkpt>
      <trkpt lat="45.23682" lon="4.37216">
        <ele>962</ele>
        <time>2021-04-26T14:31:18Z</time>
      </trkpt>
      <trkpt lat="45.23679" lon="4.37221">
        <ele>962</ele>
        <time>2021-04-26T14:31:19Z</time>
      </trkpt>
      <trkpt lat="45.23676" lon="4.37225">
        <ele>962</ele>
        <time>2021-04-26T14:31:20Z</time>
      </trkpt>
      <trkpt lat="45.23673" lon="4.3723">
        <ele>963</ele>
        <time>2021-04-26T14:31:21Z</time>
      </trkpt>
      <trkpt lat="45.2367" lon="4.37235">
        <ele>963</ele>
        <time>2021-04-26T14:31:22Z</time>
      </trkpt>
      <trkpt lat="45.23668" lon="4.37239">
        <ele>963</ele>
        <time>2021-04-26T14:31:23Z</time>
      </trkpt>
      <trkpt lat="45.23666" lon="4.37244">
        <ele>964</ele>
        <time>2021-04-26T14:31:24Z</time>
      </trkpt>
      <trkpt lat="45.23664" lon="4.37249">
        <ele>964</ele>
        <time>2021-04-26T14:31:25Z</time>
      </trkpt>
      <trkpt lat="45.23663" lon="4.37255">
        <ele>964</ele>
        <time>2021-04-26T14:31:26Z</time>
      </trkpt>
      <trkpt lat="45.23661" lon="4.3726">
        <ele>964</ele>
        <time>2021-04-26T14:31:27Z</time>
      </trkpt>
      <trkpt lat="45.23661" lon="4.37266">
        <ele>965</ele>
        <time>2021-04-26T14:31:28Z</time>
      </trkpt>
      <trkpt lat="45.2366" lon="4.37273">
        <ele>965</ele>
        <time>2021-04-26T14:31:29Z</time>
      </trkpt>
      <trkpt lat="45.2366" lon="4.37279">
        <ele>965</ele>
        <time>2021-04-26T14:31:30Z</time>
      </trkpt>
      <trkpt lat="45.23659" lon="4.37285">
        <ele>966</ele>
        <time>2021-04-26T14:31:31Z</time>
      </trkpt>
      <trkpt lat="45.23658" lon="4.37292">
        <ele>966</ele>
        <time>2021-04-26T14:31:32Z</time>
      </trkpt>
      <trkpt lat="45.23657" lon="4.37299">
        <ele>967</ele>
        <time>2021-04-26T14:31:33Z</time>
      </trkpt>
      <trkpt lat="45.23657" lon="4.37305">
        <ele>967</ele>
        <time>2021-04-26T14:31:34Z</time>
      </trkpt>
      <trkpt lat="45.23656" lon="4.37311">
        <ele>967</ele>
        <time>2021-04-26T14:31:35Z</time>
      </trkpt>
      <trkpt lat="45.23655" lon="4.37318">
        <ele>967</ele>
        <time>2021-04-26T14:31:36Z</time>
      </trkpt>
      <trkpt lat="45.23654" lon="4.37324">
        <ele>967</ele>
        <time>2021-04-26T14:31:37Z</time>
      </trkpt>
      <trkpt lat="45.23653" lon="4.37329">
        <ele>968</ele>
        <time>2021-04-26T14:31:38Z</time>
      </trkpt>
      <trkpt lat="45.23652" lon="4.37334">
        <ele>968</ele>
        <time>2021-04-26T14:31:39Z</time>
      </trkpt>
      <trkpt lat="45.2365" lon="4.37338">
        <ele>969</ele>
        <time>2021-04-26T14:31:40Z</time>
      </trkpt>
      <trkpt lat="45.23649" lon="4.37343">
        <ele>969</ele>
        <time>2021-04-26T14:31:41Z</time>
      </trkpt>
      <trkpt lat="45.23648" lon="4.37349">
        <ele>969</ele>
        <time>2021-04-26T14:31:42Z</time>
      </trkpt>
      <trkpt lat="45.23646" lon="4.37355">
        <ele>970</ele>
        <time>2021-04-26T14:31:43Z</time>
      </trkpt>
      <trkpt lat="45.23645" lon="4.3736">
        <ele>970</ele>
        <time>2021-04-26T14:31:44Z</time>
      </trkpt>
      <trkpt lat="45.23643" lon="4.37365">
        <ele>970</ele>
        <time>2021-04-26T14:31:45Z</time>
      </trkpt>
      <trkpt lat="45.23641" lon="4.37369">
        <ele>970</ele>
        <time>2021-04-26T14:31:46Z</time>
      </trkpt>
      <trkpt lat="45.23639" lon="4.37373">
        <ele>970</ele>
        <time>2021-04-26T14:31:47Z</time>
      </trkpt>
      <trkpt lat="45.23638" lon="4.37378">
        <ele>970</ele>
        <time>2021-04-26T14:31:48Z</time>
      </trkpt>
      <trkpt lat="45.23635" lon="4.37382">
        <ele>970</ele>
        <time>2021-04-26T14:31:49Z</time>
      </trkpt>
      <trkpt lat="45.2363" lon="4.37391">
        <ele>971</ele>
        <time>2021-04-26T14:31:51Z</time>
      </trkpt>
      <trkpt lat="45.23626" lon="4.37395">
        <ele>971</ele>
        <time>2021-04-26T14:31:52Z</time>
      </trkpt>
      <trkpt lat="45.23621" lon="4.37401">
        <ele>971</ele>
        <time>2021-04-26T14:31:53Z</time>
      </trkpt>
      <trkpt lat="45.23617" lon="4.37407">
        <ele>971</ele>
        <time>2021-04-26T14:31:54Z</time>
      </trkpt>
      <trkpt lat="45.23612" lon="4.37412">
        <ele>971</ele>
        <time>2021-04-26T14:31:55Z</time>
      </trkpt>
      <trkpt lat="45.23609" lon="4.37416">
        <ele>972</ele>
        <time>2021-04-26T14:31:56Z</time>
      </trkpt>
      <trkpt lat="45.23606" lon="4.37419">
        <ele>972</ele>
        <time>2021-04-26T14:31:57Z</time>
      </trkpt>
      <trkpt lat="45.23603" lon="4.37423">
        <ele>973</ele>
        <time>2021-04-26T14:31:58Z</time>
      </trkpt>
      <trkpt lat="45.23601" lon="4.37427">
        <ele>973</ele>
        <time>2021-04-26T14:31:59Z</time>
      </trkpt>
      <trkpt lat="45.23598" lon="4.37431">
        <ele>974</ele>
        <time>2021-04-26T14:32:00Z</time>
      </trkpt>
      <trkpt lat="45.23595" lon="4.37433">
        <ele>974</ele>
        <time>2021-04-26T14:32:01Z</time>
      </trkpt>
      <trkpt lat="45.23591" lon="4.37436">
        <ele>975</ele>
        <time>2021-04-26T14:32:02Z</time>
      </trkpt>
      <trkpt lat="45.23588" lon="4.3744">
        <ele>975</ele>
        <time>2021-04-26T14:32:03Z</time>
      </trkpt>
      <trkpt lat="45.23587" lon="4.37445">
        <ele>975</ele>
        <time>2021-04-26T14:32:04Z</time>
      </trkpt>
      <trkpt lat="45.23586" lon="4.3745">
        <ele>975</ele>
        <time>2021-04-26T14:32:05Z</time>
      </trkpt>
      <trkpt lat="45.23586" lon="4.37456">
        <ele>976</ele>
        <time>2021-04-26T14:32:06Z</time>
      </trkpt>
      <trkpt lat="45.23584" lon="4.37462">
        <ele>976</ele>
        <time>2021-04-26T14:32:07Z</time>
      </trkpt>
      <trkpt lat="45.23584" lon="4.37468">
        <ele>976</ele>
        <time>2021-04-26T14:32:08Z</time>
      </trkpt>
      <trkpt lat="45.23582" lon="4.37475">
        <ele>977</ele>
        <time>2021-04-26T14:32:09Z</time>
      </trkpt>
      <trkpt lat="45.23581" lon="4.3748">
        <ele>977</ele>
        <time>2021-04-26T14:32:10Z</time>
      </trkpt>
      <trkpt lat="45.23579" lon="4.37486">
        <ele>977</ele>
        <time>2021-04-26T14:32:11Z</time>
      </trkpt>
      <trkpt lat="45.23577" lon="4.37491">
        <ele>977</ele>
        <time>2021-04-26T14:32:12Z</time>
      </trkpt>
      <trkpt lat="45.23576" lon="4.37496">
        <ele>978</ele>
        <time>2021-04-26T14:32:13Z</time>
      </trkpt>
      <trkpt lat="45.23574" lon="4.375">
        <ele>978</ele>
        <time>2021-04-26T14:32:14Z</time>
      </trkpt>
      <trkpt lat="45.23572" lon="4.37505">
        <ele>978</ele>
        <time>2021-04-26T14:32:15Z</time>
      </trkpt>
      <trkpt lat="45.23571" lon="4.37511">
        <ele>978</ele>
        <time>2021-04-26T14:32:16Z</time>
      </trkpt>
      <trkpt lat="45.23569" lon="4.37516">
        <ele>979</ele>
        <time>2021-04-26T14:32:17Z</time>
      </trkpt>
      <trkpt lat="45.23567" lon="4.37521">
        <ele>979</ele>
        <time>2021-04-26T14:32:18Z</time>
      </trkpt>
      <trkpt lat="45.23565" lon="4.37526">
        <ele>979</ele>
        <time>2021-04-26T14:32:19Z</time>
      </trkpt>
      <trkpt lat="45.23562" lon="4.37531">
        <ele>979</ele>
        <time>2021-04-26T14:32:20Z</time>
      </trkpt>
      <trkpt lat="45.2356" lon="4.37537">
        <ele>979</ele>
        <time>2021-04-26T14:32:21Z</time>
      </trkpt>
      <trkpt lat="45.23558" lon="4.37543">
        <ele>979</ele>
        <time>2021-04-26T14:32:22Z</time>
      </trkpt>
      <trkpt lat="45.23556" lon="4.3755">
        <ele>980</ele>
        <time>2021-04-26T14:32:23Z</time>
      </trkpt>
      <trkpt lat="45.23554" lon="4.37556">
        <ele>980</ele>
        <time>2021-04-26T14:32:24Z</time>
      </trkpt>
      <trkpt lat="45.23552" lon="4.37561">
        <ele>980</ele>
        <time>2021-04-26T14:32:25Z</time>
      </trkpt>
      <trkpt lat="45.23549" lon="4.37567">
        <ele>980</ele>
        <time>2021-04-26T14:32:26Z</time>
      </trkpt>
      <trkpt lat="45.23545" lon="4.37574">
        <ele>980</ele>
        <time>2021-04-26T14:32:27Z</time>
      </trkpt>
      <trkpt lat="45.23541" lon="4.37581">
        <ele>980</ele>
        <time>2021-04-26T14:32:28Z</time>
      </trkpt>
      <trkpt lat="45.23538" lon="4.37586">
        <ele>980</ele>
        <time>2021-04-26T14:32:29Z</time>
      </trkpt>
      <trkpt lat="45.23535" lon="4.37591">
        <ele>981</ele>
        <time>2021-04-26T14:32:30Z</time>
      </trkpt>
      <trkpt lat="45.23533" lon="4.37595">
        <ele>981</ele>
        <time>2021-04-26T14:32:31Z</time>
      </trkpt>
      <trkpt lat="45.23532" lon="4.37598">
        <ele>981</ele>
        <time>2021-04-26T14:32:32Z</time>
      </trkpt>
      <trkpt lat="45.23532" lon="4.37601">
        <ele>981</ele>
        <time>2021-04-26T14:32:34Z</time>
      </trkpt>
      <trkpt lat="45.23537" lon="4.37601">
        <ele>981</ele>
        <time>2021-04-26T14:32:37Z</time>
      </trkpt>
      <trkpt lat="45.23541" lon="4.37599">
        <ele>981</ele>
        <time>2021-04-26T14:32:38Z</time>
      </trkpt>
      <trkpt lat="45.23544" lon="4.37599">
        <ele>982</ele>
        <time>2021-04-26T14:32:39Z</time>
      </trkpt>
      <trkpt lat="45.23547" lon="4.37599">
        <ele>982</ele>
        <time>2021-04-26T14:32:40Z</time>
      </trkpt>
      <trkpt lat="45.2355" lon="4.37599">
        <ele>982</ele>
        <time>2021-04-26T14:32:41Z</time>
      </trkpt>
      <trkpt lat="45.23553" lon="4.37599">
        <ele>982</ele>
        <time>2021-04-26T14:32:42Z</time>
      </trkpt>
      <trkpt lat="45.23557" lon="4.37597">
        <ele>982</ele>
        <time>2021-04-26T14:32:43Z</time>
      </trkpt>
      <trkpt lat="45.23561" lon="4.37594">
        <ele>983</ele>
        <time>2021-04-26T14:32:44Z</time>
      </trkpt>
      <trkpt lat="45.23564" lon="4.37591">
        <ele>983</ele>
        <time>2021-04-26T14:32:45Z</time>
      </trkpt>
      <trkpt lat="45.23567" lon="4.37588">
        <ele>983</ele>
        <time>2021-04-26T14:32:46Z</time>
      </trkpt>
      <trkpt lat="45.23569" lon="4.37585">
        <ele>983</ele>
        <time>2021-04-26T14:32:47Z</time>
      </trkpt>
      <trkpt lat="45.23573" lon="4.37581">
        <ele>983</ele>
        <time>2021-04-26T14:32:48Z</time>
      </trkpt>
      <trkpt lat="45.23576" lon="4.37577">
        <ele>983</ele>
        <time>2021-04-26T14:32:49Z</time>
      </trkpt>
      <trkpt lat="45.2358" lon="4.37573">
        <ele>984</ele>
        <time>2021-04-26T14:32:50Z</time>
      </trkpt>
      <trkpt lat="45.23583" lon="4.37569">
        <ele>984</ele>
        <time>2021-04-26T14:32:51Z</time>
      </trkpt>
      <trkpt lat="45.23586" lon="4.37565">
        <ele>984</ele>
        <time>2021-04-26T14:32:52Z</time>
      </trkpt>
      <trkpt lat="45.23588" lon="4.37561">
        <ele>984</ele>
        <time>2021-04-26T14:32:53Z</time>
      </trkpt>
      <trkpt lat="45.2359" lon="4.37556">
        <ele>984</ele>
        <time>2021-04-26T14:32:54Z</time>
      </trkpt>
      <trkpt lat="45.23593" lon="4.3755">
        <ele>984</ele>
        <time>2021-04-26T14:32:55Z</time>
      </trkpt>
      <trkpt lat="45.23596" lon="4.37545">
        <ele>984</ele>
        <time>2021-04-26T14:32:56Z</time>
      </trkpt>
      <trkpt lat="45.23599" lon="4.37541">
        <ele>984</ele>
        <time>2021-04-26T14:32:57Z</time>
      </trkpt>
      <trkpt lat="45.23602" lon="4.37536">
        <ele>983</ele>
        <time>2021-04-26T14:32:58Z</time>
      </trkpt>
      <trkpt lat="45.23606" lon="4.37531">
        <ele>983</ele>
        <time>2021-04-26T14:32:59Z</time>
      </trkpt>
      <trkpt lat="45.2361" lon="4.37528">
        <ele>983</ele>
        <time>2021-04-26T14:33:00Z</time>
      </trkpt>
      <trkpt lat="45.23613" lon="4.37525">
        <ele>983</ele>
        <time>2021-04-26T14:33:01Z</time>
      </trkpt>
      <trkpt lat="45.23617" lon="4.37522">
        <ele>983</ele>
        <time>2021-04-26T14:33:02Z</time>
      </trkpt>
      <trkpt lat="45.23621" lon="4.37518">
        <ele>984</ele>
        <time>2021-04-26T14:33:03Z</time>
      </trkpt>
      <trkpt lat="45.23625" lon="4.37515">
        <ele>984</ele>
        <time>2021-04-26T14:33:04Z</time>
      </trkpt>
      <trkpt lat="45.2363" lon="4.37513">
        <ele>984</ele>
        <time>2021-04-26T14:33:05Z</time>
      </trkpt>
      <trkpt lat="45.23633" lon="4.37509">
        <ele>984</ele>
        <time>2021-04-26T14:33:06Z</time>
      </trkpt>
      <trkpt lat="45.23637" lon="4.37505">
        <ele>984</ele>
        <time>2021-04-26T14:33:07Z</time>
      </trkpt>
      <trkpt lat="45.2364" lon="4.37502">
        <ele>984</ele>
        <time>2021-04-26T14:33:08Z</time>
      </trkpt>
      <trkpt lat="45.23644" lon="4.37498">
        <ele>984</ele>
        <time>2021-04-26T14:33:09Z</time>
      </trkpt>
      <trkpt lat="45.23647" lon="4.37496">
        <ele>984</ele>
        <time>2021-04-26T14:33:10Z</time>
      </trkpt>
      <trkpt lat="45.23651" lon="4.37495">
        <ele>984</ele>
        <time>2021-04-26T14:33:11Z</time>
      </trkpt>
      <trkpt lat="45.23658" lon="4.37493">
        <ele>984</ele>
        <time>2021-04-26T14:33:13Z</time>
      </trkpt>
      <trkpt lat="45.23662" lon="4.37491">
        <ele>984</ele>
        <time>2021-04-26T14:33:14Z</time>
      </trkpt>
      <trkpt lat="45.23667" lon="4.37489">
        <ele>984</ele>
        <time>2021-04-26T14:33:15Z</time>
      </trkpt>
      <trkpt lat="45.23671" lon="4.37487">
        <ele>984</ele>
        <time>2021-04-26T14:33:16Z</time>
      </trkpt>
      <trkpt lat="45.23675" lon="4.37485">
        <ele>984</ele>
        <time>2021-04-26T14:33:17Z</time>
      </trkpt>
      <trkpt lat="45.23678" lon="4.37484">
        <ele>984</ele>
        <time>2021-04-26T14:33:18Z</time>
      </trkpt>
      <trkpt lat="45.23681" lon="4.37482">
        <ele>985</ele>
        <time>2021-04-26T14:33:19Z</time>
      </trkpt>
      <trkpt lat="45.23684" lon="4.3748">
        <ele>985</ele>
        <time>2021-04-26T14:33:20Z</time>
      </trkpt>
      <trkpt lat="45.23687" lon="4.37477">
        <ele>985</ele>
        <time>2021-04-26T14:33:21Z</time>
      </trkpt>
      <trkpt lat="45.2369" lon="4.37475">
        <ele>985</ele>
        <time>2021-04-26T14:33:22Z</time>
      </trkpt>
      <trkpt lat="45.23694" lon="4.37472">
        <ele>985</ele>
        <time>2021-04-26T14:33:23Z</time>
      </trkpt>
      <trkpt lat="45.23698" lon="4.37468">
        <ele>985</ele>
        <time>2021-04-26T14:33:24Z</time>
      </trkpt>
      <trkpt lat="45.23702" lon="4.37466">
        <ele>985</ele>
        <time>2021-04-26T14:33:25Z</time>
      </trkpt>
      <trkpt lat="45.23707" lon="4.37463">
        <ele>985</ele>
        <time>2021-04-26T14:33:26Z</time>
      </trkpt>
      <trkpt lat="45.23711" lon="4.37461">
        <ele>985</ele>
        <time>2021-04-26T14:33:27Z</time>
      </trkpt>
      <trkpt lat="45.23715" lon="4.37458">
        <ele>986</ele>
        <time>2021-04-26T14:33:28Z</time>
      </trkpt>
      <trkpt lat="45.23718" lon="4.37456">
        <ele>986</ele>
        <time>2021-04-26T14:33:29Z</time>
      </trkpt>
      <trkpt lat="45.23724" lon="4.37452">
        <ele>986</ele>
        <time>2021-04-26T14:33:31Z</time>
      </trkpt>
      <trkpt lat="45.23727" lon="4.3745">
        <ele>986</ele>
        <time>2021-04-26T14:33:32Z</time>
      </trkpt>
      <trkpt lat="45.2373" lon="4.3745">
        <ele>986</ele>
        <time>2021-04-26T14:33:33Z</time>
      </trkpt>
      <trkpt lat="45.23733" lon="4.37449">
        <ele>987</ele>
        <time>2021-04-26T14:33:34Z</time>
      </trkpt>
      <trkpt lat="45.23735" lon="4.37447">
        <ele>987</ele>
        <time>2021-04-26T14:33:35Z</time>
      </trkpt>
      <trkpt lat="45.23737" lon="4.37445">
        <ele>987</ele>
        <time>2021-04-26T14:33:36Z</time>
      </trkpt>
      <trkpt lat="45.2374" lon="4.37443">
        <ele>987</ele>
        <time>2021-04-26T14:33:37Z</time>
      </trkpt>
      <trkpt lat="45.23743" lon="4.3744">
        <ele>987</ele>
        <time>2021-04-26T14:33:38Z</time>
      </trkpt>
      <trkpt lat="45.23745" lon="4.37438">
        <ele>987</ele>
        <time>2021-04-26T14:33:39Z</time>
      </trkpt>
      <trkpt lat="45.23749" lon="4.37435">
        <ele>987</ele>
        <time>2021-04-26T14:33:40Z</time>
      </trkpt>
      <trkpt lat="45.23756" lon="4.3743">
        <ele>988</ele>
        <time>2021-04-26T14:33:42Z</time>
      </trkpt>
      <trkpt lat="45.23762" lon="4.37427">
        <ele>988</ele>
        <time>2021-04-26T14:33:44Z</time>
      </trkpt>
      <trkpt lat="45.23766" lon="4.37426">
        <ele>988</ele>
        <time>2021-04-26T14:33:45Z</time>
      </trkpt>
      <trkpt lat="45.2377" lon="4.37424">
        <ele>988</ele>
        <time>2021-04-26T14:33:46Z</time>
      </trkpt>
      <trkpt lat="45.23774" lon="4.37423">
        <ele>988</ele>
        <time>2021-04-26T14:33:47Z</time>
      </trkpt>
      <trkpt lat="45.23779" lon="4.3742">
        <ele>988</ele>
        <time>2021-04-26T14:33:48Z</time>
      </trkpt>
      <trkpt lat="45.23783" lon="4.37418">
        <ele>989</ele>
        <time>2021-04-26T14:33:49Z</time>
      </trkpt>
      <trkpt lat="45.23792" lon="4.37414">
        <ele>989</ele>
        <time>2021-04-26T14:33:51Z</time>
      </trkpt>
      <trkpt lat="45.23795" lon="4.37411">
        <ele>989</ele>
        <time>2021-04-26T14:33:52Z</time>
      </trkpt>
      <trkpt lat="45.23798" lon="4.37409">
        <ele>989</ele>
        <time>2021-04-26T14:33:53Z</time>
      </trkpt>
      <trkpt lat="45.23801" lon="4.37407">
        <ele>989</ele>
        <time>2021-04-26T14:33:54Z</time>
      </trkpt>
      <trkpt lat="45.23804" lon="4.37406">
        <ele>990</ele>
        <time>2021-04-26T14:33:55Z</time>
      </trkpt>
      <trkpt lat="45.23808" lon="4.37404">
        <ele>990</ele>
        <time>2021-04-26T14:33:56Z</time>
      </trkpt>
      <trkpt lat="45.23812" lon="4.37403">
        <ele>990</ele>
        <time>2021-04-26T14:33:57Z</time>
      </trkpt>
      <trkpt lat="45.23816" lon="4.37401">
        <ele>990</ele>
        <time>2021-04-26T14:33:58Z</time>
      </trkpt>
      <trkpt lat="45.23819" lon="4.374">
        <ele>990</ele>
        <time>2021-04-26T14:33:59Z</time>
      </trkpt>
      <trkpt lat="45.23824" lon="4.37398">
        <ele>991</ele>
        <time>2021-04-26T14:34:00Z</time>
      </trkpt>
      <trkpt lat="45.23827" lon="4.37397">
        <ele>991</ele>
        <time>2021-04-26T14:34:01Z</time>
      </trkpt>
      <trkpt lat="45.23834" lon="4.37393">
        <ele>992</ele>
        <time>2021-04-26T14:34:03Z</time>
      </trkpt>
      <trkpt lat="45.23838" lon="4.37393">
        <ele>992</ele>
        <time>2021-04-26T14:34:04Z</time>
      </trkpt>
      <trkpt lat="45.23842" lon="4.37392">
        <ele>992</ele>
        <time>2021-04-26T14:34:05Z</time>
      </trkpt>
      <trkpt lat="45.23847" lon="4.37392">
        <ele>992</ele>
        <time>2021-04-26T14:34:06Z</time>
      </trkpt>
      <trkpt lat="45.23851" lon="4.37391">
        <ele>992</ele>
        <time>2021-04-26T14:34:07Z</time>
      </trkpt>
      <trkpt lat="45.23855" lon="4.3739">
        <ele>993</ele>
        <time>2021-04-26T14:34:08Z</time>
      </trkpt>
      <trkpt lat="45.23858" lon="4.37389">
        <ele>993</ele>
        <time>2021-04-26T14:34:09Z</time>
      </trkpt>
      <trkpt lat="45.23862" lon="4.37389">
        <ele>993</ele>
        <time>2021-04-26T14:34:10Z</time>
      </trkpt>
      <trkpt lat="45.23865" lon="4.37388">
        <ele>993</ele>
        <time>2021-04-26T14:34:11Z</time>
      </trkpt>
      <trkpt lat="45.23868" lon="4.37388">
        <ele>993</ele>
        <time>2021-04-26T14:34:12Z</time>
      </trkpt>
      <trkpt lat="45.23873" lon="4.37389">
        <ele>993</ele>
        <time>2021-04-26T14:34:14Z</time>
      </trkpt>
      <trkpt lat="45.23873" lon="4.37389">
        <ele>996</ele>
        <time>2021-04-26T14:34:22Z</time>
      </trkpt>
      <trkpt lat="45.23874" lon="4.37387">
        <ele>999</ele>
        <time>2021-04-26T14:35:00Z</time>
      </trkpt>
      <trkpt lat="45.23878" lon="4.37389">
        <ele>999</ele>
        <time>2021-04-26T14:35:01Z</time>
      </trkpt>
      <trkpt lat="45.2388" lon="4.37389">
        <ele>999</ele>
        <time>2021-04-26T14:35:02Z</time>
      </trkpt>
      <trkpt lat="45.23882" lon="4.37389">
        <ele>999</ele>
        <time>2021-04-26T14:35:03Z</time>
      </trkpt>
      <trkpt lat="45.23884" lon="4.3739">
        <ele>1000</ele>
        <time>2021-04-26T14:35:04Z</time>
      </trkpt>
      <trkpt lat="45.23886" lon="4.3739">
        <ele>1000</ele>
        <time>2021-04-26T14:35:05Z</time>
      </trkpt>
      <trkpt lat="45.23889" lon="4.3739">
        <ele>1000</ele>
        <time>2021-04-26T14:35:07Z</time>
      </trkpt>
      <trkpt lat="45.23891" lon="4.37391">
        <ele>1000</ele>
        <time>2021-04-26T14:35:08Z</time>
      </trkpt>
      <trkpt lat="45.23894" lon="4.37392">
        <ele>1000</ele>
        <time>2021-04-26T14:35:09Z</time>
      </trkpt>
      <trkpt lat="45.23904" lon="4.37394">
        <ele>999</ele>
        <time>2021-04-26T14:35:11Z</time>
      </trkpt>
      <trkpt lat="45.23914" lon="4.37395">
        <ele>999</ele>
        <time>2021-04-26T14:35:13Z</time>
      </trkpt>
      <trkpt lat="45.2392" lon="4.37395">
        <ele>998</ele>
        <time>2021-04-26T14:35:14Z</time>
      </trkpt>
      <trkpt lat="45.23927" lon="4.37397">
        <ele>998</ele>
        <time>2021-04-26T14:35:15Z</time>
      </trkpt>
      <trkpt lat="45.23941" lon="4.37397">
        <ele>998</ele>
        <time>2021-04-26T14:35:17Z</time>
      </trkpt>
      <trkpt lat="45.23955" lon="4.37399">
        <ele>998</ele>
        <time>2021-04-26T14:35:19Z</time>
      </trkpt>
      <trkpt lat="45.23969" lon="4.374">
        <ele>999</ele>
        <time>2021-04-26T14:35:21Z</time>
      </trkpt>
      <trkpt lat="45.23983" lon="4.37401">
        <ele>999</ele>
        <time>2021-04-26T14:35:23Z</time>
      </trkpt>
      <trkpt lat="45.2399" lon="4.37401">
        <ele>999</ele>
        <time>2021-04-26T14:35:24Z</time>
      </trkpt>
      <trkpt lat="45.23997" lon="4.37402">
        <ele>999</ele>
        <time>2021-04-26T14:35:25Z</time>
      </trkpt>
      <trkpt lat="45.24003" lon="4.37403">
        <ele>998</ele>
        <time>2021-04-26T14:35:26Z</time>
      </trkpt>
      <trkpt lat="45.24013" lon="4.37403">
        <ele>998</ele>
        <time>2021-04-26T14:35:28Z</time>
      </trkpt>
      <trkpt lat="45.24024" lon="4.37405">
        <ele>998</ele>
        <time>2021-04-26T14:35:30Z</time>
      </trkpt>
      <trkpt lat="45.2403" lon="4.37405">
        <ele>998</ele>
        <time>2021-04-26T14:35:31Z</time>
      </trkpt>
      <trkpt lat="45.24036" lon="4.37403">
        <ele>998</ele>
        <time>2021-04-26T14:35:32Z</time>
      </trkpt>
      <trkpt lat="45.24041" lon="4.37403">
        <ele>998</ele>
        <time>2021-04-26T14:35:33Z</time>
      </trkpt>
      <trkpt lat="45.24045" lon="4.37403">
        <ele>998</ele>
        <time>2021-04-26T14:35:34Z</time>
      </trkpt>
      <trkpt lat="45.2405" lon="4.37404">
        <ele>998</ele>
        <time>2021-04-26T14:35:35Z</time>
      </trkpt>
      <trkpt lat="45.24054" lon="4.37405">
        <ele>997</ele>
        <time>2021-04-26T14:35:36Z</time>
      </trkpt>
      <trkpt lat="45.24057" lon="4.37407">
        <ele>997</ele>
        <time>2021-04-26T14:35:37Z</time>
      </trkpt>
      <trkpt lat="45.24059" lon="4.3741">
        <ele>997</ele>
        <time>2021-04-26T14:35:38Z</time>
      </trkpt>
      <trkpt lat="45.24062" lon="4.37413">
        <ele>997</ele>
        <time>2021-04-26T14:35:39Z</time>
      </trkpt>
      <trkpt lat="45.24065" lon="4.37416">
        <ele>997</ele>
        <time>2021-04-26T14:35:40Z</time>
      </trkpt>
      <trkpt lat="45.24068" lon="4.37419">
        <ele>997</ele>
        <time>2021-04-26T14:35:41Z</time>
      </trkpt>
      <trkpt lat="45.24071" lon="4.37422">
        <ele>997</ele>
        <time>2021-04-26T14:35:42Z</time>
      </trkpt>
      <trkpt lat="45.24074" lon="4.37425">
        <ele>997</ele>
        <time>2021-04-26T14:35:43Z</time>
      </trkpt>
      <trkpt lat="45.24077" lon="4.37428">
        <ele>997</ele>
        <time>2021-04-26T14:35:44Z</time>
      </trkpt>
      <trkpt lat="45.2408" lon="4.37431">
        <ele>997</ele>
        <time>2021-04-26T14:35:45Z</time>
      </trkpt>
      <trkpt lat="45.24083" lon="4.37434">
        <ele>997</ele>
        <time>2021-04-26T14:35:46Z</time>
      </trkpt>
      <trkpt lat="45.24086" lon="4.37437">
        <ele>997</ele>
        <time>2021-04-26T14:35:47Z</time>
      </trkpt>
      <trkpt lat="45.24089" lon="4.37439">
        <ele>998</ele>
        <time>2021-04-26T14:35:48Z</time>
      </trkpt>
      <trkpt lat="45.24093" lon="4.37442">
        <ele>998</ele>
        <time>2021-04-26T14:35:49Z</time>
      </trkpt>
      <trkpt lat="45.24096" lon="4.37445">
        <ele>997</ele>
        <time>2021-04-26T14:35:50Z</time>
      </trkpt>
      <trkpt lat="45.241" lon="4.37446">
        <ele>997</ele>
        <time>2021-04-26T14:35:51Z</time>
      </trkpt>
      <trkpt lat="45.24104" lon="4.37449">
        <ele>997</ele>
        <time>2021-04-26T14:35:52Z</time>
      </trkpt>
      <trkpt lat="45.24107" lon="4.37451">
        <ele>997</ele>
        <time>2021-04-26T14:35:53Z</time>
      </trkpt>
      <trkpt lat="45.24111" lon="4.37453">
        <ele>997</ele>
        <time>2021-04-26T14:35:54Z</time>
      </trkpt>
      <trkpt lat="45.24114" lon="4.37455">
        <ele>997</ele>
        <time>2021-04-26T14:35:55Z</time>
      </trkpt>
      <trkpt lat="45.24117" lon="4.37458">
        <ele>998</ele>
        <time>2021-04-26T14:35:56Z</time>
      </trkpt>
      <trkpt lat="45.2412" lon="4.37461">
        <ele>998</ele>
        <time>2021-04-26T14:35:57Z</time>
      </trkpt>
      <trkpt lat="45.24123" lon="4.37465">
        <ele>998</ele>
        <time>2021-04-26T14:35:58Z</time>
      </trkpt>
      <trkpt lat="45.24125" lon="4.37468">
        <ele>998</ele>
        <time>2021-04-26T14:35:59Z</time>
      </trkpt>
      <trkpt lat="45.24128" lon="4.37471">
        <ele>998</ele>
        <time>2021-04-26T14:36:00Z</time>
      </trkpt>
      <trkpt lat="45.24131" lon="4.37474">
        <ele>998</ele>
        <time>2021-04-26T14:36:01Z</time>
      </trkpt>
      <trkpt lat="45.24133" lon="4.37477">
        <ele>998</ele>
        <time>2021-04-26T14:36:02Z</time>
      </trkpt>
      <trkpt lat="45.24135" lon="4.37481">
        <ele>997</ele>
        <time>2021-04-26T14:36:03Z</time>
      </trkpt>
      <trkpt lat="45.24137" lon="4.37484">
        <ele>997</ele>
        <time>2021-04-26T14:36:04Z</time>
      </trkpt>
      <trkpt lat="45.2414" lon="4.37487">
        <ele>997</ele>
        <time>2021-04-26T14:36:05Z</time>
      </trkpt>
      <trkpt lat="45.24142" lon="4.3749">
        <ele>997</ele>
        <time>2021-04-26T14:36:06Z</time>
      </trkpt>
      <trkpt lat="45.24145" lon="4.37494">
        <ele>997</ele>
        <time>2021-04-26T14:36:07Z</time>
      </trkpt>
      <trkpt lat="45.24148" lon="4.37497">
        <ele>997</ele>
        <time>2021-04-26T14:36:08Z</time>
      </trkpt>
      <trkpt lat="45.2415" lon="4.375">
        <ele>997</ele>
        <time>2021-04-26T14:36:09Z</time>
      </trkpt>
      <trkpt lat="45.24153" lon="4.37503">
        <ele>997</ele>
        <time>2021-04-26T14:36:10Z</time>
      </trkpt>
      <trkpt lat="45.24155" lon="4.37506">
        <ele>997</ele>
        <time>2021-04-26T14:36:11Z</time>
      </trkpt>
      <trkpt lat="45.24158" lon="4.37509">
        <ele>997</ele>
        <time>2021-04-26T14:36:12Z</time>
      </trkpt>
      <trkpt lat="45.24162" lon="4.37512">
        <ele>997</ele>
        <time>2021-04-26T14:36:13Z</time>
      </trkpt>
      <trkpt lat="45.24165" lon="4.37515">
        <ele>997</ele>
        <time>2021-04-26T14:36:14Z</time>
      </trkpt>
      <trkpt lat="45.24169" lon="4.37517">
        <ele>997</ele>
        <time>2021-04-26T14:36:15Z</time>
      </trkpt>
      <trkpt lat="45.24172" lon="4.37519">
        <ele>997</ele>
        <time>2021-04-26T14:36:16Z</time>
      </trkpt>
      <trkpt lat="45.24175" lon="4.37521">
        <ele>996</ele>
        <time>2021-04-26T14:36:17Z</time>
      </trkpt>
      <trkpt lat="45.24179" lon="4.37523">
        <ele>997</ele>
        <time>2021-04-26T14:36:18Z</time>
      </trkpt>
      <trkpt lat="45.24183" lon="4.37524">
        <ele>996</ele>
        <time>2021-04-26T14:36:19Z</time>
      </trkpt>
      <trkpt lat="45.24187" lon="4.37527">
        <ele>996</ele>
        <time>2021-04-26T14:36:20Z</time>
      </trkpt>
      <trkpt lat="45.24191" lon="4.3753">
        <ele>996</ele>
        <time>2021-04-26T14:36:21Z</time>
      </trkpt>
      <trkpt lat="45.24194" lon="4.37532">
        <ele>996</ele>
        <time>2021-04-26T14:36:22Z</time>
      </trkpt>
      <trkpt lat="45.24198" lon="4.37536">
        <ele>996</ele>
        <time>2021-04-26T14:36:23Z</time>
      </trkpt>
      <trkpt lat="45.24201" lon="4.37539">
        <ele>996</ele>
        <time>2021-04-26T14:36:24Z</time>
      </trkpt>
      <trkpt lat="45.24204" lon="4.37542">
        <ele>995</ele>
        <time>2021-04-26T14:36:25Z</time>
      </trkpt>
      <trkpt lat="45.24207" lon="4.37546">
        <ele>995</ele>
        <time>2021-04-26T14:36:26Z</time>
      </trkpt>
      <trkpt lat="45.2421" lon="4.3755">
        <ele>995</ele>
        <time>2021-04-26T14:36:27Z</time>
      </trkpt>
      <trkpt lat="45.24213" lon="4.37555">
        <ele>995</ele>
        <time>2021-04-26T14:36:28Z</time>
      </trkpt>
      <trkpt lat="45.24216" lon="4.3756">
        <ele>995</ele>
        <time>2021-04-26T14:36:29Z</time>
      </trkpt>
      <trkpt lat="45.24218" lon="4.37565">
        <ele>995</ele>
        <time>2021-04-26T14:36:30Z</time>
      </trkpt>
      <trkpt lat="45.2422" lon="4.3757">
        <ele>995</ele>
        <time>2021-04-26T14:36:31Z</time>
      </trkpt>
      <trkpt lat="45.24223" lon="4.37574">
        <ele>995</ele>
        <time>2021-04-26T14:36:32Z</time>
      </trkpt>
      <trkpt lat="45.24226" lon="4.37579">
        <ele>995</ele>
        <time>2021-04-26T14:36:33Z</time>
      </trkpt>
      <trkpt lat="45.24229" lon="4.37583">
        <ele>995</ele>
        <time>2021-04-26T14:36:34Z</time>
      </trkpt>
      <trkpt lat="45.24231" lon="4.37587">
        <ele>995</ele>
        <time>2021-04-26T14:36:35Z</time>
      </trkpt>
      <trkpt lat="45.24234" lon="4.37591">
        <ele>995</ele>
        <time>2021-04-26T14:36:36Z</time>
      </trkpt>
      <trkpt lat="45.24237" lon="4.37595">
        <ele>995</ele>
        <time>2021-04-26T14:36:37Z</time>
      </trkpt>
      <trkpt lat="45.2424" lon="4.37599">
        <ele>995</ele>
        <time>2021-04-26T14:36:38Z</time>
      </trkpt>
      <trkpt lat="45.24243" lon="4.37603">
        <ele>995</ele>
        <time>2021-04-26T14:36:39Z</time>
      </trkpt>
      <trkpt lat="45.24246" lon="4.37606">
        <ele>994</ele>
        <time>2021-04-26T14:36:40Z</time>
      </trkpt>
      <trkpt lat="45.24249" lon="4.37609">
        <ele>994</ele>
        <time>2021-04-26T14:36:41Z</time>
      </trkpt>
      <trkpt lat="45.24252" lon="4.37613">
        <ele>995</ele>
        <time>2021-04-26T14:36:42Z</time>
      </trkpt>
      <trkpt lat="45.24255" lon="4.37616">
        <ele>995</ele>
        <time>2021-04-26T14:36:43Z</time>
      </trkpt>
      <trkpt lat="45.24257" lon="4.37618">
        <ele>995</ele>
        <time>2021-04-26T14:36:44Z</time>
      </trkpt>
      <trkpt lat="45.2426" lon="4.37621">
        <ele>995</ele>
        <time>2021-04-26T14:36:45Z</time>
      </trkpt>
      <trkpt lat="45.24264" lon="4.37624">
        <ele>995</ele>
        <time>2021-04-26T14:36:46Z</time>
      </trkpt>
      <trkpt lat="45.24267" lon="4.37626">
        <ele>995</ele>
        <time>2021-04-26T14:36:47Z</time>
      </trkpt>
      <trkpt lat="45.24271" lon="4.37627">
        <ele>995</ele>
        <time>2021-04-26T14:36:48Z</time>
      </trkpt>
      <trkpt lat="45.24275" lon="4.37629">
        <ele>995</ele>
        <time>2021-04-26T14:36:49Z</time>
      </trkpt>
      <trkpt lat="45.24285" lon="4.37632">
        <ele>995</ele>
        <time>2021-04-26T14:36:51Z</time>
      </trkpt>
      <trkpt lat="45.24295" lon="4.37636">
        <ele>995</ele>
        <time>2021-04-26T14:36:53Z</time>
      </trkpt>
      <trkpt lat="45.243" lon="4.37638">
        <ele>995</ele>
        <time>2021-04-26T14:36:54Z</time>
      </trkpt>
      <trkpt lat="45.24306" lon="4.3764">
        <ele>995</ele>
        <time>2021-04-26T14:36:55Z</time>
      </trkpt>
      <trkpt lat="45.24312" lon="4.37642">
        <ele>995</ele>
        <time>2021-04-26T14:36:56Z</time>
      </trkpt>
      <trkpt lat="45.24318" lon="4.37645">
        <ele>995</ele>
        <time>2021-04-26T14:36:57Z</time>
      </trkpt>
      <trkpt lat="45.24326" lon="4.37647">
        <ele>994</ele>
        <time>2021-04-26T14:36:58Z</time>
      </trkpt>
      <trkpt lat="45.24333" lon="4.3765">
        <ele>994</ele>
        <time>2021-04-26T14:36:59Z</time>
      </trkpt>
      <trkpt lat="45.2434" lon="4.37654">
        <ele>994</ele>
        <time>2021-04-26T14:37:00Z</time>
      </trkpt>
      <trkpt lat="45.24348" lon="4.37658">
        <ele>994</ele>
        <time>2021-04-26T14:37:01Z</time>
      </trkpt>
      <trkpt lat="45.24355" lon="4.37662">
        <ele>993</ele>
        <time>2021-04-26T14:37:02Z</time>
      </trkpt>
      <trkpt lat="45.24363" lon="4.37666">
        <ele>993</ele>
        <time>2021-04-26T14:37:03Z</time>
      </trkpt>
      <trkpt lat="45.2437" lon="4.37671">
        <ele>993</ele>
        <time>2021-04-26T14:37:04Z</time>
      </trkpt>
      <trkpt lat="45.24376" lon="4.37675">
        <ele>992</ele>
        <time>2021-04-26T14:37:05Z</time>
      </trkpt>
      <trkpt lat="45.24381" lon="4.3768">
        <ele>992</ele>
        <time>2021-04-26T14:37:06Z</time>
      </trkpt>
      <trkpt lat="45.24384" lon="4.37684">
        <ele>992</ele>
        <time>2021-04-26T14:37:07Z</time>
      </trkpt>
      <trkpt lat="45.24385" lon="4.37686">
        <ele>991</ele>
        <time>2021-04-26T14:37:09Z</time>
      </trkpt>
      <trkpt lat="45.24386" lon="4.3769">
        <ele>991</ele>
        <time>2021-04-26T14:37:11Z</time>
      </trkpt>
      <trkpt lat="45.24387" lon="4.37693">
        <ele>991</ele>
        <time>2021-04-26T14:37:12Z</time>
      </trkpt>
      <trkpt lat="45.24387" lon="4.37696">
        <ele>991</ele>
        <time>2021-04-26T14:37:13Z</time>
      </trkpt>
      <trkpt lat="45.24387" lon="4.377">
        <ele>991</ele>
        <time>2021-04-26T14:37:14Z</time>
      </trkpt>
      <trkpt lat="45.24387" lon="4.37705">
        <ele>990</ele>
        <time>2021-04-26T14:37:15Z</time>
      </trkpt>
      <trkpt lat="45.24387" lon="4.3771">
        <ele>990</ele>
        <time>2021-04-26T14:37:16Z</time>
      </trkpt>
      <trkpt lat="45.24387" lon="4.37715">
        <ele>990</ele>
        <time>2021-04-26T14:37:17Z</time>
      </trkpt>
      <trkpt lat="45.24387" lon="4.3772">
        <ele>990</ele>
        <time>2021-04-26T14:37:18Z</time>
      </trkpt>
      <trkpt lat="45.24387" lon="4.37725">
        <ele>990</ele>
        <time>2021-04-26T14:37:19Z</time>
      </trkpt>
      <trkpt lat="45.24386" lon="4.3773">
        <ele>990</ele>
        <time>2021-04-26T14:37:20Z</time>
      </trkpt>
      <trkpt lat="45.24386" lon="4.37735">
        <ele>990</ele>
        <time>2021-04-26T14:37:21Z</time>
      </trkpt>
      <trkpt lat="45.24385" lon="4.3774">
        <ele>990</ele>
        <time>2021-04-26T14:37:22Z</time>
      </trkpt>
      <trkpt lat="45.24385" lon="4.37745">
        <ele>989</ele>
        <time>2021-04-26T14:37:23Z</time>
      </trkpt>
      <trkpt lat="45.24384" lon="4.37751">
        <ele>989</ele>
        <time>2021-04-26T14:37:24Z</time>
      </trkpt>
      <trkpt lat="45.24383" lon="4.37756">
        <ele>989</ele>
        <time>2021-04-26T14:37:25Z</time>
      </trkpt>
      <trkpt lat="45.24383" lon="4.37762">
        <ele>989</ele>
        <time>2021-04-26T14:37:26Z</time>
      </trkpt>
      <trkpt lat="45.24382" lon="4.37768">
        <ele>989</ele>
        <time>2021-04-26T14:37:27Z</time>
      </trkpt>
      <trkpt lat="45.24381" lon="4.37773">
        <ele>989</ele>
        <time>2021-04-26T14:37:28Z</time>
      </trkpt>
      <trkpt lat="45.24381" lon="4.37779">
        <ele>989</ele>
        <time>2021-04-26T14:37:29Z</time>
      </trkpt>
      <trkpt lat="45.2438" lon="4.37785">
        <ele>988</ele>
        <time>2021-04-26T14:37:30Z</time>
      </trkpt>
      <trkpt lat="45.24379" lon="4.37791">
        <ele>988</ele>
        <time>2021-04-26T14:37:31Z</time>
      </trkpt>
      <trkpt lat="45.24379" lon="4.37797">
        <ele>988</ele>
        <time>2021-04-26T14:37:32Z</time>
      </trkpt>
      <trkpt lat="45.24378" lon="4.37802">
        <ele>988</ele>
        <time>2021-04-26T14:37:33Z</time>
      </trkpt>
      <trkpt lat="45.24377" lon="4.37808">
        <ele>988</ele>
        <time>2021-04-26T14:37:34Z</time>
      </trkpt>
      <trkpt lat="45.24376" lon="4.37814">
        <ele>988</ele>
        <time>2021-04-26T14:37:35Z</time>
      </trkpt>
      <trkpt lat="45.24375" lon="4.37819">
        <ele>988</ele>
        <time>2021-04-26T14:37:36Z</time>
      </trkpt>
      <trkpt lat="45.24374" lon="4.37825">
        <ele>988</ele>
        <time>2021-04-26T14:37:37Z</time>
      </trkpt>
      <trkpt lat="45.24373" lon="4.37831">
        <ele>988</ele>
        <time>2021-04-26T14:37:38Z</time>
      </trkpt>
      <trkpt lat="45.24372" lon="4.37837">
        <ele>987</ele>
        <time>2021-04-26T14:37:39Z</time>
      </trkpt>
      <trkpt lat="45.2437" lon="4.37843">
        <ele>987</ele>
        <time>2021-04-26T14:37:40Z</time>
      </trkpt>
      <trkpt lat="45.24369" lon="4.37848">
        <ele>987</ele>
        <time>2021-04-26T14:37:41Z</time>
      </trkpt>
      <trkpt lat="45.24367" lon="4.37853">
        <ele>987</ele>
        <time>2021-04-26T14:37:42Z</time>
      </trkpt>
      <trkpt lat="45.24366" lon="4.37858">
        <ele>987</ele>
        <time>2021-04-26T14:37:43Z</time>
      </trkpt>
      <trkpt lat="45.24364" lon="4.37863">
        <ele>987</ele>
        <time>2021-04-26T14:37:44Z</time>
      </trkpt>
      <trkpt lat="45.24362" lon="4.37868">
        <ele>987</ele>
        <time>2021-04-26T14:37:45Z</time>
      </trkpt>
      <trkpt lat="45.2436" lon="4.37873">
        <ele>987</ele>
        <time>2021-04-26T14:37:46Z</time>
      </trkpt>
      <trkpt lat="45.24358" lon="4.37878">
        <ele>987</ele>
        <time>2021-04-26T14:37:47Z</time>
      </trkpt>
      <trkpt lat="45.24356" lon="4.37883">
        <ele>987</ele>
        <time>2021-04-26T14:37:48Z</time>
      </trkpt>
      <trkpt lat="45.24353" lon="4.37888">
        <ele>987</ele>
        <time>2021-04-26T14:37:49Z</time>
      </trkpt>
      <trkpt lat="45.24351" lon="4.37893">
        <ele>987</ele>
        <time>2021-04-26T14:37:50Z</time>
      </trkpt>
      <trkpt lat="45.24348" lon="4.37899">
        <ele>987</ele>
        <time>2021-04-26T14:37:51Z</time>
      </trkpt>
      <trkpt lat="45.24345" lon="4.37905">
        <ele>986</ele>
        <time>2021-04-26T14:37:52Z</time>
      </trkpt>
      <trkpt lat="45.24343" lon="4.37911">
        <ele>986</ele>
        <time>2021-04-26T14:37:53Z</time>
      </trkpt>
      <trkpt lat="45.2434" lon="4.37917">
        <ele>986</ele>
        <time>2021-04-26T14:37:54Z</time>
      </trkpt>
      <trkpt lat="45.24338" lon="4.37923">
        <ele>986</ele>
        <time>2021-04-26T14:37:55Z</time>
      </trkpt>
      <trkpt lat="45.24337" lon="4.3793">
        <ele>985</ele>
        <time>2021-04-26T14:37:56Z</time>
      </trkpt>
      <trkpt lat="45.24335" lon="4.37937">
        <ele>985</ele>
        <time>2021-04-26T14:37:57Z</time>
      </trkpt>
      <trkpt lat="45.24334" lon="4.37944">
        <ele>985</ele>
        <time>2021-04-26T14:37:58Z</time>
      </trkpt>
      <trkpt lat="45.24333" lon="4.37951">
        <ele>985</ele>
        <time>2021-04-26T14:37:59Z</time>
      </trkpt>
      <trkpt lat="45.24332" lon="4.37959">
        <ele>984</ele>
        <time>2021-04-26T14:38:00Z</time>
      </trkpt>
      <trkpt lat="45.24332" lon="4.37966">
        <ele>984</ele>
        <time>2021-04-26T14:38:01Z</time>
      </trkpt>
      <trkpt lat="45.24332" lon="4.37973">
        <ele>984</ele>
        <time>2021-04-26T14:38:02Z</time>
      </trkpt>
      <trkpt lat="45.24332" lon="4.3798">
        <ele>983</ele>
        <time>2021-04-26T14:38:03Z</time>
      </trkpt>
      <trkpt lat="45.24331" lon="4.37987">
        <ele>983</ele>
        <time>2021-04-26T14:38:04Z</time>
      </trkpt>
      <trkpt lat="45.24331" lon="4.37993">
        <ele>982</ele>
        <time>2021-04-26T14:38:05Z</time>
      </trkpt>
      <trkpt lat="45.2433" lon="4.37999">
        <ele>982</ele>
        <time>2021-04-26T14:38:06Z</time>
      </trkpt>
      <trkpt lat="45.2433" lon="4.38005">
        <ele>982</ele>
        <time>2021-04-26T14:38:07Z</time>
      </trkpt>
      <trkpt lat="45.2433" lon="4.38012">
        <ele>981</ele>
        <time>2021-04-26T14:38:08Z</time>
      </trkpt>
      <trkpt lat="45.24331" lon="4.38019">
        <ele>981</ele>
        <time>2021-04-26T14:38:09Z</time>
      </trkpt>
      <trkpt lat="45.24333" lon="4.38026">
        <ele>981</ele>
        <time>2021-04-26T14:38:10Z</time>
      </trkpt>
      <trkpt lat="45.24335" lon="4.38033">
        <ele>981</ele>
        <time>2021-04-26T14:38:11Z</time>
      </trkpt>
      <trkpt lat="45.24337" lon="4.38039">
        <ele>981</ele>
        <time>2021-04-26T14:38:12Z</time>
      </trkpt>
      <trkpt lat="45.2434" lon="4.38046">
        <ele>981</ele>
        <time>2021-04-26T14:38:13Z</time>
      </trkpt>
      <trkpt lat="45.24344" lon="4.38051">
        <ele>981</ele>
        <time>2021-04-26T14:38:14Z</time>
      </trkpt>
      <trkpt lat="45.24348" lon="4.38056">
        <ele>980</ele>
        <time>2021-04-26T14:38:15Z</time>
      </trkpt>
      <trkpt lat="45.24352" lon="4.3806">
        <ele>980</ele>
        <time>2021-04-26T14:38:16Z</time>
      </trkpt>
      <trkpt lat="45.24357" lon="4.38064">
        <ele>980</ele>
        <time>2021-04-26T14:38:17Z</time>
      </trkpt>
      <trkpt lat="45.24361" lon="4.38068">
        <ele>980</ele>
        <time>2021-04-26T14:38:18Z</time>
      </trkpt>
      <trkpt lat="45.24366" lon="4.38072">
        <ele>980</ele>
        <time>2021-04-26T14:38:19Z</time>
      </trkpt>
      <trkpt lat="45.24371" lon="4.38075">
        <ele>980</ele>
        <time>2021-04-26T14:38:20Z</time>
      </trkpt>
      <trkpt lat="45.24375" lon="4.38078">
        <ele>980</ele>
        <time>2021-04-26T14:38:21Z</time>
      </trkpt>
      <trkpt lat="45.24379" lon="4.3808">
        <ele>980</ele>
        <time>2021-04-26T14:38:22Z</time>
      </trkpt>
      <trkpt lat="45.24384" lon="4.38083">
        <ele>980</ele>
        <time>2021-04-26T14:38:23Z</time>
      </trkpt>
      <trkpt lat="45.24389" lon="4.38085">
        <ele>980</ele>
        <time>2021-04-26T14:38:24Z</time>
      </trkpt>
      <trkpt lat="45.24395" lon="4.38088">
        <ele>980</ele>
        <time>2021-04-26T14:38:25Z</time>
      </trkpt>
      <trkpt lat="45.244" lon="4.38091">
        <ele>980</ele>
        <time>2021-04-26T14:38:26Z</time>
      </trkpt>
      <trkpt lat="45.24406" lon="4.38095">
        <ele>979</ele>
        <time>2021-04-26T14:38:27Z</time>
      </trkpt>
      <trkpt lat="45.24412" lon="4.38099">
        <ele>979</ele>
        <time>2021-04-26T14:38:28Z</time>
      </trkpt>
      <trkpt lat="45.24419" lon="4.38105">
        <ele>979</ele>
        <time>2021-04-26T14:38:29Z</time>
      </trkpt>
      <trkpt lat="45.24426" lon="4.38111">
        <ele>977</ele>
        <time>2021-04-26T14:38:30Z</time>
      </trkpt>
      <trkpt lat="45.24434" lon="4.38117">
        <ele>977</ele>
        <time>2021-04-26T14:38:31Z</time>
      </trkpt>
      <trkpt lat="45.24442" lon="4.38123">
        <ele>976</ele>
        <time>2021-04-26T14:38:32Z</time>
      </trkpt>
      <trkpt lat="45.24451" lon="4.38129">
        <ele>975</ele>
        <time>2021-04-26T14:38:33Z</time>
      </trkpt>
      <trkpt lat="45.24461" lon="4.38134">
        <ele>974</ele>
        <time>2021-04-26T14:38:34Z</time>
      </trkpt>
      <trkpt lat="45.24471" lon="4.38139">
        <ele>973</ele>
        <time>2021-04-26T14:38:35Z</time>
      </trkpt>
      <trkpt lat="45.2448" lon="4.38145">
        <ele>973</ele>
        <time>2021-04-26T14:38:36Z</time>
      </trkpt>
      <trkpt lat="45.24489" lon="4.3815">
        <ele>972</ele>
        <time>2021-04-26T14:38:37Z</time>
      </trkpt>
      <trkpt lat="45.24498" lon="4.38157">
        <ele>971</ele>
        <time>2021-04-26T14:38:38Z</time>
      </trkpt>
      <trkpt lat="45.24507" lon="4.38164">
        <ele>970</ele>
        <time>2021-04-26T14:38:39Z</time>
      </trkpt>
      <trkpt lat="45.24515" lon="4.38172">
        <ele>970</ele>
        <time>2021-04-26T14:38:40Z</time>
      </trkpt>
      <trkpt lat="45.24524" lon="4.38179">
        <ele>970</ele>
        <time>2021-04-26T14:38:41Z</time>
      </trkpt>
      <trkpt lat="45.24532" lon="4.38187">
        <ele>968</ele>
        <time>2021-04-26T14:38:42Z</time>
      </trkpt>
      <trkpt lat="45.24541" lon="4.38194">
        <ele>967</ele>
        <time>2021-04-26T14:38:43Z</time>
      </trkpt>
      <trkpt lat="45.24548" lon="4.38202">
        <ele>967</ele>
        <time>2021-04-26T14:38:44Z</time>
      </trkpt>
      <trkpt lat="45.24556" lon="4.3821">
        <ele>966</ele>
        <time>2021-04-26T14:38:45Z</time>
      </trkpt>
      <trkpt lat="45.24563" lon="4.38218">
        <ele>966</ele>
        <time>2021-04-26T14:38:46Z</time>
      </trkpt>
      <trkpt lat="45.2457" lon="4.38226">
        <ele>965</ele>
        <time>2021-04-26T14:38:47Z</time>
      </trkpt>
      <trkpt lat="45.24577" lon="4.38235">
        <ele>965</ele>
        <time>2021-04-26T14:38:48Z</time>
      </trkpt>
      <trkpt lat="45.24584" lon="4.38243">
        <ele>964</ele>
        <time>2021-04-26T14:38:49Z</time>
      </trkpt>
      <trkpt lat="45.24591" lon="4.38251">
        <ele>963</ele>
        <time>2021-04-26T14:38:50Z</time>
      </trkpt>
      <trkpt lat="45.24597" lon="4.38259">
        <ele>962</ele>
        <time>2021-04-26T14:38:51Z</time>
      </trkpt>
      <trkpt lat="45.24604" lon="4.38267">
        <ele>962</ele>
        <time>2021-04-26T14:38:52Z</time>
      </trkpt>
      <trkpt lat="45.2461" lon="4.38275">
        <ele>961</ele>
        <time>2021-04-26T14:38:53Z</time>
      </trkpt>
      <trkpt lat="45.24616" lon="4.38283">
        <ele>961</ele>
        <time>2021-04-26T14:38:54Z</time>
      </trkpt>
      <trkpt lat="45.24622" lon="4.38291">
        <ele>960</ele>
        <time>2021-04-26T14:38:55Z</time>
      </trkpt>
      <trkpt lat="45.24628" lon="4.38299">
        <ele>960</ele>
        <time>2021-04-26T14:38:56Z</time>
      </trkpt>
      <trkpt lat="45.24633" lon="4.38307">
        <ele>960</ele>
        <time>2021-04-26T14:38:57Z</time>
      </trkpt>
      <trkpt lat="45.24638" lon="4.38315">
        <ele>960</ele>
        <time>2021-04-26T14:38:58Z</time>
      </trkpt>
      <trkpt lat="45.24642" lon="4.38324">
        <ele>959</ele>
        <time>2021-04-26T14:38:59Z</time>
      </trkpt>
      <trkpt lat="45.24646" lon="4.38333">
        <ele>958</ele>
        <time>2021-04-26T14:39:00Z</time>
      </trkpt>
      <trkpt lat="45.24649" lon="4.38342">
        <ele>958</ele>
        <time>2021-04-26T14:39:01Z</time>
      </trkpt>
      <trkpt lat="45.2465" lon="4.38351">
        <ele>958</ele>
        <time>2021-04-26T14:39:02Z</time>
      </trkpt>
      <trkpt lat="45.24651" lon="4.3836">
        <ele>958</ele>
        <time>2021-04-26T14:39:03Z</time>
      </trkpt>
      <trkpt lat="45.24653" lon="4.38368">
        <ele>957</ele>
        <time>2021-04-26T14:39:04Z</time>
      </trkpt>
      <trkpt lat="45.24654" lon="4.38376">
        <ele>957</ele>
        <time>2021-04-26T14:39:05Z</time>
      </trkpt>
      <trkpt lat="45.24657" lon="4.38385">
        <ele>957</ele>
        <time>2021-04-26T14:39:06Z</time>
      </trkpt>
      <trkpt lat="45.24659" lon="4.38393">
        <ele>957</ele>
        <time>2021-04-26T14:39:07Z</time>
      </trkpt>
      <trkpt lat="45.24661" lon="4.38402">
        <ele>957</ele>
        <time>2021-04-26T14:39:08Z</time>
      </trkpt>
      <trkpt lat="45.24663" lon="4.3841">
        <ele>957</ele>
        <time>2021-04-26T14:39:09Z</time>
      </trkpt>
      <trkpt lat="45.24666" lon="4.38419">
        <ele>957</ele>
        <time>2021-04-26T14:39:10Z</time>
      </trkpt>
      <trkpt lat="45.24669" lon="4.38428">
        <ele>957</ele>
        <time>2021-04-26T14:39:11Z</time>
      </trkpt>
      <trkpt lat="45.24672" lon="4.38436">
        <ele>957</ele>
        <time>2021-04-26T14:39:12Z</time>
      </trkpt>
      <trkpt lat="45.24675" lon="4.38444">
        <ele>957</ele>
        <time>2021-04-26T14:39:13Z</time>
      </trkpt>
      <trkpt lat="45.24678" lon="4.38452">
        <ele>957</ele>
        <time>2021-04-26T14:39:14Z</time>
      </trkpt>
      <trkpt lat="45.24681" lon="4.38459">
        <ele>957</ele>
        <time>2021-04-26T14:39:15Z</time>
      </trkpt>
      <trkpt lat="45.24683" lon="4.38466">
        <ele>957</ele>
        <time>2021-04-26T14:39:16Z</time>
      </trkpt>
      <trkpt lat="45.24686" lon="4.38473">
        <ele>957</ele>
        <time>2021-04-26T14:39:17Z</time>
      </trkpt>
      <trkpt lat="45.24689" lon="4.3848">
        <ele>957</ele>
        <time>2021-04-26T14:39:18Z</time>
      </trkpt>
      <trkpt lat="45.24691" lon="4.38486">
        <ele>957</ele>
        <time>2021-04-26T14:39:19Z</time>
      </trkpt>
      <trkpt lat="45.24693" lon="4.38492">
        <ele>957</ele>
        <time>2021-04-26T14:39:20Z</time>
      </trkpt>
      <trkpt lat="45.24695" lon="4.38497">
        <ele>957</ele>
        <time>2021-04-26T14:39:21Z</time>
      </trkpt>
      <trkpt lat="45.24698" lon="4.38502">
        <ele>958</ele>
        <time>2021-04-26T14:39:22Z</time>
      </trkpt>
      <trkpt lat="45.24699" lon="4.38507">
        <ele>958</ele>
        <time>2021-04-26T14:39:23Z</time>
      </trkpt>
      <trkpt lat="45.24701" lon="4.38512">
        <ele>958</ele>
        <time>2021-04-26T14:39:24Z</time>
      </trkpt>
      <trkpt lat="45.24701" lon="4.38517">
        <ele>958</ele>
        <time>2021-04-26T14:39:25Z</time>
      </trkpt>
      <trkpt lat="45.247" lon="4.38522">
        <ele>958</ele>
        <time>2021-04-26T14:39:26Z</time>
      </trkpt>
      <trkpt lat="45.24699" lon="4.38526">
        <ele>958</ele>
        <time>2021-04-26T14:39:27Z</time>
      </trkpt>
      <trkpt lat="45.24697" lon="4.3853">
        <ele>958</ele>
        <time>2021-04-26T14:39:28Z</time>
      </trkpt>
      <trkpt lat="45.24695" lon="4.38534">
        <ele>959</ele>
        <time>2021-04-26T14:39:29Z</time>
      </trkpt>
      <trkpt lat="45.24692" lon="4.38538">
        <ele>959</ele>
        <time>2021-04-26T14:39:30Z</time>
      </trkpt>
      <trkpt lat="45.24691" lon="4.38542">
        <ele>959</ele>
        <time>2021-04-26T14:39:31Z</time>
      </trkpt>
      <trkpt lat="45.24688" lon="4.38547">
        <ele>959</ele>
        <time>2021-04-26T14:39:32Z</time>
      </trkpt>
      <trkpt lat="45.24685" lon="4.38551">
        <ele>959</ele>
        <time>2021-04-26T14:39:33Z</time>
      </trkpt>
      <trkpt lat="45.2468" lon="4.38556">
        <ele>959</ele>
        <time>2021-04-26T14:39:34Z</time>
      </trkpt>
      <trkpt lat="45.24676" lon="4.38561">
        <ele>959</ele>
        <time>2021-04-26T14:39:35Z</time>
      </trkpt>
      <trkpt lat="45.24672" lon="4.38566">
        <ele>959</ele>
        <time>2021-04-26T14:39:36Z</time>
      </trkpt>
      <trkpt lat="45.24667" lon="4.38572">
        <ele>960</ele>
        <time>2021-04-26T14:39:37Z</time>
      </trkpt>
      <trkpt lat="45.24664" lon="4.38578">
        <ele>960</ele>
        <time>2021-04-26T14:39:38Z</time>
      </trkpt>
      <trkpt lat="45.2466" lon="4.38583">
        <ele>959</ele>
        <time>2021-04-26T14:39:39Z</time>
      </trkpt>
      <trkpt lat="45.24656" lon="4.38588">
        <ele>959</ele>
        <time>2021-04-26T14:39:40Z</time>
      </trkpt>
      <trkpt lat="45.24653" lon="4.38592">
        <ele>959</ele>
        <time>2021-04-26T14:39:41Z</time>
      </trkpt>
      <trkpt lat="45.2465" lon="4.38596">
        <ele>958</ele>
        <time>2021-04-26T14:39:42Z</time>
      </trkpt>
      <trkpt lat="45.24647" lon="4.386">
        <ele>958</ele>
        <time>2021-04-26T14:39:43Z</time>
      </trkpt>
      <trkpt lat="45.24644" lon="4.38604">
        <ele>958</ele>
        <time>2021-04-26T14:39:44Z</time>
      </trkpt>
      <trkpt lat="45.24641" lon="4.38608">
        <ele>958</ele>
        <time>2021-04-26T14:39:45Z</time>
      </trkpt>
      <trkpt lat="45.24638" lon="4.38611">
        <ele>958</ele>
        <time>2021-04-26T14:39:46Z</time>
      </trkpt>
      <trkpt lat="45.24636" lon="4.38614">
        <ele>957</ele>
        <time>2021-04-26T14:39:47Z</time>
      </trkpt>
      <trkpt lat="45.24635" lon="4.38616">
        <ele>957</ele>
        <time>2021-04-26T14:39:51Z</time>
      </trkpt>
      <trkpt lat="45.24635" lon="4.38616">
        <ele>957</ele>
        <time>2021-04-26T14:39:54Z</time>
      </trkpt>
      <trkpt lat="45.24626" lon="4.38621">
        <ele>958</ele>
        <time>2021-04-26T14:42:24Z</time>
      </trkpt>
      <trkpt lat="45.24624" lon="4.38623">
        <ele>958</ele>
        <time>2021-04-26T14:42:25Z</time>
      </trkpt>
      <trkpt lat="45.24622" lon="4.38626">
        <ele>958</ele>
        <time>2021-04-26T14:42:26Z</time>
      </trkpt>
      <trkpt lat="45.2462" lon="4.38628">
        <ele>958</ele>
        <time>2021-04-26T14:42:27Z</time>
      </trkpt>
      <trkpt lat="45.24617" lon="4.3863">
        <ele>958</ele>
        <time>2021-04-26T14:42:28Z</time>
      </trkpt>
      <trkpt lat="45.24614" lon="4.38633">
        <ele>957</ele>
        <time>2021-04-26T14:42:29Z</time>
      </trkpt>
      <trkpt lat="45.24611" lon="4.38636">
        <ele>957</ele>
        <time>2021-04-26T14:42:30Z</time>
      </trkpt>
      <trkpt lat="45.24608" lon="4.38638">
        <ele>957</ele>
        <time>2021-04-26T14:42:31Z</time>
      </trkpt>
      <trkpt lat="45.24605" lon="4.38641">
        <ele>957</ele>
        <time>2021-04-26T14:42:32Z</time>
      </trkpt>
      <trkpt lat="45.24603" lon="4.38644">
        <ele>957</ele>
        <time>2021-04-26T14:42:33Z</time>
      </trkpt>
      <trkpt lat="45.246" lon="4.38647">
        <ele>957</ele>
        <time>2021-04-26T14:42:34Z</time>
      </trkpt>
      <trkpt lat="45.24596" lon="4.3865">
        <ele>957</ele>
        <time>2021-04-26T14:42:35Z</time>
      </trkpt>
      <trkpt lat="45.24593" lon="4.38653">
        <ele>957</ele>
        <time>2021-04-26T14:42:36Z</time>
      </trkpt>
      <trkpt lat="45.2459" lon="4.38656">
        <ele>957</ele>
        <time>2021-04-26T14:42:37Z</time>
      </trkpt>
      <trkpt lat="45.24587" lon="4.38659">
        <ele>957</ele>
        <time>2021-04-26T14:42:38Z</time>
      </trkpt>
      <trkpt lat="45.24584" lon="4.38662">
        <ele>957</ele>
        <time>2021-04-26T14:42:39Z</time>
      </trkpt>
      <trkpt lat="45.24581" lon="4.38665">
        <ele>957</ele>
        <time>2021-04-26T14:42:40Z</time>
      </trkpt>
      <trkpt lat="45.24577" lon="4.38668">
        <ele>958</ele>
        <time>2021-04-26T14:42:41Z</time>
      </trkpt>
      <trkpt lat="45.24574" lon="4.38671">
        <ele>958</ele>
        <time>2021-04-26T14:42:42Z</time>
      </trkpt>
      <trkpt lat="45.24571" lon="4.38675">
        <ele>958</ele>
        <time>2021-04-26T14:42:43Z</time>
      </trkpt>
      <trkpt lat="45.24568" lon="4.38678">
        <ele>958</ele>
        <time>2021-04-26T14:42:44Z</time>
      </trkpt>
      <trkpt lat="45.24565" lon="4.3868">
        <ele>958</ele>
        <time>2021-04-26T14:42:45Z</time>
      </trkpt>
      <trkpt lat="45.24562" lon="4.38683">
        <ele>958</ele>
        <time>2021-04-26T14:42:46Z</time>
      </trkpt>
      <trkpt lat="45.2456" lon="4.38686">
        <ele>958</ele>
        <time>2021-04-26T14:42:47Z</time>
      </trkpt>
      <trkpt lat="45.24557" lon="4.38689">
        <ele>958</ele>
        <time>2021-04-26T14:42:48Z</time>
      </trkpt>
      <trkpt lat="45.24555" lon="4.38692">
        <ele>958</ele>
        <time>2021-04-26T14:42:49Z</time>
      </trkpt>
      <trkpt lat="45.24554" lon="4.38696">
        <ele>958</ele>
        <time>2021-04-26T14:42:50Z</time>
      </trkpt>
      <trkpt lat="45.24553" lon="4.38699">
        <ele>958</ele>
        <time>2021-04-26T14:42:51Z</time>
      </trkpt>
      <trkpt lat="45.2455" lon="4.38701">
        <ele>958</ele>
        <time>2021-04-26T14:42:52Z</time>
      </trkpt>
      <trkpt lat="45.24547" lon="4.38704">
        <ele>958</ele>
        <time>2021-04-26T14:42:53Z</time>
      </trkpt>
      <trkpt lat="45.24545" lon="4.38707">
        <ele>958</ele>
        <time>2021-04-26T14:42:54Z</time>
      </trkpt>
      <trkpt lat="45.24542" lon="4.38708">
        <ele>958</ele>
        <time>2021-04-26T14:42:55Z</time>
      </trkpt>
      <trkpt lat="45.24539" lon="4.3871">
        <ele>958</ele>
        <time>2021-04-26T14:42:56Z</time>
      </trkpt>
      <trkpt lat="45.24536" lon="4.38712">
        <ele>958</ele>
        <time>2021-04-26T14:42:57Z</time>
      </trkpt>
      <trkpt lat="45.24531" lon="4.38715">
        <ele>958</ele>
        <time>2021-04-26T14:42:58Z</time>
      </trkpt>
      <trkpt lat="45.24527" lon="4.38719">
        <ele>959</ele>
        <time>2021-04-26T14:42:59Z</time>
      </trkpt>
      <trkpt lat="45.24523" lon="4.38722">
        <ele>959</ele>
        <time>2021-04-26T14:43:00Z</time>
      </trkpt>
      <trkpt lat="45.24519" lon="4.38725">
        <ele>959</ele>
        <time>2021-04-26T14:43:01Z</time>
      </trkpt>
      <trkpt lat="45.24515" lon="4.38729">
        <ele>959</ele>
        <time>2021-04-26T14:43:02Z</time>
      </trkpt>
      <trkpt lat="45.2451" lon="4.38733">
        <ele>959</ele>
        <time>2021-04-26T14:43:03Z</time>
      </trkpt>
      <trkpt lat="45.24505" lon="4.38737">
        <ele>959</ele>
        <time>2021-04-26T14:43:04Z</time>
      </trkpt>
      <trkpt lat="45.24501" lon="4.3874">
        <ele>959</ele>
        <time>2021-04-26T14:43:05Z</time>
      </trkpt>
      <trkpt lat="45.24496" lon="4.38743">
        <ele>959</ele>
        <time>2021-04-26T14:43:06Z</time>
      </trkpt>
      <trkpt lat="45.24492" lon="4.38746">
        <ele>959</ele>
        <time>2021-04-26T14:43:07Z</time>
      </trkpt>
      <trkpt lat="45.24488" lon="4.3875">
        <ele>959</ele>
        <time>2021-04-26T14:43:08Z</time>
      </trkpt>
      <trkpt lat="45.24484" lon="4.38752">
        <ele>959</ele>
        <time>2021-04-26T14:43:09Z</time>
      </trkpt>
      <trkpt lat="45.2448" lon="4.38755">
        <ele>959</ele>
        <time>2021-04-26T14:43:10Z</time>
      </trkpt>
      <trkpt lat="45.24476" lon="4.38758">
        <ele>959</ele>
        <time>2021-04-26T14:43:11Z</time>
      </trkpt>
      <trkpt lat="45.24472" lon="4.38761">
        <ele>959</ele>
        <time>2021-04-26T14:43:12Z</time>
      </trkpt>
      <trkpt lat="45.24468" lon="4.38764">
        <ele>960</ele>
        <time>2021-04-26T14:43:13Z</time>
      </trkpt>
      <trkpt lat="45.24465" lon="4.38768">
        <ele>960</ele>
        <time>2021-04-26T14:43:14Z</time>
      </trkpt>
      <trkpt lat="45.24461" lon="4.38771">
        <ele>960</ele>
        <time>2021-04-26T14:43:15Z</time>
      </trkpt>
      <trkpt lat="45.24456" lon="4.38773">
        <ele>960</ele>
        <time>2021-04-26T14:43:16Z</time>
      </trkpt>
      <trkpt lat="45.24451" lon="4.38776">
        <ele>960</ele>
        <time>2021-04-26T14:43:17Z</time>
      </trkpt>
      <trkpt lat="45.24446" lon="4.38778">
        <ele>960</ele>
        <time>2021-04-26T14:43:18Z</time>
      </trkpt>
      <trkpt lat="45.2444" lon="4.3878">
        <ele>960</ele>
        <time>2021-04-26T14:43:19Z</time>
      </trkpt>
      <trkpt lat="45.24435" lon="4.38782">
        <ele>959</ele>
        <time>2021-04-26T14:43:20Z</time>
      </trkpt>
      <trkpt lat="45.24429" lon="4.38784">
        <ele>959</ele>
        <time>2021-04-26T14:43:21Z</time>
      </trkpt>
      <trkpt lat="45.24423" lon="4.38785">
        <ele>959</ele>
        <time>2021-04-26T14:43:22Z</time>
      </trkpt>
      <trkpt lat="45.24419" lon="4.38788">
        <ele>959</ele>
        <time>2021-04-26T14:43:23Z</time>
      </trkpt>
      <trkpt lat="45.24414" lon="4.38791">
        <ele>959</ele>
        <time>2021-04-26T14:43:24Z</time>
      </trkpt>
      <trkpt lat="45.2441" lon="4.38796">
        <ele>959</ele>
        <time>2021-04-26T14:43:25Z</time>
      </trkpt>
      <trkpt lat="45.24405" lon="4.388">
        <ele>959</ele>
        <time>2021-04-26T14:43:26Z</time>
      </trkpt>
      <trkpt lat="45.244" lon="4.38804">
        <ele>959</ele>
        <time>2021-04-26T14:43:27Z</time>
      </trkpt>
      <trkpt lat="45.24395" lon="4.38809">
        <ele>959</ele>
        <time>2021-04-26T14:43:28Z</time>
      </trkpt>
      <trkpt lat="45.24389" lon="4.38815">
        <ele>958</ele>
        <time>2021-04-26T14:43:29Z</time>
      </trkpt>
      <trkpt lat="45.24382" lon="4.38821">
        <ele>958</ele>
        <time>2021-04-26T14:43:30Z</time>
      </trkpt>
      <trkpt lat="45.24375" lon="4.38826">
        <ele>958</ele>
        <time>2021-04-26T14:43:31Z</time>
      </trkpt>
      <trkpt lat="45.24368" lon="4.38831">
        <ele>958</ele>
        <time>2021-04-26T14:43:32Z</time>
      </trkpt>
      <trkpt lat="45.2436" lon="4.38837">
        <ele>957</ele>
        <time>2021-04-26T14:43:33Z</time>
      </trkpt>
      <trkpt lat="45.24353" lon="4.38843">
        <ele>956</ele>
        <time>2021-04-26T14:43:34Z</time>
      </trkpt>
      <trkpt lat="45.24345" lon="4.38849">
        <ele>956</ele>
        <time>2021-04-26T14:43:35Z</time>
      </trkpt>
      <trkpt lat="45.24338" lon="4.38856">
        <ele>955</ele>
        <time>2021-04-26T14:43:36Z</time>
      </trkpt>
      <trkpt lat="45.24332" lon="4.38864">
        <ele>955</ele>
        <time>2021-04-26T14:43:37Z</time>
      </trkpt>
      <trkpt lat="45.24324" lon="4.38872">
        <ele>955</ele>
        <time>2021-04-26T14:43:38Z</time>
      </trkpt>
      <trkpt lat="45.24317" lon="4.38881">
        <ele>953</ele>
        <time>2021-04-26T14:43:39Z</time>
      </trkpt>
      <trkpt lat="45.24308" lon="4.38889">
        <ele>953</ele>
        <time>2021-04-26T14:43:40Z</time>
      </trkpt>
      <trkpt lat="45.24301" lon="4.38898">
        <ele>951</ele>
        <time>2021-04-26T14:43:41Z</time>
      </trkpt>
      <trkpt lat="45.24294" lon="4.38906">
        <ele>950</ele>
        <time>2021-04-26T14:43:42Z</time>
      </trkpt>
      <trkpt lat="45.24288" lon="4.38913">
        <ele>950</ele>
        <time>2021-04-26T14:43:43Z</time>
      </trkpt>
      <trkpt lat="45.24281" lon="4.3892">
        <ele>949</ele>
        <time>2021-04-26T14:43:44Z</time>
      </trkpt>
      <trkpt lat="45.24274" lon="4.38926">
        <ele>949</ele>
        <time>2021-04-26T14:43:45Z</time>
      </trkpt>
      <trkpt lat="45.24267" lon="4.3893">
        <ele>949</ele>
        <time>2021-04-26T14:43:46Z</time>
      </trkpt>
      <trkpt lat="45.24261" lon="4.38935">
        <ele>948</ele>
        <time>2021-04-26T14:43:47Z</time>
      </trkpt>
      <trkpt lat="45.24256" lon="4.3894">
        <ele>948</ele>
        <time>2021-04-26T14:43:48Z</time>
      </trkpt>
      <trkpt lat="45.2425" lon="4.38944">
        <ele>948</ele>
        <time>2021-04-26T14:43:49Z</time>
      </trkpt>
      <trkpt lat="45.24246" lon="4.38948">
        <ele>948</ele>
        <time>2021-04-26T14:43:50Z</time>
      </trkpt>
      <trkpt lat="45.24241" lon="4.38951">
        <ele>948</ele>
        <time>2021-04-26T14:43:51Z</time>
      </trkpt>
      <trkpt lat="45.24238" lon="4.38953">
        <ele>948</ele>
        <time>2021-04-26T14:43:52Z</time>
      </trkpt>
      <trkpt lat="45.24235" lon="4.38955">
        <ele>948</ele>
        <time>2021-04-26T14:43:53Z</time>
      </trkpt>
      <trkpt lat="45.24232" lon="4.38956">
        <ele>948</ele>
        <time>2021-04-26T14:43:54Z</time>
      </trkpt>
      <trkpt lat="45.24229" lon="4.38958">
        <ele>947</ele>
        <time>2021-04-26T14:43:55Z</time>
      </trkpt>
      <trkpt lat="45.24225" lon="4.3896">
        <ele>948</ele>
        <time>2021-04-26T14:43:56Z</time>
      </trkpt>
      <trkpt lat="45.24222" lon="4.38962">
        <ele>948</ele>
        <time>2021-04-26T14:43:57Z</time>
      </trkpt>
      <trkpt lat="45.24219" lon="4.38964">
        <ele>948</ele>
        <time>2021-04-26T14:43:58Z</time>
      </trkpt>
      <trkpt lat="45.24216" lon="4.38965">
        <ele>948</ele>
        <time>2021-04-26T14:43:59Z</time>
      </trkpt>
      <trkpt lat="45.24214" lon="4.38967">
        <ele>948</ele>
        <time>2021-04-26T14:44:00Z</time>
      </trkpt>
      <trkpt lat="45.24211" lon="4.38969">
        <ele>948</ele>
        <time>2021-04-26T14:44:01Z</time>
      </trkpt>
      <trkpt lat="45.24207" lon="4.38972">
        <ele>948</ele>
        <time>2021-04-26T14:44:02Z</time>
      </trkpt>
      <trkpt lat="45.24203" lon="4.38976">
        <ele>948</ele>
        <time>2021-04-26T14:44:03Z</time>
      </trkpt>
      <trkpt lat="45.242" lon="4.38979">
        <ele>948</ele>
        <time>2021-04-26T14:44:04Z</time>
      </trkpt>
      <trkpt lat="45.24197" lon="4.38982">
        <ele>948</ele>
        <time>2021-04-26T14:44:05Z</time>
      </trkpt>
      <trkpt lat="45.24193" lon="4.38985">
        <ele>949</ele>
        <time>2021-04-26T14:44:06Z</time>
      </trkpt>
      <trkpt lat="45.2419" lon="4.38988">
        <ele>949</ele>
        <time>2021-04-26T14:44:07Z</time>
      </trkpt>
      <trkpt lat="45.24186" lon="4.38992">
        <ele>949</ele>
        <time>2021-04-26T14:44:08Z</time>
      </trkpt>
      <trkpt lat="45.24183" lon="4.38995">
        <ele>949</ele>
        <time>2021-04-26T14:44:09Z</time>
      </trkpt>
      <trkpt lat="45.24179" lon="4.38998">
        <ele>949</ele>
        <time>2021-04-26T14:44:10Z</time>
      </trkpt>
      <trkpt lat="45.24175" lon="4.39001">
        <ele>948</ele>
        <time>2021-04-26T14:44:11Z</time>
      </trkpt>
      <trkpt lat="45.24172" lon="4.39004">
        <ele>948</ele>
        <time>2021-04-26T14:44:12Z</time>
      </trkpt>
      <trkpt lat="45.24168" lon="4.39007">
        <ele>948</ele>
        <time>2021-04-26T14:44:13Z</time>
      </trkpt>
      <trkpt lat="45.24164" lon="4.39011">
        <ele>948</ele>
        <time>2021-04-26T14:44:14Z</time>
      </trkpt>
      <trkpt lat="45.24161" lon="4.39014">
        <ele>948</ele>
        <time>2021-04-26T14:44:15Z</time>
      </trkpt>
      <trkpt lat="45.24157" lon="4.39016">
        <ele>948</ele>
        <time>2021-04-26T14:44:16Z</time>
      </trkpt>
      <trkpt lat="45.24154" lon="4.39019">
        <ele>948</ele>
        <time>2021-04-26T14:44:17Z</time>
      </trkpt>
      <trkpt lat="45.2415" lon="4.39022">
        <ele>948</ele>
        <time>2021-04-26T14:44:18Z</time>
      </trkpt>
      <trkpt lat="45.24148" lon="4.39026">
        <ele>948</ele>
        <time>2021-04-26T14:44:19Z</time>
      </trkpt>
      <trkpt lat="45.24146" lon="4.3903">
        <ele>948</ele>
        <time>2021-04-26T14:44:20Z</time>
      </trkpt>
      <trkpt lat="45.24142" lon="4.39033">
        <ele>948</ele>
        <time>2021-04-26T14:44:21Z</time>
      </trkpt>
      <trkpt lat="45.24139" lon="4.39037">
        <ele>949</ele>
        <time>2021-04-26T14:44:22Z</time>
      </trkpt>
      <trkpt lat="45.24135" lon="4.39041">
        <ele>949</ele>
        <time>2021-04-26T14:44:23Z</time>
      </trkpt>
      <trkpt lat="45.24131" lon="4.39045">
        <ele>949</ele>
        <time>2021-04-26T14:44:24Z</time>
      </trkpt>
      <trkpt lat="45.24128" lon="4.39049">
        <ele>949</ele>
        <time>2021-04-26T14:44:25Z</time>
      </trkpt>
      <trkpt lat="45.24126" lon="4.39054">
        <ele>949</ele>
        <time>2021-04-26T14:44:26Z</time>
      </trkpt>
      <trkpt lat="45.24123" lon="4.39058">
        <ele>949</ele>
        <time>2021-04-26T14:44:27Z</time>
      </trkpt>
      <trkpt lat="45.2412" lon="4.39063">
        <ele>949</ele>
        <time>2021-04-26T14:44:28Z</time>
      </trkpt>
      <trkpt lat="45.24116" lon="4.39068">
        <ele>949</ele>
        <time>2021-04-26T14:44:29Z</time>
      </trkpt>
      <trkpt lat="45.24113" lon="4.39073">
        <ele>949</ele>
        <time>2021-04-26T14:44:30Z</time>
      </trkpt>
      <trkpt lat="45.24109" lon="4.39078">
        <ele>949</ele>
        <time>2021-04-26T14:44:31Z</time>
      </trkpt>
      <trkpt lat="45.24105" lon="4.39083">
        <ele>950</ele>
        <time>2021-04-26T14:44:32Z</time>
      </trkpt>
      <trkpt lat="45.24102" lon="4.39088">
        <ele>950</ele>
        <time>2021-04-26T14:44:33Z</time>
      </trkpt>
      <trkpt lat="45.24099" lon="4.39093">
        <ele>950</ele>
        <time>2021-04-26T14:44:34Z</time>
      </trkpt>
      <trkpt lat="45.24095" lon="4.39099">
        <ele>950</ele>
        <time>2021-04-26T14:44:35Z</time>
      </trkpt>
      <trkpt lat="45.24091" lon="4.39104">
        <ele>950</ele>
        <time>2021-04-26T14:44:36Z</time>
      </trkpt>
      <trkpt lat="45.24088" lon="4.39109">
        <ele>950</ele>
        <time>2021-04-26T14:44:37Z</time>
      </trkpt>
      <trkpt lat="45.24084" lon="4.39113">
        <ele>950</ele>
        <time>2021-04-26T14:44:38Z</time>
      </trkpt>
      <trkpt lat="45.2408" lon="4.39118">
        <ele>950</ele>
        <time>2021-04-26T14:44:39Z</time>
      </trkpt>
      <trkpt lat="45.24077" lon="4.39123">
        <ele>951</ele>
        <time>2021-04-26T14:44:40Z</time>
      </trkpt>
      <trkpt lat="45.24074" lon="4.39128">
        <ele>951</ele>
        <time>2021-04-26T14:44:41Z</time>
      </trkpt>
      <trkpt lat="45.24071" lon="4.39133">
        <ele>951</ele>
        <time>2021-04-26T14:44:42Z</time>
      </trkpt>
      <trkpt lat="45.24068" lon="4.39139">
        <ele>951</ele>
        <time>2021-04-26T14:44:43Z</time>
      </trkpt>
      <trkpt lat="45.24066" lon="4.39145">
        <ele>951</ele>
        <time>2021-04-26T14:44:44Z</time>
      </trkpt>
      <trkpt lat="45.24063" lon="4.3915">
        <ele>951</ele>
        <time>2021-04-26T14:44:45Z</time>
      </trkpt>
      <trkpt lat="45.2406" lon="4.39156">
        <ele>951</ele>
        <time>2021-04-26T14:44:46Z</time>
      </trkpt>
      <trkpt lat="45.24058" lon="4.39162">
        <ele>951</ele>
        <time>2021-04-26T14:44:47Z</time>
      </trkpt>
      <trkpt lat="45.24056" lon="4.39168">
        <ele>951</ele>
        <time>2021-04-26T14:44:48Z</time>
      </trkpt>
      <trkpt lat="45.24053" lon="4.39173">
        <ele>952</ele>
        <time>2021-04-26T14:44:49Z</time>
      </trkpt>
      <trkpt lat="45.24051" lon="4.39178">
        <ele>952</ele>
        <time>2021-04-26T14:44:50Z</time>
      </trkpt>
      <trkpt lat="45.24049" lon="4.39184">
        <ele>952</ele>
        <time>2021-04-26T14:44:51Z</time>
      </trkpt>
      <trkpt lat="45.24047" lon="4.39189">
        <ele>952</ele>
        <time>2021-04-26T14:44:52Z</time>
      </trkpt>
      <trkpt lat="45.24046" lon="4.39194">
        <ele>952</ele>
        <time>2021-04-26T14:44:53Z</time>
      </trkpt>
      <trkpt lat="45.24044" lon="4.39199">
        <ele>952</ele>
        <time>2021-04-26T14:44:54Z</time>
      </trkpt>
      <trkpt lat="45.24041" lon="4.39205">
        <ele>953</ele>
        <time>2021-04-26T14:44:55Z</time>
      </trkpt>
      <trkpt lat="45.24038" lon="4.3921">
        <ele>953</ele>
        <time>2021-04-26T14:44:56Z</time>
      </trkpt>
      <trkpt lat="45.24036" lon="4.39215">
        <ele>953</ele>
        <time>2021-04-26T14:44:57Z</time>
      </trkpt>
      <trkpt lat="45.24033" lon="4.3922">
        <ele>953</ele>
        <time>2021-04-26T14:44:58Z</time>
      </trkpt>
      <trkpt lat="45.24031" lon="4.39225">
        <ele>953</ele>
        <time>2021-04-26T14:44:59Z</time>
      </trkpt>
      <trkpt lat="45.24029" lon="4.3923">
        <ele>954</ele>
        <time>2021-04-26T14:45:00Z</time>
      </trkpt>
      <trkpt lat="45.24027" lon="4.39235">
        <ele>954</ele>
        <time>2021-04-26T14:45:01Z</time>
      </trkpt>
      <trkpt lat="45.24025" lon="4.3924">
        <ele>954</ele>
        <time>2021-04-26T14:45:02Z</time>
      </trkpt>
      <trkpt lat="45.24023" lon="4.39245">
        <ele>954</ele>
        <time>2021-04-26T14:45:03Z</time>
      </trkpt>
      <trkpt lat="45.24022" lon="4.3925">
        <ele>954</ele>
        <time>2021-04-26T14:45:04Z</time>
      </trkpt>
      <trkpt lat="45.24021" lon="4.39254">
        <ele>954</ele>
        <time>2021-04-26T14:45:05Z</time>
      </trkpt>
      <trkpt lat="45.2402" lon="4.3926">
        <ele>954</ele>
        <time>2021-04-26T14:45:06Z</time>
      </trkpt>
      <trkpt lat="45.24019" lon="4.39266">
        <ele>954</ele>
        <time>2021-04-26T14:45:07Z</time>
      </trkpt>
      <trkpt lat="45.24018" lon="4.39273">
        <ele>954</ele>
        <time>2021-04-26T14:45:08Z</time>
      </trkpt>
      <trkpt lat="45.24016" lon="4.39281">
        <ele>954</ele>
        <time>2021-04-26T14:45:09Z</time>
      </trkpt>
      <trkpt lat="45.24015" lon="4.39288">
        <ele>954</ele>
        <time>2021-04-26T14:45:10Z</time>
      </trkpt>
      <trkpt lat="45.24013" lon="4.39295">
        <ele>954</ele>
        <time>2021-04-26T14:45:11Z</time>
      </trkpt>
      <trkpt lat="45.24011" lon="4.39302">
        <ele>955</ele>
        <time>2021-04-26T14:45:12Z</time>
      </trkpt>
      <trkpt lat="45.24008" lon="4.39308">
        <ele>955</ele>
        <time>2021-04-26T14:45:13Z</time>
      </trkpt>
      <trkpt lat="45.24006" lon="4.39314">
        <ele>955</ele>
        <time>2021-04-26T14:45:14Z</time>
      </trkpt>
      <trkpt lat="45.24005" lon="4.39319">
        <ele>955</ele>
        <time>2021-04-26T14:45:15Z</time>
      </trkpt>
      <trkpt lat="45.24002" lon="4.39323">
        <ele>955</ele>
        <time>2021-04-26T14:45:16Z</time>
      </trkpt>
      <trkpt lat="45.23999" lon="4.39329">
        <ele>956</ele>
        <time>2021-04-26T14:45:17Z</time>
      </trkpt>
      <trkpt lat="45.23995" lon="4.39334">
        <ele>956</ele>
        <time>2021-04-26T14:45:18Z</time>
      </trkpt>
      <trkpt lat="45.23991" lon="4.39338">
        <ele>956</ele>
        <time>2021-04-26T14:45:19Z</time>
      </trkpt>
      <trkpt lat="45.23988" lon="4.39342">
        <ele>956</ele>
        <time>2021-04-26T14:45:20Z</time>
      </trkpt>
      <trkpt lat="45.23984" lon="4.39345">
        <ele>956</ele>
        <time>2021-04-26T14:45:21Z</time>
      </trkpt>
      <trkpt lat="45.2398" lon="4.39349">
        <ele>956</ele>
        <time>2021-04-26T14:45:22Z</time>
      </trkpt>
      <trkpt lat="45.23977" lon="4.39351">
        <ele>957</ele>
        <time>2021-04-26T14:45:23Z</time>
      </trkpt>
      <trkpt lat="45.23974" lon="4.39355">
        <ele>957</ele>
        <time>2021-04-26T14:45:24Z</time>
      </trkpt>
      <trkpt lat="45.2397" lon="4.39358">
        <ele>957</ele>
        <time>2021-04-26T14:45:25Z</time>
      </trkpt>
      <trkpt lat="45.23967" lon="4.39359">
        <ele>957</ele>
        <time>2021-04-26T14:45:26Z</time>
      </trkpt>
      <trkpt lat="45.23965" lon="4.39361">
        <ele>957</ele>
        <time>2021-04-26T14:45:27Z</time>
      </trkpt>
      <trkpt lat="45.23965" lon="4.39365">
        <ele>957</ele>
        <time>2021-04-26T14:45:28Z</time>
      </trkpt>
      <trkpt lat="45.23965" lon="4.39369">
        <ele>957</ele>
        <time>2021-04-26T14:45:29Z</time>
      </trkpt>
      <trkpt lat="45.23964" lon="4.39373">
        <ele>957</ele>
        <time>2021-04-26T14:45:30Z</time>
      </trkpt>
      <trkpt lat="45.23962" lon="4.39376">
        <ele>957</ele>
        <time>2021-04-26T14:45:31Z</time>
      </trkpt>
      <trkpt lat="45.2396" lon="4.39379">
        <ele>957</ele>
        <time>2021-04-26T14:45:32Z</time>
      </trkpt>
      <trkpt lat="45.23957" lon="4.39382">
        <ele>957</ele>
        <time>2021-04-26T14:45:33Z</time>
      </trkpt>
      <trkpt lat="45.23954" lon="4.39385">
        <ele>957</ele>
        <time>2021-04-26T14:45:34Z</time>
      </trkpt>
      <trkpt lat="45.23951" lon="4.39388">
        <ele>956</ele>
        <time>2021-04-26T14:45:35Z</time>
      </trkpt>
      <trkpt lat="45.23948" lon="4.39392">
        <ele>956</ele>
        <time>2021-04-26T14:45:36Z</time>
      </trkpt>
      <trkpt lat="45.23945" lon="4.39395">
        <ele>956</ele>
        <time>2021-04-26T14:45:37Z</time>
      </trkpt>
      <trkpt lat="45.23942" lon="4.394">
        <ele>955</ele>
        <time>2021-04-26T14:45:38Z</time>
      </trkpt>
      <trkpt lat="45.23939" lon="4.39404">
        <ele>955</ele>
        <time>2021-04-26T14:45:39Z</time>
      </trkpt>
      <trkpt lat="45.23935" lon="4.39409">
        <ele>954</ele>
        <time>2021-04-26T14:45:40Z</time>
      </trkpt>
      <trkpt lat="45.23931" lon="4.39414">
        <ele>954</ele>
        <time>2021-04-26T14:45:41Z</time>
      </trkpt>
      <trkpt lat="45.23928" lon="4.39419">
        <ele>954</ele>
        <time>2021-04-26T14:45:42Z</time>
      </trkpt>
      <trkpt lat="45.23924" lon="4.39425">
        <ele>954</ele>
        <time>2021-04-26T14:45:43Z</time>
      </trkpt>
      <trkpt lat="45.2392" lon="4.3943">
        <ele>954</ele>
        <time>2021-04-26T14:45:44Z</time>
      </trkpt>
      <trkpt lat="45.23916" lon="4.39436">
        <ele>954</ele>
        <time>2021-04-26T14:45:45Z</time>
      </trkpt>
      <trkpt lat="45.23912" lon="4.39442">
        <ele>954</ele>
        <time>2021-04-26T14:45:46Z</time>
      </trkpt>
      <trkpt lat="45.23908" lon="4.39447">
        <ele>954</ele>
        <time>2021-04-26T14:45:47Z</time>
      </trkpt>
      <trkpt lat="45.23904" lon="4.39452">
        <ele>954</ele>
        <time>2021-04-26T14:45:48Z</time>
      </trkpt>
      <trkpt lat="45.239" lon="4.39458">
        <ele>954</ele>
        <time>2021-04-26T14:45:49Z</time>
      </trkpt>
      <trkpt lat="45.23896" lon="4.39463">
        <ele>954</ele>
        <time>2021-04-26T14:45:50Z</time>
      </trkpt>
      <trkpt lat="45.23891" lon="4.39468">
        <ele>953</ele>
        <time>2021-04-26T14:45:51Z</time>
      </trkpt>
      <trkpt lat="45.23886" lon="4.39472">
        <ele>953</ele>
        <time>2021-04-26T14:45:52Z</time>
      </trkpt>
      <trkpt lat="45.2388" lon="4.39476">
        <ele>953</ele>
        <time>2021-04-26T14:45:53Z</time>
      </trkpt>
      <trkpt lat="45.23874" lon="4.39479">
        <ele>953</ele>
        <time>2021-04-26T14:45:54Z</time>
      </trkpt>
      <trkpt lat="45.23867" lon="4.39481">
        <ele>953</ele>
        <time>2021-04-26T14:45:55Z</time>
      </trkpt>
      <trkpt lat="45.2386" lon="4.39485">
        <ele>952</ele>
        <time>2021-04-26T14:45:56Z</time>
      </trkpt>
      <trkpt lat="45.23853" lon="4.39491">
        <ele>952</ele>
        <time>2021-04-26T14:45:57Z</time>
      </trkpt>
      <trkpt lat="45.23846" lon="4.39501">
        <ele>952</ele>
        <time>2021-04-26T14:45:58Z</time>
      </trkpt>
      <trkpt lat="45.23839" lon="4.39513">
        <ele>951</ele>
        <time>2021-04-26T14:45:59Z</time>
      </trkpt>
      <trkpt lat="45.23833" lon="4.39527">
        <ele>951</ele>
        <time>2021-04-26T14:46:00Z</time>
      </trkpt>
      <trkpt lat="45.23826" lon="4.39542">
        <ele>950</ele>
        <time>2021-04-26T14:46:01Z</time>
      </trkpt>
      <trkpt lat="45.23821" lon="4.39558">
        <ele>949</ele>
        <time>2021-04-26T14:46:02Z</time>
      </trkpt>
      <trkpt lat="45.23816" lon="4.39576">
        <ele>948</ele>
        <time>2021-04-26T14:46:03Z</time>
      </trkpt>
      <trkpt lat="45.23813" lon="4.39593">
        <ele>948</ele>
        <time>2021-04-26T14:46:04Z</time>
      </trkpt>
      <trkpt lat="45.23809" lon="4.39611">
        <ele>947</ele>
        <time>2021-04-26T14:46:05Z</time>
      </trkpt>
      <trkpt lat="45.23805" lon="4.39628">
        <ele>946</ele>
        <time>2021-04-26T14:46:06Z</time>
      </trkpt>
      <trkpt lat="45.23802" lon="4.39645">
        <ele>944</ele>
        <time>2021-04-26T14:46:07Z</time>
      </trkpt>
      <trkpt lat="45.238" lon="4.39662">
        <ele>944</ele>
        <time>2021-04-26T14:46:08Z</time>
      </trkpt>
      <trkpt lat="45.23799" lon="4.39678">
        <ele>942</ele>
        <time>2021-04-26T14:46:09Z</time>
      </trkpt>
      <trkpt lat="45.23798" lon="4.39691">
        <ele>941</ele>
        <time>2021-04-26T14:46:10Z</time>
      </trkpt>
      <trkpt lat="45.23797" lon="4.39703">
        <ele>939</ele>
        <time>2021-04-26T14:46:11Z</time>
      </trkpt>
      <trkpt lat="45.23795" lon="4.39712">
        <ele>939</ele>
        <time>2021-04-26T14:46:12Z</time>
      </trkpt>
      <trkpt lat="45.23792" lon="4.39721">
        <ele>936</ele>
        <time>2021-04-26T14:46:13Z</time>
      </trkpt>
      <trkpt lat="45.23788" lon="4.39729">
        <ele>936</ele>
        <time>2021-04-26T14:46:14Z</time>
      </trkpt>
      <trkpt lat="45.23784" lon="4.39735">
        <ele>935</ele>
        <time>2021-04-26T14:46:15Z</time>
      </trkpt>
      <trkpt lat="45.23779" lon="4.3974">
        <ele>934</ele>
        <time>2021-04-26T14:46:16Z</time>
      </trkpt>
      <trkpt lat="45.23774" lon="4.39744">
        <ele>933</ele>
        <time>2021-04-26T14:46:17Z</time>
      </trkpt>
      <trkpt lat="45.23768" lon="4.39749">
        <ele>932</ele>
        <time>2021-04-26T14:46:18Z</time>
      </trkpt>
      <trkpt lat="45.23763" lon="4.39752">
        <ele>931</ele>
        <time>2021-04-26T14:46:19Z</time>
      </trkpt>
      <trkpt lat="45.23759" lon="4.39756">
        <ele>930</ele>
        <time>2021-04-26T14:46:20Z</time>
      </trkpt>
      <trkpt lat="45.23754" lon="4.39759">
        <ele>928</ele>
        <time>2021-04-26T14:46:21Z</time>
      </trkpt>
      <trkpt lat="45.2375" lon="4.39762">
        <ele>928</ele>
        <time>2021-04-26T14:46:22Z</time>
      </trkpt>
      <trkpt lat="45.23747" lon="4.39766">
        <ele>927</ele>
        <time>2021-04-26T14:46:23Z</time>
      </trkpt>
      <trkpt lat="45.23744" lon="4.3977">
        <ele>926</ele>
        <time>2021-04-26T14:46:24Z</time>
      </trkpt>
      <trkpt lat="45.23741" lon="4.39774">
        <ele>926</ele>
        <time>2021-04-26T14:46:25Z</time>
      </trkpt>
      <trkpt lat="45.23737" lon="4.39777">
        <ele>926</ele>
        <time>2021-04-26T14:46:26Z</time>
      </trkpt>
      <trkpt lat="45.23732" lon="4.39779">
        <ele>926</ele>
        <time>2021-04-26T14:46:27Z</time>
      </trkpt>
      <trkpt lat="45.23728" lon="4.39782">
        <ele>925</ele>
        <time>2021-04-26T14:46:28Z</time>
      </trkpt>
      <trkpt lat="45.23724" lon="4.39785">
        <ele>925</ele>
        <time>2021-04-26T14:46:29Z</time>
      </trkpt>
      <trkpt lat="45.23718" lon="4.39788">
        <ele>924</ele>
        <time>2021-04-26T14:46:30Z</time>
      </trkpt>
      <trkpt lat="45.23712" lon="4.39792">
        <ele>924</ele>
        <time>2021-04-26T14:46:31Z</time>
      </trkpt>
      <trkpt lat="45.23706" lon="4.39796">
        <ele>924</ele>
        <time>2021-04-26T14:46:32Z</time>
      </trkpt>
      <trkpt lat="45.23699" lon="4.398">
        <ele>923</ele>
        <time>2021-04-26T14:46:33Z</time>
      </trkpt>
      <trkpt lat="45.23693" lon="4.39805">
        <ele>922</ele>
        <time>2021-04-26T14:46:34Z</time>
      </trkpt>
      <trkpt lat="45.23686" lon="4.39811">
        <ele>922</ele>
        <time>2021-04-26T14:46:35Z</time>
      </trkpt>
      <trkpt lat="45.23679" lon="4.39816">
        <ele>921</ele>
        <time>2021-04-26T14:46:36Z</time>
      </trkpt>
      <trkpt lat="45.23672" lon="4.39821">
        <ele>921</ele>
        <time>2021-04-26T14:46:37Z</time>
      </trkpt>
      <trkpt lat="45.23665" lon="4.39826">
        <ele>921</ele>
        <time>2021-04-26T14:46:38Z</time>
      </trkpt>
      <trkpt lat="45.23658" lon="4.39831">
        <ele>921</ele>
        <time>2021-04-26T14:46:39Z</time>
      </trkpt>
      <trkpt lat="45.2365" lon="4.39836">
        <ele>919</ele>
        <time>2021-04-26T14:46:40Z</time>
      </trkpt>
      <trkpt lat="45.23643" lon="4.39841">
        <ele>919</ele>
        <time>2021-04-26T14:46:41Z</time>
      </trkpt>
      <trkpt lat="45.23635" lon="4.39846">
        <ele>918</ele>
        <time>2021-04-26T14:46:42Z</time>
      </trkpt>
      <trkpt lat="45.23628" lon="4.39851">
        <ele>917</ele>
        <time>2021-04-26T14:46:43Z</time>
      </trkpt>
      <trkpt lat="45.23621" lon="4.39855">
        <ele>917</ele>
        <time>2021-04-26T14:46:44Z</time>
      </trkpt>
      <trkpt lat="45.23614" lon="4.39859">
        <ele>917</ele>
        <time>2021-04-26T14:46:45Z</time>
      </trkpt>
      <trkpt lat="45.23607" lon="4.39863">
        <ele>916</ele>
        <time>2021-04-26T14:46:46Z</time>
      </trkpt>
      <trkpt lat="45.236" lon="4.39866">
        <ele>915</ele>
        <time>2021-04-26T14:46:47Z</time>
      </trkpt>
      <trkpt lat="45.23593" lon="4.3987">
        <ele>915</ele>
        <time>2021-04-26T14:46:48Z</time>
      </trkpt>
      <trkpt lat="45.23586" lon="4.39873">
        <ele>915</ele>
        <time>2021-04-26T14:46:49Z</time>
      </trkpt>
      <trkpt lat="45.2358" lon="4.39876">
        <ele>915</ele>
        <time>2021-04-26T14:46:50Z</time>
      </trkpt>
      <trkpt lat="45.23573" lon="4.3988">
        <ele>914</ele>
        <time>2021-04-26T14:46:51Z</time>
      </trkpt>
      <trkpt lat="45.23566" lon="4.39884">
        <ele>914</ele>
        <time>2021-04-26T14:46:52Z</time>
      </trkpt>
      <trkpt lat="45.23559" lon="4.39888">
        <ele>912</ele>
        <time>2021-04-26T14:46:53Z</time>
      </trkpt>
      <trkpt lat="45.23552" lon="4.39894">
        <ele>912</ele>
        <time>2021-04-26T14:46:54Z</time>
      </trkpt>
      <trkpt lat="45.23546" lon="4.399">
        <ele>911</ele>
        <time>2021-04-26T14:46:55Z</time>
      </trkpt>
      <trkpt lat="45.23539" lon="4.39907">
        <ele>910</ele>
        <time>2021-04-26T14:46:56Z</time>
      </trkpt>
      <trkpt lat="45.23533" lon="4.39913">
        <ele>909</ele>
        <time>2021-04-26T14:46:57Z</time>
      </trkpt>
      <trkpt lat="45.23527" lon="4.39917">
        <ele>909</ele>
        <time>2021-04-26T14:46:58Z</time>
      </trkpt>
      <trkpt lat="45.23519" lon="4.3992">
        <ele>907</ele>
        <time>2021-04-26T14:46:59Z</time>
      </trkpt>
      <trkpt lat="45.23512" lon="4.39921">
        <ele>907</ele>
        <time>2021-04-26T14:47:00Z</time>
      </trkpt>
      <trkpt lat="45.23504" lon="4.39921">
        <ele>906</ele>
        <time>2021-04-26T14:47:01Z</time>
      </trkpt>
      <trkpt lat="45.23495" lon="4.39919">
        <ele>905</ele>
        <time>2021-04-26T14:47:02Z</time>
      </trkpt>
      <trkpt lat="45.23485" lon="4.39916">
        <ele>904</ele>
        <time>2021-04-26T14:47:03Z</time>
      </trkpt>
      <trkpt lat="45.23476" lon="4.39912">
        <ele>904</ele>
        <time>2021-04-26T14:47:04Z</time>
      </trkpt>
      <trkpt lat="45.23467" lon="4.39909">
        <ele>903</ele>
        <time>2021-04-26T14:47:05Z</time>
      </trkpt>
      <trkpt lat="45.23457" lon="4.39905">
        <ele>902</ele>
        <time>2021-04-26T14:47:06Z</time>
      </trkpt>
      <trkpt lat="45.23446" lon="4.39903">
        <ele>902</ele>
        <time>2021-04-26T14:47:07Z</time>
      </trkpt>
      <trkpt lat="45.23437" lon="4.39901">
        <ele>900</ele>
        <time>2021-04-26T14:47:08Z</time>
      </trkpt>
      <trkpt lat="45.23428" lon="4.39899">
        <ele>900</ele>
        <time>2021-04-26T14:47:09Z</time>
      </trkpt>
      <trkpt lat="45.23419" lon="4.39898">
        <ele>899</ele>
        <time>2021-04-26T14:47:10Z</time>
      </trkpt>
      <trkpt lat="45.2341" lon="4.39898">
        <ele>898</ele>
        <time>2021-04-26T14:47:11Z</time>
      </trkpt>
      <trkpt lat="45.23402" lon="4.399">
        <ele>897</ele>
        <time>2021-04-26T14:47:12Z</time>
      </trkpt>
      <trkpt lat="45.23394" lon="4.39904">
        <ele>896</ele>
        <time>2021-04-26T14:47:13Z</time>
      </trkpt>
      <trkpt lat="45.23385" lon="4.39911">
        <ele>896</ele>
        <time>2021-04-26T14:47:14Z</time>
      </trkpt>
      <trkpt lat="45.23376" lon="4.39919">
        <ele>896</ele>
        <time>2021-04-26T14:47:15Z</time>
      </trkpt>
      <trkpt lat="45.23368" lon="4.39927">
        <ele>892</ele>
        <time>2021-04-26T14:47:16Z</time>
      </trkpt>
      <trkpt lat="45.23362" lon="4.39933">
        <ele>890</ele>
        <time>2021-04-26T14:47:17Z</time>
      </trkpt>
      <trkpt lat="45.23356" lon="4.3994">
        <ele>889</ele>
        <time>2021-04-26T14:47:18Z</time>
      </trkpt>
      <trkpt lat="45.23351" lon="4.39947">
        <ele>888</ele>
        <time>2021-04-26T14:47:19Z</time>
      </trkpt>
      <trkpt lat="45.23345" lon="4.39954">
        <ele>887</ele>
        <time>2021-04-26T14:47:20Z</time>
      </trkpt>
      <trkpt lat="45.23339" lon="4.3996">
        <ele>887</ele>
        <time>2021-04-26T14:47:21Z</time>
      </trkpt>
      <trkpt lat="45.23333" lon="4.39965">
        <ele>886</ele>
        <time>2021-04-26T14:47:22Z</time>
      </trkpt>
      <trkpt lat="45.23327" lon="4.39969">
        <ele>884</ele>
        <time>2021-04-26T14:47:23Z</time>
      </trkpt>
      <trkpt lat="45.23322" lon="4.39972">
        <ele>883</ele>
        <time>2021-04-26T14:47:24Z</time>
      </trkpt>
      <trkpt lat="45.2332" lon="4.39975">
        <ele>882</ele>
        <time>2021-04-26T14:47:25Z</time>
      </trkpt>
      <trkpt lat="45.23317" lon="4.39977">
        <ele>881</ele>
        <time>2021-04-26T14:47:26Z</time>
      </trkpt>
      <trkpt lat="45.23317" lon="4.39975">
        <ele>877</ele>
        <time>2021-04-26T14:47:32Z</time>
      </trkpt>
      <trkpt lat="45.23318" lon="4.39973">
        <ele>875</ele>
        <time>2021-04-26T14:47:38Z</time>
      </trkpt>
      <trkpt lat="45.23318" lon="4.39971">
        <ele>873</ele>
        <time>2021-04-26T14:47:39Z</time>
      </trkpt>
      <trkpt lat="45.23317" lon="4.39969">
        <ele>870</ele>
        <time>2021-04-26T14:47:45Z</time>
      </trkpt>
      <trkpt lat="45.23314" lon="4.39969">
        <ele>869</ele>
        <time>2021-04-26T14:47:47Z</time>
      </trkpt>
      <trkpt lat="45.23311" lon="4.3997">
        <ele>869</ele>
        <time>2021-04-26T14:47:48Z</time>
      </trkpt>
      <trkpt lat="45.23308" lon="4.39971">
        <ele>868</ele>
        <time>2021-04-26T14:47:49Z</time>
      </trkpt>
      <trkpt lat="45.23304" lon="4.39972">
        <ele>868</ele>
        <time>2021-04-26T14:47:50Z</time>
      </trkpt>
      <trkpt lat="45.23301" lon="4.39974">
        <ele>868</ele>
        <time>2021-04-26T14:47:51Z</time>
      </trkpt>
      <trkpt lat="45.23296" lon="4.39976">
        <ele>867</ele>
        <time>2021-04-26T14:47:52Z</time>
      </trkpt>
      <trkpt lat="45.23291" lon="4.39976">
        <ele>866</ele>
        <time>2021-04-26T14:47:53Z</time>
      </trkpt>
      <trkpt lat="45.23286" lon="4.39976">
        <ele>865</ele>
        <time>2021-04-26T14:47:54Z</time>
      </trkpt>
      <trkpt lat="45.23281" lon="4.39974">
        <ele>864</ele>
        <time>2021-04-26T14:47:55Z</time>
      </trkpt>
      <trkpt lat="45.23276" lon="4.39972">
        <ele>864</ele>
        <time>2021-04-26T14:47:56Z</time>
      </trkpt>
      <trkpt lat="45.23272" lon="4.39969">
        <ele>864</ele>
        <time>2021-04-26T14:47:57Z</time>
      </trkpt>
      <trkpt lat="45.23268" lon="4.39966">
        <ele>863</ele>
        <time>2021-04-26T14:47:58Z</time>
      </trkpt>
      <trkpt lat="45.23265" lon="4.39965">
        <ele>862</ele>
        <time>2021-04-26T14:47:59Z</time>
      </trkpt>
      <trkpt lat="45.23263" lon="4.39967">
        <ele>862</ele>
        <time>2021-04-26T14:48:00Z</time>
      </trkpt>
      <trkpt lat="45.23263" lon="4.39971">
        <ele>862</ele>
        <time>2021-04-26T14:48:01Z</time>
      </trkpt>
      <trkpt lat="45.23263" lon="4.39976">
        <ele>861</ele>
        <time>2021-04-26T14:48:02Z</time>
      </trkpt>
      <trkpt lat="45.23263" lon="4.3998">
        <ele>861</ele>
        <time>2021-04-26T14:48:03Z</time>
      </trkpt>
      <trkpt lat="45.23263" lon="4.39984">
        <ele>860</ele>
        <time>2021-04-26T14:48:04Z</time>
      </trkpt>
      <trkpt lat="45.23263" lon="4.39988">
        <ele>859</ele>
        <time>2021-04-26T14:48:06Z</time>
      </trkpt>
      <trkpt lat="45.23264" lon="4.39994">
        <ele>858</ele>
        <time>2021-04-26T14:48:08Z</time>
      </trkpt>
      <trkpt lat="45.23264" lon="4.39997">
        <ele>858</ele>
        <time>2021-04-26T14:48:09Z</time>
      </trkpt>
      <trkpt lat="45.23265" lon="4.4">
        <ele>858</ele>
        <time>2021-04-26T14:48:10Z</time>
      </trkpt>
      <trkpt lat="45.23265" lon="4.40002">
        <ele>857</ele>
        <time>2021-04-26T14:48:12Z</time>
      </trkpt>
      <trkpt lat="45.23265" lon="4.40003">
        <ele>857</ele>
        <time>2021-04-26T14:48:19Z</time>
      </trkpt>
      <trkpt lat="45.23268" lon="4.40021">
        <ele>857</ele>
        <time>2021-04-26T14:48:24Z</time>
      </trkpt>
      <trkpt lat="45.2327" lon="4.40025">
        <ele>856</ele>
        <time>2021-04-26T14:48:25Z</time>
      </trkpt>
      <trkpt lat="45.23273" lon="4.4003">
        <ele>856</ele>
        <time>2021-04-26T14:48:26Z</time>
      </trkpt>
      <trkpt lat="45.23274" lon="4.40035">
        <ele>856</ele>
        <time>2021-04-26T14:48:27Z</time>
      </trkpt>
      <trkpt lat="45.23274" lon="4.4004">
        <ele>855</ele>
        <time>2021-04-26T14:48:28Z</time>
      </trkpt>
      <trkpt lat="45.23272" lon="4.40045">
        <ele>855</ele>
        <time>2021-04-26T14:48:29Z</time>
      </trkpt>
      <trkpt lat="45.23267" lon="4.40048">
        <ele>854</ele>
        <time>2021-04-26T14:48:30Z</time>
      </trkpt>
      <trkpt lat="45.23262" lon="4.4005">
        <ele>854</ele>
        <time>2021-04-26T14:48:31Z</time>
      </trkpt>
      <trkpt lat="45.23256" lon="4.40051">
        <ele>854</ele>
        <time>2021-04-26T14:48:32Z</time>
      </trkpt>
      <trkpt lat="45.23251" lon="4.40053">
        <ele>853</ele>
        <time>2021-04-26T14:48:33Z</time>
      </trkpt>
      <trkpt lat="45.23246" lon="4.40056">
        <ele>852</ele>
        <time>2021-04-26T14:48:34Z</time>
      </trkpt>
      <trkpt lat="45.23242" lon="4.40059">
        <ele>851</ele>
        <time>2021-04-26T14:48:35Z</time>
      </trkpt>
      <trkpt lat="45.23237" lon="4.40062">
        <ele>850</ele>
        <time>2021-04-26T14:48:36Z</time>
      </trkpt>
      <trkpt lat="45.23233" lon="4.40066">
        <ele>850</ele>
        <time>2021-04-26T14:48:37Z</time>
      </trkpt>
      <trkpt lat="45.23229" lon="4.40069">
        <ele>849</ele>
        <time>2021-04-26T14:48:38Z</time>
      </trkpt>
      <trkpt lat="45.23225" lon="4.40074">
        <ele>849</ele>
        <time>2021-04-26T14:48:39Z</time>
      </trkpt>
      <trkpt lat="45.23222" lon="4.40078">
        <ele>849</ele>
        <time>2021-04-26T14:48:40Z</time>
      </trkpt>
      <trkpt lat="45.23219" lon="4.40081">
        <ele>848</ele>
        <time>2021-04-26T14:48:41Z</time>
      </trkpt>
      <trkpt lat="45.23216" lon="4.40085">
        <ele>848</ele>
        <time>2021-04-26T14:48:42Z</time>
      </trkpt>
      <trkpt lat="45.23213" lon="4.40088">
        <ele>848</ele>
        <time>2021-04-26T14:48:43Z</time>
      </trkpt>
      <trkpt lat="45.2321" lon="4.40092">
        <ele>847</ele>
        <time>2021-04-26T14:48:44Z</time>
      </trkpt>
      <trkpt lat="45.23207" lon="4.40095">
        <ele>847</ele>
        <time>2021-04-26T14:48:45Z</time>
      </trkpt>
      <trkpt lat="45.23205" lon="4.40098">
        <ele>846</ele>
        <time>2021-04-26T14:48:46Z</time>
      </trkpt>
      <trkpt lat="45.23202" lon="4.40101">
        <ele>846</ele>
        <time>2021-04-26T14:48:47Z</time>
      </trkpt>
      <trkpt lat="45.23198" lon="4.40103">
        <ele>846</ele>
        <time>2021-04-26T14:48:48Z</time>
      </trkpt>
      <trkpt lat="45.23196" lon="4.40106">
        <ele>845</ele>
        <time>2021-04-26T14:48:49Z</time>
      </trkpt>
      <trkpt lat="45.23194" lon="4.4011">
        <ele>845</ele>
        <time>2021-04-26T14:48:50Z</time>
      </trkpt>
      <trkpt lat="45.23192" lon="4.40115">
        <ele>845</ele>
        <time>2021-04-26T14:48:51Z</time>
      </trkpt>
      <trkpt lat="45.23192" lon="4.4012">
        <ele>845</ele>
        <time>2021-04-26T14:48:52Z</time>
      </trkpt>
      <trkpt lat="45.23192" lon="4.40125">
        <ele>845</ele>
        <time>2021-04-26T14:48:53Z</time>
      </trkpt>
      <trkpt lat="45.23192" lon="4.4013">
        <ele>845</ele>
        <time>2021-04-26T14:48:54Z</time>
      </trkpt>
      <trkpt lat="45.23192" lon="4.40135">
        <ele>845</ele>
        <time>2021-04-26T14:48:55Z</time>
      </trkpt>
      <trkpt lat="45.23191" lon="4.40141">
        <ele>845</ele>
        <time>2021-04-26T14:48:56Z</time>
      </trkpt>
      <trkpt lat="45.2319" lon="4.40146">
        <ele>845</ele>
        <time>2021-04-26T14:48:57Z</time>
      </trkpt>
      <trkpt lat="45.23189" lon="4.40151">
        <ele>845</ele>
        <time>2021-04-26T14:48:58Z</time>
      </trkpt>
      <trkpt lat="45.23187" lon="4.40157">
        <ele>845</ele>
        <time>2021-04-26T14:48:59Z</time>
      </trkpt>
      <trkpt lat="45.23185" lon="4.40162">
        <ele>845</ele>
        <time>2021-04-26T14:49:00Z</time>
      </trkpt>
      <trkpt lat="45.23183" lon="4.40166">
        <ele>844</ele>
        <time>2021-04-26T14:49:01Z</time>
      </trkpt>
      <trkpt lat="45.2318" lon="4.4017">
        <ele>844</ele>
        <time>2021-04-26T14:49:02Z</time>
      </trkpt>
      <trkpt lat="45.23177" lon="4.40173">
        <ele>844</ele>
        <time>2021-04-26T14:49:03Z</time>
      </trkpt>
      <trkpt lat="45.23174" lon="4.40176">
        <ele>844</ele>
        <time>2021-04-26T14:49:04Z</time>
      </trkpt>
      <trkpt lat="45.23171" lon="4.40179">
        <ele>844</ele>
        <time>2021-04-26T14:49:05Z</time>
      </trkpt>
      <trkpt lat="45.23168" lon="4.40181">
        <ele>844</ele>
        <time>2021-04-26T14:49:06Z</time>
      </trkpt>
      <trkpt lat="45.23166" lon="4.40184">
        <ele>844</ele>
        <time>2021-04-26T14:49:07Z</time>
      </trkpt>
      <trkpt lat="45.23164" lon="4.40187">
        <ele>844</ele>
        <time>2021-04-26T14:49:08Z</time>
      </trkpt>
      <trkpt lat="45.23161" lon="4.4019">
        <ele>844</ele>
        <time>2021-04-26T14:49:09Z</time>
      </trkpt>
      <trkpt lat="45.23159" lon="4.40194">
        <ele>844</ele>
        <time>2021-04-26T14:49:10Z</time>
      </trkpt>
      <trkpt lat="45.23157" lon="4.40198">
        <ele>843</ele>
        <time>2021-04-26T14:49:11Z</time>
      </trkpt>
      <trkpt lat="45.23155" lon="4.40202">
        <ele>843</ele>
        <time>2021-04-26T14:49:12Z</time>
      </trkpt>
      <trkpt lat="45.23153" lon="4.40207">
        <ele>843</ele>
        <time>2021-04-26T14:49:13Z</time>
      </trkpt>
      <trkpt lat="45.23151" lon="4.40211">
        <ele>843</ele>
        <time>2021-04-26T14:49:14Z</time>
      </trkpt>
      <trkpt lat="45.23149" lon="4.40216">
        <ele>843</ele>
        <time>2021-04-26T14:49:15Z</time>
      </trkpt>
      <trkpt lat="45.23146" lon="4.4022">
        <ele>843</ele>
        <time>2021-04-26T14:49:16Z</time>
      </trkpt>
      <trkpt lat="45.23144" lon="4.40225">
        <ele>843</ele>
        <time>2021-04-26T14:49:17Z</time>
      </trkpt>
      <trkpt lat="45.23142" lon="4.40229">
        <ele>843</ele>
        <time>2021-04-26T14:49:18Z</time>
      </trkpt>
      <trkpt lat="45.23139" lon="4.40233">
        <ele>843</ele>
        <time>2021-04-26T14:49:19Z</time>
      </trkpt>
      <trkpt lat="45.23138" lon="4.40237">
        <ele>844</ele>
        <time>2021-04-26T14:49:20Z</time>
      </trkpt>
      <trkpt lat="45.23137" lon="4.40239">
        <ele>844</ele>
        <time>2021-04-26T14:49:21Z</time>
      </trkpt>
      <trkpt lat="45.23138" lon="4.40241">
        <ele>844</ele>
        <time>2021-04-26T14:49:23Z</time>
      </trkpt>
      <trkpt lat="45.23137" lon="4.4024">
        <ele>843</ele>
        <time>2021-04-26T14:49:26Z</time>
      </trkpt>
      <trkpt lat="45.23137" lon="4.40237">
        <ele>843</ele>
        <time>2021-04-26T14:49:35Z</time>
      </trkpt>
      <trkpt lat="45.23141" lon="4.40238">
        <ele>843</ele>
        <time>2021-04-26T14:49:36Z</time>
      </trkpt>
      <trkpt lat="45.23143" lon="4.40239">
        <ele>843</ele>
        <time>2021-04-26T14:49:37Z</time>
      </trkpt>
      <trkpt lat="45.23144" lon="4.40241">
        <ele>843</ele>
        <time>2021-04-26T14:49:38Z</time>
      </trkpt>
      <trkpt lat="45.23146" lon="4.40243">
        <ele>843</ele>
        <time>2021-04-26T14:49:39Z</time>
      </trkpt>
      <trkpt lat="45.23148" lon="4.40245">
        <ele>843</ele>
        <time>2021-04-26T14:49:40Z</time>
      </trkpt>
      <trkpt lat="45.2315" lon="4.40248">
        <ele>843</ele>
        <time>2021-04-26T14:49:41Z</time>
      </trkpt>
      <trkpt lat="45.23151" lon="4.40251">
        <ele>843</ele>
        <time>2021-04-26T14:49:42Z</time>
      </trkpt>
      <trkpt lat="45.23151" lon="4.40254">
        <ele>843</ele>
        <time>2021-04-26T14:49:43Z</time>
      </trkpt>
      <trkpt lat="45.2315" lon="4.40257">
        <ele>844</ele>
        <time>2021-04-26T14:49:44Z</time>
      </trkpt>
      <trkpt lat="45.23148" lon="4.40261">
        <ele>844</ele>
        <time>2021-04-26T14:49:45Z</time>
      </trkpt>
      <trkpt lat="45.23147" lon="4.40263">
        <ele>844</ele>
        <time>2021-04-26T14:49:46Z</time>
      </trkpt>
      <trkpt lat="45.23145" lon="4.40266">
        <ele>844</ele>
        <time>2021-04-26T14:49:47Z</time>
      </trkpt>
      <trkpt lat="45.23144" lon="4.40269">
        <ele>844</ele>
        <time>2021-04-26T14:49:48Z</time>
      </trkpt>
      <trkpt lat="45.23142" lon="4.40272">
        <ele>844</ele>
        <time>2021-04-26T14:49:49Z</time>
      </trkpt>
      <trkpt lat="45.2314" lon="4.40274">
        <ele>844</ele>
        <time>2021-04-26T14:49:50Z</time>
      </trkpt>
      <trkpt lat="45.23138" lon="4.40277">
        <ele>845</ele>
        <time>2021-04-26T14:49:51Z</time>
      </trkpt>
      <trkpt lat="45.23137" lon="4.40279">
        <ele>845</ele>
        <time>2021-04-26T14:49:52Z</time>
      </trkpt>
      <trkpt lat="45.23135" lon="4.40282">
        <ele>845</ele>
        <time>2021-04-26T14:49:53Z</time>
      </trkpt>
      <trkpt lat="45.23134" lon="4.40285">
        <ele>845</ele>
        <time>2021-04-26T14:49:54Z</time>
      </trkpt>
      <trkpt lat="45.23132" lon="4.40288">
        <ele>845</ele>
        <time>2021-04-26T14:49:55Z</time>
      </trkpt>
      <trkpt lat="45.23131" lon="4.40291">
        <ele>845</ele>
        <time>2021-04-26T14:49:56Z</time>
      </trkpt>
      <trkpt lat="45.2313" lon="4.40295">
        <ele>845</ele>
        <time>2021-04-26T14:49:57Z</time>
      </trkpt>
      <trkpt lat="45.23129" lon="4.40298">
        <ele>845</ele>
        <time>2021-04-26T14:49:58Z</time>
      </trkpt>
      <trkpt lat="45.23128" lon="4.40301">
        <ele>846</ele>
        <time>2021-04-26T14:49:59Z</time>
      </trkpt>
      <trkpt lat="45.23127" lon="4.40305">
        <ele>846</ele>
        <time>2021-04-26T14:50:00Z</time>
      </trkpt>
      <trkpt lat="45.23127" lon="4.40308">
        <ele>846</ele>
        <time>2021-04-26T14:50:01Z</time>
      </trkpt>
      <trkpt lat="45.23126" lon="4.40312">
        <ele>846</ele>
        <time>2021-04-26T14:50:02Z</time>
      </trkpt>
      <trkpt lat="45.23125" lon="4.40315">
        <ele>847</ele>
        <time>2021-04-26T14:50:03Z</time>
      </trkpt>
      <trkpt lat="45.23125" lon="4.40319">
        <ele>847</ele>
        <time>2021-04-26T14:50:04Z</time>
      </trkpt>
      <trkpt lat="45.23124" lon="4.40323">
        <ele>847</ele>
        <time>2021-04-26T14:50:05Z</time>
      </trkpt>
      <trkpt lat="45.23123" lon="4.40326">
        <ele>847</ele>
        <time>2021-04-26T14:50:06Z</time>
      </trkpt>
      <trkpt lat="45.23123" lon="4.4033">
        <ele>847</ele>
        <time>2021-04-26T14:50:07Z</time>
      </trkpt>
      <trkpt lat="45.23122" lon="4.40333">
        <ele>847</ele>
        <time>2021-04-26T14:50:08Z</time>
      </trkpt>
      <trkpt lat="45.23121" lon="4.40336">
        <ele>847</ele>
        <time>2021-04-26T14:50:09Z</time>
      </trkpt>
      <trkpt lat="45.2312" lon="4.4034">
        <ele>847</ele>
        <time>2021-04-26T14:50:10Z</time>
      </trkpt>
      <trkpt lat="45.23119" lon="4.40343">
        <ele>848</ele>
        <time>2021-04-26T14:50:11Z</time>
      </trkpt>
      <trkpt lat="45.23118" lon="4.40347">
        <ele>848</ele>
        <time>2021-04-26T14:50:12Z</time>
      </trkpt>
      <trkpt lat="45.23117" lon="4.4035">
        <ele>848</ele>
        <time>2021-04-26T14:50:13Z</time>
      </trkpt>
      <trkpt lat="45.23116" lon="4.40353">
        <ele>848</ele>
        <time>2021-04-26T14:50:14Z</time>
      </trkpt>
      <trkpt lat="45.23115" lon="4.40357">
        <ele>848</ele>
        <time>2021-04-26T14:50:15Z</time>
      </trkpt>
      <trkpt lat="45.23113" lon="4.4036">
        <ele>848</ele>
        <time>2021-04-26T14:50:16Z</time>
      </trkpt>
      <trkpt lat="45.23112" lon="4.40363">
        <ele>848</ele>
        <time>2021-04-26T14:50:17Z</time>
      </trkpt>
      <trkpt lat="45.23111" lon="4.40366">
        <ele>848</ele>
        <time>2021-04-26T14:50:18Z</time>
      </trkpt>
      <trkpt lat="45.2311" lon="4.40369">
        <ele>849</ele>
        <time>2021-04-26T14:50:19Z</time>
      </trkpt>
      <trkpt lat="45.23109" lon="4.40372">
        <ele>849</ele>
        <time>2021-04-26T14:50:20Z</time>
      </trkpt>
      <trkpt lat="45.23108" lon="4.40375">
        <ele>849</ele>
        <time>2021-04-26T14:50:21Z</time>
      </trkpt>
      <trkpt lat="45.23107" lon="4.40378">
        <ele>849</ele>
        <time>2021-04-26T14:50:22Z</time>
      </trkpt>
      <trkpt lat="45.23105" lon="4.40381">
        <ele>849</ele>
        <time>2021-04-26T14:50:23Z</time>
      </trkpt>
      <trkpt lat="45.23104" lon="4.40384">
        <ele>850</ele>
        <time>2021-04-26T14:50:24Z</time>
      </trkpt>
      <trkpt lat="45.23103" lon="4.40387">
        <ele>850</ele>
        <time>2021-04-26T14:50:25Z</time>
      </trkpt>
      <trkpt lat="45.23102" lon="4.4039">
        <ele>850</ele>
        <time>2021-04-26T14:50:26Z</time>
      </trkpt>
      <trkpt lat="45.231" lon="4.40393">
        <ele>850</ele>
        <time>2021-04-26T14:50:27Z</time>
      </trkpt>
      <trkpt lat="45.23099" lon="4.40397">
        <ele>851</ele>
        <time>2021-04-26T14:50:28Z</time>
      </trkpt>
      <trkpt lat="45.23098" lon="4.40399">
        <ele>851</ele>
        <time>2021-04-26T14:50:29Z</time>
      </trkpt>
      <trkpt lat="45.23096" lon="4.40402">
        <ele>851</ele>
        <time>2021-04-26T14:50:30Z</time>
      </trkpt>
      <trkpt lat="45.23095" lon="4.40405">
        <ele>852</ele>
        <time>2021-04-26T14:50:31Z</time>
      </trkpt>
      <trkpt lat="45.23093" lon="4.40408">
        <ele>852</ele>
        <time>2021-04-26T14:50:32Z</time>
      </trkpt>
      <trkpt lat="45.23092" lon="4.40411">
        <ele>852</ele>
        <time>2021-04-26T14:50:33Z</time>
      </trkpt>
      <trkpt lat="45.2309" lon="4.40414">
        <ele>852</ele>
        <time>2021-04-26T14:50:34Z</time>
      </trkpt>
      <trkpt lat="45.23089" lon="4.40417">
        <ele>852</ele>
        <time>2021-04-26T14:50:35Z</time>
      </trkpt>
      <trkpt lat="45.23088" lon="4.4042">
        <ele>853</ele>
        <time>2021-04-26T14:50:36Z</time>
      </trkpt>
      <trkpt lat="45.23086" lon="4.40423">
        <ele>853</ele>
        <time>2021-04-26T14:50:37Z</time>
      </trkpt>
      <trkpt lat="45.23084" lon="4.40426">
        <ele>853</ele>
        <time>2021-04-26T14:50:38Z</time>
      </trkpt>
      <trkpt lat="45.23083" lon="4.40429">
        <ele>853</ele>
        <time>2021-04-26T14:50:39Z</time>
      </trkpt>
      <trkpt lat="45.23081" lon="4.40432">
        <ele>853</ele>
        <time>2021-04-26T14:50:40Z</time>
      </trkpt>
      <trkpt lat="45.2308" lon="4.40436">
        <ele>854</ele>
        <time>2021-04-26T14:50:41Z</time>
      </trkpt>
      <trkpt lat="45.2308" lon="4.4044">
        <ele>854</ele>
        <time>2021-04-26T14:50:42Z</time>
      </trkpt>
      <trkpt lat="45.2308" lon="4.40444">
        <ele>855</ele>
        <time>2021-04-26T14:50:43Z</time>
      </trkpt>
      <trkpt lat="45.23082" lon="4.40448">
        <ele>855</ele>
        <time>2021-04-26T14:50:44Z</time>
      </trkpt>
      <trkpt lat="45.23084" lon="4.40451">
        <ele>855</ele>
        <time>2021-04-26T14:50:45Z</time>
      </trkpt>
      <trkpt lat="45.23086" lon="4.40455">
        <ele>855</ele>
        <time>2021-04-26T14:50:46Z</time>
      </trkpt>
      <trkpt lat="45.23088" lon="4.40458">
        <ele>855</ele>
        <time>2021-04-26T14:50:47Z</time>
      </trkpt>
      <trkpt lat="45.2309" lon="4.40461">
        <ele>856</ele>
        <time>2021-04-26T14:50:48Z</time>
      </trkpt>
      <trkpt lat="45.23093" lon="4.40463">
        <ele>856</ele>
        <time>2021-04-26T14:50:49Z</time>
      </trkpt>
      <trkpt lat="45.23095" lon="4.40465">
        <ele>856</ele>
        <time>2021-04-26T14:50:50Z</time>
      </trkpt>
      <trkpt lat="45.23098" lon="4.40468">
        <ele>856</ele>
        <time>2021-04-26T14:50:51Z</time>
      </trkpt>
      <trkpt lat="45.231" lon="4.4047">
        <ele>856</ele>
        <time>2021-04-26T14:50:52Z</time>
      </trkpt>
      <trkpt lat="45.23102" lon="4.40473">
        <ele>857</ele>
        <time>2021-04-26T14:50:53Z</time>
      </trkpt>
      <trkpt lat="45.23104" lon="4.40476">
        <ele>857</ele>
        <time>2021-04-26T14:50:54Z</time>
      </trkpt>
      <trkpt lat="45.23106" lon="4.40479">
        <ele>857</ele>
        <time>2021-04-26T14:50:55Z</time>
      </trkpt>
      <trkpt lat="45.23108" lon="4.40482">
        <ele>857</ele>
        <time>2021-04-26T14:50:56Z</time>
      </trkpt>
      <trkpt lat="45.2311" lon="4.40485">
        <ele>858</ele>
        <time>2021-04-26T14:50:57Z</time>
      </trkpt>
      <trkpt lat="45.23112" lon="4.40488">
        <ele>858</ele>
        <time>2021-04-26T14:50:58Z</time>
      </trkpt>
      <trkpt lat="45.23114" lon="4.4049">
        <ele>859</ele>
        <time>2021-04-26T14:50:59Z</time>
      </trkpt>
      <trkpt lat="45.23116" lon="4.40493">
        <ele>859</ele>
        <time>2021-04-26T14:51:00Z</time>
      </trkpt>
      <trkpt lat="45.23118" lon="4.40495">
        <ele>859</ele>
        <time>2021-04-26T14:51:01Z</time>
      </trkpt>
      <trkpt lat="45.2312" lon="4.40497">
        <ele>860</ele>
        <time>2021-04-26T14:51:02Z</time>
      </trkpt>
      <trkpt lat="45.23123" lon="4.405">
        <ele>860</ele>
        <time>2021-04-26T14:51:03Z</time>
      </trkpt>
      <trkpt lat="45.23125" lon="4.40502">
        <ele>860</ele>
        <time>2021-04-26T14:51:04Z</time>
      </trkpt>
      <trkpt lat="45.23126" lon="4.40505">
        <ele>860</ele>
        <time>2021-04-26T14:51:05Z</time>
      </trkpt>
      <trkpt lat="45.23128" lon="4.40507">
        <ele>861</ele>
        <time>2021-04-26T14:51:06Z</time>
      </trkpt>
      <trkpt lat="45.2313" lon="4.4051">
        <ele>861</ele>
        <time>2021-04-26T14:51:07Z</time>
      </trkpt>
      <trkpt lat="45.23132" lon="4.40513">
        <ele>862</ele>
        <time>2021-04-26T14:51:08Z</time>
      </trkpt>
      <trkpt lat="45.23134" lon="4.40515">
        <ele>862</ele>
        <time>2021-04-26T14:51:09Z</time>
      </trkpt>
      <trkpt lat="45.23136" lon="4.40518">
        <ele>862</ele>
        <time>2021-04-26T14:51:10Z</time>
      </trkpt>
      <trkpt lat="45.23137" lon="4.40522">
        <ele>863</ele>
        <time>2021-04-26T14:51:11Z</time>
      </trkpt>
      <trkpt lat="45.23138" lon="4.40525">
        <ele>864</ele>
        <time>2021-04-26T14:51:12Z</time>
      </trkpt>
      <trkpt lat="45.23139" lon="4.40529">
        <ele>864</ele>
        <time>2021-04-26T14:51:13Z</time>
      </trkpt>
      <trkpt lat="45.2314" lon="4.40533">
        <ele>864</ele>
        <time>2021-04-26T14:51:14Z</time>
      </trkpt>
      <trkpt lat="45.23141" lon="4.40537">
        <ele>865</ele>
        <time>2021-04-26T14:51:15Z</time>
      </trkpt>
      <trkpt lat="45.23141" lon="4.40541">
        <ele>865</ele>
        <time>2021-04-26T14:51:16Z</time>
      </trkpt>
      <trkpt lat="45.23142" lon="4.40545">
        <ele>866</ele>
        <time>2021-04-26T14:51:17Z</time>
      </trkpt>
      <trkpt lat="45.23142" lon="4.40549">
        <ele>866</ele>
        <time>2021-04-26T14:51:18Z</time>
      </trkpt>
      <trkpt lat="45.23143" lon="4.40552">
        <ele>866</ele>
        <time>2021-04-26T14:51:19Z</time>
      </trkpt>
      <trkpt lat="45.23143" lon="4.40556">
        <ele>867</ele>
        <time>2021-04-26T14:51:20Z</time>
      </trkpt>
      <trkpt lat="45.23144" lon="4.4056">
        <ele>867</ele>
        <time>2021-04-26T14:51:21Z</time>
      </trkpt>
      <trkpt lat="45.23144" lon="4.40563">
        <ele>867</ele>
        <time>2021-04-26T14:51:22Z</time>
      </trkpt>
      <trkpt lat="45.23145" lon="4.40567">
        <ele>868</ele>
        <time>2021-04-26T14:51:23Z</time>
      </trkpt>
      <trkpt lat="45.23145" lon="4.40571">
        <ele>868</ele>
        <time>2021-04-26T14:51:24Z</time>
      </trkpt>
      <trkpt lat="45.23146" lon="4.40575">
        <ele>869</ele>
        <time>2021-04-26T14:51:25Z</time>
      </trkpt>
      <trkpt lat="45.23148" lon="4.40578">
        <ele>869</ele>
        <time>2021-04-26T14:51:26Z</time>
      </trkpt>
      <trkpt lat="45.23149" lon="4.40581">
        <ele>869</ele>
        <time>2021-04-26T14:51:27Z</time>
      </trkpt>
      <trkpt lat="45.23151" lon="4.40584">
        <ele>869</ele>
        <time>2021-04-26T14:51:28Z</time>
      </trkpt>
      <trkpt lat="45.23152" lon="4.40587">
        <ele>869</ele>
        <time>2021-04-26T14:51:29Z</time>
      </trkpt>
      <trkpt lat="45.23154" lon="4.40589">
        <ele>870</ele>
        <time>2021-04-26T14:51:30Z</time>
      </trkpt>
      <trkpt lat="45.23156" lon="4.40592">
        <ele>870</ele>
        <time>2021-04-26T14:51:31Z</time>
      </trkpt>
      <trkpt lat="45.23157" lon="4.40594">
        <ele>870</ele>
        <time>2021-04-26T14:51:32Z</time>
      </trkpt>
      <trkpt lat="45.23159" lon="4.40597">
        <ele>871</ele>
        <time>2021-04-26T14:51:33Z</time>
      </trkpt>
      <trkpt lat="45.23159" lon="4.406">
        <ele>871</ele>
        <time>2021-04-26T14:51:34Z</time>
      </trkpt>
      <trkpt lat="45.23158" lon="4.40603">
        <ele>872</ele>
        <time>2021-04-26T14:51:35Z</time>
      </trkpt>
      <trkpt lat="45.23156" lon="4.40603">
        <ele>872</ele>
        <time>2021-04-26T14:51:36Z</time>
      </trkpt>
      <trkpt lat="45.23154" lon="4.40603">
        <ele>873</ele>
        <time>2021-04-26T14:51:37Z</time>
      </trkpt>
      <trkpt lat="45.23151" lon="4.40602">
        <ele>873</ele>
        <time>2021-04-26T14:51:38Z</time>
      </trkpt>
      <trkpt lat="45.23149" lon="4.40603">
        <ele>873</ele>
        <time>2021-04-26T14:51:39Z</time>
      </trkpt>
      <trkpt lat="45.23147" lon="4.40605">
        <ele>874</ele>
        <time>2021-04-26T14:51:40Z</time>
      </trkpt>
      <trkpt lat="45.23146" lon="4.40608">
        <ele>874</ele>
        <time>2021-04-26T14:51:41Z</time>
      </trkpt>
      <trkpt lat="45.23146" lon="4.40611">
        <ele>874</ele>
        <time>2021-04-26T14:51:42Z</time>
      </trkpt>
      <trkpt lat="45.23145" lon="4.40614">
        <ele>875</ele>
        <time>2021-04-26T14:51:43Z</time>
      </trkpt>
      <trkpt lat="45.23145" lon="4.40617">
        <ele>875</ele>
        <time>2021-04-26T14:51:44Z</time>
      </trkpt>
      <trkpt lat="45.23145" lon="4.4062">
        <ele>876</ele>
        <time>2021-04-26T14:51:45Z</time>
      </trkpt>
      <trkpt lat="45.23145" lon="4.40622">
        <ele>876</ele>
        <time>2021-04-26T14:51:46Z</time>
      </trkpt>
      <trkpt lat="45.23145" lon="4.40626">
        <ele>876</ele>
        <time>2021-04-26T14:51:47Z</time>
      </trkpt>
      <trkpt lat="45.23146" lon="4.40629">
        <ele>876</ele>
        <time>2021-04-26T14:51:48Z</time>
      </trkpt>
      <trkpt lat="45.23147" lon="4.40632">
        <ele>877</ele>
        <time>2021-04-26T14:51:49Z</time>
      </trkpt>
      <trkpt lat="45.23148" lon="4.40636">
        <ele>877</ele>
        <time>2021-04-26T14:51:50Z</time>
      </trkpt>
      <trkpt lat="45.23149" lon="4.40639">
        <ele>878</ele>
        <time>2021-04-26T14:51:51Z</time>
      </trkpt>
      <trkpt lat="45.2315" lon="4.40642">
        <ele>879</ele>
        <time>2021-04-26T14:51:52Z</time>
      </trkpt>
      <trkpt lat="45.23151" lon="4.40646">
        <ele>879</ele>
        <time>2021-04-26T14:51:53Z</time>
      </trkpt>
      <trkpt lat="45.23152" lon="4.40649">
        <ele>880</ele>
        <time>2021-04-26T14:51:54Z</time>
      </trkpt>
      <trkpt lat="45.23154" lon="4.40652">
        <ele>880</ele>
        <time>2021-04-26T14:51:55Z</time>
      </trkpt>
      <trkpt lat="45.23155" lon="4.40655">
        <ele>881</ele>
        <time>2021-04-26T14:51:56Z</time>
      </trkpt>
      <trkpt lat="45.23157" lon="4.40657">
        <ele>882</ele>
        <time>2021-04-26T14:51:57Z</time>
      </trkpt>
      <trkpt lat="45.23159" lon="4.40658">
        <ele>882</ele>
        <time>2021-04-26T14:51:58Z</time>
      </trkpt>
      <trkpt lat="45.23161" lon="4.4066">
        <ele>882</ele>
        <time>2021-04-26T14:51:59Z</time>
      </trkpt>
      <trkpt lat="45.23163" lon="4.40662">
        <ele>883</ele>
        <time>2021-04-26T14:52:00Z</time>
      </trkpt>
      <trkpt lat="45.23165" lon="4.40664">
        <ele>883</ele>
        <time>2021-04-26T14:52:01Z</time>
      </trkpt>
      <trkpt lat="45.23167" lon="4.40666">
        <ele>884</ele>
        <time>2021-04-26T14:52:02Z</time>
      </trkpt>
      <trkpt lat="45.23169" lon="4.40668">
        <ele>884</ele>
        <time>2021-04-26T14:52:03Z</time>
      </trkpt>
      <trkpt lat="45.23171" lon="4.4067">
        <ele>885</ele>
        <time>2021-04-26T14:52:04Z</time>
      </trkpt>
      <trkpt lat="45.23174" lon="4.40672">
        <ele>885</ele>
        <time>2021-04-26T14:52:05Z</time>
      </trkpt>
      <trkpt lat="45.23176" lon="4.40674">
        <ele>885</ele>
        <time>2021-04-26T14:52:06Z</time>
      </trkpt>
      <trkpt lat="45.23179" lon="4.40677">
        <ele>885</ele>
        <time>2021-04-26T14:52:07Z</time>
      </trkpt>
      <trkpt lat="45.23182" lon="4.4068">
        <ele>886</ele>
        <time>2021-04-26T14:52:08Z</time>
      </trkpt>
      <trkpt lat="45.23184" lon="4.40683">
        <ele>886</ele>
        <time>2021-04-26T14:52:09Z</time>
      </trkpt>
      <trkpt lat="45.23187" lon="4.40686">
        <ele>887</ele>
        <time>2021-04-26T14:52:10Z</time>
      </trkpt>
      <trkpt lat="45.23189" lon="4.4069">
        <ele>887</ele>
        <time>2021-04-26T14:52:11Z</time>
      </trkpt>
      <trkpt lat="45.23191" lon="4.40694">
        <ele>887</ele>
        <time>2021-04-26T14:52:12Z</time>
      </trkpt>
      <trkpt lat="45.23193" lon="4.40698">
        <ele>887</ele>
        <time>2021-04-26T14:52:13Z</time>
      </trkpt>
      <trkpt lat="45.23195" lon="4.40702">
        <ele>888</ele>
        <time>2021-04-26T14:52:14Z</time>
      </trkpt>
      <trkpt lat="45.23197" lon="4.40706">
        <ele>888</ele>
        <time>2021-04-26T14:52:15Z</time>
      </trkpt>
      <trkpt lat="45.232" lon="4.4071">
        <ele>888</ele>
        <time>2021-04-26T14:52:16Z</time>
      </trkpt>
      <trkpt lat="45.23202" lon="4.40713">
        <ele>888</ele>
        <time>2021-04-26T14:52:17Z</time>
      </trkpt>
      <trkpt lat="45.23205" lon="4.40717">
        <ele>889</ele>
        <time>2021-04-26T14:52:18Z</time>
      </trkpt>
      <trkpt lat="45.23207" lon="4.4072">
        <ele>889</ele>
        <time>2021-04-26T14:52:19Z</time>
      </trkpt>
      <trkpt lat="45.23209" lon="4.40724">
        <ele>889</ele>
        <time>2021-04-26T14:52:20Z</time>
      </trkpt>
      <trkpt lat="45.23212" lon="4.40727">
        <ele>889</ele>
        <time>2021-04-26T14:52:21Z</time>
      </trkpt>
      <trkpt lat="45.23214" lon="4.40731">
        <ele>889</ele>
        <time>2021-04-26T14:52:22Z</time>
      </trkpt>
      <trkpt lat="45.23216" lon="4.40734">
        <ele>889</ele>
        <time>2021-04-26T14:52:23Z</time>
      </trkpt>
      <trkpt lat="45.23218" lon="4.40738">
        <ele>890</ele>
        <time>2021-04-26T14:52:24Z</time>
      </trkpt>
      <trkpt lat="45.23221" lon="4.40742">
        <ele>890</ele>
        <time>2021-04-26T14:52:25Z</time>
      </trkpt>
      <trkpt lat="45.23222" lon="4.40746">
        <ele>890</ele>
        <time>2021-04-26T14:52:26Z</time>
      </trkpt>
      <trkpt lat="45.23224" lon="4.4075">
        <ele>890</ele>
        <time>2021-04-26T14:52:27Z</time>
      </trkpt>
      <trkpt lat="45.23226" lon="4.40754">
        <ele>891</ele>
        <time>2021-04-26T14:52:28Z</time>
      </trkpt>
      <trkpt lat="45.23228" lon="4.40758">
        <ele>891</ele>
        <time>2021-04-26T14:52:29Z</time>
      </trkpt>
      <trkpt lat="45.2323" lon="4.40762">
        <ele>891</ele>
        <time>2021-04-26T14:52:30Z</time>
      </trkpt>
      <trkpt lat="45.23232" lon="4.40765">
        <ele>892</ele>
        <time>2021-04-26T14:52:31Z</time>
      </trkpt>
      <trkpt lat="45.23234" lon="4.40769">
        <ele>892</ele>
        <time>2021-04-26T14:52:32Z</time>
      </trkpt>
      <trkpt lat="45.23235" lon="4.40773">
        <ele>893</ele>
        <time>2021-04-26T14:52:33Z</time>
      </trkpt>
      <trkpt lat="45.23237" lon="4.40776">
        <ele>893</ele>
        <time>2021-04-26T14:52:34Z</time>
      </trkpt>
      <trkpt lat="45.23239" lon="4.4078">
        <ele>893</ele>
        <time>2021-04-26T14:52:35Z</time>
      </trkpt>
      <trkpt lat="45.23241" lon="4.40783">
        <ele>894</ele>
        <time>2021-04-26T14:52:36Z</time>
      </trkpt>
      <trkpt lat="45.23242" lon="4.40787">
        <ele>894</ele>
        <time>2021-04-26T14:52:37Z</time>
      </trkpt>
      <trkpt lat="45.23244" lon="4.40791">
        <ele>894</ele>
        <time>2021-04-26T14:52:38Z</time>
      </trkpt>
      <trkpt lat="45.23246" lon="4.40794">
        <ele>895</ele>
        <time>2021-04-26T14:52:39Z</time>
      </trkpt>
      <trkpt lat="45.23247" lon="4.40798">
        <ele>895</ele>
        <time>2021-04-26T14:52:40Z</time>
      </trkpt>
      <trkpt lat="45.23249" lon="4.40802">
        <ele>895</ele>
        <time>2021-04-26T14:52:41Z</time>
      </trkpt>
      <trkpt lat="45.23251" lon="4.40805">
        <ele>896</ele>
        <time>2021-04-26T14:52:42Z</time>
      </trkpt>
      <trkpt lat="45.23253" lon="4.40808">
        <ele>896</ele>
        <time>2021-04-26T14:52:43Z</time>
      </trkpt>
      <trkpt lat="45.23255" lon="4.40812">
        <ele>896</ele>
        <time>2021-04-26T14:52:44Z</time>
      </trkpt>
      <trkpt lat="45.23257" lon="4.40815">
        <ele>896</ele>
        <time>2021-04-26T14:52:45Z</time>
      </trkpt>
      <trkpt lat="45.23259" lon="4.40818">
        <ele>897</ele>
        <time>2021-04-26T14:52:46Z</time>
      </trkpt>
      <trkpt lat="45.23261" lon="4.40821">
        <ele>897</ele>
        <time>2021-04-26T14:52:47Z</time>
      </trkpt>
      <trkpt lat="45.23263" lon="4.40825">
        <ele>897</ele>
        <time>2021-04-26T14:52:48Z</time>
      </trkpt>
      <trkpt lat="45.23265" lon="4.40828">
        <ele>898</ele>
        <time>2021-04-26T14:52:49Z</time>
      </trkpt>
      <trkpt lat="45.23267" lon="4.40831">
        <ele>898</ele>
        <time>2021-04-26T14:52:50Z</time>
      </trkpt>
      <trkpt lat="45.23269" lon="4.40834">
        <ele>898</ele>
        <time>2021-04-26T14:52:51Z</time>
      </trkpt>
      <trkpt lat="45.23271" lon="4.40837">
        <ele>898</ele>
        <time>2021-04-26T14:52:52Z</time>
      </trkpt>
      <trkpt lat="45.23273" lon="4.4084">
        <ele>899</ele>
        <time>2021-04-26T14:52:53Z</time>
      </trkpt>
      <trkpt lat="45.23275" lon="4.40844">
        <ele>899</ele>
        <time>2021-04-26T14:52:54Z</time>
      </trkpt>
      <trkpt lat="45.23277" lon="4.40847">
        <ele>899</ele>
        <time>2021-04-26T14:52:55Z</time>
      </trkpt>
      <trkpt lat="45.23279" lon="4.40849">
        <ele>899</ele>
        <time>2021-04-26T14:52:56Z</time>
      </trkpt>
      <trkpt lat="45.23281" lon="4.40852">
        <ele>899</ele>
        <time>2021-04-26T14:52:57Z</time>
      </trkpt>
      <trkpt lat="45.23283" lon="4.40855">
        <ele>899</ele>
        <time>2021-04-26T14:52:58Z</time>
      </trkpt>
      <trkpt lat="45.23284" lon="4.40858">
        <ele>900</ele>
        <time>2021-04-26T14:52:59Z</time>
      </trkpt>
      <trkpt lat="45.23286" lon="4.4086">
        <ele>900</ele>
        <time>2021-04-26T14:53:00Z</time>
      </trkpt>
      <trkpt lat="45.23288" lon="4.40863">
        <ele>901</ele>
        <time>2021-04-26T14:53:01Z</time>
      </trkpt>
      <trkpt lat="45.2329" lon="4.40865">
        <ele>901</ele>
        <time>2021-04-26T14:53:02Z</time>
      </trkpt>
      <trkpt lat="45.23291" lon="4.40868">
        <ele>901</ele>
        <time>2021-04-26T14:53:03Z</time>
      </trkpt>
      <trkpt lat="45.23295" lon="4.40874">
        <ele>902</ele>
        <time>2021-04-26T14:53:05Z</time>
      </trkpt>
      <trkpt lat="45.23297" lon="4.40878">
        <ele>903</ele>
        <time>2021-04-26T14:53:06Z</time>
      </trkpt>
      <trkpt lat="45.23299" lon="4.40881">
        <ele>903</ele>
        <time>2021-04-26T14:53:07Z</time>
      </trkpt>
      <trkpt lat="45.23301" lon="4.40885">
        <ele>903</ele>
        <time>2021-04-26T14:53:08Z</time>
      </trkpt>
      <trkpt lat="45.23303" lon="4.40889">
        <ele>904</ele>
        <time>2021-04-26T14:53:09Z</time>
      </trkpt>
      <trkpt lat="45.23305" lon="4.40892">
        <ele>905</ele>
        <time>2021-04-26T14:53:10Z</time>
      </trkpt>
      <trkpt lat="45.23306" lon="4.40895">
        <ele>905</ele>
        <time>2021-04-26T14:53:11Z</time>
      </trkpt>
      <trkpt lat="45.23309" lon="4.40898">
        <ele>906</ele>
        <time>2021-04-26T14:53:13Z</time>
      </trkpt>
      <trkpt lat="45.23317" lon="4.40912">
        <ele>907</ele>
        <time>2021-04-26T14:53:17Z</time>
      </trkpt>
      <trkpt lat="45.23318" lon="4.40915">
        <ele>908</ele>
        <time>2021-04-26T14:53:18Z</time>
      </trkpt>
      <trkpt lat="45.23319" lon="4.40918">
        <ele>909</ele>
        <time>2021-04-26T14:53:19Z</time>
      </trkpt>
      <trkpt lat="45.23321" lon="4.40922">
        <ele>909</ele>
        <time>2021-04-26T14:53:20Z</time>
      </trkpt>
      <trkpt lat="45.23323" lon="4.40925">
        <ele>910</ele>
        <time>2021-04-26T14:53:21Z</time>
      </trkpt>
      <trkpt lat="45.23326" lon="4.40937">
        <ele>912</ele>
        <time>2021-04-26T14:53:25Z</time>
      </trkpt>
      <trkpt lat="45.23329" lon="4.40951">
        <ele>913</ele>
        <time>2021-04-26T14:53:29Z</time>
      </trkpt>
      <trkpt lat="45.23333" lon="4.40962">
        <ele>915</ele>
        <time>2021-04-26T14:53:32Z</time>
      </trkpt>
      <trkpt lat="45.23332" lon="4.40973">
        <ele>915</ele>
        <time>2021-04-26T14:53:36Z</time>
      </trkpt>
      <trkpt lat="45.23335" lon="4.40986">
        <ele>920</ele>
        <time>2021-04-26T14:53:40Z</time>
      </trkpt>
      <trkpt lat="45.23335" lon="4.40997">
        <ele>921</ele>
        <time>2021-04-26T14:53:43Z</time>
      </trkpt>
      <trkpt lat="45.23335" lon="4.41002">
        <ele>922</ele>
        <time>2021-04-26T14:53:45Z</time>
      </trkpt>
      <trkpt lat="45.23334" lon="4.41007">
        <ele>923</ele>
        <time>2021-04-26T14:53:47Z</time>
      </trkpt>
      <trkpt lat="45.23334" lon="4.41015">
        <ele>924</ele>
        <time>2021-04-26T14:53:50Z</time>
      </trkpt>
      <trkpt lat="45.23333" lon="4.41018">
        <ele>924</ele>
        <time>2021-04-26T14:53:51Z</time>
      </trkpt>
      <trkpt lat="45.23333" lon="4.41021">
        <ele>924</ele>
        <time>2021-04-26T14:53:52Z</time>
      </trkpt>
      <trkpt lat="45.23333" lon="4.41024">
        <ele>925</ele>
        <time>2021-04-26T14:53:53Z</time>
      </trkpt>
      <trkpt lat="45.23334" lon="4.41027">
        <ele>926</ele>
        <time>2021-04-26T14:53:54Z</time>
      </trkpt>
      <trkpt lat="45.23334" lon="4.41031">
        <ele>926</ele>
        <time>2021-04-26T14:53:55Z</time>
      </trkpt>
      <trkpt lat="45.23333" lon="4.41034">
        <ele>927</ele>
        <time>2021-04-26T14:53:56Z</time>
      </trkpt>
      <trkpt lat="45.23333" lon="4.41037">
        <ele>927</ele>
        <time>2021-04-26T14:53:57Z</time>
      </trkpt>
      <trkpt lat="45.23334" lon="4.41041">
        <ele>928</ele>
        <time>2021-04-26T14:53:58Z</time>
      </trkpt>
      <trkpt lat="45.23335" lon="4.41044">
        <ele>928</ele>
        <time>2021-04-26T14:53:59Z</time>
      </trkpt>
      <trkpt lat="45.23335" lon="4.41046">
        <ele>929</ele>
        <time>2021-04-26T14:54:00Z</time>
      </trkpt>
      <trkpt lat="45.23334" lon="4.41051">
        <ele>930</ele>
        <time>2021-04-26T14:54:02Z</time>
      </trkpt>
      <trkpt lat="45.23334" lon="4.41056">
        <ele>931</ele>
        <time>2021-04-26T14:54:04Z</time>
      </trkpt>
      <trkpt lat="45.23334" lon="4.4106">
        <ele>931</ele>
        <time>2021-04-26T14:54:05Z</time>
      </trkpt>
      <trkpt lat="45.2334" lon="4.41066">
        <ele>936</ele>
        <time>2021-04-26T14:54:43Z</time>
      </trkpt>
      <trkpt lat="45.23344" lon="4.41068">
        <ele>939</ele>
        <time>2021-04-26T14:55:23Z</time>
      </trkpt>
      <trkpt lat="45.23346" lon="4.41073">
        <ele>941</ele>
        <time>2021-04-26T14:55:53Z</time>
      </trkpt>
      <trkpt lat="45.23347" lon="4.41078">
        <ele>942</ele>
        <time>2021-04-26T14:55:54Z</time>
      </trkpt>
      <trkpt lat="45.23347" lon="4.41083">
        <ele>942</ele>
        <time>2021-04-26T14:55:56Z</time>
      </trkpt>
      <trkpt lat="45.23347" lon="4.41087">
        <ele>942</ele>
        <time>2021-04-26T14:55:57Z</time>
      </trkpt>
      <trkpt lat="45.23346" lon="4.41091">
        <ele>942</ele>
        <time>2021-04-26T14:55:58Z</time>
      </trkpt>
      <trkpt lat="45.23345" lon="4.41094">
        <ele>941</ele>
        <time>2021-04-26T14:55:59Z</time>
      </trkpt>
      <trkpt lat="45.23344" lon="4.41098">
        <ele>941</ele>
        <time>2021-04-26T14:56:00Z</time>
      </trkpt>
      <trkpt lat="45.23344" lon="4.41102">
        <ele>941</ele>
        <time>2021-04-26T14:56:02Z</time>
      </trkpt>
      <trkpt lat="45.23344" lon="4.41105">
        <ele>941</ele>
        <time>2021-04-26T14:56:03Z</time>
      </trkpt>
      <trkpt lat="45.23344" lon="4.41109">
        <ele>942</ele>
        <time>2021-04-26T14:56:04Z</time>
      </trkpt>
      <trkpt lat="45.23344" lon="4.41113">
        <ele>942</ele>
        <time>2021-04-26T14:56:05Z</time>
      </trkpt>
      <trkpt lat="45.23344" lon="4.41117">
        <ele>941</ele>
        <time>2021-04-26T14:56:06Z</time>
      </trkpt>
      <trkpt lat="45.23343" lon="4.41121">
        <ele>941</ele>
        <time>2021-04-26T14:56:07Z</time>
      </trkpt>
      <trkpt lat="45.23343" lon="4.41125">
        <ele>941</ele>
        <time>2021-04-26T14:56:08Z</time>
      </trkpt>
      <trkpt lat="45.23343" lon="4.4113">
        <ele>941</ele>
        <time>2021-04-26T14:56:09Z</time>
      </trkpt>
      <trkpt lat="45.23343" lon="4.41134">
        <ele>941</ele>
        <time>2021-04-26T14:56:10Z</time>
      </trkpt>
      <trkpt lat="45.23342" lon="4.41138">
        <ele>941</ele>
        <time>2021-04-26T14:56:11Z</time>
      </trkpt>
      <trkpt lat="45.23341" lon="4.41143">
        <ele>941</ele>
        <time>2021-04-26T14:56:12Z</time>
      </trkpt>
      <trkpt lat="45.2334" lon="4.41148">
        <ele>941</ele>
        <time>2021-04-26T14:56:13Z</time>
      </trkpt>
      <trkpt lat="45.23339" lon="4.41153">
        <ele>941</ele>
        <time>2021-04-26T14:56:14Z</time>
      </trkpt>
      <trkpt lat="45.23338" lon="4.41159">
        <ele>941</ele>
        <time>2021-04-26T14:56:15Z</time>
      </trkpt>
      <trkpt lat="45.23337" lon="4.41164">
        <ele>941</ele>
        <time>2021-04-26T14:56:16Z</time>
      </trkpt>
      <trkpt lat="45.23335" lon="4.4117">
        <ele>941</ele>
        <time>2021-04-26T14:56:17Z</time>
      </trkpt>
      <trkpt lat="45.23333" lon="4.41176">
        <ele>941</ele>
        <time>2021-04-26T14:56:18Z</time>
      </trkpt>
      <trkpt lat="45.23331" lon="4.41182">
        <ele>941</ele>
        <time>2021-04-26T14:56:19Z</time>
      </trkpt>
      <trkpt lat="45.2333" lon="4.41189">
        <ele>942</ele>
        <time>2021-04-26T14:56:20Z</time>
      </trkpt>
      <trkpt lat="45.23328" lon="4.41195">
        <ele>942</ele>
        <time>2021-04-26T14:56:21Z</time>
      </trkpt>
      <trkpt lat="45.23327" lon="4.41201">
        <ele>942</ele>
        <time>2021-04-26T14:56:22Z</time>
      </trkpt>
      <trkpt lat="45.23325" lon="4.41207">
        <ele>941</ele>
        <time>2021-04-26T14:56:23Z</time>
      </trkpt>
      <trkpt lat="45.23324" lon="4.41213">
        <ele>942</ele>
        <time>2021-04-26T14:56:24Z</time>
      </trkpt>
      <trkpt lat="45.23323" lon="4.4122">
        <ele>942</ele>
        <time>2021-04-26T14:56:25Z</time>
      </trkpt>
      <trkpt lat="45.23322" lon="4.41226">
        <ele>942</ele>
        <time>2021-04-26T14:56:26Z</time>
      </trkpt>
      <trkpt lat="45.23322" lon="4.41233">
        <ele>942</ele>
        <time>2021-04-26T14:56:27Z</time>
      </trkpt>
      <trkpt lat="45.23322" lon="4.4124">
        <ele>942</ele>
        <time>2021-04-26T14:56:28Z</time>
      </trkpt>
      <trkpt lat="45.23322" lon="4.41246">
        <ele>942</ele>
        <time>2021-04-26T14:56:29Z</time>
      </trkpt>
      <trkpt lat="45.23322" lon="4.41253">
        <ele>942</ele>
        <time>2021-04-26T14:56:30Z</time>
      </trkpt>
      <trkpt lat="45.23322" lon="4.4126">
        <ele>942</ele>
        <time>2021-04-26T14:56:31Z</time>
      </trkpt>
      <trkpt lat="45.23322" lon="4.41266">
        <ele>942</ele>
        <time>2021-04-26T14:56:32Z</time>
      </trkpt>
      <trkpt lat="45.23322" lon="4.41272">
        <ele>941</ele>
        <time>2021-04-26T14:56:33Z</time>
      </trkpt>
      <trkpt lat="45.23321" lon="4.41279">
        <ele>941</ele>
        <time>2021-04-26T14:56:34Z</time>
      </trkpt>
      <trkpt lat="45.23321" lon="4.41285">
        <ele>941</ele>
        <time>2021-04-26T14:56:35Z</time>
      </trkpt>
      <trkpt lat="45.23321" lon="4.41291">
        <ele>941</ele>
        <time>2021-04-26T14:56:36Z</time>
      </trkpt>
      <trkpt lat="45.2332" lon="4.41297">
        <ele>941</ele>
        <time>2021-04-26T14:56:37Z</time>
      </trkpt>
      <trkpt lat="45.2332" lon="4.41303">
        <ele>941</ele>
        <time>2021-04-26T14:56:38Z</time>
      </trkpt>
      <trkpt lat="45.2332" lon="4.41309">
        <ele>941</ele>
        <time>2021-04-26T14:56:39Z</time>
      </trkpt>
      <trkpt lat="45.2332" lon="4.41315">
        <ele>941</ele>
        <time>2021-04-26T14:56:40Z</time>
      </trkpt>
      <trkpt lat="45.2332" lon="4.41322">
        <ele>941</ele>
        <time>2021-04-26T14:56:41Z</time>
      </trkpt>
      <trkpt lat="45.23321" lon="4.41328">
        <ele>941</ele>
        <time>2021-04-26T14:56:42Z</time>
      </trkpt>
      <trkpt lat="45.23321" lon="4.41334">
        <ele>941</ele>
        <time>2021-04-26T14:56:43Z</time>
      </trkpt>
      <trkpt lat="45.23321" lon="4.4134">
        <ele>941</ele>
        <time>2021-04-26T14:56:44Z</time>
      </trkpt>
      <trkpt lat="45.23321" lon="4.41346">
        <ele>941</ele>
        <time>2021-04-26T14:56:45Z</time>
      </trkpt>
      <trkpt lat="45.23322" lon="4.41352">
        <ele>941</ele>
        <time>2021-04-26T14:56:46Z</time>
      </trkpt>
      <trkpt lat="45.23322" lon="4.41359">
        <ele>941</ele>
        <time>2021-04-26T14:56:47Z</time>
      </trkpt>
      <trkpt lat="45.23322" lon="4.41365">
        <ele>941</ele>
        <time>2021-04-26T14:56:48Z</time>
      </trkpt>
      <trkpt lat="45.23322" lon="4.41371">
        <ele>942</ele>
        <time>2021-04-26T14:56:49Z</time>
      </trkpt>
      <trkpt lat="45.23322" lon="4.41377">
        <ele>942</ele>
        <time>2021-04-26T14:56:50Z</time>
      </trkpt>
      <trkpt lat="45.23322" lon="4.41383">
        <ele>942</ele>
        <time>2021-04-26T14:56:51Z</time>
      </trkpt>
      <trkpt lat="45.23321" lon="4.41389">
        <ele>942</ele>
        <time>2021-04-26T14:56:52Z</time>
      </trkpt>
      <trkpt lat="45.23321" lon="4.41395">
        <ele>942</ele>
        <time>2021-04-26T14:56:53Z</time>
      </trkpt>
      <trkpt lat="45.23321" lon="4.414">
        <ele>942</ele>
        <time>2021-04-26T14:56:54Z</time>
      </trkpt>
      <trkpt lat="45.23321" lon="4.41405">
        <ele>942</ele>
        <time>2021-04-26T14:56:55Z</time>
      </trkpt>
      <trkpt lat="45.23321" lon="4.41409">
        <ele>942</ele>
        <time>2021-04-26T14:56:56Z</time>
      </trkpt>
      <trkpt lat="45.23321" lon="4.41414">
        <ele>943</ele>
        <time>2021-04-26T14:56:57Z</time>
      </trkpt>
      <trkpt lat="45.23321" lon="4.41419">
        <ele>943</ele>
        <time>2021-04-26T14:56:58Z</time>
      </trkpt>
      <trkpt lat="45.2332" lon="4.41424">
        <ele>943</ele>
        <time>2021-04-26T14:56:59Z</time>
      </trkpt>
      <trkpt lat="45.2332" lon="4.41428">
        <ele>943</ele>
        <time>2021-04-26T14:57:00Z</time>
      </trkpt>
      <trkpt lat="45.23321" lon="4.41433">
        <ele>944</ele>
        <time>2021-04-26T14:57:01Z</time>
      </trkpt>
      <trkpt lat="45.23321" lon="4.41438">
        <ele>944</ele>
        <time>2021-04-26T14:57:02Z</time>
      </trkpt>
      <trkpt lat="45.23321" lon="4.41443">
        <ele>944</ele>
        <time>2021-04-26T14:57:03Z</time>
      </trkpt>
      <trkpt lat="45.2332" lon="4.41447">
        <ele>944</ele>
        <time>2021-04-26T14:57:04Z</time>
      </trkpt>
      <trkpt lat="45.2332" lon="4.41452">
        <ele>945</ele>
        <time>2021-04-26T14:57:05Z</time>
      </trkpt>
      <trkpt lat="45.2332" lon="4.41457">
        <ele>945</ele>
        <time>2021-04-26T14:57:06Z</time>
      </trkpt>
      <trkpt lat="45.2332" lon="4.41463">
        <ele>945</ele>
        <time>2021-04-26T14:57:07Z</time>
      </trkpt>
      <trkpt lat="45.23319" lon="4.41468">
        <ele>945</ele>
        <time>2021-04-26T14:57:08Z</time>
      </trkpt>
      <trkpt lat="45.23319" lon="4.41473">
        <ele>945</ele>
        <time>2021-04-26T14:57:09Z</time>
      </trkpt>
      <trkpt lat="45.23319" lon="4.41479">
        <ele>945</ele>
        <time>2021-04-26T14:57:10Z</time>
      </trkpt>
      <trkpt lat="45.23318" lon="4.41484">
        <ele>946</ele>
        <time>2021-04-26T14:57:11Z</time>
      </trkpt>
      <trkpt lat="45.23318" lon="4.4149">
        <ele>946</ele>
        <time>2021-04-26T14:57:12Z</time>
      </trkpt>
      <trkpt lat="45.23317" lon="4.41495">
        <ele>947</ele>
        <time>2021-04-26T14:57:13Z</time>
      </trkpt>
      <trkpt lat="45.23316" lon="4.41501">
        <ele>947</ele>
        <time>2021-04-26T14:57:14Z</time>
      </trkpt>
      <trkpt lat="45.23315" lon="4.41506">
        <ele>947</ele>
        <time>2021-04-26T14:57:15Z</time>
      </trkpt>
      <trkpt lat="45.23314" lon="4.41512">
        <ele>947</ele>
        <time>2021-04-26T14:57:16Z</time>
      </trkpt>
      <trkpt lat="45.23313" lon="4.41517">
        <ele>948</ele>
        <time>2021-04-26T14:57:17Z</time>
      </trkpt>
      <trkpt lat="45.23312" lon="4.41522">
        <ele>948</ele>
        <time>2021-04-26T14:57:18Z</time>
      </trkpt>
      <trkpt lat="45.23311" lon="4.41528">
        <ele>948</ele>
        <time>2021-04-26T14:57:19Z</time>
      </trkpt>
      <trkpt lat="45.23309" lon="4.41533">
        <ele>949</ele>
        <time>2021-04-26T14:57:20Z</time>
      </trkpt>
      <trkpt lat="45.23308" lon="4.41538">
        <ele>949</ele>
        <time>2021-04-26T14:57:21Z</time>
      </trkpt>
      <trkpt lat="45.23307" lon="4.41543">
        <ele>949</ele>
        <time>2021-04-26T14:57:22Z</time>
      </trkpt>
      <trkpt lat="45.23306" lon="4.41549">
        <ele>949</ele>
        <time>2021-04-26T14:57:23Z</time>
      </trkpt>
      <trkpt lat="45.23304" lon="4.41553">
        <ele>950</ele>
        <time>2021-04-26T14:57:24Z</time>
      </trkpt>
      <trkpt lat="45.23303" lon="4.41558">
        <ele>950</ele>
        <time>2021-04-26T14:57:25Z</time>
      </trkpt>
      <trkpt lat="45.23301" lon="4.41562">
        <ele>950</ele>
        <time>2021-04-26T14:57:26Z</time>
      </trkpt>
      <trkpt lat="45.233" lon="4.41567">
        <ele>950</ele>
        <time>2021-04-26T14:57:27Z</time>
      </trkpt>
      <trkpt lat="45.23298" lon="4.41572">
        <ele>950</ele>
        <time>2021-04-26T14:57:28Z</time>
      </trkpt>
      <trkpt lat="45.23297" lon="4.41577">
        <ele>951</ele>
        <time>2021-04-26T14:57:29Z</time>
      </trkpt>
      <trkpt lat="45.23295" lon="4.41582">
        <ele>951</ele>
        <time>2021-04-26T14:57:30Z</time>
      </trkpt>
      <trkpt lat="45.23294" lon="4.41587">
        <ele>951</ele>
        <time>2021-04-26T14:57:31Z</time>
      </trkpt>
      <trkpt lat="45.23293" lon="4.41592">
        <ele>951</ele>
        <time>2021-04-26T14:57:32Z</time>
      </trkpt>
      <trkpt lat="45.23292" lon="4.41596">
        <ele>951</ele>
        <time>2021-04-26T14:57:33Z</time>
      </trkpt>
      <trkpt lat="45.23291" lon="4.41601">
        <ele>951</ele>
        <time>2021-04-26T14:57:34Z</time>
      </trkpt>
      <trkpt lat="45.2329" lon="4.41605">
        <ele>952</ele>
        <time>2021-04-26T14:57:35Z</time>
      </trkpt>
      <trkpt lat="45.23289" lon="4.4161">
        <ele>952</ele>
        <time>2021-04-26T14:57:36Z</time>
      </trkpt>
      <trkpt lat="45.23288" lon="4.41615">
        <ele>952</ele>
        <time>2021-04-26T14:57:37Z</time>
      </trkpt>
      <trkpt lat="45.23286" lon="4.4162">
        <ele>952</ele>
        <time>2021-04-26T14:57:38Z</time>
      </trkpt>
      <trkpt lat="45.23285" lon="4.41625">
        <ele>952</ele>
        <time>2021-04-26T14:57:39Z</time>
      </trkpt>
      <trkpt lat="45.23284" lon="4.4163">
        <ele>953</ele>
        <time>2021-04-26T14:57:40Z</time>
      </trkpt>
      <trkpt lat="45.23283" lon="4.41634">
        <ele>953</ele>
        <time>2021-04-26T14:57:41Z</time>
      </trkpt>
      <trkpt lat="45.23282" lon="4.41639">
        <ele>953</ele>
        <time>2021-04-26T14:57:42Z</time>
      </trkpt>
      <trkpt lat="45.23282" lon="4.41643">
        <ele>953</ele>
        <time>2021-04-26T14:57:43Z</time>
      </trkpt>
      <trkpt lat="45.23281" lon="4.41646">
        <ele>953</ele>
        <time>2021-04-26T14:57:44Z</time>
      </trkpt>
      <trkpt lat="45.2328" lon="4.41648">
        <ele>953</ele>
        <time>2021-04-26T14:57:45Z</time>
      </trkpt>
      <trkpt lat="45.23279" lon="4.41652">
        <ele>954</ele>
        <time>2021-04-26T14:57:46Z</time>
      </trkpt>
      <trkpt lat="45.23278" lon="4.41656">
        <ele>954</ele>
        <time>2021-04-26T14:57:47Z</time>
      </trkpt>
      <trkpt lat="45.23277" lon="4.41661">
        <ele>954</ele>
        <time>2021-04-26T14:57:48Z</time>
      </trkpt>
      <trkpt lat="45.23276" lon="4.41666">
        <ele>954</ele>
        <time>2021-04-26T14:57:49Z</time>
      </trkpt>
      <trkpt lat="45.23275" lon="4.41671">
        <ele>954</ele>
        <time>2021-04-26T14:57:50Z</time>
      </trkpt>
      <trkpt lat="45.23273" lon="4.41676">
        <ele>955</ele>
        <time>2021-04-26T14:57:51Z</time>
      </trkpt>
      <trkpt lat="45.23272" lon="4.4168">
        <ele>955</ele>
        <time>2021-04-26T14:57:52Z</time>
      </trkpt>
      <trkpt lat="45.23271" lon="4.41685">
        <ele>955</ele>
        <time>2021-04-26T14:57:53Z</time>
      </trkpt>
      <trkpt lat="45.23269" lon="4.4169">
        <ele>955</ele>
        <time>2021-04-26T14:57:54Z</time>
      </trkpt>
      <trkpt lat="45.23268" lon="4.41694">
        <ele>955</ele>
        <time>2021-04-26T14:57:55Z</time>
      </trkpt>
      <trkpt lat="45.23267" lon="4.41699">
        <ele>955</ele>
        <time>2021-04-26T14:57:56Z</time>
      </trkpt>
      <trkpt lat="45.23266" lon="4.41703">
        <ele>955</ele>
        <time>2021-04-26T14:57:57Z</time>
      </trkpt>
      <trkpt lat="45.23264" lon="4.41708">
        <ele>956</ele>
        <time>2021-04-26T14:57:58Z</time>
      </trkpt>
      <trkpt lat="45.23263" lon="4.41713">
        <ele>956</ele>
        <time>2021-04-26T14:57:59Z</time>
      </trkpt>
      <trkpt lat="45.23262" lon="4.41718">
        <ele>956</ele>
        <time>2021-04-26T14:58:00Z</time>
      </trkpt>
      <trkpt lat="45.23261" lon="4.41723">
        <ele>956</ele>
        <time>2021-04-26T14:58:01Z</time>
      </trkpt>
      <trkpt lat="45.2326" lon="4.41728">
        <ele>957</ele>
        <time>2021-04-26T14:58:02Z</time>
      </trkpt>
      <trkpt lat="45.23259" lon="4.41732">
        <ele>957</ele>
        <time>2021-04-26T14:58:03Z</time>
      </trkpt>
      <trkpt lat="45.23258" lon="4.41737">
        <ele>957</ele>
        <time>2021-04-26T14:58:04Z</time>
      </trkpt>
      <trkpt lat="45.23257" lon="4.41742">
        <ele>957</ele>
        <time>2021-04-26T14:58:05Z</time>
      </trkpt>
      <trkpt lat="45.23256" lon="4.41747">
        <ele>957</ele>
        <time>2021-04-26T14:58:06Z</time>
      </trkpt>
      <trkpt lat="45.23255" lon="4.41751">
        <ele>958</ele>
        <time>2021-04-26T14:58:07Z</time>
      </trkpt>
      <trkpt lat="45.23254" lon="4.41755">
        <ele>958</ele>
        <time>2021-04-26T14:58:08Z</time>
      </trkpt>
      <trkpt lat="45.23253" lon="4.41759">
        <ele>958</ele>
        <time>2021-04-26T14:58:09Z</time>
      </trkpt>
      <trkpt lat="45.23252" lon="4.41763">
        <ele>959</ele>
        <time>2021-04-26T14:58:10Z</time>
      </trkpt>
      <trkpt lat="45.23251" lon="4.41768">
        <ele>959</ele>
        <time>2021-04-26T14:58:11Z</time>
      </trkpt>
      <trkpt lat="45.2325" lon="4.41772">
        <ele>959</ele>
        <time>2021-04-26T14:58:12Z</time>
      </trkpt>
      <trkpt lat="45.23249" lon="4.41777">
        <ele>959</ele>
        <time>2021-04-26T14:58:13Z</time>
      </trkpt>
      <trkpt lat="45.23248" lon="4.41782">
        <ele>960</ele>
        <time>2021-04-26T14:58:14Z</time>
      </trkpt>
      <trkpt lat="45.23247" lon="4.41787">
        <ele>960</ele>
        <time>2021-04-26T14:58:15Z</time>
      </trkpt>
      <trkpt lat="45.23245" lon="4.41791">
        <ele>960</ele>
        <time>2021-04-26T14:58:16Z</time>
      </trkpt>
      <trkpt lat="45.23244" lon="4.41796">
        <ele>960</ele>
        <time>2021-04-26T14:58:17Z</time>
      </trkpt>
      <trkpt lat="45.23243" lon="4.41801">
        <ele>960</ele>
        <time>2021-04-26T14:58:18Z</time>
      </trkpt>
      <trkpt lat="45.23242" lon="4.41805">
        <ele>961</ele>
        <time>2021-04-26T14:58:19Z</time>
      </trkpt>
      <trkpt lat="45.23241" lon="4.4181">
        <ele>961</ele>
        <time>2021-04-26T14:58:20Z</time>
      </trkpt>
      <trkpt lat="45.2324" lon="4.41815">
        <ele>961</ele>
        <time>2021-04-26T14:58:21Z</time>
      </trkpt>
      <trkpt lat="45.23239" lon="4.4182">
        <ele>961</ele>
        <time>2021-04-26T14:58:22Z</time>
      </trkpt>
      <trkpt lat="45.23238" lon="4.41825">
        <ele>962</ele>
        <time>2021-04-26T14:58:23Z</time>
      </trkpt>
      <trkpt lat="45.23237" lon="4.4183">
        <ele>962</ele>
        <time>2021-04-26T14:58:24Z</time>
      </trkpt>
      <trkpt lat="45.23236" lon="4.41835">
        <ele>962</ele>
        <time>2021-04-26T14:58:25Z</time>
      </trkpt>
      <trkpt lat="45.23235" lon="4.4184">
        <ele>962</ele>
        <time>2021-04-26T14:58:26Z</time>
      </trkpt>
      <trkpt lat="45.23233" lon="4.41845">
        <ele>963</ele>
        <time>2021-04-26T14:58:27Z</time>
      </trkpt>
      <trkpt lat="45.23232" lon="4.4185">
        <ele>963</ele>
        <time>2021-04-26T14:58:28Z</time>
      </trkpt>
      <trkpt lat="45.23231" lon="4.41856">
        <ele>963</ele>
        <time>2021-04-26T14:58:29Z</time>
      </trkpt>
      <trkpt lat="45.2323" lon="4.41861">
        <ele>963</ele>
        <time>2021-04-26T14:58:30Z</time>
      </trkpt>
      <trkpt lat="45.23229" lon="4.41866">
        <ele>963</ele>
        <time>2021-04-26T14:58:31Z</time>
      </trkpt>
      <trkpt lat="45.23227" lon="4.41871">
        <ele>964</ele>
        <time>2021-04-26T14:58:32Z</time>
      </trkpt>
      <trkpt lat="45.23226" lon="4.41876">
        <ele>964</ele>
        <time>2021-04-26T14:58:33Z</time>
      </trkpt>
      <trkpt lat="45.23225" lon="4.41881">
        <ele>964</ele>
        <time>2021-04-26T14:58:34Z</time>
      </trkpt>
      <trkpt lat="45.23223" lon="4.41887">
        <ele>964</ele>
        <time>2021-04-26T14:58:35Z</time>
      </trkpt>
      <trkpt lat="45.23222" lon="4.41892">
        <ele>964</ele>
        <time>2021-04-26T14:58:36Z</time>
      </trkpt>
      <trkpt lat="45.23221" lon="4.41897">
        <ele>964</ele>
        <time>2021-04-26T14:58:37Z</time>
      </trkpt>
      <trkpt lat="45.23219" lon="4.41902">
        <ele>964</ele>
        <time>2021-04-26T14:58:38Z</time>
      </trkpt>
      <trkpt lat="45.23219" lon="4.41907">
        <ele>965</ele>
        <time>2021-04-26T14:58:39Z</time>
      </trkpt>
      <trkpt lat="45.23218" lon="4.41912">
        <ele>965</ele>
        <time>2021-04-26T14:58:40Z</time>
      </trkpt>
      <trkpt lat="45.23217" lon="4.41917">
        <ele>965</ele>
        <time>2021-04-26T14:58:41Z</time>
      </trkpt>
      <trkpt lat="45.23217" lon="4.41923">
        <ele>965</ele>
        <time>2021-04-26T14:58:42Z</time>
      </trkpt>
      <trkpt lat="45.23216" lon="4.41928">
        <ele>965</ele>
        <time>2021-04-26T14:58:43Z</time>
      </trkpt>
      <trkpt lat="45.23216" lon="4.41933">
        <ele>965</ele>
        <time>2021-04-26T14:58:44Z</time>
      </trkpt>
      <trkpt lat="45.23215" lon="4.41938">
        <ele>966</ele>
        <time>2021-04-26T14:58:45Z</time>
      </trkpt>
      <trkpt lat="45.23215" lon="4.41943">
        <ele>966</ele>
        <time>2021-04-26T14:58:46Z</time>
      </trkpt>
      <trkpt lat="45.23215" lon="4.41948">
        <ele>966</ele>
        <time>2021-04-26T14:58:47Z</time>
      </trkpt>
      <trkpt lat="45.23215" lon="4.41953">
        <ele>967</ele>
        <time>2021-04-26T14:58:48Z</time>
      </trkpt>
      <trkpt lat="45.23215" lon="4.41958">
        <ele>967</ele>
        <time>2021-04-26T14:58:49Z</time>
      </trkpt>
      <trkpt lat="45.23215" lon="4.41962">
        <ele>967</ele>
        <time>2021-04-26T14:58:50Z</time>
      </trkpt>
      <trkpt lat="45.23215" lon="4.41967">
        <ele>967</ele>
        <time>2021-04-26T14:58:51Z</time>
      </trkpt>
      <trkpt lat="45.23215" lon="4.41973">
        <ele>967</ele>
        <time>2021-04-26T14:58:52Z</time>
      </trkpt>
      <trkpt lat="45.23215" lon="4.41978">
        <ele>967</ele>
        <time>2021-04-26T14:58:53Z</time>
      </trkpt>
      <trkpt lat="45.23215" lon="4.41983">
        <ele>967</ele>
        <time>2021-04-26T14:58:54Z</time>
      </trkpt>
      <trkpt lat="45.23215" lon="4.41989">
        <ele>967</ele>
        <time>2021-04-26T14:58:55Z</time>
      </trkpt>
      <trkpt lat="45.23215" lon="4.41994">
        <ele>967</ele>
        <time>2021-04-26T14:58:56Z</time>
      </trkpt>
      <trkpt lat="45.23215" lon="4.41999">
        <ele>967</ele>
        <time>2021-04-26T14:58:57Z</time>
      </trkpt>
      <trkpt lat="45.23214" lon="4.42004">
        <ele>967</ele>
        <time>2021-04-26T14:58:58Z</time>
      </trkpt>
      <trkpt lat="45.23214" lon="4.4201">
        <ele>967</ele>
        <time>2021-04-26T14:58:59Z</time>
      </trkpt>
      <trkpt lat="45.23215" lon="4.42016">
        <ele>967</ele>
        <time>2021-04-26T14:59:00Z</time>
      </trkpt>
      <trkpt lat="45.23215" lon="4.42021">
        <ele>967</ele>
        <time>2021-04-26T14:59:01Z</time>
      </trkpt>
      <trkpt lat="45.23215" lon="4.42027">
        <ele>967</ele>
        <time>2021-04-26T14:59:02Z</time>
      </trkpt>
      <trkpt lat="45.23216" lon="4.42032">
        <ele>967</ele>
        <time>2021-04-26T14:59:03Z</time>
      </trkpt>
      <trkpt lat="45.23216" lon="4.42038">
        <ele>968</ele>
        <time>2021-04-26T14:59:04Z</time>
      </trkpt>
      <trkpt lat="45.23217" lon="4.42044">
        <ele>968</ele>
        <time>2021-04-26T14:59:05Z</time>
      </trkpt>
      <trkpt lat="45.23218" lon="4.4205">
        <ele>968</ele>
        <time>2021-04-26T14:59:06Z</time>
      </trkpt>
      <trkpt lat="45.23219" lon="4.42056">
        <ele>968</ele>
        <time>2021-04-26T14:59:07Z</time>
      </trkpt>
      <trkpt lat="45.2322" lon="4.42062">
        <ele>968</ele>
        <time>2021-04-26T14:59:08Z</time>
      </trkpt>
      <trkpt lat="45.23221" lon="4.42068">
        <ele>968</ele>
        <time>2021-04-26T14:59:09Z</time>
      </trkpt>
      <trkpt lat="45.23222" lon="4.42075">
        <ele>968</ele>
        <time>2021-04-26T14:59:10Z</time>
      </trkpt>
      <trkpt lat="45.23224" lon="4.42081">
        <ele>968</ele>
        <time>2021-04-26T14:59:11Z</time>
      </trkpt>
      <trkpt lat="45.23225" lon="4.42087">
        <ele>968</ele>
        <time>2021-04-26T14:59:12Z</time>
      </trkpt>
      <trkpt lat="45.23226" lon="4.42094">
        <ele>968</ele>
        <time>2021-04-26T14:59:13Z</time>
      </trkpt>
      <trkpt lat="45.23228" lon="4.421">
        <ele>968</ele>
        <time>2021-04-26T14:59:14Z</time>
      </trkpt>
      <trkpt lat="45.23229" lon="4.42107">
        <ele>969</ele>
        <time>2021-04-26T14:59:15Z</time>
      </trkpt>
      <trkpt lat="45.2323" lon="4.42113">
        <ele>969</ele>
        <time>2021-04-26T14:59:16Z</time>
      </trkpt>
      <trkpt lat="45.23231" lon="4.4212">
        <ele>969</ele>
        <time>2021-04-26T14:59:17Z</time>
      </trkpt>
      <trkpt lat="45.23232" lon="4.42126">
        <ele>969</ele>
        <time>2021-04-26T14:59:18Z</time>
      </trkpt>
      <trkpt lat="45.23233" lon="4.42133">
        <ele>969</ele>
        <time>2021-04-26T14:59:19Z</time>
      </trkpt>
      <trkpt lat="45.23234" lon="4.42139">
        <ele>969</ele>
        <time>2021-04-26T14:59:20Z</time>
      </trkpt>
      <trkpt lat="45.23234" lon="4.42146">
        <ele>969</ele>
        <time>2021-04-26T14:59:21Z</time>
      </trkpt>
      <trkpt lat="45.23235" lon="4.42152">
        <ele>969</ele>
        <time>2021-04-26T14:59:22Z</time>
      </trkpt>
      <trkpt lat="45.23235" lon="4.42159">
        <ele>969</ele>
        <time>2021-04-26T14:59:23Z</time>
      </trkpt>
      <trkpt lat="45.23236" lon="4.42166">
        <ele>969</ele>
        <time>2021-04-26T14:59:24Z</time>
      </trkpt>
      <trkpt lat="45.23236" lon="4.42172">
        <ele>969</ele>
        <time>2021-04-26T14:59:25Z</time>
      </trkpt>
      <trkpt lat="45.23237" lon="4.42178">
        <ele>969</ele>
        <time>2021-04-26T14:59:26Z</time>
      </trkpt>
      <trkpt lat="45.23237" lon="4.42185">
        <ele>969</ele>
        <time>2021-04-26T14:59:27Z</time>
      </trkpt>
      <trkpt lat="45.23238" lon="4.42191">
        <ele>969</ele>
        <time>2021-04-26T14:59:28Z</time>
      </trkpt>
      <trkpt lat="45.23239" lon="4.42198">
        <ele>969</ele>
        <time>2021-04-26T14:59:29Z</time>
      </trkpt>
      <trkpt lat="45.23239" lon="4.42204">
        <ele>969</ele>
        <time>2021-04-26T14:59:30Z</time>
      </trkpt>
      <trkpt lat="45.2324" lon="4.4221">
        <ele>970</ele>
        <time>2021-04-26T14:59:31Z</time>
      </trkpt>
      <trkpt lat="45.23241" lon="4.42216">
        <ele>970</ele>
        <time>2021-04-26T14:59:32Z</time>
      </trkpt>
      <trkpt lat="45.23242" lon="4.42221">
        <ele>970</ele>
        <time>2021-04-26T14:59:33Z</time>
      </trkpt>
      <trkpt lat="45.23243" lon="4.42227">
        <ele>970</ele>
        <time>2021-04-26T14:59:34Z</time>
      </trkpt>
      <trkpt lat="45.23245" lon="4.42231">
        <ele>970</ele>
        <time>2021-04-26T14:59:35Z</time>
      </trkpt>
      <trkpt lat="45.23246" lon="4.42237">
        <ele>970</ele>
        <time>2021-04-26T14:59:36Z</time>
      </trkpt>
      <trkpt lat="45.23247" lon="4.42242">
        <ele>970</ele>
        <time>2021-04-26T14:59:37Z</time>
      </trkpt>
      <trkpt lat="45.23249" lon="4.42248">
        <ele>970</ele>
        <time>2021-04-26T14:59:38Z</time>
      </trkpt>
      <trkpt lat="45.2325" lon="4.42254">
        <ele>970</ele>
        <time>2021-04-26T14:59:39Z</time>
      </trkpt>
      <trkpt lat="45.23252" lon="4.4226">
        <ele>970</ele>
        <time>2021-04-26T14:59:40Z</time>
      </trkpt>
      <trkpt lat="45.23254" lon="4.42266">
        <ele>970</ele>
        <time>2021-04-26T14:59:41Z</time>
      </trkpt>
      <trkpt lat="45.23255" lon="4.42271">
        <ele>970</ele>
        <time>2021-04-26T14:59:42Z</time>
      </trkpt>
      <trkpt lat="45.23257" lon="4.42277">
        <ele>970</ele>
        <time>2021-04-26T14:59:43Z</time>
      </trkpt>
      <trkpt lat="45.23259" lon="4.42282">
        <ele>970</ele>
        <time>2021-04-26T14:59:44Z</time>
      </trkpt>
      <trkpt lat="45.2326" lon="4.42287">
        <ele>971</ele>
        <time>2021-04-26T14:59:45Z</time>
      </trkpt>
      <trkpt lat="45.23262" lon="4.42293">
        <ele>971</ele>
        <time>2021-04-26T14:59:46Z</time>
      </trkpt>
      <trkpt lat="45.23264" lon="4.42298">
        <ele>971</ele>
        <time>2021-04-26T14:59:47Z</time>
      </trkpt>
      <trkpt lat="45.23265" lon="4.42303">
        <ele>971</ele>
        <time>2021-04-26T14:59:48Z</time>
      </trkpt>
      <trkpt lat="45.23267" lon="4.42308">
        <ele>971</ele>
        <time>2021-04-26T14:59:49Z</time>
      </trkpt>
      <trkpt lat="45.23269" lon="4.42313">
        <ele>971</ele>
        <time>2021-04-26T14:59:50Z</time>
      </trkpt>
      <trkpt lat="45.23271" lon="4.42317">
        <ele>971</ele>
        <time>2021-04-26T14:59:51Z</time>
      </trkpt>
      <trkpt lat="45.23272" lon="4.42322">
        <ele>971</ele>
        <time>2021-04-26T14:59:52Z</time>
      </trkpt>
      <trkpt lat="45.23274" lon="4.42326">
        <ele>972</ele>
        <time>2021-04-26T14:59:53Z</time>
      </trkpt>
      <trkpt lat="45.23276" lon="4.42331">
        <ele>972</ele>
        <time>2021-04-26T14:59:54Z</time>
      </trkpt>
      <trkpt lat="45.23278" lon="4.42336">
        <ele>972</ele>
        <time>2021-04-26T14:59:55Z</time>
      </trkpt>
      <trkpt lat="45.2328" lon="4.42341">
        <ele>972</ele>
        <time>2021-04-26T14:59:56Z</time>
      </trkpt>
      <trkpt lat="45.23283" lon="4.42346">
        <ele>972</ele>
        <time>2021-04-26T14:59:57Z</time>
      </trkpt>
      <trkpt lat="45.23284" lon="4.42351">
        <ele>972</ele>
        <time>2021-04-26T14:59:58Z</time>
      </trkpt>
      <trkpt lat="45.23286" lon="4.42355">
        <ele>972</ele>
        <time>2021-04-26T14:59:59Z</time>
      </trkpt>
      <trkpt lat="45.23288" lon="4.4236">
        <ele>973</ele>
        <time>2021-04-26T15:00:00Z</time>
      </trkpt>
      <trkpt lat="45.23289" lon="4.42365">
        <ele>973</ele>
        <time>2021-04-26T15:00:01Z</time>
      </trkpt>
      <trkpt lat="45.23291" lon="4.4237">
        <ele>973</ele>
        <time>2021-04-26T15:00:02Z</time>
      </trkpt>
      <trkpt lat="45.23292" lon="4.42375">
        <ele>973</ele>
        <time>2021-04-26T15:00:03Z</time>
      </trkpt>
      <trkpt lat="45.23294" lon="4.4238">
        <ele>973</ele>
        <time>2021-04-26T15:00:04Z</time>
      </trkpt>
      <trkpt lat="45.23295" lon="4.42385">
        <ele>973</ele>
        <time>2021-04-26T15:00:05Z</time>
      </trkpt>
      <trkpt lat="45.23297" lon="4.4239">
        <ele>974</ele>
        <time>2021-04-26T15:00:06Z</time>
      </trkpt>
      <trkpt lat="45.23298" lon="4.42395">
        <ele>974</ele>
        <time>2021-04-26T15:00:07Z</time>
      </trkpt>
      <trkpt lat="45.23299" lon="4.424">
        <ele>974</ele>
        <time>2021-04-26T15:00:08Z</time>
      </trkpt>
      <trkpt lat="45.23301" lon="4.42405">
        <ele>974</ele>
        <time>2021-04-26T15:00:09Z</time>
      </trkpt>
      <trkpt lat="45.23303" lon="4.42409">
        <ele>975</ele>
        <time>2021-04-26T15:00:10Z</time>
      </trkpt>
      <trkpt lat="45.23305" lon="4.42414">
        <ele>975</ele>
        <time>2021-04-26T15:00:11Z</time>
      </trkpt>
      <trkpt lat="45.23306" lon="4.42419">
        <ele>975</ele>
        <time>2021-04-26T15:00:12Z</time>
      </trkpt>
      <trkpt lat="45.23307" lon="4.42424">
        <ele>975</ele>
        <time>2021-04-26T15:00:13Z</time>
      </trkpt>
      <trkpt lat="45.23308" lon="4.42429">
        <ele>975</ele>
        <time>2021-04-26T15:00:14Z</time>
      </trkpt>
      <trkpt lat="45.23309" lon="4.42434">
        <ele>976</ele>
        <time>2021-04-26T15:00:15Z</time>
      </trkpt>
      <trkpt lat="45.2331" lon="4.42439">
        <ele>976</ele>
        <time>2021-04-26T15:00:16Z</time>
      </trkpt>
      <trkpt lat="45.23311" lon="4.42444">
        <ele>976</ele>
        <time>2021-04-26T15:00:17Z</time>
      </trkpt>
      <trkpt lat="45.23311" lon="4.42449">
        <ele>976</ele>
        <time>2021-04-26T15:00:18Z</time>
      </trkpt>
      <trkpt lat="45.23311" lon="4.42454">
        <ele>976</ele>
        <time>2021-04-26T15:00:19Z</time>
      </trkpt>
      <trkpt lat="45.23311" lon="4.42458">
        <ele>977</ele>
        <time>2021-04-26T15:00:20Z</time>
      </trkpt>
      <trkpt lat="45.23312" lon="4.42462">
        <ele>977</ele>
        <time>2021-04-26T15:00:21Z</time>
      </trkpt>
      <trkpt lat="45.23313" lon="4.42465">
        <ele>977</ele>
        <time>2021-04-26T15:00:22Z</time>
      </trkpt>
      <trkpt lat="45.23315" lon="4.42467">
        <ele>977</ele>
        <time>2021-04-26T15:00:23Z</time>
      </trkpt>
      <trkpt lat="45.23318" lon="4.42468">
        <ele>977</ele>
        <time>2021-04-26T15:00:24Z</time>
      </trkpt>
      <trkpt lat="45.23321" lon="4.42469">
        <ele>977</ele>
        <time>2021-04-26T15:00:25Z</time>
      </trkpt>
      <trkpt lat="45.23325" lon="4.42469">
        <ele>977</ele>
        <time>2021-04-26T15:00:26Z</time>
      </trkpt>
      <trkpt lat="45.23328" lon="4.42469">
        <ele>977</ele>
        <time>2021-04-26T15:00:27Z</time>
      </trkpt>
      <trkpt lat="45.23331" lon="4.4247">
        <ele>977</ele>
        <time>2021-04-26T15:00:28Z</time>
      </trkpt>
      <trkpt lat="45.23334" lon="4.4247">
        <ele>978</ele>
        <time>2021-04-26T15:00:29Z</time>
      </trkpt>
      <trkpt lat="45.23337" lon="4.4247">
        <ele>978</ele>
        <time>2021-04-26T15:00:30Z</time>
      </trkpt>
      <trkpt lat="45.23339" lon="4.42469">
        <ele>978</ele>
        <time>2021-04-26T15:00:31Z</time>
      </trkpt>
      <trkpt lat="45.23341" lon="4.42467">
        <ele>979</ele>
        <time>2021-04-26T15:00:33Z</time>
      </trkpt>
      <trkpt lat="45.23343" lon="4.42463">
        <ele>979</ele>
        <time>2021-04-26T15:00:35Z</time>
      </trkpt>
      <trkpt lat="45.23345" lon="4.42461">
        <ele>979</ele>
        <time>2021-04-26T15:00:36Z</time>
      </trkpt>
      <trkpt lat="45.23347" lon="4.42459">
        <ele>979</ele>
        <time>2021-04-26T15:00:37Z</time>
      </trkpt>
      <trkpt lat="45.23348" lon="4.42458">
        <ele>979</ele>
        <time>2021-04-26T15:00:38Z</time>
      </trkpt>
      <trkpt lat="45.23351" lon="4.42456">
        <ele>980</ele>
        <time>2021-04-26T15:00:40Z</time>
      </trkpt>
      <trkpt lat="45.23355" lon="4.42455">
        <ele>980</ele>
        <time>2021-04-26T15:00:42Z</time>
      </trkpt>
      <trkpt lat="45.23357" lon="4.42458">
        <ele>980</ele>
        <time>2021-04-26T15:00:43Z</time>
      </trkpt>
      <trkpt lat="45.23358" lon="4.42462">
        <ele>981</ele>
        <time>2021-04-26T15:00:44Z</time>
      </trkpt>
      <trkpt lat="45.2336" lon="4.42465">
        <ele>981</ele>
        <time>2021-04-26T15:00:45Z</time>
      </trkpt>
      <trkpt lat="45.23361" lon="4.42468">
        <ele>981</ele>
        <time>2021-04-26T15:00:46Z</time>
      </trkpt>
      <trkpt lat="45.23363" lon="4.4247">
        <ele>981</ele>
        <time>2021-04-26T15:00:47Z</time>
      </trkpt>
      <trkpt lat="45.23366" lon="4.42472">
        <ele>982</ele>
        <time>2021-04-26T15:00:48Z</time>
      </trkpt>
      <trkpt lat="45.23368" lon="4.42473">
        <ele>982</ele>
        <time>2021-04-26T15:00:49Z</time>
      </trkpt>
      <trkpt lat="45.2337" lon="4.42474">
        <ele>982</ele>
        <time>2021-04-26T15:00:50Z</time>
      </trkpt>
      <trkpt lat="45.23372" lon="4.42474">
        <ele>982</ele>
        <time>2021-04-26T15:00:51Z</time>
      </trkpt>
      <trkpt lat="45.23375" lon="4.42474">
        <ele>983</ele>
        <time>2021-04-26T15:00:52Z</time>
      </trkpt>
      <trkpt lat="45.23377" lon="4.42475">
        <ele>983</ele>
        <time>2021-04-26T15:00:53Z</time>
      </trkpt>
      <trkpt lat="45.23379" lon="4.42476">
        <ele>983</ele>
        <time>2021-04-26T15:00:54Z</time>
      </trkpt>
      <trkpt lat="45.23382" lon="4.42478">
        <ele>984</ele>
        <time>2021-04-26T15:00:55Z</time>
      </trkpt>
      <trkpt lat="45.23384" lon="4.4248">
        <ele>984</ele>
        <time>2021-04-26T15:00:56Z</time>
      </trkpt>
      <trkpt lat="45.23386" lon="4.42482">
        <ele>984</ele>
        <time>2021-04-26T15:00:57Z</time>
      </trkpt>
      <trkpt lat="45.23388" lon="4.42484">
        <ele>985</ele>
        <time>2021-04-26T15:00:58Z</time>
      </trkpt>
      <trkpt lat="45.2339" lon="4.42487">
        <ele>985</ele>
        <time>2021-04-26T15:00:59Z</time>
      </trkpt>
      <trkpt lat="45.23392" lon="4.42489">
        <ele>986</ele>
        <time>2021-04-26T15:01:00Z</time>
      </trkpt>
      <trkpt lat="45.23394" lon="4.42491">
        <ele>987</ele>
        <time>2021-04-26T15:01:01Z</time>
      </trkpt>
      <trkpt lat="45.23396" lon="4.42493">
        <ele>987</ele>
        <time>2021-04-26T15:01:02Z</time>
      </trkpt>
      <trkpt lat="45.23398" lon="4.42494">
        <ele>988</ele>
        <time>2021-04-26T15:01:03Z</time>
      </trkpt>
      <trkpt lat="45.234" lon="4.42494">
        <ele>988</ele>
        <time>2021-04-26T15:01:04Z</time>
      </trkpt>
      <trkpt lat="45.23403" lon="4.42497">
        <ele>989</ele>
        <time>2021-04-26T15:01:06Z</time>
      </trkpt>
      <trkpt lat="45.23403" lon="4.42501">
        <ele>990</ele>
        <time>2021-04-26T15:01:08Z</time>
      </trkpt>
      <trkpt lat="45.23403" lon="4.42505">
        <ele>990</ele>
        <time>2021-04-26T15:01:10Z</time>
      </trkpt>
      <trkpt lat="45.23403" lon="4.42511">
        <ele>990</ele>
        <time>2021-04-26T15:01:12Z</time>
      </trkpt>
      <trkpt lat="45.23403" lon="4.42514">
        <ele>990</ele>
        <time>2021-04-26T15:01:13Z</time>
      </trkpt>
      <trkpt lat="45.23403" lon="4.42518">
        <ele>991</ele>
        <time>2021-04-26T15:01:14Z</time>
      </trkpt>
      <trkpt lat="45.23402" lon="4.42522">
        <ele>991</ele>
        <time>2021-04-26T15:01:15Z</time>
      </trkpt>
      <trkpt lat="45.23402" lon="4.42525">
        <ele>991</ele>
        <time>2021-04-26T15:01:16Z</time>
      </trkpt>
      <trkpt lat="45.23402" lon="4.42529">
        <ele>992</ele>
        <time>2021-04-26T15:01:17Z</time>
      </trkpt>
      <trkpt lat="45.23403" lon="4.42533">
        <ele>993</ele>
        <time>2021-04-26T15:01:18Z</time>
      </trkpt>
      <trkpt lat="45.23404" lon="4.42536">
        <ele>993</ele>
        <time>2021-04-26T15:01:19Z</time>
      </trkpt>
      <trkpt lat="45.23406" lon="4.42539">
        <ele>993</ele>
        <time>2021-04-26T15:01:20Z</time>
      </trkpt>
      <trkpt lat="45.23408" lon="4.42542">
        <ele>994</ele>
        <time>2021-04-26T15:01:21Z</time>
      </trkpt>
      <trkpt lat="45.23411" lon="4.42545">
        <ele>994</ele>
        <time>2021-04-26T15:01:22Z</time>
      </trkpt>
      <trkpt lat="45.23413" lon="4.42548">
        <ele>994</ele>
        <time>2021-04-26T15:01:23Z</time>
      </trkpt>
      <trkpt lat="45.23416" lon="4.42551">
        <ele>994</ele>
        <time>2021-04-26T15:01:24Z</time>
      </trkpt>
      <trkpt lat="45.23418" lon="4.42555">
        <ele>995</ele>
        <time>2021-04-26T15:01:25Z</time>
      </trkpt>
      <trkpt lat="45.2342" lon="4.42558">
        <ele>995</ele>
        <time>2021-04-26T15:01:26Z</time>
      </trkpt>
      <trkpt lat="45.23422" lon="4.42561">
        <ele>995</ele>
        <time>2021-04-26T15:01:27Z</time>
      </trkpt>
      <trkpt lat="45.23425" lon="4.42565">
        <ele>996</ele>
        <time>2021-04-26T15:01:28Z</time>
      </trkpt>
      <trkpt lat="45.23427" lon="4.42568">
        <ele>996</ele>
        <time>2021-04-26T15:01:29Z</time>
      </trkpt>
      <trkpt lat="45.23429" lon="4.42572">
        <ele>996</ele>
        <time>2021-04-26T15:01:30Z</time>
      </trkpt>
      <trkpt lat="45.23432" lon="4.42576">
        <ele>996</ele>
        <time>2021-04-26T15:01:31Z</time>
      </trkpt>
      <trkpt lat="45.23434" lon="4.4258">
        <ele>996</ele>
        <time>2021-04-26T15:01:32Z</time>
      </trkpt>
      <trkpt lat="45.23437" lon="4.42584">
        <ele>997</ele>
        <time>2021-04-26T15:01:33Z</time>
      </trkpt>
      <trkpt lat="45.23439" lon="4.42588">
        <ele>997</ele>
        <time>2021-04-26T15:01:34Z</time>
      </trkpt>
      <trkpt lat="45.23441" lon="4.42593">
        <ele>997</ele>
        <time>2021-04-26T15:01:35Z</time>
      </trkpt>
      <trkpt lat="45.23443" lon="4.42598">
        <ele>997</ele>
        <time>2021-04-26T15:01:36Z</time>
      </trkpt>
      <trkpt lat="45.23445" lon="4.42603">
        <ele>997</ele>
        <time>2021-04-26T15:01:37Z</time>
      </trkpt>
      <trkpt lat="45.23447" lon="4.42608">
        <ele>997</ele>
        <time>2021-04-26T15:01:38Z</time>
      </trkpt>
      <trkpt lat="45.23449" lon="4.42614">
        <ele>998</ele>
        <time>2021-04-26T15:01:39Z</time>
      </trkpt>
      <trkpt lat="45.23451" lon="4.42619">
        <ele>998</ele>
        <time>2021-04-26T15:01:40Z</time>
      </trkpt>
      <trkpt lat="45.23453" lon="4.42625">
        <ele>998</ele>
        <time>2021-04-26T15:01:41Z</time>
      </trkpt>
      <trkpt lat="45.23455" lon="4.42631">
        <ele>998</ele>
        <time>2021-04-26T15:01:42Z</time>
      </trkpt>
      <trkpt lat="45.23457" lon="4.42637">
        <ele>999</ele>
        <time>2021-04-26T15:01:43Z</time>
      </trkpt>
      <trkpt lat="45.23459" lon="4.42643">
        <ele>999</ele>
        <time>2021-04-26T15:01:44Z</time>
      </trkpt>
      <trkpt lat="45.23461" lon="4.42648">
        <ele>999</ele>
        <time>2021-04-26T15:01:45Z</time>
      </trkpt>
      <trkpt lat="45.23463" lon="4.42654">
        <ele>1000</ele>
        <time>2021-04-26T15:01:46Z</time>
      </trkpt>
      <trkpt lat="45.23465" lon="4.4266">
        <ele>1000</ele>
        <time>2021-04-26T15:01:47Z</time>
      </trkpt>
      <trkpt lat="45.23467" lon="4.42666">
        <ele>1000</ele>
        <time>2021-04-26T15:01:48Z</time>
      </trkpt>
      <trkpt lat="45.23469" lon="4.42672">
        <ele>1001</ele>
        <time>2021-04-26T15:01:49Z</time>
      </trkpt>
      <trkpt lat="45.23471" lon="4.42677">
        <ele>1001</ele>
        <time>2021-04-26T15:01:50Z</time>
      </trkpt>
      <trkpt lat="45.23473" lon="4.42682">
        <ele>1001</ele>
        <time>2021-04-26T15:01:51Z</time>
      </trkpt>
      <trkpt lat="45.23474" lon="4.42688">
        <ele>1002</ele>
        <time>2021-04-26T15:01:52Z</time>
      </trkpt>
      <trkpt lat="45.23477" lon="4.42693">
        <ele>1002</ele>
        <time>2021-04-26T15:01:53Z</time>
      </trkpt>
      <trkpt lat="45.23479" lon="4.42698">
        <ele>1002</ele>
        <time>2021-04-26T15:01:54Z</time>
      </trkpt>
      <trkpt lat="45.23481" lon="4.42703">
        <ele>1003</ele>
        <time>2021-04-26T15:01:55Z</time>
      </trkpt>
      <trkpt lat="45.23483" lon="4.42709">
        <ele>1003</ele>
        <time>2021-04-26T15:01:56Z</time>
      </trkpt>
      <trkpt lat="45.23485" lon="4.42714">
        <ele>1003</ele>
        <time>2021-04-26T15:01:57Z</time>
      </trkpt>
      <trkpt lat="45.23488" lon="4.42719">
        <ele>1004</ele>
        <time>2021-04-26T15:01:58Z</time>
      </trkpt>
      <trkpt lat="45.2349" lon="4.42725">
        <ele>1004</ele>
        <time>2021-04-26T15:01:59Z</time>
      </trkpt>
      <trkpt lat="45.23493" lon="4.4273">
        <ele>1004</ele>
        <time>2021-04-26T15:02:00Z</time>
      </trkpt>
      <trkpt lat="45.23495" lon="4.42736">
        <ele>1004</ele>
        <time>2021-04-26T15:02:01Z</time>
      </trkpt>
      <trkpt lat="45.23497" lon="4.42741">
        <ele>1004</ele>
        <time>2021-04-26T15:02:02Z</time>
      </trkpt>
      <trkpt lat="45.23499" lon="4.42747">
        <ele>1005</ele>
        <time>2021-04-26T15:02:03Z</time>
      </trkpt>
      <trkpt lat="45.23502" lon="4.42752">
        <ele>1005</ele>
        <time>2021-04-26T15:02:04Z</time>
      </trkpt>
      <trkpt lat="45.23505" lon="4.42758">
        <ele>1005</ele>
        <time>2021-04-26T15:02:05Z</time>
      </trkpt>
      <trkpt lat="45.23508" lon="4.42764">
        <ele>1005</ele>
        <time>2021-04-26T15:02:06Z</time>
      </trkpt>
      <trkpt lat="45.23511" lon="4.42769">
        <ele>1005</ele>
        <time>2021-04-26T15:02:07Z</time>
      </trkpt>
      <trkpt lat="45.23514" lon="4.42775">
        <ele>1005</ele>
        <time>2021-04-26T15:02:08Z</time>
      </trkpt>
      <trkpt lat="45.23517" lon="4.4278">
        <ele>1005</ele>
        <time>2021-04-26T15:02:09Z</time>
      </trkpt>
      <trkpt lat="45.2352" lon="4.42785">
        <ele>1005</ele>
        <time>2021-04-26T15:02:10Z</time>
      </trkpt>
      <trkpt lat="45.23524" lon="4.4279">
        <ele>1005</ele>
        <time>2021-04-26T15:02:11Z</time>
      </trkpt>
      <trkpt lat="45.23527" lon="4.42795">
        <ele>1005</ele>
        <time>2021-04-26T15:02:12Z</time>
      </trkpt>
      <trkpt lat="45.23531" lon="4.42801">
        <ele>1005</ele>
        <time>2021-04-26T15:02:13Z</time>
      </trkpt>
      <trkpt lat="45.23534" lon="4.42806">
        <ele>1005</ele>
        <time>2021-04-26T15:02:14Z</time>
      </trkpt>
      <trkpt lat="45.23538" lon="4.42813">
        <ele>1005</ele>
        <time>2021-04-26T15:02:15Z</time>
      </trkpt>
      <trkpt lat="45.23542" lon="4.42819">
        <ele>1005</ele>
        <time>2021-04-26T15:02:16Z</time>
      </trkpt>
      <trkpt lat="45.23546" lon="4.42825">
        <ele>1005</ele>
        <time>2021-04-26T15:02:17Z</time>
      </trkpt>
      <trkpt lat="45.2355" lon="4.42832">
        <ele>1005</ele>
        <time>2021-04-26T15:02:18Z</time>
      </trkpt>
      <trkpt lat="45.23553" lon="4.42838">
        <ele>1005</ele>
        <time>2021-04-26T15:02:19Z</time>
      </trkpt>
      <trkpt lat="45.23557" lon="4.42844">
        <ele>1005</ele>
        <time>2021-04-26T15:02:20Z</time>
      </trkpt>
      <trkpt lat="45.23561" lon="4.4285">
        <ele>1005</ele>
        <time>2021-04-26T15:02:21Z</time>
      </trkpt>
      <trkpt lat="45.23565" lon="4.42857">
        <ele>1005</ele>
        <time>2021-04-26T15:02:22Z</time>
      </trkpt>
      <trkpt lat="45.23569" lon="4.42863">
        <ele>1005</ele>
        <time>2021-04-26T15:02:23Z</time>
      </trkpt>
      <trkpt lat="45.23572" lon="4.42869">
        <ele>1005</ele>
        <time>2021-04-26T15:02:24Z</time>
      </trkpt>
      <trkpt lat="45.23576" lon="4.42876">
        <ele>1005</ele>
        <time>2021-04-26T15:02:25Z</time>
      </trkpt>
      <trkpt lat="45.2358" lon="4.42882">
        <ele>1005</ele>
        <time>2021-04-26T15:02:26Z</time>
      </trkpt>
      <trkpt lat="45.23583" lon="4.42888">
        <ele>1005</ele>
        <time>2021-04-26T15:02:27Z</time>
      </trkpt>
      <trkpt lat="45.23587" lon="4.42894">
        <ele>1005</ele>
        <time>2021-04-26T15:02:28Z</time>
      </trkpt>
      <trkpt lat="45.2359" lon="4.429">
        <ele>1005</ele>
        <time>2021-04-26T15:02:29Z</time>
      </trkpt>
      <trkpt lat="45.23594" lon="4.42906">
        <ele>1005</ele>
        <time>2021-04-26T15:02:30Z</time>
      </trkpt>
      <trkpt lat="45.23598" lon="4.42913">
        <ele>1005</ele>
        <time>2021-04-26T15:02:31Z</time>
      </trkpt>
      <trkpt lat="45.23601" lon="4.42919">
        <ele>1005</ele>
        <time>2021-04-26T15:02:32Z</time>
      </trkpt>
      <trkpt lat="45.23605" lon="4.42925">
        <ele>1005</ele>
        <time>2021-04-26T15:02:33Z</time>
      </trkpt>
      <trkpt lat="45.23608" lon="4.42931">
        <ele>1005</ele>
        <time>2021-04-26T15:02:34Z</time>
      </trkpt>
      <trkpt lat="45.23612" lon="4.42937">
        <ele>1005</ele>
        <time>2021-04-26T15:02:35Z</time>
      </trkpt>
      <trkpt lat="45.23615" lon="4.42943">
        <ele>1005</ele>
        <time>2021-04-26T15:02:36Z</time>
      </trkpt>
      <trkpt lat="45.23618" lon="4.42949">
        <ele>1005</ele>
        <time>2021-04-26T15:02:37Z</time>
      </trkpt>
      <trkpt lat="45.23621" lon="4.42955">
        <ele>1005</ele>
        <time>2021-04-26T15:02:38Z</time>
      </trkpt>
      <trkpt lat="45.23625" lon="4.42961">
        <ele>1005</ele>
        <time>2021-04-26T15:02:39Z</time>
      </trkpt>
      <trkpt lat="45.23628" lon="4.42967">
        <ele>1005</ele>
        <time>2021-04-26T15:02:40Z</time>
      </trkpt>
      <trkpt lat="45.23631" lon="4.42973">
        <ele>1005</ele>
        <time>2021-04-26T15:02:41Z</time>
      </trkpt>
      <trkpt lat="45.23634" lon="4.4298">
        <ele>1005</ele>
        <time>2021-04-26T15:02:42Z</time>
      </trkpt>
      <trkpt lat="45.23638" lon="4.42986">
        <ele>1005</ele>
        <time>2021-04-26T15:02:43Z</time>
      </trkpt>
      <trkpt lat="45.23641" lon="4.42992">
        <ele>1005</ele>
        <time>2021-04-26T15:02:44Z</time>
      </trkpt>
      <trkpt lat="45.23644" lon="4.42997">
        <ele>1005</ele>
        <time>2021-04-26T15:02:45Z</time>
      </trkpt>
      <trkpt lat="45.23647" lon="4.43002">
        <ele>1005</ele>
        <time>2021-04-26T15:02:46Z</time>
      </trkpt>
      <trkpt lat="45.2365" lon="4.43008">
        <ele>1005</ele>
        <time>2021-04-26T15:02:47Z</time>
      </trkpt>
      <trkpt lat="45.23653" lon="4.43014">
        <ele>1004</ele>
        <time>2021-04-26T15:02:48Z</time>
      </trkpt>
      <trkpt lat="45.23656" lon="4.43021">
        <ele>1004</ele>
        <time>2021-04-26T15:02:49Z</time>
      </trkpt>
      <trkpt lat="45.23659" lon="4.43027">
        <ele>1004</ele>
        <time>2021-04-26T15:02:50Z</time>
      </trkpt>
      <trkpt lat="45.23663" lon="4.43033">
        <ele>1004</ele>
        <time>2021-04-26T15:02:51Z</time>
      </trkpt>
      <trkpt lat="45.23666" lon="4.43039">
        <ele>1004</ele>
        <time>2021-04-26T15:02:52Z</time>
      </trkpt>
      <trkpt lat="45.23669" lon="4.43044">
        <ele>1004</ele>
        <time>2021-04-26T15:02:53Z</time>
      </trkpt>
      <trkpt lat="45.23672" lon="4.4305">
        <ele>1004</ele>
        <time>2021-04-26T15:02:54Z</time>
      </trkpt>
      <trkpt lat="45.23675" lon="4.43056">
        <ele>1004</ele>
        <time>2021-04-26T15:02:55Z</time>
      </trkpt>
      <trkpt lat="45.23677" lon="4.43063">
        <ele>1003</ele>
        <time>2021-04-26T15:02:56Z</time>
      </trkpt>
      <trkpt lat="45.2368" lon="4.4307">
        <ele>1003</ele>
        <time>2021-04-26T15:02:57Z</time>
      </trkpt>
      <trkpt lat="45.23682" lon="4.43077">
        <ele>1003</ele>
        <time>2021-04-26T15:02:58Z</time>
      </trkpt>
      <trkpt lat="45.23684" lon="4.43084">
        <ele>1003</ele>
        <time>2021-04-26T15:02:59Z</time>
      </trkpt>
      <trkpt lat="45.23686" lon="4.4309">
        <ele>1003</ele>
        <time>2021-04-26T15:03:00Z</time>
      </trkpt>
      <trkpt lat="45.23687" lon="4.43097">
        <ele>1003</ele>
        <time>2021-04-26T15:03:01Z</time>
      </trkpt>
      <trkpt lat="45.2369" lon="4.43103">
        <ele>1003</ele>
        <time>2021-04-26T15:03:02Z</time>
      </trkpt>
      <trkpt lat="45.23692" lon="4.4311">
        <ele>1003</ele>
        <time>2021-04-26T15:03:03Z</time>
      </trkpt>
      <trkpt lat="45.23696" lon="4.43116">
        <ele>1003</ele>
        <time>2021-04-26T15:03:04Z</time>
      </trkpt>
      <trkpt lat="45.237" lon="4.43122">
        <ele>1003</ele>
        <time>2021-04-26T15:03:05Z</time>
      </trkpt>
      <trkpt lat="45.23704" lon="4.43129">
        <ele>1003</ele>
        <time>2021-04-26T15:03:06Z</time>
      </trkpt>
      <trkpt lat="45.23708" lon="4.43135">
        <ele>1003</ele>
        <time>2021-04-26T15:03:07Z</time>
      </trkpt>
      <trkpt lat="45.23712" lon="4.43141">
        <ele>1003</ele>
        <time>2021-04-26T15:03:08Z</time>
      </trkpt>
      <trkpt lat="45.23716" lon="4.43145">
        <ele>1003</ele>
        <time>2021-04-26T15:03:09Z</time>
      </trkpt>
      <trkpt lat="45.2372" lon="4.4315">
        <ele>1003</ele>
        <time>2021-04-26T15:03:10Z</time>
      </trkpt>
      <trkpt lat="45.23724" lon="4.43154">
        <ele>1002</ele>
        <time>2021-04-26T15:03:11Z</time>
      </trkpt>
      <trkpt lat="45.23728" lon="4.43158">
        <ele>1002</ele>
        <time>2021-04-26T15:03:12Z</time>
      </trkpt>
      <trkpt lat="45.23732" lon="4.43164">
        <ele>1002</ele>
        <time>2021-04-26T15:03:13Z</time>
      </trkpt>
      <trkpt lat="45.23735" lon="4.43169">
        <ele>1002</ele>
        <time>2021-04-26T15:03:14Z</time>
      </trkpt>
      <trkpt lat="45.23739" lon="4.43174">
        <ele>1002</ele>
        <time>2021-04-26T15:03:15Z</time>
      </trkpt>
      <trkpt lat="45.23743" lon="4.43179">
        <ele>1002</ele>
        <time>2021-04-26T15:03:16Z</time>
      </trkpt>
      <trkpt lat="45.23747" lon="4.43184">
        <ele>1002</ele>
        <time>2021-04-26T15:03:17Z</time>
      </trkpt>
      <trkpt lat="45.2375" lon="4.43188">
        <ele>1002</ele>
        <time>2021-04-26T15:03:18Z</time>
      </trkpt>
      <trkpt lat="45.23754" lon="4.43193">
        <ele>1002</ele>
        <time>2021-04-26T15:03:19Z</time>
      </trkpt>
      <trkpt lat="45.23758" lon="4.43197">
        <ele>1001</ele>
        <time>2021-04-26T15:03:20Z</time>
      </trkpt>
      <trkpt lat="45.23762" lon="4.43202">
        <ele>1001</ele>
        <time>2021-04-26T15:03:21Z</time>
      </trkpt>
      <trkpt lat="45.23766" lon="4.43207">
        <ele>1001</ele>
        <time>2021-04-26T15:03:22Z</time>
      </trkpt>
      <trkpt lat="45.2377" lon="4.43212">
        <ele>1001</ele>
        <time>2021-04-26T15:03:23Z</time>
      </trkpt>
      <trkpt lat="45.23775" lon="4.43216">
        <ele>1001</ele>
        <time>2021-04-26T15:03:24Z</time>
      </trkpt>
      <trkpt lat="45.23779" lon="4.43221">
        <ele>1001</ele>
        <time>2021-04-26T15:03:25Z</time>
      </trkpt>
      <trkpt lat="45.23784" lon="4.43226">
        <ele>1001</ele>
        <time>2021-04-26T15:03:26Z</time>
      </trkpt>
      <trkpt lat="45.23789" lon="4.43231">
        <ele>1001</ele>
        <time>2021-04-26T15:03:27Z</time>
      </trkpt>
      <trkpt lat="45.23794" lon="4.43236">
        <ele>1001</ele>
        <time>2021-04-26T15:03:28Z</time>
      </trkpt>
      <trkpt lat="45.23798" lon="4.43242">
        <ele>1001</ele>
        <time>2021-04-26T15:03:29Z</time>
      </trkpt>
      <trkpt lat="45.23802" lon="4.43247">
        <ele>1000</ele>
        <time>2021-04-26T15:03:30Z</time>
      </trkpt>
      <trkpt lat="45.23804" lon="4.43254">
        <ele>1000</ele>
        <time>2021-04-26T15:03:31Z</time>
      </trkpt>
      <trkpt lat="45.23806" lon="4.4326">
        <ele>1000</ele>
        <time>2021-04-26T15:03:32Z</time>
      </trkpt>
      <trkpt lat="45.23806" lon="4.43267">
        <ele>1000</ele>
        <time>2021-04-26T15:03:33Z</time>
      </trkpt>
      <trkpt lat="45.23807" lon="4.43273">
        <ele>1000</ele>
        <time>2021-04-26T15:03:34Z</time>
      </trkpt>
      <trkpt lat="45.2381" lon="4.43279">
        <ele>1000</ele>
        <time>2021-04-26T15:03:35Z</time>
      </trkpt>
      <trkpt lat="45.23814" lon="4.43282">
        <ele>1000</ele>
        <time>2021-04-26T15:03:36Z</time>
      </trkpt>
      <trkpt lat="45.23819" lon="4.43286">
        <ele>1000</ele>
        <time>2021-04-26T15:03:37Z</time>
      </trkpt>
      <trkpt lat="45.23823" lon="4.43289">
        <ele>1000</ele>
        <time>2021-04-26T15:03:38Z</time>
      </trkpt>
      <trkpt lat="45.23829" lon="4.43293">
        <ele>1000</ele>
        <time>2021-04-26T15:03:39Z</time>
      </trkpt>
      <trkpt lat="45.23834" lon="4.43296">
        <ele>999</ele>
        <time>2021-04-26T15:03:40Z</time>
      </trkpt>
      <trkpt lat="45.2384" lon="4.433">
        <ele>999</ele>
        <time>2021-04-26T15:03:41Z</time>
      </trkpt>
      <trkpt lat="45.23845" lon="4.43303">
        <ele>999</ele>
        <time>2021-04-26T15:03:42Z</time>
      </trkpt>
      <trkpt lat="45.23851" lon="4.43306">
        <ele>999</ele>
        <time>2021-04-26T15:03:43Z</time>
      </trkpt>
      <trkpt lat="45.23857" lon="4.43309">
        <ele>999</ele>
        <time>2021-04-26T15:03:44Z</time>
      </trkpt>
      <trkpt lat="45.23863" lon="4.43313">
        <ele>998</ele>
        <time>2021-04-26T15:03:45Z</time>
      </trkpt>
      <trkpt lat="45.23868" lon="4.43318">
        <ele>998</ele>
        <time>2021-04-26T15:03:46Z</time>
      </trkpt>
      <trkpt lat="45.23873" lon="4.43322">
        <ele>998</ele>
        <time>2021-04-26T15:03:47Z</time>
      </trkpt>
      <trkpt lat="45.23878" lon="4.43326">
        <ele>998</ele>
        <time>2021-04-26T15:03:48Z</time>
      </trkpt>
      <trkpt lat="45.23882" lon="4.4333">
        <ele>998</ele>
        <time>2021-04-26T15:03:49Z</time>
      </trkpt>
      <trkpt lat="45.23885" lon="4.43333">
        <ele>997</ele>
        <time>2021-04-26T15:03:50Z</time>
      </trkpt>
      <trkpt lat="45.23889" lon="4.43336">
        <ele>997</ele>
        <time>2021-04-26T15:03:51Z</time>
      </trkpt>
      <trkpt lat="45.23892" lon="4.43339">
        <ele>997</ele>
        <time>2021-04-26T15:03:52Z</time>
      </trkpt>
      <trkpt lat="45.23896" lon="4.43343">
        <ele>997</ele>
        <time>2021-04-26T15:03:53Z</time>
      </trkpt>
      <trkpt lat="45.239" lon="4.43347">
        <ele>997</ele>
        <time>2021-04-26T15:03:54Z</time>
      </trkpt>
      <trkpt lat="45.23904" lon="4.43351">
        <ele>996</ele>
        <time>2021-04-26T15:03:55Z</time>
      </trkpt>
      <trkpt lat="45.23908" lon="4.43356">
        <ele>996</ele>
        <time>2021-04-26T15:03:56Z</time>
      </trkpt>
      <trkpt lat="45.23912" lon="4.43361">
        <ele>996</ele>
        <time>2021-04-26T15:03:57Z</time>
      </trkpt>
      <trkpt lat="45.23916" lon="4.43366">
        <ele>996</ele>
        <time>2021-04-26T15:03:58Z</time>
      </trkpt>
      <trkpt lat="45.23921" lon="4.43372">
        <ele>996</ele>
        <time>2021-04-26T15:03:59Z</time>
      </trkpt>
      <trkpt lat="45.23925" lon="4.43378">
        <ele>996</ele>
        <time>2021-04-26T15:04:00Z</time>
      </trkpt>
      <trkpt lat="45.2393" lon="4.43384">
        <ele>995</ele>
        <time>2021-04-26T15:04:01Z</time>
      </trkpt>
      <trkpt lat="45.23935" lon="4.4339">
        <ele>995</ele>
        <time>2021-04-26T15:04:02Z</time>
      </trkpt>
      <trkpt lat="45.23941" lon="4.43397">
        <ele>995</ele>
        <time>2021-04-26T15:04:03Z</time>
      </trkpt>
      <trkpt lat="45.23947" lon="4.43405">
        <ele>995</ele>
        <time>2021-04-26T15:04:04Z</time>
      </trkpt>
      <trkpt lat="45.23953" lon="4.43414">
        <ele>995</ele>
        <time>2021-04-26T15:04:05Z</time>
      </trkpt>
      <trkpt lat="45.23963" lon="4.43433">
        <ele>995</ele>
        <time>2021-04-26T15:04:07Z</time>
      </trkpt>
      <trkpt lat="45.23966" lon="4.43452">
        <ele>994</ele>
        <time>2021-04-26T15:04:09Z</time>
      </trkpt>
      <trkpt lat="45.2397" lon="4.43471">
        <ele>994</ele>
        <time>2021-04-26T15:04:11Z</time>
      </trkpt>
      <trkpt lat="45.23972" lon="4.43491">
        <ele>993</ele>
        <time>2021-04-26T15:04:13Z</time>
      </trkpt>
      <trkpt lat="45.23973" lon="4.43508">
        <ele>992</ele>
        <time>2021-04-26T15:04:15Z</time>
      </trkpt>
      <trkpt lat="45.23975" lon="4.43523">
        <ele>992</ele>
        <time>2021-04-26T15:04:17Z</time>
      </trkpt>
      <trkpt lat="45.23977" lon="4.43529">
        <ele>991</ele>
        <time>2021-04-26T15:04:18Z</time>
      </trkpt>
      <trkpt lat="45.23982" lon="4.43527">
        <ele>991</ele>
        <time>2021-04-26T15:04:21Z</time>
      </trkpt>
      <trkpt lat="45.23987" lon="4.43517">
        <ele>990</ele>
        <time>2021-04-26T15:04:24Z</time>
      </trkpt>
      <trkpt lat="45.23993" lon="4.43507">
        <ele>989</ele>
        <time>2021-04-26T15:04:27Z</time>
      </trkpt>
      <trkpt lat="45.24001" lon="4.43495">
        <ele>987</ele>
        <time>2021-04-26T15:04:29Z</time>
      </trkpt>
      <trkpt lat="45.2401" lon="4.43485">
        <ele>986</ele>
        <time>2021-04-26T15:04:31Z</time>
      </trkpt>
      <trkpt lat="45.24017" lon="4.43475">
        <ele>986</ele>
        <time>2021-04-26T15:04:33Z</time>
      </trkpt>
      <trkpt lat="45.24023" lon="4.43463">
        <ele>984</ele>
        <time>2021-04-26T15:04:35Z</time>
      </trkpt>
      <trkpt lat="45.24029" lon="4.43452">
        <ele>984</ele>
        <time>2021-04-26T15:04:37Z</time>
      </trkpt>
      <trkpt lat="45.2404" lon="4.43449">
        <ele>983</ele>
        <time>2021-04-26T15:04:40Z</time>
      </trkpt>
      <trkpt lat="45.24046" lon="4.43463">
        <ele>981</ele>
        <time>2021-04-26T15:04:43Z</time>
      </trkpt>
      <trkpt lat="45.2405" lon="4.43478">
        <ele>981</ele>
        <time>2021-04-26T15:04:45Z</time>
      </trkpt>
      <trkpt lat="45.24053" lon="4.43494">
        <ele>979</ele>
        <time>2021-04-26T15:04:47Z</time>
      </trkpt>
      <trkpt lat="45.24053" lon="4.43502">
        <ele>978</ele>
        <time>2021-04-26T15:04:48Z</time>
      </trkpt>
      <trkpt lat="45.24052" lon="4.43509">
        <ele>977</ele>
        <time>2021-04-26T15:04:49Z</time>
      </trkpt>
      <trkpt lat="45.24052" lon="4.43518">
        <ele>976</ele>
        <time>2021-04-26T15:04:50Z</time>
      </trkpt>
      <trkpt lat="45.24052" lon="4.43525">
        <ele>974</ele>
        <time>2021-04-26T15:04:51Z</time>
      </trkpt>
      <trkpt lat="45.24054" lon="4.43531">
        <ele>972</ele>
        <time>2021-04-26T15:04:52Z</time>
      </trkpt>
      <trkpt lat="45.24056" lon="4.43537">
        <ele>972</ele>
        <time>2021-04-26T15:04:53Z</time>
      </trkpt>
      <trkpt lat="45.24059" lon="4.43541">
        <ele>971</ele>
        <time>2021-04-26T15:04:54Z</time>
      </trkpt>
      <trkpt lat="45.24063" lon="4.43544">
        <ele>970</ele>
        <time>2021-04-26T15:04:55Z</time>
      </trkpt>
      <trkpt lat="45.24066" lon="4.43547">
        <ele>969</ele>
        <time>2021-04-26T15:04:56Z</time>
      </trkpt>
      <trkpt lat="45.24069" lon="4.4355">
        <ele>968</ele>
        <time>2021-04-26T15:04:57Z</time>
      </trkpt>
      <trkpt lat="45.24072" lon="4.43554">
        <ele>967</ele>
        <time>2021-04-26T15:04:58Z</time>
      </trkpt>
      <trkpt lat="45.24076" lon="4.43557">
        <ele>967</ele>
        <time>2021-04-26T15:04:59Z</time>
      </trkpt>
      <trkpt lat="45.24078" lon="4.4356">
        <ele>966</ele>
        <time>2021-04-26T15:05:00Z</time>
      </trkpt>
      <trkpt lat="45.24081" lon="4.43564">
        <ele>965</ele>
        <time>2021-04-26T15:05:01Z</time>
      </trkpt>
      <trkpt lat="45.24084" lon="4.43567">
        <ele>965</ele>
        <time>2021-04-26T15:05:02Z</time>
      </trkpt>
      <trkpt lat="45.24087" lon="4.4357">
        <ele>964</ele>
        <time>2021-04-26T15:05:03Z</time>
      </trkpt>
      <trkpt lat="45.2409" lon="4.43574">
        <ele>964</ele>
        <time>2021-04-26T15:05:04Z</time>
      </trkpt>
      <trkpt lat="45.24093" lon="4.43578">
        <ele>963</ele>
        <time>2021-04-26T15:05:05Z</time>
      </trkpt>
      <trkpt lat="45.24096" lon="4.43581">
        <ele>963</ele>
        <time>2021-04-26T15:05:06Z</time>
      </trkpt>
      <trkpt lat="45.24099" lon="4.43584">
        <ele>962</ele>
        <time>2021-04-26T15:05:07Z</time>
      </trkpt>
      <trkpt lat="45.24102" lon="4.43588">
        <ele>962</ele>
        <time>2021-04-26T15:05:08Z</time>
      </trkpt>
      <trkpt lat="45.24104" lon="4.43591">
        <ele>962</ele>
        <time>2021-04-26T15:05:09Z</time>
      </trkpt>
      <trkpt lat="45.24107" lon="4.43595">
        <ele>962</ele>
        <time>2021-04-26T15:05:10Z</time>
      </trkpt>
      <trkpt lat="45.24109" lon="4.43598">
        <ele>961</ele>
        <time>2021-04-26T15:05:11Z</time>
      </trkpt>
      <trkpt lat="45.24111" lon="4.43601">
        <ele>961</ele>
        <time>2021-04-26T15:05:12Z</time>
      </trkpt>
      <trkpt lat="45.24114" lon="4.43605">
        <ele>961</ele>
        <time>2021-04-26T15:05:13Z</time>
      </trkpt>
      <trkpt lat="45.24117" lon="4.43609">
        <ele>961</ele>
        <time>2021-04-26T15:05:14Z</time>
      </trkpt>
      <trkpt lat="45.24119" lon="4.43613">
        <ele>961</ele>
        <time>2021-04-26T15:05:15Z</time>
      </trkpt>
      <trkpt lat="45.24122" lon="4.43617">
        <ele>961</ele>
        <time>2021-04-26T15:05:16Z</time>
      </trkpt>
      <trkpt lat="45.24124" lon="4.4362">
        <ele>961</ele>
        <time>2021-04-26T15:05:17Z</time>
      </trkpt>
      <trkpt lat="45.24126" lon="4.43624">
        <ele>961</ele>
        <time>2021-04-26T15:05:18Z</time>
      </trkpt>
      <trkpt lat="45.24128" lon="4.43628">
        <ele>961</ele>
        <time>2021-04-26T15:05:19Z</time>
      </trkpt>
      <trkpt lat="45.24129" lon="4.43631">
        <ele>961</ele>
        <time>2021-04-26T15:05:20Z</time>
      </trkpt>
      <trkpt lat="45.24131" lon="4.43634">
        <ele>961</ele>
        <time>2021-04-26T15:05:21Z</time>
      </trkpt>
      <trkpt lat="45.24134" lon="4.43638">
        <ele>961</ele>
        <time>2021-04-26T15:05:22Z</time>
      </trkpt>
      <trkpt lat="45.24136" lon="4.43641">
        <ele>961</ele>
        <time>2021-04-26T15:05:23Z</time>
      </trkpt>
      <trkpt lat="45.24139" lon="4.43644">
        <ele>961</ele>
        <time>2021-04-26T15:05:24Z</time>
      </trkpt>
      <trkpt lat="45.24142" lon="4.43648">
        <ele>961</ele>
        <time>2021-04-26T15:05:25Z</time>
      </trkpt>
      <trkpt lat="45.24145" lon="4.43651">
        <ele>961</ele>
        <time>2021-04-26T15:05:26Z</time>
      </trkpt>
      <trkpt lat="45.24147" lon="4.43655">
        <ele>961</ele>
        <time>2021-04-26T15:05:27Z</time>
      </trkpt>
      <trkpt lat="45.2415" lon="4.43659">
        <ele>961</ele>
        <time>2021-04-26T15:05:28Z</time>
      </trkpt>
      <trkpt lat="45.24153" lon="4.43664">
        <ele>960</ele>
        <time>2021-04-26T15:05:29Z</time>
      </trkpt>
      <trkpt lat="45.24155" lon="4.43668">
        <ele>960</ele>
        <time>2021-04-26T15:05:30Z</time>
      </trkpt>
      <trkpt lat="45.24157" lon="4.43672">
        <ele>960</ele>
        <time>2021-04-26T15:05:31Z</time>
      </trkpt>
      <trkpt lat="45.2416" lon="4.43677">
        <ele>961</ele>
        <time>2021-04-26T15:05:32Z</time>
      </trkpt>
      <trkpt lat="45.24162" lon="4.43681">
        <ele>961</ele>
        <time>2021-04-26T15:05:33Z</time>
      </trkpt>
      <trkpt lat="45.24164" lon="4.43685">
        <ele>961</ele>
        <time>2021-04-26T15:05:34Z</time>
      </trkpt>
      <trkpt lat="45.24166" lon="4.43688">
        <ele>961</ele>
        <time>2021-04-26T15:05:35Z</time>
      </trkpt>
      <trkpt lat="45.24168" lon="4.43691">
        <ele>961</ele>
        <time>2021-04-26T15:05:36Z</time>
      </trkpt>
      <trkpt lat="45.2417" lon="4.43693">
        <ele>961</ele>
        <time>2021-04-26T15:05:37Z</time>
      </trkpt>
      <trkpt lat="45.24172" lon="4.43696">
        <ele>961</ele>
        <time>2021-04-26T15:05:38Z</time>
      </trkpt>
      <trkpt lat="45.24175" lon="4.43699">
        <ele>961</ele>
        <time>2021-04-26T15:05:39Z</time>
      </trkpt>
      <trkpt lat="45.24177" lon="4.43703">
        <ele>961</ele>
        <time>2021-04-26T15:05:40Z</time>
      </trkpt>
      <trkpt lat="45.2418" lon="4.43708">
        <ele>961</ele>
        <time>2021-04-26T15:05:41Z</time>
      </trkpt>
      <trkpt lat="45.24183" lon="4.43712">
        <ele>961</ele>
        <time>2021-04-26T15:05:42Z</time>
      </trkpt>
      <trkpt lat="45.24186" lon="4.43717">
        <ele>961</ele>
        <time>2021-04-26T15:05:43Z</time>
      </trkpt>
      <trkpt lat="45.2419" lon="4.43722">
        <ele>961</ele>
        <time>2021-04-26T15:05:44Z</time>
      </trkpt>
      <trkpt lat="45.24193" lon="4.43726">
        <ele>961</ele>
        <time>2021-04-26T15:05:45Z</time>
      </trkpt>
      <trkpt lat="45.24197" lon="4.43729">
        <ele>961</ele>
        <time>2021-04-26T15:05:46Z</time>
      </trkpt>
      <trkpt lat="45.24202" lon="4.43731">
        <ele>961</ele>
        <time>2021-04-26T15:05:47Z</time>
      </trkpt>
      <trkpt lat="45.24207" lon="4.43731">
        <ele>961</ele>
        <time>2021-04-26T15:05:48Z</time>
      </trkpt>
      <trkpt lat="45.24212" lon="4.4373">
        <ele>961</ele>
        <time>2021-04-26T15:05:49Z</time>
      </trkpt>
      <trkpt lat="45.24218" lon="4.43729">
        <ele>960</ele>
        <time>2021-04-26T15:05:50Z</time>
      </trkpt>
      <trkpt lat="45.24223" lon="4.43728">
        <ele>960</ele>
        <time>2021-04-26T15:05:51Z</time>
      </trkpt>
      <trkpt lat="45.24228" lon="4.43727">
        <ele>960</ele>
        <time>2021-04-26T15:05:52Z</time>
      </trkpt>
      <trkpt lat="45.24233" lon="4.43725">
        <ele>960</ele>
        <time>2021-04-26T15:05:53Z</time>
      </trkpt>
      <trkpt lat="45.24238" lon="4.43723">
        <ele>960</ele>
        <time>2021-04-26T15:05:54Z</time>
      </trkpt>
      <trkpt lat="45.24245" lon="4.43721">
        <ele>960</ele>
        <time>2021-04-26T15:05:55Z</time>
      </trkpt>
      <trkpt lat="45.24251" lon="4.43719">
        <ele>960</ele>
        <time>2021-04-26T15:05:56Z</time>
      </trkpt>
      <trkpt lat="45.24258" lon="4.4372">
        <ele>959</ele>
        <time>2021-04-26T15:05:57Z</time>
      </trkpt>
      <trkpt lat="45.24266" lon="4.43723">
        <ele>959</ele>
        <time>2021-04-26T15:05:58Z</time>
      </trkpt>
      <trkpt lat="45.24272" lon="4.43726">
        <ele>959</ele>
        <time>2021-04-26T15:05:59Z</time>
      </trkpt>
      <trkpt lat="45.24279" lon="4.4373">
        <ele>959</ele>
        <time>2021-04-26T15:06:00Z</time>
      </trkpt>
      <trkpt lat="45.24287" lon="4.43735">
        <ele>959</ele>
        <time>2021-04-26T15:06:01Z</time>
      </trkpt>
      <trkpt lat="45.24296" lon="4.4374">
        <ele>958</ele>
        <time>2021-04-26T15:06:02Z</time>
      </trkpt>
      <trkpt lat="45.24303" lon="4.43747">
        <ele>958</ele>
        <time>2021-04-26T15:06:03Z</time>
      </trkpt>
      <trkpt lat="45.2431" lon="4.43755">
        <ele>957</ele>
        <time>2021-04-26T15:06:04Z</time>
      </trkpt>
      <trkpt lat="45.24315" lon="4.43765">
        <ele>956</ele>
        <time>2021-04-26T15:06:05Z</time>
      </trkpt>
      <trkpt lat="45.24319" lon="4.43776">
        <ele>956</ele>
        <time>2021-04-26T15:06:06Z</time>
      </trkpt>
      <trkpt lat="45.24324" lon="4.43786">
        <ele>955</ele>
        <time>2021-04-26T15:06:07Z</time>
      </trkpt>
      <trkpt lat="45.2433" lon="4.43793">
        <ele>955</ele>
        <time>2021-04-26T15:06:08Z</time>
      </trkpt>
      <trkpt lat="45.24338" lon="4.43795">
        <ele>955</ele>
        <time>2021-04-26T15:06:09Z</time>
      </trkpt>
      <trkpt lat="45.24345" lon="4.43795">
        <ele>955</ele>
        <time>2021-04-26T15:06:10Z</time>
      </trkpt>
      <trkpt lat="45.24352" lon="4.43796">
        <ele>954</ele>
        <time>2021-04-26T15:06:11Z</time>
      </trkpt>
      <trkpt lat="45.24359" lon="4.43797">
        <ele>954</ele>
        <time>2021-04-26T15:06:12Z</time>
      </trkpt>
      <trkpt lat="45.24366" lon="4.438">
        <ele>954</ele>
        <time>2021-04-26T15:06:13Z</time>
      </trkpt>
      <trkpt lat="45.24372" lon="4.43803">
        <ele>954</ele>
        <time>2021-04-26T15:06:14Z</time>
      </trkpt>
      <trkpt lat="45.24378" lon="4.43806">
        <ele>954</ele>
        <time>2021-04-26T15:06:15Z</time>
      </trkpt>
      <trkpt lat="45.24384" lon="4.4381">
        <ele>953</ele>
        <time>2021-04-26T15:06:16Z</time>
      </trkpt>
      <trkpt lat="45.24389" lon="4.43815">
        <ele>953</ele>
        <time>2021-04-26T15:06:17Z</time>
      </trkpt>
      <trkpt lat="45.24393" lon="4.43821">
        <ele>952</ele>
        <time>2021-04-26T15:06:18Z</time>
      </trkpt>
      <trkpt lat="45.24396" lon="4.43828">
        <ele>952</ele>
        <time>2021-04-26T15:06:19Z</time>
      </trkpt>
      <trkpt lat="45.24399" lon="4.43835">
        <ele>952</ele>
        <time>2021-04-26T15:06:20Z</time>
      </trkpt>
      <trkpt lat="45.24401" lon="4.43843">
        <ele>951</ele>
        <time>2021-04-26T15:06:21Z</time>
      </trkpt>
      <trkpt lat="45.24402" lon="4.43851">
        <ele>951</ele>
        <time>2021-04-26T15:06:22Z</time>
      </trkpt>
      <trkpt lat="45.24403" lon="4.43859">
        <ele>950</ele>
        <time>2021-04-26T15:06:23Z</time>
      </trkpt>
      <trkpt lat="45.24404" lon="4.43867">
        <ele>950</ele>
        <time>2021-04-26T15:06:24Z</time>
      </trkpt>
      <trkpt lat="45.24406" lon="4.43875">
        <ele>950</ele>
        <time>2021-04-26T15:06:25Z</time>
      </trkpt>
      <trkpt lat="45.24406" lon="4.43883">
        <ele>950</ele>
        <time>2021-04-26T15:06:26Z</time>
      </trkpt>
      <trkpt lat="45.24406" lon="4.43891">
        <ele>950</ele>
        <time>2021-04-26T15:06:27Z</time>
      </trkpt>
      <trkpt lat="45.24406" lon="4.43898">
        <ele>950</ele>
        <time>2021-04-26T15:06:28Z</time>
      </trkpt>
      <trkpt lat="45.24405" lon="4.43905">
        <ele>950</ele>
        <time>2021-04-26T15:06:29Z</time>
      </trkpt>
      <trkpt lat="45.24404" lon="4.43913">
        <ele>950</ele>
        <time>2021-04-26T15:06:30Z</time>
      </trkpt>
      <trkpt lat="45.24403" lon="4.4392">
        <ele>950</ele>
        <time>2021-04-26T15:06:31Z</time>
      </trkpt>
      <trkpt lat="45.24401" lon="4.43927">
        <ele>950</ele>
        <time>2021-04-26T15:06:32Z</time>
      </trkpt>
      <trkpt lat="45.244" lon="4.43934">
        <ele>950</ele>
        <time>2021-04-26T15:06:33Z</time>
      </trkpt>
      <trkpt lat="45.24399" lon="4.43942">
        <ele>949</ele>
        <time>2021-04-26T15:06:34Z</time>
      </trkpt>
      <trkpt lat="45.24398" lon="4.43949">
        <ele>949</ele>
        <time>2021-04-26T15:06:35Z</time>
      </trkpt>
      <trkpt lat="45.24398" lon="4.43957">
        <ele>949</ele>
        <time>2021-04-26T15:06:36Z</time>
      </trkpt>
      <trkpt lat="45.24398" lon="4.43964">
        <ele>949</ele>
        <time>2021-04-26T15:06:37Z</time>
      </trkpt>
      <trkpt lat="45.24398" lon="4.43971">
        <ele>949</ele>
        <time>2021-04-26T15:06:38Z</time>
      </trkpt>
      <trkpt lat="45.24398" lon="4.43978">
        <ele>949</ele>
        <time>2021-04-26T15:06:39Z</time>
      </trkpt>
      <trkpt lat="45.24398" lon="4.43984">
        <ele>949</ele>
        <time>2021-04-26T15:06:40Z</time>
      </trkpt>
      <trkpt lat="45.24399" lon="4.4399">
        <ele>949</ele>
        <time>2021-04-26T15:06:41Z</time>
      </trkpt>
      <trkpt lat="45.244" lon="4.43996">
        <ele>949</ele>
        <time>2021-04-26T15:06:42Z</time>
      </trkpt>
      <trkpt lat="45.24401" lon="4.44002">
        <ele>949</ele>
        <time>2021-04-26T15:06:43Z</time>
      </trkpt>
      <trkpt lat="45.24401" lon="4.44009">
        <ele>948</ele>
        <time>2021-04-26T15:06:44Z</time>
      </trkpt>
      <trkpt lat="45.24402" lon="4.44016">
        <ele>948</ele>
        <time>2021-04-26T15:06:45Z</time>
      </trkpt>
      <trkpt lat="45.24403" lon="4.44023">
        <ele>948</ele>
        <time>2021-04-26T15:06:46Z</time>
      </trkpt>
      <trkpt lat="45.24404" lon="4.4403">
        <ele>948</ele>
        <time>2021-04-26T15:06:47Z</time>
      </trkpt>
      <trkpt lat="45.24407" lon="4.44036">
        <ele>947</ele>
        <time>2021-04-26T15:06:48Z</time>
      </trkpt>
      <trkpt lat="45.2441" lon="4.4404">
        <ele>947</ele>
        <time>2021-04-26T15:06:49Z</time>
      </trkpt>
      <trkpt lat="45.24414" lon="4.44042">
        <ele>947</ele>
        <time>2021-04-26T15:06:50Z</time>
      </trkpt>
      <trkpt lat="45.24418" lon="4.44043">
        <ele>947</ele>
        <time>2021-04-26T15:06:51Z</time>
      </trkpt>
      <trkpt lat="45.24421" lon="4.44043">
        <ele>947</ele>
        <time>2021-04-26T15:06:52Z</time>
      </trkpt>
      <trkpt lat="45.24423" lon="4.44042">
        <ele>947</ele>
        <time>2021-04-26T15:06:53Z</time>
      </trkpt>
      <trkpt lat="45.24426" lon="4.44041">
        <ele>947</ele>
        <time>2021-04-26T15:06:54Z</time>
      </trkpt>
      <trkpt lat="45.24429" lon="4.44038">
        <ele>947</ele>
        <time>2021-04-26T15:06:55Z</time>
      </trkpt>
      <trkpt lat="45.24432" lon="4.44036">
        <ele>947</ele>
        <time>2021-04-26T15:06:56Z</time>
      </trkpt>
      <trkpt lat="45.2444" lon="4.44033">
        <ele>947</ele>
        <time>2021-04-26T15:06:58Z</time>
      </trkpt>
      <trkpt lat="45.24444" lon="4.44032">
        <ele>948</ele>
        <time>2021-04-26T15:06:59Z</time>
      </trkpt>
      <trkpt lat="45.24448" lon="4.44029">
        <ele>948</ele>
        <time>2021-04-26T15:07:00Z</time>
      </trkpt>
      <trkpt lat="45.24452" lon="4.44028">
        <ele>948</ele>
        <time>2021-04-26T15:07:01Z</time>
      </trkpt>
      <trkpt lat="45.24456" lon="4.44026">
        <ele>948</ele>
        <time>2021-04-26T15:07:02Z</time>
      </trkpt>
      <trkpt lat="45.2446" lon="4.44024">
        <ele>948</ele>
        <time>2021-04-26T15:07:03Z</time>
      </trkpt>
      <trkpt lat="45.24464" lon="4.44021">
        <ele>948</ele>
        <time>2021-04-26T15:07:04Z</time>
      </trkpt>
      <trkpt lat="45.24468" lon="4.4402">
        <ele>948</ele>
        <time>2021-04-26T15:07:05Z</time>
      </trkpt>
      <trkpt lat="45.24472" lon="4.44018">
        <ele>948</ele>
        <time>2021-04-26T15:07:06Z</time>
      </trkpt>
      <trkpt lat="45.2448" lon="4.44015">
        <ele>948</ele>
        <time>2021-04-26T15:07:08Z</time>
      </trkpt>
      <trkpt lat="45.24484" lon="4.44013">
        <ele>949</ele>
        <time>2021-04-26T15:07:09Z</time>
      </trkpt>
      <trkpt lat="45.24488" lon="4.44011">
        <ele>949</ele>
        <time>2021-04-26T15:07:10Z</time>
      </trkpt>
      <trkpt lat="45.24492" lon="4.44007">
        <ele>949</ele>
        <time>2021-04-26T15:07:11Z</time>
      </trkpt>
      <trkpt lat="45.24497" lon="4.43998">
        <ele>950</ele>
        <time>2021-04-26T15:07:13Z</time>
      </trkpt>
      <trkpt lat="45.24499" lon="4.43994">
        <ele>950</ele>
        <time>2021-04-26T15:07:14Z</time>
      </trkpt>
      <trkpt lat="45.24502" lon="4.4399">
        <ele>950</ele>
        <time>2021-04-26T15:07:15Z</time>
      </trkpt>
      <trkpt lat="45.24504" lon="4.43985">
        <ele>951</ele>
        <time>2021-04-26T15:07:16Z</time>
      </trkpt>
      <trkpt lat="45.24505" lon="4.4398">
        <ele>951</ele>
        <time>2021-04-26T15:07:17Z</time>
      </trkpt>
      <trkpt lat="45.24507" lon="4.43975">
        <ele>951</ele>
        <time>2021-04-26T15:07:18Z</time>
      </trkpt>
      <trkpt lat="45.24509" lon="4.43971">
        <ele>951</ele>
        <time>2021-04-26T15:07:19Z</time>
      </trkpt>
      <trkpt lat="45.24511" lon="4.43967">
        <ele>951</ele>
        <time>2021-04-26T15:07:20Z</time>
      </trkpt>
      <trkpt lat="45.24513" lon="4.43963">
        <ele>952</ele>
        <time>2021-04-26T15:07:21Z</time>
      </trkpt>
      <trkpt lat="45.24514" lon="4.43959">
        <ele>952</ele>
        <time>2021-04-26T15:07:22Z</time>
      </trkpt>
      <trkpt lat="45.24516" lon="4.43955">
        <ele>953</ele>
        <time>2021-04-26T15:07:23Z</time>
      </trkpt>
      <trkpt lat="45.24519" lon="4.43951">
        <ele>953</ele>
        <time>2021-04-26T15:07:24Z</time>
      </trkpt>
      <trkpt lat="45.24521" lon="4.43946">
        <ele>953</ele>
        <time>2021-04-26T15:07:25Z</time>
      </trkpt>
      <trkpt lat="45.24523" lon="4.43942">
        <ele>953</ele>
        <time>2021-04-26T15:07:26Z</time>
      </trkpt>
      <trkpt lat="45.24525" lon="4.43938">
        <ele>953</ele>
        <time>2021-04-26T15:07:27Z</time>
      </trkpt>
      <trkpt lat="45.24527" lon="4.43933">
        <ele>954</ele>
        <time>2021-04-26T15:07:28Z</time>
      </trkpt>
      <trkpt lat="45.24529" lon="4.43929">
        <ele>954</ele>
        <time>2021-04-26T15:07:29Z</time>
      </trkpt>
      <trkpt lat="45.24531" lon="4.43924">
        <ele>954</ele>
        <time>2021-04-26T15:07:30Z</time>
      </trkpt>
      <trkpt lat="45.24533" lon="4.4392">
        <ele>954</ele>
        <time>2021-04-26T15:07:31Z</time>
      </trkpt>
      <trkpt lat="45.24535" lon="4.43915">
        <ele>954</ele>
        <time>2021-04-26T15:07:32Z</time>
      </trkpt>
      <trkpt lat="45.24537" lon="4.43911">
        <ele>954</ele>
        <time>2021-04-26T15:07:33Z</time>
      </trkpt>
      <trkpt lat="45.24539" lon="4.43907">
        <ele>954</ele>
        <time>2021-04-26T15:07:34Z</time>
      </trkpt>
      <trkpt lat="45.24541" lon="4.43903">
        <ele>955</ele>
        <time>2021-04-26T15:07:35Z</time>
      </trkpt>
      <trkpt lat="45.24544" lon="4.439">
        <ele>955</ele>
        <time>2021-04-26T15:07:36Z</time>
      </trkpt>
      <trkpt lat="45.24547" lon="4.43898">
        <ele>955</ele>
        <time>2021-04-26T15:07:37Z</time>
      </trkpt>
      <trkpt lat="45.24551" lon="4.43897">
        <ele>955</ele>
        <time>2021-04-26T15:07:38Z</time>
      </trkpt>
      <trkpt lat="45.24563" lon="4.43896">
        <ele>955</ele>
        <time>2021-04-26T15:07:41Z</time>
      </trkpt>
      <trkpt lat="45.24572" lon="4.43896">
        <ele>954</ele>
        <time>2021-04-26T15:07:43Z</time>
      </trkpt>
      <trkpt lat="45.24583" lon="4.43898">
        <ele>954</ele>
        <time>2021-04-26T15:07:45Z</time>
      </trkpt>
      <trkpt lat="45.24593" lon="4.43903">
        <ele>954</ele>
        <time>2021-04-26T15:07:47Z</time>
      </trkpt>
      <trkpt lat="45.24602" lon="4.43912">
        <ele>953</ele>
        <time>2021-04-26T15:07:49Z</time>
      </trkpt>
      <trkpt lat="45.24611" lon="4.4392">
        <ele>953</ele>
        <time>2021-04-26T15:07:51Z</time>
      </trkpt>
      <trkpt lat="45.24621" lon="4.43928">
        <ele>953</ele>
        <time>2021-04-26T15:07:53Z</time>
      </trkpt>
      <trkpt lat="45.24634" lon="4.43938">
        <ele>953</ele>
        <time>2021-04-26T15:07:55Z</time>
      </trkpt>
      <trkpt lat="45.24646" lon="4.43952">
        <ele>951</ele>
        <time>2021-04-26T15:07:57Z</time>
      </trkpt>
      <trkpt lat="45.24652" lon="4.43962">
        <ele>950</ele>
        <time>2021-04-26T15:07:58Z</time>
      </trkpt>
      <trkpt lat="45.24657" lon="4.43973">
        <ele>949</ele>
        <time>2021-04-26T15:07:59Z</time>
      </trkpt>
      <trkpt lat="45.24663" lon="4.43982">
        <ele>948</ele>
        <time>2021-04-26T15:08:00Z</time>
      </trkpt>
      <trkpt lat="45.2467" lon="4.43989">
        <ele>948</ele>
        <time>2021-04-26T15:08:01Z</time>
      </trkpt>
      <trkpt lat="45.24678" lon="4.43993">
        <ele>946</ele>
        <time>2021-04-26T15:08:02Z</time>
      </trkpt>
      <trkpt lat="45.24686" lon="4.43996">
        <ele>945</ele>
        <time>2021-04-26T15:08:03Z</time>
      </trkpt>
      <trkpt lat="45.24694" lon="4.44001">
        <ele>945</ele>
        <time>2021-04-26T15:08:04Z</time>
      </trkpt>
      <trkpt lat="45.24701" lon="4.44007">
        <ele>944</ele>
        <time>2021-04-26T15:08:05Z</time>
      </trkpt>
      <trkpt lat="45.24708" lon="4.44014">
        <ele>944</ele>
        <time>2021-04-26T15:08:06Z</time>
      </trkpt>
      <trkpt lat="45.24714" lon="4.44023">
        <ele>943</ele>
        <time>2021-04-26T15:08:07Z</time>
      </trkpt>
      <trkpt lat="45.24719" lon="4.44032">
        <ele>942</ele>
        <time>2021-04-26T15:08:08Z</time>
      </trkpt>
      <trkpt lat="45.24725" lon="4.44041">
        <ele>942</ele>
        <time>2021-04-26T15:08:09Z</time>
      </trkpt>
      <trkpt lat="45.2473" lon="4.4405">
        <ele>941</ele>
        <time>2021-04-26T15:08:10Z</time>
      </trkpt>
      <trkpt lat="45.24735" lon="4.44059">
        <ele>940</ele>
        <time>2021-04-26T15:08:11Z</time>
      </trkpt>
      <trkpt lat="45.2474" lon="4.44068">
        <ele>940</ele>
        <time>2021-04-26T15:08:12Z</time>
      </trkpt>
      <trkpt lat="45.24744" lon="4.44078">
        <ele>939</ele>
        <time>2021-04-26T15:08:13Z</time>
      </trkpt>
      <trkpt lat="45.24748" lon="4.44089">
        <ele>939</ele>
        <time>2021-04-26T15:08:14Z</time>
      </trkpt>
      <trkpt lat="45.2475" lon="4.44101">
        <ele>938</ele>
        <time>2021-04-26T15:08:15Z</time>
      </trkpt>
      <trkpt lat="45.24751" lon="4.44112">
        <ele>938</ele>
        <time>2021-04-26T15:08:16Z</time>
      </trkpt>
      <trkpt lat="45.24754" lon="4.44123">
        <ele>937</ele>
        <time>2021-04-26T15:08:17Z</time>
      </trkpt>
      <trkpt lat="45.24758" lon="4.44132">
        <ele>937</ele>
        <time>2021-04-26T15:08:18Z</time>
      </trkpt>
      <trkpt lat="45.24763" lon="4.44139">
        <ele>937</ele>
        <time>2021-04-26T15:08:19Z</time>
      </trkpt>
      <trkpt lat="45.24767" lon="4.44146">
        <ele>937</ele>
        <time>2021-04-26T15:08:20Z</time>
      </trkpt>
      <trkpt lat="45.24771" lon="4.44152">
        <ele>937</ele>
        <time>2021-04-26T15:08:21Z</time>
      </trkpt>
      <trkpt lat="45.24774" lon="4.44158">
        <ele>936</ele>
        <time>2021-04-26T15:08:22Z</time>
      </trkpt>
      <trkpt lat="45.24776" lon="4.44164">
        <ele>936</ele>
        <time>2021-04-26T15:08:23Z</time>
      </trkpt>
      <trkpt lat="45.24779" lon="4.4417">
        <ele>936</ele>
        <time>2021-04-26T15:08:24Z</time>
      </trkpt>
      <trkpt lat="45.24781" lon="4.44175">
        <ele>936</ele>
        <time>2021-04-26T15:08:25Z</time>
      </trkpt>
      <trkpt lat="45.24784" lon="4.4418">
        <ele>936</ele>
        <time>2021-04-26T15:08:26Z</time>
      </trkpt>
      <trkpt lat="45.24786" lon="4.44184">
        <ele>936</ele>
        <time>2021-04-26T15:08:27Z</time>
      </trkpt>
      <trkpt lat="45.24788" lon="4.44188">
        <ele>936</ele>
        <time>2021-04-26T15:08:28Z</time>
      </trkpt>
      <trkpt lat="45.2479" lon="4.44192">
        <ele>936</ele>
        <time>2021-04-26T15:08:29Z</time>
      </trkpt>
      <trkpt lat="45.24792" lon="4.44196">
        <ele>935</ele>
        <time>2021-04-26T15:08:30Z</time>
      </trkpt>
      <trkpt lat="45.24795" lon="4.442">
        <ele>935</ele>
        <time>2021-04-26T15:08:31Z</time>
      </trkpt>
      <trkpt lat="45.24797" lon="4.44204">
        <ele>935</ele>
        <time>2021-04-26T15:08:32Z</time>
      </trkpt>
      <trkpt lat="45.248" lon="4.44209">
        <ele>935</ele>
        <time>2021-04-26T15:08:33Z</time>
      </trkpt>
      <trkpt lat="45.24802" lon="4.44213">
        <ele>935</ele>
        <time>2021-04-26T15:08:34Z</time>
      </trkpt>
      <trkpt lat="45.24805" lon="4.44218">
        <ele>935</ele>
        <time>2021-04-26T15:08:35Z</time>
      </trkpt>
      <trkpt lat="45.24807" lon="4.44222">
        <ele>935</ele>
        <time>2021-04-26T15:08:36Z</time>
      </trkpt>
      <trkpt lat="45.24809" lon="4.44227">
        <ele>935</ele>
        <time>2021-04-26T15:08:37Z</time>
      </trkpt>
      <trkpt lat="45.24812" lon="4.44231">
        <ele>935</ele>
        <time>2021-04-26T15:08:38Z</time>
      </trkpt>
      <trkpt lat="45.24814" lon="4.44236">
        <ele>935</ele>
        <time>2021-04-26T15:08:39Z</time>
      </trkpt>
      <trkpt lat="45.24816" lon="4.44241">
        <ele>935</ele>
        <time>2021-04-26T15:08:40Z</time>
      </trkpt>
      <trkpt lat="45.24819" lon="4.44245">
        <ele>935</ele>
        <time>2021-04-26T15:08:41Z</time>
      </trkpt>
      <trkpt lat="45.24821" lon="4.4425">
        <ele>935</ele>
        <time>2021-04-26T15:08:42Z</time>
      </trkpt>
      <trkpt lat="45.24823" lon="4.44255">
        <ele>935</ele>
        <time>2021-04-26T15:08:43Z</time>
      </trkpt>
      <trkpt lat="45.24826" lon="4.4426">
        <ele>935</ele>
        <time>2021-04-26T15:08:44Z</time>
      </trkpt>
      <trkpt lat="45.24828" lon="4.44265">
        <ele>935</ele>
        <time>2021-04-26T15:08:45Z</time>
      </trkpt>
      <trkpt lat="45.24831" lon="4.44269">
        <ele>935</ele>
        <time>2021-04-26T15:08:46Z</time>
      </trkpt>
      <trkpt lat="45.24833" lon="4.44273">
        <ele>935</ele>
        <time>2021-04-26T15:08:47Z</time>
      </trkpt>
      <trkpt lat="45.24836" lon="4.44278">
        <ele>935</ele>
        <time>2021-04-26T15:08:48Z</time>
      </trkpt>
      <trkpt lat="45.24839" lon="4.44282">
        <ele>935</ele>
        <time>2021-04-26T15:08:49Z</time>
      </trkpt>
      <trkpt lat="45.24841" lon="4.44287">
        <ele>935</ele>
        <time>2021-04-26T15:08:50Z</time>
      </trkpt>
      <trkpt lat="45.24844" lon="4.44291">
        <ele>935</ele>
        <time>2021-04-26T15:08:51Z</time>
      </trkpt>
      <trkpt lat="45.24847" lon="4.44295">
        <ele>935</ele>
        <time>2021-04-26T15:08:52Z</time>
      </trkpt>
      <trkpt lat="45.24849" lon="4.44299">
        <ele>935</ele>
        <time>2021-04-26T15:08:53Z</time>
      </trkpt>
      <trkpt lat="45.24851" lon="4.44303">
        <ele>935</ele>
        <time>2021-04-26T15:08:54Z</time>
      </trkpt>
      <trkpt lat="45.24854" lon="4.44307">
        <ele>936</ele>
        <time>2021-04-26T15:08:55Z</time>
      </trkpt>
      <trkpt lat="45.24858" lon="4.4431">
        <ele>936</ele>
        <time>2021-04-26T15:08:56Z</time>
      </trkpt>
      <trkpt lat="45.24861" lon="4.44313">
        <ele>936</ele>
        <time>2021-04-26T15:08:57Z</time>
      </trkpt>
      <trkpt lat="45.24865" lon="4.44316">
        <ele>936</ele>
        <time>2021-04-26T15:08:58Z</time>
      </trkpt>
      <trkpt lat="45.24868" lon="4.4432">
        <ele>936</ele>
        <time>2021-04-26T15:08:59Z</time>
      </trkpt>
      <trkpt lat="45.24871" lon="4.44323">
        <ele>936</ele>
        <time>2021-04-26T15:09:00Z</time>
      </trkpt>
      <trkpt lat="45.24875" lon="4.44326">
        <ele>936</ele>
        <time>2021-04-26T15:09:01Z</time>
      </trkpt>
      <trkpt lat="45.24878" lon="4.4433">
        <ele>936</ele>
        <time>2021-04-26T15:09:02Z</time>
      </trkpt>
      <trkpt lat="45.24882" lon="4.44334">
        <ele>936</ele>
        <time>2021-04-26T15:09:03Z</time>
      </trkpt>
      <trkpt lat="45.24885" lon="4.44338">
        <ele>937</ele>
        <time>2021-04-26T15:09:04Z</time>
      </trkpt>
      <trkpt lat="45.24889" lon="4.44342">
        <ele>937</ele>
        <time>2021-04-26T15:09:05Z</time>
      </trkpt>
      <trkpt lat="45.24892" lon="4.44347">
        <ele>937</ele>
        <time>2021-04-26T15:09:06Z</time>
      </trkpt>
      <trkpt lat="45.24895" lon="4.44351">
        <ele>937</ele>
        <time>2021-04-26T15:09:07Z</time>
      </trkpt>
      <trkpt lat="45.24898" lon="4.44356">
        <ele>937</ele>
        <time>2021-04-26T15:09:08Z</time>
      </trkpt>
      <trkpt lat="45.24901" lon="4.44361">
        <ele>937</ele>
        <time>2021-04-26T15:09:09Z</time>
      </trkpt>
      <trkpt lat="45.24904" lon="4.44366">
        <ele>937</ele>
        <time>2021-04-26T15:09:10Z</time>
      </trkpt>
      <trkpt lat="45.24907" lon="4.44371">
        <ele>937</ele>
        <time>2021-04-26T15:09:11Z</time>
      </trkpt>
      <trkpt lat="45.24909" lon="4.44376">
        <ele>937</ele>
        <time>2021-04-26T15:09:12Z</time>
      </trkpt>
      <trkpt lat="45.24912" lon="4.44381">
        <ele>937</ele>
        <time>2021-04-26T15:09:13Z</time>
      </trkpt>
      <trkpt lat="45.24914" lon="4.44387">
        <ele>937</ele>
        <time>2021-04-26T15:09:14Z</time>
      </trkpt>
      <trkpt lat="45.24916" lon="4.44393">
        <ele>937</ele>
        <time>2021-04-26T15:09:15Z</time>
      </trkpt>
      <trkpt lat="45.24918" lon="4.444">
        <ele>937</ele>
        <time>2021-04-26T15:09:16Z</time>
      </trkpt>
      <trkpt lat="45.2492" lon="4.44406">
        <ele>937</ele>
        <time>2021-04-26T15:09:17Z</time>
      </trkpt>
      <trkpt lat="45.24921" lon="4.44412">
        <ele>938</ele>
        <time>2021-04-26T15:09:18Z</time>
      </trkpt>
      <trkpt lat="45.24922" lon="4.44418">
        <ele>938</ele>
        <time>2021-04-26T15:09:19Z</time>
      </trkpt>
      <trkpt lat="45.24924" lon="4.44424">
        <ele>938</ele>
        <time>2021-04-26T15:09:20Z</time>
      </trkpt>
      <trkpt lat="45.24926" lon="4.4443">
        <ele>938</ele>
        <time>2021-04-26T15:09:21Z</time>
      </trkpt>
      <trkpt lat="45.24928" lon="4.44435">
        <ele>939</ele>
        <time>2021-04-26T15:09:22Z</time>
      </trkpt>
      <trkpt lat="45.24931" lon="4.44441">
        <ele>939</ele>
        <time>2021-04-26T15:09:23Z</time>
      </trkpt>
      <trkpt lat="45.24933" lon="4.44447">
        <ele>939</ele>
        <time>2021-04-26T15:09:24Z</time>
      </trkpt>
      <trkpt lat="45.24935" lon="4.44452">
        <ele>939</ele>
        <time>2021-04-26T15:09:25Z</time>
      </trkpt>
      <trkpt lat="45.24937" lon="4.44458">
        <ele>939</ele>
        <time>2021-04-26T15:09:26Z</time>
      </trkpt>
      <trkpt lat="45.24938" lon="4.44464">
        <ele>939</ele>
        <time>2021-04-26T15:09:27Z</time>
      </trkpt>
      <trkpt lat="45.24939" lon="4.4447">
        <ele>939</ele>
        <time>2021-04-26T15:09:28Z</time>
      </trkpt>
      <trkpt lat="45.24941" lon="4.44476">
        <ele>940</ele>
        <time>2021-04-26T15:09:29Z</time>
      </trkpt>
      <trkpt lat="45.24942" lon="4.44483">
        <ele>940</ele>
        <time>2021-04-26T15:09:30Z</time>
      </trkpt>
      <trkpt lat="45.24944" lon="4.44489">
        <ele>940</ele>
        <time>2021-04-26T15:09:31Z</time>
      </trkpt>
      <trkpt lat="45.24945" lon="4.44495">
        <ele>940</ele>
        <time>2021-04-26T15:09:32Z</time>
      </trkpt>
      <trkpt lat="45.24947" lon="4.44502">
        <ele>940</ele>
        <time>2021-04-26T15:09:33Z</time>
      </trkpt>
      <trkpt lat="45.24949" lon="4.44508">
        <ele>941</ele>
        <time>2021-04-26T15:09:34Z</time>
      </trkpt>
      <trkpt lat="45.2495" lon="4.44514">
        <ele>941</ele>
        <time>2021-04-26T15:09:35Z</time>
      </trkpt>
      <trkpt lat="45.24952" lon="4.44521">
        <ele>941</ele>
        <time>2021-04-26T15:09:36Z</time>
      </trkpt>
      <trkpt lat="45.24954" lon="4.44527">
        <ele>941</ele>
        <time>2021-04-26T15:09:37Z</time>
      </trkpt>
      <trkpt lat="45.24956" lon="4.44534">
        <ele>941</ele>
        <time>2021-04-26T15:09:38Z</time>
      </trkpt>
      <trkpt lat="45.24958" lon="4.4454">
        <ele>941</ele>
        <time>2021-04-26T15:09:39Z</time>
      </trkpt>
      <trkpt lat="45.2496" lon="4.44547">
        <ele>941</ele>
        <time>2021-04-26T15:09:40Z</time>
      </trkpt>
      <trkpt lat="45.24962" lon="4.44553">
        <ele>941</ele>
        <time>2021-04-26T15:09:41Z</time>
      </trkpt>
      <trkpt lat="45.24963" lon="4.4456">
        <ele>942</ele>
        <time>2021-04-26T15:09:42Z</time>
      </trkpt>
      <trkpt lat="45.24965" lon="4.44566">
        <ele>942</ele>
        <time>2021-04-26T15:09:43Z</time>
      </trkpt>
      <trkpt lat="45.24966" lon="4.44573">
        <ele>942</ele>
        <time>2021-04-26T15:09:44Z</time>
      </trkpt>
      <trkpt lat="45.24968" lon="4.4458">
        <ele>942</ele>
        <time>2021-04-26T15:09:45Z</time>
      </trkpt>
      <trkpt lat="45.2497" lon="4.44586">
        <ele>943</ele>
        <time>2021-04-26T15:09:46Z</time>
      </trkpt>
      <trkpt lat="45.24971" lon="4.44592">
        <ele>943</ele>
        <time>2021-04-26T15:09:47Z</time>
      </trkpt>
      <trkpt lat="45.24972" lon="4.44598">
        <ele>943</ele>
        <time>2021-04-26T15:09:48Z</time>
      </trkpt>
      <trkpt lat="45.24972" lon="4.44604">
        <ele>943</ele>
        <time>2021-04-26T15:09:49Z</time>
      </trkpt>
      <trkpt lat="45.24973" lon="4.4461">
        <ele>943</ele>
        <time>2021-04-26T15:09:50Z</time>
      </trkpt>
      <trkpt lat="45.24972" lon="4.44615">
        <ele>944</ele>
        <time>2021-04-26T15:09:51Z</time>
      </trkpt>
      <trkpt lat="45.24972" lon="4.44619">
        <ele>944</ele>
        <time>2021-04-26T15:09:52Z</time>
      </trkpt>
      <trkpt lat="45.24971" lon="4.44624">
        <ele>944</ele>
        <time>2021-04-26T15:09:53Z</time>
      </trkpt>
      <trkpt lat="45.24972" lon="4.44629">
        <ele>944</ele>
        <time>2021-04-26T15:09:54Z</time>
      </trkpt>
      <trkpt lat="45.24974" lon="4.44634">
        <ele>945</ele>
        <time>2021-04-26T15:09:55Z</time>
      </trkpt>
      <trkpt lat="45.24977" lon="4.44638">
        <ele>945</ele>
        <time>2021-04-26T15:09:56Z</time>
      </trkpt>
      <trkpt lat="45.24979" lon="4.44641">
        <ele>945</ele>
        <time>2021-04-26T15:09:57Z</time>
      </trkpt>
      <trkpt lat="45.24982" lon="4.44645">
        <ele>945</ele>
        <time>2021-04-26T15:09:58Z</time>
      </trkpt>
      <trkpt lat="45.24984" lon="4.44649">
        <ele>945</ele>
        <time>2021-04-26T15:09:59Z</time>
      </trkpt>
      <trkpt lat="45.24988" lon="4.44653">
        <ele>945</ele>
        <time>2021-04-26T15:10:00Z</time>
      </trkpt>
      <trkpt lat="45.24991" lon="4.44657">
        <ele>945</ele>
        <time>2021-04-26T15:10:01Z</time>
      </trkpt>
      <trkpt lat="45.24994" lon="4.44661">
        <ele>945</ele>
        <time>2021-04-26T15:10:02Z</time>
      </trkpt>
      <trkpt lat="45.24998" lon="4.44666">
        <ele>945</ele>
        <time>2021-04-26T15:10:03Z</time>
      </trkpt>
      <trkpt lat="45.25001" lon="4.44672">
        <ele>945</ele>
        <time>2021-04-26T15:10:04Z</time>
      </trkpt>
      <trkpt lat="45.25005" lon="4.44677">
        <ele>944</ele>
        <time>2021-04-26T15:10:05Z</time>
      </trkpt>
      <trkpt lat="45.25009" lon="4.44682">
        <ele>944</ele>
        <time>2021-04-26T15:10:06Z</time>
      </trkpt>
      <trkpt lat="45.25013" lon="4.44687">
        <ele>944</ele>
        <time>2021-04-26T15:10:07Z</time>
      </trkpt>
      <trkpt lat="45.25016" lon="4.44692">
        <ele>944</ele>
        <time>2021-04-26T15:10:08Z</time>
      </trkpt>
      <trkpt lat="45.2502" lon="4.44698">
        <ele>944</ele>
        <time>2021-04-26T15:10:09Z</time>
      </trkpt>
      <trkpt lat="45.25023" lon="4.44704">
        <ele>944</ele>
        <time>2021-04-26T15:10:10Z</time>
      </trkpt>
      <trkpt lat="45.25026" lon="4.4471">
        <ele>944</ele>
        <time>2021-04-26T15:10:11Z</time>
      </trkpt>
      <trkpt lat="45.25028" lon="4.44717">
        <ele>944</ele>
        <time>2021-04-26T15:10:12Z</time>
      </trkpt>
      <trkpt lat="45.25029" lon="4.44723">
        <ele>944</ele>
        <time>2021-04-26T15:10:13Z</time>
      </trkpt>
      <trkpt lat="45.25031" lon="4.44729">
        <ele>945</ele>
        <time>2021-04-26T15:10:14Z</time>
      </trkpt>
      <trkpt lat="45.25032" lon="4.44735">
        <ele>945</ele>
        <time>2021-04-26T15:10:15Z</time>
      </trkpt>
      <trkpt lat="45.25033" lon="4.44741">
        <ele>945</ele>
        <time>2021-04-26T15:10:16Z</time>
      </trkpt>
      <trkpt lat="45.25035" lon="4.44746">
        <ele>945</ele>
        <time>2021-04-26T15:10:17Z</time>
      </trkpt>
      <trkpt lat="45.25036" lon="4.44752">
        <ele>945</ele>
        <time>2021-04-26T15:10:18Z</time>
      </trkpt>
      <trkpt lat="45.25037" lon="4.44757">
        <ele>945</ele>
        <time>2021-04-26T15:10:19Z</time>
      </trkpt>
      <trkpt lat="45.25038" lon="4.44763">
        <ele>945</ele>
        <time>2021-04-26T15:10:20Z</time>
      </trkpt>
      <trkpt lat="45.25039" lon="4.44768">
        <ele>946</ele>
        <time>2021-04-26T15:10:21Z</time>
      </trkpt>
      <trkpt lat="45.25041" lon="4.44774">
        <ele>946</ele>
        <time>2021-04-26T15:10:22Z</time>
      </trkpt>
      <trkpt lat="45.25043" lon="4.4478">
        <ele>946</ele>
        <time>2021-04-26T15:10:23Z</time>
      </trkpt>
      <trkpt lat="45.25045" lon="4.44787">
        <ele>946</ele>
        <time>2021-04-26T15:10:24Z</time>
      </trkpt>
      <trkpt lat="45.25047" lon="4.44793">
        <ele>946</ele>
        <time>2021-04-26T15:10:25Z</time>
      </trkpt>
      <trkpt lat="45.2505" lon="4.44799">
        <ele>946</ele>
        <time>2021-04-26T15:10:26Z</time>
      </trkpt>
      <trkpt lat="45.25052" lon="4.44804">
        <ele>946</ele>
        <time>2021-04-26T15:10:27Z</time>
      </trkpt>
      <trkpt lat="45.25054" lon="4.4481">
        <ele>946</ele>
        <time>2021-04-26T15:10:28Z</time>
      </trkpt>
      <trkpt lat="45.25056" lon="4.44815">
        <ele>946</ele>
        <time>2021-04-26T15:10:29Z</time>
      </trkpt>
      <trkpt lat="45.25059" lon="4.4482">
        <ele>946</ele>
        <time>2021-04-26T15:10:30Z</time>
      </trkpt>
      <trkpt lat="45.25061" lon="4.44825">
        <ele>946</ele>
        <time>2021-04-26T15:10:31Z</time>
      </trkpt>
      <trkpt lat="45.25064" lon="4.44828">
        <ele>947</ele>
        <time>2021-04-26T15:10:32Z</time>
      </trkpt>
      <trkpt lat="45.25067" lon="4.44831">
        <ele>947</ele>
        <time>2021-04-26T15:10:33Z</time>
      </trkpt>
      <trkpt lat="45.2507" lon="4.44834">
        <ele>947</ele>
        <time>2021-04-26T15:10:34Z</time>
      </trkpt>
      <trkpt lat="45.25074" lon="4.44836">
        <ele>947</ele>
        <time>2021-04-26T15:10:35Z</time>
      </trkpt>
      <trkpt lat="45.25076" lon="4.44839">
        <ele>947</ele>
        <time>2021-04-26T15:10:36Z</time>
      </trkpt>
      <trkpt lat="45.25078" lon="4.44843">
        <ele>947</ele>
        <time>2021-04-26T15:10:37Z</time>
      </trkpt>
      <trkpt lat="45.2508" lon="4.44848">
        <ele>947</ele>
        <time>2021-04-26T15:10:38Z</time>
      </trkpt>
      <trkpt lat="45.25081" lon="4.44853">
        <ele>947</ele>
        <time>2021-04-26T15:10:39Z</time>
      </trkpt>
      <trkpt lat="45.25082" lon="4.44858">
        <ele>947</ele>
        <time>2021-04-26T15:10:40Z</time>
      </trkpt>
      <trkpt lat="45.25084" lon="4.44863">
        <ele>947</ele>
        <time>2021-04-26T15:10:41Z</time>
      </trkpt>
      <trkpt lat="45.25085" lon="4.44868">
        <ele>947</ele>
        <time>2021-04-26T15:10:42Z</time>
      </trkpt>
      <trkpt lat="45.25086" lon="4.44873">
        <ele>948</ele>
        <time>2021-04-26T15:10:43Z</time>
      </trkpt>
      <trkpt lat="45.25087" lon="4.44878">
        <ele>948</ele>
        <time>2021-04-26T15:10:44Z</time>
      </trkpt>
      <trkpt lat="45.25088" lon="4.44883">
        <ele>948</ele>
        <time>2021-04-26T15:10:45Z</time>
      </trkpt>
      <trkpt lat="45.25089" lon="4.44889">
        <ele>948</ele>
        <time>2021-04-26T15:10:46Z</time>
      </trkpt>
      <trkpt lat="45.25089" lon="4.44894">
        <ele>948</ele>
        <time>2021-04-26T15:10:47Z</time>
      </trkpt>
      <trkpt lat="45.2509" lon="4.44899">
        <ele>948</ele>
        <time>2021-04-26T15:10:48Z</time>
      </trkpt>
      <trkpt lat="45.25092" lon="4.44904">
        <ele>949</ele>
        <time>2021-04-26T15:10:49Z</time>
      </trkpt>
      <trkpt lat="45.25092" lon="4.44909">
        <ele>949</ele>
        <time>2021-04-26T15:10:50Z</time>
      </trkpt>
      <trkpt lat="45.25093" lon="4.44914">
        <ele>949</ele>
        <time>2021-04-26T15:10:51Z</time>
      </trkpt>
      <trkpt lat="45.25094" lon="4.4492">
        <ele>950</ele>
        <time>2021-04-26T15:10:52Z</time>
      </trkpt>
      <trkpt lat="45.25095" lon="4.44925">
        <ele>950</ele>
        <time>2021-04-26T15:10:53Z</time>
      </trkpt>
      <trkpt lat="45.25096" lon="4.4493">
        <ele>950</ele>
        <time>2021-04-26T15:10:54Z</time>
      </trkpt>
      <trkpt lat="45.25097" lon="4.44935">
        <ele>950</ele>
        <time>2021-04-26T15:10:55Z</time>
      </trkpt>
      <trkpt lat="45.25099" lon="4.4494">
        <ele>951</ele>
        <time>2021-04-26T15:10:56Z</time>
      </trkpt>
      <trkpt lat="45.251" lon="4.44945">
        <ele>951</ele>
        <time>2021-04-26T15:10:57Z</time>
      </trkpt>
      <trkpt lat="45.25101" lon="4.4495">
        <ele>951</ele>
        <time>2021-04-26T15:10:58Z</time>
      </trkpt>
      <trkpt lat="45.25103" lon="4.44955">
        <ele>951</ele>
        <time>2021-04-26T15:10:59Z</time>
      </trkpt>
      <trkpt lat="45.25104" lon="4.4496">
        <ele>951</ele>
        <time>2021-04-26T15:11:00Z</time>
      </trkpt>
      <trkpt lat="45.25106" lon="4.44964">
        <ele>951</ele>
        <time>2021-04-26T15:11:01Z</time>
      </trkpt>
      <trkpt lat="45.25107" lon="4.44969">
        <ele>952</ele>
        <time>2021-04-26T15:11:02Z</time>
      </trkpt>
      <trkpt lat="45.25109" lon="4.44974">
        <ele>952</ele>
        <time>2021-04-26T15:11:03Z</time>
      </trkpt>
      <trkpt lat="45.25111" lon="4.44979">
        <ele>952</ele>
        <time>2021-04-26T15:11:04Z</time>
      </trkpt>
      <trkpt lat="45.25113" lon="4.44984">
        <ele>952</ele>
        <time>2021-04-26T15:11:05Z</time>
      </trkpt>
      <trkpt lat="45.25114" lon="4.44988">
        <ele>953</ele>
        <time>2021-04-26T15:11:06Z</time>
      </trkpt>
      <trkpt lat="45.25116" lon="4.44993">
        <ele>953</ele>
        <time>2021-04-26T15:11:07Z</time>
      </trkpt>
      <trkpt lat="45.25118" lon="4.44998">
        <ele>953</ele>
        <time>2021-04-26T15:11:08Z</time>
      </trkpt>
      <trkpt lat="45.2512" lon="4.45002">
        <ele>953</ele>
        <time>2021-04-26T15:11:09Z</time>
      </trkpt>
      <trkpt lat="45.25123" lon="4.45007">
        <ele>954</ele>
        <time>2021-04-26T15:11:10Z</time>
      </trkpt>
      <trkpt lat="45.25125" lon="4.45011">
        <ele>954</ele>
        <time>2021-04-26T15:11:11Z</time>
      </trkpt>
      <trkpt lat="45.25127" lon="4.45016">
        <ele>954</ele>
        <time>2021-04-26T15:11:12Z</time>
      </trkpt>
      <trkpt lat="45.25129" lon="4.4502">
        <ele>954</ele>
        <time>2021-04-26T15:11:13Z</time>
      </trkpt>
      <trkpt lat="45.25131" lon="4.45024">
        <ele>954</ele>
        <time>2021-04-26T15:11:14Z</time>
      </trkpt>
      <trkpt lat="45.25134" lon="4.45028">
        <ele>955</ele>
        <time>2021-04-26T15:11:15Z</time>
      </trkpt>
      <trkpt lat="45.25136" lon="4.45032">
        <ele>955</ele>
        <time>2021-04-26T15:11:16Z</time>
      </trkpt>
      <trkpt lat="45.25138" lon="4.45036">
        <ele>955</ele>
        <time>2021-04-26T15:11:17Z</time>
      </trkpt>
      <trkpt lat="45.25141" lon="4.4504">
        <ele>955</ele>
        <time>2021-04-26T15:11:18Z</time>
      </trkpt>
      <trkpt lat="45.25143" lon="4.45044">
        <ele>955</ele>
        <time>2021-04-26T15:11:19Z</time>
      </trkpt>
      <trkpt lat="45.25146" lon="4.45047">
        <ele>955</ele>
        <time>2021-04-26T15:11:20Z</time>
      </trkpt>
      <trkpt lat="45.25148" lon="4.45051">
        <ele>955</ele>
        <time>2021-04-26T15:11:21Z</time>
      </trkpt>
      <trkpt lat="45.25151" lon="4.45055">
        <ele>956</ele>
        <time>2021-04-26T15:11:22Z</time>
      </trkpt>
      <trkpt lat="45.25153" lon="4.45059">
        <ele>956</ele>
        <time>2021-04-26T15:11:23Z</time>
      </trkpt>
      <trkpt lat="45.25155" lon="4.45062">
        <ele>956</ele>
        <time>2021-04-26T15:11:24Z</time>
      </trkpt>
      <trkpt lat="45.25157" lon="4.45066">
        <ele>956</ele>
        <time>2021-04-26T15:11:25Z</time>
      </trkpt>
      <trkpt lat="45.2516" lon="4.45071">
        <ele>956</ele>
        <time>2021-04-26T15:11:26Z</time>
      </trkpt>
      <trkpt lat="45.25162" lon="4.45075">
        <ele>956</ele>
        <time>2021-04-26T15:11:27Z</time>
      </trkpt>
      <trkpt lat="45.25164" lon="4.45079">
        <ele>956</ele>
        <time>2021-04-26T15:11:28Z</time>
      </trkpt>
      <trkpt lat="45.25166" lon="4.45084">
        <ele>957</ele>
        <time>2021-04-26T15:11:29Z</time>
      </trkpt>
      <trkpt lat="45.25168" lon="4.45088">
        <ele>957</ele>
        <time>2021-04-26T15:11:30Z</time>
      </trkpt>
      <trkpt lat="45.2517" lon="4.45092">
        <ele>957</ele>
        <time>2021-04-26T15:11:31Z</time>
      </trkpt>
      <trkpt lat="45.25171" lon="4.45097">
        <ele>957</ele>
        <time>2021-04-26T15:11:32Z</time>
      </trkpt>
      <trkpt lat="45.25173" lon="4.45102">
        <ele>957</ele>
        <time>2021-04-26T15:11:33Z</time>
      </trkpt>
      <trkpt lat="45.25174" lon="4.45106">
        <ele>957</ele>
        <time>2021-04-26T15:11:34Z</time>
      </trkpt>
      <trkpt lat="45.25175" lon="4.45111">
        <ele>957</ele>
        <time>2021-04-26T15:11:35Z</time>
      </trkpt>
      <trkpt lat="45.25176" lon="4.45115">
        <ele>958</ele>
        <time>2021-04-26T15:11:36Z</time>
      </trkpt>
      <trkpt lat="45.25178" lon="4.45119">
        <ele>958</ele>
        <time>2021-04-26T15:11:37Z</time>
      </trkpt>
      <trkpt lat="45.25179" lon="4.45123">
        <ele>958</ele>
        <time>2021-04-26T15:11:38Z</time>
      </trkpt>
      <trkpt lat="45.25179" lon="4.45126">
        <ele>958</ele>
        <time>2021-04-26T15:11:39Z</time>
      </trkpt>
      <trkpt lat="45.25181" lon="4.45129">
        <ele>959</ele>
        <time>2021-04-26T15:11:40Z</time>
      </trkpt>
      <trkpt lat="45.25182" lon="4.45132">
        <ele>959</ele>
        <time>2021-04-26T15:11:41Z</time>
      </trkpt>
      <trkpt lat="45.25183" lon="4.45135">
        <ele>959</ele>
        <time>2021-04-26T15:11:42Z</time>
      </trkpt>
      <trkpt lat="45.25186" lon="4.45145">
        <ele>959</ele>
        <time>2021-04-26T15:11:44Z</time>
      </trkpt>
      <trkpt lat="45.25188" lon="4.4515">
        <ele>959</ele>
        <time>2021-04-26T15:11:45Z</time>
      </trkpt>
      <trkpt lat="45.25189" lon="4.45154">
        <ele>960</ele>
        <time>2021-04-26T15:11:46Z</time>
      </trkpt>
      <trkpt lat="45.25192" lon="4.45169">
        <ele>960</ele>
        <time>2021-04-26T15:11:49Z</time>
      </trkpt>
      <trkpt lat="45.25196" lon="4.45186">
        <ele>961</ele>
        <time>2021-04-26T15:11:52Z</time>
      </trkpt>
      <trkpt lat="45.25197" lon="4.45192">
        <ele>961</ele>
        <time>2021-04-26T15:11:53Z</time>
      </trkpt>
      <trkpt lat="45.25198" lon="4.45198">
        <ele>962</ele>
        <time>2021-04-26T15:11:54Z</time>
      </trkpt>
      <trkpt lat="45.25199" lon="4.45204">
        <ele>962</ele>
        <time>2021-04-26T15:11:55Z</time>
      </trkpt>
      <trkpt lat="45.252" lon="4.45209">
        <ele>962</ele>
        <time>2021-04-26T15:11:56Z</time>
      </trkpt>
      <trkpt lat="45.25202" lon="4.45214">
        <ele>963</ele>
        <time>2021-04-26T15:11:57Z</time>
      </trkpt>
      <trkpt lat="45.25203" lon="4.45218">
        <ele>964</ele>
        <time>2021-04-26T15:11:58Z</time>
      </trkpt>
      <trkpt lat="45.25205" lon="4.45223">
        <ele>964</ele>
        <time>2021-04-26T15:11:59Z</time>
      </trkpt>
      <trkpt lat="45.25207" lon="4.45227">
        <ele>964</ele>
        <time>2021-04-26T15:12:00Z</time>
      </trkpt>
      <trkpt lat="45.25208" lon="4.45232">
        <ele>965</ele>
        <time>2021-04-26T15:12:01Z</time>
      </trkpt>
      <trkpt lat="45.2521" lon="4.45236">
        <ele>965</ele>
        <time>2021-04-26T15:12:02Z</time>
      </trkpt>
      <trkpt lat="45.25212" lon="4.4524">
        <ele>965</ele>
        <time>2021-04-26T15:12:03Z</time>
      </trkpt>
      <trkpt lat="45.25213" lon="4.45244">
        <ele>966</ele>
        <time>2021-04-26T15:12:04Z</time>
      </trkpt>
      <trkpt lat="45.25215" lon="4.45248">
        <ele>966</ele>
        <time>2021-04-26T15:12:05Z</time>
      </trkpt>
      <trkpt lat="45.25216" lon="4.45252">
        <ele>966</ele>
        <time>2021-04-26T15:12:06Z</time>
      </trkpt>
      <trkpt lat="45.25216" lon="4.45255">
        <ele>966</ele>
        <time>2021-04-26T15:12:07Z</time>
      </trkpt>
      <trkpt lat="45.25218" lon="4.4526">
        <ele>967</ele>
        <time>2021-04-26T15:12:08Z</time>
      </trkpt>
      <trkpt lat="45.25219" lon="4.45264">
        <ele>967</ele>
        <time>2021-04-26T15:12:09Z</time>
      </trkpt>
      <trkpt lat="45.2522" lon="4.45268">
        <ele>967</ele>
        <time>2021-04-26T15:12:10Z</time>
      </trkpt>
      <trkpt lat="45.2522" lon="4.45272">
        <ele>968</ele>
        <time>2021-04-26T15:12:11Z</time>
      </trkpt>
      <trkpt lat="45.25221" lon="4.45276">
        <ele>968</ele>
        <time>2021-04-26T15:12:12Z</time>
      </trkpt>
      <trkpt lat="45.25222" lon="4.4528">
        <ele>969</ele>
        <time>2021-04-26T15:12:13Z</time>
      </trkpt>
      <trkpt lat="45.25222" lon="4.45284">
        <ele>969</ele>
        <time>2021-04-26T15:12:14Z</time>
      </trkpt>
      <trkpt lat="45.25223" lon="4.45288">
        <ele>970</ele>
        <time>2021-04-26T15:12:15Z</time>
      </trkpt>
      <trkpt lat="45.25224" lon="4.45292">
        <ele>970</ele>
        <time>2021-04-26T15:12:16Z</time>
      </trkpt>
      <trkpt lat="45.25224" lon="4.45295">
        <ele>971</ele>
        <time>2021-04-26T15:12:17Z</time>
      </trkpt>
      <trkpt lat="45.25224" lon="4.45299">
        <ele>971</ele>
        <time>2021-04-26T15:12:18Z</time>
      </trkpt>
      <trkpt lat="45.25225" lon="4.45303">
        <ele>972</ele>
        <time>2021-04-26T15:12:19Z</time>
      </trkpt>
      <trkpt lat="45.25225" lon="4.45307">
        <ele>972</ele>
        <time>2021-04-26T15:12:20Z</time>
      </trkpt>
      <trkpt lat="45.25226" lon="4.45311">
        <ele>972</ele>
        <time>2021-04-26T15:12:21Z</time>
      </trkpt>
      <trkpt lat="45.25228" lon="4.45316">
        <ele>973</ele>
        <time>2021-04-26T15:12:22Z</time>
      </trkpt>
      <trkpt lat="45.25229" lon="4.4532">
        <ele>973</ele>
        <time>2021-04-26T15:12:23Z</time>
      </trkpt>
      <trkpt lat="45.2523" lon="4.45324">
        <ele>974</ele>
        <time>2021-04-26T15:12:24Z</time>
      </trkpt>
      <trkpt lat="45.25232" lon="4.45327">
        <ele>974</ele>
        <time>2021-04-26T15:12:25Z</time>
      </trkpt>
      <trkpt lat="45.25234" lon="4.45332">
        <ele>974</ele>
        <time>2021-04-26T15:12:26Z</time>
      </trkpt>
      <trkpt lat="45.25236" lon="4.45336">
        <ele>975</ele>
        <time>2021-04-26T15:12:27Z</time>
      </trkpt>
      <trkpt lat="45.25237" lon="4.45341">
        <ele>975</ele>
        <time>2021-04-26T15:12:28Z</time>
      </trkpt>
      <trkpt lat="45.25239" lon="4.45345">
        <ele>976</ele>
        <time>2021-04-26T15:12:29Z</time>
      </trkpt>
      <trkpt lat="45.2524" lon="4.4535">
        <ele>976</ele>
        <time>2021-04-26T15:12:30Z</time>
      </trkpt>
      <trkpt lat="45.25242" lon="4.45354">
        <ele>977</ele>
        <time>2021-04-26T15:12:31Z</time>
      </trkpt>
      <trkpt lat="45.25244" lon="4.45357">
        <ele>977</ele>
        <time>2021-04-26T15:12:32Z</time>
      </trkpt>
      <trkpt lat="45.25246" lon="4.45361">
        <ele>978</ele>
        <time>2021-04-26T15:12:33Z</time>
      </trkpt>
      <trkpt lat="45.25247" lon="4.45364">
        <ele>978</ele>
        <time>2021-04-26T15:12:34Z</time>
      </trkpt>
      <trkpt lat="45.25249" lon="4.45367">
        <ele>978</ele>
        <time>2021-04-26T15:12:35Z</time>
      </trkpt>
      <trkpt lat="45.25251" lon="4.4537">
        <ele>978</ele>
        <time>2021-04-26T15:12:36Z</time>
      </trkpt>
      <trkpt lat="45.25253" lon="4.45373">
        <ele>979</ele>
        <time>2021-04-26T15:12:37Z</time>
      </trkpt>
      <trkpt lat="45.25254" lon="4.45377">
        <ele>979</ele>
        <time>2021-04-26T15:12:38Z</time>
      </trkpt>
      <trkpt lat="45.25256" lon="4.4538">
        <ele>979</ele>
        <time>2021-04-26T15:12:39Z</time>
      </trkpt>
      <trkpt lat="45.25258" lon="4.45383">
        <ele>979</ele>
        <time>2021-04-26T15:12:40Z</time>
      </trkpt>
      <trkpt lat="45.25259" lon="4.45386">
        <ele>980</ele>
        <time>2021-04-26T15:12:41Z</time>
      </trkpt>
      <trkpt lat="45.25261" lon="4.4539">
        <ele>980</ele>
        <time>2021-04-26T15:12:42Z</time>
      </trkpt>
      <trkpt lat="45.25263" lon="4.45393">
        <ele>980</ele>
        <time>2021-04-26T15:12:43Z</time>
      </trkpt>
      <trkpt lat="45.25265" lon="4.45397">
        <ele>980</ele>
        <time>2021-04-26T15:12:44Z</time>
      </trkpt>
      <trkpt lat="45.25267" lon="4.454">
        <ele>980</ele>
        <time>2021-04-26T15:12:45Z</time>
      </trkpt>
      <trkpt lat="45.25269" lon="4.45404">
        <ele>981</ele>
        <time>2021-04-26T15:12:46Z</time>
      </trkpt>
      <trkpt lat="45.25271" lon="4.45407">
        <ele>981</ele>
        <time>2021-04-26T15:12:47Z</time>
      </trkpt>
      <trkpt lat="45.25273" lon="4.45411">
        <ele>981</ele>
        <time>2021-04-26T15:12:48Z</time>
      </trkpt>
      <trkpt lat="45.25276" lon="4.45415">
        <ele>981</ele>
        <time>2021-04-26T15:12:49Z</time>
      </trkpt>
      <trkpt lat="45.25278" lon="4.4542">
        <ele>981</ele>
        <time>2021-04-26T15:12:50Z</time>
      </trkpt>
      <trkpt lat="45.25281" lon="4.45425">
        <ele>981</ele>
        <time>2021-04-26T15:12:51Z</time>
      </trkpt>
      <trkpt lat="45.25284" lon="4.45429">
        <ele>981</ele>
        <time>2021-04-26T15:12:52Z</time>
      </trkpt>
      <trkpt lat="45.25287" lon="4.45433">
        <ele>982</ele>
        <time>2021-04-26T15:12:53Z</time>
      </trkpt>
      <trkpt lat="45.25291" lon="4.45438">
        <ele>982</ele>
        <time>2021-04-26T15:12:54Z</time>
      </trkpt>
      <trkpt lat="45.25294" lon="4.45442">
        <ele>982</ele>
        <time>2021-04-26T15:12:55Z</time>
      </trkpt>
      <trkpt lat="45.25297" lon="4.45446">
        <ele>983</ele>
        <time>2021-04-26T15:12:56Z</time>
      </trkpt>
      <trkpt lat="45.25299" lon="4.45451">
        <ele>983</ele>
        <time>2021-04-26T15:12:57Z</time>
      </trkpt>
      <trkpt lat="45.25301" lon="4.45457">
        <ele>983</ele>
        <time>2021-04-26T15:12:58Z</time>
      </trkpt>
      <trkpt lat="45.25302" lon="4.45462">
        <ele>983</ele>
        <time>2021-04-26T15:12:59Z</time>
      </trkpt>
      <trkpt lat="45.25303" lon="4.45467">
        <ele>983</ele>
        <time>2021-04-26T15:13:00Z</time>
      </trkpt>
      <trkpt lat="45.25304" lon="4.45471">
        <ele>984</ele>
        <time>2021-04-26T15:13:01Z</time>
      </trkpt>
      <trkpt lat="45.25305" lon="4.45476">
        <ele>984</ele>
        <time>2021-04-26T15:13:02Z</time>
      </trkpt>
      <trkpt lat="45.25307" lon="4.45481">
        <ele>984</ele>
        <time>2021-04-26T15:13:03Z</time>
      </trkpt>
      <trkpt lat="45.25308" lon="4.45485">
        <ele>984</ele>
        <time>2021-04-26T15:13:04Z</time>
      </trkpt>
      <trkpt lat="45.25309" lon="4.4549">
        <ele>985</ele>
        <time>2021-04-26T15:13:05Z</time>
      </trkpt>
      <trkpt lat="45.25309" lon="4.45495">
        <ele>985</ele>
        <time>2021-04-26T15:13:06Z</time>
      </trkpt>
      <trkpt lat="45.25309" lon="4.455">
        <ele>986</ele>
        <time>2021-04-26T15:13:07Z</time>
      </trkpt>
      <trkpt lat="45.25309" lon="4.45505">
        <ele>986</ele>
        <time>2021-04-26T15:13:08Z</time>
      </trkpt>
      <trkpt lat="45.25308" lon="4.4551">
        <ele>986</ele>
        <time>2021-04-26T15:13:09Z</time>
      </trkpt>
      <trkpt lat="45.25307" lon="4.45516">
        <ele>986</ele>
        <time>2021-04-26T15:13:10Z</time>
      </trkpt>
      <trkpt lat="45.25306" lon="4.45521">
        <ele>986</ele>
        <time>2021-04-26T15:13:11Z</time>
      </trkpt>
      <trkpt lat="45.25304" lon="4.45525">
        <ele>987</ele>
        <time>2021-04-26T15:13:12Z</time>
      </trkpt>
      <trkpt lat="45.25303" lon="4.45529">
        <ele>987</ele>
        <time>2021-04-26T15:13:13Z</time>
      </trkpt>
      <trkpt lat="45.25302" lon="4.45533">
        <ele>988</ele>
        <time>2021-04-26T15:13:14Z</time>
      </trkpt>
      <trkpt lat="45.25301" lon="4.45537">
        <ele>988</ele>
        <time>2021-04-26T15:13:15Z</time>
      </trkpt>
      <trkpt lat="45.25299" lon="4.45541">
        <ele>989</ele>
        <time>2021-04-26T15:13:16Z</time>
      </trkpt>
      <trkpt lat="45.25298" lon="4.45546">
        <ele>989</ele>
        <time>2021-04-26T15:13:17Z</time>
      </trkpt>
      <trkpt lat="45.25297" lon="4.4555">
        <ele>989</ele>
        <time>2021-04-26T15:13:18Z</time>
      </trkpt>
      <trkpt lat="45.25296" lon="4.45555">
        <ele>990</ele>
        <time>2021-04-26T15:13:19Z</time>
      </trkpt>
      <trkpt lat="45.25293" lon="4.45558">
        <ele>991</ele>
        <time>2021-04-26T15:13:20Z</time>
      </trkpt>
      <trkpt lat="45.25291" lon="4.45562">
        <ele>991</ele>
        <time>2021-04-26T15:13:21Z</time>
      </trkpt>
      <trkpt lat="45.25288" lon="4.45565">
        <ele>992</ele>
        <time>2021-04-26T15:13:22Z</time>
      </trkpt>
      <trkpt lat="45.25285" lon="4.45568">
        <ele>992</ele>
        <time>2021-04-26T15:13:23Z</time>
      </trkpt>
      <trkpt lat="45.25282" lon="4.45571">
        <ele>993</ele>
        <time>2021-04-26T15:13:24Z</time>
      </trkpt>
      <trkpt lat="45.25279" lon="4.45574">
        <ele>993</ele>
        <time>2021-04-26T15:13:25Z</time>
      </trkpt>
      <trkpt lat="45.25277" lon="4.45577">
        <ele>993</ele>
        <time>2021-04-26T15:13:26Z</time>
      </trkpt>
      <trkpt lat="45.25275" lon="4.4558">
        <ele>994</ele>
        <time>2021-04-26T15:13:27Z</time>
      </trkpt>
      <trkpt lat="45.25274" lon="4.45584">
        <ele>994</ele>
        <time>2021-04-26T15:13:28Z</time>
      </trkpt>
      <trkpt lat="45.25273" lon="4.45588">
        <ele>995</ele>
        <time>2021-04-26T15:13:29Z</time>
      </trkpt>
      <trkpt lat="45.25273" lon="4.45592">
        <ele>995</ele>
        <time>2021-04-26T15:13:30Z</time>
      </trkpt>
      <trkpt lat="45.25273" lon="4.45596">
        <ele>995</ele>
        <time>2021-04-26T15:13:31Z</time>
      </trkpt>
      <trkpt lat="45.25274" lon="4.456">
        <ele>995</ele>
        <time>2021-04-26T15:13:32Z</time>
      </trkpt>
      <trkpt lat="45.25274" lon="4.45604">
        <ele>996</ele>
        <time>2021-04-26T15:13:33Z</time>
      </trkpt>
      <trkpt lat="45.25276" lon="4.45607">
        <ele>996</ele>
        <time>2021-04-26T15:13:34Z</time>
      </trkpt>
      <trkpt lat="45.25277" lon="4.45611">
        <ele>997</ele>
        <time>2021-04-26T15:13:35Z</time>
      </trkpt>
      <trkpt lat="45.25279" lon="4.45614">
        <ele>997</ele>
        <time>2021-04-26T15:13:36Z</time>
      </trkpt>
      <trkpt lat="45.25281" lon="4.45617">
        <ele>997</ele>
        <time>2021-04-26T15:13:37Z</time>
      </trkpt>
      <trkpt lat="45.25282" lon="4.4562">
        <ele>998</ele>
        <time>2021-04-26T15:13:38Z</time>
      </trkpt>
      <trkpt lat="45.25283" lon="4.45623">
        <ele>998</ele>
        <time>2021-04-26T15:13:39Z</time>
      </trkpt>
      <trkpt lat="45.25284" lon="4.45626">
        <ele>999</ele>
        <time>2021-04-26T15:13:40Z</time>
      </trkpt>
      <trkpt lat="45.25286" lon="4.45629">
        <ele>999</ele>
        <time>2021-04-26T15:13:41Z</time>
      </trkpt>
      <trkpt lat="45.25287" lon="4.45633">
        <ele>1000</ele>
        <time>2021-04-26T15:13:42Z</time>
      </trkpt>
      <trkpt lat="45.25288" lon="4.45636">
        <ele>1000</ele>
        <time>2021-04-26T15:13:43Z</time>
      </trkpt>
      <trkpt lat="45.2529" lon="4.4564">
        <ele>1000</ele>
        <time>2021-04-26T15:13:44Z</time>
      </trkpt>
      <trkpt lat="45.2529" lon="4.45643">
        <ele>1001</ele>
        <time>2021-04-26T15:13:45Z</time>
      </trkpt>
      <trkpt lat="45.25291" lon="4.45646">
        <ele>1002</ele>
        <time>2021-04-26T15:13:46Z</time>
      </trkpt>
      <trkpt lat="45.25293" lon="4.45649">
        <ele>1002</ele>
        <time>2021-04-26T15:13:47Z</time>
      </trkpt>
      <trkpt lat="45.25293" lon="4.45653">
        <ele>1003</ele>
        <time>2021-04-26T15:13:48Z</time>
      </trkpt>
      <trkpt lat="45.25294" lon="4.45656">
        <ele>1003</ele>
        <time>2021-04-26T15:13:49Z</time>
      </trkpt>
      <trkpt lat="45.25296" lon="4.4566">
        <ele>1004</ele>
        <time>2021-04-26T15:13:50Z</time>
      </trkpt>
      <trkpt lat="45.25297" lon="4.45663">
        <ele>1004</ele>
        <time>2021-04-26T15:13:51Z</time>
      </trkpt>
      <trkpt lat="45.25298" lon="4.45667">
        <ele>1005</ele>
        <time>2021-04-26T15:13:52Z</time>
      </trkpt>
      <trkpt lat="45.253" lon="4.4567">
        <ele>1006</ele>
        <time>2021-04-26T15:13:53Z</time>
      </trkpt>
      <trkpt lat="45.25301" lon="4.45673">
        <ele>1006</ele>
        <time>2021-04-26T15:13:54Z</time>
      </trkpt>
      <trkpt lat="45.25303" lon="4.45677">
        <ele>1007</ele>
        <time>2021-04-26T15:13:55Z</time>
      </trkpt>
      <trkpt lat="45.25304" lon="4.4568">
        <ele>1007</ele>
        <time>2021-04-26T15:13:56Z</time>
      </trkpt>
      <trkpt lat="45.25306" lon="4.45683">
        <ele>1008</ele>
        <time>2021-04-26T15:13:57Z</time>
      </trkpt>
      <trkpt lat="45.25308" lon="4.45686">
        <ele>1008</ele>
        <time>2021-04-26T15:13:58Z</time>
      </trkpt>
      <trkpt lat="45.25309" lon="4.45689">
        <ele>1009</ele>
        <time>2021-04-26T15:13:59Z</time>
      </trkpt>
      <trkpt lat="45.25311" lon="4.45692">
        <ele>1009</ele>
        <time>2021-04-26T15:14:00Z</time>
      </trkpt>
      <trkpt lat="45.25312" lon="4.45695">
        <ele>1010</ele>
        <time>2021-04-26T15:14:01Z</time>
      </trkpt>
      <trkpt lat="45.25313" lon="4.45698">
        <ele>1011</ele>
        <time>2021-04-26T15:14:02Z</time>
      </trkpt>
      <trkpt lat="45.25314" lon="4.45702">
        <ele>1011</ele>
        <time>2021-04-26T15:14:03Z</time>
      </trkpt>
      <trkpt lat="45.25316" lon="4.45705">
        <ele>1012</ele>
        <time>2021-04-26T15:14:04Z</time>
      </trkpt>
      <trkpt lat="45.25317" lon="4.45708">
        <ele>1012</ele>
        <time>2021-04-26T15:14:05Z</time>
      </trkpt>
      <trkpt lat="45.25318" lon="4.45712">
        <ele>1013</ele>
        <time>2021-04-26T15:14:06Z</time>
      </trkpt>
      <trkpt lat="45.25319" lon="4.45717">
        <ele>1013</ele>
        <time>2021-04-26T15:14:07Z</time>
      </trkpt>
      <trkpt lat="45.2532" lon="4.45721">
        <ele>1014</ele>
        <time>2021-04-26T15:14:08Z</time>
      </trkpt>
      <trkpt lat="45.25321" lon="4.45726">
        <ele>1014</ele>
        <time>2021-04-26T15:14:09Z</time>
      </trkpt>
      <trkpt lat="45.25322" lon="4.45732">
        <ele>1015</ele>
        <time>2021-04-26T15:14:10Z</time>
      </trkpt>
      <trkpt lat="45.25323" lon="4.45738">
        <ele>1015</ele>
        <time>2021-04-26T15:14:11Z</time>
      </trkpt>
      <trkpt lat="45.25324" lon="4.45744">
        <ele>1015</ele>
        <time>2021-04-26T15:14:12Z</time>
      </trkpt>
      <trkpt lat="45.25324" lon="4.4575">
        <ele>1015</ele>
        <time>2021-04-26T15:14:13Z</time>
      </trkpt>
      <trkpt lat="45.25325" lon="4.45756">
        <ele>1015</ele>
        <time>2021-04-26T15:14:14Z</time>
      </trkpt>
      <trkpt lat="45.25326" lon="4.45762">
        <ele>1015</ele>
        <time>2021-04-26T15:14:15Z</time>
      </trkpt>
      <trkpt lat="45.25321" lon="4.45815">
        <ele>1028</ele>
        <time>2021-04-27T07:50:23Z</time>
      </trkpt>
      <trkpt lat="45.25321" lon="4.45819">
        <ele>1028</ele>
        <time>2021-04-27T07:50:24Z</time>
      </trkpt>
      <trkpt lat="45.25321" lon="4.45823">
        <ele>1028</ele>
        <time>2021-04-27T07:50:25Z</time>
      </trkpt>
      <trkpt lat="45.25321" lon="4.45827">
        <ele>1028</ele>
        <time>2021-04-27T07:50:26Z</time>
      </trkpt>
      <trkpt lat="45.2532" lon="4.45831">
        <ele>1028</ele>
        <time>2021-04-27T07:50:27Z</time>
      </trkpt>
      <trkpt lat="45.2532" lon="4.45834">
        <ele>1028</ele>
        <time>2021-04-27T07:50:28Z</time>
      </trkpt>
      <trkpt lat="45.25319" lon="4.45838">
        <ele>1028</ele>
        <time>2021-04-27T07:50:29Z</time>
      </trkpt>
      <trkpt lat="45.25318" lon="4.45842">
        <ele>1029</ele>
        <time>2021-04-27T07:50:30Z</time>
      </trkpt>
      <trkpt lat="45.25316" lon="4.45845">
        <ele>1029</ele>
        <time>2021-04-27T07:50:31Z</time>
      </trkpt>
      <trkpt lat="45.25315" lon="4.45848">
        <ele>1029</ele>
        <time>2021-04-27T07:50:32Z</time>
      </trkpt>
      <trkpt lat="45.25314" lon="4.45852">
        <ele>1029</ele>
        <time>2021-04-27T07:50:33Z</time>
      </trkpt>
      <trkpt lat="45.25313" lon="4.45855">
        <ele>1030</ele>
        <time>2021-04-27T07:50:34Z</time>
      </trkpt>
      <trkpt lat="45.25311" lon="4.45857">
        <ele>1030</ele>
        <time>2021-04-27T07:50:35Z</time>
      </trkpt>
      <trkpt lat="45.2531" lon="4.4586">
        <ele>1030</ele>
        <time>2021-04-27T07:50:36Z</time>
      </trkpt>
      <trkpt lat="45.25309" lon="4.45862">
        <ele>1030</ele>
        <time>2021-04-27T07:50:37Z</time>
      </trkpt>
      <trkpt lat="45.25307" lon="4.45865">
        <ele>1031</ele>
        <time>2021-04-27T07:50:38Z</time>
      </trkpt>
      <trkpt lat="45.25306" lon="4.45868">
        <ele>1031</ele>
        <time>2021-04-27T07:50:39Z</time>
      </trkpt>
      <trkpt lat="45.25304" lon="4.4587">
        <ele>1031</ele>
        <time>2021-04-27T07:50:40Z</time>
      </trkpt>
      <trkpt lat="45.25302" lon="4.45872">
        <ele>1031</ele>
        <time>2021-04-27T07:50:41Z</time>
      </trkpt>
      <trkpt lat="45.25299" lon="4.45875">
        <ele>1032</ele>
        <time>2021-04-27T07:50:42Z</time>
      </trkpt>
      <trkpt lat="45.25298" lon="4.45877">
        <ele>1032</ele>
        <time>2021-04-27T07:50:43Z</time>
      </trkpt>
      <trkpt lat="45.25296" lon="4.45879">
        <ele>1032</ele>
        <time>2021-04-27T07:50:44Z</time>
      </trkpt>
      <trkpt lat="45.25295" lon="4.45882">
        <ele>1032</ele>
        <time>2021-04-27T07:50:45Z</time>
      </trkpt>
      <trkpt lat="45.25295" lon="4.45885">
        <ele>1032</ele>
        <time>2021-04-27T07:50:46Z</time>
      </trkpt>
      <trkpt lat="45.25294" lon="4.45888">
        <ele>1033</ele>
        <time>2021-04-27T07:50:47Z</time>
      </trkpt>
      <trkpt lat="45.25292" lon="4.45891">
        <ele>1033</ele>
        <time>2021-04-27T07:50:48Z</time>
      </trkpt>
      <trkpt lat="45.25291" lon="4.45894">
        <ele>1033</ele>
        <time>2021-04-27T07:50:49Z</time>
      </trkpt>
      <trkpt lat="45.25289" lon="4.45897">
        <ele>1033</ele>
        <time>2021-04-27T07:50:50Z</time>
      </trkpt>
      <trkpt lat="45.25288" lon="4.459">
        <ele>1033</ele>
        <time>2021-04-27T07:50:51Z</time>
      </trkpt>
      <trkpt lat="45.25287" lon="4.45903">
        <ele>1034</ele>
        <time>2021-04-27T07:50:52Z</time>
      </trkpt>
      <trkpt lat="45.25285" lon="4.45906">
        <ele>1034</ele>
        <time>2021-04-27T07:50:53Z</time>
      </trkpt>
      <trkpt lat="45.25284" lon="4.4591">
        <ele>1034</ele>
        <time>2021-04-27T07:50:54Z</time>
      </trkpt>
      <trkpt lat="45.25283" lon="4.45913">
        <ele>1034</ele>
        <time>2021-04-27T07:50:55Z</time>
      </trkpt>
      <trkpt lat="45.25281" lon="4.45916">
        <ele>1034</ele>
        <time>2021-04-27T07:50:56Z</time>
      </trkpt>
      <trkpt lat="45.2528" lon="4.45919">
        <ele>1034</ele>
        <time>2021-04-27T07:50:57Z</time>
      </trkpt>
      <trkpt lat="45.25278" lon="4.45923">
        <ele>1034</ele>
        <time>2021-04-27T07:50:58Z</time>
      </trkpt>
      <trkpt lat="45.25277" lon="4.45926">
        <ele>1034</ele>
        <time>2021-04-27T07:50:59Z</time>
      </trkpt>
      <trkpt lat="45.25275" lon="4.45929">
        <ele>1034</ele>
        <time>2021-04-27T07:51:00Z</time>
      </trkpt>
      <trkpt lat="45.25274" lon="4.45933">
        <ele>1035</ele>
        <time>2021-04-27T07:51:01Z</time>
      </trkpt>
      <trkpt lat="45.25272" lon="4.45936">
        <ele>1035</ele>
        <time>2021-04-27T07:51:02Z</time>
      </trkpt>
      <trkpt lat="45.25271" lon="4.45939">
        <ele>1035</ele>
        <time>2021-04-27T07:51:03Z</time>
      </trkpt>
      <trkpt lat="45.2527" lon="4.45942">
        <ele>1035</ele>
        <time>2021-04-27T07:51:04Z</time>
      </trkpt>
      <trkpt lat="45.25269" lon="4.45945">
        <ele>1035</ele>
        <time>2021-04-27T07:51:05Z</time>
      </trkpt>
      <trkpt lat="45.25268" lon="4.45948">
        <ele>1036</ele>
        <time>2021-04-27T07:51:06Z</time>
      </trkpt>
      <trkpt lat="45.25266" lon="4.45951">
        <ele>1036</ele>
        <time>2021-04-27T07:51:07Z</time>
      </trkpt>
      <trkpt lat="45.25265" lon="4.45954">
        <ele>1036</ele>
        <time>2021-04-27T07:51:08Z</time>
      </trkpt>
      <trkpt lat="45.25263" lon="4.45957">
        <ele>1036</ele>
        <time>2021-04-27T07:51:09Z</time>
      </trkpt>
      <trkpt lat="45.25261" lon="4.45961">
        <ele>1036</ele>
        <time>2021-04-27T07:51:10Z</time>
      </trkpt>
      <trkpt lat="45.2526" lon="4.45964">
        <ele>1037</ele>
        <time>2021-04-27T07:51:11Z</time>
      </trkpt>
      <trkpt lat="45.25258" lon="4.45966">
        <ele>1037</ele>
        <time>2021-04-27T07:51:12Z</time>
      </trkpt>
      <trkpt lat="45.25257" lon="4.45969">
        <ele>1037</ele>
        <time>2021-04-27T07:51:13Z</time>
      </trkpt>
      <trkpt lat="45.25256" lon="4.45972">
        <ele>1037</ele>
        <time>2021-04-27T07:51:14Z</time>
      </trkpt>
      <trkpt lat="45.25254" lon="4.45976">
        <ele>1037</ele>
        <time>2021-04-27T07:51:15Z</time>
      </trkpt>
      <trkpt lat="45.25253" lon="4.45978">
        <ele>1038</ele>
        <time>2021-04-27T07:51:16Z</time>
      </trkpt>
      <trkpt lat="45.25252" lon="4.45981">
        <ele>1038</ele>
        <time>2021-04-27T07:51:17Z</time>
      </trkpt>
      <trkpt lat="45.25251" lon="4.45983">
        <ele>1038</ele>
        <time>2021-04-27T07:51:18Z</time>
      </trkpt>
      <trkpt lat="45.2525" lon="4.45986">
        <ele>1038</ele>
        <time>2021-04-27T07:51:19Z</time>
      </trkpt>
      <trkpt lat="45.25249" lon="4.45989">
        <ele>1039</ele>
        <time>2021-04-27T07:51:20Z</time>
      </trkpt>
      <trkpt lat="45.25248" lon="4.45991">
        <ele>1039</ele>
        <time>2021-04-27T07:51:21Z</time>
      </trkpt>
      <trkpt lat="45.25246" lon="4.45993">
        <ele>1040</ele>
        <time>2021-04-27T07:51:22Z</time>
      </trkpt>
      <trkpt lat="45.25246" lon="4.45996">
        <ele>1040</ele>
        <time>2021-04-27T07:51:23Z</time>
      </trkpt>
      <trkpt lat="45.25239" lon="4.46008">
        <ele>1042</ele>
        <time>2021-04-27T07:51:28Z</time>
      </trkpt>
      <trkpt lat="45.25233" lon="4.46015">
        <ele>1044</ele>
        <time>2021-04-27T07:51:31Z</time>
      </trkpt>
      <trkpt lat="45.25231" lon="4.46018">
        <ele>1045</ele>
        <time>2021-04-27T07:51:33Z</time>
      </trkpt>
      <trkpt lat="45.25226" lon="4.4602">
        <ele>1046</ele>
        <time>2021-04-27T07:51:36Z</time>
      </trkpt>
      <trkpt lat="45.2522" lon="4.46026">
        <ele>1048</ele>
        <time>2021-04-27T07:51:40Z</time>
      </trkpt>
      <trkpt lat="45.25218" lon="4.46029">
        <ele>1048</ele>
        <time>2021-04-27T07:51:42Z</time>
      </trkpt>
      <trkpt lat="45.25218" lon="4.46029">
        <ele>1050</ele>
        <time>2021-04-27T07:51:52Z</time>
      </trkpt>
      <trkpt lat="45.25221" lon="4.46029">
        <ele>1051</ele>
        <time>2021-04-27T07:53:03Z</time>
      </trkpt>
      <trkpt lat="45.25218" lon="4.46029">
        <ele>1052</ele>
        <time>2021-04-27T07:53:07Z</time>
      </trkpt>
      <trkpt lat="45.25216" lon="4.4603">
        <ele>1053</ele>
        <time>2021-04-27T07:53:09Z</time>
      </trkpt>
      <trkpt lat="45.25213" lon="4.46032">
        <ele>1053</ele>
        <time>2021-04-27T07:53:11Z</time>
      </trkpt>
      <trkpt lat="45.25211" lon="4.46033">
        <ele>1054</ele>
        <time>2021-04-27T07:53:12Z</time>
      </trkpt>
      <trkpt lat="45.25209" lon="4.46035">
        <ele>1054</ele>
        <time>2021-04-27T07:53:13Z</time>
      </trkpt>
      <trkpt lat="45.25199" lon="4.4604">
        <ele>1056</ele>
        <time>2021-04-27T07:53:17Z</time>
      </trkpt>
      <trkpt lat="45.25191" lon="4.46045">
        <ele>1057</ele>
        <time>2021-04-27T07:53:21Z</time>
      </trkpt>
      <trkpt lat="45.25181" lon="4.4605">
        <ele>1057</ele>
        <time>2021-04-27T07:53:25Z</time>
      </trkpt>
      <trkpt lat="45.25179" lon="4.4605">
        <ele>1057</ele>
        <time>2021-04-27T07:53:26Z</time>
      </trkpt>
      <trkpt lat="45.25177" lon="4.46052">
        <ele>1058</ele>
        <time>2021-04-27T07:53:27Z</time>
      </trkpt>
      <trkpt lat="45.25174" lon="4.46053">
        <ele>1058</ele>
        <time>2021-04-27T07:53:28Z</time>
      </trkpt>
      <trkpt lat="45.25172" lon="4.46055">
        <ele>1058</ele>
        <time>2021-04-27T07:53:29Z</time>
      </trkpt>
      <trkpt lat="45.25171" lon="4.46057">
        <ele>1059</ele>
        <time>2021-04-27T07:53:30Z</time>
      </trkpt>
      <trkpt lat="45.25169" lon="4.46058">
        <ele>1059</ele>
        <time>2021-04-27T07:53:31Z</time>
      </trkpt>
      <trkpt lat="45.25166" lon="4.46061">
        <ele>1060</ele>
        <time>2021-04-27T07:53:33Z</time>
      </trkpt>
      <trkpt lat="45.25164" lon="4.46062">
        <ele>1060</ele>
        <time>2021-04-27T07:53:34Z</time>
      </trkpt>
      <trkpt lat="45.25162" lon="4.46064">
        <ele>1060</ele>
        <time>2021-04-27T07:53:35Z</time>
      </trkpt>
      <trkpt lat="45.2516" lon="4.46066">
        <ele>1061</ele>
        <time>2021-04-27T07:53:36Z</time>
      </trkpt>
      <trkpt lat="45.25158" lon="4.46068">
        <ele>1061</ele>
        <time>2021-04-27T07:53:37Z</time>
      </trkpt>
      <trkpt lat="45.25156" lon="4.4607">
        <ele>1062</ele>
        <time>2021-04-27T07:53:38Z</time>
      </trkpt>
      <trkpt lat="45.25154" lon="4.46072">
        <ele>1062</ele>
        <time>2021-04-27T07:53:39Z</time>
      </trkpt>
      <trkpt lat="45.25145" lon="4.46078">
        <ele>1063</ele>
        <time>2021-04-27T07:53:43Z</time>
      </trkpt>
      <trkpt lat="45.25141" lon="4.46081">
        <ele>1063</ele>
        <time>2021-04-27T07:53:45Z</time>
      </trkpt>
      <trkpt lat="45.25139" lon="4.46083">
        <ele>1063</ele>
        <time>2021-04-27T07:53:46Z</time>
      </trkpt>
      <trkpt lat="45.25137" lon="4.46086">
        <ele>1064</ele>
        <time>2021-04-27T07:53:47Z</time>
      </trkpt>
      <trkpt lat="45.25136" lon="4.46088">
        <ele>1064</ele>
        <time>2021-04-27T07:53:48Z</time>
      </trkpt>
      <trkpt lat="45.25133" lon="4.46091">
        <ele>1064</ele>
        <time>2021-04-27T07:53:49Z</time>
      </trkpt>
      <trkpt lat="45.2513" lon="4.46093">
        <ele>1064</ele>
        <time>2021-04-27T07:53:50Z</time>
      </trkpt>
      <trkpt lat="45.25128" lon="4.46095">
        <ele>1064</ele>
        <time>2021-04-27T07:53:51Z</time>
      </trkpt>
      <trkpt lat="45.25127" lon="4.46097">
        <ele>1064</ele>
        <time>2021-04-27T07:53:52Z</time>
      </trkpt>
      <trkpt lat="45.25125" lon="4.46099">
        <ele>1065</ele>
        <time>2021-04-27T07:53:53Z</time>
      </trkpt>
      <trkpt lat="45.25123" lon="4.46101">
        <ele>1065</ele>
        <time>2021-04-27T07:53:54Z</time>
      </trkpt>
      <trkpt lat="45.25121" lon="4.46103">
        <ele>1065</ele>
        <time>2021-04-27T07:53:55Z</time>
      </trkpt>
      <trkpt lat="45.25119" lon="4.46106">
        <ele>1066</ele>
        <time>2021-04-27T07:53:56Z</time>
      </trkpt>
      <trkpt lat="45.25117" lon="4.46108">
        <ele>1066</ele>
        <time>2021-04-27T07:53:57Z</time>
      </trkpt>
      <trkpt lat="45.25115" lon="4.4611">
        <ele>1066</ele>
        <time>2021-04-27T07:53:58Z</time>
      </trkpt>
      <trkpt lat="45.25113" lon="4.46113">
        <ele>1067</ele>
        <time>2021-04-27T07:53:59Z</time>
      </trkpt>
      <trkpt lat="45.25111" lon="4.46115">
        <ele>1067</ele>
        <time>2021-04-27T07:54:00Z</time>
      </trkpt>
      <trkpt lat="45.25109" lon="4.46117">
        <ele>1067</ele>
        <time>2021-04-27T07:54:01Z</time>
      </trkpt>
      <trkpt lat="45.25107" lon="4.46119">
        <ele>1068</ele>
        <time>2021-04-27T07:54:02Z</time>
      </trkpt>
      <trkpt lat="45.25105" lon="4.46121">
        <ele>1068</ele>
        <time>2021-04-27T07:54:03Z</time>
      </trkpt>
      <trkpt lat="45.25103" lon="4.46122">
        <ele>1068</ele>
        <time>2021-04-27T07:54:04Z</time>
      </trkpt>
      <trkpt lat="45.25101" lon="4.46123">
        <ele>1069</ele>
        <time>2021-04-27T07:54:05Z</time>
      </trkpt>
      <trkpt lat="45.25099" lon="4.46125">
        <ele>1069</ele>
        <time>2021-04-27T07:54:06Z</time>
      </trkpt>
      <trkpt lat="45.25096" lon="4.46125">
        <ele>1069</ele>
        <time>2021-04-27T07:54:07Z</time>
      </trkpt>
      <trkpt lat="45.25094" lon="4.46125">
        <ele>1070</ele>
        <time>2021-04-27T07:54:08Z</time>
      </trkpt>
      <trkpt lat="45.25091" lon="4.46125">
        <ele>1070</ele>
        <time>2021-04-27T07:54:09Z</time>
      </trkpt>
      <trkpt lat="45.25089" lon="4.46124">
        <ele>1071</ele>
        <time>2021-04-27T07:54:10Z</time>
      </trkpt>
      <trkpt lat="45.25087" lon="4.46123">
        <ele>1071</ele>
        <time>2021-04-27T07:54:11Z</time>
      </trkpt>
      <trkpt lat="45.25084" lon="4.46123">
        <ele>1072</ele>
        <time>2021-04-27T07:54:12Z</time>
      </trkpt>
      <trkpt lat="45.25082" lon="4.46122">
        <ele>1072</ele>
        <time>2021-04-27T07:54:13Z</time>
      </trkpt>
      <trkpt lat="45.25079" lon="4.46122">
        <ele>1072</ele>
        <time>2021-04-27T07:54:14Z</time>
      </trkpt>
      <trkpt lat="45.25077" lon="4.46122">
        <ele>1073</ele>
        <time>2021-04-27T07:54:15Z</time>
      </trkpt>
      <trkpt lat="45.25075" lon="4.46122">
        <ele>1073</ele>
        <time>2021-04-27T07:54:16Z</time>
      </trkpt>
      <trkpt lat="45.25072" lon="4.46122">
        <ele>1073</ele>
        <time>2021-04-27T07:54:17Z</time>
      </trkpt>
      <trkpt lat="45.2507" lon="4.46122">
        <ele>1073</ele>
        <time>2021-04-27T07:54:18Z</time>
      </trkpt>
      <trkpt lat="45.25068" lon="4.46122">
        <ele>1073</ele>
        <time>2021-04-27T07:54:19Z</time>
      </trkpt>
      <trkpt lat="45.25066" lon="4.46123">
        <ele>1074</ele>
        <time>2021-04-27T07:54:20Z</time>
      </trkpt>
      <trkpt lat="45.25064" lon="4.46124">
        <ele>1074</ele>
        <time>2021-04-27T07:54:21Z</time>
      </trkpt>
      <trkpt lat="45.25062" lon="4.46126">
        <ele>1074</ele>
        <time>2021-04-27T07:54:22Z</time>
      </trkpt>
      <trkpt lat="45.25061" lon="4.46127">
        <ele>1075</ele>
        <time>2021-04-27T07:54:23Z</time>
      </trkpt>
      <trkpt lat="45.25059" lon="4.46128">
        <ele>1075</ele>
        <time>2021-04-27T07:54:24Z</time>
      </trkpt>
      <trkpt lat="45.25057" lon="4.4613">
        <ele>1075</ele>
        <time>2021-04-27T07:54:25Z</time>
      </trkpt>
      <trkpt lat="45.25056" lon="4.46132">
        <ele>1075</ele>
        <time>2021-04-27T07:54:26Z</time>
      </trkpt>
      <trkpt lat="45.25055" lon="4.46134">
        <ele>1076</ele>
        <time>2021-04-27T07:54:27Z</time>
      </trkpt>
      <trkpt lat="45.25053" lon="4.46137">
        <ele>1076</ele>
        <time>2021-04-27T07:54:29Z</time>
      </trkpt>
      <trkpt lat="45.25051" lon="4.46138">
        <ele>1077</ele>
        <time>2021-04-27T07:54:31Z</time>
      </trkpt>
      <trkpt lat="45.25049" lon="4.46139">
        <ele>1077</ele>
        <time>2021-04-27T07:54:33Z</time>
      </trkpt>
      <trkpt lat="45.25047" lon="4.4614">
        <ele>1078</ele>
        <time>2021-04-27T07:54:35Z</time>
      </trkpt>
      <trkpt lat="45.25045" lon="4.46141">
        <ele>1078</ele>
        <time>2021-04-27T07:54:37Z</time>
      </trkpt>
      <trkpt lat="45.25043" lon="4.46144">
        <ele>1079</ele>
        <time>2021-04-27T07:54:43Z</time>
      </trkpt>
      <trkpt lat="45.25043" lon="4.46144">
        <ele>1079</ele>
        <time>2021-04-27T07:54:48Z</time>
      </trkpt>
      <trkpt lat="45.25036" lon="4.46146">
        <ele>1080</ele>
        <time>2021-04-27T07:56:07Z</time>
      </trkpt>
      <trkpt lat="45.25034" lon="4.46147">
        <ele>1081</ele>
        <time>2021-04-27T07:56:08Z</time>
      </trkpt>
      <trkpt lat="45.25032" lon="4.46149">
        <ele>1081</ele>
        <time>2021-04-27T07:56:10Z</time>
      </trkpt>
      <trkpt lat="45.2503" lon="4.4615">
        <ele>1082</ele>
        <time>2021-04-27T07:56:11Z</time>
      </trkpt>
      <trkpt lat="45.25028" lon="4.46152">
        <ele>1082</ele>
        <time>2021-04-27T07:56:12Z</time>
      </trkpt>
      <trkpt lat="45.25026" lon="4.46153">
        <ele>1082</ele>
        <time>2021-04-27T07:56:13Z</time>
      </trkpt>
      <trkpt lat="45.25024" lon="4.46154">
        <ele>1082</ele>
        <time>2021-04-27T07:56:14Z</time>
      </trkpt>
      <trkpt lat="45.25023" lon="4.46155">
        <ele>1082</ele>
        <time>2021-04-27T07:56:15Z</time>
      </trkpt>
      <trkpt lat="45.25021" lon="4.46156">
        <ele>1082</ele>
        <time>2021-04-27T07:56:16Z</time>
      </trkpt>
      <trkpt lat="45.25019" lon="4.46158">
        <ele>1083</ele>
        <time>2021-04-27T07:56:17Z</time>
      </trkpt>
      <trkpt lat="45.25017" lon="4.46159">
        <ele>1083</ele>
        <time>2021-04-27T07:56:18Z</time>
      </trkpt>
      <trkpt lat="45.25016" lon="4.4616">
        <ele>1083</ele>
        <time>2021-04-27T07:56:19Z</time>
      </trkpt>
      <trkpt lat="45.25014" lon="4.46161">
        <ele>1083</ele>
        <time>2021-04-27T07:56:20Z</time>
      </trkpt>
      <trkpt lat="45.25012" lon="4.46163">
        <ele>1084</ele>
        <time>2021-04-27T07:56:21Z</time>
      </trkpt>
      <trkpt lat="45.2501" lon="4.46164">
        <ele>1084</ele>
        <time>2021-04-27T07:56:22Z</time>
      </trkpt>
      <trkpt lat="45.25008" lon="4.46164">
        <ele>1084</ele>
        <time>2021-04-27T07:56:23Z</time>
      </trkpt>
      <trkpt lat="45.25005" lon="4.46165">
        <ele>1084</ele>
        <time>2021-04-27T07:56:24Z</time>
      </trkpt>
      <trkpt lat="45.25002" lon="4.46167">
        <ele>1084</ele>
        <time>2021-04-27T07:56:25Z</time>
      </trkpt>
      <trkpt lat="45.24999" lon="4.46168">
        <ele>1085</ele>
        <time>2021-04-27T07:56:26Z</time>
      </trkpt>
      <trkpt lat="45.24997" lon="4.46169">
        <ele>1085</ele>
        <time>2021-04-27T07:56:27Z</time>
      </trkpt>
      <trkpt lat="45.24994" lon="4.46169">
        <ele>1085</ele>
        <time>2021-04-27T07:56:28Z</time>
      </trkpt>
      <trkpt lat="45.24991" lon="4.46169">
        <ele>1085</ele>
        <time>2021-04-27T07:56:29Z</time>
      </trkpt>
      <trkpt lat="45.24988" lon="4.4617">
        <ele>1085</ele>
        <time>2021-04-27T07:56:30Z</time>
      </trkpt>
      <trkpt lat="45.24984" lon="4.4617">
        <ele>1085</ele>
        <time>2021-04-27T07:56:31Z</time>
      </trkpt>
      <trkpt lat="45.24982" lon="4.46171">
        <ele>1085</ele>
        <time>2021-04-27T07:56:32Z</time>
      </trkpt>
      <trkpt lat="45.24979" lon="4.46171">
        <ele>1085</ele>
        <time>2021-04-27T07:56:33Z</time>
      </trkpt>
      <trkpt lat="45.24977" lon="4.46172">
        <ele>1085</ele>
        <time>2021-04-27T07:56:34Z</time>
      </trkpt>
      <trkpt lat="45.24975" lon="4.46173">
        <ele>1086</ele>
        <time>2021-04-27T07:56:35Z</time>
      </trkpt>
      <trkpt lat="45.24972" lon="4.46174">
        <ele>1086</ele>
        <time>2021-04-27T07:56:36Z</time>
      </trkpt>
      <trkpt lat="45.2497" lon="4.46175">
        <ele>1086</ele>
        <time>2021-04-27T07:56:37Z</time>
      </trkpt>
      <trkpt lat="45.24968" lon="4.46176">
        <ele>1086</ele>
        <time>2021-04-27T07:56:38Z</time>
      </trkpt>
      <trkpt lat="45.24965" lon="4.46176">
        <ele>1087</ele>
        <time>2021-04-27T07:56:39Z</time>
      </trkpt>
      <trkpt lat="45.24962" lon="4.46177">
        <ele>1087</ele>
        <time>2021-04-27T07:56:40Z</time>
      </trkpt>
      <trkpt lat="45.2496" lon="4.46177">
        <ele>1087</ele>
        <time>2021-04-27T07:56:41Z</time>
      </trkpt>
      <trkpt lat="45.24958" lon="4.46176">
        <ele>1088</ele>
        <time>2021-04-27T07:56:42Z</time>
      </trkpt>
      <trkpt lat="45.24955" lon="4.46176">
        <ele>1088</ele>
        <time>2021-04-27T07:56:43Z</time>
      </trkpt>
      <trkpt lat="45.24953" lon="4.46176">
        <ele>1088</ele>
        <time>2021-04-27T07:56:44Z</time>
      </trkpt>
      <trkpt lat="45.24951" lon="4.46176">
        <ele>1089</ele>
        <time>2021-04-27T07:56:45Z</time>
      </trkpt>
      <trkpt lat="45.24948" lon="4.46176">
        <ele>1089</ele>
        <time>2021-04-27T07:56:46Z</time>
      </trkpt>
      <trkpt lat="45.24946" lon="4.46175">
        <ele>1089</ele>
        <time>2021-04-27T07:56:47Z</time>
      </trkpt>
      <trkpt lat="45.24943" lon="4.46175">
        <ele>1089</ele>
        <time>2021-04-27T07:56:48Z</time>
      </trkpt>
      <trkpt lat="45.24941" lon="4.46175">
        <ele>1090</ele>
        <time>2021-04-27T07:56:49Z</time>
      </trkpt>
      <trkpt lat="45.24939" lon="4.46175">
        <ele>1090</ele>
        <time>2021-04-27T07:56:50Z</time>
      </trkpt>
      <trkpt lat="45.24937" lon="4.46175">
        <ele>1090</ele>
        <time>2021-04-27T07:56:51Z</time>
      </trkpt>
      <trkpt lat="45.24933" lon="4.46174">
        <ele>1091</ele>
        <time>2021-04-27T07:56:53Z</time>
      </trkpt>
      <trkpt lat="45.24932" lon="4.46173">
        <ele>1091</ele>
        <time>2021-04-27T07:56:54Z</time>
      </trkpt>
      <trkpt lat="45.24929" lon="4.46173">
        <ele>1091</ele>
        <time>2021-04-27T07:56:55Z</time>
      </trkpt>
      <trkpt lat="45.24918" lon="4.46169">
        <ele>1092</ele>
        <time>2021-04-27T07:56:59Z</time>
      </trkpt>
      <trkpt lat="45.2491" lon="4.46161">
        <ele>1093</ele>
        <time>2021-04-27T07:57:02Z</time>
      </trkpt>
      <trkpt lat="45.24901" lon="4.46153">
        <ele>1094</ele>
        <time>2021-04-27T07:57:05Z</time>
      </trkpt>
      <trkpt lat="45.24891" lon="4.46143">
        <ele>1095</ele>
        <time>2021-04-27T07:57:08Z</time>
      </trkpt>
      <trkpt lat="45.24884" lon="4.46133">
        <ele>1097</ele>
        <time>2021-04-27T07:57:11Z</time>
      </trkpt>
      <trkpt lat="45.24881" lon="4.46129">
        <ele>1097</ele>
        <time>2021-04-27T07:57:12Z</time>
      </trkpt>
      <trkpt lat="45.24879" lon="4.46126">
        <ele>1098</ele>
        <time>2021-04-27T07:57:13Z</time>
      </trkpt>
      <trkpt lat="45.24877" lon="4.46123">
        <ele>1098</ele>
        <time>2021-04-27T07:57:14Z</time>
      </trkpt>
      <trkpt lat="45.24876" lon="4.4612">
        <ele>1099</ele>
        <time>2021-04-27T07:57:15Z</time>
      </trkpt>
      <trkpt lat="45.24874" lon="4.46117">
        <ele>1099</ele>
        <time>2021-04-27T07:57:16Z</time>
      </trkpt>
      <trkpt lat="45.24872" lon="4.46114">
        <ele>1099</ele>
        <time>2021-04-27T07:57:17Z</time>
      </trkpt>
      <trkpt lat="45.2487" lon="4.46112">
        <ele>1100</ele>
        <time>2021-04-27T07:57:18Z</time>
      </trkpt>
      <trkpt lat="45.24869" lon="4.46109">
        <ele>1100</ele>
        <time>2021-04-27T07:57:19Z</time>
      </trkpt>
      <trkpt lat="45.24868" lon="4.46106">
        <ele>1100</ele>
        <time>2021-04-27T07:57:20Z</time>
      </trkpt>
      <trkpt lat="45.24866" lon="4.46103">
        <ele>1100</ele>
        <time>2021-04-27T07:57:21Z</time>
      </trkpt>
      <trkpt lat="45.24866" lon="4.461">
        <ele>1100</ele>
        <time>2021-04-27T07:57:22Z</time>
      </trkpt>
      <trkpt lat="45.24866" lon="4.46097">
        <ele>1100</ele>
        <time>2021-04-27T07:57:23Z</time>
      </trkpt>
      <trkpt lat="45.24865" lon="4.46095">
        <ele>1101</ele>
        <time>2021-04-27T07:57:24Z</time>
      </trkpt>
      <trkpt lat="45.24864" lon="4.46089">
        <ele>1102</ele>
        <time>2021-04-27T07:57:26Z</time>
      </trkpt>
      <trkpt lat="45.24864" lon="4.46086">
        <ele>1103</ele>
        <time>2021-04-27T07:57:27Z</time>
      </trkpt>
      <trkpt lat="45.24863" lon="4.46084">
        <ele>1103</ele>
        <time>2021-04-27T07:57:28Z</time>
      </trkpt>
      <trkpt lat="45.24863" lon="4.46081">
        <ele>1104</ele>
        <time>2021-04-27T07:57:29Z</time>
      </trkpt>
      <trkpt lat="45.24861" lon="4.46078">
        <ele>1105</ele>
        <time>2021-04-27T07:57:30Z</time>
      </trkpt>
      <trkpt lat="45.24861" lon="4.46075">
        <ele>1105</ele>
        <time>2021-04-27T07:57:31Z</time>
      </trkpt>
      <trkpt lat="45.24859" lon="4.46072">
        <ele>1106</ele>
        <time>2021-04-27T07:57:32Z</time>
      </trkpt>
      <trkpt lat="45.24858" lon="4.46068">
        <ele>1106</ele>
        <time>2021-04-27T07:57:33Z</time>
      </trkpt>
      <trkpt lat="45.24857" lon="4.46064">
        <ele>1107</ele>
        <time>2021-04-27T07:57:34Z</time>
      </trkpt>
      <trkpt lat="45.24855" lon="4.46061">
        <ele>1107</ele>
        <time>2021-04-27T07:57:35Z</time>
      </trkpt>
      <trkpt lat="45.24853" lon="4.46058">
        <ele>1107</ele>
        <time>2021-04-27T07:57:36Z</time>
      </trkpt>
      <trkpt lat="45.24851" lon="4.46055">
        <ele>1108</ele>
        <time>2021-04-27T07:57:37Z</time>
      </trkpt>
      <trkpt lat="45.2485" lon="4.46052">
        <ele>1108</ele>
        <time>2021-04-27T07:57:38Z</time>
      </trkpt>
      <trkpt lat="45.24848" lon="4.46049">
        <ele>1108</ele>
        <time>2021-04-27T07:57:39Z</time>
      </trkpt>
      <trkpt lat="45.24847" lon="4.46046">
        <ele>1109</ele>
        <time>2021-04-27T07:57:40Z</time>
      </trkpt>
      <trkpt lat="45.24844" lon="4.46042">
        <ele>1109</ele>
        <time>2021-04-27T07:57:41Z</time>
      </trkpt>
      <trkpt lat="45.24843" lon="4.46039">
        <ele>1109</ele>
        <time>2021-04-27T07:57:42Z</time>
      </trkpt>
      <trkpt lat="45.24842" lon="4.46036">
        <ele>1110</ele>
        <time>2021-04-27T07:57:43Z</time>
      </trkpt>
      <trkpt lat="45.24841" lon="4.46033">
        <ele>1110</ele>
        <time>2021-04-27T07:57:44Z</time>
      </trkpt>
      <trkpt lat="45.24839" lon="4.46031">
        <ele>1110</ele>
        <time>2021-04-27T07:57:45Z</time>
      </trkpt>
      <trkpt lat="45.24838" lon="4.46029">
        <ele>1111</ele>
        <time>2021-04-27T07:57:46Z</time>
      </trkpt>
      <trkpt lat="45.24836" lon="4.46026">
        <ele>1111</ele>
        <time>2021-04-27T07:57:47Z</time>
      </trkpt>
      <trkpt lat="45.24835" lon="4.46025">
        <ele>1111</ele>
        <time>2021-04-27T07:57:48Z</time>
      </trkpt>
      <trkpt lat="45.24833" lon="4.46023">
        <ele>1111</ele>
        <time>2021-04-27T07:57:49Z</time>
      </trkpt>
      <trkpt lat="45.24831" lon="4.4602">
        <ele>1112</ele>
        <time>2021-04-27T07:57:50Z</time>
      </trkpt>
      <trkpt lat="45.24829" lon="4.46018">
        <ele>1112</ele>
        <time>2021-04-27T07:57:51Z</time>
      </trkpt>
      <trkpt lat="45.24827" lon="4.46016">
        <ele>1112</ele>
        <time>2021-04-27T07:57:52Z</time>
      </trkpt>
      <trkpt lat="45.24824" lon="4.46014">
        <ele>1113</ele>
        <time>2021-04-27T07:57:53Z</time>
      </trkpt>
      <trkpt lat="45.24822" lon="4.46012">
        <ele>1112</ele>
        <time>2021-04-27T07:57:54Z</time>
      </trkpt>
      <trkpt lat="45.2482" lon="4.4601">
        <ele>1112</ele>
        <time>2021-04-27T07:57:55Z</time>
      </trkpt>
      <trkpt lat="45.24818" lon="4.46009">
        <ele>1113</ele>
        <time>2021-04-27T07:57:56Z</time>
      </trkpt>
      <trkpt lat="45.24816" lon="4.46007">
        <ele>1113</ele>
        <time>2021-04-27T07:57:57Z</time>
      </trkpt>
      <trkpt lat="45.24814" lon="4.46006">
        <ele>1113</ele>
        <time>2021-04-27T07:57:58Z</time>
      </trkpt>
      <trkpt lat="45.24811" lon="4.46004">
        <ele>1114</ele>
        <time>2021-04-27T07:57:59Z</time>
      </trkpt>
      <trkpt lat="45.2481" lon="4.46002">
        <ele>1114</ele>
        <time>2021-04-27T07:58:00Z</time>
      </trkpt>
      <trkpt lat="45.24807" lon="4.46">
        <ele>1114</ele>
        <time>2021-04-27T07:58:01Z</time>
      </trkpt>
      <trkpt lat="45.24804" lon="4.45999">
        <ele>1114</ele>
        <time>2021-04-27T07:58:02Z</time>
      </trkpt>
      <trkpt lat="45.24801" lon="4.45997">
        <ele>1115</ele>
        <time>2021-04-27T07:58:03Z</time>
      </trkpt>
      <trkpt lat="45.24798" lon="4.45995">
        <ele>1115</ele>
        <time>2021-04-27T07:58:04Z</time>
      </trkpt>
      <trkpt lat="45.24796" lon="4.45993">
        <ele>1115</ele>
        <time>2021-04-27T07:58:05Z</time>
      </trkpt>
      <trkpt lat="45.24794" lon="4.45991">
        <ele>1116</ele>
        <time>2021-04-27T07:58:06Z</time>
      </trkpt>
      <trkpt lat="45.24791" lon="4.4599">
        <ele>1116</ele>
        <time>2021-04-27T07:58:07Z</time>
      </trkpt>
      <trkpt lat="45.2479" lon="4.45989">
        <ele>1117</ele>
        <time>2021-04-27T07:58:08Z</time>
      </trkpt>
      <trkpt lat="45.24788" lon="4.45988">
        <ele>1117</ele>
        <time>2021-04-27T07:58:09Z</time>
      </trkpt>
      <trkpt lat="45.24784" lon="4.45987">
        <ele>1117</ele>
        <time>2021-04-27T07:58:10Z</time>
      </trkpt>
      <trkpt lat="45.24781" lon="4.45986">
        <ele>1117</ele>
        <time>2021-04-27T07:58:11Z</time>
      </trkpt>
      <trkpt lat="45.24778" lon="4.45984">
        <ele>1117</ele>
        <time>2021-04-27T07:58:12Z</time>
      </trkpt>
      <trkpt lat="45.24775" lon="4.45983">
        <ele>1118</ele>
        <time>2021-04-27T07:58:13Z</time>
      </trkpt>
      <trkpt lat="45.24773" lon="4.45981">
        <ele>1118</ele>
        <time>2021-04-27T07:58:14Z</time>
      </trkpt>
      <trkpt lat="45.24771" lon="4.4598">
        <ele>1119</ele>
        <time>2021-04-27T07:58:15Z</time>
      </trkpt>
      <trkpt lat="45.24769" lon="4.45979">
        <ele>1119</ele>
        <time>2021-04-27T07:58:16Z</time>
      </trkpt>
      <trkpt lat="45.24766" lon="4.45977">
        <ele>1119</ele>
        <time>2021-04-27T07:58:17Z</time>
      </trkpt>
      <trkpt lat="45.24763" lon="4.45977">
        <ele>1119</ele>
        <time>2021-04-27T07:58:18Z</time>
      </trkpt>
      <trkpt lat="45.24761" lon="4.45977">
        <ele>1120</ele>
        <time>2021-04-27T07:58:19Z</time>
      </trkpt>
      <trkpt lat="45.24758" lon="4.45976">
        <ele>1120</ele>
        <time>2021-04-27T07:58:20Z</time>
      </trkpt>
      <trkpt lat="45.24756" lon="4.45975">
        <ele>1120</ele>
        <time>2021-04-27T07:58:21Z</time>
      </trkpt>
      <trkpt lat="45.24753" lon="4.45975">
        <ele>1120</ele>
        <time>2021-04-27T07:58:22Z</time>
      </trkpt>
      <trkpt lat="45.2475" lon="4.45974">
        <ele>1120</ele>
        <time>2021-04-27T07:58:23Z</time>
      </trkpt>
      <trkpt lat="45.24747" lon="4.45973">
        <ele>1121</ele>
        <time>2021-04-27T07:58:24Z</time>
      </trkpt>
      <trkpt lat="45.24744" lon="4.45972">
        <ele>1121</ele>
        <time>2021-04-27T07:58:25Z</time>
      </trkpt>
      <trkpt lat="45.24741" lon="4.4597">
        <ele>1121</ele>
        <time>2021-04-27T07:58:26Z</time>
      </trkpt>
      <trkpt lat="45.24739" lon="4.45969">
        <ele>1121</ele>
        <time>2021-04-27T07:58:27Z</time>
      </trkpt>
      <trkpt lat="45.24736" lon="4.45967">
        <ele>1122</ele>
        <time>2021-04-27T07:58:28Z</time>
      </trkpt>
      <trkpt lat="45.24733" lon="4.45966">
        <ele>1123</ele>
        <time>2021-04-27T07:58:29Z</time>
      </trkpt>
      <trkpt lat="45.2473" lon="4.45965">
        <ele>1123</ele>
        <time>2021-04-27T07:58:30Z</time>
      </trkpt>
      <trkpt lat="45.24727" lon="4.45964">
        <ele>1124</ele>
        <time>2021-04-27T07:58:31Z</time>
      </trkpt>
      <trkpt lat="45.24724" lon="4.45963">
        <ele>1124</ele>
        <time>2021-04-27T07:58:32Z</time>
      </trkpt>
      <trkpt lat="45.24721" lon="4.45962">
        <ele>1125</ele>
        <time>2021-04-27T07:58:33Z</time>
      </trkpt>
      <trkpt lat="45.24718" lon="4.45961">
        <ele>1125</ele>
        <time>2021-04-27T07:58:34Z</time>
      </trkpt>
      <trkpt lat="45.24716" lon="4.45959">
        <ele>1125</ele>
        <time>2021-04-27T07:58:35Z</time>
      </trkpt>
      <trkpt lat="45.24714" lon="4.45958">
        <ele>1126</ele>
        <time>2021-04-27T07:58:36Z</time>
      </trkpt>
      <trkpt lat="45.24712" lon="4.45957">
        <ele>1126</ele>
        <time>2021-04-27T07:58:37Z</time>
      </trkpt>
      <trkpt lat="45.24709" lon="4.45956">
        <ele>1126</ele>
        <time>2021-04-27T07:58:38Z</time>
      </trkpt>
      <trkpt lat="45.24705" lon="4.45956">
        <ele>1126</ele>
        <time>2021-04-27T07:58:39Z</time>
      </trkpt>
      <trkpt lat="45.24702" lon="4.45955">
        <ele>1126</ele>
        <time>2021-04-27T07:58:40Z</time>
      </trkpt>
      <trkpt lat="45.24699" lon="4.45955">
        <ele>1126</ele>
        <time>2021-04-27T07:58:41Z</time>
      </trkpt>
      <trkpt lat="45.24696" lon="4.45956">
        <ele>1126</ele>
        <time>2021-04-27T07:58:42Z</time>
      </trkpt>
      <trkpt lat="45.24693" lon="4.45956">
        <ele>1126</ele>
        <time>2021-04-27T07:58:43Z</time>
      </trkpt>
      <trkpt lat="45.2469" lon="4.45956">
        <ele>1126</ele>
        <time>2021-04-27T07:58:44Z</time>
      </trkpt>
      <trkpt lat="45.24687" lon="4.45955">
        <ele>1126</ele>
        <time>2021-04-27T07:58:45Z</time>
      </trkpt>
      <trkpt lat="45.24684" lon="4.45955">
        <ele>1126</ele>
        <time>2021-04-27T07:58:46Z</time>
      </trkpt>
      <trkpt lat="45.24681" lon="4.45955">
        <ele>1126</ele>
        <time>2021-04-27T07:58:47Z</time>
      </trkpt>
      <trkpt lat="45.24678" lon="4.45955">
        <ele>1126</ele>
        <time>2021-04-27T07:58:48Z</time>
      </trkpt>
      <trkpt lat="45.24675" lon="4.45955">
        <ele>1126</ele>
        <time>2021-04-27T07:58:49Z</time>
      </trkpt>
      <trkpt lat="45.24672" lon="4.45955">
        <ele>1127</ele>
        <time>2021-04-27T07:58:50Z</time>
      </trkpt>
      <trkpt lat="45.2467" lon="4.45955">
        <ele>1127</ele>
        <time>2021-04-27T07:58:51Z</time>
      </trkpt>
      <trkpt lat="45.24667" lon="4.45954">
        <ele>1127</ele>
        <time>2021-04-27T07:58:52Z</time>
      </trkpt>
      <trkpt lat="45.24665" lon="4.45954">
        <ele>1127</ele>
        <time>2021-04-27T07:58:53Z</time>
      </trkpt>
      <trkpt lat="45.24663" lon="4.45954">
        <ele>1128</ele>
        <time>2021-04-27T07:58:54Z</time>
      </trkpt>
      <trkpt lat="45.2466" lon="4.45955">
        <ele>1128</ele>
        <time>2021-04-27T07:58:55Z</time>
      </trkpt>
      <trkpt lat="45.24658" lon="4.45955">
        <ele>1128</ele>
        <time>2021-04-27T07:58:56Z</time>
      </trkpt>
      <trkpt lat="45.24656" lon="4.45955">
        <ele>1129</ele>
        <time>2021-04-27T07:58:57Z</time>
      </trkpt>
      <trkpt lat="45.24654" lon="4.45955">
        <ele>1129</ele>
        <time>2021-04-27T07:58:58Z</time>
      </trkpt>
      <trkpt lat="45.24649" lon="4.45956">
        <ele>1129</ele>
        <time>2021-04-27T07:59:00Z</time>
      </trkpt>
      <trkpt lat="45.24646" lon="4.45957">
        <ele>1130</ele>
        <time>2021-04-27T07:59:01Z</time>
      </trkpt>
      <trkpt lat="45.24645" lon="4.45959">
        <ele>1131</ele>
        <time>2021-04-27T07:59:02Z</time>
      </trkpt>
      <trkpt lat="45.24643" lon="4.4596">
        <ele>1131</ele>
        <time>2021-04-27T07:59:03Z</time>
      </trkpt>
      <trkpt lat="45.24641" lon="4.4596">
        <ele>1131</ele>
        <time>2021-04-27T07:59:04Z</time>
      </trkpt>
      <trkpt lat="45.24639" lon="4.45961">
        <ele>1132</ele>
        <time>2021-04-27T07:59:05Z</time>
      </trkpt>
      <trkpt lat="45.24635" lon="4.45963">
        <ele>1133</ele>
        <time>2021-04-27T07:59:07Z</time>
      </trkpt>
      <trkpt lat="45.24633" lon="4.45965">
        <ele>1133</ele>
        <time>2021-04-27T07:59:08Z</time>
      </trkpt>
      <trkpt lat="45.24631" lon="4.45966">
        <ele>1133</ele>
        <time>2021-04-27T07:59:09Z</time>
      </trkpt>
      <trkpt lat="45.24629" lon="4.45968">
        <ele>1134</ele>
        <time>2021-04-27T07:59:10Z</time>
      </trkpt>
      <trkpt lat="45.24627" lon="4.45968">
        <ele>1134</ele>
        <time>2021-04-27T07:59:11Z</time>
      </trkpt>
      <trkpt lat="45.24624" lon="4.4597">
        <ele>1134</ele>
        <time>2021-04-27T07:59:12Z</time>
      </trkpt>
      <trkpt lat="45.2462" lon="4.45971">
        <ele>1134</ele>
        <time>2021-04-27T07:59:13Z</time>
      </trkpt>
      <trkpt lat="45.24616" lon="4.45972">
        <ele>1134</ele>
        <time>2021-04-27T07:59:14Z</time>
      </trkpt>
      <trkpt lat="45.24618" lon="4.45972">
        <ele>1134</ele>
        <time>2021-04-27T07:59:15Z</time>
      </trkpt>
      <trkpt lat="45.24616" lon="4.45973">
        <ele>1134</ele>
        <time>2021-04-27T07:59:16Z</time>
      </trkpt>
      <trkpt lat="45.24605" lon="4.45978">
        <ele>1134</ele>
        <time>2021-04-27T07:59:19Z</time>
      </trkpt>
      <trkpt lat="45.24602" lon="4.45979">
        <ele>1135</ele>
        <time>2021-04-27T07:59:20Z</time>
      </trkpt>
      <trkpt lat="45.24599" lon="4.4598">
        <ele>1135</ele>
        <time>2021-04-27T07:59:21Z</time>
      </trkpt>
      <trkpt lat="45.24592" lon="4.45982">
        <ele>1135</ele>
        <time>2021-04-27T07:59:23Z</time>
      </trkpt>
      <trkpt lat="45.24588" lon="4.45983">
        <ele>1136</ele>
        <time>2021-04-27T07:59:24Z</time>
      </trkpt>
      <trkpt lat="45.24584" lon="4.45985">
        <ele>1136</ele>
        <time>2021-04-27T07:59:25Z</time>
      </trkpt>
      <trkpt lat="45.24581" lon="4.45986">
        <ele>1135</ele>
        <time>2021-04-27T07:59:26Z</time>
      </trkpt>
      <trkpt lat="45.24579" lon="4.45986">
        <ele>1136</ele>
        <time>2021-04-27T07:59:27Z</time>
      </trkpt>
      <trkpt lat="45.24577" lon="4.45987">
        <ele>1136</ele>
        <time>2021-04-27T07:59:28Z</time>
      </trkpt>
      <trkpt lat="45.24574" lon="4.45989">
        <ele>1137</ele>
        <time>2021-04-27T07:59:30Z</time>
      </trkpt>
      <trkpt lat="45.24572" lon="4.4599">
        <ele>1138</ele>
        <time>2021-04-27T07:59:31Z</time>
      </trkpt>
      <trkpt lat="45.2457" lon="4.45991">
        <ele>1138</ele>
        <time>2021-04-27T07:59:32Z</time>
      </trkpt>
      <trkpt lat="45.24568" lon="4.45993">
        <ele>1138</ele>
        <time>2021-04-27T07:59:33Z</time>
      </trkpt>
      <trkpt lat="45.24566" lon="4.45994">
        <ele>1139</ele>
        <time>2021-04-27T07:59:34Z</time>
      </trkpt>
      <trkpt lat="45.24564" lon="4.45996">
        <ele>1139</ele>
        <time>2021-04-27T07:59:35Z</time>
      </trkpt>
      <trkpt lat="45.24562" lon="4.45998">
        <ele>1139</ele>
        <time>2021-04-27T07:59:37Z</time>
      </trkpt>
      <trkpt lat="45.24559" lon="4.46">
        <ele>1139</ele>
        <time>2021-04-27T07:59:39Z</time>
      </trkpt>
      <trkpt lat="45.24557" lon="4.46002">
        <ele>1140</ele>
        <time>2021-04-27T07:59:41Z</time>
      </trkpt>
      <trkpt lat="45.24556" lon="4.46002">
        <ele>1140</ele>
        <time>2021-04-27T07:59:48Z</time>
      </trkpt>
      <trkpt lat="45.24553" lon="4.45994">
        <ele>1138</ele>
        <time>2021-04-27T08:01:27Z</time>
      </trkpt>
      <trkpt lat="45.24548" lon="4.46005">
        <ele>1138</ele>
        <time>2021-04-27T08:01:32Z</time>
      </trkpt>
      <trkpt lat="45.24546" lon="4.46009">
        <ele>1139</ele>
        <time>2021-04-27T08:01:33Z</time>
      </trkpt>
      <trkpt lat="45.24543" lon="4.46012">
        <ele>1139</ele>
        <time>2021-04-27T08:01:34Z</time>
      </trkpt>
      <trkpt lat="45.24541" lon="4.46016">
        <ele>1139</ele>
        <time>2021-04-27T08:01:35Z</time>
      </trkpt>
      <trkpt lat="45.24537" lon="4.46019">
        <ele>1139</ele>
        <time>2021-04-27T08:01:36Z</time>
      </trkpt>
      <trkpt lat="45.24534" lon="4.46023">
        <ele>1139</ele>
        <time>2021-04-27T08:01:37Z</time>
      </trkpt>
      <trkpt lat="45.24525" lon="4.46033">
        <ele>1139</ele>
        <time>2021-04-27T08:01:40Z</time>
      </trkpt>
      <trkpt lat="45.24517" lon="4.4604">
        <ele>1140</ele>
        <time>2021-04-27T08:01:43Z</time>
      </trkpt>
      <trkpt lat="45.24508" lon="4.46048">
        <ele>1141</ele>
        <time>2021-04-27T08:01:47Z</time>
      </trkpt>
      <trkpt lat="45.24506" lon="4.46049">
        <ele>1142</ele>
        <time>2021-04-27T08:01:48Z</time>
      </trkpt>
      <trkpt lat="45.24503" lon="4.4605">
        <ele>1142</ele>
        <time>2021-04-27T08:01:49Z</time>
      </trkpt>
      <trkpt lat="45.24501" lon="4.46051">
        <ele>1143</ele>
        <time>2021-04-27T08:01:50Z</time>
      </trkpt>
      <trkpt lat="45.24498" lon="4.46051">
        <ele>1143</ele>
        <time>2021-04-27T08:01:51Z</time>
      </trkpt>
      <trkpt lat="45.24495" lon="4.46051">
        <ele>1143</ele>
        <time>2021-04-27T08:01:52Z</time>
      </trkpt>
      <trkpt lat="45.24493" lon="4.46051">
        <ele>1144</ele>
        <time>2021-04-27T08:01:53Z</time>
      </trkpt>
      <trkpt lat="45.2449" lon="4.4605">
        <ele>1144</ele>
        <time>2021-04-27T08:01:54Z</time>
      </trkpt>
      <trkpt lat="45.24487" lon="4.46049">
        <ele>1144</ele>
        <time>2021-04-27T08:01:55Z</time>
      </trkpt>
      <trkpt lat="45.24484" lon="4.46048">
        <ele>1144</ele>
        <time>2021-04-27T08:01:56Z</time>
      </trkpt>
      <trkpt lat="45.2448" lon="4.46047">
        <ele>1144</ele>
        <time>2021-04-27T08:01:57Z</time>
      </trkpt>
      <trkpt lat="45.24477" lon="4.46046">
        <ele>1145</ele>
        <time>2021-04-27T08:01:58Z</time>
      </trkpt>
      <trkpt lat="45.24473" lon="4.46044">
        <ele>1145</ele>
        <time>2021-04-27T08:01:59Z</time>
      </trkpt>
      <trkpt lat="45.24462" lon="4.46039">
        <ele>1145</ele>
        <time>2021-04-27T08:02:02Z</time>
      </trkpt>
      <trkpt lat="45.24459" lon="4.46038">
        <ele>1146</ele>
        <time>2021-04-27T08:02:03Z</time>
      </trkpt>
      <trkpt lat="45.24456" lon="4.46036">
        <ele>1146</ele>
        <time>2021-04-27T08:02:04Z</time>
      </trkpt>
      <trkpt lat="45.24444" lon="4.46032">
        <ele>1146</ele>
        <time>2021-04-27T08:02:07Z</time>
      </trkpt>
      <trkpt lat="45.24433" lon="4.46027">
        <ele>1145</ele>
        <time>2021-04-27T08:02:10Z</time>
      </trkpt>
      <trkpt lat="45.24422" lon="4.46021">
        <ele>1145</ele>
        <time>2021-04-27T08:02:13Z</time>
      </trkpt>
      <trkpt lat="45.24412" lon="4.46014">
        <ele>1146</ele>
        <time>2021-04-27T08:02:16Z</time>
      </trkpt>
      <trkpt lat="45.24408" lon="4.46011">
        <ele>1146</ele>
        <time>2021-04-27T08:02:17Z</time>
      </trkpt>
      <trkpt lat="45.24405" lon="4.46009">
        <ele>1146</ele>
        <time>2021-04-27T08:02:18Z</time>
      </trkpt>
      <trkpt lat="45.24394" lon="4.46003">
        <ele>1146</ele>
        <time>2021-04-27T08:02:21Z</time>
      </trkpt>
      <trkpt lat="45.24388" lon="4.45999">
        <ele>1146</ele>
        <time>2021-04-27T08:02:23Z</time>
      </trkpt>
      <trkpt lat="45.24379" lon="4.45993">
        <ele>1147</ele>
        <time>2021-04-27T08:02:26Z</time>
      </trkpt>
      <trkpt lat="45.24376" lon="4.45991">
        <ele>1147</ele>
        <time>2021-04-27T08:02:27Z</time>
      </trkpt>
      <trkpt lat="45.24371" lon="4.45988">
        <ele>1147</ele>
        <time>2021-04-27T08:02:29Z</time>
      </trkpt>
      <trkpt lat="45.24368" lon="4.45987">
        <ele>1148</ele>
        <time>2021-04-27T08:02:30Z</time>
      </trkpt>
      <trkpt lat="45.24359" lon="4.45986">
        <ele>1149</ele>
        <time>2021-04-27T08:02:33Z</time>
      </trkpt>
      <trkpt lat="45.24349" lon="4.45983">
        <ele>1149</ele>
        <time>2021-04-27T08:02:36Z</time>
      </trkpt>
      <trkpt lat="45.24337" lon="4.45982">
        <ele>1149</ele>
        <time>2021-04-27T08:02:39Z</time>
      </trkpt>
      <trkpt lat="45.24327" lon="4.4598">
        <ele>1149</ele>
        <time>2021-04-27T08:02:42Z</time>
      </trkpt>
      <trkpt lat="45.24325" lon="4.4598">
        <ele>1149</ele>
        <time>2021-04-27T08:02:43Z</time>
      </trkpt>
      <trkpt lat="45.24314" lon="4.4598">
        <ele>1149</ele>
        <time>2021-04-27T08:02:51Z</time>
      </trkpt>
      <trkpt lat="45.2431" lon="4.45978">
        <ele>1148</ele>
        <time>2021-04-27T08:02:53Z</time>
      </trkpt>
      <trkpt lat="45.2431" lon="4.45974">
        <ele>1148</ele>
        <time>2021-04-27T08:03:31Z</time>
      </trkpt>
      <trkpt lat="45.2431" lon="4.45974">
        <ele>1148</ele>
        <time>2021-04-27T08:03:37Z</time>
      </trkpt>
      <trkpt lat="45.24304" lon="4.45976">
        <ele>1148</ele>
        <time>2021-04-27T08:04:37Z</time>
      </trkpt>
      <trkpt lat="45.243" lon="4.45978">
        <ele>1148</ele>
        <time>2021-04-27T08:04:39Z</time>
      </trkpt>
      <trkpt lat="45.24297" lon="4.45978">
        <ele>1149</ele>
        <time>2021-04-27T08:04:41Z</time>
      </trkpt>
      <trkpt lat="45.24294" lon="4.45979">
        <ele>1149</ele>
        <time>2021-04-27T08:04:43Z</time>
      </trkpt>
      <trkpt lat="45.24291" lon="4.45979">
        <ele>1150</ele>
        <time>2021-04-27T08:04:45Z</time>
      </trkpt>
      <trkpt lat="45.24287" lon="4.45979">
        <ele>1150</ele>
        <time>2021-04-27T08:04:47Z</time>
      </trkpt>
      <trkpt lat="45.24283" lon="4.45979">
        <ele>1150</ele>
        <time>2021-04-27T08:04:49Z</time>
      </trkpt>
      <trkpt lat="45.24281" lon="4.45979">
        <ele>1150</ele>
        <time>2021-04-27T08:04:50Z</time>
      </trkpt>
      <trkpt lat="45.2427" lon="4.45979">
        <ele>1152</ele>
        <time>2021-04-27T08:04:56Z</time>
      </trkpt>
      <trkpt lat="45.24259" lon="4.45979">
        <ele>1153</ele>
        <time>2021-04-27T08:05:01Z</time>
      </trkpt>
      <trkpt lat="45.24254" lon="4.4598">
        <ele>1154</ele>
        <time>2021-04-27T08:05:03Z</time>
      </trkpt>
      <trkpt lat="45.24251" lon="4.45981">
        <ele>1154</ele>
        <time>2021-04-27T08:05:04Z</time>
      </trkpt>
      <trkpt lat="45.24248" lon="4.45981">
        <ele>1155</ele>
        <time>2021-04-27T08:05:05Z</time>
      </trkpt>
      <trkpt lat="45.24243" lon="4.4598">
        <ele>1156</ele>
        <time>2021-04-27T08:05:07Z</time>
      </trkpt>
      <trkpt lat="45.2424" lon="4.4598">
        <ele>1156</ele>
        <time>2021-04-27T08:05:08Z</time>
      </trkpt>
      <trkpt lat="45.24237" lon="4.45979">
        <ele>1157</ele>
        <time>2021-04-27T08:05:09Z</time>
      </trkpt>
      <trkpt lat="45.24234" lon="4.45978">
        <ele>1157</ele>
        <time>2021-04-27T08:05:10Z</time>
      </trkpt>
      <trkpt lat="45.24232" lon="4.45977">
        <ele>1157</ele>
        <time>2021-04-27T08:05:11Z</time>
      </trkpt>
      <trkpt lat="45.2423" lon="4.45976">
        <ele>1158</ele>
        <time>2021-04-27T08:05:12Z</time>
      </trkpt>
      <trkpt lat="45.24228" lon="4.45975">
        <ele>1158</ele>
        <time>2021-04-27T08:05:13Z</time>
      </trkpt>
      <trkpt lat="45.24225" lon="4.45974">
        <ele>1158</ele>
        <time>2021-04-27T08:05:14Z</time>
      </trkpt>
      <trkpt lat="45.24221" lon="4.45973">
        <ele>1158</ele>
        <time>2021-04-27T08:05:15Z</time>
      </trkpt>
      <trkpt lat="45.24218" lon="4.45974">
        <ele>1159</ele>
        <time>2021-04-27T08:05:16Z</time>
      </trkpt>
      <trkpt lat="45.24215" lon="4.45973">
        <ele>1159</ele>
        <time>2021-04-27T08:05:17Z</time>
      </trkpt>
      <trkpt lat="45.24212" lon="4.45971">
        <ele>1159</ele>
        <time>2021-04-27T08:05:18Z</time>
      </trkpt>
      <trkpt lat="45.24208" lon="4.45969">
        <ele>1159</ele>
        <time>2021-04-27T08:05:19Z</time>
      </trkpt>
      <trkpt lat="45.24205" lon="4.45966">
        <ele>1160</ele>
        <time>2021-04-27T08:05:20Z</time>
      </trkpt>
      <trkpt lat="45.24197" lon="4.45961">
        <ele>1160</ele>
        <time>2021-04-27T08:05:22Z</time>
      </trkpt>
      <trkpt lat="45.24194" lon="4.45958">
        <ele>1160</ele>
        <time>2021-04-27T08:05:23Z</time>
      </trkpt>
      <trkpt lat="45.24191" lon="4.45954">
        <ele>1160</ele>
        <time>2021-04-27T08:05:24Z</time>
      </trkpt>
      <trkpt lat="45.24187" lon="4.4595">
        <ele>1160</ele>
        <time>2021-04-27T08:05:25Z</time>
      </trkpt>
      <trkpt lat="45.24183" lon="4.45947">
        <ele>1160</ele>
        <time>2021-04-27T08:05:26Z</time>
      </trkpt>
      <trkpt lat="45.2418" lon="4.45943">
        <ele>1160</ele>
        <time>2021-04-27T08:05:27Z</time>
      </trkpt>
      <trkpt lat="45.24177" lon="4.4594">
        <ele>1160</ele>
        <time>2021-04-27T08:05:28Z</time>
      </trkpt>
      <trkpt lat="45.24171" lon="4.45934">
        <ele>1161</ele>
        <time>2021-04-27T08:05:30Z</time>
      </trkpt>
      <trkpt lat="45.24168" lon="4.45931">
        <ele>1161</ele>
        <time>2021-04-27T08:05:31Z</time>
      </trkpt>
      <trkpt lat="45.24165" lon="4.45928">
        <ele>1161</ele>
        <time>2021-04-27T08:05:32Z</time>
      </trkpt>
      <trkpt lat="45.24162" lon="4.45926">
        <ele>1162</ele>
        <time>2021-04-27T08:05:33Z</time>
      </trkpt>
      <trkpt lat="45.24158" lon="4.45924">
        <ele>1162</ele>
        <time>2021-04-27T08:05:34Z</time>
      </trkpt>
      <trkpt lat="45.24154" lon="4.45922">
        <ele>1163</ele>
        <time>2021-04-27T08:05:35Z</time>
      </trkpt>
      <trkpt lat="45.2415" lon="4.4592">
        <ele>1163</ele>
        <time>2021-04-27T08:05:36Z</time>
      </trkpt>
      <trkpt lat="45.24147" lon="4.45918">
        <ele>1164</ele>
        <time>2021-04-27T08:05:37Z</time>
      </trkpt>
      <trkpt lat="45.24143" lon="4.45916">
        <ele>1164</ele>
        <time>2021-04-27T08:05:38Z</time>
      </trkpt>
      <trkpt lat="45.2414" lon="4.45914">
        <ele>1164</ele>
        <time>2021-04-27T08:05:39Z</time>
      </trkpt>
      <trkpt lat="45.24137" lon="4.45912">
        <ele>1165</ele>
        <time>2021-04-27T08:05:40Z</time>
      </trkpt>
      <trkpt lat="45.24134" lon="4.4591">
        <ele>1165</ele>
        <time>2021-04-27T08:05:41Z</time>
      </trkpt>
      <trkpt lat="45.2413" lon="4.45908">
        <ele>1166</ele>
        <time>2021-04-27T08:05:42Z</time>
      </trkpt>
      <trkpt lat="45.24128" lon="4.45906">
        <ele>1166</ele>
        <time>2021-04-27T08:05:43Z</time>
      </trkpt>
      <trkpt lat="45.24125" lon="4.45904">
        <ele>1166</ele>
        <time>2021-04-27T08:05:44Z</time>
      </trkpt>
      <trkpt lat="45.24122" lon="4.45902">
        <ele>1167</ele>
        <time>2021-04-27T08:05:45Z</time>
      </trkpt>
      <trkpt lat="45.2412" lon="4.45899">
        <ele>1167</ele>
        <time>2021-04-27T08:05:46Z</time>
      </trkpt>
      <trkpt lat="45.24116" lon="4.45896">
        <ele>1168</ele>
        <time>2021-04-27T08:05:47Z</time>
      </trkpt>
      <trkpt lat="45.24113" lon="4.45894">
        <ele>1168</ele>
        <time>2021-04-27T08:05:48Z</time>
      </trkpt>
      <trkpt lat="45.24109" lon="4.45892">
        <ele>1168</ele>
        <time>2021-04-27T08:05:49Z</time>
      </trkpt>
      <trkpt lat="45.24106" lon="4.45889">
        <ele>1168</ele>
        <time>2021-04-27T08:05:50Z</time>
      </trkpt>
      <trkpt lat="45.24103" lon="4.45888">
        <ele>1169</ele>
        <time>2021-04-27T08:05:51Z</time>
      </trkpt>
      <trkpt lat="45.241" lon="4.45885">
        <ele>1169</ele>
        <time>2021-04-27T08:05:52Z</time>
      </trkpt>
      <trkpt lat="45.24097" lon="4.45883">
        <ele>1169</ele>
        <time>2021-04-27T08:05:53Z</time>
      </trkpt>
      <trkpt lat="45.24092" lon="4.45877">
        <ele>1170</ele>
        <time>2021-04-27T08:05:55Z</time>
      </trkpt>
      <trkpt lat="45.2409" lon="4.45874">
        <ele>1171</ele>
        <time>2021-04-27T08:05:56Z</time>
      </trkpt>
      <trkpt lat="45.24088" lon="4.45872">
        <ele>1171</ele>
        <time>2021-04-27T08:05:57Z</time>
      </trkpt>
      <trkpt lat="45.24081" lon="4.4586">
        <ele>1172</ele>
        <time>2021-04-27T08:06:00Z</time>
      </trkpt>
      <trkpt lat="45.24077" lon="4.4585">
        <ele>1172</ele>
        <time>2021-04-27T08:06:03Z</time>
      </trkpt>
      <trkpt lat="45.24076" lon="4.45847">
        <ele>1172</ele>
        <time>2021-04-27T08:06:04Z</time>
      </trkpt>
      <trkpt lat="45.24076" lon="4.45844">
        <ele>1172</ele>
        <time>2021-04-27T08:06:05Z</time>
      </trkpt>
      <trkpt lat="45.24074" lon="4.45842">
        <ele>1172</ele>
        <time>2021-04-27T08:06:06Z</time>
      </trkpt>
      <trkpt lat="45.24073" lon="4.4584">
        <ele>1171</ele>
        <time>2021-04-27T08:06:07Z</time>
      </trkpt>
      <trkpt lat="45.24071" lon="4.45839">
        <ele>1171</ele>
        <time>2021-04-27T08:06:08Z</time>
      </trkpt>
      <trkpt lat="45.24069" lon="4.45837">
        <ele>1170</ele>
        <time>2021-04-27T08:06:09Z</time>
      </trkpt>
      <trkpt lat="45.24067" lon="4.45836">
        <ele>1170</ele>
        <time>2021-04-27T08:06:10Z</time>
      </trkpt>
      <trkpt lat="45.24065" lon="4.45835">
        <ele>1170</ele>
        <time>2021-04-27T08:06:11Z</time>
      </trkpt>
      <trkpt lat="45.24062" lon="4.45834">
        <ele>1169</ele>
        <time>2021-04-27T08:06:12Z</time>
      </trkpt>
      <trkpt lat="45.24059" lon="4.45833">
        <ele>1169</ele>
        <time>2021-04-27T08:06:13Z</time>
      </trkpt>
      <trkpt lat="45.24057" lon="4.45831">
        <ele>1169</ele>
        <time>2021-04-27T08:06:14Z</time>
      </trkpt>
      <trkpt lat="45.24054" lon="4.4583">
        <ele>1170</ele>
        <time>2021-04-27T08:06:15Z</time>
      </trkpt>
      <trkpt lat="45.24051" lon="4.45828">
        <ele>1170</ele>
        <time>2021-04-27T08:06:16Z</time>
      </trkpt>
      <trkpt lat="45.24048" lon="4.45827">
        <ele>1170</ele>
        <time>2021-04-27T08:06:17Z</time>
      </trkpt>
      <trkpt lat="45.24046" lon="4.45825">
        <ele>1171</ele>
        <time>2021-04-27T08:06:18Z</time>
      </trkpt>
      <trkpt lat="45.24044" lon="4.45824">
        <ele>1171</ele>
        <time>2021-04-27T08:06:19Z</time>
      </trkpt>
      <trkpt lat="45.24042" lon="4.45823">
        <ele>1171</ele>
        <time>2021-04-27T08:06:20Z</time>
      </trkpt>
      <trkpt lat="45.24039" lon="4.45822">
        <ele>1171</ele>
        <time>2021-04-27T08:06:21Z</time>
      </trkpt>
      <trkpt lat="45.24037" lon="4.45821">
        <ele>1172</ele>
        <time>2021-04-27T08:06:22Z</time>
      </trkpt>
      <trkpt lat="45.24035" lon="4.45819">
        <ele>1172</ele>
        <time>2021-04-27T08:06:23Z</time>
      </trkpt>
      <trkpt lat="45.24033" lon="4.45818">
        <ele>1173</ele>
        <time>2021-04-27T08:06:24Z</time>
      </trkpt>
      <trkpt lat="45.24031" lon="4.45817">
        <ele>1173</ele>
        <time>2021-04-27T08:06:25Z</time>
      </trkpt>
      <trkpt lat="45.24029" lon="4.45815">
        <ele>1174</ele>
        <time>2021-04-27T08:06:26Z</time>
      </trkpt>
      <trkpt lat="45.24027" lon="4.45814">
        <ele>1174</ele>
        <time>2021-04-27T08:06:27Z</time>
      </trkpt>
      <trkpt lat="45.24024" lon="4.45812">
        <ele>1175</ele>
        <time>2021-04-27T08:06:28Z</time>
      </trkpt>
      <trkpt lat="45.24021" lon="4.45811">
        <ele>1175</ele>
        <time>2021-04-27T08:06:29Z</time>
      </trkpt>
      <trkpt lat="45.24019" lon="4.4581">
        <ele>1176</ele>
        <time>2021-04-27T08:06:30Z</time>
      </trkpt>
      <trkpt lat="45.24016" lon="4.45809">
        <ele>1176</ele>
        <time>2021-04-27T08:06:31Z</time>
      </trkpt>
      <trkpt lat="45.24013" lon="4.45807">
        <ele>1176</ele>
        <time>2021-04-27T08:06:32Z</time>
      </trkpt>
      <trkpt lat="45.24011" lon="4.45805">
        <ele>1176</ele>
        <time>2021-04-27T08:06:33Z</time>
      </trkpt>
      <trkpt lat="45.24008" lon="4.45804">
        <ele>1177</ele>
        <time>2021-04-27T08:06:34Z</time>
      </trkpt>
      <trkpt lat="45.24005" lon="4.45802">
        <ele>1177</ele>
        <time>2021-04-27T08:06:35Z</time>
      </trkpt>
      <trkpt lat="45.24003" lon="4.458">
        <ele>1177</ele>
        <time>2021-04-27T08:06:36Z</time>
      </trkpt>
      <trkpt lat="45.24" lon="4.45799">
        <ele>1178</ele>
        <time>2021-04-27T08:06:37Z</time>
      </trkpt>
      <trkpt lat="45.23998" lon="4.45797">
        <ele>1178</ele>
        <time>2021-04-27T08:06:38Z</time>
      </trkpt>
      <trkpt lat="45.23995" lon="4.45796">
        <ele>1178</ele>
        <time>2021-04-27T08:06:39Z</time>
      </trkpt>
      <trkpt lat="45.23993" lon="4.45794">
        <ele>1178</ele>
        <time>2021-04-27T08:06:40Z</time>
      </trkpt>
      <trkpt lat="45.23991" lon="4.45792">
        <ele>1179</ele>
        <time>2021-04-27T08:06:41Z</time>
      </trkpt>
      <trkpt lat="45.23989" lon="4.4579">
        <ele>1179</ele>
        <time>2021-04-27T08:06:42Z</time>
      </trkpt>
      <trkpt lat="45.23987" lon="4.45789">
        <ele>1180</ele>
        <time>2021-04-27T08:06:43Z</time>
      </trkpt>
      <trkpt lat="45.23985" lon="4.45787">
        <ele>1180</ele>
        <time>2021-04-27T08:06:44Z</time>
      </trkpt>
      <trkpt lat="45.23983" lon="4.45785">
        <ele>1180</ele>
        <time>2021-04-27T08:06:45Z</time>
      </trkpt>
      <trkpt lat="45.23981" lon="4.45782">
        <ele>1181</ele>
        <time>2021-04-27T08:06:46Z</time>
      </trkpt>
      <trkpt lat="45.23978" lon="4.45779">
        <ele>1181</ele>
        <time>2021-04-27T08:06:47Z</time>
      </trkpt>
      <trkpt lat="45.23976" lon="4.45777">
        <ele>1181</ele>
        <time>2021-04-27T08:06:48Z</time>
      </trkpt>
      <trkpt lat="45.23973" lon="4.45775">
        <ele>1182</ele>
        <time>2021-04-27T08:06:49Z</time>
      </trkpt>
      <trkpt lat="45.23971" lon="4.45773">
        <ele>1182</ele>
        <time>2021-04-27T08:06:50Z</time>
      </trkpt>
      <trkpt lat="45.23969" lon="4.45771">
        <ele>1183</ele>
        <time>2021-04-27T08:06:51Z</time>
      </trkpt>
      <trkpt lat="45.23966" lon="4.45768">
        <ele>1183</ele>
        <time>2021-04-27T08:06:52Z</time>
      </trkpt>
      <trkpt lat="45.23964" lon="4.45766">
        <ele>1183</ele>
        <time>2021-04-27T08:06:53Z</time>
      </trkpt>
      <trkpt lat="45.23962" lon="4.45764">
        <ele>1184</ele>
        <time>2021-04-27T08:06:54Z</time>
      </trkpt>
      <trkpt lat="45.23961" lon="4.45761">
        <ele>1184</ele>
        <time>2021-04-27T08:06:55Z</time>
      </trkpt>
      <trkpt lat="45.2396" lon="4.45759">
        <ele>1184</ele>
        <time>2021-04-27T08:06:56Z</time>
      </trkpt>
      <trkpt lat="45.23958" lon="4.45756">
        <ele>1185</ele>
        <time>2021-04-27T08:06:57Z</time>
      </trkpt>
      <trkpt lat="45.23957" lon="4.45753">
        <ele>1185</ele>
        <time>2021-04-27T08:06:58Z</time>
      </trkpt>
      <trkpt lat="45.23955" lon="4.45751">
        <ele>1185</ele>
        <time>2021-04-27T08:06:59Z</time>
      </trkpt>
      <trkpt lat="45.23952" lon="4.45749">
        <ele>1186</ele>
        <time>2021-04-27T08:07:00Z</time>
      </trkpt>
      <trkpt lat="45.2395" lon="4.45746">
        <ele>1186</ele>
        <time>2021-04-27T08:07:01Z</time>
      </trkpt>
      <trkpt lat="45.23948" lon="4.45744">
        <ele>1186</ele>
        <time>2021-04-27T08:07:02Z</time>
      </trkpt>
      <trkpt lat="45.23946" lon="4.45742">
        <ele>1186</ele>
        <time>2021-04-27T08:07:03Z</time>
      </trkpt>
      <trkpt lat="45.23945" lon="4.4574">
        <ele>1187</ele>
        <time>2021-04-27T08:07:04Z</time>
      </trkpt>
      <trkpt lat="45.23943" lon="4.45738">
        <ele>1187</ele>
        <time>2021-04-27T08:07:05Z</time>
      </trkpt>
      <trkpt lat="45.23941" lon="4.45735">
        <ele>1187</ele>
        <time>2021-04-27T08:07:06Z</time>
      </trkpt>
      <trkpt lat="45.23939" lon="4.45734">
        <ele>1187</ele>
        <time>2021-04-27T08:07:07Z</time>
      </trkpt>
      <trkpt lat="45.23931" lon="4.45725">
        <ele>1188</ele>
        <time>2021-04-27T08:07:11Z</time>
      </trkpt>
      <trkpt lat="45.23928" lon="4.45722">
        <ele>1188</ele>
        <time>2021-04-27T08:07:13Z</time>
      </trkpt>
      <trkpt lat="45.23926" lon="4.4572">
        <ele>1189</ele>
        <time>2021-04-27T08:07:14Z</time>
      </trkpt>
      <trkpt lat="45.23917" lon="4.4571">
        <ele>1190</ele>
        <time>2021-04-27T08:07:18Z</time>
      </trkpt>
      <trkpt lat="45.23907" lon="4.45699">
        <ele>1193</ele>
        <time>2021-04-27T08:07:22Z</time>
      </trkpt>
      <trkpt lat="45.23899" lon="4.45691">
        <ele>1194</ele>
        <time>2021-04-27T08:07:26Z</time>
      </trkpt>
      <trkpt lat="45.23892" lon="4.45686">
        <ele>1195</ele>
        <time>2021-04-27T08:07:29Z</time>
      </trkpt>
      <trkpt lat="45.2389" lon="4.45685">
        <ele>1196</ele>
        <time>2021-04-27T08:07:30Z</time>
      </trkpt>
      <trkpt lat="45.23888" lon="4.45684">
        <ele>1196</ele>
        <time>2021-04-27T08:07:31Z</time>
      </trkpt>
      <trkpt lat="45.23879" lon="4.45677">
        <ele>1198</ele>
        <time>2021-04-27T08:07:35Z</time>
      </trkpt>
      <trkpt lat="45.23876" lon="4.45675">
        <ele>1199</ele>
        <time>2021-04-27T08:07:36Z</time>
      </trkpt>
      <trkpt lat="45.23874" lon="4.45674">
        <ele>1199</ele>
        <time>2021-04-27T08:07:37Z</time>
      </trkpt>
      <trkpt lat="45.23864" lon="4.4567">
        <ele>1201</ele>
        <time>2021-04-27T08:07:41Z</time>
      </trkpt>
      <trkpt lat="45.2386" lon="4.45668">
        <ele>1201</ele>
        <time>2021-04-27T08:07:42Z</time>
      </trkpt>
      <trkpt lat="45.23858" lon="4.45667">
        <ele>1202</ele>
        <time>2021-04-27T08:07:43Z</time>
      </trkpt>
      <trkpt lat="45.2385" lon="4.45661">
        <ele>1203</ele>
        <time>2021-04-27T08:07:46Z</time>
      </trkpt>
      <trkpt lat="45.23844" lon="4.45657">
        <ele>1203</ele>
        <time>2021-04-27T08:07:49Z</time>
      </trkpt>
      <trkpt lat="45.23842" lon="4.45654">
        <ele>1204</ele>
        <time>2021-04-27T08:07:50Z</time>
      </trkpt>
      <trkpt lat="45.23835" lon="4.45647">
        <ele>1205</ele>
        <time>2021-04-27T08:07:53Z</time>
      </trkpt>
      <trkpt lat="45.23827" lon="4.45636">
        <ele>1206</ele>
        <time>2021-04-27T08:07:57Z</time>
      </trkpt>
      <trkpt lat="45.23826" lon="4.45635">
        <ele>1207</ele>
        <time>2021-04-27T08:07:58Z</time>
      </trkpt>
      <trkpt lat="45.23823" lon="4.45632">
        <ele>1207</ele>
        <time>2021-04-27T08:07:59Z</time>
      </trkpt>
      <trkpt lat="45.23821" lon="4.45631">
        <ele>1207</ele>
        <time>2021-04-27T08:08:00Z</time>
      </trkpt>
      <trkpt lat="45.23819" lon="4.45628">
        <ele>1208</ele>
        <time>2021-04-27T08:08:01Z</time>
      </trkpt>
      <trkpt lat="45.23817" lon="4.45626">
        <ele>1208</ele>
        <time>2021-04-27T08:08:02Z</time>
      </trkpt>
      <trkpt lat="45.23814" lon="4.45623">
        <ele>1208</ele>
        <time>2021-04-27T08:08:03Z</time>
      </trkpt>
      <trkpt lat="45.23812" lon="4.4562">
        <ele>1209</ele>
        <time>2021-04-27T08:08:04Z</time>
      </trkpt>
      <trkpt lat="45.2381" lon="4.45616">
        <ele>1209</ele>
        <time>2021-04-27T08:08:05Z</time>
      </trkpt>
      <trkpt lat="45.23807" lon="4.45613">
        <ele>1209</ele>
        <time>2021-04-27T08:08:06Z</time>
      </trkpt>
      <trkpt lat="45.23805" lon="4.4561">
        <ele>1209</ele>
        <time>2021-04-27T08:08:07Z</time>
      </trkpt>
      <trkpt lat="45.23803" lon="4.45607">
        <ele>1210</ele>
        <time>2021-04-27T08:08:08Z</time>
      </trkpt>
      <trkpt lat="45.23801" lon="4.45604">
        <ele>1210</ele>
        <time>2021-04-27T08:08:09Z</time>
      </trkpt>
      <trkpt lat="45.23799" lon="4.45602">
        <ele>1210</ele>
        <time>2021-04-27T08:08:10Z</time>
      </trkpt>
      <trkpt lat="45.23797" lon="4.45599">
        <ele>1211</ele>
        <time>2021-04-27T08:08:11Z</time>
      </trkpt>
      <trkpt lat="45.23794" lon="4.45595">
        <ele>1211</ele>
        <time>2021-04-27T08:08:12Z</time>
      </trkpt>
      <trkpt lat="45.23792" lon="4.45593">
        <ele>1211</ele>
        <time>2021-04-27T08:08:13Z</time>
      </trkpt>
      <trkpt lat="45.23791" lon="4.4559">
        <ele>1211</ele>
        <time>2021-04-27T08:08:14Z</time>
      </trkpt>
      <trkpt lat="45.23789" lon="4.45587">
        <ele>1212</ele>
        <time>2021-04-27T08:08:15Z</time>
      </trkpt>
      <trkpt lat="45.23787" lon="4.45583">
        <ele>1212</ele>
        <time>2021-04-27T08:08:16Z</time>
      </trkpt>
      <trkpt lat="45.23786" lon="4.45581">
        <ele>1212</ele>
        <time>2021-04-27T08:08:17Z</time>
      </trkpt>
      <trkpt lat="45.23783" lon="4.45577">
        <ele>1213</ele>
        <time>2021-04-27T08:08:18Z</time>
      </trkpt>
      <trkpt lat="45.23782" lon="4.45574">
        <ele>1213</ele>
        <time>2021-04-27T08:08:19Z</time>
      </trkpt>
      <trkpt lat="45.23781" lon="4.45571">
        <ele>1213</ele>
        <time>2021-04-27T08:08:20Z</time>
      </trkpt>
      <trkpt lat="45.23779" lon="4.45568">
        <ele>1213</ele>
        <time>2021-04-27T08:08:21Z</time>
      </trkpt>
      <trkpt lat="45.23777" lon="4.45566">
        <ele>1214</ele>
        <time>2021-04-27T08:08:22Z</time>
      </trkpt>
      <trkpt lat="45.23775" lon="4.45563">
        <ele>1214</ele>
        <time>2021-04-27T08:08:23Z</time>
      </trkpt>
      <trkpt lat="45.23773" lon="4.45559">
        <ele>1214</ele>
        <time>2021-04-27T08:08:24Z</time>
      </trkpt>
      <trkpt lat="45.23772" lon="4.45556">
        <ele>1214</ele>
        <time>2021-04-27T08:08:25Z</time>
      </trkpt>
      <trkpt lat="45.2377" lon="4.45553">
        <ele>1214</ele>
        <time>2021-04-27T08:08:26Z</time>
      </trkpt>
      <trkpt lat="45.23767" lon="4.4555">
        <ele>1214</ele>
        <time>2021-04-27T08:08:27Z</time>
      </trkpt>
      <trkpt lat="45.23765" lon="4.45547">
        <ele>1213</ele>
        <time>2021-04-27T08:08:28Z</time>
      </trkpt>
      <trkpt lat="45.23763" lon="4.45545">
        <ele>1213</ele>
        <time>2021-04-27T08:08:29Z</time>
      </trkpt>
      <trkpt lat="45.23761" lon="4.45542">
        <ele>1213</ele>
        <time>2021-04-27T08:08:30Z</time>
      </trkpt>
      <trkpt lat="45.23759" lon="4.45539">
        <ele>1214</ele>
        <time>2021-04-27T08:08:31Z</time>
      </trkpt>
      <trkpt lat="45.23758" lon="4.45536">
        <ele>1214</ele>
        <time>2021-04-27T08:08:32Z</time>
      </trkpt>
      <trkpt lat="45.23756" lon="4.45533">
        <ele>1213</ele>
        <time>2021-04-27T08:08:33Z</time>
      </trkpt>
      <trkpt lat="45.23754" lon="4.4553">
        <ele>1213</ele>
        <time>2021-04-27T08:08:34Z</time>
      </trkpt>
      <trkpt lat="45.23751" lon="4.45528">
        <ele>1213</ele>
        <time>2021-04-27T08:08:35Z</time>
      </trkpt>
      <trkpt lat="45.23748" lon="4.45524">
        <ele>1213</ele>
        <time>2021-04-27T08:08:36Z</time>
      </trkpt>
      <trkpt lat="45.23746" lon="4.45522">
        <ele>1213</ele>
        <time>2021-04-27T08:08:37Z</time>
      </trkpt>
      <trkpt lat="45.23743" lon="4.4552">
        <ele>1213</ele>
        <time>2021-04-27T08:08:38Z</time>
      </trkpt>
      <trkpt lat="45.23741" lon="4.45518">
        <ele>1213</ele>
        <time>2021-04-27T08:08:39Z</time>
      </trkpt>
      <trkpt lat="45.23738" lon="4.45516">
        <ele>1213</ele>
        <time>2021-04-27T08:08:40Z</time>
      </trkpt>
      <trkpt lat="45.23735" lon="4.45514">
        <ele>1214</ele>
        <time>2021-04-27T08:08:41Z</time>
      </trkpt>
      <trkpt lat="45.23731" lon="4.45511">
        <ele>1214</ele>
        <time>2021-04-27T08:08:42Z</time>
      </trkpt>
      <trkpt lat="45.23722" lon="4.45505">
        <ele>1214</ele>
        <time>2021-04-27T08:08:44Z</time>
      </trkpt>
      <trkpt lat="45.23717" lon="4.45501">
        <ele>1214</ele>
        <time>2021-04-27T08:08:45Z</time>
      </trkpt>
      <trkpt lat="45.23713" lon="4.45498">
        <ele>1213</ele>
        <time>2021-04-27T08:08:46Z</time>
      </trkpt>
      <trkpt lat="45.23707" lon="4.45497">
        <ele>1213</ele>
        <time>2021-04-27T08:08:47Z</time>
      </trkpt>
      <trkpt lat="45.23702" lon="4.45495">
        <ele>1212</ele>
        <time>2021-04-27T08:08:48Z</time>
      </trkpt>
      <trkpt lat="45.23698" lon="4.45493">
        <ele>1211</ele>
        <time>2021-04-27T08:08:49Z</time>
      </trkpt>
      <trkpt lat="45.23695" lon="4.4549">
        <ele>1211</ele>
        <time>2021-04-27T08:08:50Z</time>
      </trkpt>
      <trkpt lat="45.23692" lon="4.45485">
        <ele>1211</ele>
        <time>2021-04-27T08:08:51Z</time>
      </trkpt>
      <trkpt lat="45.2369" lon="4.45482">
        <ele>1211</ele>
        <time>2021-04-27T08:08:52Z</time>
      </trkpt>
      <trkpt lat="45.23687" lon="4.4548">
        <ele>1211</ele>
        <time>2021-04-27T08:08:53Z</time>
      </trkpt>
      <trkpt lat="45.23685" lon="4.45478">
        <ele>1211</ele>
        <time>2021-04-27T08:08:54Z</time>
      </trkpt>
      <trkpt lat="45.23682" lon="4.45476">
        <ele>1211</ele>
        <time>2021-04-27T08:08:55Z</time>
      </trkpt>
      <trkpt lat="45.2368" lon="4.45474">
        <ele>1211</ele>
        <time>2021-04-27T08:08:56Z</time>
      </trkpt>
      <trkpt lat="45.23678" lon="4.45471">
        <ele>1211</ele>
        <time>2021-04-27T08:08:57Z</time>
      </trkpt>
      <trkpt lat="45.23676" lon="4.45469">
        <ele>1211</ele>
        <time>2021-04-27T08:08:58Z</time>
      </trkpt>
      <trkpt lat="45.23674" lon="4.45466">
        <ele>1211</ele>
        <time>2021-04-27T08:08:59Z</time>
      </trkpt>
      <trkpt lat="45.23672" lon="4.45463">
        <ele>1212</ele>
        <time>2021-04-27T08:09:00Z</time>
      </trkpt>
      <trkpt lat="45.2367" lon="4.4546">
        <ele>1212</ele>
        <time>2021-04-27T08:09:01Z</time>
      </trkpt>
      <trkpt lat="45.23669" lon="4.45458">
        <ele>1212</ele>
        <time>2021-04-27T08:09:02Z</time>
      </trkpt>
      <trkpt lat="45.23667" lon="4.45455">
        <ele>1212</ele>
        <time>2021-04-27T08:09:03Z</time>
      </trkpt>
      <trkpt lat="45.23666" lon="4.45453">
        <ele>1212</ele>
        <time>2021-04-27T08:09:04Z</time>
      </trkpt>
      <trkpt lat="45.23664" lon="4.4545">
        <ele>1212</ele>
        <time>2021-04-27T08:09:05Z</time>
      </trkpt>
      <trkpt lat="45.23663" lon="4.45448">
        <ele>1213</ele>
        <time>2021-04-27T08:09:06Z</time>
      </trkpt>
      <trkpt lat="45.23661" lon="4.45445">
        <ele>1213</ele>
        <time>2021-04-27T08:09:07Z</time>
      </trkpt>
      <trkpt lat="45.23659" lon="4.45442">
        <ele>1213</ele>
        <time>2021-04-27T08:09:08Z</time>
      </trkpt>
      <trkpt lat="45.23658" lon="4.45439">
        <ele>1213</ele>
        <time>2021-04-27T08:09:09Z</time>
      </trkpt>
      <trkpt lat="45.23656" lon="4.45437">
        <ele>1213</ele>
        <time>2021-04-27T08:09:10Z</time>
      </trkpt>
      <trkpt lat="45.23654" lon="4.45435">
        <ele>1213</ele>
        <time>2021-04-27T08:09:11Z</time>
      </trkpt>
      <trkpt lat="45.23653" lon="4.45433">
        <ele>1213</ele>
        <time>2021-04-27T08:09:12Z</time>
      </trkpt>
      <trkpt lat="45.23651" lon="4.4543">
        <ele>1213</ele>
        <time>2021-04-27T08:09:14Z</time>
      </trkpt>
      <trkpt lat="45.2365" lon="4.45427">
        <ele>1214</ele>
        <time>2021-04-27T08:09:17Z</time>
      </trkpt>
      <trkpt lat="45.2365" lon="4.45428">
        <ele>1214</ele>
        <time>2021-04-27T08:09:22Z</time>
      </trkpt>
      <trkpt lat="45.23645" lon="4.45422">
        <ele>1214</ele>
        <time>2021-04-27T08:10:25Z</time>
      </trkpt>
      <trkpt lat="45.23641" lon="4.45417">
        <ele>1214</ele>
        <time>2021-04-27T08:10:27Z</time>
      </trkpt>
      <trkpt lat="45.2364" lon="4.45415">
        <ele>1215</ele>
        <time>2021-04-27T08:10:28Z</time>
      </trkpt>
      <trkpt lat="45.23638" lon="4.45413">
        <ele>1215</ele>
        <time>2021-04-27T08:10:29Z</time>
      </trkpt>
      <trkpt lat="45.23636" lon="4.45411">
        <ele>1215</ele>
        <time>2021-04-27T08:10:30Z</time>
      </trkpt>
      <trkpt lat="45.23634" lon="4.4541">
        <ele>1215</ele>
        <time>2021-04-27T08:10:31Z</time>
      </trkpt>
      <trkpt lat="45.23632" lon="4.45408">
        <ele>1216</ele>
        <time>2021-04-27T08:10:32Z</time>
      </trkpt>
      <trkpt lat="45.2363" lon="4.45406">
        <ele>1216</ele>
        <time>2021-04-27T08:10:33Z</time>
      </trkpt>
      <trkpt lat="45.23627" lon="4.45404">
        <ele>1216</ele>
        <time>2021-04-27T08:10:34Z</time>
      </trkpt>
      <trkpt lat="45.23624" lon="4.45403">
        <ele>1216</ele>
        <time>2021-04-27T08:10:35Z</time>
      </trkpt>
      <trkpt lat="45.23621" lon="4.45402">
        <ele>1216</ele>
        <time>2021-04-27T08:10:36Z</time>
      </trkpt>
      <trkpt lat="45.23619" lon="4.45401">
        <ele>1216</ele>
        <time>2021-04-27T08:10:37Z</time>
      </trkpt>
      <trkpt lat="45.23615" lon="4.454">
        <ele>1216</ele>
        <time>2021-04-27T08:10:38Z</time>
      </trkpt>
      <trkpt lat="45.23612" lon="4.45399">
        <ele>1216</ele>
        <time>2021-04-27T08:10:39Z</time>
      </trkpt>
      <trkpt lat="45.23609" lon="4.45398">
        <ele>1216</ele>
        <time>2021-04-27T08:10:40Z</time>
      </trkpt>
      <trkpt lat="45.23606" lon="4.45397">
        <ele>1215</ele>
        <time>2021-04-27T08:10:41Z</time>
      </trkpt>
      <trkpt lat="45.23604" lon="4.45396">
        <ele>1216</ele>
        <time>2021-04-27T08:10:42Z</time>
      </trkpt>
      <trkpt lat="45.236" lon="4.45395">
        <ele>1216</ele>
        <time>2021-04-27T08:10:43Z</time>
      </trkpt>
      <trkpt lat="45.23597" lon="4.45394">
        <ele>1216</ele>
        <time>2021-04-27T08:10:44Z</time>
      </trkpt>
      <trkpt lat="45.23594" lon="4.45393">
        <ele>1216</ele>
        <time>2021-04-27T08:10:45Z</time>
      </trkpt>
      <trkpt lat="45.2359" lon="4.45392">
        <ele>1216</ele>
        <time>2021-04-27T08:10:46Z</time>
      </trkpt>
      <trkpt lat="45.23586" lon="4.4539">
        <ele>1216</ele>
        <time>2021-04-27T08:10:47Z</time>
      </trkpt>
      <trkpt lat="45.23582" lon="4.45389">
        <ele>1216</ele>
        <time>2021-04-27T08:10:48Z</time>
      </trkpt>
      <trkpt lat="45.23578" lon="4.45387">
        <ele>1216</ele>
        <time>2021-04-27T08:10:49Z</time>
      </trkpt>
      <trkpt lat="45.23572" lon="4.45386">
        <ele>1216</ele>
        <time>2021-04-27T08:10:50Z</time>
      </trkpt>
      <trkpt lat="45.23568" lon="4.45384">
        <ele>1216</ele>
        <time>2021-04-27T08:10:51Z</time>
      </trkpt>
      <trkpt lat="45.23565" lon="4.45382">
        <ele>1216</ele>
        <time>2021-04-27T08:10:52Z</time>
      </trkpt>
      <trkpt lat="45.23561" lon="4.4538">
        <ele>1216</ele>
        <time>2021-04-27T08:10:53Z</time>
      </trkpt>
      <trkpt lat="45.23558" lon="4.45378">
        <ele>1216</ele>
        <time>2021-04-27T08:10:54Z</time>
      </trkpt>
      <trkpt lat="45.23555" lon="4.45377">
        <ele>1216</ele>
        <time>2021-04-27T08:10:55Z</time>
      </trkpt>
      <trkpt lat="45.23551" lon="4.45375">
        <ele>1216</ele>
        <time>2021-04-27T08:10:56Z</time>
      </trkpt>
      <trkpt lat="45.23548" lon="4.45374">
        <ele>1216</ele>
        <time>2021-04-27T08:10:57Z</time>
      </trkpt>
      <trkpt lat="45.23545" lon="4.45371">
        <ele>1216</ele>
        <time>2021-04-27T08:10:58Z</time>
      </trkpt>
      <trkpt lat="45.23541" lon="4.4537">
        <ele>1217</ele>
        <time>2021-04-27T08:10:59Z</time>
      </trkpt>
      <trkpt lat="45.23538" lon="4.45368">
        <ele>1217</ele>
        <time>2021-04-27T08:11:00Z</time>
      </trkpt>
      <trkpt lat="45.23535" lon="4.45366">
        <ele>1217</ele>
        <time>2021-04-27T08:11:01Z</time>
      </trkpt>
      <trkpt lat="45.23531" lon="4.45364">
        <ele>1217</ele>
        <time>2021-04-27T08:11:02Z</time>
      </trkpt>
      <trkpt lat="45.23527" lon="4.45362">
        <ele>1217</ele>
        <time>2021-04-27T08:11:03Z</time>
      </trkpt>
      <trkpt lat="45.23523" lon="4.4536">
        <ele>1217</ele>
        <time>2021-04-27T08:11:04Z</time>
      </trkpt>
      <trkpt lat="45.23519" lon="4.45358">
        <ele>1217</ele>
        <time>2021-04-27T08:11:05Z</time>
      </trkpt>
      <trkpt lat="45.23516" lon="4.45357">
        <ele>1217</ele>
        <time>2021-04-27T08:11:06Z</time>
      </trkpt>
      <trkpt lat="45.23513" lon="4.45355">
        <ele>1217</ele>
        <time>2021-04-27T08:11:07Z</time>
      </trkpt>
      <trkpt lat="45.2351" lon="4.45354">
        <ele>1217</ele>
        <time>2021-04-27T08:11:08Z</time>
      </trkpt>
      <trkpt lat="45.23507" lon="4.45352">
        <ele>1217</ele>
        <time>2021-04-27T08:11:09Z</time>
      </trkpt>
      <trkpt lat="45.23505" lon="4.4535">
        <ele>1217</ele>
        <time>2021-04-27T08:11:10Z</time>
      </trkpt>
      <trkpt lat="45.23503" lon="4.45347">
        <ele>1217</ele>
        <time>2021-04-27T08:11:11Z</time>
      </trkpt>
      <trkpt lat="45.235" lon="4.45346">
        <ele>1217</ele>
        <time>2021-04-27T08:11:12Z</time>
      </trkpt>
      <trkpt lat="45.23498" lon="4.45344">
        <ele>1217</ele>
        <time>2021-04-27T08:11:13Z</time>
      </trkpt>
      <trkpt lat="45.23496" lon="4.45342">
        <ele>1217</ele>
        <time>2021-04-27T08:11:14Z</time>
      </trkpt>
      <trkpt lat="45.23495" lon="4.45341">
        <ele>1217</ele>
        <time>2021-04-27T08:11:15Z</time>
      </trkpt>
      <trkpt lat="45.23493" lon="4.45337">
        <ele>1217</ele>
        <time>2021-04-27T08:11:17Z</time>
      </trkpt>
      <trkpt lat="45.2349" lon="4.45336">
        <ele>1217</ele>
        <time>2021-04-27T08:11:19Z</time>
      </trkpt>
      <trkpt lat="45.23487" lon="4.45335">
        <ele>1217</ele>
        <time>2021-04-27T08:11:20Z</time>
      </trkpt>
      <trkpt lat="45.23485" lon="4.45335">
        <ele>1217</ele>
        <time>2021-04-27T08:11:21Z</time>
      </trkpt>
      <trkpt lat="45.23483" lon="4.45335">
        <ele>1217</ele>
        <time>2021-04-27T08:11:23Z</time>
      </trkpt>
      <trkpt lat="45.2348" lon="4.45334">
        <ele>1217</ele>
        <time>2021-04-27T08:11:26Z</time>
      </trkpt>
      <trkpt lat="45.23478" lon="4.45335">
        <ele>1217</ele>
        <time>2021-04-27T08:11:28Z</time>
      </trkpt>
      <trkpt lat="45.23476" lon="4.45335">
        <ele>1217</ele>
        <time>2021-04-27T08:11:30Z</time>
      </trkpt>
      <trkpt lat="45.23475" lon="4.45335">
        <ele>1218</ele>
        <time>2021-04-27T08:11:36Z</time>
      </trkpt>
      <trkpt lat="45.23473" lon="4.45328">
        <ele>1220</ele>
        <time>2021-04-27T08:15:27Z</time>
      </trkpt>
      <trkpt lat="45.23469" lon="4.45327">
        <ele>1220</ele>
        <time>2021-04-27T08:15:29Z</time>
      </trkpt>
      <trkpt lat="45.23467" lon="4.45326">
        <ele>1220</ele>
        <time>2021-04-27T08:15:30Z</time>
      </trkpt>
      <trkpt lat="45.23463" lon="4.45326">
        <ele>1220</ele>
        <time>2021-04-27T08:15:33Z</time>
      </trkpt>
      <trkpt lat="45.23455" lon="4.45326">
        <ele>1219</ele>
        <time>2021-04-27T08:15:34Z</time>
      </trkpt>
      <trkpt lat="45.2345" lon="4.45326">
        <ele>1218</ele>
        <time>2021-04-27T08:15:35Z</time>
      </trkpt>
      <trkpt lat="45.23445" lon="4.45326">
        <ele>1218</ele>
        <time>2021-04-27T08:15:36Z</time>
      </trkpt>
      <trkpt lat="45.23439" lon="4.45326">
        <ele>1217</ele>
        <time>2021-04-27T08:15:37Z</time>
      </trkpt>
      <trkpt lat="45.23432" lon="4.45325">
        <ele>1217</ele>
        <time>2021-04-27T08:15:38Z</time>
      </trkpt>
      <trkpt lat="45.23424" lon="4.45322">
        <ele>1217</ele>
        <time>2021-04-27T08:15:39Z</time>
      </trkpt>
      <trkpt lat="45.23416" lon="4.4532">
        <ele>1216</ele>
        <time>2021-04-27T08:15:40Z</time>
      </trkpt>
      <trkpt lat="45.23408" lon="4.45318">
        <ele>1216</ele>
        <time>2021-04-27T08:15:41Z</time>
      </trkpt>
      <trkpt lat="45.23401" lon="4.45317">
        <ele>1216</ele>
        <time>2021-04-27T08:15:42Z</time>
      </trkpt>
      <trkpt lat="45.23393" lon="4.45315">
        <ele>1216</ele>
        <time>2021-04-27T08:15:43Z</time>
      </trkpt>
      <trkpt lat="45.23385" lon="4.45314">
        <ele>1215</ele>
        <time>2021-04-27T08:15:44Z</time>
      </trkpt>
      <trkpt lat="45.23377" lon="4.45312">
        <ele>1215</ele>
        <time>2021-04-27T08:15:45Z</time>
      </trkpt>
      <trkpt lat="45.23369" lon="4.45311">
        <ele>1215</ele>
        <time>2021-04-27T08:15:46Z</time>
      </trkpt>
      <trkpt lat="45.23359" lon="4.4531">
        <ele>1215</ele>
        <time>2021-04-27T08:15:47Z</time>
      </trkpt>
      <trkpt lat="45.23351" lon="4.45309">
        <ele>1214</ele>
        <time>2021-04-27T08:15:48Z</time>
      </trkpt>
      <trkpt lat="45.23342" lon="4.45309">
        <ele>1214</ele>
        <time>2021-04-27T08:15:49Z</time>
      </trkpt>
      <trkpt lat="45.23333" lon="4.45309">
        <ele>1214</ele>
        <time>2021-04-27T08:15:50Z</time>
      </trkpt>
      <trkpt lat="45.23325" lon="4.45308">
        <ele>1213</ele>
        <time>2021-04-27T08:15:51Z</time>
      </trkpt>
      <trkpt lat="45.23316" lon="4.45306">
        <ele>1212</ele>
        <time>2021-04-27T08:15:52Z</time>
      </trkpt>
      <trkpt lat="45.23309" lon="4.45304">
        <ele>1212</ele>
        <time>2021-04-27T08:15:53Z</time>
      </trkpt>
      <trkpt lat="45.23301" lon="4.45302">
        <ele>1211</ele>
        <time>2021-04-27T08:15:54Z</time>
      </trkpt>
      <trkpt lat="45.23293" lon="4.45299">
        <ele>1210</ele>
        <time>2021-04-27T08:15:55Z</time>
      </trkpt>
      <trkpt lat="45.23285" lon="4.45296">
        <ele>1210</ele>
        <time>2021-04-27T08:15:56Z</time>
      </trkpt>
      <trkpt lat="45.23278" lon="4.45293">
        <ele>1209</ele>
        <time>2021-04-27T08:15:57Z</time>
      </trkpt>
      <trkpt lat="45.2327" lon="4.4529">
        <ele>1208</ele>
        <time>2021-04-27T08:15:58Z</time>
      </trkpt>
      <trkpt lat="45.23264" lon="4.45287">
        <ele>1207</ele>
        <time>2021-04-27T08:15:59Z</time>
      </trkpt>
      <trkpt lat="45.23256" lon="4.45285">
        <ele>1206</ele>
        <time>2021-04-27T08:16:00Z</time>
      </trkpt>
      <trkpt lat="45.2325" lon="4.45283">
        <ele>1205</ele>
        <time>2021-04-27T08:16:01Z</time>
      </trkpt>
      <trkpt lat="45.23244" lon="4.45281">
        <ele>1205</ele>
        <time>2021-04-27T08:16:02Z</time>
      </trkpt>
      <trkpt lat="45.23238" lon="4.4528">
        <ele>1204</ele>
        <time>2021-04-27T08:16:03Z</time>
      </trkpt>
      <trkpt lat="45.23232" lon="4.45278">
        <ele>1204</ele>
        <time>2021-04-27T08:16:04Z</time>
      </trkpt>
      <trkpt lat="45.23226" lon="4.45276">
        <ele>1204</ele>
        <time>2021-04-27T08:16:05Z</time>
      </trkpt>
      <trkpt lat="45.2322" lon="4.45273">
        <ele>1203</ele>
        <time>2021-04-27T08:16:06Z</time>
      </trkpt>
      <trkpt lat="45.23215" lon="4.45271">
        <ele>1203</ele>
        <time>2021-04-27T08:16:07Z</time>
      </trkpt>
      <trkpt lat="45.2321" lon="4.45268">
        <ele>1203</ele>
        <time>2021-04-27T08:16:08Z</time>
      </trkpt>
      <trkpt lat="45.23204" lon="4.45265">
        <ele>1202</ele>
        <time>2021-04-27T08:16:09Z</time>
      </trkpt>
      <trkpt lat="45.23197" lon="4.45263">
        <ele>1202</ele>
        <time>2021-04-27T08:16:10Z</time>
      </trkpt>
      <trkpt lat="45.23191" lon="4.4526">
        <ele>1202</ele>
        <time>2021-04-27T08:16:11Z</time>
      </trkpt>
      <trkpt lat="45.23184" lon="4.45258">
        <ele>1202</ele>
        <time>2021-04-27T08:16:12Z</time>
      </trkpt>
      <trkpt lat="45.23177" lon="4.45256">
        <ele>1201</ele>
        <time>2021-04-27T08:16:13Z</time>
      </trkpt>
      <trkpt lat="45.23172" lon="4.45253">
        <ele>1201</ele>
        <time>2021-04-27T08:16:14Z</time>
      </trkpt>
      <trkpt lat="45.23167" lon="4.45251">
        <ele>1200</ele>
        <time>2021-04-27T08:16:15Z</time>
      </trkpt>
      <trkpt lat="45.23161" lon="4.45248">
        <ele>1200</ele>
        <time>2021-04-27T08:16:16Z</time>
      </trkpt>
      <trkpt lat="45.23156" lon="4.45246">
        <ele>1200</ele>
        <time>2021-04-27T08:16:17Z</time>
      </trkpt>
      <trkpt lat="45.23149" lon="4.45242">
        <ele>1200</ele>
        <time>2021-04-27T08:16:18Z</time>
      </trkpt>
      <trkpt lat="45.23143" lon="4.45239">
        <ele>1200</ele>
        <time>2021-04-27T08:16:19Z</time>
      </trkpt>
      <trkpt lat="45.23136" lon="4.45235">
        <ele>1200</ele>
        <time>2021-04-27T08:16:20Z</time>
      </trkpt>
      <trkpt lat="45.23129" lon="4.45232">
        <ele>1199</ele>
        <time>2021-04-27T08:16:21Z</time>
      </trkpt>
      <trkpt lat="45.23123" lon="4.45228">
        <ele>1199</ele>
        <time>2021-04-27T08:16:22Z</time>
      </trkpt>
      <trkpt lat="45.23117" lon="4.45226">
        <ele>1199</ele>
        <time>2021-04-27T08:16:23Z</time>
      </trkpt>
      <trkpt lat="45.23103" lon="4.45221">
        <ele>1198</ele>
        <time>2021-04-27T08:16:25Z</time>
      </trkpt>
      <trkpt lat="45.2309" lon="4.45215">
        <ele>1196</ele>
        <time>2021-04-27T08:16:27Z</time>
      </trkpt>
      <trkpt lat="45.23083" lon="4.45212">
        <ele>1196</ele>
        <time>2021-04-27T08:16:28Z</time>
      </trkpt>
      <trkpt lat="45.23077" lon="4.45208">
        <ele>1195</ele>
        <time>2021-04-27T08:16:29Z</time>
      </trkpt>
      <trkpt lat="45.23071" lon="4.45205">
        <ele>1195</ele>
        <time>2021-04-27T08:16:30Z</time>
      </trkpt>
      <trkpt lat="45.23065" lon="4.45202">
        <ele>1194</ele>
        <time>2021-04-27T08:16:31Z</time>
      </trkpt>
      <trkpt lat="45.23059" lon="4.452">
        <ele>1194</ele>
        <time>2021-04-27T08:16:32Z</time>
      </trkpt>
      <trkpt lat="45.23054" lon="4.45198">
        <ele>1193</ele>
        <time>2021-04-27T08:16:33Z</time>
      </trkpt>
      <trkpt lat="45.2305" lon="4.45196">
        <ele>1193</ele>
        <time>2021-04-27T08:16:34Z</time>
      </trkpt>
      <trkpt lat="45.23045" lon="4.45194">
        <ele>1192</ele>
        <time>2021-04-27T08:16:35Z</time>
      </trkpt>
      <trkpt lat="45.23041" lon="4.45192">
        <ele>1192</ele>
        <time>2021-04-27T08:16:36Z</time>
      </trkpt>
      <trkpt lat="45.23037" lon="4.45191">
        <ele>1192</ele>
        <time>2021-04-27T08:16:37Z</time>
      </trkpt>
      <trkpt lat="45.23033" lon="4.4519">
        <ele>1191</ele>
        <time>2021-04-27T08:16:38Z</time>
      </trkpt>
      <trkpt lat="45.23029" lon="4.4519">
        <ele>1191</ele>
        <time>2021-04-27T08:16:39Z</time>
      </trkpt>
      <trkpt lat="45.23023" lon="4.45189">
        <ele>1190</ele>
        <time>2021-04-27T08:16:40Z</time>
      </trkpt>
      <trkpt lat="45.23018" lon="4.45188">
        <ele>1189</ele>
        <time>2021-04-27T08:16:41Z</time>
      </trkpt>
      <trkpt lat="45.23013" lon="4.45188">
        <ele>1189</ele>
        <time>2021-04-27T08:16:42Z</time>
      </trkpt>
      <trkpt lat="45.23008" lon="4.45188">
        <ele>1188</ele>
        <time>2021-04-27T08:16:43Z</time>
      </trkpt>
      <trkpt lat="45.23003" lon="4.45188">
        <ele>1187</ele>
        <time>2021-04-27T08:16:44Z</time>
      </trkpt>
      <trkpt lat="45.22998" lon="4.45188">
        <ele>1187</ele>
        <time>2021-04-27T08:16:45Z</time>
      </trkpt>
      <trkpt lat="45.22993" lon="4.45188">
        <ele>1187</ele>
        <time>2021-04-27T08:16:46Z</time>
      </trkpt>
      <trkpt lat="45.22987" lon="4.45188">
        <ele>1186</ele>
        <time>2021-04-27T08:16:47Z</time>
      </trkpt>
      <trkpt lat="45.22982" lon="4.45188">
        <ele>1186</ele>
        <time>2021-04-27T08:16:48Z</time>
      </trkpt>
      <trkpt lat="45.22976" lon="4.45189">
        <ele>1186</ele>
        <time>2021-04-27T08:16:49Z</time>
      </trkpt>
      <trkpt lat="45.22971" lon="4.45189">
        <ele>1185</ele>
        <time>2021-04-27T08:16:50Z</time>
      </trkpt>
      <trkpt lat="45.22965" lon="4.4519">
        <ele>1185</ele>
        <time>2021-04-27T08:16:51Z</time>
      </trkpt>
      <trkpt lat="45.2296" lon="4.45191">
        <ele>1185</ele>
        <time>2021-04-27T08:16:52Z</time>
      </trkpt>
      <trkpt lat="45.22954" lon="4.45191">
        <ele>1185</ele>
        <time>2021-04-27T08:16:53Z</time>
      </trkpt>
      <trkpt lat="45.22949" lon="4.45192">
        <ele>1185</ele>
        <time>2021-04-27T08:16:54Z</time>
      </trkpt>
      <trkpt lat="45.22943" lon="4.45193">
        <ele>1184</ele>
        <time>2021-04-27T08:16:55Z</time>
      </trkpt>
      <trkpt lat="45.22937" lon="4.45194">
        <ele>1184</ele>
        <time>2021-04-27T08:16:56Z</time>
      </trkpt>
      <trkpt lat="45.22931" lon="4.45195">
        <ele>1184</ele>
        <time>2021-04-27T08:16:57Z</time>
      </trkpt>
      <trkpt lat="45.22926" lon="4.45196">
        <ele>1184</ele>
        <time>2021-04-27T08:16:58Z</time>
      </trkpt>
      <trkpt lat="45.2292" lon="4.45197">
        <ele>1184</ele>
        <time>2021-04-27T08:16:59Z</time>
      </trkpt>
      <trkpt lat="45.22914" lon="4.45198">
        <ele>1184</ele>
        <time>2021-04-27T08:17:00Z</time>
      </trkpt>
      <trkpt lat="45.22909" lon="4.45199">
        <ele>1183</ele>
        <time>2021-04-27T08:17:01Z</time>
      </trkpt>
      <trkpt lat="45.22903" lon="4.452">
        <ele>1183</ele>
        <time>2021-04-27T08:17:02Z</time>
      </trkpt>
      <trkpt lat="45.22898" lon="4.45201">
        <ele>1183</ele>
        <time>2021-04-27T08:17:03Z</time>
      </trkpt>
      <trkpt lat="45.22892" lon="4.45202">
        <ele>1183</ele>
        <time>2021-04-27T08:17:04Z</time>
      </trkpt>
      <trkpt lat="45.22887" lon="4.45203">
        <ele>1183</ele>
        <time>2021-04-27T08:17:05Z</time>
      </trkpt>
      <trkpt lat="45.22881" lon="4.45204">
        <ele>1183</ele>
        <time>2021-04-27T08:17:06Z</time>
      </trkpt>
      <trkpt lat="45.22875" lon="4.45205">
        <ele>1182</ele>
        <time>2021-04-27T08:17:07Z</time>
      </trkpt>
      <trkpt lat="45.22869" lon="4.45205">
        <ele>1182</ele>
        <time>2021-04-27T08:17:08Z</time>
      </trkpt>
      <trkpt lat="45.22863" lon="4.45206">
        <ele>1182</ele>
        <time>2021-04-27T08:17:09Z</time>
      </trkpt>
      <trkpt lat="45.22857" lon="4.45207">
        <ele>1182</ele>
        <time>2021-04-27T08:17:10Z</time>
      </trkpt>
      <trkpt lat="45.22852" lon="4.45209">
        <ele>1182</ele>
        <time>2021-04-27T08:17:11Z</time>
      </trkpt>
      <trkpt lat="45.22847" lon="4.4521">
        <ele>1182</ele>
        <time>2021-04-27T08:17:12Z</time>
      </trkpt>
      <trkpt lat="45.22842" lon="4.45212">
        <ele>1182</ele>
        <time>2021-04-27T08:17:13Z</time>
      </trkpt>
      <trkpt lat="45.22837" lon="4.45214">
        <ele>1182</ele>
        <time>2021-04-27T08:17:14Z</time>
      </trkpt>
      <trkpt lat="45.22832" lon="4.45216">
        <ele>1182</ele>
        <time>2021-04-27T08:17:15Z</time>
      </trkpt>
      <trkpt lat="45.22827" lon="4.45218">
        <ele>1182</ele>
        <time>2021-04-27T08:17:16Z</time>
      </trkpt>
      <trkpt lat="45.22821" lon="4.4522">
        <ele>1182</ele>
        <time>2021-04-27T08:17:17Z</time>
      </trkpt>
      <trkpt lat="45.22816" lon="4.45222">
        <ele>1182</ele>
        <time>2021-04-27T08:17:18Z</time>
      </trkpt>
      <trkpt lat="45.22811" lon="4.45224">
        <ele>1181</ele>
        <time>2021-04-27T08:17:19Z</time>
      </trkpt>
      <trkpt lat="45.22805" lon="4.45226">
        <ele>1181</ele>
        <time>2021-04-27T08:17:20Z</time>
      </trkpt>
      <trkpt lat="45.228" lon="4.45228">
        <ele>1181</ele>
        <time>2021-04-27T08:17:21Z</time>
      </trkpt>
      <trkpt lat="45.22794" lon="4.45231">
        <ele>1181</ele>
        <time>2021-04-27T08:17:22Z</time>
      </trkpt>
      <trkpt lat="45.22789" lon="4.45233">
        <ele>1181</ele>
        <time>2021-04-27T08:17:23Z</time>
      </trkpt>
      <trkpt lat="45.22783" lon="4.45236">
        <ele>1181</ele>
        <time>2021-04-27T08:17:24Z</time>
      </trkpt>
      <trkpt lat="45.22778" lon="4.45238">
        <ele>1181</ele>
        <time>2021-04-27T08:17:25Z</time>
      </trkpt>
      <trkpt lat="45.22773" lon="4.45241">
        <ele>1181</ele>
        <time>2021-04-27T08:17:26Z</time>
      </trkpt>
      <trkpt lat="45.22768" lon="4.45244">
        <ele>1181</ele>
        <time>2021-04-27T08:17:27Z</time>
      </trkpt>
      <trkpt lat="45.22763" lon="4.45248">
        <ele>1181</ele>
        <time>2021-04-27T08:17:28Z</time>
      </trkpt>
      <trkpt lat="45.22758" lon="4.45251">
        <ele>1181</ele>
        <time>2021-04-27T08:17:29Z</time>
      </trkpt>
      <trkpt lat="45.22753" lon="4.45255">
        <ele>1181</ele>
        <time>2021-04-27T08:17:30Z</time>
      </trkpt>
      <trkpt lat="45.22748" lon="4.45259">
        <ele>1181</ele>
        <time>2021-04-27T08:17:31Z</time>
      </trkpt>
      <trkpt lat="45.22743" lon="4.45263">
        <ele>1181</ele>
        <time>2021-04-27T08:17:32Z</time>
      </trkpt>
      <trkpt lat="45.22739" lon="4.45267">
        <ele>1181</ele>
        <time>2021-04-27T08:17:33Z</time>
      </trkpt>
      <trkpt lat="45.22734" lon="4.45271">
        <ele>1181</ele>
        <time>2021-04-27T08:17:34Z</time>
      </trkpt>
      <trkpt lat="45.22729" lon="4.45274">
        <ele>1181</ele>
        <time>2021-04-27T08:17:35Z</time>
      </trkpt>
      <trkpt lat="45.22725" lon="4.45277">
        <ele>1182</ele>
        <time>2021-04-27T08:17:36Z</time>
      </trkpt>
      <trkpt lat="45.2272" lon="4.45279">
        <ele>1182</ele>
        <time>2021-04-27T08:17:37Z</time>
      </trkpt>
      <trkpt lat="45.22716" lon="4.45281">
        <ele>1182</ele>
        <time>2021-04-27T08:17:38Z</time>
      </trkpt>
      <trkpt lat="45.22712" lon="4.45283">
        <ele>1182</ele>
        <time>2021-04-27T08:17:39Z</time>
      </trkpt>
      <trkpt lat="45.22708" lon="4.45285">
        <ele>1182</ele>
        <time>2021-04-27T08:17:40Z</time>
      </trkpt>
      <trkpt lat="45.22703" lon="4.45286">
        <ele>1182</ele>
        <time>2021-04-27T08:17:41Z</time>
      </trkpt>
      <trkpt lat="45.22699" lon="4.45288">
        <ele>1181</ele>
        <time>2021-04-27T08:17:42Z</time>
      </trkpt>
      <trkpt lat="45.22694" lon="4.45289">
        <ele>1181</ele>
        <time>2021-04-27T08:17:43Z</time>
      </trkpt>
      <trkpt lat="45.2269" lon="4.4529">
        <ele>1181</ele>
        <time>2021-04-27T08:17:44Z</time>
      </trkpt>
      <trkpt lat="45.22686" lon="4.45292">
        <ele>1181</ele>
        <time>2021-04-27T08:17:45Z</time>
      </trkpt>
      <trkpt lat="45.22683" lon="4.45294">
        <ele>1181</ele>
        <time>2021-04-27T08:17:46Z</time>
      </trkpt>
      <trkpt lat="45.22679" lon="4.45296">
        <ele>1181</ele>
        <time>2021-04-27T08:17:47Z</time>
      </trkpt>
      <trkpt lat="45.22676" lon="4.45298">
        <ele>1181</ele>
        <time>2021-04-27T08:17:48Z</time>
      </trkpt>
      <trkpt lat="45.22672" lon="4.45301">
        <ele>1180</ele>
        <time>2021-04-27T08:17:49Z</time>
      </trkpt>
      <trkpt lat="45.22668" lon="4.45303">
        <ele>1180</ele>
        <time>2021-04-27T08:17:50Z</time>
      </trkpt>
      <trkpt lat="45.22665" lon="4.45306">
        <ele>1180</ele>
        <time>2021-04-27T08:17:51Z</time>
      </trkpt>
      <trkpt lat="45.22661" lon="4.45309">
        <ele>1180</ele>
        <time>2021-04-27T08:17:52Z</time>
      </trkpt>
      <trkpt lat="45.22656" lon="4.45312">
        <ele>1180</ele>
        <time>2021-04-27T08:17:53Z</time>
      </trkpt>
      <trkpt lat="45.22651" lon="4.45315">
        <ele>1180</ele>
        <time>2021-04-27T08:17:54Z</time>
      </trkpt>
      <trkpt lat="45.22647" lon="4.45318">
        <ele>1180</ele>
        <time>2021-04-27T08:17:55Z</time>
      </trkpt>
      <trkpt lat="45.22642" lon="4.45321">
        <ele>1179</ele>
        <time>2021-04-27T08:17:56Z</time>
      </trkpt>
      <trkpt lat="45.22637" lon="4.45324">
        <ele>1179</ele>
        <time>2021-04-27T08:17:57Z</time>
      </trkpt>
      <trkpt lat="45.22631" lon="4.45328">
        <ele>1179</ele>
        <time>2021-04-27T08:17:58Z</time>
      </trkpt>
      <trkpt lat="45.22626" lon="4.45332">
        <ele>1179</ele>
        <time>2021-04-27T08:17:59Z</time>
      </trkpt>
      <trkpt lat="45.22621" lon="4.45336">
        <ele>1178</ele>
        <time>2021-04-27T08:18:00Z</time>
      </trkpt>
      <trkpt lat="45.22616" lon="4.4534">
        <ele>1178</ele>
        <time>2021-04-27T08:18:01Z</time>
      </trkpt>
      <trkpt lat="45.22611" lon="4.45345">
        <ele>1178</ele>
        <time>2021-04-27T08:18:02Z</time>
      </trkpt>
      <trkpt lat="45.22606" lon="4.45349">
        <ele>1178</ele>
        <time>2021-04-27T08:18:03Z</time>
      </trkpt>
      <trkpt lat="45.22601" lon="4.45354">
        <ele>1177</ele>
        <time>2021-04-27T08:18:04Z</time>
      </trkpt>
      <trkpt lat="45.22596" lon="4.45359">
        <ele>1177</ele>
        <time>2021-04-27T08:18:05Z</time>
      </trkpt>
      <trkpt lat="45.22591" lon="4.45364">
        <ele>1177</ele>
        <time>2021-04-27T08:18:06Z</time>
      </trkpt>
      <trkpt lat="45.22586" lon="4.45369">
        <ele>1177</ele>
        <time>2021-04-27T08:18:07Z</time>
      </trkpt>
      <trkpt lat="45.22582" lon="4.45375">
        <ele>1177</ele>
        <time>2021-04-27T08:18:08Z</time>
      </trkpt>
      <trkpt lat="45.22577" lon="4.4538">
        <ele>1177</ele>
        <time>2021-04-27T08:18:09Z</time>
      </trkpt>
      <trkpt lat="45.22572" lon="4.45385">
        <ele>1176</ele>
        <time>2021-04-27T08:18:10Z</time>
      </trkpt>
      <trkpt lat="45.22567" lon="4.45391">
        <ele>1176</ele>
        <time>2021-04-27T08:18:11Z</time>
      </trkpt>
      <trkpt lat="45.22562" lon="4.45396">
        <ele>1176</ele>
        <time>2021-04-27T08:18:12Z</time>
      </trkpt>
      <trkpt lat="45.22557" lon="4.45402">
        <ele>1176</ele>
        <time>2021-04-27T08:18:13Z</time>
      </trkpt>
      <trkpt lat="45.22552" lon="4.45407">
        <ele>1176</ele>
        <time>2021-04-27T08:18:14Z</time>
      </trkpt>
      <trkpt lat="45.22547" lon="4.45412">
        <ele>1176</ele>
        <time>2021-04-27T08:18:15Z</time>
      </trkpt>
      <trkpt lat="45.22542" lon="4.45418">
        <ele>1176</ele>
        <time>2021-04-27T08:18:16Z</time>
      </trkpt>
      <trkpt lat="45.22536" lon="4.45423">
        <ele>1176</ele>
        <time>2021-04-27T08:18:17Z</time>
      </trkpt>
      <trkpt lat="45.22531" lon="4.45429">
        <ele>1175</ele>
        <time>2021-04-27T08:18:18Z</time>
      </trkpt>
      <trkpt lat="45.22525" lon="4.45435">
        <ele>1175</ele>
        <time>2021-04-27T08:18:19Z</time>
      </trkpt>
      <trkpt lat="45.2252" lon="4.45441">
        <ele>1175</ele>
        <time>2021-04-27T08:18:20Z</time>
      </trkpt>
      <trkpt lat="45.22515" lon="4.45448">
        <ele>1175</ele>
        <time>2021-04-27T08:18:21Z</time>
      </trkpt>
      <trkpt lat="45.2251" lon="4.45454">
        <ele>1174</ele>
        <time>2021-04-27T08:18:22Z</time>
      </trkpt>
      <trkpt lat="45.22505" lon="4.4546">
        <ele>1174</ele>
        <time>2021-04-27T08:18:23Z</time>
      </trkpt>
      <trkpt lat="45.225" lon="4.45466">
        <ele>1174</ele>
        <time>2021-04-27T08:18:24Z</time>
      </trkpt>
      <trkpt lat="45.22494" lon="4.45471">
        <ele>1174</ele>
        <time>2021-04-27T08:18:25Z</time>
      </trkpt>
      <trkpt lat="45.22489" lon="4.45476">
        <ele>1173</ele>
        <time>2021-04-27T08:18:26Z</time>
      </trkpt>
      <trkpt lat="45.22483" lon="4.4548">
        <ele>1173</ele>
        <time>2021-04-27T08:18:27Z</time>
      </trkpt>
      <trkpt lat="45.22478" lon="4.45485">
        <ele>1173</ele>
        <time>2021-04-27T08:18:28Z</time>
      </trkpt>
      <trkpt lat="45.22472" lon="4.4549">
        <ele>1172</ele>
        <time>2021-04-27T08:18:29Z</time>
      </trkpt>
      <trkpt lat="45.22466" lon="4.45495">
        <ele>1172</ele>
        <time>2021-04-27T08:18:30Z</time>
      </trkpt>
      <trkpt lat="45.2246" lon="4.45501">
        <ele>1171</ele>
        <time>2021-04-27T08:18:31Z</time>
      </trkpt>
      <trkpt lat="45.22454" lon="4.45507">
        <ele>1170</ele>
        <time>2021-04-27T08:18:32Z</time>
      </trkpt>
      <trkpt lat="45.22449" lon="4.45512">
        <ele>1169</ele>
        <time>2021-04-27T08:18:33Z</time>
      </trkpt>
      <trkpt lat="45.22443" lon="4.45517">
        <ele>1169</ele>
        <time>2021-04-27T08:18:34Z</time>
      </trkpt>
      <trkpt lat="45.22439" lon="4.45522">
        <ele>1168</ele>
        <time>2021-04-27T08:18:35Z</time>
      </trkpt>
      <trkpt lat="45.22435" lon="4.45527">
        <ele>1168</ele>
        <time>2021-04-27T08:18:36Z</time>
      </trkpt>
      <trkpt lat="45.22431" lon="4.45531">
        <ele>1167</ele>
        <time>2021-04-27T08:18:37Z</time>
      </trkpt>
      <trkpt lat="45.22427" lon="4.45533">
        <ele>1167</ele>
        <time>2021-04-27T08:18:38Z</time>
      </trkpt>
      <trkpt lat="45.22421" lon="4.45534">
        <ele>1167</ele>
        <time>2021-04-27T08:18:39Z</time>
      </trkpt>
      <trkpt lat="45.22416" lon="4.45531">
        <ele>1167</ele>
        <time>2021-04-27T08:18:40Z</time>
      </trkpt>
      <trkpt lat="45.2241" lon="4.45526">
        <ele>1166</ele>
        <time>2021-04-27T08:18:41Z</time>
      </trkpt>
      <trkpt lat="45.22404" lon="4.45522">
        <ele>1166</ele>
        <time>2021-04-27T08:18:42Z</time>
      </trkpt>
      <trkpt lat="45.22398" lon="4.45521">
        <ele>1166</ele>
        <time>2021-04-27T08:18:43Z</time>
      </trkpt>
      <trkpt lat="45.22393" lon="4.4552">
        <ele>1165</ele>
        <time>2021-04-27T08:18:44Z</time>
      </trkpt>
      <trkpt lat="45.2239" lon="4.45521">
        <ele>1165</ele>
        <time>2021-04-27T08:18:45Z</time>
      </trkpt>
      <trkpt lat="45.22386" lon="4.45524">
        <ele>1164</ele>
        <time>2021-04-27T08:18:46Z</time>
      </trkpt>
      <trkpt lat="45.22384" lon="4.45529">
        <ele>1164</ele>
        <time>2021-04-27T08:18:47Z</time>
      </trkpt>
      <trkpt lat="45.22382" lon="4.45535">
        <ele>1163</ele>
        <time>2021-04-27T08:18:48Z</time>
      </trkpt>
      <trkpt lat="45.2238" lon="4.45543">
        <ele>1163</ele>
        <time>2021-04-27T08:18:49Z</time>
      </trkpt>
      <trkpt lat="45.22376" lon="4.45549">
        <ele>1163</ele>
        <time>2021-04-27T08:18:50Z</time>
      </trkpt>
      <trkpt lat="45.22371" lon="4.45554">
        <ele>1163</ele>
        <time>2021-04-27T08:18:51Z</time>
      </trkpt>
      <trkpt lat="45.22366" lon="4.45558">
        <ele>1163</ele>
        <time>2021-04-27T08:18:52Z</time>
      </trkpt>
      <trkpt lat="45.22361" lon="4.45561">
        <ele>1162</ele>
        <time>2021-04-27T08:18:53Z</time>
      </trkpt>
      <trkpt lat="45.22356" lon="4.45563">
        <ele>1162</ele>
        <time>2021-04-27T08:18:54Z</time>
      </trkpt>
      <trkpt lat="45.22352" lon="4.45565">
        <ele>1162</ele>
        <time>2021-04-27T08:18:55Z</time>
      </trkpt>
      <trkpt lat="45.22348" lon="4.45567">
        <ele>1162</ele>
        <time>2021-04-27T08:18:56Z</time>
      </trkpt>
      <trkpt lat="45.22344" lon="4.45568">
        <ele>1162</ele>
        <time>2021-04-27T08:18:57Z</time>
      </trkpt>
      <trkpt lat="45.22339" lon="4.45569">
        <ele>1162</ele>
        <time>2021-04-27T08:18:58Z</time>
      </trkpt>
      <trkpt lat="45.22336" lon="4.4557">
        <ele>1161</ele>
        <time>2021-04-27T08:18:59Z</time>
      </trkpt>
      <trkpt lat="45.22332" lon="4.45573">
        <ele>1160</ele>
        <time>2021-04-27T08:19:00Z</time>
      </trkpt>
      <trkpt lat="45.22328" lon="4.45578">
        <ele>1159</ele>
        <time>2021-04-27T08:19:01Z</time>
      </trkpt>
      <trkpt lat="45.22325" lon="4.45583">
        <ele>1158</ele>
        <time>2021-04-27T08:19:02Z</time>
      </trkpt>
      <trkpt lat="45.22324" lon="4.45589">
        <ele>1157</ele>
        <time>2021-04-27T08:19:03Z</time>
      </trkpt>
      <trkpt lat="45.22323" lon="4.45593">
        <ele>1157</ele>
        <time>2021-04-27T08:19:04Z</time>
      </trkpt>
      <trkpt lat="45.22323" lon="4.45598">
        <ele>1156</ele>
        <time>2021-04-27T08:19:05Z</time>
      </trkpt>
      <trkpt lat="45.22322" lon="4.45602">
        <ele>1155</ele>
        <time>2021-04-27T08:19:06Z</time>
      </trkpt>
      <trkpt lat="45.22322" lon="4.45607">
        <ele>1155</ele>
        <time>2021-04-27T08:19:07Z</time>
      </trkpt>
      <trkpt lat="45.22323" lon="4.45613">
        <ele>1154</ele>
        <time>2021-04-27T08:19:08Z</time>
      </trkpt>
      <trkpt lat="45.22325" lon="4.45619">
        <ele>1153</ele>
        <time>2021-04-27T08:19:09Z</time>
      </trkpt>
      <trkpt lat="45.22328" lon="4.45624">
        <ele>1153</ele>
        <time>2021-04-27T08:19:10Z</time>
      </trkpt>
      <trkpt lat="45.22331" lon="4.4563">
        <ele>1152</ele>
        <time>2021-04-27T08:19:11Z</time>
      </trkpt>
      <trkpt lat="45.22334" lon="4.45635">
        <ele>1152</ele>
        <time>2021-04-27T08:19:12Z</time>
      </trkpt>
      <trkpt lat="45.22336" lon="4.45641">
        <ele>1151</ele>
        <time>2021-04-27T08:19:13Z</time>
      </trkpt>
      <trkpt lat="45.22339" lon="4.45647">
        <ele>1151</ele>
        <time>2021-04-27T08:19:14Z</time>
      </trkpt>
      <trkpt lat="45.22341" lon="4.45654">
        <ele>1150</ele>
        <time>2021-04-27T08:19:15Z</time>
      </trkpt>
      <trkpt lat="45.22344" lon="4.4566">
        <ele>1150</ele>
        <time>2021-04-27T08:19:16Z</time>
      </trkpt>
      <trkpt lat="45.22346" lon="4.45667">
        <ele>1150</ele>
        <time>2021-04-27T08:19:17Z</time>
      </trkpt>
      <trkpt lat="45.22349" lon="4.45674">
        <ele>1150</ele>
        <time>2021-04-27T08:19:18Z</time>
      </trkpt>
      <trkpt lat="45.22351" lon="4.45681">
        <ele>1149</ele>
        <time>2021-04-27T08:19:19Z</time>
      </trkpt>
      <trkpt lat="45.22354" lon="4.45687">
        <ele>1149</ele>
        <time>2021-04-27T08:19:20Z</time>
      </trkpt>
      <trkpt lat="45.22357" lon="4.45694">
        <ele>1149</ele>
        <time>2021-04-27T08:19:21Z</time>
      </trkpt>
      <trkpt lat="45.2236" lon="4.45701">
        <ele>1148</ele>
        <time>2021-04-27T08:19:22Z</time>
      </trkpt>
      <trkpt lat="45.22363" lon="4.45709">
        <ele>1148</ele>
        <time>2021-04-27T08:19:23Z</time>
      </trkpt>
      <trkpt lat="45.22366" lon="4.45717">
        <ele>1148</ele>
        <time>2021-04-27T08:19:24Z</time>
      </trkpt>
      <trkpt lat="45.2237" lon="4.45726">
        <ele>1147</ele>
        <time>2021-04-27T08:19:25Z</time>
      </trkpt>
      <trkpt lat="45.22372" lon="4.45734">
        <ele>1147</ele>
        <time>2021-04-27T08:19:26Z</time>
      </trkpt>
      <trkpt lat="45.22374" lon="4.45742">
        <ele>1146</ele>
        <time>2021-04-27T08:19:27Z</time>
      </trkpt>
      <trkpt lat="45.22375" lon="4.45748">
        <ele>1146</ele>
        <time>2021-04-27T08:19:28Z</time>
      </trkpt>
      <trkpt lat="45.22375" lon="4.45752">
        <ele>1146</ele>
        <time>2021-04-27T08:19:29Z</time>
      </trkpt>
      <trkpt lat="45.22375" lon="4.45755">
        <ele>1145</ele>
        <time>2021-04-27T08:19:30Z</time>
      </trkpt>
      <trkpt lat="45.22375" lon="4.45759">
        <ele>1145</ele>
        <time>2021-04-27T08:19:32Z</time>
      </trkpt>
      <trkpt lat="45.22374" lon="4.45773">
        <ele>1140</ele>
        <time>2021-04-27T08:22:30Z</time>
      </trkpt>
      <trkpt lat="45.22375" lon="4.45778">
        <ele>1140</ele>
        <time>2021-04-27T08:22:31Z</time>
      </trkpt>
      <trkpt lat="45.22375" lon="4.45785">
        <ele>1140</ele>
        <time>2021-04-27T08:22:32Z</time>
      </trkpt>
      <trkpt lat="45.22375" lon="4.45794">
        <ele>1139</ele>
        <time>2021-04-27T08:22:33Z</time>
      </trkpt>
      <trkpt lat="45.22374" lon="4.45804">
        <ele>1138</ele>
        <time>2021-04-27T08:22:34Z</time>
      </trkpt>
      <trkpt lat="45.22373" lon="4.45815">
        <ele>1137</ele>
        <time>2021-04-27T08:22:35Z</time>
      </trkpt>
      <trkpt lat="45.22372" lon="4.45825">
        <ele>1136</ele>
        <time>2021-04-27T08:22:36Z</time>
      </trkpt>
      <trkpt lat="45.2237" lon="4.45833">
        <ele>1134</ele>
        <time>2021-04-27T08:22:37Z</time>
      </trkpt>
      <trkpt lat="45.2237" lon="4.4584">
        <ele>1133</ele>
        <time>2021-04-27T08:22:38Z</time>
      </trkpt>
      <trkpt lat="45.22371" lon="4.45846">
        <ele>1133</ele>
        <time>2021-04-27T08:22:39Z</time>
      </trkpt>
      <trkpt lat="45.22373" lon="4.45852">
        <ele>1132</ele>
        <time>2021-04-27T08:22:40Z</time>
      </trkpt>
      <trkpt lat="45.22375" lon="4.45858">
        <ele>1131</ele>
        <time>2021-04-27T08:22:41Z</time>
      </trkpt>
      <trkpt lat="45.22378" lon="4.45865">
        <ele>1130</ele>
        <time>2021-04-27T08:22:42Z</time>
      </trkpt>
      <trkpt lat="45.22383" lon="4.45872">
        <ele>1130</ele>
        <time>2021-04-27T08:22:43Z</time>
      </trkpt>
      <trkpt lat="45.22389" lon="4.45879">
        <ele>1129</ele>
        <time>2021-04-27T08:22:44Z</time>
      </trkpt>
      <trkpt lat="45.22397" lon="4.45886">
        <ele>1128</ele>
        <time>2021-04-27T08:22:45Z</time>
      </trkpt>
      <trkpt lat="45.22405" lon="4.45893">
        <ele>1127</ele>
        <time>2021-04-27T08:22:46Z</time>
      </trkpt>
      <trkpt lat="45.22414" lon="4.45899">
        <ele>1127</ele>
        <time>2021-04-27T08:22:47Z</time>
      </trkpt>
      <trkpt lat="45.22422" lon="4.45904">
        <ele>1126</ele>
        <time>2021-04-27T08:22:48Z</time>
      </trkpt>
      <trkpt lat="45.22431" lon="4.45909">
        <ele>1125</ele>
        <time>2021-04-27T08:22:49Z</time>
      </trkpt>
      <trkpt lat="45.22438" lon="4.45916">
        <ele>1124</ele>
        <time>2021-04-27T08:22:50Z</time>
      </trkpt>
      <trkpt lat="45.22443" lon="4.45925">
        <ele>1123</ele>
        <time>2021-04-27T08:22:51Z</time>
      </trkpt>
      <trkpt lat="45.22449" lon="4.45936">
        <ele>1122</ele>
        <time>2021-04-27T08:22:52Z</time>
      </trkpt>
      <trkpt lat="45.22456" lon="4.45946">
        <ele>1120</ele>
        <time>2021-04-27T08:22:53Z</time>
      </trkpt>
      <trkpt lat="45.22461" lon="4.45955">
        <ele>1118</ele>
        <time>2021-04-27T08:22:54Z</time>
      </trkpt>
      <trkpt lat="45.22467" lon="4.45965">
        <ele>1116</ele>
        <time>2021-04-27T08:22:55Z</time>
      </trkpt>
      <trkpt lat="45.22474" lon="4.45974">
        <ele>1115</ele>
        <time>2021-04-27T08:22:56Z</time>
      </trkpt>
      <trkpt lat="45.22481" lon="4.45982">
        <ele>1113</ele>
        <time>2021-04-27T08:22:57Z</time>
      </trkpt>
      <trkpt lat="45.22488" lon="4.45991">
        <ele>1111</ele>
        <time>2021-04-27T08:22:58Z</time>
      </trkpt>
      <trkpt lat="45.22495" lon="4.45999">
        <ele>1110</ele>
        <time>2021-04-27T08:22:59Z</time>
      </trkpt>
      <trkpt lat="45.22502" lon="4.46008">
        <ele>1109</ele>
        <time>2021-04-27T08:23:00Z</time>
      </trkpt>
      <trkpt lat="45.22509" lon="4.46017">
        <ele>1108</ele>
        <time>2021-04-27T08:23:01Z</time>
      </trkpt>
      <trkpt lat="45.22515" lon="4.46026">
        <ele>1107</ele>
        <time>2021-04-27T08:23:02Z</time>
      </trkpt>
      <trkpt lat="45.22522" lon="4.46034">
        <ele>1105</ele>
        <time>2021-04-27T08:23:03Z</time>
      </trkpt>
      <trkpt lat="45.22528" lon="4.46043">
        <ele>1104</ele>
        <time>2021-04-27T08:23:04Z</time>
      </trkpt>
      <trkpt lat="45.22535" lon="4.46053">
        <ele>1103</ele>
        <time>2021-04-27T08:23:05Z</time>
      </trkpt>
      <trkpt lat="45.22541" lon="4.46061">
        <ele>1102</ele>
        <time>2021-04-27T08:23:06Z</time>
      </trkpt>
      <trkpt lat="45.22548" lon="4.4607">
        <ele>1101</ele>
        <time>2021-04-27T08:23:07Z</time>
      </trkpt>
      <trkpt lat="45.22556" lon="4.46077">
        <ele>1100</ele>
        <time>2021-04-27T08:23:08Z</time>
      </trkpt>
      <trkpt lat="45.22564" lon="4.46084">
        <ele>1099</ele>
        <time>2021-04-27T08:23:09Z</time>
      </trkpt>
      <trkpt lat="45.22572" lon="4.46091">
        <ele>1098</ele>
        <time>2021-04-27T08:23:10Z</time>
      </trkpt>
      <trkpt lat="45.22579" lon="4.46098">
        <ele>1097</ele>
        <time>2021-04-27T08:23:11Z</time>
      </trkpt>
      <trkpt lat="45.22584" lon="4.46106">
        <ele>1096</ele>
        <time>2021-04-27T08:23:12Z</time>
      </trkpt>
      <trkpt lat="45.22585" lon="4.46115">
        <ele>1095</ele>
        <time>2021-04-27T08:23:13Z</time>
      </trkpt>
      <trkpt lat="45.22582" lon="4.46123">
        <ele>1094</ele>
        <time>2021-04-27T08:23:14Z</time>
      </trkpt>
      <trkpt lat="45.22578" lon="4.46127">
        <ele>1094</ele>
        <time>2021-04-27T08:23:15Z</time>
      </trkpt>
      <trkpt lat="45.22575" lon="4.46129">
        <ele>1094</ele>
        <time>2021-04-27T08:23:16Z</time>
      </trkpt>
      <trkpt lat="45.22571" lon="4.4613">
        <ele>1094</ele>
        <time>2021-04-27T08:23:17Z</time>
      </trkpt>
      <trkpt lat="45.22568" lon="4.4613">
        <ele>1093</ele>
        <time>2021-04-27T08:23:18Z</time>
      </trkpt>
      <trkpt lat="45.22566" lon="4.4613">
        <ele>1093</ele>
        <time>2021-04-27T08:23:19Z</time>
      </trkpt>
      <trkpt lat="45.22564" lon="4.46129">
        <ele>1093</ele>
        <time>2021-04-27T08:23:20Z</time>
      </trkpt>
      <trkpt lat="45.22562" lon="4.46128">
        <ele>1093</ele>
        <time>2021-04-27T08:23:21Z</time>
      </trkpt>
      <trkpt lat="45.22559" lon="4.46128">
        <ele>1092</ele>
        <time>2021-04-27T08:23:22Z</time>
      </trkpt>
      <trkpt lat="45.22558" lon="4.46128">
        <ele>1092</ele>
        <time>2021-04-27T08:23:23Z</time>
      </trkpt>
      <trkpt lat="45.22556" lon="4.46128">
        <ele>1092</ele>
        <time>2021-04-27T08:23:24Z</time>
      </trkpt>
      <trkpt lat="45.22553" lon="4.46128">
        <ele>1092</ele>
        <time>2021-04-27T08:23:26Z</time>
      </trkpt>
      <trkpt lat="45.22551" lon="4.46129">
        <ele>1092</ele>
        <time>2021-04-27T08:23:28Z</time>
      </trkpt>
      <trkpt lat="45.22547" lon="4.46129">
        <ele>1092</ele>
        <time>2021-04-27T08:23:30Z</time>
      </trkpt>
      <trkpt lat="45.22545" lon="4.4613">
        <ele>1092</ele>
        <time>2021-04-27T08:23:31Z</time>
      </trkpt>
      <trkpt lat="45.22542" lon="4.4613">
        <ele>1092</ele>
        <time>2021-04-27T08:23:32Z</time>
      </trkpt>
      <trkpt lat="45.2254" lon="4.4613">
        <ele>1092</ele>
        <time>2021-04-27T08:23:33Z</time>
      </trkpt>
      <trkpt lat="45.22537" lon="4.4613">
        <ele>1092</ele>
        <time>2021-04-27T08:23:34Z</time>
      </trkpt>
      <trkpt lat="45.22535" lon="4.4613">
        <ele>1092</ele>
        <time>2021-04-27T08:23:35Z</time>
      </trkpt>
      <trkpt lat="45.22532" lon="4.4613">
        <ele>1092</ele>
        <time>2021-04-27T08:23:36Z</time>
      </trkpt>
      <trkpt lat="45.22529" lon="4.4613">
        <ele>1092</ele>
        <time>2021-04-27T08:23:37Z</time>
      </trkpt>
      <trkpt lat="45.22526" lon="4.46131">
        <ele>1092</ele>
        <time>2021-04-27T08:23:38Z</time>
      </trkpt>
      <trkpt lat="45.22523" lon="4.46131">
        <ele>1093</ele>
        <time>2021-04-27T08:23:39Z</time>
      </trkpt>
      <trkpt lat="45.2252" lon="4.46131">
        <ele>1093</ele>
        <time>2021-04-27T08:23:40Z</time>
      </trkpt>
      <trkpt lat="45.22517" lon="4.46131">
        <ele>1093</ele>
        <time>2021-04-27T08:23:41Z</time>
      </trkpt>
      <trkpt lat="45.22514" lon="4.46131">
        <ele>1093</ele>
        <time>2021-04-27T08:23:42Z</time>
      </trkpt>
      <trkpt lat="45.22511" lon="4.46131">
        <ele>1093</ele>
        <time>2021-04-27T08:23:43Z</time>
      </trkpt>
      <trkpt lat="45.22508" lon="4.46131">
        <ele>1093</ele>
        <time>2021-04-27T08:23:44Z</time>
      </trkpt>
      <trkpt lat="45.22505" lon="4.46131">
        <ele>1093</ele>
        <time>2021-04-27T08:23:45Z</time>
      </trkpt>
      <trkpt lat="45.22502" lon="4.46131">
        <ele>1093</ele>
        <time>2021-04-27T08:23:46Z</time>
      </trkpt>
      <trkpt lat="45.22499" lon="4.46131">
        <ele>1094</ele>
        <time>2021-04-27T08:23:47Z</time>
      </trkpt>
      <trkpt lat="45.22496" lon="4.46131">
        <ele>1094</ele>
        <time>2021-04-27T08:23:48Z</time>
      </trkpt>
      <trkpt lat="45.22493" lon="4.4613">
        <ele>1094</ele>
        <time>2021-04-27T08:23:49Z</time>
      </trkpt>
      <trkpt lat="45.22489" lon="4.4613">
        <ele>1094</ele>
        <time>2021-04-27T08:23:50Z</time>
      </trkpt>
      <trkpt lat="45.22486" lon="4.4613">
        <ele>1094</ele>
        <time>2021-04-27T08:23:51Z</time>
      </trkpt>
      <trkpt lat="45.22483" lon="4.4613">
        <ele>1094</ele>
        <time>2021-04-27T08:23:52Z</time>
      </trkpt>
      <trkpt lat="45.2248" lon="4.4613">
        <ele>1094</ele>
        <time>2021-04-27T08:23:53Z</time>
      </trkpt>
      <trkpt lat="45.22477" lon="4.4613">
        <ele>1095</ele>
        <time>2021-04-27T08:23:54Z</time>
      </trkpt>
      <trkpt lat="45.22474" lon="4.46131">
        <ele>1095</ele>
        <time>2021-04-27T08:23:55Z</time>
      </trkpt>
      <trkpt lat="45.22471" lon="4.46131">
        <ele>1095</ele>
        <time>2021-04-27T08:23:56Z</time>
      </trkpt>
      <trkpt lat="45.22468" lon="4.46132">
        <ele>1095</ele>
        <time>2021-04-27T08:23:57Z</time>
      </trkpt>
      <trkpt lat="45.22464" lon="4.46132">
        <ele>1095</ele>
        <time>2021-04-27T08:23:58Z</time>
      </trkpt>
      <trkpt lat="45.22461" lon="4.46133">
        <ele>1095</ele>
        <time>2021-04-27T08:23:59Z</time>
      </trkpt>
      <trkpt lat="45.22458" lon="4.46134">
        <ele>1095</ele>
        <time>2021-04-27T08:24:00Z</time>
      </trkpt>
      <trkpt lat="45.22455" lon="4.46134">
        <ele>1095</ele>
        <time>2021-04-27T08:24:01Z</time>
      </trkpt>
      <trkpt lat="45.22451" lon="4.46135">
        <ele>1095</ele>
        <time>2021-04-27T08:24:02Z</time>
      </trkpt>
      <trkpt lat="45.22448" lon="4.46135">
        <ele>1095</ele>
        <time>2021-04-27T08:24:03Z</time>
      </trkpt>
      <trkpt lat="45.22444" lon="4.46136">
        <ele>1095</ele>
        <time>2021-04-27T08:24:04Z</time>
      </trkpt>
      <trkpt lat="45.22441" lon="4.46137">
        <ele>1095</ele>
        <time>2021-04-27T08:24:05Z</time>
      </trkpt>
      <trkpt lat="45.22437" lon="4.46137">
        <ele>1095</ele>
        <time>2021-04-27T08:24:06Z</time>
      </trkpt>
      <trkpt lat="45.22433" lon="4.46138">
        <ele>1095</ele>
        <time>2021-04-27T08:24:07Z</time>
      </trkpt>
      <trkpt lat="45.22429" lon="4.46139">
        <ele>1095</ele>
        <time>2021-04-27T08:24:08Z</time>
      </trkpt>
      <trkpt lat="45.22425" lon="4.4614">
        <ele>1095</ele>
        <time>2021-04-27T08:24:09Z</time>
      </trkpt>
      <trkpt lat="45.22422" lon="4.46141">
        <ele>1095</ele>
        <time>2021-04-27T08:24:10Z</time>
      </trkpt>
      <trkpt lat="45.22419" lon="4.46143">
        <ele>1096</ele>
        <time>2021-04-27T08:24:11Z</time>
      </trkpt>
      <trkpt lat="45.22416" lon="4.46144">
        <ele>1096</ele>
        <time>2021-04-27T08:24:12Z</time>
      </trkpt>
      <trkpt lat="45.22413" lon="4.46145">
        <ele>1096</ele>
        <time>2021-04-27T08:24:13Z</time>
      </trkpt>
      <trkpt lat="45.2241" lon="4.46146">
        <ele>1096</ele>
        <time>2021-04-27T08:24:14Z</time>
      </trkpt>
      <trkpt lat="45.22407" lon="4.46147">
        <ele>1097</ele>
        <time>2021-04-27T08:24:15Z</time>
      </trkpt>
      <trkpt lat="45.22404" lon="4.46149">
        <ele>1097</ele>
        <time>2021-04-27T08:24:16Z</time>
      </trkpt>
      <trkpt lat="45.22402" lon="4.4615">
        <ele>1097</ele>
        <time>2021-04-27T08:24:17Z</time>
      </trkpt>
      <trkpt lat="45.22399" lon="4.46151">
        <ele>1097</ele>
        <time>2021-04-27T08:24:18Z</time>
      </trkpt>
      <trkpt lat="45.22395" lon="4.46152">
        <ele>1098</ele>
        <time>2021-04-27T08:24:19Z</time>
      </trkpt>
      <trkpt lat="45.22392" lon="4.46153">
        <ele>1098</ele>
        <time>2021-04-27T08:24:20Z</time>
      </trkpt>
      <trkpt lat="45.22388" lon="4.46154">
        <ele>1098</ele>
        <time>2021-04-27T08:24:21Z</time>
      </trkpt>
      <trkpt lat="45.22385" lon="4.46155">
        <ele>1098</ele>
        <time>2021-04-27T08:24:22Z</time>
      </trkpt>
      <trkpt lat="45.22381" lon="4.46155">
        <ele>1098</ele>
        <time>2021-04-27T08:24:23Z</time>
      </trkpt>
      <trkpt lat="45.22378" lon="4.46156">
        <ele>1099</ele>
        <time>2021-04-27T08:24:24Z</time>
      </trkpt>
      <trkpt lat="45.22375" lon="4.46157">
        <ele>1099</ele>
        <time>2021-04-27T08:24:25Z</time>
      </trkpt>
      <trkpt lat="45.22371" lon="4.46158">
        <ele>1099</ele>
        <time>2021-04-27T08:24:26Z</time>
      </trkpt>
      <trkpt lat="45.22368" lon="4.46159">
        <ele>1099</ele>
        <time>2021-04-27T08:24:27Z</time>
      </trkpt>
      <trkpt lat="45.22365" lon="4.4616">
        <ele>1100</ele>
        <time>2021-04-27T08:24:28Z</time>
      </trkpt>
      <trkpt lat="45.22361" lon="4.4616">
        <ele>1100</ele>
        <time>2021-04-27T08:24:29Z</time>
      </trkpt>
      <trkpt lat="45.22357" lon="4.46161">
        <ele>1100</ele>
        <time>2021-04-27T08:24:30Z</time>
      </trkpt>
      <trkpt lat="45.22354" lon="4.46162">
        <ele>1100</ele>
        <time>2021-04-27T08:24:31Z</time>
      </trkpt>
      <trkpt lat="45.22351" lon="4.46162">
        <ele>1101</ele>
        <time>2021-04-27T08:24:32Z</time>
      </trkpt>
      <trkpt lat="45.22348" lon="4.46164">
        <ele>1101</ele>
        <time>2021-04-27T08:24:34Z</time>
      </trkpt>
      <trkpt lat="45.22347" lon="4.46165">
        <ele>1103</ele>
        <time>2021-04-27T08:24:42Z</time>
      </trkpt>
      <trkpt lat="45.22344" lon="4.46164">
        <ele>1103</ele>
        <time>2021-04-27T08:24:49Z</time>
      </trkpt>
      <trkpt lat="45.2234" lon="4.46164">
        <ele>1103</ele>
        <time>2021-04-27T08:24:50Z</time>
      </trkpt>
      <trkpt lat="45.22338" lon="4.46163">
        <ele>1103</ele>
        <time>2021-04-27T08:24:51Z</time>
      </trkpt>
      <trkpt lat="45.22336" lon="4.46164">
        <ele>1104</ele>
        <time>2021-04-27T08:24:53Z</time>
      </trkpt>
      <trkpt lat="45.22333" lon="4.46164">
        <ele>1104</ele>
        <time>2021-04-27T08:24:55Z</time>
      </trkpt>
      <trkpt lat="45.22329" lon="4.46164">
        <ele>1105</ele>
        <time>2021-04-27T08:24:57Z</time>
      </trkpt>
      <trkpt lat="45.22326" lon="4.46164">
        <ele>1105</ele>
        <time>2021-04-27T08:24:59Z</time>
      </trkpt>
      <trkpt lat="45.22324" lon="4.46164">
        <ele>1105</ele>
        <time>2021-04-27T08:25:00Z</time>
      </trkpt>
      <trkpt lat="45.22321" lon="4.46163">
        <ele>1105</ele>
        <time>2021-04-27T08:25:02Z</time>
      </trkpt>
      <trkpt lat="45.22319" lon="4.46163">
        <ele>1106</ele>
        <time>2021-04-27T08:25:04Z</time>
      </trkpt>
      <trkpt lat="45.22316" lon="4.46163">
        <ele>1106</ele>
        <time>2021-04-27T08:25:06Z</time>
      </trkpt>
      <trkpt lat="45.22315" lon="4.46161">
        <ele>1106</ele>
        <time>2021-04-27T08:25:11Z</time>
      </trkpt>
      <trkpt lat="45.22307" lon="4.46163">
        <ele>1107</ele>
        <time>2021-04-27T08:26:37Z</time>
      </trkpt>
      <trkpt lat="45.22304" lon="4.46163">
        <ele>1107</ele>
        <time>2021-04-27T08:26:38Z</time>
      </trkpt>
      <trkpt lat="45.22301" lon="4.46163">
        <ele>1107</ele>
        <time>2021-04-27T08:26:39Z</time>
      </trkpt>
      <trkpt lat="45.22297" lon="4.46163">
        <ele>1107</ele>
        <time>2021-04-27T08:26:40Z</time>
      </trkpt>
      <trkpt lat="45.22293" lon="4.46163">
        <ele>1107</ele>
        <time>2021-04-27T08:26:41Z</time>
      </trkpt>
      <trkpt lat="45.22288" lon="4.46163">
        <ele>1107</ele>
        <time>2021-04-27T08:26:42Z</time>
      </trkpt>
      <trkpt lat="45.22284" lon="4.46163">
        <ele>1107</ele>
        <time>2021-04-27T08:26:43Z</time>
      </trkpt>
      <trkpt lat="45.22279" lon="4.46163">
        <ele>1107</ele>
        <time>2021-04-27T08:26:44Z</time>
      </trkpt>
      <trkpt lat="45.22275" lon="4.46163">
        <ele>1107</ele>
        <time>2021-04-27T08:26:45Z</time>
      </trkpt>
      <trkpt lat="45.22269" lon="4.46163">
        <ele>1107</ele>
        <time>2021-04-27T08:26:46Z</time>
      </trkpt>
      <trkpt lat="45.22264" lon="4.46162">
        <ele>1108</ele>
        <time>2021-04-27T08:26:47Z</time>
      </trkpt>
      <trkpt lat="45.22258" lon="4.46163">
        <ele>1108</ele>
        <time>2021-04-27T08:26:48Z</time>
      </trkpt>
      <trkpt lat="45.22253" lon="4.46163">
        <ele>1108</ele>
        <time>2021-04-27T08:26:49Z</time>
      </trkpt>
      <trkpt lat="45.22247" lon="4.46163">
        <ele>1107</ele>
        <time>2021-04-27T08:26:50Z</time>
      </trkpt>
      <trkpt lat="45.22241" lon="4.46164">
        <ele>1107</ele>
        <time>2021-04-27T08:26:51Z</time>
      </trkpt>
      <trkpt lat="45.22236" lon="4.46164">
        <ele>1107</ele>
        <time>2021-04-27T08:26:52Z</time>
      </trkpt>
      <trkpt lat="45.2223" lon="4.46164">
        <ele>1107</ele>
        <time>2021-04-27T08:26:53Z</time>
      </trkpt>
      <trkpt lat="45.22225" lon="4.46164">
        <ele>1108</ele>
        <time>2021-04-27T08:26:54Z</time>
      </trkpt>
      <trkpt lat="45.22221" lon="4.46165">
        <ele>1107</ele>
        <time>2021-04-27T08:26:55Z</time>
      </trkpt>
      <trkpt lat="45.22216" lon="4.46165">
        <ele>1107</ele>
        <time>2021-04-27T08:26:56Z</time>
      </trkpt>
      <trkpt lat="45.22212" lon="4.46166">
        <ele>1107</ele>
        <time>2021-04-27T08:26:57Z</time>
      </trkpt>
      <trkpt lat="45.22208" lon="4.46167">
        <ele>1107</ele>
        <time>2021-04-27T08:26:58Z</time>
      </trkpt>
      <trkpt lat="45.22203" lon="4.46167">
        <ele>1107</ele>
        <time>2021-04-27T08:26:59Z</time>
      </trkpt>
      <trkpt lat="45.22199" lon="4.46168">
        <ele>1107</ele>
        <time>2021-04-27T08:27:00Z</time>
      </trkpt>
      <trkpt lat="45.22194" lon="4.46169">
        <ele>1107</ele>
        <time>2021-04-27T08:27:01Z</time>
      </trkpt>
      <trkpt lat="45.2219" lon="4.4617">
        <ele>1107</ele>
        <time>2021-04-27T08:27:02Z</time>
      </trkpt>
      <trkpt lat="45.22186" lon="4.46171">
        <ele>1107</ele>
        <time>2021-04-27T08:27:03Z</time>
      </trkpt>
      <trkpt lat="45.22182" lon="4.46172">
        <ele>1108</ele>
        <time>2021-04-27T08:27:04Z</time>
      </trkpt>
      <trkpt lat="45.22178" lon="4.46173">
        <ele>1108</ele>
        <time>2021-04-27T08:27:05Z</time>
      </trkpt>
      <trkpt lat="45.22174" lon="4.46175">
        <ele>1108</ele>
        <time>2021-04-27T08:27:06Z</time>
      </trkpt>
      <trkpt lat="45.2217" lon="4.46176">
        <ele>1108</ele>
        <time>2021-04-27T08:27:07Z</time>
      </trkpt>
      <trkpt lat="45.22166" lon="4.46178">
        <ele>1108</ele>
        <time>2021-04-27T08:27:08Z</time>
      </trkpt>
      <trkpt lat="45.22163" lon="4.46181">
        <ele>1108</ele>
        <time>2021-04-27T08:27:09Z</time>
      </trkpt>
      <trkpt lat="45.2216" lon="4.46184">
        <ele>1108</ele>
        <time>2021-04-27T08:27:10Z</time>
      </trkpt>
      <trkpt lat="45.22156" lon="4.46188">
        <ele>1108</ele>
        <time>2021-04-27T08:27:11Z</time>
      </trkpt>
      <trkpt lat="45.22153" lon="4.46192">
        <ele>1108</ele>
        <time>2021-04-27T08:27:12Z</time>
      </trkpt>
      <trkpt lat="45.2215" lon="4.46195">
        <ele>1109</ele>
        <time>2021-04-27T08:27:13Z</time>
      </trkpt>
      <trkpt lat="45.22147" lon="4.46199">
        <ele>1109</ele>
        <time>2021-04-27T08:27:14Z</time>
      </trkpt>
      <trkpt lat="45.22144" lon="4.46203">
        <ele>1110</ele>
        <time>2021-04-27T08:27:15Z</time>
      </trkpt>
      <trkpt lat="45.22141" lon="4.46207">
        <ele>1110</ele>
        <time>2021-04-27T08:27:16Z</time>
      </trkpt>
      <trkpt lat="45.22139" lon="4.4621">
        <ele>1111</ele>
        <time>2021-04-27T08:27:17Z</time>
      </trkpt>
      <trkpt lat="45.22136" lon="4.46214">
        <ele>1111</ele>
        <time>2021-04-27T08:27:18Z</time>
      </trkpt>
      <trkpt lat="45.22133" lon="4.46217">
        <ele>1112</ele>
        <time>2021-04-27T08:27:19Z</time>
      </trkpt>
      <trkpt lat="45.22131" lon="4.46221">
        <ele>1112</ele>
        <time>2021-04-27T08:27:20Z</time>
      </trkpt>
      <trkpt lat="45.22129" lon="4.46224">
        <ele>1112</ele>
        <time>2021-04-27T08:27:21Z</time>
      </trkpt>
      <trkpt lat="45.22127" lon="4.46228">
        <ele>1113</ele>
        <time>2021-04-27T08:27:22Z</time>
      </trkpt>
      <trkpt lat="45.22126" lon="4.46233">
        <ele>1113</ele>
        <time>2021-04-27T08:27:23Z</time>
      </trkpt>
      <trkpt lat="45.22125" lon="4.46237">
        <ele>1114</ele>
        <time>2021-04-27T08:27:24Z</time>
      </trkpt>
      <trkpt lat="45.22124" lon="4.46241">
        <ele>1114</ele>
        <time>2021-04-27T08:27:25Z</time>
      </trkpt>
      <trkpt lat="45.22124" lon="4.46246">
        <ele>1115</ele>
        <time>2021-04-27T08:27:26Z</time>
      </trkpt>
      <trkpt lat="45.22123" lon="4.4625">
        <ele>1115</ele>
        <time>2021-04-27T08:27:27Z</time>
      </trkpt>
      <trkpt lat="45.22123" lon="4.46254">
        <ele>1115</ele>
        <time>2021-04-27T08:27:28Z</time>
      </trkpt>
      <trkpt lat="45.22122" lon="4.46258">
        <ele>1116</ele>
        <time>2021-04-27T08:27:29Z</time>
      </trkpt>
      <trkpt lat="45.22122" lon="4.46261">
        <ele>1116</ele>
        <time>2021-04-27T08:27:30Z</time>
      </trkpt>
      <trkpt lat="45.22121" lon="4.46265">
        <ele>1116</ele>
        <time>2021-04-27T08:27:31Z</time>
      </trkpt>
      <trkpt lat="45.22121" lon="4.46268">
        <ele>1117</ele>
        <time>2021-04-27T08:27:32Z</time>
      </trkpt>
      <trkpt lat="45.22119" lon="4.46271">
        <ele>1117</ele>
        <time>2021-04-27T08:27:33Z</time>
      </trkpt>
      <trkpt lat="45.22118" lon="4.46275">
        <ele>1117</ele>
        <time>2021-04-27T08:27:34Z</time>
      </trkpt>
      <trkpt lat="45.22118" lon="4.4628">
        <ele>1117</ele>
        <time>2021-04-27T08:27:35Z</time>
      </trkpt>
      <trkpt lat="45.22118" lon="4.46286">
        <ele>1117</ele>
        <time>2021-04-27T08:27:36Z</time>
      </trkpt>
      <trkpt lat="45.22119" lon="4.46292">
        <ele>1117</ele>
        <time>2021-04-27T08:27:37Z</time>
      </trkpt>
      <trkpt lat="45.22121" lon="4.463">
        <ele>1117</ele>
        <time>2021-04-27T08:27:38Z</time>
      </trkpt>
      <trkpt lat="45.22122" lon="4.46308">
        <ele>1117</ele>
        <time>2021-04-27T08:27:39Z</time>
      </trkpt>
      <trkpt lat="45.22125" lon="4.46316">
        <ele>1117</ele>
        <time>2021-04-27T08:27:40Z</time>
      </trkpt>
      <trkpt lat="45.22126" lon="4.46323">
        <ele>1117</ele>
        <time>2021-04-27T08:27:41Z</time>
      </trkpt>
      <trkpt lat="45.22128" lon="4.46331">
        <ele>1117</ele>
        <time>2021-04-27T08:27:42Z</time>
      </trkpt>
      <trkpt lat="45.22129" lon="4.46339">
        <ele>1117</ele>
        <time>2021-04-27T08:27:43Z</time>
      </trkpt>
      <trkpt lat="45.22131" lon="4.46346">
        <ele>1117</ele>
        <time>2021-04-27T08:27:44Z</time>
      </trkpt>
      <trkpt lat="45.22132" lon="4.46354">
        <ele>1117</ele>
        <time>2021-04-27T08:27:45Z</time>
      </trkpt>
      <trkpt lat="45.22134" lon="4.46362">
        <ele>1117</ele>
        <time>2021-04-27T08:27:46Z</time>
      </trkpt>
      <trkpt lat="45.22136" lon="4.4637">
        <ele>1116</ele>
        <time>2021-04-27T08:27:47Z</time>
      </trkpt>
      <trkpt lat="45.22139" lon="4.46379">
        <ele>1116</ele>
        <time>2021-04-27T08:27:48Z</time>
      </trkpt>
      <trkpt lat="45.22141" lon="4.46388">
        <ele>1115</ele>
        <time>2021-04-27T08:27:49Z</time>
      </trkpt>
      <trkpt lat="45.22144" lon="4.46398">
        <ele>1115</ele>
        <time>2021-04-27T08:27:50Z</time>
      </trkpt>
      <trkpt lat="45.22146" lon="4.46407">
        <ele>1114</ele>
        <time>2021-04-27T08:27:51Z</time>
      </trkpt>
      <trkpt lat="45.22148" lon="4.46416">
        <ele>1114</ele>
        <time>2021-04-27T08:27:52Z</time>
      </trkpt>
      <trkpt lat="45.2215" lon="4.46424">
        <ele>1113</ele>
        <time>2021-04-27T08:27:53Z</time>
      </trkpt>
      <trkpt lat="45.22152" lon="4.46432">
        <ele>1113</ele>
        <time>2021-04-27T08:27:54Z</time>
      </trkpt>
      <trkpt lat="45.22154" lon="4.4644">
        <ele>1113</ele>
        <time>2021-04-27T08:27:55Z</time>
      </trkpt>
      <trkpt lat="45.22156" lon="4.46449">
        <ele>1113</ele>
        <time>2021-04-27T08:27:56Z</time>
      </trkpt>
      <trkpt lat="45.22157" lon="4.4646">
        <ele>1112</ele>
        <time>2021-04-27T08:27:57Z</time>
      </trkpt>
      <trkpt lat="45.22159" lon="4.46471">
        <ele>1111</ele>
        <time>2021-04-27T08:27:58Z</time>
      </trkpt>
      <trkpt lat="45.2216" lon="4.46481">
        <ele>1110</ele>
        <time>2021-04-27T08:27:59Z</time>
      </trkpt>
      <trkpt lat="45.22162" lon="4.4649">
        <ele>1110</ele>
        <time>2021-04-27T08:28:00Z</time>
      </trkpt>
      <trkpt lat="45.22163" lon="4.46499">
        <ele>1109</ele>
        <time>2021-04-27T08:28:01Z</time>
      </trkpt>
      <trkpt lat="45.22164" lon="4.46506">
        <ele>1109</ele>
        <time>2021-04-27T08:28:02Z</time>
      </trkpt>
      <trkpt lat="45.22164" lon="4.46512">
        <ele>1108</ele>
        <time>2021-04-27T08:28:03Z</time>
      </trkpt>
      <trkpt lat="45.22164" lon="4.46515">
        <ele>1108</ele>
        <time>2021-04-27T08:28:04Z</time>
      </trkpt>
      <trkpt lat="45.22163" lon="4.4652">
        <ele>1107</ele>
        <time>2021-04-27T08:28:05Z</time>
      </trkpt>
      <trkpt lat="45.22162" lon="4.46525">
        <ele>1106</ele>
        <time>2021-04-27T08:28:06Z</time>
      </trkpt>
      <trkpt lat="45.22162" lon="4.4653">
        <ele>1106</ele>
        <time>2021-04-27T08:28:07Z</time>
      </trkpt>
      <trkpt lat="45.22162" lon="4.46536">
        <ele>1105</ele>
        <time>2021-04-27T08:28:08Z</time>
      </trkpt>
      <trkpt lat="45.22163" lon="4.46542">
        <ele>1105</ele>
        <time>2021-04-27T08:28:09Z</time>
      </trkpt>
      <trkpt lat="45.22165" lon="4.46548">
        <ele>1105</ele>
        <time>2021-04-27T08:28:10Z</time>
      </trkpt>
      <trkpt lat="45.22166" lon="4.46554">
        <ele>1105</ele>
        <time>2021-04-27T08:28:11Z</time>
      </trkpt>
      <trkpt lat="45.22168" lon="4.46561">
        <ele>1104</ele>
        <time>2021-04-27T08:28:12Z</time>
      </trkpt>
      <trkpt lat="45.2217" lon="4.46567">
        <ele>1104</ele>
        <time>2021-04-27T08:28:13Z</time>
      </trkpt>
      <trkpt lat="45.22171" lon="4.46573">
        <ele>1104</ele>
        <time>2021-04-27T08:28:14Z</time>
      </trkpt>
      <trkpt lat="45.22173" lon="4.4658">
        <ele>1104</ele>
        <time>2021-04-27T08:28:15Z</time>
      </trkpt>
      <trkpt lat="45.22174" lon="4.46587">
        <ele>1104</ele>
        <time>2021-04-27T08:28:16Z</time>
      </trkpt>
      <trkpt lat="45.22175" lon="4.46595">
        <ele>1103</ele>
        <time>2021-04-27T08:28:17Z</time>
      </trkpt>
      <trkpt lat="45.22176" lon="4.46603">
        <ele>1103</ele>
        <time>2021-04-27T08:28:18Z</time>
      </trkpt>
      <trkpt lat="45.22177" lon="4.4661">
        <ele>1103</ele>
        <time>2021-04-27T08:28:19Z</time>
      </trkpt>
      <trkpt lat="45.22178" lon="4.46618">
        <ele>1103</ele>
        <time>2021-04-27T08:28:20Z</time>
      </trkpt>
      <trkpt lat="45.22178" lon="4.46626">
        <ele>1103</ele>
        <time>2021-04-27T08:28:21Z</time>
      </trkpt>
      <trkpt lat="45.22179" lon="4.46635">
        <ele>1102</ele>
        <time>2021-04-27T08:28:22Z</time>
      </trkpt>
      <trkpt lat="45.22179" lon="4.46643">
        <ele>1102</ele>
        <time>2021-04-27T08:28:23Z</time>
      </trkpt>
      <trkpt lat="45.2218" lon="4.46651">
        <ele>1102</ele>
        <time>2021-04-27T08:28:24Z</time>
      </trkpt>
      <trkpt lat="45.2218" lon="4.46659">
        <ele>1102</ele>
        <time>2021-04-27T08:28:25Z</time>
      </trkpt>
      <trkpt lat="45.22181" lon="4.46667">
        <ele>1102</ele>
        <time>2021-04-27T08:28:26Z</time>
      </trkpt>
      <trkpt lat="45.22181" lon="4.46675">
        <ele>1101</ele>
        <time>2021-04-27T08:28:27Z</time>
      </trkpt>
      <trkpt lat="45.22182" lon="4.46681">
        <ele>1101</ele>
        <time>2021-04-27T08:28:28Z</time>
      </trkpt>
      <trkpt lat="45.22183" lon="4.46688">
        <ele>1100</ele>
        <time>2021-04-27T08:28:29Z</time>
      </trkpt>
      <trkpt lat="45.22183" lon="4.46695">
        <ele>1100</ele>
        <time>2021-04-27T08:28:30Z</time>
      </trkpt>
      <trkpt lat="45.22184" lon="4.46703">
        <ele>1099</ele>
        <time>2021-04-27T08:28:31Z</time>
      </trkpt>
      <trkpt lat="45.22185" lon="4.4671">
        <ele>1099</ele>
        <time>2021-04-27T08:28:32Z</time>
      </trkpt>
      <trkpt lat="45.22184" lon="4.46717">
        <ele>1099</ele>
        <time>2021-04-27T08:28:33Z</time>
      </trkpt>
      <trkpt lat="45.22183" lon="4.46722">
        <ele>1098</ele>
        <time>2021-04-27T08:28:34Z</time>
      </trkpt>
      <trkpt lat="45.22183" lon="4.46728">
        <ele>1098</ele>
        <time>2021-04-27T08:28:35Z</time>
      </trkpt>
      <trkpt lat="45.22183" lon="4.46734">
        <ele>1098</ele>
        <time>2021-04-27T08:28:36Z</time>
      </trkpt>
      <trkpt lat="45.22184" lon="4.4674">
        <ele>1097</ele>
        <time>2021-04-27T08:28:37Z</time>
      </trkpt>
      <trkpt lat="45.22186" lon="4.46746">
        <ele>1097</ele>
        <time>2021-04-27T08:28:38Z</time>
      </trkpt>
      <trkpt lat="45.22189" lon="4.46751">
        <ele>1097</ele>
        <time>2021-04-27T08:28:39Z</time>
      </trkpt>
      <trkpt lat="45.22192" lon="4.46757">
        <ele>1097</ele>
        <time>2021-04-27T08:28:40Z</time>
      </trkpt>
      <trkpt lat="45.22195" lon="4.46762">
        <ele>1097</ele>
        <time>2021-04-27T08:28:41Z</time>
      </trkpt>
      <trkpt lat="45.22197" lon="4.46767">
        <ele>1097</ele>
        <time>2021-04-27T08:28:42Z</time>
      </trkpt>
      <trkpt lat="45.22199" lon="4.46772">
        <ele>1097</ele>
        <time>2021-04-27T08:28:43Z</time>
      </trkpt>
      <trkpt lat="45.22201" lon="4.46777">
        <ele>1097</ele>
        <time>2021-04-27T08:28:44Z</time>
      </trkpt>
      <trkpt lat="45.22203" lon="4.46782">
        <ele>1097</ele>
        <time>2021-04-27T08:28:45Z</time>
      </trkpt>
      <trkpt lat="45.22204" lon="4.46787">
        <ele>1097</ele>
        <time>2021-04-27T08:28:46Z</time>
      </trkpt>
      <trkpt lat="45.22205" lon="4.46793">
        <ele>1097</ele>
        <time>2021-04-27T08:28:47Z</time>
      </trkpt>
      <trkpt lat="45.22206" lon="4.46798">
        <ele>1097</ele>
        <time>2021-04-27T08:28:48Z</time>
      </trkpt>
      <trkpt lat="45.22208" lon="4.46803">
        <ele>1097</ele>
        <time>2021-04-27T08:28:49Z</time>
      </trkpt>
      <trkpt lat="45.22209" lon="4.46809">
        <ele>1098</ele>
        <time>2021-04-27T08:28:50Z</time>
      </trkpt>
      <trkpt lat="45.2221" lon="4.46815">
        <ele>1098</ele>
        <time>2021-04-27T08:28:51Z</time>
      </trkpt>
      <trkpt lat="45.22211" lon="4.4682">
        <ele>1098</ele>
        <time>2021-04-27T08:28:52Z</time>
      </trkpt>
      <trkpt lat="45.22211" lon="4.46826">
        <ele>1098</ele>
        <time>2021-04-27T08:28:53Z</time>
      </trkpt>
      <trkpt lat="45.22212" lon="4.46832">
        <ele>1098</ele>
        <time>2021-04-27T08:28:54Z</time>
      </trkpt>
      <trkpt lat="45.22213" lon="4.46838">
        <ele>1098</ele>
        <time>2021-04-27T08:28:55Z</time>
      </trkpt>
      <trkpt lat="45.22215" lon="4.46843">
        <ele>1098</ele>
        <time>2021-04-27T08:28:56Z</time>
      </trkpt>
      <trkpt lat="45.22216" lon="4.46849">
        <ele>1098</ele>
        <time>2021-04-27T08:28:57Z</time>
      </trkpt>
      <trkpt lat="45.22217" lon="4.46854">
        <ele>1098</ele>
        <time>2021-04-27T08:28:58Z</time>
      </trkpt>
      <trkpt lat="45.22219" lon="4.46859">
        <ele>1098</ele>
        <time>2021-04-27T08:28:59Z</time>
      </trkpt>
      <trkpt lat="45.2222" lon="4.46865">
        <ele>1098</ele>
        <time>2021-04-27T08:29:00Z</time>
      </trkpt>
      <trkpt lat="45.22221" lon="4.46871">
        <ele>1098</ele>
        <time>2021-04-27T08:29:01Z</time>
      </trkpt>
      <trkpt lat="45.22223" lon="4.46877">
        <ele>1098</ele>
        <time>2021-04-27T08:29:02Z</time>
      </trkpt>
      <trkpt lat="45.22224" lon="4.46883">
        <ele>1098</ele>
        <time>2021-04-27T08:29:03Z</time>
      </trkpt>
      <trkpt lat="45.22224" lon="4.46888">
        <ele>1098</ele>
        <time>2021-04-27T08:29:04Z</time>
      </trkpt>
      <trkpt lat="45.22225" lon="4.46894">
        <ele>1099</ele>
        <time>2021-04-27T08:29:05Z</time>
      </trkpt>
      <trkpt lat="45.22225" lon="4.469">
        <ele>1099</ele>
        <time>2021-04-27T08:29:06Z</time>
      </trkpt>
      <trkpt lat="45.22225" lon="4.46907">
        <ele>1099</ele>
        <time>2021-04-27T08:29:07Z</time>
      </trkpt>
      <trkpt lat="45.22225" lon="4.46913">
        <ele>1099</ele>
        <time>2021-04-27T08:29:08Z</time>
      </trkpt>
      <trkpt lat="45.22226" lon="4.46919">
        <ele>1099</ele>
        <time>2021-04-27T08:29:09Z</time>
      </trkpt>
      <trkpt lat="45.22226" lon="4.46925">
        <ele>1100</ele>
        <time>2021-04-27T08:29:10Z</time>
      </trkpt>
      <trkpt lat="45.22226" lon="4.4693">
        <ele>1100</ele>
        <time>2021-04-27T08:29:11Z</time>
      </trkpt>
      <trkpt lat="45.22227" lon="4.46936">
        <ele>1100</ele>
        <time>2021-04-27T08:29:12Z</time>
      </trkpt>
      <trkpt lat="45.22227" lon="4.46942">
        <ele>1100</ele>
        <time>2021-04-27T08:29:13Z</time>
      </trkpt>
      <trkpt lat="45.22227" lon="4.46948">
        <ele>1101</ele>
        <time>2021-04-27T08:29:14Z</time>
      </trkpt>
      <trkpt lat="45.22228" lon="4.46954">
        <ele>1101</ele>
        <time>2021-04-27T08:29:15Z</time>
      </trkpt>
      <trkpt lat="45.22228" lon="4.4696">
        <ele>1101</ele>
        <time>2021-04-27T08:29:16Z</time>
      </trkpt>
      <trkpt lat="45.22228" lon="4.46966">
        <ele>1101</ele>
        <time>2021-04-27T08:29:17Z</time>
      </trkpt>
      <trkpt lat="45.22228" lon="4.46972">
        <ele>1101</ele>
        <time>2021-04-27T08:29:18Z</time>
      </trkpt>
      <trkpt lat="45.22228" lon="4.46978">
        <ele>1101</ele>
        <time>2021-04-27T08:29:19Z</time>
      </trkpt>
      <trkpt lat="45.22228" lon="4.46985">
        <ele>1102</ele>
        <time>2021-04-27T08:29:20Z</time>
      </trkpt>
      <trkpt lat="45.22228" lon="4.46992">
        <ele>1102</ele>
        <time>2021-04-27T08:29:21Z</time>
      </trkpt>
      <trkpt lat="45.22228" lon="4.46998">
        <ele>1102</ele>
        <time>2021-04-27T08:29:22Z</time>
      </trkpt>
      <trkpt lat="45.22229" lon="4.47005">
        <ele>1102</ele>
        <time>2021-04-27T08:29:23Z</time>
      </trkpt>
      <trkpt lat="45.22229" lon="4.47011">
        <ele>1103</ele>
        <time>2021-04-27T08:29:24Z</time>
      </trkpt>
      <trkpt lat="45.22229" lon="4.47017">
        <ele>1103</ele>
        <time>2021-04-27T08:29:25Z</time>
      </trkpt>
      <trkpt lat="45.22229" lon="4.47024">
        <ele>1103</ele>
        <time>2021-04-27T08:29:26Z</time>
      </trkpt>
      <trkpt lat="45.22229" lon="4.4703">
        <ele>1103</ele>
        <time>2021-04-27T08:29:27Z</time>
      </trkpt>
      <trkpt lat="45.22229" lon="4.47036">
        <ele>1103</ele>
        <time>2021-04-27T08:29:28Z</time>
      </trkpt>
      <trkpt lat="45.22229" lon="4.47043">
        <ele>1103</ele>
        <time>2021-04-27T08:29:29Z</time>
      </trkpt>
      <trkpt lat="45.22229" lon="4.4705">
        <ele>1103</ele>
        <time>2021-04-27T08:29:30Z</time>
      </trkpt>
      <trkpt lat="45.2223" lon="4.47057">
        <ele>1104</ele>
        <time>2021-04-27T08:29:31Z</time>
      </trkpt>
      <trkpt lat="45.22231" lon="4.47064">
        <ele>1104</ele>
        <time>2021-04-27T08:29:32Z</time>
      </trkpt>
      <trkpt lat="45.22232" lon="4.4707">
        <ele>1104</ele>
        <time>2021-04-27T08:29:33Z</time>
      </trkpt>
      <trkpt lat="45.22234" lon="4.47077">
        <ele>1104</ele>
        <time>2021-04-27T08:29:34Z</time>
      </trkpt>
      <trkpt lat="45.22235" lon="4.47082">
        <ele>1104</ele>
        <time>2021-04-27T08:29:35Z</time>
      </trkpt>
      <trkpt lat="45.22237" lon="4.47088">
        <ele>1104</ele>
        <time>2021-04-27T08:29:36Z</time>
      </trkpt>
      <trkpt lat="45.22238" lon="4.47094">
        <ele>1104</ele>
        <time>2021-04-27T08:29:37Z</time>
      </trkpt>
      <trkpt lat="45.2224" lon="4.471">
        <ele>1104</ele>
        <time>2021-04-27T08:29:38Z</time>
      </trkpt>
      <trkpt lat="45.22241" lon="4.47107">
        <ele>1104</ele>
        <time>2021-04-27T08:29:39Z</time>
      </trkpt>
      <trkpt lat="45.22242" lon="4.47113">
        <ele>1104</ele>
        <time>2021-04-27T08:29:40Z</time>
      </trkpt>
      <trkpt lat="45.22242" lon="4.47119">
        <ele>1105</ele>
        <time>2021-04-27T08:29:41Z</time>
      </trkpt>
      <trkpt lat="45.22243" lon="4.47126">
        <ele>1105</ele>
        <time>2021-04-27T08:29:42Z</time>
      </trkpt>
      <trkpt lat="45.22243" lon="4.47132">
        <ele>1105</ele>
        <time>2021-04-27T08:29:43Z</time>
      </trkpt>
      <trkpt lat="45.22243" lon="4.47138">
        <ele>1105</ele>
        <time>2021-04-27T08:29:44Z</time>
      </trkpt>
      <trkpt lat="45.22242" lon="4.47145">
        <ele>1105</ele>
        <time>2021-04-27T08:29:45Z</time>
      </trkpt>
      <trkpt lat="45.22241" lon="4.47151">
        <ele>1105</ele>
        <time>2021-04-27T08:29:46Z</time>
      </trkpt>
      <trkpt lat="45.22241" lon="4.47157">
        <ele>1105</ele>
        <time>2021-04-27T08:29:47Z</time>
      </trkpt>
      <trkpt lat="45.2224" lon="4.47164">
        <ele>1105</ele>
        <time>2021-04-27T08:29:48Z</time>
      </trkpt>
      <trkpt lat="45.22239" lon="4.4717">
        <ele>1106</ele>
        <time>2021-04-27T08:29:49Z</time>
      </trkpt>
      <trkpt lat="45.22238" lon="4.47176">
        <ele>1106</ele>
        <time>2021-04-27T08:29:50Z</time>
      </trkpt>
      <trkpt lat="45.22237" lon="4.47183">
        <ele>1106</ele>
        <time>2021-04-27T08:29:51Z</time>
      </trkpt>
      <trkpt lat="45.22237" lon="4.47189">
        <ele>1106</ele>
        <time>2021-04-27T08:29:52Z</time>
      </trkpt>
      <trkpt lat="45.22237" lon="4.47196">
        <ele>1106</ele>
        <time>2021-04-27T08:29:53Z</time>
      </trkpt>
      <trkpt lat="45.22237" lon="4.47203">
        <ele>1106</ele>
        <time>2021-04-27T08:29:54Z</time>
      </trkpt>
      <trkpt lat="45.22238" lon="4.4721">
        <ele>1107</ele>
        <time>2021-04-27T08:29:55Z</time>
      </trkpt>
      <trkpt lat="45.22237" lon="4.47216">
        <ele>1107</ele>
        <time>2021-04-27T08:29:56Z</time>
      </trkpt>
      <trkpt lat="45.22237" lon="4.47223">
        <ele>1107</ele>
        <time>2021-04-27T08:29:57Z</time>
      </trkpt>
      <trkpt lat="45.22237" lon="4.47229">
        <ele>1107</ele>
        <time>2021-04-27T08:29:58Z</time>
      </trkpt>
      <trkpt lat="45.22236" lon="4.47241">
        <ele>1107</ele>
        <time>2021-04-27T08:30:00Z</time>
      </trkpt>
      <trkpt lat="45.22236" lon="4.47248">
        <ele>1107</ele>
        <time>2021-04-27T08:30:01Z</time>
      </trkpt>
      <trkpt lat="45.22236" lon="4.47254">
        <ele>1108</ele>
        <time>2021-04-27T08:30:02Z</time>
      </trkpt>
      <trkpt lat="45.22235" lon="4.4726">
        <ele>1108</ele>
        <time>2021-04-27T08:30:03Z</time>
      </trkpt>
      <trkpt lat="45.22235" lon="4.47266">
        <ele>1108</ele>
        <time>2021-04-27T08:30:04Z</time>
      </trkpt>
      <trkpt lat="45.22234" lon="4.47272">
        <ele>1108</ele>
        <time>2021-04-27T08:30:05Z</time>
      </trkpt>
      <trkpt lat="45.22233" lon="4.47277">
        <ele>1108</ele>
        <time>2021-04-27T08:30:06Z</time>
      </trkpt>
      <trkpt lat="45.22232" lon="4.47283">
        <ele>1108</ele>
        <time>2021-04-27T08:30:07Z</time>
      </trkpt>
      <trkpt lat="45.22231" lon="4.47289">
        <ele>1108</ele>
        <time>2021-04-27T08:30:08Z</time>
      </trkpt>
      <trkpt lat="45.2223" lon="4.47294">
        <ele>1108</ele>
        <time>2021-04-27T08:30:09Z</time>
      </trkpt>
      <trkpt lat="45.22229" lon="4.47299">
        <ele>1109</ele>
        <time>2021-04-27T08:30:10Z</time>
      </trkpt>
      <trkpt lat="45.22228" lon="4.47304">
        <ele>1109</ele>
        <time>2021-04-27T08:30:11Z</time>
      </trkpt>
      <trkpt lat="45.22227" lon="4.47309">
        <ele>1109</ele>
        <time>2021-04-27T08:30:12Z</time>
      </trkpt>
      <trkpt lat="45.22226" lon="4.47314">
        <ele>1110</ele>
        <time>2021-04-27T08:30:13Z</time>
      </trkpt>
      <trkpt lat="45.22225" lon="4.47319">
        <ele>1110</ele>
        <time>2021-04-27T08:30:14Z</time>
      </trkpt>
      <trkpt lat="45.22224" lon="4.47323">
        <ele>1111</ele>
        <time>2021-04-27T08:30:15Z</time>
      </trkpt>
      <trkpt lat="45.22223" lon="4.47328">
        <ele>1111</ele>
        <time>2021-04-27T08:30:16Z</time>
      </trkpt>
      <trkpt lat="45.22222" lon="4.47332">
        <ele>1111</ele>
        <time>2021-04-27T08:30:17Z</time>
      </trkpt>
      <trkpt lat="45.22221" lon="4.47336">
        <ele>1111</ele>
        <time>2021-04-27T08:30:18Z</time>
      </trkpt>
      <trkpt lat="45.22221" lon="4.4734">
        <ele>1111</ele>
        <time>2021-04-27T08:30:19Z</time>
      </trkpt>
      <trkpt lat="45.2222" lon="4.47344">
        <ele>1112</ele>
        <time>2021-04-27T08:30:20Z</time>
      </trkpt>
      <trkpt lat="45.22221" lon="4.47347">
        <ele>1112</ele>
        <time>2021-04-27T08:30:21Z</time>
      </trkpt>
      <trkpt lat="45.22222" lon="4.4735">
        <ele>1112</ele>
        <time>2021-04-27T08:30:22Z</time>
      </trkpt>
      <trkpt lat="45.22222" lon="4.47353">
        <ele>1112</ele>
        <time>2021-04-27T08:30:23Z</time>
      </trkpt>
      <trkpt lat="45.22222" lon="4.47356">
        <ele>1113</ele>
        <time>2021-04-27T08:30:24Z</time>
      </trkpt>
      <trkpt lat="45.22221" lon="4.4736">
        <ele>1113</ele>
        <time>2021-04-27T08:30:25Z</time>
      </trkpt>
      <trkpt lat="45.22221" lon="4.47364">
        <ele>1113</ele>
        <time>2021-04-27T08:30:26Z</time>
      </trkpt>
      <trkpt lat="45.2222" lon="4.47367">
        <ele>1113</ele>
        <time>2021-04-27T08:30:27Z</time>
      </trkpt>
      <trkpt lat="45.22218" lon="4.4737">
        <ele>1114</ele>
        <time>2021-04-27T08:30:28Z</time>
      </trkpt>
      <trkpt lat="45.22216" lon="4.47372">
        <ele>1114</ele>
        <time>2021-04-27T08:30:29Z</time>
      </trkpt>
      <trkpt lat="45.22214" lon="4.47375">
        <ele>1114</ele>
        <time>2021-04-27T08:30:30Z</time>
      </trkpt>
      <trkpt lat="45.22212" lon="4.47377">
        <ele>1114</ele>
        <time>2021-04-27T08:30:31Z</time>
      </trkpt>
      <trkpt lat="45.2221" lon="4.4738">
        <ele>1114</ele>
        <time>2021-04-27T08:30:32Z</time>
      </trkpt>
      <trkpt lat="45.22208" lon="4.47383">
        <ele>1114</ele>
        <time>2021-04-27T08:30:33Z</time>
      </trkpt>
      <trkpt lat="45.22207" lon="4.47387">
        <ele>1115</ele>
        <time>2021-04-27T08:30:34Z</time>
      </trkpt>
      <trkpt lat="45.22206" lon="4.4739">
        <ele>1115</ele>
        <time>2021-04-27T08:30:35Z</time>
      </trkpt>
      <trkpt lat="45.22204" lon="4.47393">
        <ele>1115</ele>
        <time>2021-04-27T08:30:36Z</time>
      </trkpt>
      <trkpt lat="45.22202" lon="4.47395">
        <ele>1115</ele>
        <time>2021-04-27T08:30:37Z</time>
      </trkpt>
      <trkpt lat="45.22201" lon="4.47398">
        <ele>1116</ele>
        <time>2021-04-27T08:30:38Z</time>
      </trkpt>
      <trkpt lat="45.222" lon="4.47401">
        <ele>1116</ele>
        <time>2021-04-27T08:30:39Z</time>
      </trkpt>
      <trkpt lat="45.22199" lon="4.47405">
        <ele>1116</ele>
        <time>2021-04-27T08:30:40Z</time>
      </trkpt>
      <trkpt lat="45.22198" lon="4.47408">
        <ele>1116</ele>
        <time>2021-04-27T08:30:41Z</time>
      </trkpt>
      <trkpt lat="45.22197" lon="4.47411">
        <ele>1116</ele>
        <time>2021-04-27T08:30:42Z</time>
      </trkpt>
      <trkpt lat="45.22196" lon="4.47414">
        <ele>1116</ele>
        <time>2021-04-27T08:30:43Z</time>
      </trkpt>
      <trkpt lat="45.22195" lon="4.47418">
        <ele>1117</ele>
        <time>2021-04-27T08:30:44Z</time>
      </trkpt>
      <trkpt lat="45.22182" lon="4.47529">
        <ele>1144.6</ele>
      </trkpt>
      <trkpt lat="45.22198" lon="4.47662">
        <ele>1147.8</ele>
      </trkpt>
      <trkpt lat="45.22175" lon="4.47704">
        <ele>1130</ele>
        <time>2021-04-27T08:31:52Z</time>
      </trkpt>
      <trkpt lat="45.22173" lon="4.47706">
        <ele>1130</ele>
        <time>2021-04-27T08:31:53Z</time>
      </trkpt>
      <trkpt lat="45.2217" lon="4.47708">
        <ele>1131</ele>
        <time>2021-04-27T08:31:54Z</time>
      </trkpt>
      <trkpt lat="45.22168" lon="4.4771">
        <ele>1131</ele>
        <time>2021-04-27T08:31:55Z</time>
      </trkpt>
      <trkpt lat="45.22167" lon="4.47713">
        <ele>1132</ele>
        <time>2021-04-27T08:31:56Z</time>
      </trkpt>
      <trkpt lat="45.22165" lon="4.47715">
        <ele>1132</ele>
        <time>2021-04-27T08:31:57Z</time>
      </trkpt>
      <trkpt lat="45.22156" lon="4.47722">
        <ele>1134</ele>
        <time>2021-04-27T08:32:01Z</time>
      </trkpt>
      <trkpt lat="45.22147" lon="4.47727">
        <ele>1135</ele>
        <time>2021-04-27T08:32:05Z</time>
      </trkpt>
      <trkpt lat="45.22138" lon="4.47734">
        <ele>1136</ele>
        <time>2021-04-27T08:32:09Z</time>
      </trkpt>
      <trkpt lat="45.22129" lon="4.4774">
        <ele>1138</ele>
        <time>2021-04-27T08:32:13Z</time>
      </trkpt>
      <trkpt lat="45.22121" lon="4.47744">
        <ele>1139</ele>
        <time>2021-04-27T08:32:16Z</time>
      </trkpt>
      <trkpt lat="45.22118" lon="4.47746">
        <ele>1140</ele>
        <time>2021-04-27T08:32:17Z</time>
      </trkpt>
      <trkpt lat="45.22116" lon="4.47747">
        <ele>1140</ele>
        <time>2021-04-27T08:32:18Z</time>
      </trkpt>
      <trkpt lat="45.22114" lon="4.47749">
        <ele>1141</ele>
        <time>2021-04-27T08:32:19Z</time>
      </trkpt>
      <trkpt lat="45.22111" lon="4.4775">
        <ele>1141</ele>
        <time>2021-04-27T08:32:20Z</time>
      </trkpt>
      <trkpt lat="45.22108" lon="4.47752">
        <ele>1142</ele>
        <time>2021-04-27T08:32:21Z</time>
      </trkpt>
      <trkpt lat="45.22106" lon="4.47755">
        <ele>1142</ele>
        <time>2021-04-27T08:32:22Z</time>
      </trkpt>
      <trkpt lat="45.22104" lon="4.47757">
        <ele>1142</ele>
        <time>2021-04-27T08:32:23Z</time>
      </trkpt>
      <trkpt lat="45.22102" lon="4.47759">
        <ele>1143</ele>
        <time>2021-04-27T08:32:24Z</time>
      </trkpt>
      <trkpt lat="45.22099" lon="4.47762">
        <ele>1143</ele>
        <time>2021-04-27T08:32:25Z</time>
      </trkpt>
      <trkpt lat="45.22097" lon="4.47763">
        <ele>1144</ele>
        <time>2021-04-27T08:32:26Z</time>
      </trkpt>
      <trkpt lat="45.22094" lon="4.47765">
        <ele>1144</ele>
        <time>2021-04-27T08:32:27Z</time>
      </trkpt>
      <trkpt lat="45.22084" lon="4.47773">
        <ele>1146</ele>
        <time>2021-04-27T08:32:32Z</time>
      </trkpt>
      <trkpt lat="45.22077" lon="4.47781">
        <ele>1147</ele>
        <time>2021-04-27T08:32:34Z</time>
      </trkpt>
      <trkpt lat="45.22069" lon="4.47794">
        <ele>1148</ele>
        <time>2021-04-27T08:32:37Z</time>
      </trkpt>
      <trkpt lat="45.22061" lon="4.47805">
        <ele>1149</ele>
        <time>2021-04-27T08:32:40Z</time>
      </trkpt>
      <trkpt lat="45.22054" lon="4.47816">
        <ele>1150</ele>
        <time>2021-04-27T08:32:43Z</time>
      </trkpt>
      <trkpt lat="45.22046" lon="4.47828">
        <ele>1151</ele>
        <time>2021-04-27T08:32:46Z</time>
      </trkpt>
      <trkpt lat="45.2204" lon="4.47841">
        <ele>1152</ele>
        <time>2021-04-27T08:32:49Z</time>
      </trkpt>
      <trkpt lat="45.22033" lon="4.4785">
        <ele>1153</ele>
        <time>2021-04-27T08:32:52Z</time>
      </trkpt>
      <trkpt lat="45.22027" lon="4.47863">
        <ele>1155</ele>
        <time>2021-04-27T08:32:56Z</time>
      </trkpt>
      <trkpt lat="45.22021" lon="4.47874">
        <ele>1157</ele>
        <time>2021-04-27T08:33:00Z</time>
      </trkpt>
      <trkpt lat="45.22015" lon="4.47887">
        <ele>1160</ele>
        <time>2021-04-27T08:33:05Z</time>
      </trkpt>
      <trkpt lat="45.22005" lon="4.47895">
        <ele>1161</ele>
        <time>2021-04-27T08:33:09Z</time>
      </trkpt>
      <trkpt lat="45.21997" lon="4.47907">
        <ele>1163</ele>
        <time>2021-04-27T08:33:13Z</time>
      </trkpt>
      <trkpt lat="45.21991" lon="4.47918">
        <ele>1165</ele>
        <time>2021-04-27T08:33:17Z</time>
      </trkpt>
      <trkpt lat="45.21983" lon="4.47925">
        <ele>1168</ele>
        <time>2021-04-27T08:33:21Z</time>
      </trkpt>
      <trkpt lat="45.21979" lon="4.47938">
        <ele>1170</ele>
        <time>2021-04-27T08:33:25Z</time>
      </trkpt>
      <trkpt lat="45.21974" lon="4.47949">
        <ele>1171</ele>
        <time>2021-04-27T08:33:29Z</time>
      </trkpt>
      <trkpt lat="45.21968" lon="4.4796">
        <ele>1172</ele>
        <time>2021-04-27T08:33:33Z</time>
      </trkpt>
      <trkpt lat="45.21962" lon="4.47971">
        <ele>1173</ele>
        <time>2021-04-27T08:33:37Z</time>
      </trkpt>
      <trkpt lat="45.21956" lon="4.47982">
        <ele>1174</ele>
        <time>2021-04-27T08:33:41Z</time>
      </trkpt>
      <trkpt lat="45.21949" lon="4.47996">
        <ele>1176</ele>
        <time>2021-04-27T08:33:45Z</time>
      </trkpt>
      <trkpt lat="45.21941" lon="4.48002">
        <ele>1178</ele>
        <time>2021-04-27T08:33:48Z</time>
      </trkpt>
      <trkpt lat="45.21932" lon="4.48009">
        <ele>1181</ele>
        <time>2021-04-27T08:33:52Z</time>
      </trkpt>
      <trkpt lat="45.21925" lon="4.48019">
        <ele>1184</ele>
        <time>2021-04-27T08:33:57Z</time>
      </trkpt>
      <trkpt lat="45.21916" lon="4.48024">
        <ele>1186</ele>
        <time>2021-04-27T08:34:02Z</time>
      </trkpt>
      <trkpt lat="45.21908" lon="4.48031">
        <ele>1188</ele>
        <time>2021-04-27T08:34:07Z</time>
      </trkpt>
      <trkpt lat="45.219" lon="4.48038">
        <ele>1190</ele>
        <time>2021-04-27T08:34:12Z</time>
      </trkpt>
      <trkpt lat="45.21891" lon="4.48045">
        <ele>1192</ele>
        <time>2021-04-27T08:34:16Z</time>
      </trkpt>
      <trkpt lat="45.21883" lon="4.48051">
        <ele>1192</ele>
        <time>2021-04-27T08:34:20Z</time>
      </trkpt>
      <trkpt lat="45.21874" lon="4.48054">
        <ele>1194</ele>
        <time>2021-04-27T08:34:25Z</time>
      </trkpt>
      <trkpt lat="45.21865" lon="4.48063">
        <ele>1197</ele>
        <time>2021-04-27T08:34:30Z</time>
      </trkpt>
      <trkpt lat="45.21855" lon="4.48067">
        <ele>1199</ele>
        <time>2021-04-27T08:34:34Z</time>
      </trkpt>
      <trkpt lat="45.21846" lon="4.48071">
        <ele>1202</ele>
        <time>2021-04-27T08:34:38Z</time>
      </trkpt>
      <trkpt lat="45.21844" lon="4.48073">
        <ele>1203</ele>
        <time>2021-04-27T08:34:40Z</time>
      </trkpt>
      <trkpt lat="45.21836" lon="4.4808">
        <ele>1206</ele>
        <time>2021-04-27T08:34:45Z</time>
      </trkpt>
      <trkpt lat="45.21827" lon="4.4808">
        <ele>1207</ele>
        <time>2021-04-27T08:34:48Z</time>
      </trkpt>
      <trkpt lat="45.21817" lon="4.48083">
        <ele>1209</ele>
        <time>2021-04-27T08:34:51Z</time>
      </trkpt>
      <trkpt lat="45.21808" lon="4.48088">
        <ele>1211</ele>
        <time>2021-04-27T08:34:55Z</time>
      </trkpt>
      <trkpt lat="45.21799" lon="4.48095">
        <ele>1213</ele>
        <time>2021-04-27T08:35:00Z</time>
      </trkpt>
      <trkpt lat="45.21789" lon="4.48098">
        <ele>1214</ele>
        <time>2021-04-27T08:35:04Z</time>
      </trkpt>
      <trkpt lat="45.21779" lon="4.48099">
        <ele>1216</ele>
        <time>2021-04-27T08:35:09Z</time>
      </trkpt>
      <trkpt lat="45.21768" lon="4.481">
        <ele>1219</ele>
        <time>2021-04-27T08:35:14Z</time>
      </trkpt>
      <trkpt lat="45.21757" lon="4.48101">
        <ele>1221</ele>
        <time>2021-04-27T08:35:18Z</time>
      </trkpt>
      <trkpt lat="45.21747" lon="4.48102">
        <ele>1222</ele>
        <time>2021-04-27T08:35:21Z</time>
      </trkpt>
      <trkpt lat="45.21737" lon="4.48103">
        <ele>1224</ele>
        <time>2021-04-27T08:35:25Z</time>
      </trkpt>
      <trkpt lat="45.21728" lon="4.48106">
        <ele>1226</ele>
        <time>2021-04-27T08:35:30Z</time>
      </trkpt>
      <trkpt lat="45.21717" lon="4.4811">
        <ele>1228</ele>
        <time>2021-04-27T08:35:34Z</time>
      </trkpt>
      <trkpt lat="45.21707" lon="4.48111">
        <ele>1230</ele>
        <time>2021-04-27T08:35:38Z</time>
      </trkpt>
      <trkpt lat="45.21699" lon="4.48113">
        <ele>1231</ele>
        <time>2021-04-27T08:35:42Z</time>
      </trkpt>
      <trkpt lat="45.21695" lon="4.48115">
        <ele>1233</ele>
        <time>2021-04-27T08:35:44Z</time>
      </trkpt>
      <trkpt lat="45.21693" lon="4.48116">
        <ele>1233</ele>
        <time>2021-04-27T08:35:45Z</time>
      </trkpt>
      <trkpt lat="45.21691" lon="4.48117">
        <ele>1234</ele>
        <time>2021-04-27T08:35:46Z</time>
      </trkpt>
      <trkpt lat="45.21689" lon="4.48117">
        <ele>1234</ele>
        <time>2021-04-27T08:35:47Z</time>
      </trkpt>
      <trkpt lat="45.21687" lon="4.48118">
        <ele>1235</ele>
        <time>2021-04-27T08:35:48Z</time>
      </trkpt>
      <trkpt lat="45.21684" lon="4.48119">
        <ele>1235</ele>
        <time>2021-04-27T08:35:49Z</time>
      </trkpt>
      <trkpt lat="45.21677" lon="4.4812">
        <ele>1236</ele>
        <time>2021-04-27T08:35:51Z</time>
      </trkpt>
      <trkpt lat="45.21674" lon="4.48121">
        <ele>1237</ele>
        <time>2021-04-27T08:35:52Z</time>
      </trkpt>
      <trkpt lat="45.2167" lon="4.48121">
        <ele>1237</ele>
        <time>2021-04-27T08:35:53Z</time>
      </trkpt>
      <trkpt lat="45.21667" lon="4.48122">
        <ele>1238</ele>
        <time>2021-04-27T08:35:54Z</time>
      </trkpt>
      <trkpt lat="45.21664" lon="4.48123">
        <ele>1239</ele>
        <time>2021-04-27T08:35:55Z</time>
      </trkpt>
      <trkpt lat="45.21657" lon="4.48122">
        <ele>1240</ele>
        <time>2021-04-27T08:35:57Z</time>
      </trkpt>
      <trkpt lat="45.21654" lon="4.48123">
        <ele>1240</ele>
        <time>2021-04-27T08:35:58Z</time>
      </trkpt>
      <trkpt lat="45.21652" lon="4.48123">
        <ele>1241</ele>
        <time>2021-04-27T08:35:59Z</time>
      </trkpt>
      <trkpt lat="45.21649" lon="4.48124">
        <ele>1241</ele>
        <time>2021-04-27T08:36:00Z</time>
      </trkpt>
      <trkpt lat="45.21646" lon="4.48124">
        <ele>1242</ele>
        <time>2021-04-27T08:36:01Z</time>
      </trkpt>
      <trkpt lat="45.21643" lon="4.48124">
        <ele>1242</ele>
        <time>2021-04-27T08:36:02Z</time>
      </trkpt>
      <trkpt lat="45.21641" lon="4.48126">
        <ele>1242</ele>
        <time>2021-04-27T08:36:03Z</time>
      </trkpt>
      <trkpt lat="45.21638" lon="4.48126">
        <ele>1243</ele>
        <time>2021-04-27T08:36:04Z</time>
      </trkpt>
      <trkpt lat="45.21636" lon="4.48126">
        <ele>1243</ele>
        <time>2021-04-27T08:36:05Z</time>
      </trkpt>
      <trkpt lat="45.21634" lon="4.48126">
        <ele>1244</ele>
        <time>2021-04-27T08:36:06Z</time>
      </trkpt>
      <trkpt lat="45.21631" lon="4.48128">
        <ele>1244</ele>
        <time>2021-04-27T08:36:07Z</time>
      </trkpt>
      <trkpt lat="45.21627" lon="4.4813">
        <ele>1245</ele>
        <time>2021-04-27T08:36:08Z</time>
      </trkpt>
      <trkpt lat="45.21624" lon="4.48131">
        <ele>1245</ele>
        <time>2021-04-27T08:36:09Z</time>
      </trkpt>
      <trkpt lat="45.21621" lon="4.48132">
        <ele>1246</ele>
        <time>2021-04-27T08:36:10Z</time>
      </trkpt>
      <trkpt lat="45.21617" lon="4.48134">
        <ele>1246</ele>
        <time>2021-04-27T08:36:11Z</time>
      </trkpt>
      <trkpt lat="45.21614" lon="4.48136">
        <ele>1246</ele>
        <time>2021-04-27T08:36:12Z</time>
      </trkpt>
      <trkpt lat="45.21612" lon="4.48137">
        <ele>1247</ele>
        <time>2021-04-27T08:36:13Z</time>
      </trkpt>
      <trkpt lat="45.2161" lon="4.48138">
        <ele>1247</ele>
        <time>2021-04-27T08:36:14Z</time>
      </trkpt>
      <trkpt lat="45.21608" lon="4.4814">
        <ele>1247</ele>
        <time>2021-04-27T08:36:15Z</time>
      </trkpt>
      <trkpt lat="45.21607" lon="4.4814">
        <ele>1247</ele>
        <time>2021-04-27T08:36:16Z</time>
      </trkpt>
      <trkpt lat="45.21605" lon="4.48141">
        <ele>1247</ele>
        <time>2021-04-27T08:36:17Z</time>
      </trkpt>
      <trkpt lat="45.21602" lon="4.48141">
        <ele>1247</ele>
        <time>2021-04-27T08:36:18Z</time>
      </trkpt>
      <trkpt lat="45.216" lon="4.48138">
        <ele>1247</ele>
        <time>2021-04-27T08:36:19Z</time>
      </trkpt>
      <trkpt lat="45.21597" lon="4.48136">
        <ele>1247</ele>
        <time>2021-04-27T08:36:20Z</time>
      </trkpt>
      <trkpt lat="45.21595" lon="4.48132">
        <ele>1247</ele>
        <time>2021-04-27T08:36:21Z</time>
      </trkpt>
      <trkpt lat="45.21592" lon="4.48129">
        <ele>1247</ele>
        <time>2021-04-27T08:36:22Z</time>
      </trkpt>
      <trkpt lat="45.21589" lon="4.48125">
        <ele>1247</ele>
        <time>2021-04-27T08:36:23Z</time>
      </trkpt>
      <trkpt lat="45.21586" lon="4.48121">
        <ele>1247</ele>
        <time>2021-04-27T08:36:24Z</time>
      </trkpt>
      <trkpt lat="45.21583" lon="4.48117">
        <ele>1247</ele>
        <time>2021-04-27T08:36:25Z</time>
      </trkpt>
      <trkpt lat="45.21581" lon="4.48112">
        <ele>1247</ele>
        <time>2021-04-27T08:36:26Z</time>
      </trkpt>
      <trkpt lat="45.21578" lon="4.48108">
        <ele>1247</ele>
        <time>2021-04-27T08:36:27Z</time>
      </trkpt>
      <trkpt lat="45.21575" lon="4.48105">
        <ele>1247</ele>
        <time>2021-04-27T08:36:28Z</time>
      </trkpt>
      <trkpt lat="45.21573" lon="4.48101">
        <ele>1247</ele>
        <time>2021-04-27T08:36:29Z</time>
      </trkpt>
      <trkpt lat="45.2157" lon="4.48097">
        <ele>1247</ele>
        <time>2021-04-27T08:36:30Z</time>
      </trkpt>
      <trkpt lat="45.21567" lon="4.48093">
        <ele>1247</ele>
        <time>2021-04-27T08:36:31Z</time>
      </trkpt>
      <trkpt lat="45.21564" lon="4.48089">
        <ele>1247</ele>
        <time>2021-04-27T08:36:32Z</time>
      </trkpt>
      <trkpt lat="45.21562" lon="4.48085">
        <ele>1247</ele>
        <time>2021-04-27T08:36:33Z</time>
      </trkpt>
      <trkpt lat="45.21559" lon="4.48081">
        <ele>1247</ele>
        <time>2021-04-27T08:36:34Z</time>
      </trkpt>
      <trkpt lat="45.21557" lon="4.48077">
        <ele>1247</ele>
        <time>2021-04-27T08:36:35Z</time>
      </trkpt>
      <trkpt lat="45.21554" lon="4.48072">
        <ele>1247</ele>
        <time>2021-04-27T08:36:36Z</time>
      </trkpt>
      <trkpt lat="45.21551" lon="4.48068">
        <ele>1248</ele>
        <time>2021-04-27T08:36:37Z</time>
      </trkpt>
      <trkpt lat="45.21549" lon="4.48064">
        <ele>1248</ele>
        <time>2021-04-27T08:36:38Z</time>
      </trkpt>
      <trkpt lat="45.21546" lon="4.4806">
        <ele>1248</ele>
        <time>2021-04-27T08:36:39Z</time>
      </trkpt>
      <trkpt lat="45.21543" lon="4.48057">
        <ele>1248</ele>
        <time>2021-04-27T08:36:40Z</time>
      </trkpt>
      <trkpt lat="45.2154" lon="4.48053">
        <ele>1248</ele>
        <time>2021-04-27T08:36:41Z</time>
      </trkpt>
      <trkpt lat="45.21538" lon="4.4805">
        <ele>1249</ele>
        <time>2021-04-27T08:36:42Z</time>
      </trkpt>
      <trkpt lat="45.21536" lon="4.48046">
        <ele>1249</ele>
        <time>2021-04-27T08:36:43Z</time>
      </trkpt>
      <trkpt lat="45.21533" lon="4.48043">
        <ele>1249</ele>
        <time>2021-04-27T08:36:44Z</time>
      </trkpt>
      <trkpt lat="45.21532" lon="4.4804">
        <ele>1249</ele>
        <time>2021-04-27T08:36:45Z</time>
      </trkpt>
      <trkpt lat="45.21529" lon="4.48036">
        <ele>1250</ele>
        <time>2021-04-27T08:36:46Z</time>
      </trkpt>
      <trkpt lat="45.21527" lon="4.48032">
        <ele>1250</ele>
        <time>2021-04-27T08:36:47Z</time>
      </trkpt>
      <trkpt lat="45.21524" lon="4.48028">
        <ele>1250</ele>
        <time>2021-04-27T08:36:48Z</time>
      </trkpt>
      <trkpt lat="45.21522" lon="4.48023">
        <ele>1250</ele>
        <time>2021-04-27T08:36:49Z</time>
      </trkpt>
      <trkpt lat="45.21519" lon="4.48019">
        <ele>1251</ele>
        <time>2021-04-27T08:36:50Z</time>
      </trkpt>
      <trkpt lat="45.21517" lon="4.48015">
        <ele>1251</ele>
        <time>2021-04-27T08:36:51Z</time>
      </trkpt>
      <trkpt lat="45.21515" lon="4.48011">
        <ele>1251</ele>
        <time>2021-04-27T08:36:52Z</time>
      </trkpt>
      <trkpt lat="45.21514" lon="4.48007">
        <ele>1251</ele>
        <time>2021-04-27T08:36:53Z</time>
      </trkpt>
      <trkpt lat="45.21512" lon="4.48003">
        <ele>1252</ele>
        <time>2021-04-27T08:36:54Z</time>
      </trkpt>
      <trkpt lat="45.21511" lon="4.47998">
        <ele>1252</ele>
        <time>2021-04-27T08:36:55Z</time>
      </trkpt>
      <trkpt lat="45.21509" lon="4.47993">
        <ele>1252</ele>
        <time>2021-04-27T08:36:56Z</time>
      </trkpt>
      <trkpt lat="45.21507" lon="4.47988">
        <ele>1252</ele>
        <time>2021-04-27T08:36:57Z</time>
      </trkpt>
      <trkpt lat="45.21506" lon="4.47984">
        <ele>1253</ele>
        <time>2021-04-27T08:36:58Z</time>
      </trkpt>
      <trkpt lat="45.21504" lon="4.47979">
        <ele>1253</ele>
        <time>2021-04-27T08:36:59Z</time>
      </trkpt>
      <trkpt lat="45.21502" lon="4.47974">
        <ele>1253</ele>
        <time>2021-04-27T08:37:00Z</time>
      </trkpt>
      <trkpt lat="45.215" lon="4.47968">
        <ele>1253</ele>
        <time>2021-04-27T08:37:01Z</time>
      </trkpt>
      <trkpt lat="45.21499" lon="4.47963">
        <ele>1253</ele>
        <time>2021-04-27T08:37:02Z</time>
      </trkpt>
      <trkpt lat="45.21498" lon="4.47958">
        <ele>1253</ele>
        <time>2021-04-27T08:37:03Z</time>
      </trkpt>
      <trkpt lat="45.21496" lon="4.47953">
        <ele>1253</ele>
        <time>2021-04-27T08:37:04Z</time>
      </trkpt>
      <trkpt lat="45.21494" lon="4.47948">
        <ele>1253</ele>
        <time>2021-04-27T08:37:05Z</time>
      </trkpt>
      <trkpt lat="45.21493" lon="4.47943">
        <ele>1253</ele>
        <time>2021-04-27T08:37:06Z</time>
      </trkpt>
      <trkpt lat="45.21491" lon="4.47937">
        <ele>1254</ele>
        <time>2021-04-27T08:37:07Z</time>
      </trkpt>
      <trkpt lat="45.2149" lon="4.47932">
        <ele>1254</ele>
        <time>2021-04-27T08:37:08Z</time>
      </trkpt>
      <trkpt lat="45.21488" lon="4.47927">
        <ele>1254</ele>
        <time>2021-04-27T08:37:09Z</time>
      </trkpt>
      <trkpt lat="45.21488" lon="4.47922">
        <ele>1254</ele>
        <time>2021-04-27T08:37:10Z</time>
      </trkpt>
      <trkpt lat="45.21487" lon="4.47918">
        <ele>1254</ele>
        <time>2021-04-27T08:37:11Z</time>
      </trkpt>
      <trkpt lat="45.21485" lon="4.47913">
        <ele>1254</ele>
        <time>2021-04-27T08:37:12Z</time>
      </trkpt>
      <trkpt lat="45.21484" lon="4.47908">
        <ele>1254</ele>
        <time>2021-04-27T08:37:13Z</time>
      </trkpt>
      <trkpt lat="45.2148" lon="4.47894">
        <ele>1255</ele>
        <time>2021-04-27T08:37:15Z</time>
      </trkpt>
      <trkpt lat="45.21473" lon="4.47878">
        <ele>1255</ele>
        <time>2021-04-27T08:37:18Z</time>
      </trkpt>
      <trkpt lat="45.21471" lon="4.47875">
        <ele>1255</ele>
        <time>2021-04-27T08:37:19Z</time>
      </trkpt>
      <trkpt lat="45.21469" lon="4.47871">
        <ele>1255</ele>
        <time>2021-04-27T08:37:20Z</time>
      </trkpt>
      <trkpt lat="45.21467" lon="4.47867">
        <ele>1255</ele>
        <time>2021-04-27T08:37:21Z</time>
      </trkpt>
      <trkpt lat="45.21465" lon="4.47864">
        <ele>1256</ele>
        <time>2021-04-27T08:37:22Z</time>
      </trkpt>
      <trkpt lat="45.21462" lon="4.4786">
        <ele>1256</ele>
        <time>2021-04-27T08:37:23Z</time>
      </trkpt>
      <trkpt lat="45.21459" lon="4.47857">
        <ele>1256</ele>
        <time>2021-04-27T08:37:24Z</time>
      </trkpt>
      <trkpt lat="45.21457" lon="4.47854">
        <ele>1257</ele>
        <time>2021-04-27T08:37:25Z</time>
      </trkpt>
      <trkpt lat="45.21454" lon="4.47851">
        <ele>1257</ele>
        <time>2021-04-27T08:37:26Z</time>
      </trkpt>
      <trkpt lat="45.21451" lon="4.47849">
        <ele>1257</ele>
        <time>2021-04-27T08:37:27Z</time>
      </trkpt>
      <trkpt lat="45.21441" lon="4.47838">
        <ele>1258</ele>
        <time>2021-04-27T08:37:30Z</time>
      </trkpt>
      <trkpt lat="45.21431" lon="4.47831">
        <ele>1259</ele>
        <time>2021-04-27T08:37:33Z</time>
      </trkpt>
      <trkpt lat="45.21421" lon="4.47824">
        <ele>1259</ele>
        <time>2021-04-27T08:37:36Z</time>
      </trkpt>
      <trkpt lat="45.2141" lon="4.47815">
        <ele>1260</ele>
        <time>2021-04-27T08:37:39Z</time>
      </trkpt>
      <trkpt lat="45.21401" lon="4.47806">
        <ele>1261</ele>
        <time>2021-04-27T08:37:42Z</time>
      </trkpt>
      <trkpt lat="45.2139" lon="4.47794">
        <ele>1262</ele>
        <time>2021-04-27T08:37:45Z</time>
      </trkpt>
      <trkpt lat="45.2138" lon="4.47783">
        <ele>1263</ele>
        <time>2021-04-27T08:37:48Z</time>
      </trkpt>
      <trkpt lat="45.21371" lon="4.47772">
        <ele>1264</ele>
        <time>2021-04-27T08:37:51Z</time>
      </trkpt>
      <trkpt lat="45.21363" lon="4.47763">
        <ele>1265</ele>
        <time>2021-04-27T08:37:54Z</time>
      </trkpt>
      <trkpt lat="45.21353" lon="4.47758">
        <ele>1266</ele>
        <time>2021-04-27T08:37:57Z</time>
      </trkpt>
      <trkpt lat="45.21346" lon="4.47757">
        <ele>1267</ele>
        <time>2021-04-27T08:37:59Z</time>
      </trkpt>
      <trkpt lat="45.21344" lon="4.47757">
        <ele>1267</ele>
        <time>2021-04-27T08:38:00Z</time>
      </trkpt>
      <trkpt lat="45.21341" lon="4.47755">
        <ele>1267</ele>
        <time>2021-04-27T08:38:01Z</time>
      </trkpt>
      <trkpt lat="45.21339" lon="4.47755">
        <ele>1268</ele>
        <time>2021-04-27T08:38:02Z</time>
      </trkpt>
      <trkpt lat="45.21338" lon="4.47754">
        <ele>1268</ele>
        <time>2021-04-27T08:38:03Z</time>
      </trkpt>
      <trkpt lat="45.21335" lon="4.47753">
        <ele>1269</ele>
        <time>2021-04-27T08:38:05Z</time>
      </trkpt>
      <trkpt lat="45.21331" lon="4.47753">
        <ele>1270</ele>
        <time>2021-04-27T08:38:07Z</time>
      </trkpt>
      <trkpt lat="45.21329" lon="4.47753">
        <ele>1270</ele>
        <time>2021-04-27T08:38:08Z</time>
      </trkpt>
      <trkpt lat="45.21327" lon="4.47751">
        <ele>1270</ele>
        <time>2021-04-27T08:38:09Z</time>
      </trkpt>
      <trkpt lat="45.21323" lon="4.47748">
        <ele>1270</ele>
        <time>2021-04-27T08:38:10Z</time>
      </trkpt>
      <trkpt lat="45.2132" lon="4.47746">
        <ele>1270</ele>
        <time>2021-04-27T08:38:11Z</time>
      </trkpt>
      <trkpt lat="45.21318" lon="4.47745">
        <ele>1270</ele>
        <time>2021-04-27T08:38:12Z</time>
      </trkpt>
      <trkpt lat="45.21316" lon="4.47744">
        <ele>1271</ele>
        <time>2021-04-27T08:38:13Z</time>
      </trkpt>
      <trkpt lat="45.21313" lon="4.47743">
        <ele>1271</ele>
        <time>2021-04-27T08:38:14Z</time>
      </trkpt>
      <trkpt lat="45.2131" lon="4.47742">
        <ele>1271</ele>
        <time>2021-04-27T08:38:15Z</time>
      </trkpt>
      <trkpt lat="45.21307" lon="4.47742">
        <ele>1271</ele>
        <time>2021-04-27T08:38:16Z</time>
      </trkpt>
      <trkpt lat="45.21304" lon="4.47741">
        <ele>1271</ele>
        <time>2021-04-27T08:38:17Z</time>
      </trkpt>
      <trkpt lat="45.213" lon="4.4774">
        <ele>1271</ele>
        <time>2021-04-27T08:38:18Z</time>
      </trkpt>
      <trkpt lat="45.21297" lon="4.4774">
        <ele>1272</ele>
        <time>2021-04-27T08:38:19Z</time>
      </trkpt>
      <trkpt lat="45.21294" lon="4.47739">
        <ele>1272</ele>
        <time>2021-04-27T08:38:20Z</time>
      </trkpt>
      <trkpt lat="45.21291" lon="4.47738">
        <ele>1272</ele>
        <time>2021-04-27T08:38:21Z</time>
      </trkpt>
      <trkpt lat="45.21282" lon="4.47733">
        <ele>1272</ele>
        <time>2021-04-27T08:38:24Z</time>
      </trkpt>
      <trkpt lat="45.21278" lon="4.47731">
        <ele>1273</ele>
        <time>2021-04-27T08:38:25Z</time>
      </trkpt>
      <trkpt lat="45.21275" lon="4.47729">
        <ele>1273</ele>
        <time>2021-04-27T08:38:26Z</time>
      </trkpt>
      <trkpt lat="45.21271" lon="4.47728">
        <ele>1274</ele>
        <time>2021-04-27T08:38:27Z</time>
      </trkpt>
      <trkpt lat="45.21263" lon="4.47726">
        <ele>1274</ele>
        <time>2021-04-27T08:38:29Z</time>
      </trkpt>
      <trkpt lat="45.21259" lon="4.47725">
        <ele>1274</ele>
        <time>2021-04-27T08:38:30Z</time>
      </trkpt>
      <trkpt lat="45.21255" lon="4.47723">
        <ele>1274</ele>
        <time>2021-04-27T08:38:31Z</time>
      </trkpt>
      <trkpt lat="45.21246" lon="4.47719">
        <ele>1275</ele>
        <time>2021-04-27T08:38:33Z</time>
      </trkpt>
      <trkpt lat="45.21236" lon="4.47715">
        <ele>1276</ele>
        <time>2021-04-27T08:38:36Z</time>
      </trkpt>
      <trkpt lat="45.2123" lon="4.47713">
        <ele>1276</ele>
        <time>2021-04-27T08:38:38Z</time>
      </trkpt>
      <trkpt lat="45.21226" lon="4.47711">
        <ele>1276</ele>
        <time>2021-04-27T08:38:39Z</time>
      </trkpt>
      <trkpt lat="45.21222" lon="4.47709">
        <ele>1277</ele>
        <time>2021-04-27T08:38:40Z</time>
      </trkpt>
      <trkpt lat="45.21219" lon="4.47708">
        <ele>1277</ele>
        <time>2021-04-27T08:38:41Z</time>
      </trkpt>
      <trkpt lat="45.21215" lon="4.47708">
        <ele>1277</ele>
        <time>2021-04-27T08:38:42Z</time>
      </trkpt>
      <trkpt lat="45.21212" lon="4.47707">
        <ele>1277</ele>
        <time>2021-04-27T08:38:43Z</time>
      </trkpt>
      <trkpt lat="45.21209" lon="4.47706">
        <ele>1277</ele>
        <time>2021-04-27T08:38:44Z</time>
      </trkpt>
      <trkpt lat="45.21206" lon="4.47705">
        <ele>1277</ele>
        <time>2021-04-27T08:38:45Z</time>
      </trkpt>
      <trkpt lat="45.21203" lon="4.47704">
        <ele>1277</ele>
        <time>2021-04-27T08:38:46Z</time>
      </trkpt>
      <trkpt lat="45.21199" lon="4.47703">
        <ele>1277</ele>
        <time>2021-04-27T08:38:47Z</time>
      </trkpt>
      <trkpt lat="45.21195" lon="4.47703">
        <ele>1278</ele>
        <time>2021-04-27T08:38:48Z</time>
      </trkpt>
      <trkpt lat="45.2119" lon="4.47703">
        <ele>1278</ele>
        <time>2021-04-27T08:38:49Z</time>
      </trkpt>
      <trkpt lat="45.21186" lon="4.47703">
        <ele>1278</ele>
        <time>2021-04-27T08:38:50Z</time>
      </trkpt>
      <trkpt lat="45.21181" lon="4.47703">
        <ele>1279</ele>
        <time>2021-04-27T08:38:51Z</time>
      </trkpt>
      <trkpt lat="45.21175" lon="4.47703">
        <ele>1279</ele>
        <time>2021-04-27T08:38:52Z</time>
      </trkpt>
      <trkpt lat="45.21161" lon="4.47701">
        <ele>1280</ele>
        <time>2021-04-27T08:38:54Z</time>
      </trkpt>
      <trkpt lat="45.21156" lon="4.47701">
        <ele>1279</ele>
        <time>2021-04-27T08:38:55Z</time>
      </trkpt>
      <trkpt lat="45.21149" lon="4.47701">
        <ele>1279</ele>
        <time>2021-04-27T08:38:56Z</time>
      </trkpt>
      <trkpt lat="45.21144" lon="4.47702">
        <ele>1280</ele>
        <time>2021-04-27T08:38:57Z</time>
      </trkpt>
      <trkpt lat="45.21139" lon="4.47703">
        <ele>1280</ele>
        <time>2021-04-27T08:38:58Z</time>
      </trkpt>
      <trkpt lat="45.21134" lon="4.47703">
        <ele>1280</ele>
        <time>2021-04-27T08:38:59Z</time>
      </trkpt>
      <trkpt lat="45.21124" lon="4.47705">
        <ele>1280</ele>
        <time>2021-04-27T08:39:01Z</time>
      </trkpt>
      <trkpt lat="45.21111" lon="4.47706">
        <ele>1281</ele>
        <time>2021-04-27T08:39:04Z</time>
      </trkpt>
      <trkpt lat="45.21101" lon="4.47704">
        <ele>1282</ele>
        <time>2021-04-27T08:39:06Z</time>
      </trkpt>
      <trkpt lat="45.21097" lon="4.47705">
        <ele>1282</ele>
        <time>2021-04-27T08:39:07Z</time>
      </trkpt>
      <trkpt lat="45.21089" lon="4.47705">
        <ele>1282</ele>
        <time>2021-04-27T08:39:09Z</time>
      </trkpt>
      <trkpt lat="45.21085" lon="4.47706">
        <ele>1283</ele>
        <time>2021-04-27T08:39:10Z</time>
      </trkpt>
      <trkpt lat="45.21081" lon="4.47706">
        <ele>1283</ele>
        <time>2021-04-27T08:39:11Z</time>
      </trkpt>
      <trkpt lat="45.21076" lon="4.47707">
        <ele>1283</ele>
        <time>2021-04-27T08:39:12Z</time>
      </trkpt>
      <trkpt lat="45.21073" lon="4.47708">
        <ele>1283</ele>
        <time>2021-04-27T08:39:13Z</time>
      </trkpt>
      <trkpt lat="45.21068" lon="4.47708">
        <ele>1283</ele>
        <time>2021-04-27T08:39:14Z</time>
      </trkpt>
      <trkpt lat="45.21065" lon="4.47709">
        <ele>1284</ele>
        <time>2021-04-27T08:39:15Z</time>
      </trkpt>
      <trkpt lat="45.2106" lon="4.4771">
        <ele>1284</ele>
        <time>2021-04-27T08:39:16Z</time>
      </trkpt>
      <trkpt lat="45.21056" lon="4.47711">
        <ele>1284</ele>
        <time>2021-04-27T08:39:17Z</time>
      </trkpt>
      <trkpt lat="45.2105" lon="4.47712">
        <ele>1285</ele>
        <time>2021-04-27T08:39:18Z</time>
      </trkpt>
      <trkpt lat="45.21045" lon="4.47714">
        <ele>1285</ele>
        <time>2021-04-27T08:39:19Z</time>
      </trkpt>
      <trkpt lat="45.21038" lon="4.47717">
        <ele>1285</ele>
        <time>2021-04-27T08:39:20Z</time>
      </trkpt>
      <trkpt lat="45.21033" lon="4.47719">
        <ele>1286</ele>
        <time>2021-04-27T08:39:21Z</time>
      </trkpt>
      <trkpt lat="45.21028" lon="4.47722">
        <ele>1286</ele>
        <time>2021-04-27T08:39:22Z</time>
      </trkpt>
      <trkpt lat="45.21023" lon="4.47724">
        <ele>1287</ele>
        <time>2021-04-27T08:39:23Z</time>
      </trkpt>
      <trkpt lat="45.21019" lon="4.47727">
        <ele>1287</ele>
        <time>2021-04-27T08:39:24Z</time>
      </trkpt>
      <trkpt lat="45.21014" lon="4.4773">
        <ele>1287</ele>
        <time>2021-04-27T08:39:25Z</time>
      </trkpt>
      <trkpt lat="45.2101" lon="4.47734">
        <ele>1287</ele>
        <time>2021-04-27T08:39:26Z</time>
      </trkpt>
      <trkpt lat="45.21005" lon="4.47737">
        <ele>1288</ele>
        <time>2021-04-27T08:39:27Z</time>
      </trkpt>
      <trkpt lat="45.21001" lon="4.4774">
        <ele>1288</ele>
        <time>2021-04-27T08:39:28Z</time>
      </trkpt>
      <trkpt lat="45.20989" lon="4.47745">
        <ele>1288</ele>
        <time>2021-04-27T08:39:30Z</time>
      </trkpt>
      <trkpt lat="45.20983" lon="4.47749">
        <ele>1288</ele>
        <time>2021-04-27T08:39:31Z</time>
      </trkpt>
      <trkpt lat="45.20978" lon="4.47751">
        <ele>1289</ele>
        <time>2021-04-27T08:39:32Z</time>
      </trkpt>
      <trkpt lat="45.20972" lon="4.47753">
        <ele>1289</ele>
        <time>2021-04-27T08:39:33Z</time>
      </trkpt>
      <trkpt lat="45.20968" lon="4.47757">
        <ele>1289</ele>
        <time>2021-04-27T08:39:34Z</time>
      </trkpt>
      <trkpt lat="45.20964" lon="4.47761">
        <ele>1289</ele>
        <time>2021-04-27T08:39:35Z</time>
      </trkpt>
      <trkpt lat="45.2096" lon="4.47765">
        <ele>1290</ele>
        <time>2021-04-27T08:39:36Z</time>
      </trkpt>
      <trkpt lat="45.20957" lon="4.47769">
        <ele>1290</ele>
        <time>2021-04-27T08:39:37Z</time>
      </trkpt>
      <trkpt lat="45.20953" lon="4.47773">
        <ele>1290</ele>
        <time>2021-04-27T08:39:38Z</time>
      </trkpt>
      <trkpt lat="45.20948" lon="4.47779">
        <ele>1290</ele>
        <time>2021-04-27T08:39:39Z</time>
      </trkpt>
      <trkpt lat="45.20945" lon="4.47785">
        <ele>1290</ele>
        <time>2021-04-27T08:39:40Z</time>
      </trkpt>
      <trkpt lat="45.20941" lon="4.47791">
        <ele>1290</ele>
        <time>2021-04-27T08:39:41Z</time>
      </trkpt>
      <trkpt lat="45.20938" lon="4.47796">
        <ele>1291</ele>
        <time>2021-04-27T08:39:42Z</time>
      </trkpt>
      <trkpt lat="45.20935" lon="4.47801">
        <ele>1291</ele>
        <time>2021-04-27T08:39:43Z</time>
      </trkpt>
      <trkpt lat="45.20927" lon="4.47812">
        <ele>1291</ele>
        <time>2021-04-27T08:39:45Z</time>
      </trkpt>
      <trkpt lat="45.20918" lon="4.47824">
        <ele>1291</ele>
        <time>2021-04-27T08:39:47Z</time>
      </trkpt>
      <trkpt lat="45.20913" lon="4.4783">
        <ele>1291</ele>
        <time>2021-04-27T08:39:48Z</time>
      </trkpt>
      <trkpt lat="45.20907" lon="4.47835">
        <ele>1291</ele>
        <time>2021-04-27T08:39:49Z</time>
      </trkpt>
      <trkpt lat="45.20902" lon="4.47841">
        <ele>1292</ele>
        <time>2021-04-27T08:39:50Z</time>
      </trkpt>
      <trkpt lat="45.20896" lon="4.47845">
        <ele>1292</ele>
        <time>2021-04-27T08:39:51Z</time>
      </trkpt>
      <trkpt lat="45.20891" lon="4.47849">
        <ele>1292</ele>
        <time>2021-04-27T08:39:52Z</time>
      </trkpt>
      <trkpt lat="45.20885" lon="4.47853">
        <ele>1292</ele>
        <time>2021-04-27T08:39:53Z</time>
      </trkpt>
      <trkpt lat="45.2088" lon="4.47858">
        <ele>1292</ele>
        <time>2021-04-27T08:39:54Z</time>
      </trkpt>
      <trkpt lat="45.20874" lon="4.47863">
        <ele>1292</ele>
        <time>2021-04-27T08:39:55Z</time>
      </trkpt>
      <trkpt lat="45.20868" lon="4.47867">
        <ele>1292</ele>
        <time>2021-04-27T08:39:56Z</time>
      </trkpt>
      <trkpt lat="45.20861" lon="4.47872">
        <ele>1292</ele>
        <time>2021-04-27T08:39:57Z</time>
      </trkpt>
      <trkpt lat="45.20855" lon="4.47877">
        <ele>1292</ele>
        <time>2021-04-27T08:39:58Z</time>
      </trkpt>
      <trkpt lat="45.20848" lon="4.47881">
        <ele>1292</ele>
        <time>2021-04-27T08:39:59Z</time>
      </trkpt>
      <trkpt lat="45.20842" lon="4.47885">
        <ele>1293</ele>
        <time>2021-04-27T08:40:00Z</time>
      </trkpt>
      <trkpt lat="45.20837" lon="4.47889">
        <ele>1293</ele>
        <time>2021-04-27T08:40:01Z</time>
      </trkpt>
      <trkpt lat="45.20831" lon="4.47892">
        <ele>1293</ele>
        <time>2021-04-27T08:40:02Z</time>
      </trkpt>
      <trkpt lat="45.20826" lon="4.47894">
        <ele>1293</ele>
        <time>2021-04-27T08:40:03Z</time>
      </trkpt>
      <trkpt lat="45.20822" lon="4.47896">
        <ele>1293</ele>
        <time>2021-04-27T08:40:04Z</time>
      </trkpt>
      <trkpt lat="45.20818" lon="4.47895">
        <ele>1292</ele>
        <time>2021-04-27T08:40:05Z</time>
      </trkpt>
      <trkpt lat="45.20815" lon="4.47894">
        <ele>1293</ele>
        <time>2021-04-27T08:40:06Z</time>
      </trkpt>
      <trkpt lat="45.20812" lon="4.47893">
        <ele>1292</ele>
        <time>2021-04-27T08:40:07Z</time>
      </trkpt>
      <trkpt lat="45.2081" lon="4.4789">
        <ele>1292</ele>
        <time>2021-04-27T08:40:08Z</time>
      </trkpt>
      <trkpt lat="45.20807" lon="4.47886">
        <ele>1292</ele>
        <time>2021-04-27T08:40:09Z</time>
      </trkpt>
      <trkpt lat="45.20805" lon="4.47882">
        <ele>1292</ele>
        <time>2021-04-27T08:40:10Z</time>
      </trkpt>
      <trkpt lat="45.20802" lon="4.47875">
        <ele>1292</ele>
        <time>2021-04-27T08:40:11Z</time>
      </trkpt>
      <trkpt lat="45.20799" lon="4.47868">
        <ele>1292</ele>
        <time>2021-04-27T08:40:12Z</time>
      </trkpt>
      <trkpt lat="45.20797" lon="4.47861">
        <ele>1291</ele>
        <time>2021-04-27T08:40:13Z</time>
      </trkpt>
      <trkpt lat="45.20794" lon="4.47855">
        <ele>1291</ele>
        <time>2021-04-27T08:40:14Z</time>
      </trkpt>
      <trkpt lat="45.20791" lon="4.47849">
        <ele>1291</ele>
        <time>2021-04-27T08:40:15Z</time>
      </trkpt>
      <trkpt lat="45.20789" lon="4.47843">
        <ele>1291</ele>
        <time>2021-04-27T08:40:16Z</time>
      </trkpt>
      <trkpt lat="45.20787" lon="4.47838">
        <ele>1291</ele>
        <time>2021-04-27T08:40:17Z</time>
      </trkpt>
      <trkpt lat="45.20785" lon="4.47832">
        <ele>1291</ele>
        <time>2021-04-27T08:40:18Z</time>
      </trkpt>
      <trkpt lat="45.20784" lon="4.47827">
        <ele>1291</ele>
        <time>2021-04-27T08:40:19Z</time>
      </trkpt>
      <trkpt lat="45.20782" lon="4.47821">
        <ele>1291</ele>
        <time>2021-04-27T08:40:20Z</time>
      </trkpt>
      <trkpt lat="45.2078" lon="4.47815">
        <ele>1290</ele>
        <time>2021-04-27T08:40:21Z</time>
      </trkpt>
      <trkpt lat="45.20777" lon="4.47809">
        <ele>1290</ele>
        <time>2021-04-27T08:40:22Z</time>
      </trkpt>
      <trkpt lat="45.20775" lon="4.47803">
        <ele>1290</ele>
        <time>2021-04-27T08:40:23Z</time>
      </trkpt>
      <trkpt lat="45.20772" lon="4.47797">
        <ele>1290</ele>
        <time>2021-04-27T08:40:24Z</time>
      </trkpt>
      <trkpt lat="45.20769" lon="4.4779">
        <ele>1290</ele>
        <time>2021-04-27T08:40:25Z</time>
      </trkpt>
      <trkpt lat="45.20767" lon="4.47784">
        <ele>1290</ele>
        <time>2021-04-27T08:40:26Z</time>
      </trkpt>
      <trkpt lat="45.20765" lon="4.47777">
        <ele>1290</ele>
        <time>2021-04-27T08:40:27Z</time>
      </trkpt>
      <trkpt lat="45.20765" lon="4.4777">
        <ele>1290</ele>
        <time>2021-04-27T08:40:28Z</time>
      </trkpt>
      <trkpt lat="45.20762" lon="4.47763">
        <ele>1290</ele>
        <time>2021-04-27T08:40:29Z</time>
      </trkpt>
      <trkpt lat="45.20759" lon="4.47757">
        <ele>1289</ele>
        <time>2021-04-27T08:40:30Z</time>
      </trkpt>
      <trkpt lat="45.20754" lon="4.47754">
        <ele>1289</ele>
        <time>2021-04-27T08:40:31Z</time>
      </trkpt>
      <trkpt lat="45.20749" lon="4.47753">
        <ele>1289</ele>
        <time>2021-04-27T08:40:32Z</time>
      </trkpt>
      <trkpt lat="45.20744" lon="4.47753">
        <ele>1289</ele>
        <time>2021-04-27T08:40:33Z</time>
      </trkpt>
      <trkpt lat="45.20739" lon="4.47752">
        <ele>1289</ele>
        <time>2021-04-27T08:40:34Z</time>
      </trkpt>
      <trkpt lat="45.20734" lon="4.47752">
        <ele>1289</ele>
        <time>2021-04-27T08:40:35Z</time>
      </trkpt>
      <trkpt lat="45.2073" lon="4.47752">
        <ele>1289</ele>
        <time>2021-04-27T08:40:36Z</time>
      </trkpt>
      <trkpt lat="45.20726" lon="4.47752">
        <ele>1289</ele>
        <time>2021-04-27T08:40:37Z</time>
      </trkpt>
      <trkpt lat="45.20722" lon="4.47752">
        <ele>1289</ele>
        <time>2021-04-27T08:40:38Z</time>
      </trkpt>
      <trkpt lat="45.20719" lon="4.47752">
        <ele>1289</ele>
        <time>2021-04-27T08:40:39Z</time>
      </trkpt>
      <trkpt lat="45.20715" lon="4.47753">
        <ele>1289</ele>
        <time>2021-04-27T08:40:40Z</time>
      </trkpt>
      <trkpt lat="45.20711" lon="4.47754">
        <ele>1289</ele>
        <time>2021-04-27T08:40:41Z</time>
      </trkpt>
      <trkpt lat="45.20707" lon="4.47756">
        <ele>1289</ele>
        <time>2021-04-27T08:40:42Z</time>
      </trkpt>
      <trkpt lat="45.20702" lon="4.47758">
        <ele>1289</ele>
        <time>2021-04-27T08:40:43Z</time>
      </trkpt>
      <trkpt lat="45.20698" lon="4.4776">
        <ele>1288</ele>
        <time>2021-04-27T08:40:44Z</time>
      </trkpt>
      <trkpt lat="45.20694" lon="4.47761">
        <ele>1288</ele>
        <time>2021-04-27T08:40:45Z</time>
      </trkpt>
      <trkpt lat="45.20689" lon="4.47763">
        <ele>1288</ele>
        <time>2021-04-27T08:40:46Z</time>
      </trkpt>
      <trkpt lat="45.20685" lon="4.47764">
        <ele>1288</ele>
        <time>2021-04-27T08:40:47Z</time>
      </trkpt>
      <trkpt lat="45.20682" lon="4.47764">
        <ele>1288</ele>
        <time>2021-04-27T08:40:48Z</time>
      </trkpt>
      <trkpt lat="45.20678" lon="4.47765">
        <ele>1288</ele>
        <time>2021-04-27T08:40:49Z</time>
      </trkpt>
      <trkpt lat="45.20675" lon="4.47766">
        <ele>1288</ele>
        <time>2021-04-27T08:40:50Z</time>
      </trkpt>
      <trkpt lat="45.20671" lon="4.47768">
        <ele>1288</ele>
        <time>2021-04-27T08:40:51Z</time>
      </trkpt>
      <trkpt lat="45.20668" lon="4.47769">
        <ele>1288</ele>
        <time>2021-04-27T08:40:52Z</time>
      </trkpt>
      <trkpt lat="45.20664" lon="4.4777">
        <ele>1288</ele>
        <time>2021-04-27T08:40:53Z</time>
      </trkpt>
      <trkpt lat="45.20661" lon="4.47772">
        <ele>1287</ele>
        <time>2021-04-27T08:40:54Z</time>
      </trkpt>
      <trkpt lat="45.20657" lon="4.47774">
        <ele>1287</ele>
        <time>2021-04-27T08:40:55Z</time>
      </trkpt>
      <trkpt lat="45.20654" lon="4.47776">
        <ele>1287</ele>
        <time>2021-04-27T08:40:56Z</time>
      </trkpt>
      <trkpt lat="45.20651" lon="4.47778">
        <ele>1287</ele>
        <time>2021-04-27T08:40:57Z</time>
      </trkpt>
      <trkpt lat="45.20648" lon="4.4778">
        <ele>1288</ele>
        <time>2021-04-27T08:40:58Z</time>
      </trkpt>
      <trkpt lat="45.20645" lon="4.47783">
        <ele>1288</ele>
        <time>2021-04-27T08:40:59Z</time>
      </trkpt>
      <trkpt lat="45.20642" lon="4.47786">
        <ele>1288</ele>
        <time>2021-04-27T08:41:00Z</time>
      </trkpt>
      <trkpt lat="45.20639" lon="4.47788">
        <ele>1288</ele>
        <time>2021-04-27T08:41:01Z</time>
      </trkpt>
      <trkpt lat="45.20636" lon="4.4779">
        <ele>1288</ele>
        <time>2021-04-27T08:41:02Z</time>
      </trkpt>
      <trkpt lat="45.20633" lon="4.47792">
        <ele>1288</ele>
        <time>2021-04-27T08:41:03Z</time>
      </trkpt>
      <trkpt lat="45.20629" lon="4.47794">
        <ele>1288</ele>
        <time>2021-04-27T08:41:04Z</time>
      </trkpt>
      <trkpt lat="45.20626" lon="4.47796">
        <ele>1288</ele>
        <time>2021-04-27T08:41:05Z</time>
      </trkpt>
      <trkpt lat="45.20623" lon="4.47797">
        <ele>1289</ele>
        <time>2021-04-27T08:41:06Z</time>
      </trkpt>
      <trkpt lat="45.2062" lon="4.47798">
        <ele>1289</ele>
        <time>2021-04-27T08:41:07Z</time>
      </trkpt>
      <trkpt lat="45.20616" lon="4.478">
        <ele>1289</ele>
        <time>2021-04-27T08:41:08Z</time>
      </trkpt>
      <trkpt lat="45.20612" lon="4.47802">
        <ele>1289</ele>
        <time>2021-04-27T08:41:09Z</time>
      </trkpt>
      <trkpt lat="45.20608" lon="4.47804">
        <ele>1289</ele>
        <time>2021-04-27T08:41:10Z</time>
      </trkpt>
      <trkpt lat="45.20605" lon="4.47806">
        <ele>1289</ele>
        <time>2021-04-27T08:41:11Z</time>
      </trkpt>
      <trkpt lat="45.20602" lon="4.47807">
        <ele>1289</ele>
        <time>2021-04-27T08:41:12Z</time>
      </trkpt>
      <trkpt lat="45.20599" lon="4.47809">
        <ele>1289</ele>
        <time>2021-04-27T08:41:13Z</time>
      </trkpt>
      <trkpt lat="45.20595" lon="4.47811">
        <ele>1290</ele>
        <time>2021-04-27T08:41:14Z</time>
      </trkpt>
      <trkpt lat="45.20591" lon="4.47812">
        <ele>1290</ele>
        <time>2021-04-27T08:41:15Z</time>
      </trkpt>
      <trkpt lat="45.20588" lon="4.47814">
        <ele>1290</ele>
        <time>2021-04-27T08:41:16Z</time>
      </trkpt>
      <trkpt lat="45.20584" lon="4.47816">
        <ele>1290</ele>
        <time>2021-04-27T08:41:17Z</time>
      </trkpt>
      <trkpt lat="45.2058" lon="4.47817">
        <ele>1290</ele>
        <time>2021-04-27T08:41:18Z</time>
      </trkpt>
      <trkpt lat="45.20577" lon="4.47819">
        <ele>1290</ele>
        <time>2021-04-27T08:41:19Z</time>
      </trkpt>
      <trkpt lat="45.20573" lon="4.47821">
        <ele>1290</ele>
        <time>2021-04-27T08:41:20Z</time>
      </trkpt>
      <trkpt lat="45.20569" lon="4.47823">
        <ele>1291</ele>
        <time>2021-04-27T08:41:21Z</time>
      </trkpt>
      <trkpt lat="45.20566" lon="4.47825">
        <ele>1291</ele>
        <time>2021-04-27T08:41:22Z</time>
      </trkpt>
      <trkpt lat="45.20562" lon="4.47827">
        <ele>1291</ele>
        <time>2021-04-27T08:41:23Z</time>
      </trkpt>
      <trkpt lat="45.20557" lon="4.47829">
        <ele>1291</ele>
        <time>2021-04-27T08:41:24Z</time>
      </trkpt>
      <trkpt lat="45.20553" lon="4.47832">
        <ele>1291</ele>
        <time>2021-04-27T08:41:25Z</time>
      </trkpt>
      <trkpt lat="45.20549" lon="4.47834">
        <ele>1291</ele>
        <time>2021-04-27T08:41:26Z</time>
      </trkpt>
      <trkpt lat="45.20545" lon="4.47837">
        <ele>1292</ele>
        <time>2021-04-27T08:41:27Z</time>
      </trkpt>
      <trkpt lat="45.20541" lon="4.4784">
        <ele>1292</ele>
        <time>2021-04-27T08:41:28Z</time>
      </trkpt>
      <trkpt lat="45.20536" lon="4.47843">
        <ele>1292</ele>
        <time>2021-04-27T08:41:29Z</time>
      </trkpt>
      <trkpt lat="45.20532" lon="4.47845">
        <ele>1292</ele>
        <time>2021-04-27T08:41:30Z</time>
      </trkpt>
      <trkpt lat="45.20527" lon="4.47847">
        <ele>1292</ele>
        <time>2021-04-27T08:41:31Z</time>
      </trkpt>
      <trkpt lat="45.20522" lon="4.47849">
        <ele>1292</ele>
        <time>2021-04-27T08:41:32Z</time>
      </trkpt>
      <trkpt lat="45.20518" lon="4.47851">
        <ele>1293</ele>
        <time>2021-04-27T08:41:33Z</time>
      </trkpt>
      <trkpt lat="45.20514" lon="4.47854">
        <ele>1293</ele>
        <time>2021-04-27T08:41:34Z</time>
      </trkpt>
      <trkpt lat="45.20509" lon="4.47855">
        <ele>1293</ele>
        <time>2021-04-27T08:41:35Z</time>
      </trkpt>
      <trkpt lat="45.20505" lon="4.47856">
        <ele>1293</ele>
        <time>2021-04-27T08:41:36Z</time>
      </trkpt>
      <trkpt lat="45.20501" lon="4.47856">
        <ele>1293</ele>
        <time>2021-04-27T08:41:37Z</time>
      </trkpt>
      <trkpt lat="45.20498" lon="4.47856">
        <ele>1293</ele>
        <time>2021-04-27T08:41:38Z</time>
      </trkpt>
      <trkpt lat="45.20493" lon="4.47856">
        <ele>1293</ele>
        <time>2021-04-27T08:41:39Z</time>
      </trkpt>
      <trkpt lat="45.20479" lon="4.4786">
        <ele>1294</ele>
        <time>2021-04-27T08:41:42Z</time>
      </trkpt>
      <trkpt lat="45.20473" lon="4.47861">
        <ele>1294</ele>
        <time>2021-04-27T08:41:43Z</time>
      </trkpt>
      <trkpt lat="45.20468" lon="4.47862">
        <ele>1294</ele>
        <time>2021-04-27T08:41:44Z</time>
      </trkpt>
      <trkpt lat="45.20463" lon="4.47863">
        <ele>1295</ele>
        <time>2021-04-27T08:41:45Z</time>
      </trkpt>
      <trkpt lat="45.20458" lon="4.47865">
        <ele>1295</ele>
        <time>2021-04-27T08:41:46Z</time>
      </trkpt>
      <trkpt lat="45.20454" lon="4.47867">
        <ele>1295</ele>
        <time>2021-04-27T08:41:47Z</time>
      </trkpt>
      <trkpt lat="45.20449" lon="4.47868">
        <ele>1295</ele>
        <time>2021-04-27T08:41:48Z</time>
      </trkpt>
      <trkpt lat="45.20443" lon="4.47869">
        <ele>1295</ele>
        <time>2021-04-27T08:41:49Z</time>
      </trkpt>
      <trkpt lat="45.20438" lon="4.47871">
        <ele>1295</ele>
        <time>2021-04-27T08:41:50Z</time>
      </trkpt>
      <trkpt lat="45.20433" lon="4.47872">
        <ele>1295</ele>
        <time>2021-04-27T08:41:51Z</time>
      </trkpt>
      <trkpt lat="45.20429" lon="4.47875">
        <ele>1295</ele>
        <time>2021-04-27T08:41:52Z</time>
      </trkpt>
      <trkpt lat="45.20425" lon="4.47877">
        <ele>1295</ele>
        <time>2021-04-27T08:41:53Z</time>
      </trkpt>
      <trkpt lat="45.20421" lon="4.4788">
        <ele>1295</ele>
        <time>2021-04-27T08:41:54Z</time>
      </trkpt>
      <trkpt lat="45.20417" lon="4.47882">
        <ele>1295</ele>
        <time>2021-04-27T08:41:55Z</time>
      </trkpt>
      <trkpt lat="45.20413" lon="4.47884">
        <ele>1295</ele>
        <time>2021-04-27T08:41:56Z</time>
      </trkpt>
      <trkpt lat="45.20409" lon="4.47885">
        <ele>1296</ele>
        <time>2021-04-27T08:41:57Z</time>
      </trkpt>
      <trkpt lat="45.20405" lon="4.47886">
        <ele>1296</ele>
        <time>2021-04-27T08:41:58Z</time>
      </trkpt>
      <trkpt lat="45.20401" lon="4.47886">
        <ele>1296</ele>
        <time>2021-04-27T08:41:59Z</time>
      </trkpt>
      <trkpt lat="45.20397" lon="4.47885">
        <ele>1296</ele>
        <time>2021-04-27T08:42:00Z</time>
      </trkpt>
      <trkpt lat="45.20393" lon="4.47885">
        <ele>1296</ele>
        <time>2021-04-27T08:42:01Z</time>
      </trkpt>
      <trkpt lat="45.20388" lon="4.47885">
        <ele>1296</ele>
        <time>2021-04-27T08:42:03Z</time>
      </trkpt>
      <trkpt lat="45.20385" lon="4.47884">
        <ele>1297</ele>
        <time>2021-04-27T08:42:04Z</time>
      </trkpt>
      <trkpt lat="45.20382" lon="4.47882">
        <ele>1296</ele>
        <time>2021-04-27T08:42:05Z</time>
      </trkpt>
      <trkpt lat="45.20378" lon="4.4788">
        <ele>1297</ele>
        <time>2021-04-27T08:42:06Z</time>
      </trkpt>
      <trkpt lat="45.20373" lon="4.47877">
        <ele>1297</ele>
        <time>2021-04-27T08:42:07Z</time>
      </trkpt>
      <trkpt lat="45.20369" lon="4.47873">
        <ele>1297</ele>
        <time>2021-04-27T08:42:08Z</time>
      </trkpt>
      <trkpt lat="45.20365" lon="4.4787">
        <ele>1297</ele>
        <time>2021-04-27T08:42:09Z</time>
      </trkpt>
      <trkpt lat="45.20361" lon="4.47867">
        <ele>1297</ele>
        <time>2021-04-27T08:42:10Z</time>
      </trkpt>
      <trkpt lat="45.20358" lon="4.47865">
        <ele>1297</ele>
        <time>2021-04-27T08:42:11Z</time>
      </trkpt>
      <trkpt lat="45.20353" lon="4.47863">
        <ele>1297</ele>
        <time>2021-04-27T08:42:12Z</time>
      </trkpt>
      <trkpt lat="45.2035" lon="4.47861">
        <ele>1297</ele>
        <time>2021-04-27T08:42:13Z</time>
      </trkpt>
      <trkpt lat="45.20345" lon="4.47859">
        <ele>1297</ele>
        <time>2021-04-27T08:42:14Z</time>
      </trkpt>
      <trkpt lat="45.20333" lon="4.47854">
        <ele>1298</ele>
        <time>2021-04-27T08:42:17Z</time>
      </trkpt>
      <trkpt lat="45.20322" lon="4.47849">
        <ele>1299</ele>
        <time>2021-04-27T08:42:20Z</time>
      </trkpt>
      <trkpt lat="45.20318" lon="4.47846">
        <ele>1299</ele>
        <time>2021-04-27T08:42:21Z</time>
      </trkpt>
      <trkpt lat="45.20314" lon="4.47845">
        <ele>1299</ele>
        <time>2021-04-27T08:42:22Z</time>
      </trkpt>
      <trkpt lat="45.2031" lon="4.47843">
        <ele>1299</ele>
        <time>2021-04-27T08:42:23Z</time>
      </trkpt>
      <trkpt lat="45.20306" lon="4.47842">
        <ele>1299</ele>
        <time>2021-04-27T08:42:24Z</time>
      </trkpt>
      <trkpt lat="45.20302" lon="4.47842">
        <ele>1299</ele>
        <time>2021-04-27T08:42:25Z</time>
      </trkpt>
      <trkpt lat="45.20298" lon="4.47841">
        <ele>1299</ele>
        <time>2021-04-27T08:42:26Z</time>
      </trkpt>
      <trkpt lat="45.20293" lon="4.47841">
        <ele>1299</ele>
        <time>2021-04-27T08:42:27Z</time>
      </trkpt>
      <trkpt lat="45.20288" lon="4.4784">
        <ele>1300</ele>
        <time>2021-04-27T08:42:28Z</time>
      </trkpt>
      <trkpt lat="45.20283" lon="4.47839">
        <ele>1300</ele>
        <time>2021-04-27T08:42:29Z</time>
      </trkpt>
      <trkpt lat="45.20279" lon="4.47838">
        <ele>1301</ele>
        <time>2021-04-27T08:42:30Z</time>
      </trkpt>
      <trkpt lat="45.20275" lon="4.47837">
        <ele>1301</ele>
        <time>2021-04-27T08:42:31Z</time>
      </trkpt>
      <trkpt lat="45.20271" lon="4.47836">
        <ele>1302</ele>
        <time>2021-04-27T08:42:32Z</time>
      </trkpt>
      <trkpt lat="45.20267" lon="4.47835">
        <ele>1302</ele>
        <time>2021-04-27T08:42:33Z</time>
      </trkpt>
      <trkpt lat="45.20263" lon="4.47834">
        <ele>1302</ele>
        <time>2021-04-27T08:42:34Z</time>
      </trkpt>
      <trkpt lat="45.2026" lon="4.47832">
        <ele>1303</ele>
        <time>2021-04-27T08:42:35Z</time>
      </trkpt>
      <trkpt lat="45.20256" lon="4.4783">
        <ele>1303</ele>
        <time>2021-04-27T08:42:36Z</time>
      </trkpt>
      <trkpt lat="45.20253" lon="4.47827">
        <ele>1303</ele>
        <time>2021-04-27T08:42:37Z</time>
      </trkpt>
      <trkpt lat="45.2025" lon="4.47825">
        <ele>1304</ele>
        <time>2021-04-27T08:42:38Z</time>
      </trkpt>
      <trkpt lat="45.20247" lon="4.47823">
        <ele>1304</ele>
        <time>2021-04-27T08:42:39Z</time>
      </trkpt>
      <trkpt lat="45.20243" lon="4.47823">
        <ele>1305</ele>
        <time>2021-04-27T08:42:40Z</time>
      </trkpt>
      <trkpt lat="45.20239" lon="4.47824">
        <ele>1305</ele>
        <time>2021-04-27T08:42:41Z</time>
      </trkpt>
      <trkpt lat="45.20234" lon="4.47825">
        <ele>1305</ele>
        <time>2021-04-27T08:42:42Z</time>
      </trkpt>
      <trkpt lat="45.2023" lon="4.47826">
        <ele>1306</ele>
        <time>2021-04-27T08:42:43Z</time>
      </trkpt>
      <trkpt lat="45.20225" lon="4.47827">
        <ele>1306</ele>
        <time>2021-04-27T08:42:44Z</time>
      </trkpt>
      <trkpt lat="45.20221" lon="4.47829">
        <ele>1307</ele>
        <time>2021-04-27T08:42:45Z</time>
      </trkpt>
      <trkpt lat="45.20217" lon="4.4783">
        <ele>1307</ele>
        <time>2021-04-27T08:42:46Z</time>
      </trkpt>
      <trkpt lat="45.20214" lon="4.47831">
        <ele>1307</ele>
        <time>2021-04-27T08:42:47Z</time>
      </trkpt>
      <trkpt lat="45.20211" lon="4.47831">
        <ele>1308</ele>
        <time>2021-04-27T08:42:48Z</time>
      </trkpt>
      <trkpt lat="45.20207" lon="4.47832">
        <ele>1308</ele>
        <time>2021-04-27T08:42:49Z</time>
      </trkpt>
      <trkpt lat="45.20203" lon="4.47834">
        <ele>1308</ele>
        <time>2021-04-27T08:42:50Z</time>
      </trkpt>
      <trkpt lat="45.202" lon="4.47835">
        <ele>1308</ele>
        <time>2021-04-27T08:42:51Z</time>
      </trkpt>
      <trkpt lat="45.20197" lon="4.47838">
        <ele>1309</ele>
        <time>2021-04-27T08:42:52Z</time>
      </trkpt>
      <trkpt lat="45.20195" lon="4.4784">
        <ele>1309</ele>
        <time>2021-04-27T08:42:53Z</time>
      </trkpt>
      <trkpt lat="45.20192" lon="4.47842">
        <ele>1309</ele>
        <time>2021-04-27T08:42:54Z</time>
      </trkpt>
      <trkpt lat="45.20189" lon="4.47844">
        <ele>1310</ele>
        <time>2021-04-27T08:42:55Z</time>
      </trkpt>
      <trkpt lat="45.20187" lon="4.47845">
        <ele>1310</ele>
        <time>2021-04-27T08:42:56Z</time>
      </trkpt>
      <trkpt lat="45.20184" lon="4.47847">
        <ele>1310</ele>
        <time>2021-04-27T08:42:57Z</time>
      </trkpt>
      <trkpt lat="45.20181" lon="4.4785">
        <ele>1311</ele>
        <time>2021-04-27T08:42:58Z</time>
      </trkpt>
      <trkpt lat="45.20176" lon="4.47853">
        <ele>1311</ele>
        <time>2021-04-27T08:42:59Z</time>
      </trkpt>
      <trkpt lat="45.20172" lon="4.47856">
        <ele>1312</ele>
        <time>2021-04-27T08:43:00Z</time>
      </trkpt>
      <trkpt lat="45.20169" lon="4.47858">
        <ele>1312</ele>
        <time>2021-04-27T08:43:01Z</time>
      </trkpt>
      <trkpt lat="45.20166" lon="4.4786">
        <ele>1312</ele>
        <time>2021-04-27T08:43:02Z</time>
      </trkpt>
      <trkpt lat="45.20163" lon="4.47861">
        <ele>1313</ele>
        <time>2021-04-27T08:43:03Z</time>
      </trkpt>
      <trkpt lat="45.20161" lon="4.47864">
        <ele>1313</ele>
        <time>2021-04-27T08:43:04Z</time>
      </trkpt>
      <trkpt lat="45.20159" lon="4.47866">
        <ele>1313</ele>
        <time>2021-04-27T08:43:05Z</time>
      </trkpt>
      <trkpt lat="45.20155" lon="4.4787">
        <ele>1314</ele>
        <time>2021-04-27T08:43:06Z</time>
      </trkpt>
      <trkpt lat="45.2015" lon="4.47874">
        <ele>1314</ele>
        <time>2021-04-27T08:43:07Z</time>
      </trkpt>
      <trkpt lat="45.20147" lon="4.47878">
        <ele>1314</ele>
        <time>2021-04-27T08:43:08Z</time>
      </trkpt>
      <trkpt lat="45.20143" lon="4.47882">
        <ele>1315</ele>
        <time>2021-04-27T08:43:09Z</time>
      </trkpt>
      <trkpt lat="45.20136" lon="4.47891">
        <ele>1316</ele>
        <time>2021-04-27T08:43:12Z</time>
      </trkpt>
      <trkpt lat="45.20127" lon="4.47898">
        <ele>1317</ele>
        <time>2021-04-27T08:43:15Z</time>
      </trkpt>
      <trkpt lat="45.20117" lon="4.47907">
        <ele>1318</ele>
        <time>2021-04-27T08:43:18Z</time>
      </trkpt>
      <trkpt lat="45.2011" lon="4.47915">
        <ele>1319</ele>
        <time>2021-04-27T08:43:21Z</time>
      </trkpt>
      <trkpt lat="45.20101" lon="4.47924">
        <ele>1320</ele>
        <time>2021-04-27T08:43:24Z</time>
      </trkpt>
      <trkpt lat="45.20098" lon="4.47926">
        <ele>1320</ele>
        <time>2021-04-27T08:43:25Z</time>
      </trkpt>
      <trkpt lat="45.2009" lon="4.47933">
        <ele>1321</ele>
        <time>2021-04-27T08:43:28Z</time>
      </trkpt>
      <trkpt lat="45.2008" lon="4.47941">
        <ele>1322</ele>
        <time>2021-04-27T08:43:31Z</time>
      </trkpt>
      <trkpt lat="45.20077" lon="4.47943">
        <ele>1323</ele>
        <time>2021-04-27T08:43:32Z</time>
      </trkpt>
      <trkpt lat="45.20075" lon="4.47944">
        <ele>1323</ele>
        <time>2021-04-27T08:43:33Z</time>
      </trkpt>
      <trkpt lat="45.20073" lon="4.47946">
        <ele>1323</ele>
        <time>2021-04-27T08:43:34Z</time>
      </trkpt>
      <trkpt lat="45.2007" lon="4.47948">
        <ele>1324</ele>
        <time>2021-04-27T08:43:35Z</time>
      </trkpt>
      <trkpt lat="45.20067" lon="4.4795">
        <ele>1324</ele>
        <time>2021-04-27T08:43:36Z</time>
      </trkpt>
      <trkpt lat="45.20065" lon="4.47952">
        <ele>1324</ele>
        <time>2021-04-27T08:43:37Z</time>
      </trkpt>
      <trkpt lat="45.20063" lon="4.47954">
        <ele>1325</ele>
        <time>2021-04-27T08:43:38Z</time>
      </trkpt>
      <trkpt lat="45.2006" lon="4.47958">
        <ele>1325</ele>
        <time>2021-04-27T08:43:39Z</time>
      </trkpt>
      <trkpt lat="45.20057" lon="4.47962">
        <ele>1325</ele>
        <time>2021-04-27T08:43:40Z</time>
      </trkpt>
      <trkpt lat="45.20054" lon="4.47965">
        <ele>1326</ele>
        <time>2021-04-27T08:43:41Z</time>
      </trkpt>
      <trkpt lat="45.20052" lon="4.47967">
        <ele>1326</ele>
        <time>2021-04-27T08:43:42Z</time>
      </trkpt>
      <trkpt lat="45.20049" lon="4.4797">
        <ele>1326</ele>
        <time>2021-04-27T08:43:43Z</time>
      </trkpt>
      <trkpt lat="45.20047" lon="4.47974">
        <ele>1327</ele>
        <time>2021-04-27T08:43:44Z</time>
      </trkpt>
      <trkpt lat="45.20045" lon="4.47977">
        <ele>1327</ele>
        <time>2021-04-27T08:43:45Z</time>
      </trkpt>
      <trkpt lat="45.20044" lon="4.4798">
        <ele>1327</ele>
        <time>2021-04-27T08:43:46Z</time>
      </trkpt>
      <trkpt lat="45.20043" lon="4.47983">
        <ele>1328</ele>
        <time>2021-04-27T08:43:47Z</time>
      </trkpt>
      <trkpt lat="45.20042" lon="4.47986">
        <ele>1328</ele>
        <time>2021-04-27T08:43:48Z</time>
      </trkpt>
      <trkpt lat="45.20041" lon="4.47989">
        <ele>1328</ele>
        <time>2021-04-27T08:43:49Z</time>
      </trkpt>
      <trkpt lat="45.20039" lon="4.47991">
        <ele>1329</ele>
        <time>2021-04-27T08:43:50Z</time>
      </trkpt>
      <trkpt lat="45.20037" lon="4.47994">
        <ele>1329</ele>
        <time>2021-04-27T08:43:51Z</time>
      </trkpt>
      <trkpt lat="45.20035" lon="4.47996">
        <ele>1329</ele>
        <time>2021-04-27T08:43:52Z</time>
      </trkpt>
      <trkpt lat="45.20033" lon="4.47999">
        <ele>1330</ele>
        <time>2021-04-27T08:43:53Z</time>
      </trkpt>
      <trkpt lat="45.20031" lon="4.48001">
        <ele>1330</ele>
        <time>2021-04-27T08:43:54Z</time>
      </trkpt>
      <trkpt lat="45.20028" lon="4.48003">
        <ele>1330</ele>
        <time>2021-04-27T08:43:55Z</time>
      </trkpt>
      <trkpt lat="45.20025" lon="4.48006">
        <ele>1331</ele>
        <time>2021-04-27T08:43:56Z</time>
      </trkpt>
      <trkpt lat="45.20022" lon="4.48011">
        <ele>1331</ele>
        <time>2021-04-27T08:43:57Z</time>
      </trkpt>
      <trkpt lat="45.20019" lon="4.48015">
        <ele>1332</ele>
        <time>2021-04-27T08:43:58Z</time>
      </trkpt>
      <trkpt lat="45.20017" lon="4.4802">
        <ele>1332</ele>
        <time>2021-04-27T08:43:59Z</time>
      </trkpt>
      <trkpt lat="45.20015" lon="4.48025">
        <ele>1333</ele>
        <time>2021-04-27T08:44:00Z</time>
      </trkpt>
      <trkpt lat="45.20014" lon="4.48029">
        <ele>1333</ele>
        <time>2021-04-27T08:44:01Z</time>
      </trkpt>
      <trkpt lat="45.20012" lon="4.48034">
        <ele>1333</ele>
        <time>2021-04-27T08:44:02Z</time>
      </trkpt>
      <trkpt lat="45.2001" lon="4.48038">
        <ele>1334</ele>
        <time>2021-04-27T08:44:03Z</time>
      </trkpt>
      <trkpt lat="45.20008" lon="4.48042">
        <ele>1334</ele>
        <time>2021-04-27T08:44:04Z</time>
      </trkpt>
      <trkpt lat="45.20006" lon="4.48046">
        <ele>1334</ele>
        <time>2021-04-27T08:44:05Z</time>
      </trkpt>
      <trkpt lat="45.20004" lon="4.4805">
        <ele>1335</ele>
        <time>2021-04-27T08:44:06Z</time>
      </trkpt>
      <trkpt lat="45.20003" lon="4.48053">
        <ele>1335</ele>
        <time>2021-04-27T08:44:07Z</time>
      </trkpt>
      <trkpt lat="45.20001" lon="4.48057">
        <ele>1335</ele>
        <time>2021-04-27T08:44:08Z</time>
      </trkpt>
      <trkpt lat="45.2" lon="4.48061">
        <ele>1335</ele>
        <time>2021-04-27T08:44:09Z</time>
      </trkpt>
      <trkpt lat="45.19998" lon="4.48066">
        <ele>1336</ele>
        <time>2021-04-27T08:44:10Z</time>
      </trkpt>
      <trkpt lat="45.19997" lon="4.4807">
        <ele>1336</ele>
        <time>2021-04-27T08:44:11Z</time>
      </trkpt>
      <trkpt lat="45.19996" lon="4.48075">
        <ele>1336</ele>
        <time>2021-04-27T08:44:12Z</time>
      </trkpt>
      <trkpt lat="45.19995" lon="4.4808">
        <ele>1337</ele>
        <time>2021-04-27T08:44:13Z</time>
      </trkpt>
      <trkpt lat="45.19994" lon="4.48084">
        <ele>1337</ele>
        <time>2021-04-27T08:44:14Z</time>
      </trkpt>
      <trkpt lat="45.19993" lon="4.48089">
        <ele>1337</ele>
        <time>2021-04-27T08:44:15Z</time>
      </trkpt>
      <trkpt lat="45.19991" lon="4.48092">
        <ele>1338</ele>
        <time>2021-04-27T08:44:16Z</time>
      </trkpt>
      <trkpt lat="45.19989" lon="4.48095">
        <ele>1338</ele>
        <time>2021-04-27T08:44:17Z</time>
      </trkpt>
      <trkpt lat="45.19987" lon="4.48098">
        <ele>1338</ele>
        <time>2021-04-27T08:44:18Z</time>
      </trkpt>
      <trkpt lat="45.19986" lon="4.48102">
        <ele>1338</ele>
        <time>2021-04-27T08:44:19Z</time>
      </trkpt>
      <trkpt lat="45.19984" lon="4.48107">
        <ele>1339</ele>
        <time>2021-04-27T08:44:20Z</time>
      </trkpt>
      <trkpt lat="45.19982" lon="4.48111">
        <ele>1339</ele>
        <time>2021-04-27T08:44:21Z</time>
      </trkpt>
      <trkpt lat="45.1998" lon="4.48115">
        <ele>1340</ele>
        <time>2021-04-27T08:44:22Z</time>
      </trkpt>
      <trkpt lat="45.19979" lon="4.48119">
        <ele>1340</ele>
        <time>2021-04-27T08:44:23Z</time>
      </trkpt>
      <trkpt lat="45.19977" lon="4.48124">
        <ele>1340</ele>
        <time>2021-04-27T08:44:24Z</time>
      </trkpt>
      <trkpt lat="45.19975" lon="4.48128">
        <ele>1341</ele>
        <time>2021-04-27T08:44:25Z</time>
      </trkpt>
      <trkpt lat="45.19973" lon="4.48132">
        <ele>1341</ele>
        <time>2021-04-27T08:44:26Z</time>
      </trkpt>
      <trkpt lat="45.19971" lon="4.48136">
        <ele>1342</ele>
        <time>2021-04-27T08:44:27Z</time>
      </trkpt>
      <trkpt lat="45.19969" lon="4.4814">
        <ele>1342</ele>
        <time>2021-04-27T08:44:28Z</time>
      </trkpt>
      <trkpt lat="45.19968" lon="4.48143">
        <ele>1343</ele>
        <time>2021-04-27T08:44:29Z</time>
      </trkpt>
      <trkpt lat="45.19966" lon="4.48147">
        <ele>1343</ele>
        <time>2021-04-27T08:44:30Z</time>
      </trkpt>
      <trkpt lat="45.19965" lon="4.48151">
        <ele>1343</ele>
        <time>2021-04-27T08:44:31Z</time>
      </trkpt>
      <trkpt lat="45.19963" lon="4.48155">
        <ele>1344</ele>
        <time>2021-04-27T08:44:32Z</time>
      </trkpt>
      <trkpt lat="45.19961" lon="4.48159">
        <ele>1344</ele>
        <time>2021-04-27T08:44:33Z</time>
      </trkpt>
      <trkpt lat="45.19959" lon="4.48163">
        <ele>1345</ele>
        <time>2021-04-27T08:44:34Z</time>
      </trkpt>
      <trkpt lat="45.19956" lon="4.48166">
        <ele>1345</ele>
        <time>2021-04-27T08:44:35Z</time>
      </trkpt>
      <trkpt lat="45.19953" lon="4.48169">
        <ele>1346</ele>
        <time>2021-04-27T08:44:36Z</time>
      </trkpt>
      <trkpt lat="45.1995" lon="4.48171">
        <ele>1346</ele>
        <time>2021-04-27T08:44:37Z</time>
      </trkpt>
      <trkpt lat="45.19947" lon="4.48174">
        <ele>1346</ele>
        <time>2021-04-27T08:44:38Z</time>
      </trkpt>
      <trkpt lat="45.19945" lon="4.48175">
        <ele>1347</ele>
        <time>2021-04-27T08:44:39Z</time>
      </trkpt>
      <trkpt lat="45.19942" lon="4.48177">
        <ele>1347</ele>
        <time>2021-04-27T08:44:40Z</time>
      </trkpt>
      <trkpt lat="45.19939" lon="4.48179">
        <ele>1348</ele>
        <time>2021-04-27T08:44:41Z</time>
      </trkpt>
      <trkpt lat="45.19936" lon="4.48181">
        <ele>1348</ele>
        <time>2021-04-27T08:44:42Z</time>
      </trkpt>
      <trkpt lat="45.19933" lon="4.48183">
        <ele>1348</ele>
        <time>2021-04-27T08:44:43Z</time>
      </trkpt>
      <trkpt lat="45.19931" lon="4.48184">
        <ele>1348</ele>
        <time>2021-04-27T08:44:44Z</time>
      </trkpt>
      <trkpt lat="45.19928" lon="4.48184">
        <ele>1349</ele>
        <time>2021-04-27T08:44:45Z</time>
      </trkpt>
      <trkpt lat="45.19925" lon="4.48185">
        <ele>1349</ele>
        <time>2021-04-27T08:44:46Z</time>
      </trkpt>
      <trkpt lat="45.19923" lon="4.48185">
        <ele>1349</ele>
        <time>2021-04-27T08:44:47Z</time>
      </trkpt>
      <trkpt lat="45.1992" lon="4.48186">
        <ele>1350</ele>
        <time>2021-04-27T08:44:48Z</time>
      </trkpt>
      <trkpt lat="45.19917" lon="4.48185">
        <ele>1350</ele>
        <time>2021-04-27T08:44:49Z</time>
      </trkpt>
      <trkpt lat="45.19914" lon="4.48185">
        <ele>1351</ele>
        <time>2021-04-27T08:44:50Z</time>
      </trkpt>
      <trkpt lat="45.1991" lon="4.48183">
        <ele>1351</ele>
        <time>2021-04-27T08:44:51Z</time>
      </trkpt>
      <trkpt lat="45.19905" lon="4.48183">
        <ele>1351</ele>
        <time>2021-04-27T08:44:52Z</time>
      </trkpt>
      <trkpt lat="45.19896" lon="4.48183">
        <ele>1352</ele>
        <time>2021-04-27T08:44:54Z</time>
      </trkpt>
      <trkpt lat="45.19892" lon="4.48184">
        <ele>1352</ele>
        <time>2021-04-27T08:44:55Z</time>
      </trkpt>
      <trkpt lat="45.19888" lon="4.48184">
        <ele>1352</ele>
        <time>2021-04-27T08:44:56Z</time>
      </trkpt>
      <trkpt lat="45.19884" lon="4.48184">
        <ele>1353</ele>
        <time>2021-04-27T08:44:57Z</time>
      </trkpt>
      <trkpt lat="45.1988" lon="4.48184">
        <ele>1353</ele>
        <time>2021-04-27T08:44:58Z</time>
      </trkpt>
      <trkpt lat="45.19876" lon="4.48185">
        <ele>1354</ele>
        <time>2021-04-27T08:44:59Z</time>
      </trkpt>
      <trkpt lat="45.19872" lon="4.48184">
        <ele>1354</ele>
        <time>2021-04-27T08:45:00Z</time>
      </trkpt>
      <trkpt lat="45.19869" lon="4.48184">
        <ele>1354</ele>
        <time>2021-04-27T08:45:01Z</time>
      </trkpt>
      <trkpt lat="45.19866" lon="4.48183">
        <ele>1354</ele>
        <time>2021-04-27T08:45:02Z</time>
      </trkpt>
      <trkpt lat="45.19863" lon="4.48183">
        <ele>1355</ele>
        <time>2021-04-27T08:45:03Z</time>
      </trkpt>
      <trkpt lat="45.1986" lon="4.48183">
        <ele>1355</ele>
        <time>2021-04-27T08:45:04Z</time>
      </trkpt>
      <trkpt lat="45.19853" lon="4.48183">
        <ele>1355</ele>
        <time>2021-04-27T08:45:06Z</time>
      </trkpt>
      <trkpt lat="45.1985" lon="4.48181">
        <ele>1356</ele>
        <time>2021-04-27T08:45:07Z</time>
      </trkpt>
      <trkpt lat="45.19847" lon="4.4818">
        <ele>1356</ele>
        <time>2021-04-27T08:45:08Z</time>
      </trkpt>
      <trkpt lat="45.19845" lon="4.4818">
        <ele>1356</ele>
        <time>2021-04-27T08:45:09Z</time>
      </trkpt>
      <trkpt lat="45.19842" lon="4.48178">
        <ele>1356</ele>
        <time>2021-04-27T08:45:10Z</time>
      </trkpt>
      <trkpt lat="45.19831" lon="4.48172">
        <ele>1357</ele>
        <time>2021-04-27T08:45:13Z</time>
      </trkpt>
      <trkpt lat="45.19821" lon="4.48166">
        <ele>1358</ele>
        <time>2021-04-27T08:45:16Z</time>
      </trkpt>
      <trkpt lat="45.1981" lon="4.48162">
        <ele>1359</ele>
        <time>2021-04-27T08:45:19Z</time>
      </trkpt>
      <trkpt lat="45.19804" lon="4.48161">
        <ele>1359</ele>
        <time>2021-04-27T08:45:21Z</time>
      </trkpt>
      <trkpt lat="45.19797" lon="4.4816">
        <ele>1360</ele>
        <time>2021-04-27T08:45:23Z</time>
      </trkpt>
      <trkpt lat="45.19794" lon="4.4816">
        <ele>1360</ele>
        <time>2021-04-27T08:45:24Z</time>
      </trkpt>
      <trkpt lat="45.1979" lon="4.4816">
        <ele>1361</ele>
        <time>2021-04-27T08:45:25Z</time>
      </trkpt>
      <trkpt lat="45.19787" lon="4.48161">
        <ele>1361</ele>
        <time>2021-04-27T08:45:26Z</time>
      </trkpt>
      <trkpt lat="45.19783" lon="4.48161">
        <ele>1362</ele>
        <time>2021-04-27T08:45:27Z</time>
      </trkpt>
      <trkpt lat="45.19773" lon="4.48162">
        <ele>1362</ele>
        <time>2021-04-27T08:45:30Z</time>
      </trkpt>
      <trkpt lat="45.19764" lon="4.48164">
        <ele>1363</ele>
        <time>2021-04-27T08:45:32Z</time>
      </trkpt>
      <trkpt lat="45.1976" lon="4.48167">
        <ele>1363</ele>
        <time>2021-04-27T08:45:33Z</time>
      </trkpt>
      <trkpt lat="45.19753" lon="4.48171">
        <ele>1363</ele>
        <time>2021-04-27T08:45:35Z</time>
      </trkpt>
      <trkpt lat="45.19745" lon="4.48173">
        <ele>1363</ele>
        <time>2021-04-27T08:45:37Z</time>
      </trkpt>
      <trkpt lat="45.19738" lon="4.48174">
        <ele>1364</ele>
        <time>2021-04-27T08:45:39Z</time>
      </trkpt>
      <trkpt lat="45.19734" lon="4.48174">
        <ele>1364</ele>
        <time>2021-04-27T08:45:40Z</time>
      </trkpt>
      <trkpt lat="45.19731" lon="4.48174">
        <ele>1364</ele>
        <time>2021-04-27T08:45:41Z</time>
      </trkpt>
      <trkpt lat="45.19727" lon="4.48174">
        <ele>1364</ele>
        <time>2021-04-27T08:45:42Z</time>
      </trkpt>
      <trkpt lat="45.19724" lon="4.48174">
        <ele>1364</ele>
        <time>2021-04-27T08:45:43Z</time>
      </trkpt>
      <trkpt lat="45.1972" lon="4.48173">
        <ele>1364</ele>
        <time>2021-04-27T08:45:44Z</time>
      </trkpt>
      <trkpt lat="45.19716" lon="4.48173">
        <ele>1364</ele>
        <time>2021-04-27T08:45:45Z</time>
      </trkpt>
      <trkpt lat="45.19713" lon="4.48172">
        <ele>1365</ele>
        <time>2021-04-27T08:45:46Z</time>
      </trkpt>
      <trkpt lat="45.19709" lon="4.4817">
        <ele>1365</ele>
        <time>2021-04-27T08:45:47Z</time>
      </trkpt>
      <trkpt lat="45.19705" lon="4.48169">
        <ele>1365</ele>
        <time>2021-04-27T08:45:48Z</time>
      </trkpt>
      <trkpt lat="45.19702" lon="4.48168">
        <ele>1365</ele>
        <time>2021-04-27T08:45:49Z</time>
      </trkpt>
      <trkpt lat="45.19699" lon="4.48167">
        <ele>1366</ele>
        <time>2021-04-27T08:45:50Z</time>
      </trkpt>
      <trkpt lat="45.19696" lon="4.48166">
        <ele>1366</ele>
        <time>2021-04-27T08:45:51Z</time>
      </trkpt>
      <trkpt lat="45.19694" lon="4.48166">
        <ele>1366</ele>
        <time>2021-04-27T08:45:52Z</time>
      </trkpt>
      <trkpt lat="45.19692" lon="4.48166">
        <ele>1367</ele>
        <time>2021-04-27T08:45:53Z</time>
      </trkpt>
      <trkpt lat="45.19683" lon="4.48165">
        <ele>1368</ele>
        <time>2021-04-27T08:45:56Z</time>
      </trkpt>
      <trkpt lat="45.19672" lon="4.48165">
        <ele>1368</ele>
        <time>2021-04-27T08:45:59Z</time>
      </trkpt>
      <trkpt lat="45.19669" lon="4.48166">
        <ele>1369</ele>
        <time>2021-04-27T08:46:00Z</time>
      </trkpt>
      <trkpt lat="45.19666" lon="4.48167">
        <ele>1369</ele>
        <time>2021-04-27T08:46:01Z</time>
      </trkpt>
      <trkpt lat="45.19657" lon="4.48173">
        <ele>1370</ele>
        <time>2021-04-27T08:46:04Z</time>
      </trkpt>
      <trkpt lat="45.1965" lon="4.48179">
        <ele>1371</ele>
        <time>2021-04-27T08:46:07Z</time>
      </trkpt>
      <trkpt lat="45.19647" lon="4.48181">
        <ele>1371</ele>
        <time>2021-04-27T08:46:08Z</time>
      </trkpt>
      <trkpt lat="45.19645" lon="4.48183">
        <ele>1371</ele>
        <time>2021-04-27T08:46:09Z</time>
      </trkpt>
      <trkpt lat="45.19643" lon="4.48185">
        <ele>1371</ele>
        <time>2021-04-27T08:46:10Z</time>
      </trkpt>
      <trkpt lat="45.19641" lon="4.48187">
        <ele>1371</ele>
        <time>2021-04-27T08:46:11Z</time>
      </trkpt>
      <trkpt lat="45.19638" lon="4.48189">
        <ele>1371</ele>
        <time>2021-04-27T08:46:13Z</time>
      </trkpt>
      <trkpt lat="45.19637" lon="4.4819">
        <ele>1372</ele>
        <time>2021-04-27T08:46:14Z</time>
      </trkpt>
      <trkpt lat="45.19635" lon="4.48191">
        <ele>1372</ele>
        <time>2021-04-27T08:46:15Z</time>
      </trkpt>
      <trkpt lat="45.19633" lon="4.48193">
        <ele>1373</ele>
        <time>2021-04-27T08:46:17Z</time>
      </trkpt>
      <trkpt lat="45.19628" lon="4.48196">
        <ele>1378</ele>
        <time>2021-04-27T08:50:01Z</time>
      </trkpt>
      <trkpt lat="45.19628" lon="4.48196">
        <ele>1378</ele>
        <time>2021-04-27T08:50:04Z</time>
      </trkpt>
      <trkpt lat="45.19623" lon="4.48194">
        <ele>1379</ele>
        <time>2021-04-27T08:50:13Z</time>
      </trkpt>
      <trkpt lat="45.1962" lon="4.48191">
        <ele>1379</ele>
        <time>2021-04-27T08:50:15Z</time>
      </trkpt>
      <trkpt lat="45.19619" lon="4.48188">
        <ele>1379</ele>
        <time>2021-04-27T08:50:16Z</time>
      </trkpt>
      <trkpt lat="45.19617" lon="4.48185">
        <ele>1379</ele>
        <time>2021-04-27T08:50:17Z</time>
      </trkpt>
      <trkpt lat="45.19617" lon="4.48182">
        <ele>1380</ele>
        <time>2021-04-27T08:50:18Z</time>
      </trkpt>
      <trkpt lat="45.19616" lon="4.48179">
        <ele>1380</ele>
        <time>2021-04-27T08:50:19Z</time>
      </trkpt>
      <trkpt lat="45.19615" lon="4.48176">
        <ele>1380</ele>
        <time>2021-04-27T08:50:20Z</time>
      </trkpt>
      <trkpt lat="45.19615" lon="4.48173">
        <ele>1380</ele>
        <time>2021-04-27T08:50:21Z</time>
      </trkpt>
      <trkpt lat="45.19615" lon="4.48168">
        <ele>1381</ele>
        <time>2021-04-27T08:50:23Z</time>
      </trkpt>
      <trkpt lat="45.19613" lon="4.48164">
        <ele>1381</ele>
        <time>2021-04-27T08:50:25Z</time>
      </trkpt>
      <trkpt lat="45.19613" lon="4.48161">
        <ele>1382</ele>
        <time>2021-04-27T08:50:26Z</time>
      </trkpt>
      <trkpt lat="45.19612" lon="4.48158">
        <ele>1382</ele>
        <time>2021-04-27T08:50:27Z</time>
      </trkpt>
      <trkpt lat="45.1961" lon="4.48156">
        <ele>1382</ele>
        <time>2021-04-27T08:50:28Z</time>
      </trkpt>
      <trkpt lat="45.19608" lon="4.48154">
        <ele>1383</ele>
        <time>2021-04-27T08:50:29Z</time>
      </trkpt>
      <trkpt lat="45.19606" lon="4.48153">
        <ele>1383</ele>
        <time>2021-04-27T08:50:30Z</time>
      </trkpt>
      <trkpt lat="45.19605" lon="4.4815">
        <ele>1383</ele>
        <time>2021-04-27T08:50:31Z</time>
      </trkpt>
      <trkpt lat="45.19603" lon="4.48147">
        <ele>1384</ele>
        <time>2021-04-27T08:50:32Z</time>
      </trkpt>
      <trkpt lat="45.19601" lon="4.48146">
        <ele>1384</ele>
        <time>2021-04-27T08:50:33Z</time>
      </trkpt>
      <trkpt lat="45.196" lon="4.48144">
        <ele>1384</ele>
        <time>2021-04-27T08:50:34Z</time>
      </trkpt>
      <trkpt lat="45.19598" lon="4.48142">
        <ele>1384</ele>
        <time>2021-04-27T08:50:35Z</time>
      </trkpt>
      <trkpt lat="45.19596" lon="4.48139">
        <ele>1385</ele>
        <time>2021-04-27T08:50:38Z</time>
      </trkpt>
      <trkpt lat="45.19594" lon="4.48137">
        <ele>1385</ele>
        <time>2021-04-27T08:50:39Z</time>
      </trkpt>
      <trkpt lat="45.19592" lon="4.48135">
        <ele>1386</ele>
        <time>2021-04-27T08:50:40Z</time>
      </trkpt>
      <trkpt lat="45.1959" lon="4.48133">
        <ele>1386</ele>
        <time>2021-04-27T08:50:41Z</time>
      </trkpt>
      <trkpt lat="45.19587" lon="4.48132">
        <ele>1386</ele>
        <time>2021-04-27T08:50:43Z</time>
      </trkpt>
      <trkpt lat="45.19584" lon="4.4813">
        <ele>1387</ele>
        <time>2021-04-27T08:50:45Z</time>
      </trkpt>
      <trkpt lat="45.19582" lon="4.48128">
        <ele>1387</ele>
        <time>2021-04-27T08:50:46Z</time>
      </trkpt>
      <trkpt lat="45.19581" lon="4.48126">
        <ele>1388</ele>
        <time>2021-04-27T08:50:47Z</time>
      </trkpt>
      <trkpt lat="45.19579" lon="4.48123">
        <ele>1388</ele>
        <time>2021-04-27T08:50:48Z</time>
      </trkpt>
      <trkpt lat="45.19578" lon="4.48121">
        <ele>1388</ele>
        <time>2021-04-27T08:50:49Z</time>
      </trkpt>
      <trkpt lat="45.19577" lon="4.48118">
        <ele>1388</ele>
        <time>2021-04-27T08:50:50Z</time>
      </trkpt>
      <trkpt lat="45.19576" lon="4.48115">
        <ele>1389</ele>
        <time>2021-04-27T08:50:51Z</time>
      </trkpt>
      <trkpt lat="45.19575" lon="4.48112">
        <ele>1389</ele>
        <time>2021-04-27T08:50:52Z</time>
      </trkpt>
      <trkpt lat="45.19574" lon="4.48109">
        <ele>1389</ele>
        <time>2021-04-27T08:50:53Z</time>
      </trkpt>
      <trkpt lat="45.19574" lon="4.48106">
        <ele>1389</ele>
        <time>2021-04-27T08:50:54Z</time>
      </trkpt>
      <trkpt lat="45.19572" lon="4.48102">
        <ele>1390</ele>
        <time>2021-04-27T08:50:56Z</time>
      </trkpt>
      <trkpt lat="45.19571" lon="4.48097">
        <ele>1391</ele>
        <time>2021-04-27T08:50:58Z</time>
      </trkpt>
      <trkpt lat="45.1957" lon="4.48095">
        <ele>1391</ele>
        <time>2021-04-27T08:50:59Z</time>
      </trkpt>
      <trkpt lat="45.19568" lon="4.48084">
        <ele>1392</ele>
        <time>2021-04-27T08:51:02Z</time>
      </trkpt>
      <trkpt lat="45.19568" lon="4.48082">
        <ele>1392</ele>
        <time>2021-04-27T08:51:03Z</time>
      </trkpt>
      <trkpt lat="45.19567" lon="4.48078">
        <ele>1392</ele>
        <time>2021-04-27T08:51:04Z</time>
      </trkpt>
      <trkpt lat="45.19567" lon="4.48074">
        <ele>1392</ele>
        <time>2021-04-27T08:51:06Z</time>
      </trkpt>
      <trkpt lat="45.19565" lon="4.48071">
        <ele>1393</ele>
        <time>2021-04-27T08:51:08Z</time>
      </trkpt>
      <trkpt lat="45.19563" lon="4.48068">
        <ele>1393</ele>
        <time>2021-04-27T08:51:10Z</time>
      </trkpt>
      <trkpt lat="45.19561" lon="4.48067">
        <ele>1394</ele>
        <time>2021-04-27T08:51:12Z</time>
      </trkpt>
      <trkpt lat="45.19558" lon="4.48068">
        <ele>1394</ele>
        <time>2021-04-27T08:51:14Z</time>
      </trkpt>
      <trkpt lat="45.19555" lon="4.4807">
        <ele>1394</ele>
        <time>2021-04-27T08:51:16Z</time>
      </trkpt>
      <trkpt lat="45.19552" lon="4.48071">
        <ele>1394</ele>
        <time>2021-04-27T08:51:18Z</time>
      </trkpt>
      <trkpt lat="45.19551" lon="4.48073">
        <ele>1394</ele>
        <time>2021-04-27T08:51:21Z</time>
      </trkpt>
      <trkpt lat="45.19551" lon="4.48073">
        <ele>1395</ele>
        <time>2021-04-27T08:51:24Z</time>
      </trkpt>
      <trkpt lat="45.19547" lon="4.48077">
        <ele>1393</ele>
        <time>2021-04-27T08:54:13Z</time>
      </trkpt>
      <trkpt lat="45.19544" lon="4.48081">
        <ele>1393</ele>
        <time>2021-04-27T08:54:15Z</time>
      </trkpt>
      <trkpt lat="45.19543" lon="4.48083">
        <ele>1393</ele>
        <time>2021-04-27T08:54:16Z</time>
      </trkpt>
      <trkpt lat="45.19542" lon="4.48085">
        <ele>1393</ele>
        <time>2021-04-27T08:54:17Z</time>
      </trkpt>
      <trkpt lat="45.19541" lon="4.48087">
        <ele>1393</ele>
        <time>2021-04-27T08:54:18Z</time>
      </trkpt>
      <trkpt lat="45.19539" lon="4.4809">
        <ele>1393</ele>
        <time>2021-04-27T08:54:19Z</time>
      </trkpt>
      <trkpt lat="45.19537" lon="4.48093">
        <ele>1393</ele>
        <time>2021-04-27T08:54:20Z</time>
      </trkpt>
      <trkpt lat="45.19535" lon="4.48097">
        <ele>1393</ele>
        <time>2021-04-27T08:54:21Z</time>
      </trkpt>
      <trkpt lat="45.19532" lon="4.481">
        <ele>1393</ele>
        <time>2021-04-27T08:54:22Z</time>
      </trkpt>
      <trkpt lat="45.19528" lon="4.48104">
        <ele>1393</ele>
        <time>2021-04-27T08:54:23Z</time>
      </trkpt>
      <trkpt lat="45.19524" lon="4.48109">
        <ele>1394</ele>
        <time>2021-04-27T08:54:24Z</time>
      </trkpt>
      <trkpt lat="45.19521" lon="4.48115">
        <ele>1394</ele>
        <time>2021-04-27T08:54:25Z</time>
      </trkpt>
      <trkpt lat="45.19516" lon="4.48121">
        <ele>1394</ele>
        <time>2021-04-27T08:54:26Z</time>
      </trkpt>
      <trkpt lat="45.19512" lon="4.48127">
        <ele>1394</ele>
        <time>2021-04-27T08:54:27Z</time>
      </trkpt>
      <trkpt lat="45.19503" lon="4.4814">
        <ele>1394</ele>
        <time>2021-04-27T08:54:29Z</time>
      </trkpt>
      <trkpt lat="45.19493" lon="4.48149">
        <ele>1393</ele>
        <time>2021-04-27T08:54:31Z</time>
      </trkpt>
      <trkpt lat="45.19489" lon="4.48152">
        <ele>1393</ele>
        <time>2021-04-27T08:54:32Z</time>
      </trkpt>
      <trkpt lat="45.1948" lon="4.48156">
        <ele>1393</ele>
        <time>2021-04-27T08:54:34Z</time>
      </trkpt>
      <trkpt lat="45.19469" lon="4.48159">
        <ele>1392</ele>
        <time>2021-04-27T08:54:37Z</time>
      </trkpt>
      <trkpt lat="45.19467" lon="4.48159">
        <ele>1392</ele>
        <time>2021-04-27T08:54:38Z</time>
      </trkpt>
      <trkpt lat="45.19464" lon="4.48158">
        <ele>1392</ele>
        <time>2021-04-27T08:54:40Z</time>
      </trkpt>
      <trkpt lat="45.19463" lon="4.48156">
        <ele>1391</ele>
        <time>2021-04-27T08:54:41Z</time>
      </trkpt>
      <trkpt lat="45.19459" lon="4.48153">
        <ele>1391</ele>
        <time>2021-04-27T08:54:43Z</time>
      </trkpt>
      <trkpt lat="45.19457" lon="4.48152">
        <ele>1391</ele>
        <time>2021-04-27T08:54:44Z</time>
      </trkpt>
      <trkpt lat="45.19454" lon="4.4815">
        <ele>1391</ele>
        <time>2021-04-27T08:54:45Z</time>
      </trkpt>
      <trkpt lat="45.19452" lon="4.48147">
        <ele>1391</ele>
        <time>2021-04-27T08:54:46Z</time>
      </trkpt>
      <trkpt lat="45.19449" lon="4.48145">
        <ele>1391</ele>
        <time>2021-04-27T08:54:47Z</time>
      </trkpt>
      <trkpt lat="45.19447" lon="4.48142">
        <ele>1391</ele>
        <time>2021-04-27T08:54:48Z</time>
      </trkpt>
      <trkpt lat="45.19445" lon="4.4814">
        <ele>1391</ele>
        <time>2021-04-27T08:54:49Z</time>
      </trkpt>
      <trkpt lat="45.19443" lon="4.48137">
        <ele>1391</ele>
        <time>2021-04-27T08:54:50Z</time>
      </trkpt>
      <trkpt lat="45.19441" lon="4.48134">
        <ele>1391</ele>
        <time>2021-04-27T08:54:51Z</time>
      </trkpt>
      <trkpt lat="45.19439" lon="4.48131">
        <ele>1391</ele>
        <time>2021-04-27T08:54:52Z</time>
      </trkpt>
      <trkpt lat="45.19437" lon="4.48128">
        <ele>1391</ele>
        <time>2021-04-27T08:54:53Z</time>
      </trkpt>
      <trkpt lat="45.19435" lon="4.48126">
        <ele>1391</ele>
        <time>2021-04-27T08:54:54Z</time>
      </trkpt>
      <trkpt lat="45.19433" lon="4.48122">
        <ele>1391</ele>
        <time>2021-04-27T08:54:55Z</time>
      </trkpt>
      <trkpt lat="45.19431" lon="4.48117">
        <ele>1391</ele>
        <time>2021-04-27T08:54:56Z</time>
      </trkpt>
      <trkpt lat="45.1943" lon="4.48113">
        <ele>1390</ele>
        <time>2021-04-27T08:54:57Z</time>
      </trkpt>
      <trkpt lat="45.19429" lon="4.48108">
        <ele>1390</ele>
        <time>2021-04-27T08:54:58Z</time>
      </trkpt>
      <trkpt lat="45.19423" lon="4.48097">
        <ele>1390</ele>
        <time>2021-04-27T08:55:00Z</time>
      </trkpt>
      <trkpt lat="45.19418" lon="4.48085">
        <ele>1390</ele>
        <time>2021-04-27T08:55:02Z</time>
      </trkpt>
      <trkpt lat="45.19416" lon="4.4808">
        <ele>1390</ele>
        <time>2021-04-27T08:55:03Z</time>
      </trkpt>
      <trkpt lat="45.19413" lon="4.48074">
        <ele>1390</ele>
        <time>2021-04-27T08:55:04Z</time>
      </trkpt>
      <trkpt lat="45.19411" lon="4.48067">
        <ele>1389</ele>
        <time>2021-04-27T08:55:05Z</time>
      </trkpt>
      <trkpt lat="45.19408" lon="4.48052">
        <ele>1389</ele>
        <time>2021-04-27T08:55:07Z</time>
      </trkpt>
      <trkpt lat="45.19402" lon="4.48037">
        <ele>1389</ele>
        <time>2021-04-27T08:55:09Z</time>
      </trkpt>
      <trkpt lat="45.19396" lon="4.48021">
        <ele>1388</ele>
        <time>2021-04-27T08:55:11Z</time>
      </trkpt>
      <trkpt lat="45.19389" lon="4.48006">
        <ele>1387</ele>
        <time>2021-04-27T08:55:13Z</time>
      </trkpt>
      <trkpt lat="45.19383" lon="4.4799">
        <ele>1387</ele>
        <time>2021-04-27T08:55:15Z</time>
      </trkpt>
      <trkpt lat="45.19374" lon="4.47978">
        <ele>1386</ele>
        <time>2021-04-27T08:55:17Z</time>
      </trkpt>
      <trkpt lat="45.19365" lon="4.47968">
        <ele>1386</ele>
        <time>2021-04-27T08:55:19Z</time>
      </trkpt>
      <trkpt lat="45.19355" lon="4.47958">
        <ele>1385</ele>
        <time>2021-04-27T08:55:21Z</time>
      </trkpt>
      <trkpt lat="45.1935" lon="4.47952">
        <ele>1384</ele>
        <time>2021-04-27T08:55:22Z</time>
      </trkpt>
      <trkpt lat="45.19344" lon="4.47948">
        <ele>1384</ele>
        <time>2021-04-27T08:55:23Z</time>
      </trkpt>
      <trkpt lat="45.19338" lon="4.47944">
        <ele>1383</ele>
        <time>2021-04-27T08:55:24Z</time>
      </trkpt>
      <trkpt lat="45.1933" lon="4.4794">
        <ele>1383</ele>
        <time>2021-04-27T08:55:25Z</time>
      </trkpt>
      <trkpt lat="45.19315" lon="4.47937">
        <ele>1382</ele>
        <time>2021-04-27T08:55:27Z</time>
      </trkpt>
      <trkpt lat="45.19308" lon="4.47936">
        <ele>1381</ele>
        <time>2021-04-27T08:55:28Z</time>
      </trkpt>
      <trkpt lat="45.193" lon="4.47934">
        <ele>1380</ele>
        <time>2021-04-27T08:55:29Z</time>
      </trkpt>
      <trkpt lat="45.19292" lon="4.47932">
        <ele>1379</ele>
        <time>2021-04-27T08:55:30Z</time>
      </trkpt>
      <trkpt lat="45.19286" lon="4.47929">
        <ele>1379</ele>
        <time>2021-04-27T08:55:31Z</time>
      </trkpt>
      <trkpt lat="45.19275" lon="4.4792">
        <ele>1377</ele>
        <time>2021-04-27T08:55:33Z</time>
      </trkpt>
      <trkpt lat="45.1926" lon="4.47912">
        <ele>1376</ele>
        <time>2021-04-27T08:55:35Z</time>
      </trkpt>
      <trkpt lat="45.19245" lon="4.47904">
        <ele>1375</ele>
        <time>2021-04-27T08:55:37Z</time>
      </trkpt>
      <trkpt lat="45.19236" lon="4.47898">
        <ele>1375</ele>
        <time>2021-04-27T08:55:38Z</time>
      </trkpt>
      <trkpt lat="45.19228" lon="4.47895">
        <ele>1374</ele>
        <time>2021-04-27T08:55:39Z</time>
      </trkpt>
      <trkpt lat="45.19221" lon="4.47891">
        <ele>1373</ele>
        <time>2021-04-27T08:55:40Z</time>
      </trkpt>
      <trkpt lat="45.19216" lon="4.4789">
        <ele>1372</ele>
        <time>2021-04-27T08:55:41Z</time>
      </trkpt>
      <trkpt lat="45.19212" lon="4.47889">
        <ele>1372</ele>
        <time>2021-04-27T08:55:42Z</time>
      </trkpt>
      <trkpt lat="45.19204" lon="4.47886">
        <ele>1370</ele>
        <time>2021-04-27T08:55:46Z</time>
      </trkpt>
      <trkpt lat="45.19193" lon="4.47886">
        <ele>1368</ele>
        <time>2021-04-27T08:55:51Z</time>
      </trkpt>
      <trkpt lat="45.19187" lon="4.47883">
        <ele>1367</ele>
        <time>2021-04-27T08:55:54Z</time>
      </trkpt>
      <trkpt lat="45.19185" lon="4.47883">
        <ele>1366</ele>
        <time>2021-04-27T08:55:55Z</time>
      </trkpt>
      <trkpt lat="45.19182" lon="4.47883">
        <ele>1365</ele>
        <time>2021-04-27T08:55:57Z</time>
      </trkpt>
      <trkpt lat="45.19179" lon="4.47882">
        <ele>1364</ele>
        <time>2021-04-27T08:55:59Z</time>
      </trkpt>
      <trkpt lat="45.19176" lon="4.47881">
        <ele>1364</ele>
        <time>2021-04-27T08:56:00Z</time>
      </trkpt>
      <trkpt lat="45.19174" lon="4.4788">
        <ele>1364</ele>
        <time>2021-04-27T08:56:01Z</time>
      </trkpt>
      <trkpt lat="45.19171" lon="4.4788">
        <ele>1363</ele>
        <time>2021-04-27T08:56:02Z</time>
      </trkpt>
      <trkpt lat="45.19168" lon="4.4788">
        <ele>1363</ele>
        <time>2021-04-27T08:56:03Z</time>
      </trkpt>
      <trkpt lat="45.19165" lon="4.4788">
        <ele>1363</ele>
        <time>2021-04-27T08:56:04Z</time>
      </trkpt>
      <trkpt lat="45.1916" lon="4.47877">
        <ele>1362</ele>
        <time>2021-04-27T08:56:05Z</time>
      </trkpt>
      <trkpt lat="45.19156" lon="4.47875">
        <ele>1361</ele>
        <time>2021-04-27T08:56:06Z</time>
      </trkpt>
      <trkpt lat="45.19151" lon="4.47875">
        <ele>1361</ele>
        <time>2021-04-27T08:56:07Z</time>
      </trkpt>
      <trkpt lat="45.19147" lon="4.47873">
        <ele>1360</ele>
        <time>2021-04-27T08:56:08Z</time>
      </trkpt>
      <trkpt lat="45.19137" lon="4.47869">
        <ele>1360</ele>
        <time>2021-04-27T08:56:10Z</time>
      </trkpt>
      <trkpt lat="45.19128" lon="4.47866">
        <ele>1359</ele>
        <time>2021-04-27T08:56:12Z</time>
      </trkpt>
      <trkpt lat="45.19116" lon="4.47861">
        <ele>1358</ele>
        <time>2021-04-27T08:56:15Z</time>
      </trkpt>
      <trkpt lat="45.19112" lon="4.47855">
        <ele>1358</ele>
        <time>2021-04-27T08:56:16Z</time>
      </trkpt>
      <trkpt lat="45.19109" lon="4.47849">
        <ele>1358</ele>
        <time>2021-04-27T08:56:17Z</time>
      </trkpt>
      <trkpt lat="45.19108" lon="4.47844">
        <ele>1357</ele>
        <time>2021-04-27T08:56:18Z</time>
      </trkpt>
      <trkpt lat="45.19106" lon="4.4783">
        <ele>1357</ele>
        <time>2021-04-27T08:56:21Z</time>
      </trkpt>
      <trkpt lat="45.19098" lon="4.47817">
        <ele>1356</ele>
        <time>2021-04-27T08:56:24Z</time>
      </trkpt>
      <trkpt lat="45.19089" lon="4.47807">
        <ele>1356</ele>
        <time>2021-04-27T08:56:27Z</time>
      </trkpt>
      <trkpt lat="45.19081" lon="4.47798">
        <ele>1356</ele>
        <time>2021-04-27T08:56:30Z</time>
      </trkpt>
      <trkpt lat="45.19073" lon="4.47788">
        <ele>1355</ele>
        <time>2021-04-27T08:56:33Z</time>
      </trkpt>
      <trkpt lat="45.19065" lon="4.47781">
        <ele>1355</ele>
        <time>2021-04-27T08:56:36Z</time>
      </trkpt>
      <trkpt lat="45.19058" lon="4.47772">
        <ele>1355</ele>
        <time>2021-04-27T08:56:39Z</time>
      </trkpt>
      <trkpt lat="45.19055" lon="4.4777">
        <ele>1355</ele>
        <time>2021-04-27T08:56:40Z</time>
      </trkpt>
      <trkpt lat="45.19053" lon="4.47767">
        <ele>1354</ele>
        <time>2021-04-27T08:56:41Z</time>
      </trkpt>
      <trkpt lat="45.1905" lon="4.47764">
        <ele>1354</ele>
        <time>2021-04-27T08:56:42Z</time>
      </trkpt>
      <trkpt lat="45.1904" lon="4.47757">
        <ele>1354</ele>
        <time>2021-04-27T08:56:45Z</time>
      </trkpt>
      <trkpt lat="45.19032" lon="4.4775">
        <ele>1353</ele>
        <time>2021-04-27T08:56:47Z</time>
      </trkpt>
      <trkpt lat="45.19024" lon="4.47743">
        <ele>1353</ele>
        <time>2021-04-27T08:56:49Z</time>
      </trkpt>
      <trkpt lat="45.19016" lon="4.47735">
        <ele>1353</ele>
        <time>2021-04-27T08:56:51Z</time>
      </trkpt>
      <trkpt lat="45.19008" lon="4.47728">
        <ele>1353</ele>
        <time>2021-04-27T08:56:53Z</time>
      </trkpt>
      <trkpt lat="45.18999" lon="4.47721">
        <ele>1353</ele>
        <time>2021-04-27T08:56:55Z</time>
      </trkpt>
      <trkpt lat="45.18987" lon="4.47714">
        <ele>1353</ele>
        <time>2021-04-27T08:56:57Z</time>
      </trkpt>
      <trkpt lat="45.18977" lon="4.47705">
        <ele>1353</ele>
        <time>2021-04-27T08:56:59Z</time>
      </trkpt>
      <trkpt lat="45.18966" lon="4.47698">
        <ele>1352</ele>
        <time>2021-04-27T08:57:01Z</time>
      </trkpt>
      <trkpt lat="45.18954" lon="4.4769">
        <ele>1352</ele>
        <time>2021-04-27T08:57:03Z</time>
      </trkpt>
      <trkpt lat="45.1894" lon="4.47682">
        <ele>1351</ele>
        <time>2021-04-27T08:57:05Z</time>
      </trkpt>
      <trkpt lat="45.18928" lon="4.47673">
        <ele>1351</ele>
        <time>2021-04-27T08:57:07Z</time>
      </trkpt>
      <trkpt lat="45.18914" lon="4.47665">
        <ele>1350</ele>
        <time>2021-04-27T08:57:09Z</time>
      </trkpt>
      <trkpt lat="45.18901" lon="4.47654">
        <ele>1350</ele>
        <time>2021-04-27T08:57:11Z</time>
      </trkpt>
      <trkpt lat="45.18888" lon="4.47642">
        <ele>1349</ele>
        <time>2021-04-27T08:57:13Z</time>
      </trkpt>
      <trkpt lat="45.18879" lon="4.47636">
        <ele>1348</ele>
        <time>2021-04-27T08:57:14Z</time>
      </trkpt>
      <trkpt lat="45.1887" lon="4.47631">
        <ele>1348</ele>
        <time>2021-04-27T08:57:15Z</time>
      </trkpt>
      <trkpt lat="45.18855" lon="4.47625">
        <ele>1346</ele>
        <time>2021-04-27T08:57:17Z</time>
      </trkpt>
      <trkpt lat="45.18847" lon="4.47621">
        <ele>1346</ele>
        <time>2021-04-27T08:57:18Z</time>
      </trkpt>
      <trkpt lat="45.18834" lon="4.47611">
        <ele>1345</ele>
        <time>2021-04-27T08:57:20Z</time>
      </trkpt>
      <trkpt lat="45.1882" lon="4.47597">
        <ele>1343</ele>
        <time>2021-04-27T08:57:22Z</time>
      </trkpt>
      <trkpt lat="45.18811" lon="4.47589">
        <ele>1343</ele>
        <time>2021-04-27T08:57:23Z</time>
      </trkpt>
      <trkpt lat="45.18798" lon="4.4758">
        <ele>1342</ele>
        <time>2021-04-27T08:57:24Z</time>
      </trkpt>
      <trkpt lat="45.18787" lon="4.47572">
        <ele>1340</ele>
        <time>2021-04-27T08:57:25Z</time>
      </trkpt>
      <trkpt lat="45.18778" lon="4.47564">
        <ele>1338</ele>
        <time>2021-04-27T08:57:26Z</time>
      </trkpt>
      <trkpt lat="45.18771" lon="4.47557">
        <ele>1336</ele>
        <time>2021-04-27T08:57:27Z</time>
      </trkpt>
      <trkpt lat="45.18757" lon="4.47542">
        <ele>1333</ele>
        <time>2021-04-27T08:57:29Z</time>
      </trkpt>
      <trkpt lat="45.1874" lon="4.47529">
        <ele>1329</ele>
        <time>2021-04-27T08:57:31Z</time>
      </trkpt>
      <trkpt lat="45.1873" lon="4.47523">
        <ele>1328</ele>
        <time>2021-04-27T08:57:32Z</time>
      </trkpt>
      <trkpt lat="45.1872" lon="4.47517">
        <ele>1326</ele>
        <time>2021-04-27T08:57:33Z</time>
      </trkpt>
      <trkpt lat="45.1871" lon="4.47511">
        <ele>1324</ele>
        <time>2021-04-27T08:57:34Z</time>
      </trkpt>
      <trkpt lat="45.18699" lon="4.47503">
        <ele>1322</ele>
        <time>2021-04-27T08:57:35Z</time>
      </trkpt>
      <trkpt lat="45.1869" lon="4.47496">
        <ele>1319</ele>
        <time>2021-04-27T08:57:36Z</time>
      </trkpt>
      <trkpt lat="45.18681" lon="4.47488">
        <ele>1317</ele>
        <time>2021-04-27T08:57:37Z</time>
      </trkpt>
      <trkpt lat="45.18674" lon="4.4748">
        <ele>1315</ele>
        <time>2021-04-27T08:57:38Z</time>
      </trkpt>
      <trkpt lat="45.18667" lon="4.47473">
        <ele>1313</ele>
        <time>2021-04-27T08:57:39Z</time>
      </trkpt>
      <trkpt lat="45.18659" lon="4.47466">
        <ele>1311</ele>
        <time>2021-04-27T08:57:40Z</time>
      </trkpt>
      <trkpt lat="45.18652" lon="4.47456">
        <ele>1309</ele>
        <time>2021-04-27T08:57:41Z</time>
      </trkpt>
      <trkpt lat="45.18645" lon="4.47447">
        <ele>1308</ele>
        <time>2021-04-27T08:57:42Z</time>
      </trkpt>
      <trkpt lat="45.18638" lon="4.47438">
        <ele>1306</ele>
        <time>2021-04-27T08:57:43Z</time>
      </trkpt>
      <trkpt lat="45.1863" lon="4.4743">
        <ele>1305</ele>
        <time>2021-04-27T08:57:44Z</time>
      </trkpt>
      <trkpt lat="45.18622" lon="4.47422">
        <ele>1304</ele>
        <time>2021-04-27T08:57:45Z</time>
      </trkpt>
      <trkpt lat="45.18607" lon="4.47412">
        <ele>1302</ele>
        <time>2021-04-27T08:57:47Z</time>
      </trkpt>
      <trkpt lat="45.18595" lon="4.47408">
        <ele>1299</ele>
        <time>2021-04-27T08:57:49Z</time>
      </trkpt>
      <trkpt lat="45.18584" lon="4.47413">
        <ele>1294</ele>
        <time>2021-04-27T08:57:52Z</time>
      </trkpt>
      <trkpt lat="45.18579" lon="4.47421">
        <ele>1290</ele>
        <time>2021-04-27T08:57:56Z</time>
      </trkpt>
      <trkpt lat="45.18579" lon="4.47426">
        <ele>1290</ele>
        <time>2021-04-27T08:57:58Z</time>
      </trkpt>
      <trkpt lat="45.18577" lon="4.4743">
        <ele>1289</ele>
        <time>2021-04-27T08:58:00Z</time>
      </trkpt>
      <trkpt lat="45.18576" lon="4.47434">
        <ele>1288</ele>
        <time>2021-04-27T08:58:02Z</time>
      </trkpt>
      <trkpt lat="45.18575" lon="4.47437">
        <ele>1286</ele>
        <time>2021-04-27T08:58:04Z</time>
      </trkpt>
      <trkpt lat="45.18574" lon="4.4744">
        <ele>1285</ele>
        <time>2021-04-27T08:58:06Z</time>
      </trkpt>
      <trkpt lat="45.18573" lon="4.47442">
        <ele>1283</ele>
        <time>2021-04-27T08:58:09Z</time>
      </trkpt>
      <trkpt lat="45.18572" lon="4.47445">
        <ele>1282</ele>
        <time>2021-04-27T08:58:11Z</time>
      </trkpt>
      <trkpt lat="45.18571" lon="4.47448">
        <ele>1281</ele>
        <time>2021-04-27T08:58:14Z</time>
      </trkpt>
      <trkpt lat="45.18569" lon="4.47452">
        <ele>1281</ele>
        <time>2021-04-27T08:58:16Z</time>
      </trkpt>
      <trkpt lat="45.18568" lon="4.47454">
        <ele>1281</ele>
        <time>2021-04-27T08:58:17Z</time>
      </trkpt>
      <trkpt lat="45.18567" lon="4.47458">
        <ele>1281</ele>
        <time>2021-04-27T08:58:18Z</time>
      </trkpt>
      <trkpt lat="45.18566" lon="4.47462">
        <ele>1280</ele>
        <time>2021-04-27T08:58:19Z</time>
      </trkpt>
      <trkpt lat="45.18565" lon="4.47468">
        <ele>1280</ele>
        <time>2021-04-27T08:58:20Z</time>
      </trkpt>
      <trkpt lat="45.18564" lon="4.47473">
        <ele>1280</ele>
        <time>2021-04-27T08:58:21Z</time>
      </trkpt>
      <trkpt lat="45.18564" lon="4.47479">
        <ele>1280</ele>
        <time>2021-04-27T08:58:22Z</time>
      </trkpt>
      <trkpt lat="45.18564" lon="4.47484">
        <ele>1280</ele>
        <time>2021-04-27T08:58:23Z</time>
      </trkpt>
      <trkpt lat="45.18563" lon="4.4749">
        <ele>1280</ele>
        <time>2021-04-27T08:58:24Z</time>
      </trkpt>
      <trkpt lat="45.18563" lon="4.47496">
        <ele>1280</ele>
        <time>2021-04-27T08:58:25Z</time>
      </trkpt>
      <trkpt lat="45.18563" lon="4.47501">
        <ele>1279</ele>
        <time>2021-04-27T08:58:26Z</time>
      </trkpt>
      <trkpt lat="45.18562" lon="4.47506">
        <ele>1279</ele>
        <time>2021-04-27T08:58:27Z</time>
      </trkpt>
      <trkpt lat="45.18561" lon="4.4751">
        <ele>1279</ele>
        <time>2021-04-27T08:58:28Z</time>
      </trkpt>
      <trkpt lat="45.1856" lon="4.47513">
        <ele>1279</ele>
        <time>2021-04-27T08:58:29Z</time>
      </trkpt>
      <trkpt lat="45.18559" lon="4.47518">
        <ele>1279</ele>
        <time>2021-04-27T08:58:30Z</time>
      </trkpt>
      <trkpt lat="45.18557" lon="4.47523">
        <ele>1279</ele>
        <time>2021-04-27T08:58:31Z</time>
      </trkpt>
      <trkpt lat="45.18554" lon="4.47528">
        <ele>1279</ele>
        <time>2021-04-27T08:58:32Z</time>
      </trkpt>
      <trkpt lat="45.18551" lon="4.47532">
        <ele>1279</ele>
        <time>2021-04-27T08:58:33Z</time>
      </trkpt>
      <trkpt lat="45.18549" lon="4.47537">
        <ele>1279</ele>
        <time>2021-04-27T08:58:34Z</time>
      </trkpt>
      <trkpt lat="45.18546" lon="4.47542">
        <ele>1279</ele>
        <time>2021-04-27T08:58:35Z</time>
      </trkpt>
      <trkpt lat="45.18543" lon="4.47547">
        <ele>1279</ele>
        <time>2021-04-27T08:58:36Z</time>
      </trkpt>
      <trkpt lat="45.1854" lon="4.47552">
        <ele>1279</ele>
        <time>2021-04-27T08:58:37Z</time>
      </trkpt>
      <trkpt lat="45.18538" lon="4.47557">
        <ele>1279</ele>
        <time>2021-04-27T08:58:38Z</time>
      </trkpt>
      <trkpt lat="45.18535" lon="4.47563">
        <ele>1279</ele>
        <time>2021-04-27T08:58:39Z</time>
      </trkpt>
      <trkpt lat="45.18532" lon="4.47569">
        <ele>1279</ele>
        <time>2021-04-27T08:58:40Z</time>
      </trkpt>
      <trkpt lat="45.18528" lon="4.47574">
        <ele>1279</ele>
        <time>2021-04-27T08:58:41Z</time>
      </trkpt>
      <trkpt lat="45.18524" lon="4.4758">
        <ele>1279</ele>
        <time>2021-04-27T08:58:42Z</time>
      </trkpt>
      <trkpt lat="45.1852" lon="4.47585">
        <ele>1279</ele>
        <time>2021-04-27T08:58:43Z</time>
      </trkpt>
      <trkpt lat="45.18516" lon="4.4759">
        <ele>1279</ele>
        <time>2021-04-27T08:58:44Z</time>
      </trkpt>
      <trkpt lat="45.18512" lon="4.47596">
        <ele>1279</ele>
        <time>2021-04-27T08:58:45Z</time>
      </trkpt>
      <trkpt lat="45.18509" lon="4.47601">
        <ele>1279</ele>
        <time>2021-04-27T08:58:46Z</time>
      </trkpt>
      <trkpt lat="45.18505" lon="4.47606">
        <ele>1279</ele>
        <time>2021-04-27T08:58:47Z</time>
      </trkpt>
      <trkpt lat="45.185" lon="4.47609">
        <ele>1279</ele>
        <time>2021-04-27T08:58:48Z</time>
      </trkpt>
      <trkpt lat="45.18496" lon="4.47612">
        <ele>1279</ele>
        <time>2021-04-27T08:58:49Z</time>
      </trkpt>
      <trkpt lat="45.18491" lon="4.47612">
        <ele>1279</ele>
        <time>2021-04-27T08:58:50Z</time>
      </trkpt>
      <trkpt lat="45.18486" lon="4.47611">
        <ele>1279</ele>
        <time>2021-04-27T08:58:51Z</time>
      </trkpt>
      <trkpt lat="45.18482" lon="4.47608">
        <ele>1279</ele>
        <time>2021-04-27T08:58:52Z</time>
      </trkpt>
      <trkpt lat="45.18478" lon="4.47606">
        <ele>1278</ele>
        <time>2021-04-27T08:58:53Z</time>
      </trkpt>
      <trkpt lat="45.18474" lon="4.47603">
        <ele>1278</ele>
        <time>2021-04-27T08:58:54Z</time>
      </trkpt>
      <trkpt lat="45.18471" lon="4.47601">
        <ele>1278</ele>
        <time>2021-04-27T08:58:55Z</time>
      </trkpt>
      <trkpt lat="45.18468" lon="4.47599">
        <ele>1278</ele>
        <time>2021-04-27T08:58:56Z</time>
      </trkpt>
      <trkpt lat="45.18465" lon="4.47597">
        <ele>1278</ele>
        <time>2021-04-27T08:58:57Z</time>
      </trkpt>
      <trkpt lat="45.18462" lon="4.47594">
        <ele>1277</ele>
        <time>2021-04-27T08:58:58Z</time>
      </trkpt>
      <trkpt lat="45.1846" lon="4.47591">
        <ele>1277</ele>
        <time>2021-04-27T08:58:59Z</time>
      </trkpt>
      <trkpt lat="45.18457" lon="4.47587">
        <ele>1277</ele>
        <time>2021-04-27T08:59:00Z</time>
      </trkpt>
      <trkpt lat="45.18455" lon="4.47582">
        <ele>1276</ele>
        <time>2021-04-27T08:59:01Z</time>
      </trkpt>
      <trkpt lat="45.18453" lon="4.47577">
        <ele>1276</ele>
        <time>2021-04-27T08:59:02Z</time>
      </trkpt>
      <trkpt lat="45.18452" lon="4.47571">
        <ele>1276</ele>
        <time>2021-04-27T08:59:03Z</time>
      </trkpt>
      <trkpt lat="45.18453" lon="4.47558">
        <ele>1275</ele>
        <time>2021-04-27T08:59:05Z</time>
      </trkpt>
      <trkpt lat="45.18455" lon="4.47551">
        <ele>1275</ele>
        <time>2021-04-27T08:59:06Z</time>
      </trkpt>
      <trkpt lat="45.18458" lon="4.47543">
        <ele>1275</ele>
        <time>2021-04-27T08:59:07Z</time>
      </trkpt>
      <trkpt lat="45.18462" lon="4.47536">
        <ele>1274</ele>
        <time>2021-04-27T08:59:08Z</time>
      </trkpt>
      <trkpt lat="45.18465" lon="4.47529">
        <ele>1273</ele>
        <time>2021-04-27T08:59:09Z</time>
      </trkpt>
      <trkpt lat="45.18472" lon="4.47515">
        <ele>1272</ele>
        <time>2021-04-27T08:59:11Z</time>
      </trkpt>
      <trkpt lat="45.18475" lon="4.47498">
        <ele>1271</ele>
        <time>2021-04-27T08:59:13Z</time>
      </trkpt>
      <trkpt lat="45.18472" lon="4.47478">
        <ele>1270</ele>
        <time>2021-04-27T08:59:15Z</time>
      </trkpt>
      <trkpt lat="45.18471" lon="4.47467">
        <ele>1269</ele>
        <time>2021-04-27T08:59:16Z</time>
      </trkpt>
      <trkpt lat="45.18469" lon="4.47456">
        <ele>1268</ele>
        <time>2021-04-27T08:59:17Z</time>
      </trkpt>
      <trkpt lat="45.18468" lon="4.47445">
        <ele>1267</ele>
        <time>2021-04-27T08:59:18Z</time>
      </trkpt>
      <trkpt lat="45.18466" lon="4.47434">
        <ele>1266</ele>
        <time>2021-04-27T08:59:19Z</time>
      </trkpt>
      <trkpt lat="45.18465" lon="4.47423">
        <ele>1265</ele>
        <time>2021-04-27T08:59:20Z</time>
      </trkpt>
      <trkpt lat="45.18462" lon="4.47413">
        <ele>1264</ele>
        <time>2021-04-27T08:59:21Z</time>
      </trkpt>
      <trkpt lat="45.18459" lon="4.47403">
        <ele>1263</ele>
        <time>2021-04-27T08:59:22Z</time>
      </trkpt>
      <trkpt lat="45.18456" lon="4.47394">
        <ele>1262</ele>
        <time>2021-04-27T08:59:23Z</time>
      </trkpt>
      <trkpt lat="45.18453" lon="4.47383">
        <ele>1261</ele>
        <time>2021-04-27T08:59:24Z</time>
      </trkpt>
      <trkpt lat="45.1845" lon="4.47373">
        <ele>1260</ele>
        <time>2021-04-27T08:59:25Z</time>
      </trkpt>
      <trkpt lat="45.18445" lon="4.47365">
        <ele>1259</ele>
        <time>2021-04-27T08:59:26Z</time>
      </trkpt>
      <trkpt lat="45.18439" lon="4.47359">
        <ele>1258</ele>
        <time>2021-04-27T08:59:27Z</time>
      </trkpt>
      <trkpt lat="45.18433" lon="4.47353">
        <ele>1256</ele>
        <time>2021-04-27T08:59:28Z</time>
      </trkpt>
      <trkpt lat="45.18427" lon="4.47346">
        <ele>1255</ele>
        <time>2021-04-27T08:59:29Z</time>
      </trkpt>
      <trkpt lat="45.1842" lon="4.47339">
        <ele>1254</ele>
        <time>2021-04-27T08:59:30Z</time>
      </trkpt>
      <trkpt lat="45.18414" lon="4.47331">
        <ele>1252</ele>
        <time>2021-04-27T08:59:31Z</time>
      </trkpt>
      <trkpt lat="45.18407" lon="4.47322">
        <ele>1251</ele>
        <time>2021-04-27T08:59:32Z</time>
      </trkpt>
      <trkpt lat="45.18401" lon="4.47313">
        <ele>1249</ele>
        <time>2021-04-27T08:59:33Z</time>
      </trkpt>
      <trkpt lat="45.18395" lon="4.47305">
        <ele>1247</ele>
        <time>2021-04-27T08:59:34Z</time>
      </trkpt>
      <trkpt lat="45.1839" lon="4.47297">
        <ele>1246</ele>
        <time>2021-04-27T08:59:35Z</time>
      </trkpt>
      <trkpt lat="45.18384" lon="4.47292">
        <ele>1245</ele>
        <time>2021-04-27T08:59:36Z</time>
      </trkpt>
      <trkpt lat="45.18377" lon="4.47289">
        <ele>1244</ele>
        <time>2021-04-27T08:59:37Z</time>
      </trkpt>
      <trkpt lat="45.18371" lon="4.47289">
        <ele>1243</ele>
        <time>2021-04-27T08:59:38Z</time>
      </trkpt>
      <trkpt lat="45.18363" lon="4.4729">
        <ele>1242</ele>
        <time>2021-04-27T08:59:39Z</time>
      </trkpt>
      <trkpt lat="45.18356" lon="4.47291">
        <ele>1241</ele>
        <time>2021-04-27T08:59:40Z</time>
      </trkpt>
      <trkpt lat="45.18349" lon="4.47292">
        <ele>1241</ele>
        <time>2021-04-27T08:59:41Z</time>
      </trkpt>
      <trkpt lat="45.18341" lon="4.47293">
        <ele>1240</ele>
        <time>2021-04-27T08:59:42Z</time>
      </trkpt>
      <trkpt lat="45.18333" lon="4.47295">
        <ele>1240</ele>
        <time>2021-04-27T08:59:43Z</time>
      </trkpt>
      <trkpt lat="45.18325" lon="4.47296">
        <ele>1239</ele>
        <time>2021-04-27T08:59:44Z</time>
      </trkpt>
      <trkpt lat="45.18309" lon="4.47297">
        <ele>1238</ele>
        <time>2021-04-27T08:59:46Z</time>
      </trkpt>
      <trkpt lat="45.18295" lon="4.47296">
        <ele>1237</ele>
        <time>2021-04-27T08:59:48Z</time>
      </trkpt>
      <trkpt lat="45.18291" lon="4.47296">
        <ele>1236</ele>
        <time>2021-04-27T08:59:49Z</time>
      </trkpt>
      <trkpt lat="45.18289" lon="4.47295">
        <ele>1235</ele>
        <time>2021-04-27T08:59:50Z</time>
      </trkpt>
      <trkpt lat="45.18286" lon="4.47295">
        <ele>1233</ele>
        <time>2021-04-27T08:59:52Z</time>
      </trkpt>
      <trkpt lat="45.18284" lon="4.47293">
        <ele>1232</ele>
        <time>2021-04-27T08:59:54Z</time>
      </trkpt>
      <trkpt lat="45.18282" lon="4.47292">
        <ele>1231</ele>
        <time>2021-04-27T08:59:57Z</time>
      </trkpt>
      <trkpt lat="45.18282" lon="4.47292">
        <ele>1231</ele>
        <time>2021-04-27T09:00:01Z</time>
      </trkpt>
      <trkpt lat="45.18284" lon="4.47287">
        <ele>1229</ele>
        <time>2021-04-27T09:00:37Z</time>
      </trkpt>
      <trkpt lat="45.18285" lon="4.47279">
        <ele>1229</ele>
        <time>2021-04-27T09:00:39Z</time>
      </trkpt>
      <trkpt lat="45.18285" lon="4.47276">
        <ele>1229</ele>
        <time>2021-04-27T09:00:40Z</time>
      </trkpt>
      <trkpt lat="45.18285" lon="4.47274">
        <ele>1228</ele>
        <time>2021-04-27T09:00:41Z</time>
      </trkpt>
      <trkpt lat="45.18284" lon="4.47271">
        <ele>1228</ele>
        <time>2021-04-27T09:00:46Z</time>
      </trkpt>
      <trkpt lat="45.18282" lon="4.47267">
        <ele>1228</ele>
        <time>2021-04-27T09:00:48Z</time>
      </trkpt>
      <trkpt lat="45.18281" lon="4.47264">
        <ele>1227</ele>
        <time>2021-04-27T09:00:49Z</time>
      </trkpt>
      <trkpt lat="45.1828" lon="4.47261">
        <ele>1227</ele>
        <time>2021-04-27T09:00:50Z</time>
      </trkpt>
      <trkpt lat="45.1828" lon="4.47258">
        <ele>1227</ele>
        <time>2021-04-27T09:00:51Z</time>
      </trkpt>
      <trkpt lat="45.18279" lon="4.47255">
        <ele>1227</ele>
        <time>2021-04-27T09:00:52Z</time>
      </trkpt>
      <trkpt lat="45.18279" lon="4.47251">
        <ele>1227</ele>
        <time>2021-04-27T09:00:54Z</time>
      </trkpt>
      <trkpt lat="45.18278" lon="4.47246">
        <ele>1226</ele>
        <time>2021-04-27T09:00:56Z</time>
      </trkpt>
      <trkpt lat="45.18277" lon="4.47241">
        <ele>1226</ele>
        <time>2021-04-27T09:00:58Z</time>
      </trkpt>
      <trkpt lat="45.18277" lon="4.47237">
        <ele>1226</ele>
        <time>2021-04-27T09:00:59Z</time>
      </trkpt>
      <trkpt lat="45.18276" lon="4.47233">
        <ele>1225</ele>
        <time>2021-04-27T09:01:00Z</time>
      </trkpt>
      <trkpt lat="45.18276" lon="4.47229">
        <ele>1225</ele>
        <time>2021-04-27T09:01:01Z</time>
      </trkpt>
      <trkpt lat="45.18276" lon="4.47224">
        <ele>1225</ele>
        <time>2021-04-27T09:01:02Z</time>
      </trkpt>
      <trkpt lat="45.18276" lon="4.4722">
        <ele>1225</ele>
        <time>2021-04-27T09:01:03Z</time>
      </trkpt>
      <trkpt lat="45.18276" lon="4.47215">
        <ele>1225</ele>
        <time>2021-04-27T09:01:04Z</time>
      </trkpt>
      <trkpt lat="45.18275" lon="4.47211">
        <ele>1224</ele>
        <time>2021-04-27T09:01:05Z</time>
      </trkpt>
      <trkpt lat="45.18275" lon="4.47206">
        <ele>1224</ele>
        <time>2021-04-27T09:01:06Z</time>
      </trkpt>
      <trkpt lat="45.18275" lon="4.47201">
        <ele>1224</ele>
        <time>2021-04-27T09:01:07Z</time>
      </trkpt>
      <trkpt lat="45.18274" lon="4.47196">
        <ele>1224</ele>
        <time>2021-04-27T09:01:08Z</time>
      </trkpt>
      <trkpt lat="45.18274" lon="4.47191">
        <ele>1224</ele>
        <time>2021-04-27T09:01:09Z</time>
      </trkpt>
      <trkpt lat="45.18274" lon="4.47186">
        <ele>1224</ele>
        <time>2021-04-27T09:01:10Z</time>
      </trkpt>
      <trkpt lat="45.18274" lon="4.47181">
        <ele>1224</ele>
        <time>2021-04-27T09:01:11Z</time>
      </trkpt>
      <trkpt lat="45.18273" lon="4.47176">
        <ele>1224</ele>
        <time>2021-04-27T09:01:12Z</time>
      </trkpt>
      <trkpt lat="45.18273" lon="4.47171">
        <ele>1223</ele>
        <time>2021-04-27T09:01:13Z</time>
      </trkpt>
      <trkpt lat="45.18273" lon="4.47166">
        <ele>1224</ele>
        <time>2021-04-27T09:01:14Z</time>
      </trkpt>
      <trkpt lat="45.18273" lon="4.4716">
        <ele>1224</ele>
        <time>2021-04-27T09:01:15Z</time>
      </trkpt>
      <trkpt lat="45.18273" lon="4.47154">
        <ele>1224</ele>
        <time>2021-04-27T09:01:16Z</time>
      </trkpt>
      <trkpt lat="45.18273" lon="4.47149">
        <ele>1224</ele>
        <time>2021-04-27T09:01:17Z</time>
      </trkpt>
      <trkpt lat="45.18273" lon="4.47143">
        <ele>1224</ele>
        <time>2021-04-27T09:01:18Z</time>
      </trkpt>
      <trkpt lat="45.18273" lon="4.47137">
        <ele>1224</ele>
        <time>2021-04-27T09:01:19Z</time>
      </trkpt>
      <trkpt lat="45.18272" lon="4.47131">
        <ele>1224</ele>
        <time>2021-04-27T09:01:20Z</time>
      </trkpt>
      <trkpt lat="45.18272" lon="4.47125">
        <ele>1224</ele>
        <time>2021-04-27T09:01:21Z</time>
      </trkpt>
      <trkpt lat="45.18272" lon="4.47118">
        <ele>1224</ele>
        <time>2021-04-27T09:01:22Z</time>
      </trkpt>
      <trkpt lat="45.18271" lon="4.47103">
        <ele>1224</ele>
        <time>2021-04-27T09:01:24Z</time>
      </trkpt>
      <trkpt lat="45.18269" lon="4.47086">
        <ele>1224</ele>
        <time>2021-04-27T09:01:26Z</time>
      </trkpt>
      <trkpt lat="45.18267" lon="4.4707">
        <ele>1224</ele>
        <time>2021-04-27T09:01:28Z</time>
      </trkpt>
      <trkpt lat="45.18265" lon="4.47058">
        <ele>1224</ele>
        <time>2021-04-27T09:01:30Z</time>
      </trkpt>
      <trkpt lat="45.18264" lon="4.47044">
        <ele>1224</ele>
        <time>2021-04-27T09:01:32Z</time>
      </trkpt>
      <trkpt lat="45.18259" lon="4.47026">
        <ele>1224</ele>
        <time>2021-04-27T09:01:34Z</time>
      </trkpt>
      <trkpt lat="45.18252" lon="4.47006">
        <ele>1223</ele>
        <time>2021-04-27T09:01:36Z</time>
      </trkpt>
      <trkpt lat="45.1825" lon="4.46984">
        <ele>1223</ele>
        <time>2021-04-27T09:01:38Z</time>
      </trkpt>
      <trkpt lat="45.18246" lon="4.46963">
        <ele>1223</ele>
        <time>2021-04-27T09:01:40Z</time>
      </trkpt>
      <trkpt lat="45.18241" lon="4.46945">
        <ele>1222</ele>
        <time>2021-04-27T09:01:42Z</time>
      </trkpt>
      <trkpt lat="45.18239" lon="4.46939">
        <ele>1222</ele>
        <time>2021-04-27T09:01:43Z</time>
      </trkpt>
      <trkpt lat="45.18238" lon="4.46934">
        <ele>1222</ele>
        <time>2021-04-27T09:01:44Z</time>
      </trkpt>
      <trkpt lat="45.18238" lon="4.46929">
        <ele>1222</ele>
        <time>2021-04-27T09:01:45Z</time>
      </trkpt>
      <trkpt lat="45.18238" lon="4.46925">
        <ele>1222</ele>
        <time>2021-04-27T09:01:46Z</time>
      </trkpt>
      <trkpt lat="45.18238" lon="4.46921">
        <ele>1222</ele>
        <time>2021-04-27T09:01:47Z</time>
      </trkpt>
      <trkpt lat="45.18238" lon="4.46918">
        <ele>1222</ele>
        <time>2021-04-27T09:01:48Z</time>
      </trkpt>
      <trkpt lat="45.1824" lon="4.46913">
        <ele>1222</ele>
        <time>2021-04-27T09:01:49Z</time>
      </trkpt>
      <trkpt lat="45.18241" lon="4.46909">
        <ele>1222</ele>
        <time>2021-04-27T09:01:50Z</time>
      </trkpt>
      <trkpt lat="45.18242" lon="4.46904">
        <ele>1222</ele>
        <time>2021-04-27T09:01:51Z</time>
      </trkpt>
      <trkpt lat="45.18243" lon="4.46898">
        <ele>1221</ele>
        <time>2021-04-27T09:01:52Z</time>
      </trkpt>
      <trkpt lat="45.18244" lon="4.46892">
        <ele>1221</ele>
        <time>2021-04-27T09:01:53Z</time>
      </trkpt>
      <trkpt lat="45.18245" lon="4.46886">
        <ele>1221</ele>
        <time>2021-04-27T09:01:54Z</time>
      </trkpt>
      <trkpt lat="45.18246" lon="4.46879">
        <ele>1220</ele>
        <time>2021-04-27T09:01:55Z</time>
      </trkpt>
      <trkpt lat="45.18247" lon="4.46872">
        <ele>1220</ele>
        <time>2021-04-27T09:01:56Z</time>
      </trkpt>
      <trkpt lat="45.18248" lon="4.46866">
        <ele>1220</ele>
        <time>2021-04-27T09:01:57Z</time>
      </trkpt>
      <trkpt lat="45.18249" lon="4.4686">
        <ele>1219</ele>
        <time>2021-04-27T09:01:58Z</time>
      </trkpt>
      <trkpt lat="45.18249" lon="4.46854">
        <ele>1219</ele>
        <time>2021-04-27T09:01:59Z</time>
      </trkpt>
      <trkpt lat="45.18249" lon="4.46848">
        <ele>1218</ele>
        <time>2021-04-27T09:02:00Z</time>
      </trkpt>
      <trkpt lat="45.1825" lon="4.46841">
        <ele>1218</ele>
        <time>2021-04-27T09:02:01Z</time>
      </trkpt>
      <trkpt lat="45.18251" lon="4.46835">
        <ele>1217</ele>
        <time>2021-04-27T09:02:02Z</time>
      </trkpt>
      <trkpt lat="45.18253" lon="4.46828">
        <ele>1217</ele>
        <time>2021-04-27T09:02:03Z</time>
      </trkpt>
      <trkpt lat="45.18254" lon="4.46821">
        <ele>1216</ele>
        <time>2021-04-27T09:02:04Z</time>
      </trkpt>
      <trkpt lat="45.18255" lon="4.46813">
        <ele>1216</ele>
        <time>2021-04-27T09:02:05Z</time>
      </trkpt>
      <trkpt lat="45.18256" lon="4.46805">
        <ele>1215</ele>
        <time>2021-04-27T09:02:06Z</time>
      </trkpt>
      <trkpt lat="45.18256" lon="4.46797">
        <ele>1215</ele>
        <time>2021-04-27T09:02:07Z</time>
      </trkpt>
      <trkpt lat="45.18257" lon="4.46788">
        <ele>1214</ele>
        <time>2021-04-27T09:02:08Z</time>
      </trkpt>
      <trkpt lat="45.18257" lon="4.4678">
        <ele>1214</ele>
        <time>2021-04-27T09:02:09Z</time>
      </trkpt>
      <trkpt lat="45.18258" lon="4.46771">
        <ele>1213</ele>
        <time>2021-04-27T09:02:10Z</time>
      </trkpt>
      <trkpt lat="45.18258" lon="4.46762">
        <ele>1213</ele>
        <time>2021-04-27T09:02:11Z</time>
      </trkpt>
      <trkpt lat="45.18258" lon="4.46753">
        <ele>1212</ele>
        <time>2021-04-27T09:02:12Z</time>
      </trkpt>
      <trkpt lat="45.18258" lon="4.46744">
        <ele>1211</ele>
        <time>2021-04-27T09:02:13Z</time>
      </trkpt>
      <trkpt lat="45.18257" lon="4.46735">
        <ele>1210</ele>
        <time>2021-04-27T09:02:14Z</time>
      </trkpt>
      <trkpt lat="45.18256" lon="4.46726">
        <ele>1209</ele>
        <time>2021-04-27T09:02:15Z</time>
      </trkpt>
      <trkpt lat="45.18255" lon="4.46717">
        <ele>1209</ele>
        <time>2021-04-27T09:02:16Z</time>
      </trkpt>
      <trkpt lat="45.18253" lon="4.46708">
        <ele>1208</ele>
        <time>2021-04-27T09:02:17Z</time>
      </trkpt>
      <trkpt lat="45.18251" lon="4.46699">
        <ele>1207</ele>
        <time>2021-04-27T09:02:18Z</time>
      </trkpt>
      <trkpt lat="45.18249" lon="4.4669">
        <ele>1206</ele>
        <time>2021-04-27T09:02:19Z</time>
      </trkpt>
      <trkpt lat="45.18246" lon="4.46682">
        <ele>1206</ele>
        <time>2021-04-27T09:02:20Z</time>
      </trkpt>
      <trkpt lat="45.18244" lon="4.46673">
        <ele>1205</ele>
        <time>2021-04-27T09:02:21Z</time>
      </trkpt>
      <trkpt lat="45.18241" lon="4.46664">
        <ele>1205</ele>
        <time>2021-04-27T09:02:22Z</time>
      </trkpt>
      <trkpt lat="45.1824" lon="4.46655">
        <ele>1204</ele>
        <time>2021-04-27T09:02:23Z</time>
      </trkpt>
      <trkpt lat="45.18239" lon="4.46646">
        <ele>1204</ele>
        <time>2021-04-27T09:02:24Z</time>
      </trkpt>
      <trkpt lat="45.1824" lon="4.46636">
        <ele>1203</ele>
        <time>2021-04-27T09:02:25Z</time>
      </trkpt>
      <trkpt lat="45.18243" lon="4.46627">
        <ele>1202</ele>
        <time>2021-04-27T09:02:26Z</time>
      </trkpt>
      <trkpt lat="45.18246" lon="4.46619">
        <ele>1201</ele>
        <time>2021-04-27T09:02:27Z</time>
      </trkpt>
      <trkpt lat="45.1825" lon="4.46612">
        <ele>1200</ele>
        <time>2021-04-27T09:02:28Z</time>
      </trkpt>
      <trkpt lat="45.18253" lon="4.46604">
        <ele>1199</ele>
        <time>2021-04-27T09:02:29Z</time>
      </trkpt>
      <trkpt lat="45.18257" lon="4.46596">
        <ele>1199</ele>
        <time>2021-04-27T09:02:30Z</time>
      </trkpt>
      <trkpt lat="45.1826" lon="4.46589">
        <ele>1197</ele>
        <time>2021-04-27T09:02:31Z</time>
      </trkpt>
      <trkpt lat="45.18263" lon="4.46582">
        <ele>1196</ele>
        <time>2021-04-27T09:02:32Z</time>
      </trkpt>
      <trkpt lat="45.18265" lon="4.46575">
        <ele>1196</ele>
        <time>2021-04-27T09:02:33Z</time>
      </trkpt>
      <trkpt lat="45.18267" lon="4.46568">
        <ele>1195</ele>
        <time>2021-04-27T09:02:34Z</time>
      </trkpt>
      <trkpt lat="45.1827" lon="4.46561">
        <ele>1194</ele>
        <time>2021-04-27T09:02:35Z</time>
      </trkpt>
      <trkpt lat="45.18273" lon="4.46555">
        <ele>1194</ele>
        <time>2021-04-27T09:02:36Z</time>
      </trkpt>
      <trkpt lat="45.18277" lon="4.46549">
        <ele>1193</ele>
        <time>2021-04-27T09:02:37Z</time>
      </trkpt>
      <trkpt lat="45.18281" lon="4.46544">
        <ele>1193</ele>
        <time>2021-04-27T09:02:38Z</time>
      </trkpt>
      <trkpt lat="45.18286" lon="4.46539">
        <ele>1192</ele>
        <time>2021-04-27T09:02:39Z</time>
      </trkpt>
      <trkpt lat="45.1829" lon="4.46534">
        <ele>1191</ele>
        <time>2021-04-27T09:02:40Z</time>
      </trkpt>
      <trkpt lat="45.18294" lon="4.46528">
        <ele>1191</ele>
        <time>2021-04-27T09:02:41Z</time>
      </trkpt>
      <trkpt lat="45.18297" lon="4.46521">
        <ele>1191</ele>
        <time>2021-04-27T09:02:42Z</time>
      </trkpt>
      <trkpt lat="45.183" lon="4.46513">
        <ele>1190</ele>
        <time>2021-04-27T09:02:43Z</time>
      </trkpt>
      <trkpt lat="45.18303" lon="4.46505">
        <ele>1190</ele>
        <time>2021-04-27T09:02:44Z</time>
      </trkpt>
      <trkpt lat="45.18304" lon="4.46497">
        <ele>1190</ele>
        <time>2021-04-27T09:02:45Z</time>
      </trkpt>
      <trkpt lat="45.18305" lon="4.46488">
        <ele>1189</ele>
        <time>2021-04-27T09:02:46Z</time>
      </trkpt>
      <trkpt lat="45.18306" lon="4.4648">
        <ele>1188</ele>
        <time>2021-04-27T09:02:47Z</time>
      </trkpt>
      <trkpt lat="45.18307" lon="4.46471">
        <ele>1188</ele>
        <time>2021-04-27T09:02:48Z</time>
      </trkpt>
      <trkpt lat="45.18308" lon="4.46462">
        <ele>1187</ele>
        <time>2021-04-27T09:02:49Z</time>
      </trkpt>
      <trkpt lat="45.18309" lon="4.46453">
        <ele>1186</ele>
        <time>2021-04-27T09:02:50Z</time>
      </trkpt>
      <trkpt lat="45.18309" lon="4.46443">
        <ele>1186</ele>
        <time>2021-04-27T09:02:51Z</time>
      </trkpt>
      <trkpt lat="45.18309" lon="4.46434">
        <ele>1185</ele>
        <time>2021-04-27T09:02:52Z</time>
      </trkpt>
      <trkpt lat="45.18309" lon="4.46425">
        <ele>1185</ele>
        <time>2021-04-27T09:02:53Z</time>
      </trkpt>
      <trkpt lat="45.18309" lon="4.46415">
        <ele>1184</ele>
        <time>2021-04-27T09:02:54Z</time>
      </trkpt>
      <trkpt lat="45.18309" lon="4.46406">
        <ele>1184</ele>
        <time>2021-04-27T09:02:55Z</time>
      </trkpt>
      <trkpt lat="45.18309" lon="4.46396">
        <ele>1183</ele>
        <time>2021-04-27T09:02:56Z</time>
      </trkpt>
      <trkpt lat="45.18309" lon="4.46386">
        <ele>1182</ele>
        <time>2021-04-27T09:02:57Z</time>
      </trkpt>
      <trkpt lat="45.1831" lon="4.46376">
        <ele>1182</ele>
        <time>2021-04-27T09:02:58Z</time>
      </trkpt>
      <trkpt lat="45.1831" lon="4.46366">
        <ele>1181</ele>
        <time>2021-04-27T09:02:59Z</time>
      </trkpt>
      <trkpt lat="45.18311" lon="4.46356">
        <ele>1181</ele>
        <time>2021-04-27T09:03:00Z</time>
      </trkpt>
      <trkpt lat="45.18311" lon="4.46348">
        <ele>1180</ele>
        <time>2021-04-27T09:03:01Z</time>
      </trkpt>
      <trkpt lat="45.18312" lon="4.46339">
        <ele>1180</ele>
        <time>2021-04-27T09:03:02Z</time>
      </trkpt>
      <trkpt lat="45.18313" lon="4.4633">
        <ele>1179</ele>
        <time>2021-04-27T09:03:03Z</time>
      </trkpt>
      <trkpt lat="45.18315" lon="4.46321">
        <ele>1178</ele>
        <time>2021-04-27T09:03:04Z</time>
      </trkpt>
      <trkpt lat="45.18317" lon="4.46312">
        <ele>1178</ele>
        <time>2021-04-27T09:03:05Z</time>
      </trkpt>
      <trkpt lat="45.1832" lon="4.46303">
        <ele>1177</ele>
        <time>2021-04-27T09:03:06Z</time>
      </trkpt>
      <trkpt lat="45.18323" lon="4.46294">
        <ele>1177</ele>
        <time>2021-04-27T09:03:07Z</time>
      </trkpt>
      <trkpt lat="45.18326" lon="4.46285">
        <ele>1176</ele>
        <time>2021-04-27T09:03:08Z</time>
      </trkpt>
      <trkpt lat="45.18328" lon="4.46276">
        <ele>1176</ele>
        <time>2021-04-27T09:03:09Z</time>
      </trkpt>
      <trkpt lat="45.18331" lon="4.46267">
        <ele>1176</ele>
        <time>2021-04-27T09:03:10Z</time>
      </trkpt>
      <trkpt lat="45.18334" lon="4.46259">
        <ele>1175</ele>
        <time>2021-04-27T09:03:11Z</time>
      </trkpt>
      <trkpt lat="45.18337" lon="4.4625">
        <ele>1174</ele>
        <time>2021-04-27T09:03:12Z</time>
      </trkpt>
      <trkpt lat="45.1834" lon="4.46241">
        <ele>1174</ele>
        <time>2021-04-27T09:03:13Z</time>
      </trkpt>
      <trkpt lat="45.18342" lon="4.46232">
        <ele>1173</ele>
        <time>2021-04-27T09:03:14Z</time>
      </trkpt>
      <trkpt lat="45.18343" lon="4.46224">
        <ele>1173</ele>
        <time>2021-04-27T09:03:15Z</time>
      </trkpt>
      <trkpt lat="45.18345" lon="4.46217">
        <ele>1172</ele>
        <time>2021-04-27T09:03:16Z</time>
      </trkpt>
      <trkpt lat="45.18346" lon="4.46211">
        <ele>1171</ele>
        <time>2021-04-27T09:03:17Z</time>
      </trkpt>
      <trkpt lat="45.18347" lon="4.46205">
        <ele>1171</ele>
        <time>2021-04-27T09:03:18Z</time>
      </trkpt>
      <trkpt lat="45.18348" lon="4.46201">
        <ele>1170</ele>
        <time>2021-04-27T09:03:19Z</time>
      </trkpt>
      <trkpt lat="45.18348" lon="4.46198">
        <ele>1170</ele>
        <time>2021-04-27T09:03:20Z</time>
      </trkpt>
      <trkpt lat="45.18347" lon="4.46196">
        <ele>1169</ele>
        <time>2021-04-27T09:03:21Z</time>
      </trkpt>
      <trkpt lat="45.18345" lon="4.46193">
        <ele>1169</ele>
        <time>2021-04-27T09:03:23Z</time>
      </trkpt>
      <trkpt lat="45.18342" lon="4.46194">
        <ele>1168</ele>
        <time>2021-04-27T09:03:25Z</time>
      </trkpt>
      <trkpt lat="45.1834" lon="4.46195">
        <ele>1168</ele>
        <time>2021-04-27T09:03:26Z</time>
      </trkpt>
      <trkpt lat="45.18336" lon="4.46196">
        <ele>1167</ele>
        <time>2021-04-27T09:03:28Z</time>
      </trkpt>
      <trkpt lat="45.18334" lon="4.46198">
        <ele>1167</ele>
        <time>2021-04-27T09:03:29Z</time>
      </trkpt>
      <trkpt lat="45.18332" lon="4.46199">
        <ele>1167</ele>
        <time>2021-04-27T09:03:30Z</time>
      </trkpt>
      <trkpt lat="45.1833" lon="4.462">
        <ele>1166</ele>
        <time>2021-04-27T09:03:31Z</time>
      </trkpt>
      <trkpt lat="45.18327" lon="4.46201">
        <ele>1166</ele>
        <time>2021-04-27T09:03:32Z</time>
      </trkpt>
      <trkpt lat="45.18324" lon="4.46203">
        <ele>1166</ele>
        <time>2021-04-27T09:03:33Z</time>
      </trkpt>
      <trkpt lat="45.18322" lon="4.46205">
        <ele>1165</ele>
        <time>2021-04-27T09:03:34Z</time>
      </trkpt>
      <trkpt lat="45.18319" lon="4.46207">
        <ele>1165</ele>
        <time>2021-04-27T09:03:35Z</time>
      </trkpt>
      <trkpt lat="45.18317" lon="4.46209">
        <ele>1165</ele>
        <time>2021-04-27T09:03:36Z</time>
      </trkpt>
      <trkpt lat="45.18314" lon="4.4621">
        <ele>1165</ele>
        <time>2021-04-27T09:03:37Z</time>
      </trkpt>
      <trkpt lat="45.18311" lon="4.46212">
        <ele>1165</ele>
        <time>2021-04-27T09:03:38Z</time>
      </trkpt>
      <trkpt lat="45.18308" lon="4.46215">
        <ele>1164</ele>
        <time>2021-04-27T09:03:39Z</time>
      </trkpt>
      <trkpt lat="45.18306" lon="4.46217">
        <ele>1164</ele>
        <time>2021-04-27T09:03:40Z</time>
      </trkpt>
      <trkpt lat="45.18303" lon="4.4622">
        <ele>1164</ele>
        <time>2021-04-27T09:03:41Z</time>
      </trkpt>
      <trkpt lat="45.183" lon="4.46222">
        <ele>1164</ele>
        <time>2021-04-27T09:03:42Z</time>
      </trkpt>
      <trkpt lat="45.18296" lon="4.46224">
        <ele>1164</ele>
        <time>2021-04-27T09:03:43Z</time>
      </trkpt>
      <trkpt lat="45.18293" lon="4.46227">
        <ele>1164</ele>
        <time>2021-04-27T09:03:44Z</time>
      </trkpt>
      <trkpt lat="45.1829" lon="4.4623">
        <ele>1163</ele>
        <time>2021-04-27T09:03:45Z</time>
      </trkpt>
      <trkpt lat="45.18286" lon="4.46233">
        <ele>1163</ele>
        <time>2021-04-27T09:03:46Z</time>
      </trkpt>
      <trkpt lat="45.18283" lon="4.46236">
        <ele>1163</ele>
        <time>2021-04-27T09:03:47Z</time>
      </trkpt>
      <trkpt lat="45.18279" lon="4.46239">
        <ele>1163</ele>
        <time>2021-04-27T09:03:48Z</time>
      </trkpt>
      <trkpt lat="45.18275" lon="4.46243">
        <ele>1163</ele>
        <time>2021-04-27T09:03:49Z</time>
      </trkpt>
      <trkpt lat="45.18271" lon="4.46247">
        <ele>1162</ele>
        <time>2021-04-27T09:03:50Z</time>
      </trkpt>
      <trkpt lat="45.18268" lon="4.4625">
        <ele>1162</ele>
        <time>2021-04-27T09:03:51Z</time>
      </trkpt>
      <trkpt lat="45.18264" lon="4.46254">
        <ele>1162</ele>
        <time>2021-04-27T09:03:52Z</time>
      </trkpt>
      <trkpt lat="45.1826" lon="4.46259">
        <ele>1162</ele>
        <time>2021-04-27T09:03:53Z</time>
      </trkpt>
      <trkpt lat="45.18257" lon="4.46264">
        <ele>1162</ele>
        <time>2021-04-27T09:03:54Z</time>
      </trkpt>
      <trkpt lat="45.18253" lon="4.46268">
        <ele>1162</ele>
        <time>2021-04-27T09:03:55Z</time>
      </trkpt>
      <trkpt lat="45.18249" lon="4.46273">
        <ele>1161</ele>
        <time>2021-04-27T09:03:56Z</time>
      </trkpt>
      <trkpt lat="45.18245" lon="4.46278">
        <ele>1161</ele>
        <time>2021-04-27T09:03:57Z</time>
      </trkpt>
      <trkpt lat="45.18242" lon="4.46283">
        <ele>1161</ele>
        <time>2021-04-27T09:03:58Z</time>
      </trkpt>
      <trkpt lat="45.18238" lon="4.46288">
        <ele>1161</ele>
        <time>2021-04-27T09:03:59Z</time>
      </trkpt>
      <trkpt lat="45.18235" lon="4.46292">
        <ele>1161</ele>
        <time>2021-04-27T09:04:00Z</time>
      </trkpt>
      <trkpt lat="45.18231" lon="4.46297">
        <ele>1161</ele>
        <time>2021-04-27T09:04:01Z</time>
      </trkpt>
      <trkpt lat="45.18228" lon="4.46301">
        <ele>1161</ele>
        <time>2021-04-27T09:04:02Z</time>
      </trkpt>
      <trkpt lat="45.18225" lon="4.46305">
        <ele>1161</ele>
        <time>2021-04-27T09:04:03Z</time>
      </trkpt>
      <trkpt lat="45.18221" lon="4.46309">
        <ele>1161</ele>
        <time>2021-04-27T09:04:04Z</time>
      </trkpt>
      <trkpt lat="45.18218" lon="4.46313">
        <ele>1161</ele>
        <time>2021-04-27T09:04:05Z</time>
      </trkpt>
      <trkpt lat="45.18214" lon="4.46317">
        <ele>1161</ele>
        <time>2021-04-27T09:04:06Z</time>
      </trkpt>
      <trkpt lat="45.18211" lon="4.46321">
        <ele>1161</ele>
        <time>2021-04-27T09:04:07Z</time>
      </trkpt>
      <trkpt lat="45.18208" lon="4.46324">
        <ele>1161</ele>
        <time>2021-04-27T09:04:08Z</time>
      </trkpt>
      <trkpt lat="45.18204" lon="4.46328">
        <ele>1161</ele>
        <time>2021-04-27T09:04:09Z</time>
      </trkpt>
      <trkpt lat="45.18201" lon="4.46332">
        <ele>1161</ele>
        <time>2021-04-27T09:04:10Z</time>
      </trkpt>
      <trkpt lat="45.18197" lon="4.46336">
        <ele>1161</ele>
        <time>2021-04-27T09:04:11Z</time>
      </trkpt>
      <trkpt lat="45.18194" lon="4.46339">
        <ele>1161</ele>
        <time>2021-04-27T09:04:12Z</time>
      </trkpt>
      <trkpt lat="45.1819" lon="4.46343">
        <ele>1160</ele>
        <time>2021-04-27T09:04:13Z</time>
      </trkpt>
      <trkpt lat="45.18187" lon="4.46347">
        <ele>1160</ele>
        <time>2021-04-27T09:04:14Z</time>
      </trkpt>
      <trkpt lat="45.18183" lon="4.4635">
        <ele>1160</ele>
        <time>2021-04-27T09:04:15Z</time>
      </trkpt>
      <trkpt lat="45.18179" lon="4.46354">
        <ele>1160</ele>
        <time>2021-04-27T09:04:16Z</time>
      </trkpt>
      <trkpt lat="45.18176" lon="4.46358">
        <ele>1160</ele>
        <time>2021-04-27T09:04:17Z</time>
      </trkpt>
      <trkpt lat="45.18172" lon="4.46362">
        <ele>1160</ele>
        <time>2021-04-27T09:04:18Z</time>
      </trkpt>
      <trkpt lat="45.18168" lon="4.46366">
        <ele>1160</ele>
        <time>2021-04-27T09:04:19Z</time>
      </trkpt>
      <trkpt lat="45.18165" lon="4.4637">
        <ele>1160</ele>
        <time>2021-04-27T09:04:20Z</time>
      </trkpt>
      <trkpt lat="45.18161" lon="4.46375">
        <ele>1160</ele>
        <time>2021-04-27T09:04:21Z</time>
      </trkpt>
      <trkpt lat="45.18158" lon="4.46379">
        <ele>1160</ele>
        <time>2021-04-27T09:04:22Z</time>
      </trkpt>
      <trkpt lat="45.18155" lon="4.46384">
        <ele>1160</ele>
        <time>2021-04-27T09:04:23Z</time>
      </trkpt>
      <trkpt lat="45.18153" lon="4.4639">
        <ele>1160</ele>
        <time>2021-04-27T09:04:24Z</time>
      </trkpt>
      <trkpt lat="45.1815" lon="4.46395">
        <ele>1160</ele>
        <time>2021-04-27T09:04:25Z</time>
      </trkpt>
      <trkpt lat="45.18148" lon="4.464">
        <ele>1160</ele>
        <time>2021-04-27T09:04:26Z</time>
      </trkpt>
      <trkpt lat="45.18146" lon="4.46406">
        <ele>1160</ele>
        <time>2021-04-27T09:04:27Z</time>
      </trkpt>
      <trkpt lat="45.18144" lon="4.46412">
        <ele>1160</ele>
        <time>2021-04-27T09:04:28Z</time>
      </trkpt>
      <trkpt lat="45.18143" lon="4.46418">
        <ele>1160</ele>
        <time>2021-04-27T09:04:29Z</time>
      </trkpt>
      <trkpt lat="45.18141" lon="4.46425">
        <ele>1160</ele>
        <time>2021-04-27T09:04:30Z</time>
      </trkpt>
      <trkpt lat="45.1814" lon="4.46431">
        <ele>1160</ele>
        <time>2021-04-27T09:04:31Z</time>
      </trkpt>
      <trkpt lat="45.18138" lon="4.46437">
        <ele>1160</ele>
        <time>2021-04-27T09:04:32Z</time>
      </trkpt>
      <trkpt lat="45.18136" lon="4.46443">
        <ele>1160</ele>
        <time>2021-04-27T09:04:33Z</time>
      </trkpt>
      <trkpt lat="45.18134" lon="4.46449">
        <ele>1160</ele>
        <time>2021-04-27T09:04:34Z</time>
      </trkpt>
      <trkpt lat="45.18132" lon="4.46455">
        <ele>1160</ele>
        <time>2021-04-27T09:04:35Z</time>
      </trkpt>
      <trkpt lat="45.18129" lon="4.4646">
        <ele>1160</ele>
        <time>2021-04-27T09:04:36Z</time>
      </trkpt>
      <trkpt lat="45.18125" lon="4.46464">
        <ele>1160</ele>
        <time>2021-04-27T09:04:37Z</time>
      </trkpt>
      <trkpt lat="45.18122" lon="4.46468">
        <ele>1160</ele>
        <time>2021-04-27T09:04:38Z</time>
      </trkpt>
      <trkpt lat="45.18118" lon="4.46471">
        <ele>1160</ele>
        <time>2021-04-27T09:04:39Z</time>
      </trkpt>
      <trkpt lat="45.18114" lon="4.46473">
        <ele>1160</ele>
        <time>2021-04-27T09:04:40Z</time>
      </trkpt>
      <trkpt lat="45.1811" lon="4.46474">
        <ele>1160</ele>
        <time>2021-04-27T09:04:41Z</time>
      </trkpt>
      <trkpt lat="45.18106" lon="4.46475">
        <ele>1160</ele>
        <time>2021-04-27T09:04:42Z</time>
      </trkpt>
      <trkpt lat="45.18102" lon="4.46475">
        <ele>1160</ele>
        <time>2021-04-27T09:04:43Z</time>
      </trkpt>
      <trkpt lat="45.18099" lon="4.46474">
        <ele>1160</ele>
        <time>2021-04-27T09:04:44Z</time>
      </trkpt>
      <trkpt lat="45.18096" lon="4.46473">
        <ele>1160</ele>
        <time>2021-04-27T09:04:45Z</time>
      </trkpt>
      <trkpt lat="45.18094" lon="4.46471">
        <ele>1160</ele>
        <time>2021-04-27T09:04:46Z</time>
      </trkpt>
      <trkpt lat="45.18087" lon="4.46461">
        <ele>1160</ele>
        <time>2021-04-27T09:04:49Z</time>
      </trkpt>
      <trkpt lat="45.18079" lon="4.46446">
        <ele>1161</ele>
        <time>2021-04-27T09:04:52Z</time>
      </trkpt>
      <trkpt lat="45.18072" lon="4.46434">
        <ele>1161</ele>
        <time>2021-04-27T09:04:55Z</time>
      </trkpt>
      <trkpt lat="45.18066" lon="4.46423">
        <ele>1161</ele>
        <time>2021-04-27T09:04:58Z</time>
      </trkpt>
      <trkpt lat="45.18057" lon="4.4641">
        <ele>1161</ele>
        <time>2021-04-27T09:05:01Z</time>
      </trkpt>
      <trkpt lat="45.18053" lon="4.46404">
        <ele>1161</ele>
        <time>2021-04-27T09:05:02Z</time>
      </trkpt>
      <trkpt lat="45.18048" lon="4.46393">
        <ele>1162</ele>
        <time>2021-04-27T09:05:04Z</time>
      </trkpt>
      <trkpt lat="45.18039" lon="4.46379">
        <ele>1162</ele>
        <time>2021-04-27T09:05:07Z</time>
      </trkpt>
      <trkpt lat="45.18033" lon="4.46368">
        <ele>1162</ele>
        <time>2021-04-27T09:05:09Z</time>
      </trkpt>
      <trkpt lat="45.18027" lon="4.46357">
        <ele>1163</ele>
        <time>2021-04-27T09:05:11Z</time>
      </trkpt>
      <trkpt lat="45.1802" lon="4.46348">
        <ele>1163</ele>
        <time>2021-04-27T09:05:13Z</time>
      </trkpt>
      <trkpt lat="45.18011" lon="4.46337">
        <ele>1164</ele>
        <time>2021-04-27T09:05:16Z</time>
      </trkpt>
      <trkpt lat="45.18005" lon="4.46332">
        <ele>1165</ele>
        <time>2021-04-27T09:05:20Z</time>
      </trkpt>
      <trkpt lat="45.18004" lon="4.46331">
        <ele>1165</ele>
        <time>2021-04-27T09:05:26Z</time>
      </trkpt>
      <trkpt lat="45.18002" lon="4.46328">
        <ele>1166</ele>
        <time>2021-04-27T09:05:29Z</time>
      </trkpt>
      <trkpt lat="45.18" lon="4.46324">
        <ele>1166</ele>
        <time>2021-04-27T09:05:30Z</time>
      </trkpt>
      <trkpt lat="45.17997" lon="4.46322">
        <ele>1166</ele>
        <time>2021-04-27T09:05:32Z</time>
      </trkpt>
      <trkpt lat="45.17994" lon="4.4632">
        <ele>1166</ele>
        <time>2021-04-27T09:05:33Z</time>
      </trkpt>
      <trkpt lat="45.17991" lon="4.46319">
        <ele>1166</ele>
        <time>2021-04-27T09:05:34Z</time>
      </trkpt>
      <trkpt lat="45.17988" lon="4.46319">
        <ele>1166</ele>
        <time>2021-04-27T09:05:35Z</time>
      </trkpt>
      <trkpt lat="45.17986" lon="4.46318">
        <ele>1166</ele>
        <time>2021-04-27T09:05:36Z</time>
      </trkpt>
      <trkpt lat="45.17983" lon="4.46317">
        <ele>1167</ele>
        <time>2021-04-27T09:05:37Z</time>
      </trkpt>
      <trkpt lat="45.17979" lon="4.46316">
        <ele>1167</ele>
        <time>2021-04-27T09:05:38Z</time>
      </trkpt>
      <trkpt lat="45.17968" lon="4.46314">
        <ele>1167</ele>
        <time>2021-04-27T09:05:41Z</time>
      </trkpt>
      <trkpt lat="45.17963" lon="4.46314">
        <ele>1167</ele>
        <time>2021-04-27T09:05:42Z</time>
      </trkpt>
      <trkpt lat="45.1795" lon="4.4631">
        <ele>1167</ele>
        <time>2021-04-27T09:05:44Z</time>
      </trkpt>
      <trkpt lat="45.1794" lon="4.46306">
        <ele>1167</ele>
        <time>2021-04-27T09:05:46Z</time>
      </trkpt>
      <trkpt lat="45.17931" lon="4.46301">
        <ele>1167</ele>
        <time>2021-04-27T09:05:48Z</time>
      </trkpt>
      <trkpt lat="45.17921" lon="4.46294">
        <ele>1167</ele>
        <time>2021-04-27T09:05:50Z</time>
      </trkpt>
      <trkpt lat="45.17913" lon="4.46286">
        <ele>1168</ele>
        <time>2021-04-27T09:05:52Z</time>
      </trkpt>
      <trkpt lat="45.17902" lon="4.46279">
        <ele>1168</ele>
        <time>2021-04-27T09:05:54Z</time>
      </trkpt>
      <trkpt lat="45.17893" lon="4.46272">
        <ele>1168</ele>
        <time>2021-04-27T09:05:57Z</time>
      </trkpt>
      <trkpt lat="45.17881" lon="4.46264">
        <ele>1168</ele>
        <time>2021-04-27T09:06:00Z</time>
      </trkpt>
      <trkpt lat="45.17872" lon="4.46256">
        <ele>1168</ele>
        <time>2021-04-27T09:06:02Z</time>
      </trkpt>
      <trkpt lat="45.17861" lon="4.46244">
        <ele>1168</ele>
        <time>2021-04-27T09:06:05Z</time>
      </trkpt>
      <trkpt lat="45.17851" lon="4.46232">
        <ele>1168</ele>
        <time>2021-04-27T09:06:07Z</time>
      </trkpt>
      <trkpt lat="45.17842" lon="4.46221">
        <ele>1169</ele>
        <time>2021-04-27T09:06:09Z</time>
      </trkpt>
      <trkpt lat="45.17832" lon="4.46212">
        <ele>1169</ele>
        <time>2021-04-27T09:06:11Z</time>
      </trkpt>
      <trkpt lat="45.17822" lon="4.46205">
        <ele>1169</ele>
        <time>2021-04-27T09:06:13Z</time>
      </trkpt>
      <trkpt lat="45.17814" lon="4.46194">
        <ele>1169</ele>
        <time>2021-04-27T09:06:15Z</time>
      </trkpt>
      <trkpt lat="45.17805" lon="4.46184">
        <ele>1170</ele>
        <time>2021-04-27T09:06:17Z</time>
      </trkpt>
      <trkpt lat="45.17798" lon="4.46174">
        <ele>1170</ele>
        <time>2021-04-27T09:06:19Z</time>
      </trkpt>
      <trkpt lat="45.1779" lon="4.46165">
        <ele>1170</ele>
        <time>2021-04-27T09:06:21Z</time>
      </trkpt>
      <trkpt lat="45.17783" lon="4.46152">
        <ele>1171</ele>
        <time>2021-04-27T09:06:24Z</time>
      </trkpt>
      <trkpt lat="45.17775" lon="4.46139">
        <ele>1171</ele>
        <time>2021-04-27T09:06:27Z</time>
      </trkpt>
      <trkpt lat="45.17767" lon="4.46125">
        <ele>1171</ele>
        <time>2021-04-27T09:06:30Z</time>
      </trkpt>
      <trkpt lat="45.17762" lon="4.46114">
        <ele>1171</ele>
        <time>2021-04-27T09:06:33Z</time>
      </trkpt>
      <trkpt lat="45.17753" lon="4.46101">
        <ele>1172</ele>
        <time>2021-04-27T09:06:36Z</time>
      </trkpt>
      <trkpt lat="45.17746" lon="4.4609">
        <ele>1172</ele>
        <time>2021-04-27T09:06:39Z</time>
      </trkpt>
      <trkpt lat="45.17744" lon="4.46087">
        <ele>1173</ele>
        <time>2021-04-27T09:06:40Z</time>
      </trkpt>
      <trkpt lat="45.17742" lon="4.46083">
        <ele>1173</ele>
        <time>2021-04-27T09:06:41Z</time>
      </trkpt>
      <trkpt lat="45.1774" lon="4.4608">
        <ele>1173</ele>
        <time>2021-04-27T09:06:42Z</time>
      </trkpt>
      <trkpt lat="45.17737" lon="4.46075">
        <ele>1173</ele>
        <time>2021-04-27T09:06:43Z</time>
      </trkpt>
      <trkpt lat="45.17734" lon="4.46071">
        <ele>1173</ele>
        <time>2021-04-27T09:06:44Z</time>
      </trkpt>
      <trkpt lat="45.17732" lon="4.46067">
        <ele>1173</ele>
        <time>2021-04-27T09:06:45Z</time>
      </trkpt>
      <trkpt lat="45.17729" lon="4.46063">
        <ele>1173</ele>
        <time>2021-04-27T09:06:46Z</time>
      </trkpt>
      <trkpt lat="45.17728" lon="4.4606">
        <ele>1173</ele>
        <time>2021-04-27T09:06:47Z</time>
      </trkpt>
      <trkpt lat="45.17725" lon="4.46056">
        <ele>1174</ele>
        <time>2021-04-27T09:06:48Z</time>
      </trkpt>
      <trkpt lat="45.17722" lon="4.46051">
        <ele>1174</ele>
        <time>2021-04-27T09:06:49Z</time>
      </trkpt>
      <trkpt lat="45.1772" lon="4.46046">
        <ele>1174</ele>
        <time>2021-04-27T09:06:50Z</time>
      </trkpt>
      <trkpt lat="45.17718" lon="4.46043">
        <ele>1174</ele>
        <time>2021-04-27T09:06:51Z</time>
      </trkpt>
      <trkpt lat="45.17716" lon="4.4604">
        <ele>1174</ele>
        <time>2021-04-27T09:06:52Z</time>
      </trkpt>
      <trkpt lat="45.17713" lon="4.46036">
        <ele>1174</ele>
        <time>2021-04-27T09:06:53Z</time>
      </trkpt>
      <trkpt lat="45.1771" lon="4.46032">
        <ele>1174</ele>
        <time>2021-04-27T09:06:54Z</time>
      </trkpt>
      <trkpt lat="45.17707" lon="4.46029">
        <ele>1175</ele>
        <time>2021-04-27T09:06:55Z</time>
      </trkpt>
      <trkpt lat="45.17705" lon="4.46026">
        <ele>1175</ele>
        <time>2021-04-27T09:06:56Z</time>
      </trkpt>
      <trkpt lat="45.17702" lon="4.46023">
        <ele>1175</ele>
        <time>2021-04-27T09:06:57Z</time>
      </trkpt>
      <trkpt lat="45.177" lon="4.4602">
        <ele>1175</ele>
        <time>2021-04-27T09:06:58Z</time>
      </trkpt>
      <trkpt lat="45.17697" lon="4.46016">
        <ele>1176</ele>
        <time>2021-04-27T09:06:59Z</time>
      </trkpt>
      <trkpt lat="45.17694" lon="4.46012">
        <ele>1176</ele>
        <time>2021-04-27T09:07:00Z</time>
      </trkpt>
      <trkpt lat="45.17691" lon="4.46009">
        <ele>1176</ele>
        <time>2021-04-27T09:07:01Z</time>
      </trkpt>
      <trkpt lat="45.17687" lon="4.46007">
        <ele>1176</ele>
        <time>2021-04-27T09:07:02Z</time>
      </trkpt>
      <trkpt lat="45.17684" lon="4.46004">
        <ele>1176</ele>
        <time>2021-04-27T09:07:03Z</time>
      </trkpt>
      <trkpt lat="45.17681" lon="4.46002">
        <ele>1176</ele>
        <time>2021-04-27T09:07:04Z</time>
      </trkpt>
      <trkpt lat="45.17678" lon="4.46">
        <ele>1176</ele>
        <time>2021-04-27T09:07:05Z</time>
      </trkpt>
      <trkpt lat="45.17675" lon="4.45999">
        <ele>1176</ele>
        <time>2021-04-27T09:07:06Z</time>
      </trkpt>
      <trkpt lat="45.17671" lon="4.45997">
        <ele>1176</ele>
        <time>2021-04-27T09:07:07Z</time>
      </trkpt>
      <trkpt lat="45.17668" lon="4.45995">
        <ele>1177</ele>
        <time>2021-04-27T09:07:08Z</time>
      </trkpt>
      <trkpt lat="45.17665" lon="4.45993">
        <ele>1177</ele>
        <time>2021-04-27T09:07:09Z</time>
      </trkpt>
      <trkpt lat="45.17662" lon="4.45992">
        <ele>1177</ele>
        <time>2021-04-27T09:07:10Z</time>
      </trkpt>
      <trkpt lat="45.1766" lon="4.4599">
        <ele>1178</ele>
        <time>2021-04-27T09:07:11Z</time>
      </trkpt>
      <trkpt lat="45.17658" lon="4.45989">
        <ele>1178</ele>
        <time>2021-04-27T09:07:12Z</time>
      </trkpt>
      <trkpt lat="45.17655" lon="4.45988">
        <ele>1178</ele>
        <time>2021-04-27T09:07:13Z</time>
      </trkpt>
      <trkpt lat="45.17653" lon="4.45987">
        <ele>1179</ele>
        <time>2021-04-27T09:07:14Z</time>
      </trkpt>
      <trkpt lat="45.17651" lon="4.45986">
        <ele>1179</ele>
        <time>2021-04-27T09:07:15Z</time>
      </trkpt>
      <trkpt lat="45.17648" lon="4.45984">
        <ele>1179</ele>
        <time>2021-04-27T09:07:16Z</time>
      </trkpt>
      <trkpt lat="45.17645" lon="4.45983">
        <ele>1179</ele>
        <time>2021-04-27T09:07:17Z</time>
      </trkpt>
      <trkpt lat="45.17641" lon="4.45981">
        <ele>1179</ele>
        <time>2021-04-27T09:07:18Z</time>
      </trkpt>
      <trkpt lat="45.17638" lon="4.45979">
        <ele>1180</ele>
        <time>2021-04-27T09:07:19Z</time>
      </trkpt>
      <trkpt lat="45.17636" lon="4.45978">
        <ele>1180</ele>
        <time>2021-04-27T09:07:20Z</time>
      </trkpt>
      <trkpt lat="45.17633" lon="4.45977">
        <ele>1180</ele>
        <time>2021-04-27T09:07:21Z</time>
      </trkpt>
      <trkpt lat="45.17631" lon="4.45975">
        <ele>1180</ele>
        <time>2021-04-27T09:07:22Z</time>
      </trkpt>
      <trkpt lat="45.17628" lon="4.45974">
        <ele>1180</ele>
        <time>2021-04-27T09:07:23Z</time>
      </trkpt>
      <trkpt lat="45.17625" lon="4.45973">
        <ele>1180</ele>
        <time>2021-04-27T09:07:24Z</time>
      </trkpt>
      <trkpt lat="45.17621" lon="4.45971">
        <ele>1181</ele>
        <time>2021-04-27T09:07:25Z</time>
      </trkpt>
      <trkpt lat="45.17618" lon="4.45968">
        <ele>1181</ele>
        <time>2021-04-27T09:07:26Z</time>
      </trkpt>
      <trkpt lat="45.17615" lon="4.45965">
        <ele>1181</ele>
        <time>2021-04-27T09:07:27Z</time>
      </trkpt>
      <trkpt lat="45.17613" lon="4.45963">
        <ele>1181</ele>
        <time>2021-04-27T09:07:28Z</time>
      </trkpt>
      <trkpt lat="45.1761" lon="4.45961">
        <ele>1181</ele>
        <time>2021-04-27T09:07:29Z</time>
      </trkpt>
      <trkpt lat="45.17607" lon="4.4596">
        <ele>1182</ele>
        <time>2021-04-27T09:07:30Z</time>
      </trkpt>
      <trkpt lat="45.17603" lon="4.45959">
        <ele>1182</ele>
        <time>2021-04-27T09:07:31Z</time>
      </trkpt>
      <trkpt lat="45.17599" lon="4.45958">
        <ele>1182</ele>
        <time>2021-04-27T09:07:32Z</time>
      </trkpt>
      <trkpt lat="45.17595" lon="4.45957">
        <ele>1182</ele>
        <time>2021-04-27T09:07:33Z</time>
      </trkpt>
      <trkpt lat="45.17592" lon="4.45955">
        <ele>1183</ele>
        <time>2021-04-27T09:07:34Z</time>
      </trkpt>
      <trkpt lat="45.17588" lon="4.45954">
        <ele>1183</ele>
        <time>2021-04-27T09:07:35Z</time>
      </trkpt>
      <trkpt lat="45.17584" lon="4.45952">
        <ele>1183</ele>
        <time>2021-04-27T09:07:36Z</time>
      </trkpt>
      <trkpt lat="45.17581" lon="4.4595">
        <ele>1184</ele>
        <time>2021-04-27T09:07:37Z</time>
      </trkpt>
      <trkpt lat="45.17577" lon="4.4595">
        <ele>1184</ele>
        <time>2021-04-27T09:07:38Z</time>
      </trkpt>
      <trkpt lat="45.17574" lon="4.45948">
        <ele>1184</ele>
        <time>2021-04-27T09:07:39Z</time>
      </trkpt>
      <trkpt lat="45.17571" lon="4.45947">
        <ele>1184</ele>
        <time>2021-04-27T09:07:40Z</time>
      </trkpt>
      <trkpt lat="45.17568" lon="4.45945">
        <ele>1184</ele>
        <time>2021-04-27T09:07:41Z</time>
      </trkpt>
      <trkpt lat="45.17565" lon="4.45944">
        <ele>1184</ele>
        <time>2021-04-27T09:07:42Z</time>
      </trkpt>
      <trkpt lat="45.17561" lon="4.45942">
        <ele>1185</ele>
        <time>2021-04-27T09:07:43Z</time>
      </trkpt>
      <trkpt lat="45.17558" lon="4.45941">
        <ele>1185</ele>
        <time>2021-04-27T09:07:44Z</time>
      </trkpt>
      <trkpt lat="45.17554" lon="4.4594">
        <ele>1185</ele>
        <time>2021-04-27T09:07:45Z</time>
      </trkpt>
      <trkpt lat="45.17551" lon="4.45938">
        <ele>1185</ele>
        <time>2021-04-27T09:07:46Z</time>
      </trkpt>
      <trkpt lat="45.17547" lon="4.45936">
        <ele>1185</ele>
        <time>2021-04-27T09:07:47Z</time>
      </trkpt>
      <trkpt lat="45.17544" lon="4.45934">
        <ele>1186</ele>
        <time>2021-04-27T09:07:48Z</time>
      </trkpt>
      <trkpt lat="45.1754" lon="4.45933">
        <ele>1186</ele>
        <time>2021-04-27T09:07:49Z</time>
      </trkpt>
      <trkpt lat="45.17536" lon="4.45932">
        <ele>1186</ele>
        <time>2021-04-27T09:07:50Z</time>
      </trkpt>
      <trkpt lat="45.17532" lon="4.4593">
        <ele>1186</ele>
        <time>2021-04-27T09:07:51Z</time>
      </trkpt>
      <trkpt lat="45.17528" lon="4.45929">
        <ele>1186</ele>
        <time>2021-04-27T09:07:52Z</time>
      </trkpt>
      <trkpt lat="45.17525" lon="4.45927">
        <ele>1186</ele>
        <time>2021-04-27T09:07:53Z</time>
      </trkpt>
      <trkpt lat="45.17521" lon="4.45926">
        <ele>1186</ele>
        <time>2021-04-27T09:07:54Z</time>
      </trkpt>
      <trkpt lat="45.17518" lon="4.45925">
        <ele>1186</ele>
        <time>2021-04-27T09:07:55Z</time>
      </trkpt>
      <trkpt lat="45.17514" lon="4.45924">
        <ele>1187</ele>
        <time>2021-04-27T09:07:56Z</time>
      </trkpt>
      <trkpt lat="45.17511" lon="4.45923">
        <ele>1187</ele>
        <time>2021-04-27T09:07:57Z</time>
      </trkpt>
      <trkpt lat="45.17508" lon="4.45922">
        <ele>1187</ele>
        <time>2021-04-27T09:07:58Z</time>
      </trkpt>
      <trkpt lat="45.17504" lon="4.45921">
        <ele>1187</ele>
        <time>2021-04-27T09:07:59Z</time>
      </trkpt>
      <trkpt lat="45.17501" lon="4.4592">
        <ele>1187</ele>
        <time>2021-04-27T09:08:00Z</time>
      </trkpt>
      <trkpt lat="45.17497" lon="4.45918">
        <ele>1187</ele>
        <time>2021-04-27T09:08:01Z</time>
      </trkpt>
      <trkpt lat="45.17494" lon="4.45916">
        <ele>1188</ele>
        <time>2021-04-27T09:08:02Z</time>
      </trkpt>
      <trkpt lat="45.17491" lon="4.45915">
        <ele>1188</ele>
        <time>2021-04-27T09:08:03Z</time>
      </trkpt>
      <trkpt lat="45.17487" lon="4.45913">
        <ele>1188</ele>
        <time>2021-04-27T09:08:04Z</time>
      </trkpt>
      <trkpt lat="45.17484" lon="4.45912">
        <ele>1188</ele>
        <time>2021-04-27T09:08:05Z</time>
      </trkpt>
      <trkpt lat="45.17481" lon="4.4591">
        <ele>1188</ele>
        <time>2021-04-27T09:08:06Z</time>
      </trkpt>
      <trkpt lat="45.17478" lon="4.45909">
        <ele>1188</ele>
        <time>2021-04-27T09:08:07Z</time>
      </trkpt>
      <trkpt lat="45.17475" lon="4.45907">
        <ele>1188</ele>
        <time>2021-04-27T09:08:08Z</time>
      </trkpt>
      <trkpt lat="45.17471" lon="4.45905">
        <ele>1188</ele>
        <time>2021-04-27T09:08:09Z</time>
      </trkpt>
      <trkpt lat="45.17468" lon="4.45903">
        <ele>1188</ele>
        <time>2021-04-27T09:08:10Z</time>
      </trkpt>
      <trkpt lat="45.17465" lon="4.45901">
        <ele>1188</ele>
        <time>2021-04-27T09:08:11Z</time>
      </trkpt>
      <trkpt lat="45.17462" lon="4.45899">
        <ele>1188</ele>
        <time>2021-04-27T09:08:12Z</time>
      </trkpt>
      <trkpt lat="45.17458" lon="4.45896">
        <ele>1189</ele>
        <time>2021-04-27T09:08:13Z</time>
      </trkpt>
      <trkpt lat="45.17455" lon="4.45894">
        <ele>1189</ele>
        <time>2021-04-27T09:08:14Z</time>
      </trkpt>
      <trkpt lat="45.17451" lon="4.45893">
        <ele>1189</ele>
        <time>2021-04-27T09:08:15Z</time>
      </trkpt>
      <trkpt lat="45.17447" lon="4.45891">
        <ele>1189</ele>
        <time>2021-04-27T09:08:16Z</time>
      </trkpt>
      <trkpt lat="45.17443" lon="4.4589">
        <ele>1189</ele>
        <time>2021-04-27T09:08:17Z</time>
      </trkpt>
      <trkpt lat="45.1744" lon="4.45888">
        <ele>1189</ele>
        <time>2021-04-27T09:08:18Z</time>
      </trkpt>
      <trkpt lat="45.17436" lon="4.45886">
        <ele>1189</ele>
        <time>2021-04-27T09:08:19Z</time>
      </trkpt>
      <trkpt lat="45.17432" lon="4.45884">
        <ele>1189</ele>
        <time>2021-04-27T09:08:20Z</time>
      </trkpt>
      <trkpt lat="45.17427" lon="4.45881">
        <ele>1190</ele>
        <time>2021-04-27T09:08:21Z</time>
      </trkpt>
      <trkpt lat="45.17423" lon="4.45879">
        <ele>1190</ele>
        <time>2021-04-27T09:08:22Z</time>
      </trkpt>
      <trkpt lat="45.17419" lon="4.45877">
        <ele>1190</ele>
        <time>2021-04-27T09:08:23Z</time>
      </trkpt>
      <trkpt lat="45.17415" lon="4.45875">
        <ele>1190</ele>
        <time>2021-04-27T09:08:24Z</time>
      </trkpt>
      <trkpt lat="45.17411" lon="4.45874">
        <ele>1190</ele>
        <time>2021-04-27T09:08:25Z</time>
      </trkpt>
      <trkpt lat="45.17407" lon="4.45872">
        <ele>1190</ele>
        <time>2021-04-27T09:08:26Z</time>
      </trkpt>
      <trkpt lat="45.17403" lon="4.4587">
        <ele>1191</ele>
        <time>2021-04-27T09:08:27Z</time>
      </trkpt>
      <trkpt lat="45.17399" lon="4.45868">
        <ele>1191</ele>
        <time>2021-04-27T09:08:28Z</time>
      </trkpt>
      <trkpt lat="45.17394" lon="4.45867">
        <ele>1191</ele>
        <time>2021-04-27T09:08:29Z</time>
      </trkpt>
      <trkpt lat="45.17389" lon="4.45866">
        <ele>1191</ele>
        <time>2021-04-27T09:08:30Z</time>
      </trkpt>
      <trkpt lat="45.17383" lon="4.45866">
        <ele>1191</ele>
        <time>2021-04-27T09:08:31Z</time>
      </trkpt>
      <trkpt lat="45.17378" lon="4.45865">
        <ele>1191</ele>
        <time>2021-04-27T09:08:32Z</time>
      </trkpt>
      <trkpt lat="45.17373" lon="4.45865">
        <ele>1191</ele>
        <time>2021-04-27T09:08:33Z</time>
      </trkpt>
      <trkpt lat="45.17366" lon="4.45862">
        <ele>1191</ele>
        <time>2021-04-27T09:08:34Z</time>
      </trkpt>
      <trkpt lat="45.1736" lon="4.45861">
        <ele>1191</ele>
        <time>2021-04-27T09:08:35Z</time>
      </trkpt>
      <trkpt lat="45.17354" lon="4.45861">
        <ele>1191</ele>
        <time>2021-04-27T09:08:36Z</time>
      </trkpt>
      <trkpt lat="45.17347" lon="4.4586">
        <ele>1191</ele>
        <time>2021-04-27T09:08:37Z</time>
      </trkpt>
      <trkpt lat="45.17341" lon="4.4586">
        <ele>1191</ele>
        <time>2021-04-27T09:08:38Z</time>
      </trkpt>
      <trkpt lat="45.17334" lon="4.45859">
        <ele>1190</ele>
        <time>2021-04-27T09:08:39Z</time>
      </trkpt>
      <trkpt lat="45.17327" lon="4.45859">
        <ele>1190</ele>
        <time>2021-04-27T09:08:40Z</time>
      </trkpt>
      <trkpt lat="45.17322" lon="4.4586">
        <ele>1190</ele>
        <time>2021-04-27T09:08:41Z</time>
      </trkpt>
      <trkpt lat="45.17317" lon="4.45862">
        <ele>1190</ele>
        <time>2021-04-27T09:08:42Z</time>
      </trkpt>
      <trkpt lat="45.17312" lon="4.45864">
        <ele>1190</ele>
        <time>2021-04-27T09:08:43Z</time>
      </trkpt>
      <trkpt lat="45.17305" lon="4.45865">
        <ele>1190</ele>
        <time>2021-04-27T09:08:44Z</time>
      </trkpt>
      <trkpt lat="45.17299" lon="4.45867">
        <ele>1190</ele>
        <time>2021-04-27T09:08:45Z</time>
      </trkpt>
      <trkpt lat="45.17292" lon="4.45869">
        <ele>1190</ele>
        <time>2021-04-27T09:08:46Z</time>
      </trkpt>
      <trkpt lat="45.17286" lon="4.45871">
        <ele>1190</ele>
        <time>2021-04-27T09:08:47Z</time>
      </trkpt>
      <trkpt lat="45.1728" lon="4.45874">
        <ele>1190</ele>
        <time>2021-04-27T09:08:48Z</time>
      </trkpt>
      <trkpt lat="45.17268" lon="4.45879">
        <ele>1190</ele>
        <time>2021-04-27T09:08:50Z</time>
      </trkpt>
      <trkpt lat="45.17262" lon="4.45881">
        <ele>1190</ele>
        <time>2021-04-27T09:08:51Z</time>
      </trkpt>
      <trkpt lat="45.17255" lon="4.45884">
        <ele>1190</ele>
        <time>2021-04-27T09:08:52Z</time>
      </trkpt>
      <trkpt lat="45.17249" lon="4.45886">
        <ele>1190</ele>
        <time>2021-04-27T09:08:53Z</time>
      </trkpt>
      <trkpt lat="45.17244" lon="4.45889">
        <ele>1190</ele>
        <time>2021-04-27T09:08:54Z</time>
      </trkpt>
      <trkpt lat="45.1724" lon="4.45893">
        <ele>1189</ele>
        <time>2021-04-27T09:08:55Z</time>
      </trkpt>
      <trkpt lat="45.17235" lon="4.45896">
        <ele>1189</ele>
        <time>2021-04-27T09:08:56Z</time>
      </trkpt>
      <trkpt lat="45.17229" lon="4.45898">
        <ele>1189</ele>
        <time>2021-04-27T09:08:57Z</time>
      </trkpt>
      <trkpt lat="45.17224" lon="4.45899">
        <ele>1189</ele>
        <time>2021-04-27T09:08:58Z</time>
      </trkpt>
      <trkpt lat="45.17221" lon="4.459">
        <ele>1188</ele>
        <time>2021-04-27T09:08:59Z</time>
      </trkpt>
      <trkpt lat="45.17218" lon="4.459">
        <ele>1188</ele>
        <time>2021-04-27T09:09:00Z</time>
      </trkpt>
      <trkpt lat="45.17216" lon="4.459">
        <ele>1188</ele>
        <time>2021-04-27T09:09:01Z</time>
      </trkpt>
      <trkpt lat="45.17214" lon="4.45899">
        <ele>1186</ele>
        <time>2021-04-27T09:09:06Z</time>
      </trkpt>
      <trkpt lat="45.17213" lon="4.45898">
        <ele>1186</ele>
        <time>2021-04-27T09:09:12Z</time>
      </trkpt>
      <trkpt lat="45.17203" lon="4.45889">
        <ele>1185</ele>
        <time>2021-04-27T09:09:19Z</time>
      </trkpt>
      <trkpt lat="45.17199" lon="4.45885">
        <ele>1184</ele>
        <time>2021-04-27T09:09:20Z</time>
      </trkpt>
      <trkpt lat="45.17195" lon="4.45882">
        <ele>1184</ele>
        <time>2021-04-27T09:09:21Z</time>
      </trkpt>
      <trkpt lat="45.1719" lon="4.45877">
        <ele>1184</ele>
        <time>2021-04-27T09:09:22Z</time>
      </trkpt>
      <trkpt lat="45.17187" lon="4.45873">
        <ele>1184</ele>
        <time>2021-04-27T09:09:23Z</time>
      </trkpt>
      <trkpt lat="45.17183" lon="4.45869">
        <ele>1183</ele>
        <time>2021-04-27T09:09:24Z</time>
      </trkpt>
      <trkpt lat="45.1718" lon="4.45863">
        <ele>1183</ele>
        <time>2021-04-27T09:09:25Z</time>
      </trkpt>
      <trkpt lat="45.17177" lon="4.45858">
        <ele>1183</ele>
        <time>2021-04-27T09:09:26Z</time>
      </trkpt>
      <trkpt lat="45.17173" lon="4.45852">
        <ele>1183</ele>
        <time>2021-04-27T09:09:27Z</time>
      </trkpt>
      <trkpt lat="45.17167" lon="4.45846">
        <ele>1182</ele>
        <time>2021-04-27T09:09:28Z</time>
      </trkpt>
      <trkpt lat="45.1716" lon="4.45842">
        <ele>1182</ele>
        <time>2021-04-27T09:09:29Z</time>
      </trkpt>
      <trkpt lat="45.17154" lon="4.4584">
        <ele>1181</ele>
        <time>2021-04-27T09:09:30Z</time>
      </trkpt>
      <trkpt lat="45.17149" lon="4.45839">
        <ele>1181</ele>
        <time>2021-04-27T09:09:31Z</time>
      </trkpt>
      <trkpt lat="45.17145" lon="4.45839">
        <ele>1181</ele>
        <time>2021-04-27T09:09:32Z</time>
      </trkpt>
      <trkpt lat="45.1714" lon="4.45839">
        <ele>1180</ele>
        <time>2021-04-27T09:09:33Z</time>
      </trkpt>
      <trkpt lat="45.17135" lon="4.45839">
        <ele>1179</ele>
        <time>2021-04-27T09:09:34Z</time>
      </trkpt>
      <trkpt lat="45.1713" lon="4.45839">
        <ele>1179</ele>
        <time>2021-04-27T09:09:35Z</time>
      </trkpt>
      <trkpt lat="45.17125" lon="4.45839">
        <ele>1178</ele>
        <time>2021-04-27T09:09:36Z</time>
      </trkpt>
      <trkpt lat="45.17121" lon="4.45839">
        <ele>1177</ele>
        <time>2021-04-27T09:09:37Z</time>
      </trkpt>
      <trkpt lat="45.17117" lon="4.4584">
        <ele>1177</ele>
        <time>2021-04-27T09:09:38Z</time>
      </trkpt>
      <trkpt lat="45.17114" lon="4.45842">
        <ele>1176</ele>
        <time>2021-04-27T09:09:39Z</time>
      </trkpt>
      <trkpt lat="45.17111" lon="4.45843">
        <ele>1176</ele>
        <time>2021-04-27T09:09:40Z</time>
      </trkpt>
      <trkpt lat="45.17108" lon="4.45843">
        <ele>1175</ele>
        <time>2021-04-27T09:09:41Z</time>
      </trkpt>
      <trkpt lat="45.17104" lon="4.45843">
        <ele>1175</ele>
        <time>2021-04-27T09:09:42Z</time>
      </trkpt>
      <trkpt lat="45.171" lon="4.45842">
        <ele>1175</ele>
        <time>2021-04-27T09:09:43Z</time>
      </trkpt>
      <trkpt lat="45.17095" lon="4.45841">
        <ele>1174</ele>
        <time>2021-04-27T09:09:44Z</time>
      </trkpt>
      <trkpt lat="45.1709" lon="4.4584">
        <ele>1174</ele>
        <time>2021-04-27T09:09:45Z</time>
      </trkpt>
      <trkpt lat="45.17084" lon="4.4584">
        <ele>1173</ele>
        <time>2021-04-27T09:09:46Z</time>
      </trkpt>
      <trkpt lat="45.17079" lon="4.4584">
        <ele>1172</ele>
        <time>2021-04-27T09:09:47Z</time>
      </trkpt>
      <trkpt lat="45.17074" lon="4.45839">
        <ele>1172</ele>
        <time>2021-04-27T09:09:48Z</time>
      </trkpt>
      <trkpt lat="45.17068" lon="4.45839">
        <ele>1171</ele>
        <time>2021-04-27T09:09:49Z</time>
      </trkpt>
      <trkpt lat="45.17062" lon="4.45837">
        <ele>1170</ele>
        <time>2021-04-27T09:09:50Z</time>
      </trkpt>
      <trkpt lat="45.17055" lon="4.45836">
        <ele>1169</ele>
        <time>2021-04-27T09:09:51Z</time>
      </trkpt>
      <trkpt lat="45.17049" lon="4.45834">
        <ele>1169</ele>
        <time>2021-04-27T09:09:52Z</time>
      </trkpt>
      <trkpt lat="45.17042" lon="4.45832">
        <ele>1168</ele>
        <time>2021-04-27T09:09:53Z</time>
      </trkpt>
      <trkpt lat="45.17036" lon="4.45831">
        <ele>1168</ele>
        <time>2021-04-27T09:09:54Z</time>
      </trkpt>
      <trkpt lat="45.17029" lon="4.45829">
        <ele>1167</ele>
        <time>2021-04-27T09:09:55Z</time>
      </trkpt>
      <trkpt lat="45.17021" lon="4.45828">
        <ele>1166</ele>
        <time>2021-04-27T09:09:56Z</time>
      </trkpt>
      <trkpt lat="45.17015" lon="4.45827">
        <ele>1166</ele>
        <time>2021-04-27T09:09:57Z</time>
      </trkpt>
      <trkpt lat="45.17002" lon="4.45827">
        <ele>1163</ele>
        <time>2021-04-27T09:09:59Z</time>
      </trkpt>
      <trkpt lat="45.16995" lon="4.45826">
        <ele>1162</ele>
        <time>2021-04-27T09:10:00Z</time>
      </trkpt>
      <trkpt lat="45.16988" lon="4.45826">
        <ele>1160</ele>
        <time>2021-04-27T09:10:01Z</time>
      </trkpt>
      <trkpt lat="45.1698" lon="4.45826">
        <ele>1159</ele>
        <time>2021-04-27T09:10:02Z</time>
      </trkpt>
      <trkpt lat="45.16973" lon="4.45825">
        <ele>1157</ele>
        <time>2021-04-27T09:10:03Z</time>
      </trkpt>
      <trkpt lat="45.16966" lon="4.45825">
        <ele>1156</ele>
        <time>2021-04-27T09:10:04Z</time>
      </trkpt>
      <trkpt lat="45.1696" lon="4.45824">
        <ele>1155</ele>
        <time>2021-04-27T09:10:05Z</time>
      </trkpt>
      <trkpt lat="45.16953" lon="4.45823">
        <ele>1153</ele>
        <time>2021-04-27T09:10:06Z</time>
      </trkpt>
      <trkpt lat="45.16947" lon="4.45823">
        <ele>1151</ele>
        <time>2021-04-27T09:10:07Z</time>
      </trkpt>
      <trkpt lat="45.16941" lon="4.45822">
        <ele>1149</ele>
        <time>2021-04-27T09:10:08Z</time>
      </trkpt>
      <trkpt lat="45.16935" lon="4.4582">
        <ele>1148</ele>
        <time>2021-04-27T09:10:09Z</time>
      </trkpt>
      <trkpt lat="45.16929" lon="4.45819">
        <ele>1146</ele>
        <time>2021-04-27T09:10:10Z</time>
      </trkpt>
      <trkpt lat="45.16923" lon="4.45818">
        <ele>1145</ele>
        <time>2021-04-27T09:10:11Z</time>
      </trkpt>
      <trkpt lat="45.16917" lon="4.45818">
        <ele>1144</ele>
        <time>2021-04-27T09:10:12Z</time>
      </trkpt>
      <trkpt lat="45.16912" lon="4.45819">
        <ele>1144</ele>
        <time>2021-04-27T09:10:13Z</time>
      </trkpt>
      <trkpt lat="45.16906" lon="4.4582">
        <ele>1143</ele>
        <time>2021-04-27T09:10:14Z</time>
      </trkpt>
      <trkpt lat="45.16899" lon="4.4582">
        <ele>1143</ele>
        <time>2021-04-27T09:10:15Z</time>
      </trkpt>
      <trkpt lat="45.16892" lon="4.45819">
        <ele>1142</ele>
        <time>2021-04-27T09:10:16Z</time>
      </trkpt>
      <trkpt lat="45.16886" lon="4.45817">
        <ele>1142</ele>
        <time>2021-04-27T09:10:17Z</time>
      </trkpt>
      <trkpt lat="45.16879" lon="4.45815">
        <ele>1141</ele>
        <time>2021-04-27T09:10:18Z</time>
      </trkpt>
      <trkpt lat="45.16873" lon="4.45812">
        <ele>1141</ele>
        <time>2021-04-27T09:10:19Z</time>
      </trkpt>
      <trkpt lat="45.16866" lon="4.45809">
        <ele>1141</ele>
        <time>2021-04-27T09:10:20Z</time>
      </trkpt>
      <trkpt lat="45.1686" lon="4.45806">
        <ele>1140</ele>
        <time>2021-04-27T09:10:21Z</time>
      </trkpt>
      <trkpt lat="45.16855" lon="4.45803">
        <ele>1140</ele>
        <time>2021-04-27T09:10:22Z</time>
      </trkpt>
      <trkpt lat="45.1685" lon="4.45799">
        <ele>1140</ele>
        <time>2021-04-27T09:10:23Z</time>
      </trkpt>
      <trkpt lat="45.16845" lon="4.45795">
        <ele>1139</ele>
        <time>2021-04-27T09:10:24Z</time>
      </trkpt>
      <trkpt lat="45.1684" lon="4.45791">
        <ele>1139</ele>
        <time>2021-04-27T09:10:25Z</time>
      </trkpt>
      <trkpt lat="45.16834" lon="4.45787">
        <ele>1138</ele>
        <time>2021-04-27T09:10:26Z</time>
      </trkpt>
      <trkpt lat="45.16829" lon="4.45783">
        <ele>1138</ele>
        <time>2021-04-27T09:10:27Z</time>
      </trkpt>
      <trkpt lat="45.16825" lon="4.4578">
        <ele>1138</ele>
        <time>2021-04-27T09:10:28Z</time>
      </trkpt>
      <trkpt lat="45.16816" lon="4.45774">
        <ele>1137</ele>
        <time>2021-04-27T09:10:30Z</time>
      </trkpt>
      <trkpt lat="45.16806" lon="4.45767">
        <ele>1136</ele>
        <time>2021-04-27T09:10:32Z</time>
      </trkpt>
      <trkpt lat="45.16795" lon="4.45758">
        <ele>1136</ele>
        <time>2021-04-27T09:10:34Z</time>
      </trkpt>
      <trkpt lat="45.16788" lon="4.45748">
        <ele>1135</ele>
        <time>2021-04-27T09:10:36Z</time>
      </trkpt>
      <trkpt lat="45.16778" lon="4.45739">
        <ele>1135</ele>
        <time>2021-04-27T09:10:38Z</time>
      </trkpt>
      <trkpt lat="45.16773" lon="4.45735">
        <ele>1134</ele>
        <time>2021-04-27T09:10:39Z</time>
      </trkpt>
      <trkpt lat="45.16768" lon="4.45731">
        <ele>1134</ele>
        <time>2021-04-27T09:10:40Z</time>
      </trkpt>
      <trkpt lat="45.16764" lon="4.45727">
        <ele>1134</ele>
        <time>2021-04-27T09:10:41Z</time>
      </trkpt>
      <trkpt lat="45.1676" lon="4.45723">
        <ele>1134</ele>
        <time>2021-04-27T09:10:42Z</time>
      </trkpt>
      <trkpt lat="45.16757" lon="4.4572">
        <ele>1134</ele>
        <time>2021-04-27T09:10:43Z</time>
      </trkpt>
      <trkpt lat="45.16755" lon="4.45716">
        <ele>1133</ele>
        <time>2021-04-27T09:10:44Z</time>
      </trkpt>
      <trkpt lat="45.16752" lon="4.45712">
        <ele>1133</ele>
        <time>2021-04-27T09:10:45Z</time>
      </trkpt>
      <trkpt lat="45.16749" lon="4.45709">
        <ele>1133</ele>
        <time>2021-04-27T09:10:46Z</time>
      </trkpt>
      <trkpt lat="45.16746" lon="4.45706">
        <ele>1133</ele>
        <time>2021-04-27T09:10:47Z</time>
      </trkpt>
      <trkpt lat="45.16743" lon="4.45702">
        <ele>1132</ele>
        <time>2021-04-27T09:10:48Z</time>
      </trkpt>
      <trkpt lat="45.16739" lon="4.45698">
        <ele>1132</ele>
        <time>2021-04-27T09:10:49Z</time>
      </trkpt>
      <trkpt lat="45.16735" lon="4.45695">
        <ele>1132</ele>
        <time>2021-04-27T09:10:50Z</time>
      </trkpt>
      <trkpt lat="45.16733" lon="4.45691">
        <ele>1132</ele>
        <time>2021-04-27T09:10:51Z</time>
      </trkpt>
      <trkpt lat="45.1673" lon="4.45688">
        <ele>1131</ele>
        <time>2021-04-27T09:10:52Z</time>
      </trkpt>
      <trkpt lat="45.16727" lon="4.45685">
        <ele>1131</ele>
        <time>2021-04-27T09:10:53Z</time>
      </trkpt>
      <trkpt lat="45.16724" lon="4.45682">
        <ele>1131</ele>
        <time>2021-04-27T09:10:54Z</time>
      </trkpt>
      <trkpt lat="45.16722" lon="4.45679">
        <ele>1130</ele>
        <time>2021-04-27T09:10:55Z</time>
      </trkpt>
      <trkpt lat="45.16719" lon="4.45676">
        <ele>1130</ele>
        <time>2021-04-27T09:10:56Z</time>
      </trkpt>
      <trkpt lat="45.16716" lon="4.45672">
        <ele>1129</ele>
        <time>2021-04-27T09:10:57Z</time>
      </trkpt>
      <trkpt lat="45.16713" lon="4.45668">
        <ele>1129</ele>
        <time>2021-04-27T09:10:58Z</time>
      </trkpt>
      <trkpt lat="45.1671" lon="4.45664">
        <ele>1128</ele>
        <time>2021-04-27T09:10:59Z</time>
      </trkpt>
      <trkpt lat="45.16708" lon="4.4566">
        <ele>1128</ele>
        <time>2021-04-27T09:11:00Z</time>
      </trkpt>
      <trkpt lat="45.16706" lon="4.45656">
        <ele>1127</ele>
        <time>2021-04-27T09:11:01Z</time>
      </trkpt>
      <trkpt lat="45.16704" lon="4.45651">
        <ele>1127</ele>
        <time>2021-04-27T09:11:02Z</time>
      </trkpt>
      <trkpt lat="45.16701" lon="4.45647">
        <ele>1126</ele>
        <time>2021-04-27T09:11:03Z</time>
      </trkpt>
      <trkpt lat="45.16698" lon="4.45642">
        <ele>1126</ele>
        <time>2021-04-27T09:11:04Z</time>
      </trkpt>
      <trkpt lat="45.16696" lon="4.45638">
        <ele>1126</ele>
        <time>2021-04-27T09:11:05Z</time>
      </trkpt>
      <trkpt lat="45.16694" lon="4.45633">
        <ele>1125</ele>
        <time>2021-04-27T09:11:06Z</time>
      </trkpt>
      <trkpt lat="45.16691" lon="4.45628">
        <ele>1124</ele>
        <time>2021-04-27T09:11:07Z</time>
      </trkpt>
      <trkpt lat="45.16688" lon="4.45623">
        <ele>1124</ele>
        <time>2021-04-27T09:11:08Z</time>
      </trkpt>
      <trkpt lat="45.16685" lon="4.45618">
        <ele>1123</ele>
        <time>2021-04-27T09:11:09Z</time>
      </trkpt>
      <trkpt lat="45.16681" lon="4.45614">
        <ele>1123</ele>
        <time>2021-04-27T09:11:10Z</time>
      </trkpt>
      <trkpt lat="45.16678" lon="4.45609">
        <ele>1123</ele>
        <time>2021-04-27T09:11:11Z</time>
      </trkpt>
      <trkpt lat="45.16675" lon="4.45603">
        <ele>1122</ele>
        <time>2021-04-27T09:11:12Z</time>
      </trkpt>
      <trkpt lat="45.16674" lon="4.45598">
        <ele>1122</ele>
        <time>2021-04-27T09:11:13Z</time>
      </trkpt>
      <trkpt lat="45.16672" lon="4.45592">
        <ele>1121</ele>
        <time>2021-04-27T09:11:14Z</time>
      </trkpt>
      <trkpt lat="45.1667" lon="4.45586">
        <ele>1120</ele>
        <time>2021-04-27T09:11:15Z</time>
      </trkpt>
      <trkpt lat="45.16669" lon="4.4558">
        <ele>1119</ele>
        <time>2021-04-27T09:11:16Z</time>
      </trkpt>
      <trkpt lat="45.16667" lon="4.45574">
        <ele>1119</ele>
        <time>2021-04-27T09:11:17Z</time>
      </trkpt>
      <trkpt lat="45.16666" lon="4.45567">
        <ele>1118</ele>
        <time>2021-04-27T09:11:18Z</time>
      </trkpt>
      <trkpt lat="45.16664" lon="4.45561">
        <ele>1118</ele>
        <time>2021-04-27T09:11:19Z</time>
      </trkpt>
      <trkpt lat="45.16663" lon="4.45555">
        <ele>1118</ele>
        <time>2021-04-27T09:11:20Z</time>
      </trkpt>
      <trkpt lat="45.16661" lon="4.45548">
        <ele>1117</ele>
        <time>2021-04-27T09:11:21Z</time>
      </trkpt>
      <trkpt lat="45.1666" lon="4.45542">
        <ele>1117</ele>
        <time>2021-04-27T09:11:22Z</time>
      </trkpt>
      <trkpt lat="45.16658" lon="4.45536">
        <ele>1117</ele>
        <time>2021-04-27T09:11:23Z</time>
      </trkpt>
      <trkpt lat="45.16657" lon="4.4553">
        <ele>1117</ele>
        <time>2021-04-27T09:11:24Z</time>
      </trkpt>
      <trkpt lat="45.16655" lon="4.45524">
        <ele>1117</ele>
        <time>2021-04-27T09:11:25Z</time>
      </trkpt>
      <trkpt lat="45.16653" lon="4.45518">
        <ele>1117</ele>
        <time>2021-04-27T09:11:26Z</time>
      </trkpt>
      <trkpt lat="45.16652" lon="4.45512">
        <ele>1116</ele>
        <time>2021-04-27T09:11:27Z</time>
      </trkpt>
      <trkpt lat="45.1665" lon="4.45506">
        <ele>1116</ele>
        <time>2021-04-27T09:11:28Z</time>
      </trkpt>
      <trkpt lat="45.16649" lon="4.455">
        <ele>1116</ele>
        <time>2021-04-27T09:11:29Z</time>
      </trkpt>
      <trkpt lat="45.16648" lon="4.45494">
        <ele>1116</ele>
        <time>2021-04-27T09:11:30Z</time>
      </trkpt>
      <trkpt lat="45.16647" lon="4.45489">
        <ele>1116</ele>
        <time>2021-04-27T09:11:31Z</time>
      </trkpt>
      <trkpt lat="45.16645" lon="4.45484">
        <ele>1116</ele>
        <time>2021-04-27T09:11:32Z</time>
      </trkpt>
      <trkpt lat="45.16645" lon="4.45479">
        <ele>1116</ele>
        <time>2021-04-27T09:11:33Z</time>
      </trkpt>
      <trkpt lat="45.16643" lon="4.45475">
        <ele>1116</ele>
        <time>2021-04-27T09:11:34Z</time>
      </trkpt>
      <trkpt lat="45.16641" lon="4.4547">
        <ele>1116</ele>
        <time>2021-04-27T09:11:35Z</time>
      </trkpt>
      <trkpt lat="45.16638" lon="4.45466">
        <ele>1116</ele>
        <time>2021-04-27T09:11:36Z</time>
      </trkpt>
      <trkpt lat="45.16636" lon="4.45462">
        <ele>1116</ele>
        <time>2021-04-27T09:11:37Z</time>
      </trkpt>
      <trkpt lat="45.16635" lon="4.45458">
        <ele>1116</ele>
        <time>2021-04-27T09:11:38Z</time>
      </trkpt>
      <trkpt lat="45.16633" lon="4.45454">
        <ele>1116</ele>
        <time>2021-04-27T09:11:39Z</time>
      </trkpt>
      <trkpt lat="45.16626" lon="4.4544">
        <ele>1116</ele>
        <time>2021-04-27T09:11:42Z</time>
      </trkpt>
      <trkpt lat="45.16617" lon="4.45427">
        <ele>1116</ele>
        <time>2021-04-27T09:11:45Z</time>
      </trkpt>
      <trkpt lat="45.16613" lon="4.45415">
        <ele>1116</ele>
        <time>2021-04-27T09:11:47Z</time>
      </trkpt>
      <trkpt lat="45.16611" lon="4.45409">
        <ele>1116</ele>
        <time>2021-04-27T09:11:48Z</time>
      </trkpt>
      <trkpt lat="45.1661" lon="4.45404">
        <ele>1116</ele>
        <time>2021-04-27T09:11:49Z</time>
      </trkpt>
      <trkpt lat="45.1661" lon="4.45397">
        <ele>1117</ele>
        <time>2021-04-27T09:11:50Z</time>
      </trkpt>
      <trkpt lat="45.16608" lon="4.45392">
        <ele>1117</ele>
        <time>2021-04-27T09:11:51Z</time>
      </trkpt>
      <trkpt lat="45.16607" lon="4.45386">
        <ele>1117</ele>
        <time>2021-04-27T09:11:52Z</time>
      </trkpt>
      <trkpt lat="45.16605" lon="4.45381">
        <ele>1117</ele>
        <time>2021-04-27T09:11:53Z</time>
      </trkpt>
      <trkpt lat="45.16604" lon="4.45376">
        <ele>1117</ele>
        <time>2021-04-27T09:11:54Z</time>
      </trkpt>
      <trkpt lat="45.16604" lon="4.4537">
        <ele>1117</ele>
        <time>2021-04-27T09:11:55Z</time>
      </trkpt>
      <trkpt lat="45.16604" lon="4.45364">
        <ele>1117</ele>
        <time>2021-04-27T09:11:56Z</time>
      </trkpt>
      <trkpt lat="45.16603" lon="4.45358">
        <ele>1117</ele>
        <time>2021-04-27T09:11:57Z</time>
      </trkpt>
      <trkpt lat="45.16603" lon="4.45352">
        <ele>1117</ele>
        <time>2021-04-27T09:11:58Z</time>
      </trkpt>
      <trkpt lat="45.16603" lon="4.45346">
        <ele>1117</ele>
        <time>2021-04-27T09:11:59Z</time>
      </trkpt>
      <trkpt lat="45.16604" lon="4.4534">
        <ele>1117</ele>
        <time>2021-04-27T09:12:00Z</time>
      </trkpt>
      <trkpt lat="45.16604" lon="4.45334">
        <ele>1117</ele>
        <time>2021-04-27T09:12:01Z</time>
      </trkpt>
      <trkpt lat="45.16604" lon="4.45329">
        <ele>1117</ele>
        <time>2021-04-27T09:12:02Z</time>
      </trkpt>
      <trkpt lat="45.16603" lon="4.45325">
        <ele>1117</ele>
        <time>2021-04-27T09:12:03Z</time>
      </trkpt>
      <trkpt lat="45.16603" lon="4.4532">
        <ele>1117</ele>
        <time>2021-04-27T09:12:04Z</time>
      </trkpt>
      <trkpt lat="45.16603" lon="4.45315">
        <ele>1118</ele>
        <time>2021-04-27T09:12:05Z</time>
      </trkpt>
      <trkpt lat="45.16602" lon="4.45311">
        <ele>1118</ele>
        <time>2021-04-27T09:12:06Z</time>
      </trkpt>
      <trkpt lat="45.166" lon="4.45305">
        <ele>1118</ele>
        <time>2021-04-27T09:12:07Z</time>
      </trkpt>
      <trkpt lat="45.16597" lon="4.45288">
        <ele>1118</ele>
        <time>2021-04-27T09:12:10Z</time>
      </trkpt>
      <trkpt lat="45.16595" lon="4.45276">
        <ele>1118</ele>
        <time>2021-04-27T09:12:12Z</time>
      </trkpt>
      <trkpt lat="45.16594" lon="4.4527">
        <ele>1118</ele>
        <time>2021-04-27T09:12:13Z</time>
      </trkpt>
      <trkpt lat="45.16592" lon="4.45264">
        <ele>1118</ele>
        <time>2021-04-27T09:12:14Z</time>
      </trkpt>
      <trkpt lat="45.16589" lon="4.45252">
        <ele>1118</ele>
        <time>2021-04-27T09:12:16Z</time>
      </trkpt>
      <trkpt lat="45.16586" lon="4.45239">
        <ele>1118</ele>
        <time>2021-04-27T09:12:18Z</time>
      </trkpt>
      <trkpt lat="45.16582" lon="4.45225">
        <ele>1118</ele>
        <time>2021-04-27T09:12:20Z</time>
      </trkpt>
      <trkpt lat="45.16576" lon="4.45214">
        <ele>1118</ele>
        <time>2021-04-27T09:12:22Z</time>
      </trkpt>
      <trkpt lat="45.16568" lon="4.45203">
        <ele>1119</ele>
        <time>2021-04-27T09:12:24Z</time>
      </trkpt>
      <trkpt lat="45.16562" lon="4.45193">
        <ele>1119</ele>
        <time>2021-04-27T09:12:26Z</time>
      </trkpt>
      <trkpt lat="45.16559" lon="4.45189">
        <ele>1119</ele>
        <time>2021-04-27T09:12:27Z</time>
      </trkpt>
      <trkpt lat="45.16556" lon="4.45183">
        <ele>1119</ele>
        <time>2021-04-27T09:12:28Z</time>
      </trkpt>
      <trkpt lat="45.1655" lon="4.45172">
        <ele>1120</ele>
        <time>2021-04-27T09:12:30Z</time>
      </trkpt>
      <trkpt lat="45.16544" lon="4.45159">
        <ele>1120</ele>
        <time>2021-04-27T09:12:33Z</time>
      </trkpt>
      <trkpt lat="45.16537" lon="4.45145">
        <ele>1120</ele>
        <time>2021-04-27T09:12:36Z</time>
      </trkpt>
      <trkpt lat="45.16531" lon="4.45135">
        <ele>1120</ele>
        <time>2021-04-27T09:12:38Z</time>
      </trkpt>
      <trkpt lat="45.16523" lon="4.45122">
        <ele>1121</ele>
        <time>2021-04-27T09:12:41Z</time>
      </trkpt>
      <trkpt lat="45.1652" lon="4.45118">
        <ele>1121</ele>
        <time>2021-04-27T09:12:42Z</time>
      </trkpt>
      <trkpt lat="45.16517" lon="4.45114">
        <ele>1121</ele>
        <time>2021-04-27T09:12:43Z</time>
      </trkpt>
      <trkpt lat="45.16514" lon="4.45111">
        <ele>1121</ele>
        <time>2021-04-27T09:12:44Z</time>
      </trkpt>
      <trkpt lat="45.16506" lon="4.45101">
        <ele>1122</ele>
        <time>2021-04-27T09:12:47Z</time>
      </trkpt>
      <trkpt lat="45.16498" lon="4.45087">
        <ele>1124</ele>
        <time>2021-04-27T09:12:50Z</time>
      </trkpt>
      <trkpt lat="45.16492" lon="4.45075">
        <ele>1125</ele>
        <time>2021-04-27T09:12:53Z</time>
      </trkpt>
      <trkpt lat="45.16488" lon="4.45061">
        <ele>1126</ele>
        <time>2021-04-27T09:12:56Z</time>
      </trkpt>
      <trkpt lat="45.16484" lon="4.45046">
        <ele>1126</ele>
        <time>2021-04-27T09:12:59Z</time>
      </trkpt>
      <trkpt lat="45.16481" lon="4.45032">
        <ele>1127</ele>
        <time>2021-04-27T09:13:02Z</time>
      </trkpt>
      <trkpt lat="45.16477" lon="4.45017">
        <ele>1127</ele>
        <time>2021-04-27T09:13:05Z</time>
      </trkpt>
      <trkpt lat="45.16475" lon="4.45013">
        <ele>1127</ele>
        <time>2021-04-27T09:13:06Z</time>
      </trkpt>
      <trkpt lat="45.16474" lon="4.45009">
        <ele>1127</ele>
        <time>2021-04-27T09:13:07Z</time>
      </trkpt>
      <trkpt lat="45.16472" lon="4.45004">
        <ele>1128</ele>
        <time>2021-04-27T09:13:08Z</time>
      </trkpt>
      <trkpt lat="45.16467" lon="4.44991">
        <ele>1128</ele>
        <time>2021-04-27T09:13:10Z</time>
      </trkpt>
      <trkpt lat="45.16458" lon="4.44978">
        <ele>1128</ele>
        <time>2021-04-27T09:13:12Z</time>
      </trkpt>
      <trkpt lat="45.16454" lon="4.44972">
        <ele>1128</ele>
        <time>2021-04-27T09:13:13Z</time>
      </trkpt>
      <trkpt lat="45.16445" lon="4.4496">
        <ele>1128</ele>
        <time>2021-04-27T09:13:15Z</time>
      </trkpt>
      <trkpt lat="45.16435" lon="4.44948">
        <ele>1128</ele>
        <time>2021-04-27T09:13:17Z</time>
      </trkpt>
      <trkpt lat="45.16426" lon="4.44936">
        <ele>1128</ele>
        <time>2021-04-27T09:13:19Z</time>
      </trkpt>
      <trkpt lat="45.16414" lon="4.44925">
        <ele>1128</ele>
        <time>2021-04-27T09:13:21Z</time>
      </trkpt>
      <trkpt lat="45.16402" lon="4.44917">
        <ele>1128</ele>
        <time>2021-04-27T09:13:23Z</time>
      </trkpt>
      <trkpt lat="45.16392" lon="4.44909">
        <ele>1128</ele>
        <time>2021-04-27T09:13:25Z</time>
      </trkpt>
      <trkpt lat="45.16383" lon="4.44904">
        <ele>1129</ele>
        <time>2021-04-27T09:13:27Z</time>
      </trkpt>
      <trkpt lat="45.16373" lon="4.44894">
        <ele>1129</ele>
        <time>2021-04-27T09:13:30Z</time>
      </trkpt>
      <trkpt lat="45.1636" lon="4.44883">
        <ele>1129</ele>
        <time>2021-04-27T09:13:33Z</time>
      </trkpt>
      <trkpt lat="45.16347" lon="4.44873">
        <ele>1129</ele>
        <time>2021-04-27T09:13:35Z</time>
      </trkpt>
      <trkpt lat="45.1634" lon="4.44869">
        <ele>1129</ele>
        <time>2021-04-27T09:13:36Z</time>
      </trkpt>
      <trkpt lat="45.16333" lon="4.44866">
        <ele>1129</ele>
        <time>2021-04-27T09:13:37Z</time>
      </trkpt>
      <trkpt lat="45.16326" lon="4.44865">
        <ele>1129</ele>
        <time>2021-04-27T09:13:38Z</time>
      </trkpt>
      <trkpt lat="45.1632" lon="4.44863">
        <ele>1129</ele>
        <time>2021-04-27T09:13:39Z</time>
      </trkpt>
      <trkpt lat="45.16313" lon="4.44861">
        <ele>1129</ele>
        <time>2021-04-27T09:13:40Z</time>
      </trkpt>
      <trkpt lat="45.16307" lon="4.44859">
        <ele>1129</ele>
        <time>2021-04-27T09:13:41Z</time>
      </trkpt>
      <trkpt lat="45.16301" lon="4.44857">
        <ele>1129</ele>
        <time>2021-04-27T09:13:42Z</time>
      </trkpt>
      <trkpt lat="45.16295" lon="4.44854">
        <ele>1129</ele>
        <time>2021-04-27T09:13:43Z</time>
      </trkpt>
      <trkpt lat="45.16289" lon="4.44851">
        <ele>1129</ele>
        <time>2021-04-27T09:13:44Z</time>
      </trkpt>
      <trkpt lat="45.16284" lon="4.44848">
        <ele>1128</ele>
        <time>2021-04-27T09:13:45Z</time>
      </trkpt>
      <trkpt lat="45.16278" lon="4.44845">
        <ele>1129</ele>
        <time>2021-04-27T09:13:46Z</time>
      </trkpt>
      <trkpt lat="45.16272" lon="4.44843">
        <ele>1129</ele>
        <time>2021-04-27T09:13:47Z</time>
      </trkpt>
      <trkpt lat="45.16267" lon="4.44841">
        <ele>1129</ele>
        <time>2021-04-27T09:13:48Z</time>
      </trkpt>
      <trkpt lat="45.16262" lon="4.44839">
        <ele>1129</ele>
        <time>2021-04-27T09:13:49Z</time>
      </trkpt>
      <trkpt lat="45.16257" lon="4.44836">
        <ele>1129</ele>
        <time>2021-04-27T09:13:50Z</time>
      </trkpt>
      <trkpt lat="45.16252" lon="4.44834">
        <ele>1129</ele>
        <time>2021-04-27T09:13:51Z</time>
      </trkpt>
      <trkpt lat="45.16247" lon="4.44833">
        <ele>1129</ele>
        <time>2021-04-27T09:13:52Z</time>
      </trkpt>
      <trkpt lat="45.16242" lon="4.44831">
        <ele>1130</ele>
        <time>2021-04-27T09:13:53Z</time>
      </trkpt>
      <trkpt lat="45.16238" lon="4.44829">
        <ele>1130</ele>
        <time>2021-04-27T09:13:54Z</time>
      </trkpt>
      <trkpt lat="45.16235" lon="4.44828">
        <ele>1130</ele>
        <time>2021-04-27T09:13:55Z</time>
      </trkpt>
      <trkpt lat="45.1623" lon="4.44827">
        <ele>1130</ele>
        <time>2021-04-27T09:13:56Z</time>
      </trkpt>
      <trkpt lat="45.16226" lon="4.44826">
        <ele>1130</ele>
        <time>2021-04-27T09:13:57Z</time>
      </trkpt>
      <trkpt lat="45.16222" lon="4.44825">
        <ele>1130</ele>
        <time>2021-04-27T09:13:58Z</time>
      </trkpt>
      <trkpt lat="45.16215" lon="4.44821">
        <ele>1130</ele>
        <time>2021-04-27T09:14:00Z</time>
      </trkpt>
      <trkpt lat="45.16212" lon="4.44818">
        <ele>1130</ele>
        <time>2021-04-27T09:14:01Z</time>
      </trkpt>
      <trkpt lat="45.16202" lon="4.44812">
        <ele>1130</ele>
        <time>2021-04-27T09:14:04Z</time>
      </trkpt>
      <trkpt lat="45.16197" lon="4.44811">
        <ele>1131</ele>
        <time>2021-04-27T09:14:05Z</time>
      </trkpt>
      <trkpt lat="45.16193" lon="4.4481">
        <ele>1131</ele>
        <time>2021-04-27T09:14:06Z</time>
      </trkpt>
      <trkpt lat="45.16188" lon="4.44807">
        <ele>1131</ele>
        <time>2021-04-27T09:14:07Z</time>
      </trkpt>
      <trkpt lat="45.16184" lon="4.44805">
        <ele>1131</ele>
        <time>2021-04-27T09:14:08Z</time>
      </trkpt>
      <trkpt lat="45.1618" lon="4.44801">
        <ele>1131</ele>
        <time>2021-04-27T09:14:09Z</time>
      </trkpt>
      <trkpt lat="45.16177" lon="4.44798">
        <ele>1132</ele>
        <time>2021-04-27T09:14:10Z</time>
      </trkpt>
      <trkpt lat="45.16166" lon="4.44792">
        <ele>1132</ele>
        <time>2021-04-27T09:14:13Z</time>
      </trkpt>
      <trkpt lat="45.16162" lon="4.44789">
        <ele>1132</ele>
        <time>2021-04-27T09:14:14Z</time>
      </trkpt>
      <trkpt lat="45.16159" lon="4.44785">
        <ele>1133</ele>
        <time>2021-04-27T09:14:15Z</time>
      </trkpt>
      <trkpt lat="45.16152" lon="4.44777">
        <ele>1133</ele>
        <time>2021-04-27T09:14:17Z</time>
      </trkpt>
      <trkpt lat="45.16144" lon="4.4477">
        <ele>1133</ele>
        <time>2021-04-27T09:14:19Z</time>
      </trkpt>
      <trkpt lat="45.16139" lon="4.44768">
        <ele>1134</ele>
        <time>2021-04-27T09:14:20Z</time>
      </trkpt>
      <trkpt lat="45.16134" lon="4.44765">
        <ele>1134</ele>
        <time>2021-04-27T09:14:21Z</time>
      </trkpt>
      <trkpt lat="45.1613" lon="4.44763">
        <ele>1134</ele>
        <time>2021-04-27T09:14:22Z</time>
      </trkpt>
      <trkpt lat="45.16126" lon="4.44761">
        <ele>1134</ele>
        <time>2021-04-27T09:14:23Z</time>
      </trkpt>
      <trkpt lat="45.16122" lon="4.4476">
        <ele>1134</ele>
        <time>2021-04-27T09:14:24Z</time>
      </trkpt>
      <trkpt lat="45.16119" lon="4.44757">
        <ele>1134</ele>
        <time>2021-04-27T09:14:25Z</time>
      </trkpt>
      <trkpt lat="45.16116" lon="4.44753">
        <ele>1134</ele>
        <time>2021-04-27T09:14:26Z</time>
      </trkpt>
      <trkpt lat="45.16113" lon="4.44749">
        <ele>1134</ele>
        <time>2021-04-27T09:14:27Z</time>
      </trkpt>
      <trkpt lat="45.16109" lon="4.44746">
        <ele>1134</ele>
        <time>2021-04-27T09:14:28Z</time>
      </trkpt>
      <trkpt lat="45.16104" lon="4.44743">
        <ele>1134</ele>
        <time>2021-04-27T09:14:29Z</time>
      </trkpt>
      <trkpt lat="45.161" lon="4.4474">
        <ele>1135</ele>
        <time>2021-04-27T09:14:30Z</time>
      </trkpt>
      <trkpt lat="45.16096" lon="4.44738">
        <ele>1135</ele>
        <time>2021-04-27T09:14:31Z</time>
      </trkpt>
      <trkpt lat="45.16092" lon="4.44737">
        <ele>1135</ele>
        <time>2021-04-27T09:14:32Z</time>
      </trkpt>
      <trkpt lat="45.16087" lon="4.44735">
        <ele>1135</ele>
        <time>2021-04-27T09:14:33Z</time>
      </trkpt>
      <trkpt lat="45.16084" lon="4.44734">
        <ele>1135</ele>
        <time>2021-04-27T09:14:34Z</time>
      </trkpt>
      <trkpt lat="45.16079" lon="4.44732">
        <ele>1135</ele>
        <time>2021-04-27T09:14:35Z</time>
      </trkpt>
      <trkpt lat="45.16076" lon="4.4473">
        <ele>1136</ele>
        <time>2021-04-27T09:14:36Z</time>
      </trkpt>
      <trkpt lat="45.16073" lon="4.44728">
        <ele>1136</ele>
        <time>2021-04-27T09:14:37Z</time>
      </trkpt>
      <trkpt lat="45.1607" lon="4.44726">
        <ele>1135</ele>
        <time>2021-04-27T09:14:38Z</time>
      </trkpt>
      <trkpt lat="45.16067" lon="4.44724">
        <ele>1135</ele>
        <time>2021-04-27T09:14:39Z</time>
      </trkpt>
      <trkpt lat="45.16064" lon="4.44722">
        <ele>1135</ele>
        <time>2021-04-27T09:14:40Z</time>
      </trkpt>
      <trkpt lat="45.16062" lon="4.4472">
        <ele>1136</ele>
        <time>2021-04-27T09:14:41Z</time>
      </trkpt>
      <trkpt lat="45.1606" lon="4.44717">
        <ele>1136</ele>
        <time>2021-04-27T09:14:42Z</time>
      </trkpt>
      <trkpt lat="45.16059" lon="4.44714">
        <ele>1135</ele>
        <time>2021-04-27T09:14:43Z</time>
      </trkpt>
      <trkpt lat="45.16059" lon="4.44712">
        <ele>1135</ele>
        <time>2021-04-27T09:14:46Z</time>
      </trkpt>
      <trkpt lat="45.16061" lon="4.44709">
        <ele>1135</ele>
        <time>2021-04-27T09:14:49Z</time>
      </trkpt>
      <trkpt lat="45.16061" lon="4.4471">
        <ele>1135</ele>
        <time>2021-04-27T09:14:53Z</time>
      </trkpt>
      <trkpt lat="45.16061" lon="4.44706">
        <ele>1134</ele>
        <time>2021-04-27T09:16:02Z</time>
      </trkpt>
      <trkpt lat="45.16062" lon="4.44703">
        <ele>1134</ele>
        <time>2021-04-27T09:16:03Z</time>
      </trkpt>
      <trkpt lat="45.16063" lon="4.44701">
        <ele>1135</ele>
        <time>2021-04-27T09:16:06Z</time>
      </trkpt>
      <trkpt lat="45.16064" lon="4.44699">
        <ele>1135</ele>
        <time>2021-04-27T09:16:09Z</time>
      </trkpt>
      <trkpt lat="45.16064" lon="4.44696">
        <ele>1135</ele>
        <time>2021-04-27T09:16:11Z</time>
      </trkpt>
      <trkpt lat="45.16064" lon="4.44693">
        <ele>1135</ele>
        <time>2021-04-27T09:16:13Z</time>
      </trkpt>
      <trkpt lat="45.16064" lon="4.4469">
        <ele>1135</ele>
        <time>2021-04-27T09:16:15Z</time>
      </trkpt>
      <trkpt lat="45.16064" lon="4.44684">
        <ele>1135</ele>
        <time>2021-04-27T09:16:17Z</time>
      </trkpt>
      <trkpt lat="45.16063" lon="4.44681">
        <ele>1135</ele>
        <time>2021-04-27T09:16:18Z</time>
      </trkpt>
      <trkpt lat="45.16063" lon="4.44678">
        <ele>1135</ele>
        <time>2021-04-27T09:16:19Z</time>
      </trkpt>
      <trkpt lat="45.16063" lon="4.44674">
        <ele>1135</ele>
        <time>2021-04-27T09:16:20Z</time>
      </trkpt>
      <trkpt lat="45.16062" lon="4.4467">
        <ele>1135</ele>
        <time>2021-04-27T09:16:21Z</time>
      </trkpt>
      <trkpt lat="45.16061" lon="4.44666">
        <ele>1135</ele>
        <time>2021-04-27T09:16:22Z</time>
      </trkpt>
      <trkpt lat="45.1606" lon="4.44662">
        <ele>1135</ele>
        <time>2021-04-27T09:16:23Z</time>
      </trkpt>
      <trkpt lat="45.16059" lon="4.44658">
        <ele>1135</ele>
        <time>2021-04-27T09:16:24Z</time>
      </trkpt>
      <trkpt lat="45.16058" lon="4.44654">
        <ele>1135</ele>
        <time>2021-04-27T09:16:25Z</time>
      </trkpt>
      <trkpt lat="45.16057" lon="4.4465">
        <ele>1135</ele>
        <time>2021-04-27T09:16:26Z</time>
      </trkpt>
      <trkpt lat="45.16057" lon="4.44646">
        <ele>1135</ele>
        <time>2021-04-27T09:16:27Z</time>
      </trkpt>
      <trkpt lat="45.16056" lon="4.44642">
        <ele>1135</ele>
        <time>2021-04-27T09:16:28Z</time>
      </trkpt>
      <trkpt lat="45.16055" lon="4.44637">
        <ele>1135</ele>
        <time>2021-04-27T09:16:29Z</time>
      </trkpt>
      <trkpt lat="45.16054" lon="4.44633">
        <ele>1135</ele>
        <time>2021-04-27T09:16:30Z</time>
      </trkpt>
      <trkpt lat="45.16053" lon="4.44628">
        <ele>1135</ele>
        <time>2021-04-27T09:16:31Z</time>
      </trkpt>
      <trkpt lat="45.16052" lon="4.44623">
        <ele>1135</ele>
        <time>2021-04-27T09:16:32Z</time>
      </trkpt>
      <trkpt lat="45.16051" lon="4.44618">
        <ele>1135</ele>
        <time>2021-04-27T09:16:33Z</time>
      </trkpt>
      <trkpt lat="45.1605" lon="4.44613">
        <ele>1135</ele>
        <time>2021-04-27T09:16:34Z</time>
      </trkpt>
      <trkpt lat="45.16049" lon="4.44608">
        <ele>1135</ele>
        <time>2021-04-27T09:16:35Z</time>
      </trkpt>
      <trkpt lat="45.16048" lon="4.44603">
        <ele>1135</ele>
        <time>2021-04-27T09:16:36Z</time>
      </trkpt>
      <trkpt lat="45.16047" lon="4.44598">
        <ele>1135</ele>
        <time>2021-04-27T09:16:37Z</time>
      </trkpt>
      <trkpt lat="45.16046" lon="4.44592">
        <ele>1135</ele>
        <time>2021-04-27T09:16:38Z</time>
      </trkpt>
      <trkpt lat="45.16046" lon="4.44587">
        <ele>1135</ele>
        <time>2021-04-27T09:16:39Z</time>
      </trkpt>
      <trkpt lat="45.16045" lon="4.44582">
        <ele>1135</ele>
        <time>2021-04-27T09:16:40Z</time>
      </trkpt>
      <trkpt lat="45.16045" lon="4.44576">
        <ele>1135</ele>
        <time>2021-04-27T09:16:41Z</time>
      </trkpt>
      <trkpt lat="45.16044" lon="4.44571">
        <ele>1135</ele>
        <time>2021-04-27T09:16:42Z</time>
      </trkpt>
      <trkpt lat="45.16044" lon="4.44565">
        <ele>1136</ele>
        <time>2021-04-27T09:16:43Z</time>
      </trkpt>
      <trkpt lat="45.16043" lon="4.4456">
        <ele>1136</ele>
        <time>2021-04-27T09:16:44Z</time>
      </trkpt>
      <trkpt lat="45.16043" lon="4.44554">
        <ele>1136</ele>
        <time>2021-04-27T09:16:45Z</time>
      </trkpt>
      <trkpt lat="45.16042" lon="4.44549">
        <ele>1136</ele>
        <time>2021-04-27T09:16:46Z</time>
      </trkpt>
      <trkpt lat="45.16042" lon="4.44543">
        <ele>1136</ele>
        <time>2021-04-27T09:16:47Z</time>
      </trkpt>
      <trkpt lat="45.16041" lon="4.44538">
        <ele>1136</ele>
        <time>2021-04-27T09:16:48Z</time>
      </trkpt>
      <trkpt lat="45.16041" lon="4.44532">
        <ele>1136</ele>
        <time>2021-04-27T09:16:49Z</time>
      </trkpt>
      <trkpt lat="45.1604" lon="4.44527">
        <ele>1136</ele>
        <time>2021-04-27T09:16:50Z</time>
      </trkpt>
      <trkpt lat="45.16039" lon="4.44521">
        <ele>1136</ele>
        <time>2021-04-27T09:16:51Z</time>
      </trkpt>
      <trkpt lat="45.16039" lon="4.44516">
        <ele>1136</ele>
        <time>2021-04-27T09:16:52Z</time>
      </trkpt>
      <trkpt lat="45.16038" lon="4.4451">
        <ele>1136</ele>
        <time>2021-04-27T09:16:53Z</time>
      </trkpt>
      <trkpt lat="45.16038" lon="4.44505">
        <ele>1136</ele>
        <time>2021-04-27T09:16:54Z</time>
      </trkpt>
      <trkpt lat="45.16037" lon="4.44499">
        <ele>1136</ele>
        <time>2021-04-27T09:16:55Z</time>
      </trkpt>
      <trkpt lat="45.16036" lon="4.44493">
        <ele>1136</ele>
        <time>2021-04-27T09:16:56Z</time>
      </trkpt>
      <trkpt lat="45.16035" lon="4.44487">
        <ele>1137</ele>
        <time>2021-04-27T09:16:57Z</time>
      </trkpt>
      <trkpt lat="45.16035" lon="4.44481">
        <ele>1137</ele>
        <time>2021-04-27T09:16:58Z</time>
      </trkpt>
      <trkpt lat="45.16034" lon="4.44475">
        <ele>1137</ele>
        <time>2021-04-27T09:16:59Z</time>
      </trkpt>
      <trkpt lat="45.16034" lon="4.44469">
        <ele>1137</ele>
        <time>2021-04-27T09:17:00Z</time>
      </trkpt>
      <trkpt lat="45.16033" lon="4.44462">
        <ele>1137</ele>
        <time>2021-04-27T09:17:01Z</time>
      </trkpt>
      <trkpt lat="45.16033" lon="4.44456">
        <ele>1137</ele>
        <time>2021-04-27T09:17:02Z</time>
      </trkpt>
      <trkpt lat="45.16033" lon="4.44451">
        <ele>1137</ele>
        <time>2021-04-27T09:17:03Z</time>
      </trkpt>
      <trkpt lat="45.16033" lon="4.44445">
        <ele>1137</ele>
        <time>2021-04-27T09:17:04Z</time>
      </trkpt>
      <trkpt lat="45.16033" lon="4.44439">
        <ele>1137</ele>
        <time>2021-04-27T09:17:05Z</time>
      </trkpt>
      <trkpt lat="45.16033" lon="4.44431">
        <ele>1137</ele>
        <time>2021-04-27T09:17:06Z</time>
      </trkpt>
      <trkpt lat="45.16033" lon="4.44424">
        <ele>1137</ele>
        <time>2021-04-27T09:17:07Z</time>
      </trkpt>
      <trkpt lat="45.16033" lon="4.4441">
        <ele>1137</ele>
        <time>2021-04-27T09:17:09Z</time>
      </trkpt>
      <trkpt lat="45.16034" lon="4.44403">
        <ele>1137</ele>
        <time>2021-04-27T09:17:10Z</time>
      </trkpt>
      <trkpt lat="45.16034" lon="4.44397">
        <ele>1138</ele>
        <time>2021-04-27T09:17:11Z</time>
      </trkpt>
      <trkpt lat="45.16035" lon="4.44391">
        <ele>1137</ele>
        <time>2021-04-27T09:17:12Z</time>
      </trkpt>
      <trkpt lat="45.16034" lon="4.44385">
        <ele>1137</ele>
        <time>2021-04-27T09:17:13Z</time>
      </trkpt>
      <trkpt lat="45.16033" lon="4.44379">
        <ele>1137</ele>
        <time>2021-04-27T09:17:14Z</time>
      </trkpt>
      <trkpt lat="45.16032" lon="4.44373">
        <ele>1137</ele>
        <time>2021-04-27T09:17:15Z</time>
      </trkpt>
      <trkpt lat="45.16032" lon="4.44367">
        <ele>1137</ele>
        <time>2021-04-27T09:17:16Z</time>
      </trkpt>
      <trkpt lat="45.16033" lon="4.44361">
        <ele>1137</ele>
        <time>2021-04-27T09:17:17Z</time>
      </trkpt>
      <trkpt lat="45.16035" lon="4.44356">
        <ele>1137</ele>
        <time>2021-04-27T09:17:18Z</time>
      </trkpt>
      <trkpt lat="45.16037" lon="4.44351">
        <ele>1137</ele>
        <time>2021-04-27T09:17:19Z</time>
      </trkpt>
      <trkpt lat="45.16039" lon="4.44345">
        <ele>1137</ele>
        <time>2021-04-27T09:17:20Z</time>
      </trkpt>
      <trkpt lat="45.16042" lon="4.4434">
        <ele>1137</ele>
        <time>2021-04-27T09:17:21Z</time>
      </trkpt>
      <trkpt lat="45.16045" lon="4.44334">
        <ele>1137</ele>
        <time>2021-04-27T09:17:22Z</time>
      </trkpt>
      <trkpt lat="45.16048" lon="4.44328">
        <ele>1137</ele>
        <time>2021-04-27T09:17:23Z</time>
      </trkpt>
      <trkpt lat="45.1605" lon="4.44322">
        <ele>1137</ele>
        <time>2021-04-27T09:17:24Z</time>
      </trkpt>
      <trkpt lat="45.16053" lon="4.44316">
        <ele>1137</ele>
        <time>2021-04-27T09:17:25Z</time>
      </trkpt>
      <trkpt lat="45.16055" lon="4.4431">
        <ele>1137</ele>
        <time>2021-04-27T09:17:26Z</time>
      </trkpt>
      <trkpt lat="45.16057" lon="4.44304">
        <ele>1137</ele>
        <time>2021-04-27T09:17:27Z</time>
      </trkpt>
      <trkpt lat="45.16059" lon="4.44297">
        <ele>1137</ele>
        <time>2021-04-27T09:17:28Z</time>
      </trkpt>
      <trkpt lat="45.16061" lon="4.44291">
        <ele>1137</ele>
        <time>2021-04-27T09:17:29Z</time>
      </trkpt>
      <trkpt lat="45.16063" lon="4.44284">
        <ele>1137</ele>
        <time>2021-04-27T09:17:30Z</time>
      </trkpt>
      <trkpt lat="45.16066" lon="4.44278">
        <ele>1137</ele>
        <time>2021-04-27T09:17:31Z</time>
      </trkpt>
      <trkpt lat="45.16069" lon="4.44271">
        <ele>1137</ele>
        <time>2021-04-27T09:17:32Z</time>
      </trkpt>
      <trkpt lat="45.16075" lon="4.44255">
        <ele>1137</ele>
        <time>2021-04-27T09:17:34Z</time>
      </trkpt>
      <trkpt lat="45.16082" lon="4.44239">
        <ele>1137</ele>
        <time>2021-04-27T09:17:36Z</time>
      </trkpt>
      <trkpt lat="45.16085" lon="4.44229">
        <ele>1137</ele>
        <time>2021-04-27T09:17:37Z</time>
      </trkpt>
      <trkpt lat="45.16088" lon="4.44219">
        <ele>1136</ele>
        <time>2021-04-27T09:17:38Z</time>
      </trkpt>
      <trkpt lat="45.16091" lon="4.44208">
        <ele>1136</ele>
        <time>2021-04-27T09:17:39Z</time>
      </trkpt>
      <trkpt lat="45.16094" lon="4.44198">
        <ele>1136</ele>
        <time>2021-04-27T09:17:40Z</time>
      </trkpt>
      <trkpt lat="45.16097" lon="4.44188">
        <ele>1136</ele>
        <time>2021-04-27T09:17:41Z</time>
      </trkpt>
      <trkpt lat="45.16105" lon="4.4417">
        <ele>1136</ele>
        <time>2021-04-27T09:17:43Z</time>
      </trkpt>
      <trkpt lat="45.16113" lon="4.44152">
        <ele>1136</ele>
        <time>2021-04-27T09:17:45Z</time>
      </trkpt>
      <trkpt lat="45.16123" lon="4.44133">
        <ele>1136</ele>
        <time>2021-04-27T09:17:47Z</time>
      </trkpt>
      <trkpt lat="45.16129" lon="4.44122">
        <ele>1136</ele>
        <time>2021-04-27T09:17:48Z</time>
      </trkpt>
      <trkpt lat="45.16139" lon="4.44101">
        <ele>1136</ele>
        <time>2021-04-27T09:17:50Z</time>
      </trkpt>
      <trkpt lat="45.16144" lon="4.4409">
        <ele>1136</ele>
        <time>2021-04-27T09:17:51Z</time>
      </trkpt>
      <trkpt lat="45.16149" lon="4.44079">
        <ele>1135</ele>
        <time>2021-04-27T09:17:52Z</time>
      </trkpt>
      <trkpt lat="45.16158" lon="4.44059">
        <ele>1135</ele>
        <time>2021-04-27T09:17:54Z</time>
      </trkpt>
      <trkpt lat="45.16164" lon="4.44048">
        <ele>1135</ele>
        <time>2021-04-27T09:17:55Z</time>
      </trkpt>
      <trkpt lat="45.16174" lon="4.4403">
        <ele>1134</ele>
        <time>2021-04-27T09:17:57Z</time>
      </trkpt>
      <trkpt lat="45.16186" lon="4.44013">
        <ele>1134</ele>
        <time>2021-04-27T09:17:59Z</time>
      </trkpt>
      <trkpt lat="45.16197" lon="4.43996">
        <ele>1133</ele>
        <time>2021-04-27T09:18:01Z</time>
      </trkpt>
      <trkpt lat="45.1621" lon="4.43979">
        <ele>1133</ele>
        <time>2021-04-27T09:18:03Z</time>
      </trkpt>
      <trkpt lat="45.16221" lon="4.43964">
        <ele>1132</ele>
        <time>2021-04-27T09:18:05Z</time>
      </trkpt>
      <trkpt lat="45.1623" lon="4.43951">
        <ele>1132</ele>
        <time>2021-04-27T09:18:07Z</time>
      </trkpt>
      <trkpt lat="45.16241" lon="4.43937">
        <ele>1131</ele>
        <time>2021-04-27T09:18:09Z</time>
      </trkpt>
      <trkpt lat="45.1625" lon="4.43926">
        <ele>1131</ele>
        <time>2021-04-27T09:18:11Z</time>
      </trkpt>
      <trkpt lat="45.1626" lon="4.43911">
        <ele>1130</ele>
        <time>2021-04-27T09:18:13Z</time>
      </trkpt>
      <trkpt lat="45.16269" lon="4.43898">
        <ele>1130</ele>
        <time>2021-04-27T09:18:15Z</time>
      </trkpt>
      <trkpt lat="45.16276" lon="4.43884">
        <ele>1129</ele>
        <time>2021-04-27T09:18:17Z</time>
      </trkpt>
      <trkpt lat="45.16285" lon="4.4387">
        <ele>1128</ele>
        <time>2021-04-27T09:18:19Z</time>
      </trkpt>
      <trkpt lat="45.16295" lon="4.43855">
        <ele>1127</ele>
        <time>2021-04-27T09:18:21Z</time>
      </trkpt>
      <trkpt lat="45.16303" lon="4.43838">
        <ele>1127</ele>
        <time>2021-04-27T09:18:23Z</time>
      </trkpt>
      <trkpt lat="45.16313" lon="4.43822">
        <ele>1126</ele>
        <time>2021-04-27T09:18:25Z</time>
      </trkpt>
      <trkpt lat="45.16323" lon="4.43806">
        <ele>1125</ele>
        <time>2021-04-27T09:18:27Z</time>
      </trkpt>
      <trkpt lat="45.16331" lon="4.43793">
        <ele>1125</ele>
        <time>2021-04-27T09:18:29Z</time>
      </trkpt>
      <trkpt lat="45.16341" lon="4.43781">
        <ele>1124</ele>
        <time>2021-04-27T09:18:31Z</time>
      </trkpt>
      <trkpt lat="45.16353" lon="4.43764">
        <ele>1124</ele>
        <time>2021-04-27T09:18:33Z</time>
      </trkpt>
      <trkpt lat="45.16359" lon="4.43754">
        <ele>1124</ele>
        <time>2021-04-27T09:18:34Z</time>
      </trkpt>
      <trkpt lat="45.16365" lon="4.43743">
        <ele>1124</ele>
        <time>2021-04-27T09:18:35Z</time>
      </trkpt>
      <trkpt lat="45.1637" lon="4.43731">
        <ele>1124</ele>
        <time>2021-04-27T09:18:36Z</time>
      </trkpt>
      <trkpt lat="45.16376" lon="4.43711">
        <ele>1123</ele>
        <time>2021-04-27T09:18:38Z</time>
      </trkpt>
      <trkpt lat="45.16383" lon="4.4369">
        <ele>1122</ele>
        <time>2021-04-27T09:18:40Z</time>
      </trkpt>
      <trkpt lat="45.16385" lon="4.43668">
        <ele>1121</ele>
        <time>2021-04-27T09:18:42Z</time>
      </trkpt>
      <trkpt lat="45.16386" lon="4.43645">
        <ele>1120</ele>
        <time>2021-04-27T09:18:44Z</time>
      </trkpt>
      <trkpt lat="45.16386" lon="4.43623">
        <ele>1120</ele>
        <time>2021-04-27T09:18:46Z</time>
      </trkpt>
      <trkpt lat="45.16383" lon="4.43602">
        <ele>1119</ele>
        <time>2021-04-27T09:18:48Z</time>
      </trkpt>
      <trkpt lat="45.16381" lon="4.43578">
        <ele>1118</ele>
        <time>2021-04-27T09:18:50Z</time>
      </trkpt>
      <trkpt lat="45.1638" lon="4.43552">
        <ele>1116</ele>
        <time>2021-04-27T09:18:52Z</time>
      </trkpt>
      <trkpt lat="45.16381" lon="4.43537">
        <ele>1116</ele>
        <time>2021-04-27T09:18:53Z</time>
      </trkpt>
      <trkpt lat="45.16382" lon="4.43513">
        <ele>1114</ele>
        <time>2021-04-27T09:18:55Z</time>
      </trkpt>
      <trkpt lat="45.16376" lon="4.43497">
        <ele>1113</ele>
        <time>2021-04-27T09:18:57Z</time>
      </trkpt>
      <trkpt lat="45.16373" lon="4.4349">
        <ele>1112</ele>
        <time>2021-04-27T09:18:58Z</time>
      </trkpt>
      <trkpt lat="45.16372" lon="4.43484">
        <ele>1112</ele>
        <time>2021-04-27T09:18:59Z</time>
      </trkpt>
      <trkpt lat="45.16371" lon="4.43479">
        <ele>1111</ele>
        <time>2021-04-27T09:19:00Z</time>
      </trkpt>
      <trkpt lat="45.1637" lon="4.43475">
        <ele>1111</ele>
        <time>2021-04-27T09:19:01Z</time>
      </trkpt>
      <trkpt lat="45.1637" lon="4.43471">
        <ele>1110</ele>
        <time>2021-04-27T09:19:02Z</time>
      </trkpt>
      <trkpt lat="45.1637" lon="4.43466">
        <ele>1110</ele>
        <time>2021-04-27T09:19:03Z</time>
      </trkpt>
      <trkpt lat="45.16369" lon="4.43463">
        <ele>1110</ele>
        <time>2021-04-27T09:19:04Z</time>
      </trkpt>
      <trkpt lat="45.16368" lon="4.4346">
        <ele>1110</ele>
        <time>2021-04-27T09:19:05Z</time>
      </trkpt>
      <trkpt lat="45.16367" lon="4.43457">
        <ele>1110</ele>
        <time>2021-04-27T09:19:06Z</time>
      </trkpt>
      <trkpt lat="45.16366" lon="4.43454">
        <ele>1109</ele>
        <time>2021-04-27T09:19:07Z</time>
      </trkpt>
      <trkpt lat="45.16365" lon="4.43452">
        <ele>1109</ele>
        <time>2021-04-27T09:19:08Z</time>
      </trkpt>
      <trkpt lat="45.16364" lon="4.4345">
        <ele>1108</ele>
        <time>2021-04-27T09:19:09Z</time>
      </trkpt>
      <trkpt lat="45.16362" lon="4.43448">
        <ele>1108</ele>
        <time>2021-04-27T09:19:10Z</time>
      </trkpt>
      <trkpt lat="45.1636" lon="4.43446">
        <ele>1107</ele>
        <time>2021-04-27T09:19:11Z</time>
      </trkpt>
      <trkpt lat="45.16359" lon="4.43445">
        <ele>1107</ele>
        <time>2021-04-27T09:19:12Z</time>
      </trkpt>
      <trkpt lat="45.16357" lon="4.43444">
        <ele>1106</ele>
        <time>2021-04-27T09:19:13Z</time>
      </trkpt>
      <trkpt lat="45.16355" lon="4.43443">
        <ele>1105</ele>
        <time>2021-04-27T09:19:14Z</time>
      </trkpt>
      <trkpt lat="45.16353" lon="4.43442">
        <ele>1105</ele>
        <time>2021-04-27T09:19:15Z</time>
      </trkpt>
      <trkpt lat="45.16351" lon="4.43441">
        <ele>1104</ele>
        <time>2021-04-27T09:19:16Z</time>
      </trkpt>
      <trkpt lat="45.16348" lon="4.43441">
        <ele>1103</ele>
        <time>2021-04-27T09:19:17Z</time>
      </trkpt>
      <trkpt lat="45.16345" lon="4.43441">
        <ele>1103</ele>
        <time>2021-04-27T09:19:18Z</time>
      </trkpt>
      <trkpt lat="45.16343" lon="4.4344">
        <ele>1103</ele>
        <time>2021-04-27T09:19:19Z</time>
      </trkpt>
      <trkpt lat="45.1634" lon="4.43441">
        <ele>1102</ele>
        <time>2021-04-27T09:19:20Z</time>
      </trkpt>
      <trkpt lat="45.16337" lon="4.43441">
        <ele>1102</ele>
        <time>2021-04-27T09:19:21Z</time>
      </trkpt>
      <trkpt lat="45.16334" lon="4.43441">
        <ele>1102</ele>
        <time>2021-04-27T09:19:22Z</time>
      </trkpt>
      <trkpt lat="45.16331" lon="4.43441">
        <ele>1102</ele>
        <time>2021-04-27T09:19:23Z</time>
      </trkpt>
      <trkpt lat="45.16328" lon="4.43442">
        <ele>1102</ele>
        <time>2021-04-27T09:19:24Z</time>
      </trkpt>
      <trkpt lat="45.16324" lon="4.43443">
        <ele>1102</ele>
        <time>2021-04-27T09:19:25Z</time>
      </trkpt>
      <trkpt lat="45.1632" lon="4.43444">
        <ele>1102</ele>
        <time>2021-04-27T09:19:26Z</time>
      </trkpt>
      <trkpt lat="45.16316" lon="4.43444">
        <ele>1102</ele>
        <time>2021-04-27T09:19:27Z</time>
      </trkpt>
      <trkpt lat="45.16312" lon="4.43444">
        <ele>1102</ele>
        <time>2021-04-27T09:19:28Z</time>
      </trkpt>
      <trkpt lat="45.16308" lon="4.43445">
        <ele>1102</ele>
        <time>2021-04-27T09:19:29Z</time>
      </trkpt>
      <trkpt lat="45.16303" lon="4.43446">
        <ele>1102</ele>
        <time>2021-04-27T09:19:30Z</time>
      </trkpt>
      <trkpt lat="45.16299" lon="4.43447">
        <ele>1102</ele>
        <time>2021-04-27T09:19:31Z</time>
      </trkpt>
      <trkpt lat="45.16295" lon="4.43447">
        <ele>1102</ele>
        <time>2021-04-27T09:19:32Z</time>
      </trkpt>
      <trkpt lat="45.16291" lon="4.43448">
        <ele>1102</ele>
        <time>2021-04-27T09:19:33Z</time>
      </trkpt>
      <trkpt lat="45.16286" lon="4.43449">
        <ele>1102</ele>
        <time>2021-04-27T09:19:34Z</time>
      </trkpt>
      <trkpt lat="45.16282" lon="4.43451">
        <ele>1102</ele>
        <time>2021-04-27T09:19:35Z</time>
      </trkpt>
      <trkpt lat="45.16271" lon="4.43454">
        <ele>1102</ele>
        <time>2021-04-27T09:19:38Z</time>
      </trkpt>
      <trkpt lat="45.16266" lon="4.43455">
        <ele>1102</ele>
        <time>2021-04-27T09:19:39Z</time>
      </trkpt>
      <trkpt lat="45.16262" lon="4.43456">
        <ele>1102</ele>
        <time>2021-04-27T09:19:40Z</time>
      </trkpt>
      <trkpt lat="45.16257" lon="4.43458">
        <ele>1102</ele>
        <time>2021-04-27T09:19:41Z</time>
      </trkpt>
      <trkpt lat="45.16248" lon="4.4346">
        <ele>1102</ele>
        <time>2021-04-27T09:19:43Z</time>
      </trkpt>
      <trkpt lat="45.16241" lon="4.43461">
        <ele>1102</ele>
        <time>2021-04-27T09:19:45Z</time>
      </trkpt>
      <trkpt lat="45.16236" lon="4.43462">
        <ele>1102</ele>
        <time>2021-04-27T09:19:46Z</time>
      </trkpt>
      <trkpt lat="45.16231" lon="4.43462">
        <ele>1101</ele>
        <time>2021-04-27T09:19:47Z</time>
      </trkpt>
      <trkpt lat="45.16226" lon="4.43463">
        <ele>1101</ele>
        <time>2021-04-27T09:19:48Z</time>
      </trkpt>
      <trkpt lat="45.16217" lon="4.43463">
        <ele>1101</ele>
        <time>2021-04-27T09:19:50Z</time>
      </trkpt>
      <trkpt lat="45.16204" lon="4.43466">
        <ele>1101</ele>
        <time>2021-04-27T09:19:53Z</time>
      </trkpt>
      <trkpt lat="45.16199" lon="4.43468">
        <ele>1101</ele>
        <time>2021-04-27T09:19:54Z</time>
      </trkpt>
      <trkpt lat="45.16188" lon="4.43471">
        <ele>1101</ele>
        <time>2021-04-27T09:19:56Z</time>
      </trkpt>
      <trkpt lat="45.16182" lon="4.43473">
        <ele>1101</ele>
        <time>2021-04-27T09:19:57Z</time>
      </trkpt>
      <trkpt lat="45.16177" lon="4.43474">
        <ele>1101</ele>
        <time>2021-04-27T09:19:58Z</time>
      </trkpt>
      <trkpt lat="45.16173" lon="4.43474">
        <ele>1101</ele>
        <time>2021-04-27T09:19:59Z</time>
      </trkpt>
      <trkpt lat="45.16168" lon="4.43475">
        <ele>1101</ele>
        <time>2021-04-27T09:20:00Z</time>
      </trkpt>
      <trkpt lat="45.16164" lon="4.43475">
        <ele>1101</ele>
        <time>2021-04-27T09:20:01Z</time>
      </trkpt>
      <trkpt lat="45.1616" lon="4.43475">
        <ele>1101</ele>
        <time>2021-04-27T09:20:02Z</time>
      </trkpt>
      <trkpt lat="45.16155" lon="4.43474">
        <ele>1101</ele>
        <time>2021-04-27T09:20:03Z</time>
      </trkpt>
      <trkpt lat="45.16144" lon="4.43473">
        <ele>1102</ele>
        <time>2021-04-27T09:20:06Z</time>
      </trkpt>
      <trkpt lat="45.16133" lon="4.43473">
        <ele>1102</ele>
        <time>2021-04-27T09:20:09Z</time>
      </trkpt>
      <trkpt lat="45.16124" lon="4.43474">
        <ele>1102</ele>
        <time>2021-04-27T09:20:11Z</time>
      </trkpt>
      <trkpt lat="45.16114" lon="4.43475">
        <ele>1102</ele>
        <time>2021-04-27T09:20:13Z</time>
      </trkpt>
      <trkpt lat="45.16104" lon="4.43475">
        <ele>1103</ele>
        <time>2021-04-27T09:20:15Z</time>
      </trkpt>
      <trkpt lat="45.16099" lon="4.43474">
        <ele>1102</ele>
        <time>2021-04-27T09:20:16Z</time>
      </trkpt>
      <trkpt lat="45.16094" lon="4.43475">
        <ele>1102</ele>
        <time>2021-04-27T09:20:17Z</time>
      </trkpt>
      <trkpt lat="45.1609" lon="4.43474">
        <ele>1102</ele>
        <time>2021-04-27T09:20:18Z</time>
      </trkpt>
      <trkpt lat="45.16085" lon="4.43473">
        <ele>1102</ele>
        <time>2021-04-27T09:20:19Z</time>
      </trkpt>
      <trkpt lat="45.1608" lon="4.43471">
        <ele>1103</ele>
        <time>2021-04-27T09:20:20Z</time>
      </trkpt>
      <trkpt lat="45.16075" lon="4.43469">
        <ele>1103</ele>
        <time>2021-04-27T09:20:21Z</time>
      </trkpt>
      <trkpt lat="45.16069" lon="4.43467">
        <ele>1103</ele>
        <time>2021-04-27T09:20:22Z</time>
      </trkpt>
      <trkpt lat="45.16065" lon="4.43464">
        <ele>1103</ele>
        <time>2021-04-27T09:20:23Z</time>
      </trkpt>
      <trkpt lat="45.16061" lon="4.43461">
        <ele>1103</ele>
        <time>2021-04-27T09:20:24Z</time>
      </trkpt>
      <trkpt lat="45.16056" lon="4.43458">
        <ele>1102</ele>
        <time>2021-04-27T09:20:25Z</time>
      </trkpt>
      <trkpt lat="45.16052" lon="4.43456">
        <ele>1102</ele>
        <time>2021-04-27T09:20:26Z</time>
      </trkpt>
      <trkpt lat="45.16048" lon="4.43454">
        <ele>1102</ele>
        <time>2021-04-27T09:20:27Z</time>
      </trkpt>
      <trkpt lat="45.16044" lon="4.43452">
        <ele>1102</ele>
        <time>2021-04-27T09:20:28Z</time>
      </trkpt>
      <trkpt lat="45.1604" lon="4.4345">
        <ele>1102</ele>
        <time>2021-04-27T09:20:29Z</time>
      </trkpt>
      <trkpt lat="45.16035" lon="4.43448">
        <ele>1102</ele>
        <time>2021-04-27T09:20:30Z</time>
      </trkpt>
      <trkpt lat="45.16031" lon="4.43446">
        <ele>1101</ele>
        <time>2021-04-27T09:20:31Z</time>
      </trkpt>
      <trkpt lat="45.16027" lon="4.43445">
        <ele>1101</ele>
        <time>2021-04-27T09:20:32Z</time>
      </trkpt>
      <trkpt lat="45.16022" lon="4.43444">
        <ele>1101</ele>
        <time>2021-04-27T09:20:33Z</time>
      </trkpt>
      <trkpt lat="45.16018" lon="4.43443">
        <ele>1101</ele>
        <time>2021-04-27T09:20:34Z</time>
      </trkpt>
      <trkpt lat="45.16014" lon="4.43442">
        <ele>1101</ele>
        <time>2021-04-27T09:20:35Z</time>
      </trkpt>
      <trkpt lat="45.16009" lon="4.43441">
        <ele>1101</ele>
        <time>2021-04-27T09:20:36Z</time>
      </trkpt>
      <trkpt lat="45.16005" lon="4.4344">
        <ele>1102</ele>
        <time>2021-04-27T09:20:37Z</time>
      </trkpt>
      <trkpt lat="45.16001" lon="4.4344">
        <ele>1102</ele>
        <time>2021-04-27T09:20:38Z</time>
      </trkpt>
      <trkpt lat="45.15997" lon="4.43439">
        <ele>1102</ele>
        <time>2021-04-27T09:20:39Z</time>
      </trkpt>
      <trkpt lat="45.15993" lon="4.43438">
        <ele>1102</ele>
        <time>2021-04-27T09:20:40Z</time>
      </trkpt>
      <trkpt lat="45.15988" lon="4.43438">
        <ele>1102</ele>
        <time>2021-04-27T09:20:41Z</time>
      </trkpt>
      <trkpt lat="45.15984" lon="4.43437">
        <ele>1102</ele>
        <time>2021-04-27T09:20:42Z</time>
      </trkpt>
      <trkpt lat="45.1598" lon="4.43436">
        <ele>1102</ele>
        <time>2021-04-27T09:20:43Z</time>
      </trkpt>
      <trkpt lat="45.15976" lon="4.43435">
        <ele>1102</ele>
        <time>2021-04-27T09:20:44Z</time>
      </trkpt>
      <trkpt lat="45.15972" lon="4.43435">
        <ele>1102</ele>
        <time>2021-04-27T09:20:45Z</time>
      </trkpt>
      <trkpt lat="45.15968" lon="4.43435">
        <ele>1102</ele>
        <time>2021-04-27T09:20:46Z</time>
      </trkpt>
      <trkpt lat="45.15964" lon="4.43435">
        <ele>1102</ele>
        <time>2021-04-27T09:20:47Z</time>
      </trkpt>
      <trkpt lat="45.1596" lon="4.43435">
        <ele>1102</ele>
        <time>2021-04-27T09:20:48Z</time>
      </trkpt>
      <trkpt lat="45.15955" lon="4.43436">
        <ele>1102</ele>
        <time>2021-04-27T09:20:49Z</time>
      </trkpt>
      <trkpt lat="45.15951" lon="4.43437">
        <ele>1102</ele>
        <time>2021-04-27T09:20:50Z</time>
      </trkpt>
      <trkpt lat="45.15947" lon="4.43438">
        <ele>1103</ele>
        <time>2021-04-27T09:20:51Z</time>
      </trkpt>
      <trkpt lat="45.15943" lon="4.43439">
        <ele>1103</ele>
        <time>2021-04-27T09:20:52Z</time>
      </trkpt>
      <trkpt lat="45.15939" lon="4.43439">
        <ele>1103</ele>
        <time>2021-04-27T09:20:53Z</time>
      </trkpt>
      <trkpt lat="45.15934" lon="4.4344">
        <ele>1104</ele>
        <time>2021-04-27T09:20:54Z</time>
      </trkpt>
      <trkpt lat="45.1593" lon="4.4344">
        <ele>1104</ele>
        <time>2021-04-27T09:20:55Z</time>
      </trkpt>
      <trkpt lat="45.15926" lon="4.43441">
        <ele>1104</ele>
        <time>2021-04-27T09:20:56Z</time>
      </trkpt>
      <trkpt lat="45.15922" lon="4.43441">
        <ele>1105</ele>
        <time>2021-04-27T09:20:57Z</time>
      </trkpt>
      <trkpt lat="45.15917" lon="4.43442">
        <ele>1105</ele>
        <time>2021-04-27T09:20:58Z</time>
      </trkpt>
      <trkpt lat="45.15913" lon="4.43442">
        <ele>1105</ele>
        <time>2021-04-27T09:20:59Z</time>
      </trkpt>
      <trkpt lat="45.15909" lon="4.43443">
        <ele>1106</ele>
        <time>2021-04-27T09:21:00Z</time>
      </trkpt>
      <trkpt lat="45.15904" lon="4.43444">
        <ele>1106</ele>
        <time>2021-04-27T09:21:01Z</time>
      </trkpt>
      <trkpt lat="45.159" lon="4.43445">
        <ele>1106</ele>
        <time>2021-04-27T09:21:02Z</time>
      </trkpt>
      <trkpt lat="45.15895" lon="4.43446">
        <ele>1106</ele>
        <time>2021-04-27T09:21:03Z</time>
      </trkpt>
      <trkpt lat="45.15891" lon="4.43447">
        <ele>1106</ele>
        <time>2021-04-27T09:21:04Z</time>
      </trkpt>
      <trkpt lat="45.15887" lon="4.43448">
        <ele>1106</ele>
        <time>2021-04-27T09:21:05Z</time>
      </trkpt>
      <trkpt lat="45.15882" lon="4.4345">
        <ele>1107</ele>
        <time>2021-04-27T09:21:06Z</time>
      </trkpt>
      <trkpt lat="45.15877" lon="4.43451">
        <ele>1107</ele>
        <time>2021-04-27T09:21:07Z</time>
      </trkpt>
      <trkpt lat="45.15873" lon="4.43453">
        <ele>1107</ele>
        <time>2021-04-27T09:21:08Z</time>
      </trkpt>
      <trkpt lat="45.15868" lon="4.43454">
        <ele>1107</ele>
        <time>2021-04-27T09:21:09Z</time>
      </trkpt>
      <trkpt lat="45.15863" lon="4.43456">
        <ele>1107</ele>
        <time>2021-04-27T09:21:10Z</time>
      </trkpt>
      <trkpt lat="45.15858" lon="4.43457">
        <ele>1108</ele>
        <time>2021-04-27T09:21:11Z</time>
      </trkpt>
      <trkpt lat="45.15853" lon="4.43458">
        <ele>1108</ele>
        <time>2021-04-27T09:21:12Z</time>
      </trkpt>
      <trkpt lat="45.15849" lon="4.4346">
        <ele>1108</ele>
        <time>2021-04-27T09:21:13Z</time>
      </trkpt>
      <trkpt lat="45.15844" lon="4.43461">
        <ele>1108</ele>
        <time>2021-04-27T09:21:14Z</time>
      </trkpt>
      <trkpt lat="45.15839" lon="4.43462">
        <ele>1108</ele>
        <time>2021-04-27T09:21:15Z</time>
      </trkpt>
      <trkpt lat="45.15834" lon="4.43464">
        <ele>1108</ele>
        <time>2021-04-27T09:21:16Z</time>
      </trkpt>
      <trkpt lat="45.15829" lon="4.43465">
        <ele>1109</ele>
        <time>2021-04-27T09:21:17Z</time>
      </trkpt>
      <trkpt lat="45.15825" lon="4.43466">
        <ele>1109</ele>
        <time>2021-04-27T09:21:18Z</time>
      </trkpt>
      <trkpt lat="45.1582" lon="4.43467">
        <ele>1109</ele>
        <time>2021-04-27T09:21:19Z</time>
      </trkpt>
      <trkpt lat="45.15816" lon="4.43468">
        <ele>1109</ele>
        <time>2021-04-27T09:21:20Z</time>
      </trkpt>
      <trkpt lat="45.15811" lon="4.43469">
        <ele>1109</ele>
        <time>2021-04-27T09:21:21Z</time>
      </trkpt>
      <trkpt lat="45.15806" lon="4.4347">
        <ele>1110</ele>
        <time>2021-04-27T09:21:22Z</time>
      </trkpt>
      <trkpt lat="45.15802" lon="4.43471">
        <ele>1110</ele>
        <time>2021-04-27T09:21:23Z</time>
      </trkpt>
      <trkpt lat="45.15797" lon="4.43472">
        <ele>1110</ele>
        <time>2021-04-27T09:21:24Z</time>
      </trkpt>
      <trkpt lat="45.15793" lon="4.43474">
        <ele>1110</ele>
        <time>2021-04-27T09:21:25Z</time>
      </trkpt>
      <trkpt lat="45.15788" lon="4.43476">
        <ele>1111</ele>
        <time>2021-04-27T09:21:26Z</time>
      </trkpt>
      <trkpt lat="45.15784" lon="4.43477">
        <ele>1111</ele>
        <time>2021-04-27T09:21:27Z</time>
      </trkpt>
      <trkpt lat="45.1578" lon="4.43479">
        <ele>1111</ele>
        <time>2021-04-27T09:21:28Z</time>
      </trkpt>
      <trkpt lat="45.15776" lon="4.4348">
        <ele>1111</ele>
        <time>2021-04-27T09:21:29Z</time>
      </trkpt>
      <trkpt lat="45.15772" lon="4.43481">
        <ele>1112</ele>
        <time>2021-04-27T09:21:30Z</time>
      </trkpt>
      <trkpt lat="45.15767" lon="4.43481">
        <ele>1112</ele>
        <time>2021-04-27T09:21:31Z</time>
      </trkpt>
      <trkpt lat="45.15763" lon="4.43482">
        <ele>1112</ele>
        <time>2021-04-27T09:21:32Z</time>
      </trkpt>
      <trkpt lat="45.15758" lon="4.43482">
        <ele>1112</ele>
        <time>2021-04-27T09:21:33Z</time>
      </trkpt>
      <trkpt lat="45.15754" lon="4.43482">
        <ele>1112</ele>
        <time>2021-04-27T09:21:34Z</time>
      </trkpt>
      <trkpt lat="45.15749" lon="4.43482">
        <ele>1112</ele>
        <time>2021-04-27T09:21:35Z</time>
      </trkpt>
      <trkpt lat="45.15745" lon="4.43482">
        <ele>1112</ele>
        <time>2021-04-27T09:21:36Z</time>
      </trkpt>
      <trkpt lat="45.1574" lon="4.43482">
        <ele>1112</ele>
        <time>2021-04-27T09:21:37Z</time>
      </trkpt>
      <trkpt lat="45.15735" lon="4.43482">
        <ele>1112</ele>
        <time>2021-04-27T09:21:38Z</time>
      </trkpt>
      <trkpt lat="45.1573" lon="4.43482">
        <ele>1111</ele>
        <time>2021-04-27T09:21:39Z</time>
      </trkpt>
      <trkpt lat="45.15725" lon="4.43482">
        <ele>1111</ele>
        <time>2021-04-27T09:21:40Z</time>
      </trkpt>
      <trkpt lat="45.1572" lon="4.43483">
        <ele>1111</ele>
        <time>2021-04-27T09:21:41Z</time>
      </trkpt>
      <trkpt lat="45.15715" lon="4.43483">
        <ele>1111</ele>
        <time>2021-04-27T09:21:42Z</time>
      </trkpt>
      <trkpt lat="45.1571" lon="4.43484">
        <ele>1111</ele>
        <time>2021-04-27T09:21:43Z</time>
      </trkpt>
      <trkpt lat="45.15705" lon="4.43485">
        <ele>1111</ele>
        <time>2021-04-27T09:21:44Z</time>
      </trkpt>
      <trkpt lat="45.157" lon="4.43486">
        <ele>1111</ele>
        <time>2021-04-27T09:21:45Z</time>
      </trkpt>
      <trkpt lat="45.15696" lon="4.43488">
        <ele>1111</ele>
        <time>2021-04-27T09:21:46Z</time>
      </trkpt>
      <trkpt lat="45.15692" lon="4.4349">
        <ele>1111</ele>
        <time>2021-04-27T09:21:47Z</time>
      </trkpt>
      <trkpt lat="45.15688" lon="4.43492">
        <ele>1111</ele>
        <time>2021-04-27T09:21:48Z</time>
      </trkpt>
      <trkpt lat="45.15685" lon="4.43494">
        <ele>1111</ele>
        <time>2021-04-27T09:21:49Z</time>
      </trkpt>
      <trkpt lat="45.15682" lon="4.43497">
        <ele>1111</ele>
        <time>2021-04-27T09:21:50Z</time>
      </trkpt>
      <trkpt lat="45.15678" lon="4.43501">
        <ele>1111</ele>
        <time>2021-04-27T09:21:51Z</time>
      </trkpt>
      <trkpt lat="45.15675" lon="4.43505">
        <ele>1110</ele>
        <time>2021-04-27T09:21:52Z</time>
      </trkpt>
      <trkpt lat="45.15672" lon="4.4351">
        <ele>1110</ele>
        <time>2021-04-27T09:21:53Z</time>
      </trkpt>
      <trkpt lat="45.1567" lon="4.43515">
        <ele>1110</ele>
        <time>2021-04-27T09:21:54Z</time>
      </trkpt>
      <trkpt lat="45.15667" lon="4.4352">
        <ele>1110</ele>
        <time>2021-04-27T09:21:55Z</time>
      </trkpt>
      <trkpt lat="45.15665" lon="4.43525">
        <ele>1110</ele>
        <time>2021-04-27T09:21:56Z</time>
      </trkpt>
      <trkpt lat="45.15663" lon="4.43531">
        <ele>1109</ele>
        <time>2021-04-27T09:21:57Z</time>
      </trkpt>
      <trkpt lat="45.1566" lon="4.43536">
        <ele>1109</ele>
        <time>2021-04-27T09:21:58Z</time>
      </trkpt>
      <trkpt lat="45.15657" lon="4.43541">
        <ele>1109</ele>
        <time>2021-04-27T09:21:59Z</time>
      </trkpt>
      <trkpt lat="45.15655" lon="4.43546">
        <ele>1109</ele>
        <time>2021-04-27T09:22:00Z</time>
      </trkpt>
      <trkpt lat="45.15652" lon="4.4355">
        <ele>1109</ele>
        <time>2021-04-27T09:22:01Z</time>
      </trkpt>
      <trkpt lat="45.15649" lon="4.43554">
        <ele>1108</ele>
        <time>2021-04-27T09:22:02Z</time>
      </trkpt>
      <trkpt lat="45.15646" lon="4.43558">
        <ele>1108</ele>
        <time>2021-04-27T09:22:03Z</time>
      </trkpt>
      <trkpt lat="45.15642" lon="4.43561">
        <ele>1108</ele>
        <time>2021-04-27T09:22:04Z</time>
      </trkpt>
      <trkpt lat="45.15638" lon="4.43565">
        <ele>1108</ele>
        <time>2021-04-27T09:22:05Z</time>
      </trkpt>
      <trkpt lat="45.15633" lon="4.43568">
        <ele>1107</ele>
        <time>2021-04-27T09:22:06Z</time>
      </trkpt>
      <trkpt lat="45.15628" lon="4.43571">
        <ele>1107</ele>
        <time>2021-04-27T09:22:07Z</time>
      </trkpt>
      <trkpt lat="45.15624" lon="4.43573">
        <ele>1107</ele>
        <time>2021-04-27T09:22:08Z</time>
      </trkpt>
      <trkpt lat="45.15619" lon="4.43576">
        <ele>1107</ele>
        <time>2021-04-27T09:22:09Z</time>
      </trkpt>
      <trkpt lat="45.15614" lon="4.43578">
        <ele>1107</ele>
        <time>2021-04-27T09:22:10Z</time>
      </trkpt>
      <trkpt lat="45.15609" lon="4.43579">
        <ele>1107</ele>
        <time>2021-04-27T09:22:11Z</time>
      </trkpt>
      <trkpt lat="45.15603" lon="4.4358">
        <ele>1106</ele>
        <time>2021-04-27T09:22:12Z</time>
      </trkpt>
      <trkpt lat="45.15598" lon="4.43581">
        <ele>1106</ele>
        <time>2021-04-27T09:22:13Z</time>
      </trkpt>
      <trkpt lat="45.15592" lon="4.43582">
        <ele>1106</ele>
        <time>2021-04-27T09:22:14Z</time>
      </trkpt>
      <trkpt lat="45.15586" lon="4.43582">
        <ele>1106</ele>
        <time>2021-04-27T09:22:15Z</time>
      </trkpt>
      <trkpt lat="45.1558" lon="4.43582">
        <ele>1105</ele>
        <time>2021-04-27T09:22:16Z</time>
      </trkpt>
      <trkpt lat="45.15573" lon="4.43583">
        <ele>1105</ele>
        <time>2021-04-27T09:22:17Z</time>
      </trkpt>
      <trkpt lat="45.15566" lon="4.43583">
        <ele>1105</ele>
        <time>2021-04-27T09:22:18Z</time>
      </trkpt>
      <trkpt lat="45.15558" lon="4.43582">
        <ele>1105</ele>
        <time>2021-04-27T09:22:19Z</time>
      </trkpt>
      <trkpt lat="45.1555" lon="4.43581">
        <ele>1104</ele>
        <time>2021-04-27T09:22:20Z</time>
      </trkpt>
      <trkpt lat="45.15542" lon="4.43579">
        <ele>1104</ele>
        <time>2021-04-27T09:22:21Z</time>
      </trkpt>
      <trkpt lat="45.15533" lon="4.43577">
        <ele>1103</ele>
        <time>2021-04-27T09:22:22Z</time>
      </trkpt>
      <trkpt lat="45.15524" lon="4.43573">
        <ele>1103</ele>
        <time>2021-04-27T09:22:23Z</time>
      </trkpt>
      <trkpt lat="45.15515" lon="4.4357">
        <ele>1102</ele>
        <time>2021-04-27T09:22:24Z</time>
      </trkpt>
      <trkpt lat="45.15505" lon="4.43567">
        <ele>1101</ele>
        <time>2021-04-27T09:22:25Z</time>
      </trkpt>
      <trkpt lat="45.15495" lon="4.43563">
        <ele>1101</ele>
        <time>2021-04-27T09:22:26Z</time>
      </trkpt>
      <trkpt lat="45.15484" lon="4.43561">
        <ele>1100</ele>
        <time>2021-04-27T09:22:27Z</time>
      </trkpt>
      <trkpt lat="45.15473" lon="4.43559">
        <ele>1099</ele>
        <time>2021-04-27T09:22:28Z</time>
      </trkpt>
      <trkpt lat="45.15461" lon="4.43559">
        <ele>1098</ele>
        <time>2021-04-27T09:22:29Z</time>
      </trkpt>
      <trkpt lat="45.1545" lon="4.4356">
        <ele>1097</ele>
        <time>2021-04-27T09:22:30Z</time>
      </trkpt>
      <trkpt lat="45.15438" lon="4.43562">
        <ele>1097</ele>
        <time>2021-04-27T09:22:31Z</time>
      </trkpt>
      <trkpt lat="45.15425" lon="4.43566">
        <ele>1095</ele>
        <time>2021-04-27T09:22:32Z</time>
      </trkpt>
      <trkpt lat="45.15413" lon="4.43572">
        <ele>1094</ele>
        <time>2021-04-27T09:22:33Z</time>
      </trkpt>
      <trkpt lat="45.154" lon="4.43578">
        <ele>1093</ele>
        <time>2021-04-27T09:22:34Z</time>
      </trkpt>
      <trkpt lat="45.15388" lon="4.43586">
        <ele>1091</ele>
        <time>2021-04-27T09:22:35Z</time>
      </trkpt>
      <trkpt lat="45.15376" lon="4.43595">
        <ele>1089</ele>
        <time>2021-04-27T09:22:36Z</time>
      </trkpt>
      <trkpt lat="45.15364" lon="4.43605">
        <ele>1088</ele>
        <time>2021-04-27T09:22:37Z</time>
      </trkpt>
      <trkpt lat="45.15352" lon="4.43617">
        <ele>1086</ele>
        <time>2021-04-27T09:22:38Z</time>
      </trkpt>
      <trkpt lat="45.15341" lon="4.43629">
        <ele>1084</ele>
        <time>2021-04-27T09:22:39Z</time>
      </trkpt>
      <trkpt lat="45.1533" lon="4.43641">
        <ele>1082</ele>
        <time>2021-04-27T09:22:40Z</time>
      </trkpt>
      <trkpt lat="45.1532" lon="4.43651">
        <ele>1080</ele>
        <time>2021-04-27T09:22:41Z</time>
      </trkpt>
      <trkpt lat="45.1531" lon="4.4366">
        <ele>1078</ele>
        <time>2021-04-27T09:22:42Z</time>
      </trkpt>
      <trkpt lat="45.153" lon="4.43667">
        <ele>1077</ele>
        <time>2021-04-27T09:22:43Z</time>
      </trkpt>
      <trkpt lat="45.15291" lon="4.43674">
        <ele>1076</ele>
        <time>2021-04-27T09:22:44Z</time>
      </trkpt>
      <trkpt lat="45.15283" lon="4.43679">
        <ele>1075</ele>
        <time>2021-04-27T09:22:45Z</time>
      </trkpt>
      <trkpt lat="45.15277" lon="4.43681">
        <ele>1075</ele>
        <time>2021-04-27T09:22:46Z</time>
      </trkpt>
      <trkpt lat="45.15272" lon="4.43683">
        <ele>1074</ele>
        <time>2021-04-27T09:22:47Z</time>
      </trkpt>
      <trkpt lat="45.15268" lon="4.43684">
        <ele>1074</ele>
        <time>2021-04-27T09:22:48Z</time>
      </trkpt>
      <trkpt lat="45.15265" lon="4.43685">
        <ele>1074</ele>
        <time>2021-04-27T09:22:49Z</time>
      </trkpt>
      <trkpt lat="45.15261" lon="4.43686">
        <ele>1073</ele>
        <time>2021-04-27T09:22:50Z</time>
      </trkpt>
      <trkpt lat="45.15257" lon="4.43689">
        <ele>1073</ele>
        <time>2021-04-27T09:22:51Z</time>
      </trkpt>
      <trkpt lat="45.15252" lon="4.43691">
        <ele>1072</ele>
        <time>2021-04-27T09:22:52Z</time>
      </trkpt>
      <trkpt lat="45.15246" lon="4.43693">
        <ele>1071</ele>
        <time>2021-04-27T09:22:53Z</time>
      </trkpt>
      <trkpt lat="45.15239" lon="4.43694">
        <ele>1071</ele>
        <time>2021-04-27T09:22:54Z</time>
      </trkpt>
      <trkpt lat="45.15232" lon="4.43694">
        <ele>1070</ele>
        <time>2021-04-27T09:22:55Z</time>
      </trkpt>
      <trkpt lat="45.15224" lon="4.43693">
        <ele>1069</ele>
        <time>2021-04-27T09:22:56Z</time>
      </trkpt>
      <trkpt lat="45.15216" lon="4.43693">
        <ele>1068</ele>
        <time>2021-04-27T09:22:57Z</time>
      </trkpt>
      <trkpt lat="45.15208" lon="4.43697">
        <ele>1068</ele>
        <time>2021-04-27T09:22:58Z</time>
      </trkpt>
      <trkpt lat="45.15202" lon="4.43703">
        <ele>1067</ele>
        <time>2021-04-27T09:22:59Z</time>
      </trkpt>
      <trkpt lat="45.15196" lon="4.43712">
        <ele>1066</ele>
        <time>2021-04-27T09:23:00Z</time>
      </trkpt>
      <trkpt lat="45.15191" lon="4.43723">
        <ele>1065</ele>
        <time>2021-04-27T09:23:01Z</time>
      </trkpt>
      <trkpt lat="45.15186" lon="4.43734">
        <ele>1064</ele>
        <time>2021-04-27T09:23:02Z</time>
      </trkpt>
      <trkpt lat="45.15181" lon="4.43746">
        <ele>1063</ele>
        <time>2021-04-27T09:23:03Z</time>
      </trkpt>
      <trkpt lat="45.15176" lon="4.43757">
        <ele>1062</ele>
        <time>2021-04-27T09:23:04Z</time>
      </trkpt>
      <trkpt lat="45.15171" lon="4.43768">
        <ele>1062</ele>
        <time>2021-04-27T09:23:05Z</time>
      </trkpt>
      <trkpt lat="45.15166" lon="4.43779">
        <ele>1061</ele>
        <time>2021-04-27T09:23:06Z</time>
      </trkpt>
      <trkpt lat="45.15159" lon="4.43789">
        <ele>1061</ele>
        <time>2021-04-27T09:23:07Z</time>
      </trkpt>
      <trkpt lat="45.15153" lon="4.43797">
        <ele>1060</ele>
        <time>2021-04-27T09:23:08Z</time>
      </trkpt>
      <trkpt lat="45.15145" lon="4.43804">
        <ele>1059</ele>
        <time>2021-04-27T09:23:09Z</time>
      </trkpt>
      <trkpt lat="45.15137" lon="4.4381">
        <ele>1059</ele>
        <time>2021-04-27T09:23:10Z</time>
      </trkpt>
      <trkpt lat="45.15129" lon="4.43814">
        <ele>1058</ele>
        <time>2021-04-27T09:23:11Z</time>
      </trkpt>
      <trkpt lat="45.15121" lon="4.43819">
        <ele>1058</ele>
        <time>2021-04-27T09:23:12Z</time>
      </trkpt>
      <trkpt lat="45.15114" lon="4.43823">
        <ele>1057</ele>
        <time>2021-04-27T09:23:13Z</time>
      </trkpt>
      <trkpt lat="45.15105" lon="4.43827">
        <ele>1057</ele>
        <time>2021-04-27T09:23:14Z</time>
      </trkpt>
      <trkpt lat="45.15098" lon="4.4383">
        <ele>1056</ele>
        <time>2021-04-27T09:23:15Z</time>
      </trkpt>
      <trkpt lat="45.15089" lon="4.43834">
        <ele>1056</ele>
        <time>2021-04-27T09:23:16Z</time>
      </trkpt>
      <trkpt lat="45.15081" lon="4.43838">
        <ele>1056</ele>
        <time>2021-04-27T09:23:17Z</time>
      </trkpt>
      <trkpt lat="45.15072" lon="4.43842">
        <ele>1055</ele>
        <time>2021-04-27T09:23:18Z</time>
      </trkpt>
      <trkpt lat="45.15063" lon="4.43847">
        <ele>1054</ele>
        <time>2021-04-27T09:23:19Z</time>
      </trkpt>
      <trkpt lat="45.15054" lon="4.43852">
        <ele>1054</ele>
        <time>2021-04-27T09:23:20Z</time>
      </trkpt>
      <trkpt lat="45.15045" lon="4.43857">
        <ele>1053</ele>
        <time>2021-04-27T09:23:21Z</time>
      </trkpt>
      <trkpt lat="45.15037" lon="4.43863">
        <ele>1053</ele>
        <time>2021-04-27T09:23:22Z</time>
      </trkpt>
      <trkpt lat="45.15028" lon="4.4387">
        <ele>1052</ele>
        <time>2021-04-27T09:23:23Z</time>
      </trkpt>
      <trkpt lat="45.15019" lon="4.43877">
        <ele>1052</ele>
        <time>2021-04-27T09:23:24Z</time>
      </trkpt>
      <trkpt lat="45.1501" lon="4.43883">
        <ele>1051</ele>
        <time>2021-04-27T09:23:25Z</time>
      </trkpt>
      <trkpt lat="45.15001" lon="4.43888">
        <ele>1051</ele>
        <time>2021-04-27T09:23:26Z</time>
      </trkpt>
      <trkpt lat="45.14993" lon="4.43891">
        <ele>1050</ele>
        <time>2021-04-27T09:23:27Z</time>
      </trkpt>
      <trkpt lat="45.14986" lon="4.43892">
        <ele>1050</ele>
        <time>2021-04-27T09:23:28Z</time>
      </trkpt>
      <trkpt lat="45.14978" lon="4.43891">
        <ele>1049</ele>
        <time>2021-04-27T09:23:29Z</time>
      </trkpt>
      <trkpt lat="45.1497" lon="4.4389">
        <ele>1049</ele>
        <time>2021-04-27T09:23:30Z</time>
      </trkpt>
      <trkpt lat="45.14963" lon="4.43889">
        <ele>1049</ele>
        <time>2021-04-27T09:23:31Z</time>
      </trkpt>
      <trkpt lat="45.14956" lon="4.43887">
        <ele>1049</ele>
        <time>2021-04-27T09:23:32Z</time>
      </trkpt>
      <trkpt lat="45.14949" lon="4.43884">
        <ele>1049</ele>
        <time>2021-04-27T09:23:33Z</time>
      </trkpt>
      <trkpt lat="45.14944" lon="4.4388">
        <ele>1049</ele>
        <time>2021-04-27T09:23:34Z</time>
      </trkpt>
      <trkpt lat="45.14938" lon="4.43876">
        <ele>1048</ele>
        <time>2021-04-27T09:23:35Z</time>
      </trkpt>
      <trkpt lat="45.14934" lon="4.43872">
        <ele>1048</ele>
        <time>2021-04-27T09:23:36Z</time>
      </trkpt>
      <trkpt lat="45.1493" lon="4.43868">
        <ele>1048</ele>
        <time>2021-04-27T09:23:37Z</time>
      </trkpt>
      <trkpt lat="45.14927" lon="4.43865">
        <ele>1048</ele>
        <time>2021-04-27T09:23:38Z</time>
      </trkpt>
      <trkpt lat="45.14925" lon="4.43862">
        <ele>1048</ele>
        <time>2021-04-27T09:23:39Z</time>
      </trkpt>
      <trkpt lat="45.14923" lon="4.43859">
        <ele>1049</ele>
        <time>2021-04-27T09:23:40Z</time>
      </trkpt>
      <trkpt lat="45.14921" lon="4.43856">
        <ele>1049</ele>
        <time>2021-04-27T09:23:41Z</time>
      </trkpt>
      <trkpt lat="45.14919" lon="4.43854">
        <ele>1049</ele>
        <time>2021-04-27T09:23:42Z</time>
      </trkpt>
      <trkpt lat="45.14916" lon="4.43852">
        <ele>1049</ele>
        <time>2021-04-27T09:23:43Z</time>
      </trkpt>
      <trkpt lat="45.14914" lon="4.4385">
        <ele>1049</ele>
        <time>2021-04-27T09:23:44Z</time>
      </trkpt>
      <trkpt lat="45.14911" lon="4.43847">
        <ele>1049</ele>
        <time>2021-04-27T09:23:45Z</time>
      </trkpt>
      <trkpt lat="45.14909" lon="4.43844">
        <ele>1049</ele>
        <time>2021-04-27T09:23:46Z</time>
      </trkpt>
      <trkpt lat="45.14906" lon="4.43841">
        <ele>1049</ele>
        <time>2021-04-27T09:23:47Z</time>
      </trkpt>
      <trkpt lat="45.14904" lon="4.43838">
        <ele>1049</ele>
        <time>2021-04-27T09:23:48Z</time>
      </trkpt>
      <trkpt lat="45.14903" lon="4.43834">
        <ele>1049</ele>
        <time>2021-04-27T09:23:49Z</time>
      </trkpt>
      <trkpt lat="45.14901" lon="4.43831">
        <ele>1049</ele>
        <time>2021-04-27T09:23:50Z</time>
      </trkpt>
      <trkpt lat="45.149" lon="4.43827">
        <ele>1049</ele>
        <time>2021-04-27T09:23:51Z</time>
      </trkpt>
      <trkpt lat="45.14899" lon="4.43824">
        <ele>1049</ele>
        <time>2021-04-27T09:23:52Z</time>
      </trkpt>
      <trkpt lat="45.14896" lon="4.43821">
        <ele>1049</ele>
        <time>2021-04-27T09:23:53Z</time>
      </trkpt>
      <trkpt lat="45.14895" lon="4.43818">
        <ele>1050</ele>
        <time>2021-04-27T09:23:54Z</time>
      </trkpt>
      <trkpt lat="45.14893" lon="4.43815">
        <ele>1050</ele>
        <time>2021-04-27T09:23:55Z</time>
      </trkpt>
      <trkpt lat="45.14891" lon="4.43812">
        <ele>1051</ele>
        <time>2021-04-27T09:23:56Z</time>
      </trkpt>
      <trkpt lat="45.14889" lon="4.43809">
        <ele>1051</ele>
        <time>2021-04-27T09:23:57Z</time>
      </trkpt>
      <trkpt lat="45.14887" lon="4.43806">
        <ele>1051</ele>
        <time>2021-04-27T09:23:58Z</time>
      </trkpt>
      <trkpt lat="45.14882" lon="4.43798">
        <ele>1052</ele>
        <time>2021-04-27T09:24:00Z</time>
      </trkpt>
      <trkpt lat="45.1488" lon="4.43794">
        <ele>1052</ele>
        <time>2021-04-27T09:24:01Z</time>
      </trkpt>
      <trkpt lat="45.14878" lon="4.4379">
        <ele>1052</ele>
        <time>2021-04-27T09:24:02Z</time>
      </trkpt>
      <trkpt lat="45.14876" lon="4.43786">
        <ele>1053</ele>
        <time>2021-04-27T09:24:03Z</time>
      </trkpt>
      <trkpt lat="45.14874" lon="4.43782">
        <ele>1053</ele>
        <time>2021-04-27T09:24:04Z</time>
      </trkpt>
      <trkpt lat="45.14873" lon="4.43778">
        <ele>1053</ele>
        <time>2021-04-27T09:24:05Z</time>
      </trkpt>
      <trkpt lat="45.14872" lon="4.43774">
        <ele>1054</ele>
        <time>2021-04-27T09:24:06Z</time>
      </trkpt>
      <trkpt lat="45.14871" lon="4.4377">
        <ele>1054</ele>
        <time>2021-04-27T09:24:07Z</time>
      </trkpt>
      <trkpt lat="45.14866" lon="4.43757">
        <ele>1056</ele>
        <time>2021-04-27T09:24:10Z</time>
      </trkpt>
      <trkpt lat="45.14863" lon="4.43749">
        <ele>1056</ele>
        <time>2021-04-27T09:24:12Z</time>
      </trkpt>
      <trkpt lat="45.14862" lon="4.43745">
        <ele>1057</ele>
        <time>2021-04-27T09:24:13Z</time>
      </trkpt>
      <trkpt lat="45.14861" lon="4.43741">
        <ele>1057</ele>
        <time>2021-04-27T09:24:14Z</time>
      </trkpt>
      <trkpt lat="45.1486" lon="4.43737">
        <ele>1057</ele>
        <time>2021-04-27T09:24:15Z</time>
      </trkpt>
      <trkpt lat="45.14859" lon="4.43732">
        <ele>1058</ele>
        <time>2021-04-27T09:24:16Z</time>
      </trkpt>
      <trkpt lat="45.14857" lon="4.43728">
        <ele>1058</ele>
        <time>2021-04-27T09:24:17Z</time>
      </trkpt>
      <trkpt lat="45.14856" lon="4.43724">
        <ele>1059</ele>
        <time>2021-04-27T09:24:18Z</time>
      </trkpt>
      <trkpt lat="45.1485" lon="4.4371">
        <ele>1060</ele>
        <time>2021-04-27T09:24:22Z</time>
      </trkpt>
      <trkpt lat="45.14846" lon="4.43699">
        <ele>1061</ele>
        <time>2021-04-27T09:24:25Z</time>
      </trkpt>
      <trkpt lat="45.14841" lon="4.43686">
        <ele>1062</ele>
        <time>2021-04-27T09:24:29Z</time>
      </trkpt>
      <trkpt lat="45.14831" lon="4.43675">
        <ele>1063</ele>
        <time>2021-04-27T09:24:33Z</time>
      </trkpt>
      <trkpt lat="45.14821" lon="4.43667">
        <ele>1064</ele>
        <time>2021-04-27T09:24:36Z</time>
      </trkpt>
      <trkpt lat="45.14814" lon="4.43662">
        <ele>1064</ele>
        <time>2021-04-27T09:24:38Z</time>
      </trkpt>
      <trkpt lat="45.1481" lon="4.4366">
        <ele>1064</ele>
        <time>2021-04-27T09:24:39Z</time>
      </trkpt>
      <trkpt lat="45.14806" lon="4.4366">
        <ele>1065</ele>
        <time>2021-04-27T09:24:40Z</time>
      </trkpt>
      <trkpt lat="45.14803" lon="4.43658">
        <ele>1065</ele>
        <time>2021-04-27T09:24:41Z</time>
      </trkpt>
      <trkpt lat="45.14794" lon="4.43655">
        <ele>1066</ele>
        <time>2021-04-27T09:24:43Z</time>
      </trkpt>
      <trkpt lat="45.14791" lon="4.43652">
        <ele>1066</ele>
        <time>2021-04-27T09:24:44Z</time>
      </trkpt>
      <trkpt lat="45.14787" lon="4.4365">
        <ele>1066</ele>
        <time>2021-04-27T09:24:45Z</time>
      </trkpt>
      <trkpt lat="45.14784" lon="4.43649">
        <ele>1066</ele>
        <time>2021-04-27T09:24:46Z</time>
      </trkpt>
      <trkpt lat="45.14781" lon="4.43649">
        <ele>1066</ele>
        <time>2021-04-27T09:24:47Z</time>
      </trkpt>
      <trkpt lat="45.14776" lon="4.43647">
        <ele>1066</ele>
        <time>2021-04-27T09:24:48Z</time>
      </trkpt>
      <trkpt lat="45.14771" lon="4.43647">
        <ele>1067</ele>
        <time>2021-04-27T09:24:49Z</time>
      </trkpt>
      <trkpt lat="45.14766" lon="4.43646">
        <ele>1067</ele>
        <time>2021-04-27T09:24:50Z</time>
      </trkpt>
      <trkpt lat="45.14761" lon="4.43645">
        <ele>1067</ele>
        <time>2021-04-27T09:24:51Z</time>
      </trkpt>
      <trkpt lat="45.14756" lon="4.43644">
        <ele>1067</ele>
        <time>2021-04-27T09:24:52Z</time>
      </trkpt>
      <trkpt lat="45.14752" lon="4.43643">
        <ele>1067</ele>
        <time>2021-04-27T09:24:53Z</time>
      </trkpt>
      <trkpt lat="45.14747" lon="4.43642">
        <ele>1067</ele>
        <time>2021-04-27T09:24:54Z</time>
      </trkpt>
      <trkpt lat="45.14742" lon="4.43641">
        <ele>1067</ele>
        <time>2021-04-27T09:24:55Z</time>
      </trkpt>
      <trkpt lat="45.14737" lon="4.4364">
        <ele>1067</ele>
        <time>2021-04-27T09:24:56Z</time>
      </trkpt>
      <trkpt lat="45.14732" lon="4.43639">
        <ele>1067</ele>
        <time>2021-04-27T09:24:57Z</time>
      </trkpt>
      <trkpt lat="45.14727" lon="4.43639">
        <ele>1068</ele>
        <time>2021-04-27T09:24:58Z</time>
      </trkpt>
      <trkpt lat="45.14722" lon="4.43638">
        <ele>1068</ele>
        <time>2021-04-27T09:24:59Z</time>
      </trkpt>
      <trkpt lat="45.14717" lon="4.43638">
        <ele>1069</ele>
        <time>2021-04-27T09:25:00Z</time>
      </trkpt>
      <trkpt lat="45.14712" lon="4.43637">
        <ele>1069</ele>
        <time>2021-04-27T09:25:01Z</time>
      </trkpt>
      <trkpt lat="45.14707" lon="4.43637">
        <ele>1069</ele>
        <time>2021-04-27T09:25:02Z</time>
      </trkpt>
      <trkpt lat="45.14703" lon="4.43637">
        <ele>1070</ele>
        <time>2021-04-27T09:25:03Z</time>
      </trkpt>
      <trkpt lat="45.14698" lon="4.43637">
        <ele>1070</ele>
        <time>2021-04-27T09:25:04Z</time>
      </trkpt>
      <trkpt lat="45.14693" lon="4.43637">
        <ele>1070</ele>
        <time>2021-04-27T09:25:05Z</time>
      </trkpt>
      <trkpt lat="45.14688" lon="4.43638">
        <ele>1070</ele>
        <time>2021-04-27T09:25:06Z</time>
      </trkpt>
      <trkpt lat="45.14683" lon="4.43638">
        <ele>1071</ele>
        <time>2021-04-27T09:25:07Z</time>
      </trkpt>
      <trkpt lat="45.14679" lon="4.43639">
        <ele>1071</ele>
        <time>2021-04-27T09:25:08Z</time>
      </trkpt>
      <trkpt lat="45.14674" lon="4.43639">
        <ele>1071</ele>
        <time>2021-04-27T09:25:09Z</time>
      </trkpt>
      <trkpt lat="45.1467" lon="4.4364">
        <ele>1072</ele>
        <time>2021-04-27T09:25:10Z</time>
      </trkpt>
      <trkpt lat="45.14666" lon="4.43641">
        <ele>1072</ele>
        <time>2021-04-27T09:25:11Z</time>
      </trkpt>
      <trkpt lat="45.14662" lon="4.43643">
        <ele>1072</ele>
        <time>2021-04-27T09:25:12Z</time>
      </trkpt>
      <trkpt lat="45.14659" lon="4.43644">
        <ele>1073</ele>
        <time>2021-04-27T09:25:13Z</time>
      </trkpt>
      <trkpt lat="45.14656" lon="4.43646">
        <ele>1073</ele>
        <time>2021-04-27T09:25:14Z</time>
      </trkpt>
      <trkpt lat="45.14652" lon="4.43647">
        <ele>1073</ele>
        <time>2021-04-27T09:25:15Z</time>
      </trkpt>
      <trkpt lat="45.14649" lon="4.43649">
        <ele>1073</ele>
        <time>2021-04-27T09:25:16Z</time>
      </trkpt>
      <trkpt lat="45.14646" lon="4.4365">
        <ele>1074</ele>
        <time>2021-04-27T09:25:17Z</time>
      </trkpt>
      <trkpt lat="45.14643" lon="4.43652">
        <ele>1074</ele>
        <time>2021-04-27T09:25:18Z</time>
      </trkpt>
      <trkpt lat="45.1464" lon="4.43653">
        <ele>1074</ele>
        <time>2021-04-27T09:25:19Z</time>
      </trkpt>
      <trkpt lat="45.14637" lon="4.43654">
        <ele>1074</ele>
        <time>2021-04-27T09:25:20Z</time>
      </trkpt>
      <trkpt lat="45.14634" lon="4.43656">
        <ele>1074</ele>
        <time>2021-04-27T09:25:21Z</time>
      </trkpt>
      <trkpt lat="45.14631" lon="4.43657">
        <ele>1074</ele>
        <time>2021-04-27T09:25:22Z</time>
      </trkpt>
      <trkpt lat="45.14628" lon="4.43659">
        <ele>1074</ele>
        <time>2021-04-27T09:25:23Z</time>
      </trkpt>
      <trkpt lat="45.14625" lon="4.43661">
        <ele>1074</ele>
        <time>2021-04-27T09:25:24Z</time>
      </trkpt>
      <trkpt lat="45.14622" lon="4.43663">
        <ele>1074</ele>
        <time>2021-04-27T09:25:25Z</time>
      </trkpt>
      <trkpt lat="45.14619" lon="4.43664">
        <ele>1074</ele>
        <time>2021-04-27T09:25:26Z</time>
      </trkpt>
      <trkpt lat="45.14617" lon="4.43666">
        <ele>1074</ele>
        <time>2021-04-27T09:25:27Z</time>
      </trkpt>
      <trkpt lat="45.14614" lon="4.43667">
        <ele>1075</ele>
        <time>2021-04-27T09:25:28Z</time>
      </trkpt>
      <trkpt lat="45.14612" lon="4.43668">
        <ele>1075</ele>
        <time>2021-04-27T09:25:29Z</time>
      </trkpt>
      <trkpt lat="45.14609" lon="4.4367">
        <ele>1075</ele>
        <time>2021-04-27T09:25:30Z</time>
      </trkpt>
      <trkpt lat="45.14606" lon="4.43671">
        <ele>1075</ele>
        <time>2021-04-27T09:25:31Z</time>
      </trkpt>
      <trkpt lat="45.14603" lon="4.43673">
        <ele>1075</ele>
        <time>2021-04-27T09:25:32Z</time>
      </trkpt>
      <trkpt lat="45.146" lon="4.43674">
        <ele>1076</ele>
        <time>2021-04-27T09:25:33Z</time>
      </trkpt>
      <trkpt lat="45.14598" lon="4.43675">
        <ele>1076</ele>
        <time>2021-04-27T09:25:34Z</time>
      </trkpt>
      <trkpt lat="45.14596" lon="4.43676">
        <ele>1076</ele>
        <time>2021-04-27T09:25:35Z</time>
      </trkpt>
      <trkpt lat="45.14593" lon="4.43677">
        <ele>1076</ele>
        <time>2021-04-27T09:25:36Z</time>
      </trkpt>
      <trkpt lat="45.1459" lon="4.43678">
        <ele>1077</ele>
        <time>2021-04-27T09:25:37Z</time>
      </trkpt>
      <trkpt lat="45.14587" lon="4.43679">
        <ele>1077</ele>
        <time>2021-04-27T09:25:38Z</time>
      </trkpt>
      <trkpt lat="45.14584" lon="4.43679">
        <ele>1078</ele>
        <time>2021-04-27T09:25:39Z</time>
      </trkpt>
      <trkpt lat="45.14581" lon="4.43678">
        <ele>1078</ele>
        <time>2021-04-27T09:25:40Z</time>
      </trkpt>
      <trkpt lat="45.14578" lon="4.43678">
        <ele>1079</ele>
        <time>2021-04-27T09:25:41Z</time>
      </trkpt>
      <trkpt lat="45.14575" lon="4.43677">
        <ele>1080</ele>
        <time>2021-04-27T09:25:42Z</time>
      </trkpt>
      <trkpt lat="45.14572" lon="4.43676">
        <ele>1080</ele>
        <time>2021-04-27T09:25:43Z</time>
      </trkpt>
      <trkpt lat="45.14569" lon="4.43675">
        <ele>1081</ele>
        <time>2021-04-27T09:25:44Z</time>
      </trkpt>
      <trkpt lat="45.14566" lon="4.43674">
        <ele>1081</ele>
        <time>2021-04-27T09:25:45Z</time>
      </trkpt>
      <trkpt lat="45.14564" lon="4.43673">
        <ele>1081</ele>
        <time>2021-04-27T09:25:46Z</time>
      </trkpt>
      <trkpt lat="45.14561" lon="4.43672">
        <ele>1082</ele>
        <time>2021-04-27T09:25:47Z</time>
      </trkpt>
      <trkpt lat="45.14558" lon="4.4367">
        <ele>1082</ele>
        <time>2021-04-27T09:25:48Z</time>
      </trkpt>
      <trkpt lat="45.14556" lon="4.43669">
        <ele>1083</ele>
        <time>2021-04-27T09:25:49Z</time>
      </trkpt>
      <trkpt lat="45.14553" lon="4.43668">
        <ele>1083</ele>
        <time>2021-04-27T09:25:50Z</time>
      </trkpt>
      <trkpt lat="45.1455" lon="4.43668">
        <ele>1083</ele>
        <time>2021-04-27T09:25:51Z</time>
      </trkpt>
      <trkpt lat="45.14547" lon="4.43666">
        <ele>1084</ele>
        <time>2021-04-27T09:25:52Z</time>
      </trkpt>
      <trkpt lat="45.14544" lon="4.43665">
        <ele>1084</ele>
        <time>2021-04-27T09:25:53Z</time>
      </trkpt>
      <trkpt lat="45.14541" lon="4.43664">
        <ele>1084</ele>
        <time>2021-04-27T09:25:54Z</time>
      </trkpt>
      <trkpt lat="45.14539" lon="4.43662">
        <ele>1085</ele>
        <time>2021-04-27T09:25:55Z</time>
      </trkpt>
      <trkpt lat="45.14536" lon="4.43661">
        <ele>1085</ele>
        <time>2021-04-27T09:25:56Z</time>
      </trkpt>
      <trkpt lat="45.14533" lon="4.4366">
        <ele>1085</ele>
        <time>2021-04-27T09:25:57Z</time>
      </trkpt>
      <trkpt lat="45.14531" lon="4.43659">
        <ele>1086</ele>
        <time>2021-04-27T09:25:58Z</time>
      </trkpt>
      <trkpt lat="45.14528" lon="4.43657">
        <ele>1086</ele>
        <time>2021-04-27T09:25:59Z</time>
      </trkpt>
      <trkpt lat="45.14525" lon="4.43657">
        <ele>1087</ele>
        <time>2021-04-27T09:26:00Z</time>
      </trkpt>
      <trkpt lat="45.14522" lon="4.43656">
        <ele>1087</ele>
        <time>2021-04-27T09:26:01Z</time>
      </trkpt>
      <trkpt lat="45.1452" lon="4.43656">
        <ele>1088</ele>
        <time>2021-04-27T09:26:02Z</time>
      </trkpt>
      <trkpt lat="45.14517" lon="4.43656">
        <ele>1088</ele>
        <time>2021-04-27T09:26:03Z</time>
      </trkpt>
      <trkpt lat="45.14514" lon="4.43657">
        <ele>1088</ele>
        <time>2021-04-27T09:26:04Z</time>
      </trkpt>
      <trkpt lat="45.14511" lon="4.43657">
        <ele>1089</ele>
        <time>2021-04-27T09:26:05Z</time>
      </trkpt>
      <trkpt lat="45.14508" lon="4.43657">
        <ele>1089</ele>
        <time>2021-04-27T09:26:06Z</time>
      </trkpt>
      <trkpt lat="45.14505" lon="4.43658">
        <ele>1090</ele>
        <time>2021-04-27T09:26:07Z</time>
      </trkpt>
      <trkpt lat="45.14502" lon="4.43659">
        <ele>1090</ele>
        <time>2021-04-27T09:26:08Z</time>
      </trkpt>
      <trkpt lat="45.14499" lon="4.43659">
        <ele>1090</ele>
        <time>2021-04-27T09:26:09Z</time>
      </trkpt>
      <trkpt lat="45.14496" lon="4.4366">
        <ele>1091</ele>
        <time>2021-04-27T09:26:10Z</time>
      </trkpt>
      <trkpt lat="45.14493" lon="4.43661">
        <ele>1091</ele>
        <time>2021-04-27T09:26:11Z</time>
      </trkpt>
      <trkpt lat="45.1449" lon="4.43662">
        <ele>1092</ele>
        <time>2021-04-27T09:26:12Z</time>
      </trkpt>
      <trkpt lat="45.14487" lon="4.43663">
        <ele>1092</ele>
        <time>2021-04-27T09:26:13Z</time>
      </trkpt>
      <trkpt lat="45.14484" lon="4.43665">
        <ele>1093</ele>
        <time>2021-04-27T09:26:14Z</time>
      </trkpt>
      <trkpt lat="45.14481" lon="4.43666">
        <ele>1093</ele>
        <time>2021-04-27T09:26:15Z</time>
      </trkpt>
      <trkpt lat="45.14478" lon="4.43667">
        <ele>1093</ele>
        <time>2021-04-27T09:26:16Z</time>
      </trkpt>
      <trkpt lat="45.14474" lon="4.43667">
        <ele>1094</ele>
        <time>2021-04-27T09:26:17Z</time>
      </trkpt>
      <trkpt lat="45.14471" lon="4.43668">
        <ele>1094</ele>
        <time>2021-04-27T09:26:18Z</time>
      </trkpt>
      <trkpt lat="45.14468" lon="4.43668">
        <ele>1095</ele>
        <time>2021-04-27T09:26:19Z</time>
      </trkpt>
      <trkpt lat="45.14465" lon="4.43669">
        <ele>1095</ele>
        <time>2021-04-27T09:26:20Z</time>
      </trkpt>
      <trkpt lat="45.14461" lon="4.4367">
        <ele>1096</ele>
        <time>2021-04-27T09:26:21Z</time>
      </trkpt>
      <trkpt lat="45.14458" lon="4.43671">
        <ele>1096</ele>
        <time>2021-04-27T09:26:22Z</time>
      </trkpt>
      <trkpt lat="45.14455" lon="4.43672">
        <ele>1097</ele>
        <time>2021-04-27T09:26:23Z</time>
      </trkpt>
      <trkpt lat="45.14451" lon="4.43673">
        <ele>1097</ele>
        <time>2021-04-27T09:26:24Z</time>
      </trkpt>
      <trkpt lat="45.14448" lon="4.43673">
        <ele>1098</ele>
        <time>2021-04-27T09:26:25Z</time>
      </trkpt>
      <trkpt lat="45.14445" lon="4.43674">
        <ele>1098</ele>
        <time>2021-04-27T09:26:26Z</time>
      </trkpt>
      <trkpt lat="45.14441" lon="4.43675">
        <ele>1098</ele>
        <time>2021-04-27T09:26:27Z</time>
      </trkpt>
      <trkpt lat="45.14438" lon="4.43675">
        <ele>1099</ele>
        <time>2021-04-27T09:26:28Z</time>
      </trkpt>
      <trkpt lat="45.14435" lon="4.43676">
        <ele>1099</ele>
        <time>2021-04-27T09:26:29Z</time>
      </trkpt>
      <trkpt lat="45.14431" lon="4.43676">
        <ele>1100</ele>
        <time>2021-04-27T09:26:30Z</time>
      </trkpt>
      <trkpt lat="45.14428" lon="4.43676">
        <ele>1100</ele>
        <time>2021-04-27T09:26:31Z</time>
      </trkpt>
      <trkpt lat="45.14425" lon="4.43677">
        <ele>1101</ele>
        <time>2021-04-27T09:26:32Z</time>
      </trkpt>
      <trkpt lat="45.14422" lon="4.43677">
        <ele>1101</ele>
        <time>2021-04-27T09:26:33Z</time>
      </trkpt>
      <trkpt lat="45.14419" lon="4.43678">
        <ele>1102</ele>
        <time>2021-04-27T09:26:34Z</time>
      </trkpt>
      <trkpt lat="45.14416" lon="4.43679">
        <ele>1102</ele>
        <time>2021-04-27T09:26:35Z</time>
      </trkpt>
      <trkpt lat="45.14413" lon="4.4368">
        <ele>1102</ele>
        <time>2021-04-27T09:26:36Z</time>
      </trkpt>
      <trkpt lat="45.1441" lon="4.4368">
        <ele>1103</ele>
        <time>2021-04-27T09:26:37Z</time>
      </trkpt>
      <trkpt lat="45.14406" lon="4.4368">
        <ele>1103</ele>
        <time>2021-04-27T09:26:38Z</time>
      </trkpt>
      <trkpt lat="45.14403" lon="4.4368">
        <ele>1103</ele>
        <time>2021-04-27T09:26:39Z</time>
      </trkpt>
      <trkpt lat="45.144" lon="4.43681">
        <ele>1104</ele>
        <time>2021-04-27T09:26:40Z</time>
      </trkpt>
      <trkpt lat="45.14397" lon="4.4368">
        <ele>1104</ele>
        <time>2021-04-27T09:26:41Z</time>
      </trkpt>
      <trkpt lat="45.14394" lon="4.4368">
        <ele>1104</ele>
        <time>2021-04-27T09:26:42Z</time>
      </trkpt>
      <trkpt lat="45.1439" lon="4.43679">
        <ele>1104</ele>
        <time>2021-04-27T09:26:43Z</time>
      </trkpt>
      <trkpt lat="45.14386" lon="4.43678">
        <ele>1105</ele>
        <time>2021-04-27T09:26:44Z</time>
      </trkpt>
      <trkpt lat="45.14383" lon="4.43677">
        <ele>1105</ele>
        <time>2021-04-27T09:26:45Z</time>
      </trkpt>
      <trkpt lat="45.14379" lon="4.43675">
        <ele>1105</ele>
        <time>2021-04-27T09:26:46Z</time>
      </trkpt>
      <trkpt lat="45.14375" lon="4.43674">
        <ele>1106</ele>
        <time>2021-04-27T09:26:47Z</time>
      </trkpt>
      <trkpt lat="45.14371" lon="4.43673">
        <ele>1106</ele>
        <time>2021-04-27T09:26:48Z</time>
      </trkpt>
      <trkpt lat="45.14367" lon="4.43671">
        <ele>1106</ele>
        <time>2021-04-27T09:26:49Z</time>
      </trkpt>
      <trkpt lat="45.14363" lon="4.4367">
        <ele>1106</ele>
        <time>2021-04-27T09:26:50Z</time>
      </trkpt>
      <trkpt lat="45.14359" lon="4.4367">
        <ele>1106</ele>
        <time>2021-04-27T09:26:51Z</time>
      </trkpt>
      <trkpt lat="45.14356" lon="4.4367">
        <ele>1107</ele>
        <time>2021-04-27T09:26:52Z</time>
      </trkpt>
      <trkpt lat="45.14353" lon="4.43669">
        <ele>1108</ele>
        <time>2021-04-27T09:26:53Z</time>
      </trkpt>
      <trkpt lat="45.1435" lon="4.43669">
        <ele>1108</ele>
        <time>2021-04-27T09:26:54Z</time>
      </trkpt>
      <trkpt lat="45.14347" lon="4.43669">
        <ele>1109</ele>
        <time>2021-04-27T09:26:55Z</time>
      </trkpt>
      <trkpt lat="45.14345" lon="4.43669">
        <ele>1109</ele>
        <time>2021-04-27T09:26:56Z</time>
      </trkpt>
      <trkpt lat="45.14343" lon="4.4367">
        <ele>1110</ele>
        <time>2021-04-27T09:26:58Z</time>
      </trkpt>
      <trkpt lat="45.1434" lon="4.43669">
        <ele>1111</ele>
        <time>2021-04-27T09:27:01Z</time>
      </trkpt>
      <trkpt lat="45.14343" lon="4.43676">
        <ele>1114</ele>
        <time>2021-04-27T09:38:31Z</time>
      </trkpt>
      <trkpt lat="45.14343" lon="4.43677">
        <ele>1114</ele>
        <time>2021-04-27T09:38:36Z</time>
      </trkpt>
      <trkpt lat="45.1434" lon="4.4367">
        <ele>1114</ele>
        <time>2021-04-27T09:45:43Z</time>
      </trkpt>
      <trkpt lat="45.14338" lon="4.43669">
        <ele>1114</ele>
        <time>2021-04-27T09:45:44Z</time>
      </trkpt>
      <trkpt lat="45.14335" lon="4.43668">
        <ele>1114</ele>
        <time>2021-04-27T09:45:46Z</time>
      </trkpt>
      <trkpt lat="45.14333" lon="4.43667">
        <ele>1115</ele>
        <time>2021-04-27T09:45:48Z</time>
      </trkpt>
      <trkpt lat="45.1433" lon="4.43666">
        <ele>1114</ele>
        <time>2021-04-27T09:45:50Z</time>
      </trkpt>
      <trkpt lat="45.14328" lon="4.43666">
        <ele>1114</ele>
        <time>2021-04-27T09:45:52Z</time>
      </trkpt>
      <trkpt lat="45.14325" lon="4.43665">
        <ele>1115</ele>
        <time>2021-04-27T09:45:54Z</time>
      </trkpt>
      <trkpt lat="45.14322" lon="4.43664">
        <ele>1115</ele>
        <time>2021-04-27T09:45:56Z</time>
      </trkpt>
      <trkpt lat="45.1432" lon="4.43663">
        <ele>1115</ele>
        <time>2021-04-27T09:45:57Z</time>
      </trkpt>
      <trkpt lat="45.14318" lon="4.43662">
        <ele>1115</ele>
        <time>2021-04-27T09:45:58Z</time>
      </trkpt>
      <trkpt lat="45.14316" lon="4.43661">
        <ele>1115</ele>
        <time>2021-04-27T09:45:59Z</time>
      </trkpt>
      <trkpt lat="45.14313" lon="4.4366">
        <ele>1115</ele>
        <time>2021-04-27T09:46:00Z</time>
      </trkpt>
      <trkpt lat="45.1431" lon="4.43659">
        <ele>1115</ele>
        <time>2021-04-27T09:46:01Z</time>
      </trkpt>
      <trkpt lat="45.14307" lon="4.43658">
        <ele>1115</ele>
        <time>2021-04-27T09:46:02Z</time>
      </trkpt>
      <trkpt lat="45.14304" lon="4.43657">
        <ele>1115</ele>
        <time>2021-04-27T09:46:03Z</time>
      </trkpt>
      <trkpt lat="45.14301" lon="4.43656">
        <ele>1115</ele>
        <time>2021-04-27T09:46:04Z</time>
      </trkpt>
      <trkpt lat="45.14298" lon="4.43655">
        <ele>1115</ele>
        <time>2021-04-27T09:46:05Z</time>
      </trkpt>
      <trkpt lat="45.14295" lon="4.43653">
        <ele>1115</ele>
        <time>2021-04-27T09:46:06Z</time>
      </trkpt>
      <trkpt lat="45.14292" lon="4.43652">
        <ele>1115</ele>
        <time>2021-04-27T09:46:07Z</time>
      </trkpt>
      <trkpt lat="45.14289" lon="4.43651">
        <ele>1115</ele>
        <time>2021-04-27T09:46:08Z</time>
      </trkpt>
      <trkpt lat="45.14286" lon="4.4365">
        <ele>1115</ele>
        <time>2021-04-27T09:46:09Z</time>
      </trkpt>
      <trkpt lat="45.14283" lon="4.43649">
        <ele>1115</ele>
        <time>2021-04-27T09:46:10Z</time>
      </trkpt>
      <trkpt lat="45.1428" lon="4.43647">
        <ele>1115</ele>
        <time>2021-04-27T09:46:11Z</time>
      </trkpt>
      <trkpt lat="45.14277" lon="4.43645">
        <ele>1115</ele>
        <time>2021-04-27T09:46:12Z</time>
      </trkpt>
      <trkpt lat="45.14275" lon="4.43642">
        <ele>1115</ele>
        <time>2021-04-27T09:46:13Z</time>
      </trkpt>
      <trkpt lat="45.14273" lon="4.43638">
        <ele>1115</ele>
        <time>2021-04-27T09:46:14Z</time>
      </trkpt>
      <trkpt lat="45.14271" lon="4.43635">
        <ele>1115</ele>
        <time>2021-04-27T09:46:15Z</time>
      </trkpt>
      <trkpt lat="45.1427" lon="4.43631">
        <ele>1115</ele>
        <time>2021-04-27T09:46:16Z</time>
      </trkpt>
      <trkpt lat="45.14268" lon="4.43626">
        <ele>1115</ele>
        <time>2021-04-27T09:46:17Z</time>
      </trkpt>
      <trkpt lat="45.14265" lon="4.43622">
        <ele>1115</ele>
        <time>2021-04-27T09:46:18Z</time>
      </trkpt>
      <trkpt lat="45.14263" lon="4.43618">
        <ele>1115</ele>
        <time>2021-04-27T09:46:19Z</time>
      </trkpt>
      <trkpt lat="45.1426" lon="4.43615">
        <ele>1115</ele>
        <time>2021-04-27T09:46:20Z</time>
      </trkpt>
      <trkpt lat="45.14256" lon="4.43612">
        <ele>1115</ele>
        <time>2021-04-27T09:46:21Z</time>
      </trkpt>
      <trkpt lat="45.14253" lon="4.43608">
        <ele>1115</ele>
        <time>2021-04-27T09:46:22Z</time>
      </trkpt>
      <trkpt lat="45.1425" lon="4.43605">
        <ele>1115</ele>
        <time>2021-04-27T09:46:23Z</time>
      </trkpt>
      <trkpt lat="45.14246" lon="4.43602">
        <ele>1115</ele>
        <time>2021-04-27T09:46:24Z</time>
      </trkpt>
      <trkpt lat="45.14243" lon="4.43599">
        <ele>1115</ele>
        <time>2021-04-27T09:46:25Z</time>
      </trkpt>
      <trkpt lat="45.1424" lon="4.43595">
        <ele>1115</ele>
        <time>2021-04-27T09:46:26Z</time>
      </trkpt>
      <trkpt lat="45.14237" lon="4.43591">
        <ele>1116</ele>
        <time>2021-04-27T09:46:27Z</time>
      </trkpt>
      <trkpt lat="45.14234" lon="4.43586">
        <ele>1116</ele>
        <time>2021-04-27T09:46:28Z</time>
      </trkpt>
      <trkpt lat="45.14232" lon="4.43581">
        <ele>1116</ele>
        <time>2021-04-27T09:46:29Z</time>
      </trkpt>
      <trkpt lat="45.14229" lon="4.43576">
        <ele>1116</ele>
        <time>2021-04-27T09:46:30Z</time>
      </trkpt>
      <trkpt lat="45.14227" lon="4.43572">
        <ele>1116</ele>
        <time>2021-04-27T09:46:31Z</time>
      </trkpt>
      <trkpt lat="45.14225" lon="4.43567">
        <ele>1116</ele>
        <time>2021-04-27T09:46:32Z</time>
      </trkpt>
      <trkpt lat="45.14222" lon="4.43563">
        <ele>1116</ele>
        <time>2021-04-27T09:46:33Z</time>
      </trkpt>
      <trkpt lat="45.1422" lon="4.43559">
        <ele>1116</ele>
        <time>2021-04-27T09:46:34Z</time>
      </trkpt>
      <trkpt lat="45.14218" lon="4.43554">
        <ele>1117</ele>
        <time>2021-04-27T09:46:35Z</time>
      </trkpt>
      <trkpt lat="45.14216" lon="4.4355">
        <ele>1117</ele>
        <time>2021-04-27T09:46:36Z</time>
      </trkpt>
      <trkpt lat="45.14215" lon="4.43546">
        <ele>1117</ele>
        <time>2021-04-27T09:46:37Z</time>
      </trkpt>
      <trkpt lat="45.14213" lon="4.43542">
        <ele>1117</ele>
        <time>2021-04-27T09:46:38Z</time>
      </trkpt>
      <trkpt lat="45.14212" lon="4.43537">
        <ele>1117</ele>
        <time>2021-04-27T09:46:39Z</time>
      </trkpt>
      <trkpt lat="45.1421" lon="4.43533">
        <ele>1117</ele>
        <time>2021-04-27T09:46:40Z</time>
      </trkpt>
      <trkpt lat="45.14208" lon="4.43529">
        <ele>1117</ele>
        <time>2021-04-27T09:46:41Z</time>
      </trkpt>
      <trkpt lat="45.14205" lon="4.43527">
        <ele>1117</ele>
        <time>2021-04-27T09:46:42Z</time>
      </trkpt>
      <trkpt lat="45.14202" lon="4.43527">
        <ele>1117</ele>
        <time>2021-04-27T09:46:43Z</time>
      </trkpt>
      <trkpt lat="45.14198" lon="4.43528">
        <ele>1117</ele>
        <time>2021-04-27T09:46:44Z</time>
      </trkpt>
      <trkpt lat="45.14196" lon="4.43529">
        <ele>1117</ele>
        <time>2021-04-27T09:46:45Z</time>
      </trkpt>
      <trkpt lat="45.14193" lon="4.4353">
        <ele>1117</ele>
        <time>2021-04-27T09:46:46Z</time>
      </trkpt>
      <trkpt lat="45.1419" lon="4.43531">
        <ele>1117</ele>
        <time>2021-04-27T09:46:47Z</time>
      </trkpt>
      <trkpt lat="45.14188" lon="4.43531">
        <ele>1118</ele>
        <time>2021-04-27T09:46:48Z</time>
      </trkpt>
      <trkpt lat="45.14185" lon="4.4353">
        <ele>1118</ele>
        <time>2021-04-27T09:46:49Z</time>
      </trkpt>
      <trkpt lat="45.14182" lon="4.43528">
        <ele>1118</ele>
        <time>2021-04-27T09:46:50Z</time>
      </trkpt>
      <trkpt lat="45.14179" lon="4.43526">
        <ele>1118</ele>
        <time>2021-04-27T09:46:51Z</time>
      </trkpt>
      <trkpt lat="45.14176" lon="4.43524">
        <ele>1118</ele>
        <time>2021-04-27T09:46:52Z</time>
      </trkpt>
      <trkpt lat="45.14173" lon="4.43522">
        <ele>1118</ele>
        <time>2021-04-27T09:46:53Z</time>
      </trkpt>
      <trkpt lat="45.14171" lon="4.4352">
        <ele>1118</ele>
        <time>2021-04-27T09:46:54Z</time>
      </trkpt>
      <trkpt lat="45.14168" lon="4.43518">
        <ele>1119</ele>
        <time>2021-04-27T09:46:55Z</time>
      </trkpt>
      <trkpt lat="45.14165" lon="4.43515">
        <ele>1119</ele>
        <time>2021-04-27T09:46:56Z</time>
      </trkpt>
      <trkpt lat="45.14162" lon="4.43513">
        <ele>1119</ele>
        <time>2021-04-27T09:46:57Z</time>
      </trkpt>
      <trkpt lat="45.14159" lon="4.43511">
        <ele>1119</ele>
        <time>2021-04-27T09:46:58Z</time>
      </trkpt>
      <trkpt lat="45.14156" lon="4.43508">
        <ele>1119</ele>
        <time>2021-04-27T09:46:59Z</time>
      </trkpt>
      <trkpt lat="45.14153" lon="4.43506">
        <ele>1119</ele>
        <time>2021-04-27T09:47:00Z</time>
      </trkpt>
      <trkpt lat="45.1415" lon="4.43504">
        <ele>1119</ele>
        <time>2021-04-27T09:47:01Z</time>
      </trkpt>
      <trkpt lat="45.14147" lon="4.43502">
        <ele>1119</ele>
        <time>2021-04-27T09:47:02Z</time>
      </trkpt>
      <trkpt lat="45.14144" lon="4.43499">
        <ele>1119</ele>
        <time>2021-04-27T09:47:03Z</time>
      </trkpt>
      <trkpt lat="45.14142" lon="4.43496">
        <ele>1120</ele>
        <time>2021-04-27T09:47:04Z</time>
      </trkpt>
      <trkpt lat="45.14139" lon="4.43494">
        <ele>1120</ele>
        <time>2021-04-27T09:47:05Z</time>
      </trkpt>
      <trkpt lat="45.14136" lon="4.43492">
        <ele>1120</ele>
        <time>2021-04-27T09:47:06Z</time>
      </trkpt>
      <trkpt lat="45.14133" lon="4.4349">
        <ele>1120</ele>
        <time>2021-04-27T09:47:07Z</time>
      </trkpt>
      <trkpt lat="45.1413" lon="4.43487">
        <ele>1120</ele>
        <time>2021-04-27T09:47:08Z</time>
      </trkpt>
      <trkpt lat="45.14128" lon="4.43485">
        <ele>1120</ele>
        <time>2021-04-27T09:47:09Z</time>
      </trkpt>
      <trkpt lat="45.14125" lon="4.43483">
        <ele>1120</ele>
        <time>2021-04-27T09:47:10Z</time>
      </trkpt>
      <trkpt lat="45.14122" lon="4.43481">
        <ele>1120</ele>
        <time>2021-04-27T09:47:11Z</time>
      </trkpt>
      <trkpt lat="45.1412" lon="4.43478">
        <ele>1120</ele>
        <time>2021-04-27T09:47:12Z</time>
      </trkpt>
      <trkpt lat="45.14117" lon="4.43476">
        <ele>1120</ele>
        <time>2021-04-27T09:47:13Z</time>
      </trkpt>
      <trkpt lat="45.14115" lon="4.43474">
        <ele>1121</ele>
        <time>2021-04-27T09:47:14Z</time>
      </trkpt>
      <trkpt lat="45.14113" lon="4.43471">
        <ele>1121</ele>
        <time>2021-04-27T09:47:15Z</time>
      </trkpt>
      <trkpt lat="45.1411" lon="4.43469">
        <ele>1122</ele>
        <time>2021-04-27T09:47:16Z</time>
      </trkpt>
      <trkpt lat="45.14108" lon="4.43466">
        <ele>1122</ele>
        <time>2021-04-27T09:47:17Z</time>
      </trkpt>
      <trkpt lat="45.14106" lon="4.43463">
        <ele>1122</ele>
        <time>2021-04-27T09:47:18Z</time>
      </trkpt>
      <trkpt lat="45.14103" lon="4.43461">
        <ele>1122</ele>
        <time>2021-04-27T09:47:19Z</time>
      </trkpt>
      <trkpt lat="45.14101" lon="4.43458">
        <ele>1123</ele>
        <time>2021-04-27T09:47:20Z</time>
      </trkpt>
      <trkpt lat="45.14098" lon="4.43455">
        <ele>1123</ele>
        <time>2021-04-27T09:47:21Z</time>
      </trkpt>
      <trkpt lat="45.14095" lon="4.43452">
        <ele>1124</ele>
        <time>2021-04-27T09:47:22Z</time>
      </trkpt>
      <trkpt lat="45.14093" lon="4.4345">
        <ele>1124</ele>
        <time>2021-04-27T09:47:23Z</time>
      </trkpt>
      <trkpt lat="45.1409" lon="4.43447">
        <ele>1125</ele>
        <time>2021-04-27T09:47:24Z</time>
      </trkpt>
      <trkpt lat="45.14088" lon="4.43444">
        <ele>1125</ele>
        <time>2021-04-27T09:47:25Z</time>
      </trkpt>
      <trkpt lat="45.14085" lon="4.43442">
        <ele>1126</ele>
        <time>2021-04-27T09:47:26Z</time>
      </trkpt>
      <trkpt lat="45.14083" lon="4.43439">
        <ele>1126</ele>
        <time>2021-04-27T09:47:27Z</time>
      </trkpt>
      <trkpt lat="45.14081" lon="4.43437">
        <ele>1127</ele>
        <time>2021-04-27T09:47:28Z</time>
      </trkpt>
      <trkpt lat="45.14078" lon="4.43434">
        <ele>1127</ele>
        <time>2021-04-27T09:47:29Z</time>
      </trkpt>
      <trkpt lat="45.14075" lon="4.43432">
        <ele>1127</ele>
        <time>2021-04-27T09:47:30Z</time>
      </trkpt>
      <trkpt lat="45.14073" lon="4.4343">
        <ele>1128</ele>
        <time>2021-04-27T09:47:31Z</time>
      </trkpt>
      <trkpt lat="45.1407" lon="4.43427">
        <ele>1128</ele>
        <time>2021-04-27T09:47:32Z</time>
      </trkpt>
      <trkpt lat="45.14068" lon="4.43425">
        <ele>1128</ele>
        <time>2021-04-27T09:47:33Z</time>
      </trkpt>
      <trkpt lat="45.14065" lon="4.43423">
        <ele>1129</ele>
        <time>2021-04-27T09:47:34Z</time>
      </trkpt>
      <trkpt lat="45.14062" lon="4.4342">
        <ele>1129</ele>
        <time>2021-04-27T09:47:35Z</time>
      </trkpt>
      <trkpt lat="45.1406" lon="4.43418">
        <ele>1129</ele>
        <time>2021-04-27T09:47:36Z</time>
      </trkpt>
      <trkpt lat="45.14057" lon="4.43416">
        <ele>1129</ele>
        <time>2021-04-27T09:47:37Z</time>
      </trkpt>
      <trkpt lat="45.14054" lon="4.43413">
        <ele>1129</ele>
        <time>2021-04-27T09:47:38Z</time>
      </trkpt>
      <trkpt lat="45.14052" lon="4.43411">
        <ele>1130</ele>
        <time>2021-04-27T09:47:39Z</time>
      </trkpt>
      <trkpt lat="45.14049" lon="4.43409">
        <ele>1130</ele>
        <time>2021-04-27T09:47:40Z</time>
      </trkpt>
      <trkpt lat="45.14046" lon="4.43406">
        <ele>1130</ele>
        <time>2021-04-27T09:47:41Z</time>
      </trkpt>
      <trkpt lat="45.14043" lon="4.43404">
        <ele>1130</ele>
        <time>2021-04-27T09:47:42Z</time>
      </trkpt>
      <trkpt lat="45.1404" lon="4.43401">
        <ele>1130</ele>
        <time>2021-04-27T09:47:43Z</time>
      </trkpt>
      <trkpt lat="45.14037" lon="4.43399">
        <ele>1130</ele>
        <time>2021-04-27T09:47:44Z</time>
      </trkpt>
      <trkpt lat="45.14034" lon="4.43397">
        <ele>1130</ele>
        <time>2021-04-27T09:47:45Z</time>
      </trkpt>
      <trkpt lat="45.14031" lon="4.43394">
        <ele>1130</ele>
        <time>2021-04-27T09:47:46Z</time>
      </trkpt>
      <trkpt lat="45.14028" lon="4.43392">
        <ele>1131</ele>
        <time>2021-04-27T09:47:47Z</time>
      </trkpt>
      <trkpt lat="45.14025" lon="4.4339">
        <ele>1131</ele>
        <time>2021-04-27T09:47:48Z</time>
      </trkpt>
      <trkpt lat="45.14022" lon="4.43388">
        <ele>1131</ele>
        <time>2021-04-27T09:47:49Z</time>
      </trkpt>
      <trkpt lat="45.14019" lon="4.43386">
        <ele>1131</ele>
        <time>2021-04-27T09:47:50Z</time>
      </trkpt>
      <trkpt lat="45.14016" lon="4.43384">
        <ele>1131</ele>
        <time>2021-04-27T09:47:51Z</time>
      </trkpt>
      <trkpt lat="45.14013" lon="4.43381">
        <ele>1132</ele>
        <time>2021-04-27T09:47:52Z</time>
      </trkpt>
      <trkpt lat="45.1401" lon="4.43379">
        <ele>1132</ele>
        <time>2021-04-27T09:47:53Z</time>
      </trkpt>
      <trkpt lat="45.14006" lon="4.43377">
        <ele>1132</ele>
        <time>2021-04-27T09:47:54Z</time>
      </trkpt>
      <trkpt lat="45.14003" lon="4.43375">
        <ele>1133</ele>
        <time>2021-04-27T09:47:55Z</time>
      </trkpt>
      <trkpt lat="45.14" lon="4.43373">
        <ele>1133</ele>
        <time>2021-04-27T09:47:56Z</time>
      </trkpt>
      <trkpt lat="45.13996" lon="4.43371">
        <ele>1133</ele>
        <time>2021-04-27T09:47:57Z</time>
      </trkpt>
      <trkpt lat="45.13993" lon="4.43369">
        <ele>1133</ele>
        <time>2021-04-27T09:47:58Z</time>
      </trkpt>
      <trkpt lat="45.1399" lon="4.43367">
        <ele>1133</ele>
        <time>2021-04-27T09:47:59Z</time>
      </trkpt>
      <trkpt lat="45.13986" lon="4.43365">
        <ele>1133</ele>
        <time>2021-04-27T09:48:00Z</time>
      </trkpt>
      <trkpt lat="45.13982" lon="4.43363">
        <ele>1134</ele>
        <time>2021-04-27T09:48:01Z</time>
      </trkpt>
      <trkpt lat="45.13979" lon="4.43361">
        <ele>1134</ele>
        <time>2021-04-27T09:48:02Z</time>
      </trkpt>
      <trkpt lat="45.13975" lon="4.43359">
        <ele>1134</ele>
        <time>2021-04-27T09:48:03Z</time>
      </trkpt>
      <trkpt lat="45.13971" lon="4.43357">
        <ele>1134</ele>
        <time>2021-04-27T09:48:04Z</time>
      </trkpt>
      <trkpt lat="45.13967" lon="4.43355">
        <ele>1135</ele>
        <time>2021-04-27T09:48:05Z</time>
      </trkpt>
      <trkpt lat="45.13963" lon="4.43352">
        <ele>1135</ele>
        <time>2021-04-27T09:48:06Z</time>
      </trkpt>
      <trkpt lat="45.13958" lon="4.4335">
        <ele>1135</ele>
        <time>2021-04-27T09:48:07Z</time>
      </trkpt>
      <trkpt lat="45.13954" lon="4.43348">
        <ele>1136</ele>
        <time>2021-04-27T09:48:08Z</time>
      </trkpt>
      <trkpt lat="45.1395" lon="4.43346">
        <ele>1136</ele>
        <time>2021-04-27T09:48:09Z</time>
      </trkpt>
      <trkpt lat="45.13946" lon="4.43344">
        <ele>1136</ele>
        <time>2021-04-27T09:48:10Z</time>
      </trkpt>
      <trkpt lat="45.13941" lon="4.43342">
        <ele>1136</ele>
        <time>2021-04-27T09:48:11Z</time>
      </trkpt>
      <trkpt lat="45.13937" lon="4.4334">
        <ele>1137</ele>
        <time>2021-04-27T09:48:12Z</time>
      </trkpt>
      <trkpt lat="45.13933" lon="4.43338">
        <ele>1137</ele>
        <time>2021-04-27T09:48:13Z</time>
      </trkpt>
      <trkpt lat="45.13929" lon="4.43336">
        <ele>1137</ele>
        <time>2021-04-27T09:48:14Z</time>
      </trkpt>
      <trkpt lat="45.13924" lon="4.43334">
        <ele>1138</ele>
        <time>2021-04-27T09:48:15Z</time>
      </trkpt>
      <trkpt lat="45.1392" lon="4.43331">
        <ele>1138</ele>
        <time>2021-04-27T09:48:16Z</time>
      </trkpt>
      <trkpt lat="45.13916" lon="4.43329">
        <ele>1138</ele>
        <time>2021-04-27T09:48:17Z</time>
      </trkpt>
      <trkpt lat="45.13911" lon="4.43327">
        <ele>1138</ele>
        <time>2021-04-27T09:48:18Z</time>
      </trkpt>
      <trkpt lat="45.13906" lon="4.43325">
        <ele>1138</ele>
        <time>2021-04-27T09:48:19Z</time>
      </trkpt>
      <trkpt lat="45.13902" lon="4.43322">
        <ele>1139</ele>
        <time>2021-04-27T09:48:20Z</time>
      </trkpt>
      <trkpt lat="45.13897" lon="4.4332">
        <ele>1139</ele>
        <time>2021-04-27T09:48:21Z</time>
      </trkpt>
      <trkpt lat="45.13892" lon="4.43318">
        <ele>1139</ele>
        <time>2021-04-27T09:48:22Z</time>
      </trkpt>
      <trkpt lat="45.13888" lon="4.43315">
        <ele>1139</ele>
        <time>2021-04-27T09:48:23Z</time>
      </trkpt>
      <trkpt lat="45.13883" lon="4.43313">
        <ele>1140</ele>
        <time>2021-04-27T09:48:24Z</time>
      </trkpt>
      <trkpt lat="45.13879" lon="4.43311">
        <ele>1140</ele>
        <time>2021-04-27T09:48:25Z</time>
      </trkpt>
      <trkpt lat="45.13874" lon="4.43309">
        <ele>1140</ele>
        <time>2021-04-27T09:48:26Z</time>
      </trkpt>
      <trkpt lat="45.13869" lon="4.43306">
        <ele>1140</ele>
        <time>2021-04-27T09:48:27Z</time>
      </trkpt>
      <trkpt lat="45.13864" lon="4.43304">
        <ele>1140</ele>
        <time>2021-04-27T09:48:28Z</time>
      </trkpt>
      <trkpt lat="45.13859" lon="4.43302">
        <ele>1140</ele>
        <time>2021-04-27T09:48:29Z</time>
      </trkpt>
      <trkpt lat="45.13854" lon="4.433">
        <ele>1140</ele>
        <time>2021-04-27T09:48:30Z</time>
      </trkpt>
      <trkpt lat="45.1385" lon="4.43298">
        <ele>1140</ele>
        <time>2021-04-27T09:48:31Z</time>
      </trkpt>
      <trkpt lat="45.13845" lon="4.43296">
        <ele>1141</ele>
        <time>2021-04-27T09:48:32Z</time>
      </trkpt>
      <trkpt lat="45.1384" lon="4.43294">
        <ele>1141</ele>
        <time>2021-04-27T09:48:33Z</time>
      </trkpt>
      <trkpt lat="45.13835" lon="4.43292">
        <ele>1141</ele>
        <time>2021-04-27T09:48:34Z</time>
      </trkpt>
      <trkpt lat="45.1383" lon="4.4329">
        <ele>1141</ele>
        <time>2021-04-27T09:48:35Z</time>
      </trkpt>
      <trkpt lat="45.13825" lon="4.43288">
        <ele>1141</ele>
        <time>2021-04-27T09:48:36Z</time>
      </trkpt>
      <trkpt lat="45.1382" lon="4.43286">
        <ele>1141</ele>
        <time>2021-04-27T09:48:37Z</time>
      </trkpt>
      <trkpt lat="45.13815" lon="4.43285">
        <ele>1141</ele>
        <time>2021-04-27T09:48:38Z</time>
      </trkpt>
      <trkpt lat="45.13809" lon="4.43283">
        <ele>1141</ele>
        <time>2021-04-27T09:48:39Z</time>
      </trkpt>
      <trkpt lat="45.13803" lon="4.43282">
        <ele>1141</ele>
        <time>2021-04-27T09:48:40Z</time>
      </trkpt>
      <trkpt lat="45.13798" lon="4.43281">
        <ele>1141</ele>
        <time>2021-04-27T09:48:41Z</time>
      </trkpt>
      <trkpt lat="45.13792" lon="4.43279">
        <ele>1141</ele>
        <time>2021-04-27T09:48:42Z</time>
      </trkpt>
      <trkpt lat="45.13786" lon="4.43278">
        <ele>1141</ele>
        <time>2021-04-27T09:48:43Z</time>
      </trkpt>
      <trkpt lat="45.1378" lon="4.43277">
        <ele>1141</ele>
        <time>2021-04-27T09:48:44Z</time>
      </trkpt>
      <trkpt lat="45.13773" lon="4.43277">
        <ele>1141</ele>
        <time>2021-04-27T09:48:45Z</time>
      </trkpt>
      <trkpt lat="45.13766" lon="4.43276">
        <ele>1141</ele>
        <time>2021-04-27T09:48:46Z</time>
      </trkpt>
      <trkpt lat="45.13759" lon="4.43275">
        <ele>1141</ele>
        <time>2021-04-27T09:48:47Z</time>
      </trkpt>
      <trkpt lat="45.13752" lon="4.43274">
        <ele>1141</ele>
        <time>2021-04-27T09:48:48Z</time>
      </trkpt>
      <trkpt lat="45.13745" lon="4.43273">
        <ele>1140</ele>
        <time>2021-04-27T09:48:49Z</time>
      </trkpt>
      <trkpt lat="45.13738" lon="4.43272">
        <ele>1140</ele>
        <time>2021-04-27T09:48:50Z</time>
      </trkpt>
      <trkpt lat="45.1373" lon="4.43271">
        <ele>1140</ele>
        <time>2021-04-27T09:48:51Z</time>
      </trkpt>
      <trkpt lat="45.13723" lon="4.4327">
        <ele>1140</ele>
        <time>2021-04-27T09:48:52Z</time>
      </trkpt>
      <trkpt lat="45.13716" lon="4.43269">
        <ele>1140</ele>
        <time>2021-04-27T09:48:53Z</time>
      </trkpt>
      <trkpt lat="45.13709" lon="4.43268">
        <ele>1140</ele>
        <time>2021-04-27T09:48:54Z</time>
      </trkpt>
      <trkpt lat="45.13702" lon="4.43267">
        <ele>1140</ele>
        <time>2021-04-27T09:48:55Z</time>
      </trkpt>
      <trkpt lat="45.13696" lon="4.43266">
        <ele>1140</ele>
        <time>2021-04-27T09:48:56Z</time>
      </trkpt>
      <trkpt lat="45.13689" lon="4.43265">
        <ele>1140</ele>
        <time>2021-04-27T09:48:57Z</time>
      </trkpt>
      <trkpt lat="45.13683" lon="4.43264">
        <ele>1140</ele>
        <time>2021-04-27T09:48:58Z</time>
      </trkpt>
      <trkpt lat="45.13677" lon="4.43263">
        <ele>1140</ele>
        <time>2021-04-27T09:48:59Z</time>
      </trkpt>
      <trkpt lat="45.13671" lon="4.43262">
        <ele>1140</ele>
        <time>2021-04-27T09:49:00Z</time>
      </trkpt>
      <trkpt lat="45.13666" lon="4.43261">
        <ele>1140</ele>
        <time>2021-04-27T09:49:01Z</time>
      </trkpt>
      <trkpt lat="45.13661" lon="4.4326">
        <ele>1140</ele>
        <time>2021-04-27T09:49:02Z</time>
      </trkpt>
      <trkpt lat="45.13657" lon="4.43259">
        <ele>1140</ele>
        <time>2021-04-27T09:49:03Z</time>
      </trkpt>
      <trkpt lat="45.13652" lon="4.43257">
        <ele>1140</ele>
        <time>2021-04-27T09:49:04Z</time>
      </trkpt>
      <trkpt lat="45.13648" lon="4.43255">
        <ele>1140</ele>
        <time>2021-04-27T09:49:05Z</time>
      </trkpt>
      <trkpt lat="45.13644" lon="4.43254">
        <ele>1140</ele>
        <time>2021-04-27T09:49:06Z</time>
      </trkpt>
      <trkpt lat="45.1364" lon="4.43253">
        <ele>1140</ele>
        <time>2021-04-27T09:49:07Z</time>
      </trkpt>
      <trkpt lat="45.13635" lon="4.43252">
        <ele>1140</ele>
        <time>2021-04-27T09:49:08Z</time>
      </trkpt>
      <trkpt lat="45.13631" lon="4.43252">
        <ele>1141</ele>
        <time>2021-04-27T09:49:09Z</time>
      </trkpt>
      <trkpt lat="45.13626" lon="4.43251">
        <ele>1141</ele>
        <time>2021-04-27T09:49:10Z</time>
      </trkpt>
      <trkpt lat="45.13622" lon="4.43251">
        <ele>1141</ele>
        <time>2021-04-27T09:49:11Z</time>
      </trkpt>
      <trkpt lat="45.13618" lon="4.43251">
        <ele>1142</ele>
        <time>2021-04-27T09:49:12Z</time>
      </trkpt>
      <trkpt lat="45.13613" lon="4.4325">
        <ele>1142</ele>
        <time>2021-04-27T09:49:13Z</time>
      </trkpt>
      <trkpt lat="45.13609" lon="4.4325">
        <ele>1142</ele>
        <time>2021-04-27T09:49:14Z</time>
      </trkpt>
      <trkpt lat="45.13605" lon="4.4325">
        <ele>1142</ele>
        <time>2021-04-27T09:49:15Z</time>
      </trkpt>
      <trkpt lat="45.13601" lon="4.4325">
        <ele>1142</ele>
        <time>2021-04-27T09:49:16Z</time>
      </trkpt>
      <trkpt lat="45.13596" lon="4.43249">
        <ele>1143</ele>
        <time>2021-04-27T09:49:17Z</time>
      </trkpt>
      <trkpt lat="45.13592" lon="4.43249">
        <ele>1143</ele>
        <time>2021-04-27T09:49:18Z</time>
      </trkpt>
      <trkpt lat="45.13588" lon="4.43248">
        <ele>1143</ele>
        <time>2021-04-27T09:49:19Z</time>
      </trkpt>
      <trkpt lat="45.13584" lon="4.43246">
        <ele>1143</ele>
        <time>2021-04-27T09:49:20Z</time>
      </trkpt>
      <trkpt lat="45.13579" lon="4.43243">
        <ele>1144</ele>
        <time>2021-04-27T09:49:21Z</time>
      </trkpt>
      <trkpt lat="45.13575" lon="4.4324">
        <ele>1144</ele>
        <time>2021-04-27T09:49:22Z</time>
      </trkpt>
      <trkpt lat="45.13571" lon="4.43237">
        <ele>1144</ele>
        <time>2021-04-27T09:49:23Z</time>
      </trkpt>
      <trkpt lat="45.13567" lon="4.43234">
        <ele>1144</ele>
        <time>2021-04-27T09:49:24Z</time>
      </trkpt>
      <trkpt lat="45.13563" lon="4.43231">
        <ele>1144</ele>
        <time>2021-04-27T09:49:25Z</time>
      </trkpt>
      <trkpt lat="45.13559" lon="4.43227">
        <ele>1145</ele>
        <time>2021-04-27T09:49:26Z</time>
      </trkpt>
      <trkpt lat="45.13555" lon="4.43224">
        <ele>1145</ele>
        <time>2021-04-27T09:49:27Z</time>
      </trkpt>
      <trkpt lat="45.13551" lon="4.4322">
        <ele>1145</ele>
        <time>2021-04-27T09:49:28Z</time>
      </trkpt>
      <trkpt lat="45.13547" lon="4.43216">
        <ele>1145</ele>
        <time>2021-04-27T09:49:29Z</time>
      </trkpt>
      <trkpt lat="45.13543" lon="4.43212">
        <ele>1145</ele>
        <time>2021-04-27T09:49:30Z</time>
      </trkpt>
      <trkpt lat="45.13539" lon="4.43208">
        <ele>1145</ele>
        <time>2021-04-27T09:49:31Z</time>
      </trkpt>
      <trkpt lat="45.13535" lon="4.43204">
        <ele>1146</ele>
        <time>2021-04-27T09:49:32Z</time>
      </trkpt>
      <trkpt lat="45.13531" lon="4.432">
        <ele>1145</ele>
        <time>2021-04-27T09:49:33Z</time>
      </trkpt>
      <trkpt lat="45.13527" lon="4.43196">
        <ele>1145</ele>
        <time>2021-04-27T09:49:34Z</time>
      </trkpt>
      <trkpt lat="45.13522" lon="4.43192">
        <ele>1145</ele>
        <time>2021-04-27T09:49:35Z</time>
      </trkpt>
      <trkpt lat="45.13518" lon="4.43187">
        <ele>1145</ele>
        <time>2021-04-27T09:49:36Z</time>
      </trkpt>
      <trkpt lat="45.13513" lon="4.43183">
        <ele>1145</ele>
        <time>2021-04-27T09:49:37Z</time>
      </trkpt>
      <trkpt lat="45.13508" lon="4.43178">
        <ele>1145</ele>
        <time>2021-04-27T09:49:38Z</time>
      </trkpt>
      <trkpt lat="45.13503" lon="4.43174">
        <ele>1145</ele>
        <time>2021-04-27T09:49:39Z</time>
      </trkpt>
      <trkpt lat="45.13498" lon="4.4317">
        <ele>1145</ele>
        <time>2021-04-27T09:49:40Z</time>
      </trkpt>
      <trkpt lat="45.13492" lon="4.43166">
        <ele>1145</ele>
        <time>2021-04-27T09:49:41Z</time>
      </trkpt>
      <trkpt lat="45.13487" lon="4.43163">
        <ele>1145</ele>
        <time>2021-04-27T09:49:42Z</time>
      </trkpt>
      <trkpt lat="45.13481" lon="4.43159">
        <ele>1145</ele>
        <time>2021-04-27T09:49:43Z</time>
      </trkpt>
      <trkpt lat="45.13476" lon="4.43156">
        <ele>1145</ele>
        <time>2021-04-27T09:49:44Z</time>
      </trkpt>
      <trkpt lat="45.1347" lon="4.43153">
        <ele>1145</ele>
        <time>2021-04-27T09:49:45Z</time>
      </trkpt>
      <trkpt lat="45.13465" lon="4.43149">
        <ele>1145</ele>
        <time>2021-04-27T09:49:46Z</time>
      </trkpt>
      <trkpt lat="45.1346" lon="4.43145">
        <ele>1145</ele>
        <time>2021-04-27T09:49:47Z</time>
      </trkpt>
    </trkseg>
  </trk>
</gpx>